<?xml version='1.0' encoding='UTF-8'?><gpx version="1.1" creator="JPX - https://github.com/jenetics/jpx" xmlns="http://www.topografix.com/GPX/1/1"><trk><trkseg><trkpt lat="45.83782071530454" lon="12.250241396134143"><ele>65.00000000000001</ele><time>2026-04-25T04:01:48Z</time></trkpt><trkpt lat="45.837888315177125" lon="12.250225082851005"><ele>65.0</ele><time>2026-04-25T04:01:52Z</time></trkpt><trkpt lat="45.837957994527855" lon="12.250189858077768"><ele>65.0</ele><time>2026-04-25T04:01:55Z</time></trkpt><trkpt lat="45.838029406308515" lon="12.250142813763642"><ele>65.0</ele><time>2026-04-25T04:01:58Z</time></trkpt><trkpt lat="45.838099773407535" lon="12.250100573130569"><ele>65.0</ele><time>2026-04-25T04:02:01Z</time></trkpt><trkpt lat="45.838155377782776" lon="12.250055013570305"><ele>65.00000000000001</ele><time>2026-04-25T04:02:04Z</time></trkpt><trkpt lat="45.8382214649294" lon="12.249999074084776"><ele>65.0</ele><time>2026-04-25T04:02:08Z</time></trkpt><trkpt lat="45.838299621417256" lon="12.249949727831803"><ele>65.00000000000001</ele><time>2026-04-25T04:02:11.999Z</time></trkpt><trkpt lat="45.83837178545834" lon="12.249900385602173"><ele>65.0</ele><time>2026-04-25T04:02:14.999Z</time></trkpt><trkpt lat="45.838454609872265" lon="12.249839120157906"><ele>65.0</ele><time>2026-04-25T04:02:17.999Z</time></trkpt><trkpt lat="45.83851426961179" lon="12.249798838979517"><ele>65.0</ele><time>2026-04-25T04:02:19.999Z</time></trkpt><trkpt lat="45.83857661035906" lon="12.24975681310075"><ele>65.0</ele><time>2026-04-25T04:02:21.999Z</time></trkpt><trkpt lat="45.838637793802235" lon="12.249709009159567"><ele>65.00000000000001</ele><time>2026-04-25T04:02:23.999Z</time></trkpt><trkpt lat="45.83870186656534" lon="12.24966332422836"><ele>65.0</ele><time>2026-04-25T04:02:25.999Z</time></trkpt><trkpt lat="45.83876684738607" lon="12.249617196192519"><ele>65.16666666666667</ele><time>2026-04-25T04:02:27.999Z</time></trkpt><trkpt lat="45.83883558132548" lon="12.249569167233725"><ele>65.33333333333334</ele><time>2026-04-25T04:02:29.999Z</time></trkpt><trkpt lat="45.838906695358716" lon="12.249520268974328"><ele>65.5</ele><time>2026-04-25T04:02:31.999Z</time></trkpt><trkpt lat="45.83898116917745" lon="12.249470071446698"><ele>65.66666666666667</ele><time>2026-04-25T04:02:33.999Z</time></trkpt><trkpt lat="45.83905664544698" lon="12.249418212658973"><ele>65.83333333333333</ele><time>2026-04-25T04:02:35.999Z</time></trkpt><trkpt lat="45.83913279286122" lon="12.249368380929525"><ele>66.0</ele><time>2026-04-25T04:02:37.999Z</time></trkpt><trkpt lat="45.83921011485534" lon="12.24931522525892"><ele>66.0</ele><time>2026-04-25T04:02:39.999Z</time></trkpt><trkpt lat="45.83928871637259" lon="12.249260206997896"><ele>66.0</ele><time>2026-04-25T04:02:41.999Z</time></trkpt><trkpt lat="45.839369120892336" lon="12.249203117592296"><ele>66.0</ele><time>2026-04-25T04:02:43.999Z</time></trkpt><trkpt lat="45.839450219606896" lon="12.249148078422198"><ele>66.0</ele><time>2026-04-25T04:02:45.999Z</time></trkpt><trkpt lat="45.8395304180746" lon="12.249093398622094"><ele>66.0</ele><time>2026-04-25T04:02:47.999Z</time></trkpt><trkpt lat="45.839610278914286" lon="12.249038283750997"><ele>66.0</ele><time>2026-04-25T04:02:49.999Z</time></trkpt><trkpt lat="45.839690403008476" lon="12.248984509604323"><ele>66.2</ele><time>2026-04-25T04:02:51.999Z</time></trkpt><trkpt lat="45.839770349692884" lon="12.248930340420976"><ele>66.39999999999999</ele><time>2026-04-25T04:02:53.999Z</time></trkpt><trkpt lat="45.839851667947386" lon="12.248871320192933"><ele>66.6</ele><time>2026-04-25T04:02:55.999Z</time></trkpt><trkpt lat="45.8399359173865" lon="12.248813391885843"><ele>66.8</ele><time>2026-04-25T04:02:57.998Z</time></trkpt><trkpt lat="45.840020354146674" lon="12.248757336824797"><ele>67.0</ele><time>2026-04-25T04:02:59.998Z</time></trkpt><trkpt lat="45.840105373979775" lon="12.24869894781206"><ele>67.0</ele><time>2026-04-25T04:03:01.998Z</time></trkpt><trkpt lat="45.84019209022199" lon="12.248641509562658"><ele>67.0</ele><time>2026-04-25T04:03:03.998Z</time></trkpt><trkpt lat="45.840282050780516" lon="12.248582926924396"><ele>67.0</ele><time>2026-04-25T04:03:05.998Z</time></trkpt><trkpt lat="45.84037036190352" lon="12.248526057434152"><ele>67.0</ele><time>2026-04-25T04:03:07.998Z</time></trkpt><trkpt lat="45.840459658064425" lon="12.248460892602932"><ele>67.0</ele><time>2026-04-25T04:03:09.998Z</time></trkpt><trkpt lat="45.840549668422845" lon="12.24840216505289"><ele>67.0</ele><time>2026-04-25T04:03:11.998Z</time></trkpt><trkpt lat="45.84063864806849" lon="12.248341691570099"><ele>67.0</ele><time>2026-04-25T04:03:13.998Z</time></trkpt><trkpt lat="45.84072714634881" lon="12.248283423471523"><ele>67.0</ele><time>2026-04-25T04:03:15.998Z</time></trkpt><trkpt lat="45.84081253844526" lon="12.248226084369715"><ele>67.0</ele><time>2026-04-25T04:03:17.998Z</time></trkpt><trkpt lat="45.84090135999978" lon="12.248166421736565"><ele>67.0</ele><time>2026-04-25T04:03:19.998Z</time></trkpt><trkpt lat="45.84098932612089" lon="12.248107504289315"><ele>67.2</ele><time>2026-04-25T04:03:21.998Z</time></trkpt><trkpt lat="45.841078078042216" lon="12.248050550958812"><ele>67.4</ele><time>2026-04-25T04:03:23.998Z</time></trkpt><trkpt lat="45.84116915231145" lon="12.247994172091472"><ele>67.6</ele><time>2026-04-25T04:03:25.998Z</time></trkpt><trkpt lat="45.841255874258486" lon="12.247935749463544"><ele>67.8</ele><time>2026-04-25T04:03:27.998Z</time></trkpt><trkpt lat="45.84134474082516" lon="12.247874149771286"><ele>68.0</ele><time>2026-04-25T04:03:29.998Z</time></trkpt><trkpt lat="45.84143205608959" lon="12.24781160745318"><ele>68.0</ele><time>2026-04-25T04:03:31.998Z</time></trkpt><trkpt lat="45.84151787714258" lon="12.247750410379915"><ele>68.0</ele><time>2026-04-25T04:03:33.998Z</time></trkpt><trkpt lat="45.84160722561034" lon="12.247693539413161"><ele>68.0</ele><time>2026-04-25T04:03:35.998Z</time></trkpt><trkpt lat="45.84170133054061" lon="12.24763553622757"><ele>68.0</ele><time>2026-04-25T04:03:37.998Z</time></trkpt><trkpt lat="45.84179571321683" lon="12.247567129299423"><ele>68.0</ele><time>2026-04-25T04:03:39.998Z</time></trkpt><trkpt lat="45.84189444813444" lon="12.247504704185536"><ele>68.25</ele><time>2026-04-25T04:03:41.998Z</time></trkpt><trkpt lat="45.84199473196089" lon="12.24743061844038"><ele>68.5</ele><time>2026-04-25T04:03:43.998Z</time></trkpt><trkpt lat="45.84209854074398" lon="12.247361944341606"><ele>68.75</ele><time>2026-04-25T04:03:45.998Z</time></trkpt><trkpt lat="45.84220717581539" lon="12.247313428821807"><ele>69.0</ele><time>2026-04-25T04:03:47.997Z</time></trkpt><trkpt lat="45.84230953657218" lon="12.247244031130457"><ele>69.0</ele><time>2026-04-25T04:03:49.997Z</time></trkpt><trkpt lat="45.84241079070343" lon="12.24717538370708"><ele>69.0</ele><time>2026-04-25T04:03:52Z</time></trkpt><trkpt lat="45.84251112703071" lon="12.247107358527964"><ele>69.0</ele><time>2026-04-25T04:03:54Z</time></trkpt><trkpt lat="45.8426121011742" lon="12.247038900939028"><ele>69.0</ele><time>2026-04-25T04:03:56Z</time></trkpt><trkpt lat="45.842712775626275" lon="12.246971182111334"><ele>69.0</ele><time>2026-04-25T04:03:58Z</time></trkpt><trkpt lat="45.84281111588315" lon="12.246905120681726"><ele>69.2</ele><time>2026-04-25T04:04:00Z</time></trkpt><trkpt lat="45.84290910146168" lon="12.246839297516336"><ele>69.4</ele><time>2026-04-25T04:04:02Z</time></trkpt><trkpt lat="45.84300062267592" lon="12.246751790018502"><ele>69.6</ele><time>2026-04-25T04:04:04Z</time></trkpt><trkpt lat="45.84310834209114" lon="12.246702600257368"><ele>69.8</ele><time>2026-04-25T04:04:06Z</time></trkpt><trkpt lat="45.843212112572736" lon="12.246629999589693"><ele>70.0</ele><time>2026-04-25T04:04:08Z</time></trkpt><trkpt lat="45.84331677888504" lon="12.246556555491159"><ele>70.0</ele><time>2026-04-25T04:04:10Z</time></trkpt><trkpt lat="45.84342074082281" lon="12.246482359010683"><ele>70.0</ele><time>2026-04-25T04:04:12Z</time></trkpt><trkpt lat="45.84352353413804" lon="12.246408996565826"><ele>70.0</ele><time>2026-04-25T04:04:14Z</time></trkpt><trkpt lat="45.84362608808801" lon="12.246335804954887"><ele>70.0</ele><time>2026-04-25T04:04:16Z</time></trkpt><trkpt lat="45.843728734913746" lon="12.246262547062868"><ele>70.5</ele><time>2026-04-25T04:04:18Z</time></trkpt><trkpt lat="45.84383256470604" lon="12.246188444873155"><ele>71.0</ele><time>2026-04-25T04:04:20Z</time></trkpt><trkpt lat="45.84393586676225" lon="12.246114719365881"><ele>71.5</ele><time>2026-04-25T04:04:21.999Z</time></trkpt><trkpt lat="45.84402810033269" lon="12.246022785180923"><ele>72.0</ele><time>2026-04-25T04:04:23.999Z</time></trkpt><trkpt lat="45.84414090091498" lon="12.245968494517006"><ele>72.0</ele><time>2026-04-25T04:04:25.999Z</time></trkpt><trkpt lat="45.84423750545743" lon="12.245874907738836"><ele>72.0</ele><time>2026-04-25T04:04:27.999Z</time></trkpt><trkpt lat="45.84434705370187" lon="12.245822214287111"><ele>72.0</ele><time>2026-04-25T04:04:29.999Z</time></trkpt><trkpt lat="45.84444475204477" lon="12.245728027705129"><ele>72.0</ele><time>2026-04-25T04:04:31.999Z</time></trkpt><trkpt lat="45.844547707786916" lon="12.245656414706028"><ele>72.25</ele><time>2026-04-25T04:04:33.999Z</time></trkpt><trkpt lat="45.84465935560425" lon="12.245607091017263"><ele>72.5</ele><time>2026-04-25T04:04:35.999Z</time></trkpt><trkpt lat="45.844763102117355" lon="12.245537663144841"><ele>72.75</ele><time>2026-04-25T04:04:37.999Z</time></trkpt><trkpt lat="45.844871702227834" lon="12.245464987212069"><ele>73.0</ele><time>2026-04-25T04:04:39.999Z</time></trkpt><trkpt lat="45.84497945024081" lon="12.245393404037886"><ele>73.0</ele><time>2026-04-25T04:04:41.999Z</time></trkpt><trkpt lat="45.845088081054364" lon="12.245321622531407"><ele>73.0</ele><time>2026-04-25T04:04:43.999Z</time></trkpt><trkpt lat="45.8451929464136" lon="12.245252329201202"><ele>73.0</ele><time>2026-04-25T04:04:45.999Z</time></trkpt><trkpt lat="45.845290233285915" lon="12.245166668889265"><ele>73.0</ele><time>2026-04-25T04:04:47.999Z</time></trkpt><trkpt lat="45.84539717915756" lon="12.245117189801215"><ele>73.6</ele><time>2026-04-25T04:04:49.999Z</time></trkpt><trkpt lat="45.84549376076938" lon="12.245029901534302"><ele>74.19999999999999</ele><time>2026-04-25T04:04:51.999Z</time></trkpt><trkpt lat="45.845601122512534" lon="12.24498155637738"><ele>74.8</ele><time>2026-04-25T04:04:53.999Z</time></trkpt><trkpt lat="45.84569601873592" lon="12.244894853717218"><ele>75.39999999999999</ele><time>2026-04-25T04:04:55.999Z</time></trkpt><trkpt lat="45.84579280526832" lon="12.244831409204762"><ele>76.0</ele><time>2026-04-25T04:04:57.999Z</time></trkpt><trkpt lat="45.845879967184715" lon="12.244784767255311"><ele>76.0</ele><time>2026-04-25T04:04:59.999Z</time></trkpt><trkpt lat="45.84592719566302" lon="12.24469119170957"><ele>76.0</ele><time>2026-04-25T04:05:02.999Z</time></trkpt><trkpt lat="45.84580782828472" lon="12.244571770767855"><ele>76.0</ele><time>2026-04-25T04:05:05.999Z</time></trkpt><trkpt lat="45.84571726419168" lon="12.244544826388552"><ele>76.0</ele><time>2026-04-25T04:05:07.999Z</time></trkpt><trkpt lat="45.84562929716316" lon="12.244518654673497"><ele>76.0</ele><time>2026-04-25T04:05:09.999Z</time></trkpt><trkpt lat="45.845536079914886" lon="12.24449092093021"><ele>76.0</ele><time>2026-04-25T04:05:11.999Z</time></trkpt><trkpt lat="45.84543694364886" lon="12.24447996846498"><ele>76.0</ele><time>2026-04-25T04:05:13.998Z</time></trkpt><trkpt lat="45.84536583523552" lon="12.244422158684785"><ele>76.0</ele><time>2026-04-25T04:05:15.998Z</time></trkpt><trkpt lat="45.84527887463077" lon="12.244354315862182"><ele>76.0</ele><time>2026-04-25T04:05:18.998Z</time></trkpt><trkpt lat="45.845181542716404" lon="12.244304073319851"><ele>76.0</ele><time>2026-04-25T04:05:20.998Z</time></trkpt><trkpt lat="45.845074083976975" lon="12.244272705262311"><ele>75.66666666666666</ele><time>2026-04-25T04:05:22.998Z</time></trkpt><trkpt lat="45.844957379112735" lon="12.244236466816123"><ele>75.33333333333333</ele><time>2026-04-25T04:05:24.998Z</time></trkpt><trkpt lat="45.84483517680232" lon="12.244203928528933"><ele>75.0</ele><time>2026-04-25T04:05:26.998Z</time></trkpt><trkpt lat="45.84477125111849" lon="12.244185747363494"><ele>74.66666666666667</ele><time>2026-04-25T04:05:27.998Z</time></trkpt><trkpt lat="45.84470717483267" lon="12.244165186551033"><ele>74.33333333333334</ele><time>2026-04-25T04:05:28.998Z</time></trkpt><trkpt lat="45.84464159109548" lon="12.244147042495884"><ele>74.0</ele><time>2026-04-25T04:05:29.998Z</time></trkpt><trkpt lat="45.844576392923294" lon="12.244128708498005"><ele>74.0</ele><time>2026-04-25T04:05:30.998Z</time></trkpt><trkpt lat="45.844511895467086" lon="12.244110262818602"><ele>74.0</ele><time>2026-04-25T04:05:31.998Z</time></trkpt><trkpt lat="45.84444508149645" lon="12.244089011974221"><ele>74.0</ele><time>2026-04-25T04:05:32.998Z</time></trkpt><trkpt lat="45.84437947854543" lon="12.244070030411628"><ele>74.0</ele><time>2026-04-25T04:05:33.998Z</time></trkpt><trkpt lat="45.84431129271269" lon="12.2440540358078"><ele>74.0</ele><time>2026-04-25T04:05:34.998Z</time></trkpt><trkpt lat="45.844244450382355" lon="12.2440336015038"><ele>74.0</ele><time>2026-04-25T04:05:35.998Z</time></trkpt><trkpt lat="45.84417644751211" lon="12.2440129494468"><ele>74.0</ele><time>2026-04-25T04:05:36.998Z</time></trkpt><trkpt lat="45.84410850239215" lon="12.24399429045917"><ele>73.71428571428572</ele><time>2026-04-25T04:05:37.998Z</time></trkpt><trkpt lat="45.84404012819841" lon="12.243978795492929"><ele>73.42857142857143</ele><time>2026-04-25T04:05:38.998Z</time></trkpt><trkpt lat="45.84397239635914" lon="12.243956687093403"><ele>73.14285714285714</ele><time>2026-04-25T04:05:39.998Z</time></trkpt><trkpt lat="45.84390725179076" lon="12.243937399277064"><ele>72.85714285714286</ele><time>2026-04-25T04:05:40.998Z</time></trkpt><trkpt lat="45.84383637277846" lon="12.243939645500392"><ele>72.57142857142857</ele><time>2026-04-25T04:05:41.998Z</time></trkpt><trkpt lat="45.843772049414106" lon="12.243921220032654"><ele>72.28571428571429</ele><time>2026-04-25T04:05:42.998Z</time></trkpt><trkpt lat="45.843706269733396" lon="12.243902408496156"><ele>72.0</ele><time>2026-04-25T04:05:43.998Z</time></trkpt><trkpt lat="45.84364288661057" lon="12.243864050864167"><ele>71.71428571428572</ele><time>2026-04-25T04:05:44.998Z</time></trkpt><trkpt lat="45.84357473986081" lon="12.24384922203153"><ele>71.42857142857143</ele><time>2026-04-25T04:05:45.998Z</time></trkpt><trkpt lat="45.843507028907396" lon="12.243832214417846"><ele>71.14285714285714</ele><time>2026-04-25T04:05:46.998Z</time></trkpt><trkpt lat="45.843437677431965" lon="12.243813733278557"><ele>70.85714285714286</ele><time>2026-04-25T04:05:47.998Z</time></trkpt><trkpt lat="45.84336819235461" lon="12.24379351084428"><ele>70.57142857142857</ele><time>2026-04-25T04:05:48.998Z</time></trkpt><trkpt lat="45.84329961305903" lon="12.243775680186221"><ele>70.28571428571429</ele><time>2026-04-25T04:05:49.998Z</time></trkpt><trkpt lat="45.84322851553599" lon="12.243757665738272"><ele>70.0</ele><time>2026-04-25T04:05:50.998Z</time></trkpt><trkpt lat="45.84315828171832" lon="12.243737612604598"><ele>70.0</ele><time>2026-04-25T04:05:51.998Z</time></trkpt><trkpt lat="45.843089564828524" lon="12.24371354250746"><ele>70.0</ele><time>2026-04-25T04:05:52.998Z</time></trkpt><trkpt lat="45.84302078811077" lon="12.243689199662674"><ele>70.0</ele><time>2026-04-25T04:05:53.998Z</time></trkpt><trkpt lat="45.84295192235459" lon="12.243665339172294"><ele>70.0</ele><time>2026-04-25T04:05:54.998Z</time></trkpt><trkpt lat="45.842880095639934" lon="12.243668066287423"><ele>70.0</ele><time>2026-04-25T04:05:55.998Z</time></trkpt><trkpt lat="45.842814243368025" lon="12.243625053777158"><ele>70.0</ele><time>2026-04-25T04:05:56.998Z</time></trkpt><trkpt lat="45.8427451540916" lon="12.243606867257101"><ele>70.0</ele><time>2026-04-25T04:05:58Z</time></trkpt><trkpt lat="45.84267641636904" lon="12.243587390368306"><ele>70.16666666666666</ele><time>2026-04-25T04:05:59Z</time></trkpt><trkpt lat="45.84260768050883" lon="12.243569149914684"><ele>70.33333333333333</ele><time>2026-04-25T04:06:00Z</time></trkpt><trkpt lat="45.842475794742185" lon="12.243529239952615"><ele>70.5</ele><time>2026-04-25T04:06:02Z</time></trkpt><trkpt lat="45.842408814862374" lon="12.24351240572984"><ele>70.66666666666667</ele><time>2026-04-25T04:06:03Z</time></trkpt><trkpt lat="45.84234333071687" lon="12.24349300486887"><ele>70.83333333333334</ele><time>2026-04-25T04:06:04Z</time></trkpt><trkpt lat="45.84227777945713" lon="12.243472081265754"><ele>71.0</ele><time>2026-04-25T04:06:05Z</time></trkpt><trkpt lat="45.842207874884444" lon="12.243474487958787"><ele>71.0</ele><time>2026-04-25T04:06:06Z</time></trkpt><trkpt lat="45.84214372120612" lon="12.24345626056331"><ele>71.0</ele><time>2026-04-25T04:06:07Z</time></trkpt><trkpt lat="45.84207783742738" lon="12.243437541609781"><ele>71.0</ele><time>2026-04-25T04:06:08Z</time></trkpt><trkpt lat="45.842014466837746" lon="12.243398753645069"><ele>71.0</ele><time>2026-04-25T04:06:09Z</time></trkpt><trkpt lat="45.84194763328332" lon="12.24337991374875"><ele>71.0</ele><time>2026-04-25T04:06:10Z</time></trkpt><trkpt lat="45.841881438099904" lon="12.243362039477207"><ele>71.0</ele><time>2026-04-25T04:06:11Z</time></trkpt><trkpt lat="45.84181394706075" lon="12.243344593828352"><ele>71.0</ele><time>2026-04-25T04:06:12Z</time></trkpt><trkpt lat="45.84174800970337" lon="12.24332883739139"><ele>71.28571428571428</ele><time>2026-04-25T04:06:13Z</time></trkpt><trkpt lat="45.84167938258639" lon="12.243317377925816"><ele>71.57142857142857</ele><time>2026-04-25T04:06:14Z</time></trkpt><trkpt lat="45.84160794561863" lon="12.243299908482907"><ele>71.85714285714286</ele><time>2026-04-25T04:06:15Z</time></trkpt><trkpt lat="45.84153570653438" lon="12.243276679067534"><ele>72.14285714285714</ele><time>2026-04-25T04:06:16Z</time></trkpt><trkpt lat="45.841464913829114" lon="12.243251819324653"><ele>72.42857142857143</ele><time>2026-04-25T04:06:17Z</time></trkpt><trkpt lat="45.841394917136405" lon="12.243214187962414"><ele>72.71428571428571</ele><time>2026-04-25T04:06:18Z</time></trkpt><trkpt lat="45.84132871844051" lon="12.243167794271882"><ele>73.0</ele><time>2026-04-25T04:06:19Z</time></trkpt><trkpt lat="45.841264746629044" lon="12.243114770250285"><ele>73.14285714285714</ele><time>2026-04-25T04:06:20Z</time></trkpt><trkpt lat="45.84120351337908" lon="12.243060119188705"><ele>73.28571428571429</ele><time>2026-04-25T04:06:21Z</time></trkpt><trkpt lat="45.8411439440728" lon="12.243003975892623"><ele>73.42857142857143</ele><time>2026-04-25T04:06:22Z</time></trkpt><trkpt lat="45.84109026465441" lon="12.242944110267462"><ele>73.57142857142857</ele><time>2026-04-25T04:06:23Z</time></trkpt><trkpt lat="45.841037943405766" lon="12.242884571466314"><ele>73.71428571428571</ele><time>2026-04-25T04:06:24Z</time></trkpt><trkpt lat="45.84098549669077" lon="12.242822714623005"><ele>73.85714285714286</ele><time>2026-04-25T04:06:25Z</time></trkpt><trkpt lat="45.84093394469932" lon="12.24276059500506"><ele>74.0</ele><time>2026-04-25T04:06:26Z</time></trkpt><trkpt lat="45.84088465288213" lon="12.242694407951412"><ele>73.71428571428572</ele><time>2026-04-25T04:06:27Z</time></trkpt><trkpt lat="45.840837265785616" lon="12.242622519198319"><ele>73.42857142857143</ele><time>2026-04-25T04:06:28Z</time></trkpt><trkpt lat="45.84078898550154" lon="12.2425494601698"><ele>73.14285714285714</ele><time>2026-04-25T04:06:29Z</time></trkpt><trkpt lat="45.840739618707865" lon="12.242481761007777"><ele>72.85714285714286</ele><time>2026-04-25T04:06:30Z</time></trkpt><trkpt lat="45.84069039286479" lon="12.242411843900445"><ele>72.57142857142857</ele><time>2026-04-25T04:06:31Z</time></trkpt><trkpt lat="45.84064122500581" lon="12.242342709593016"><ele>72.28571428571429</ele><time>2026-04-25T04:06:32Z</time></trkpt><trkpt lat="45.840591719427984" lon="12.242274148040929"><ele>72.0</ele><time>2026-04-25T04:06:33Z</time></trkpt><trkpt lat="45.840541847772094" lon="12.242206472317502"><ele>72.0</ele><time>2026-04-25T04:06:34Z</time></trkpt><trkpt lat="45.84049160953803" lon="12.242136674774057"><ele>72.0</ele><time>2026-04-25T04:06:35Z</time></trkpt><trkpt lat="45.84044199462092" lon="12.242067038446985"><ele>72.0</ele><time>2026-04-25T04:06:35.999Z</time></trkpt><trkpt lat="45.840394696280384" lon="12.242002905397632"><ele>72.0</ele><time>2026-04-25T04:06:36.999Z</time></trkpt><trkpt lat="45.84030206518677" lon="12.24189660234623"><ele>72.0</ele><time>2026-04-25T04:06:38.999Z</time></trkpt><trkpt lat="45.84021322759316" lon="12.2418046210916"><ele>72.0</ele><time>2026-04-25T04:06:40.999Z</time></trkpt><trkpt lat="45.84012972943646" lon="12.241682979680439"><ele>72.42857142857143</ele><time>2026-04-25T04:06:42.999Z</time></trkpt><trkpt lat="45.84008448416863" lon="12.24161520588514"><ele>72.85714285714286</ele><time>2026-04-25T04:06:43.999Z</time></trkpt><trkpt lat="45.84004022509867" lon="12.241541291573975"><ele>73.28571428571428</ele><time>2026-04-25T04:06:44.999Z</time></trkpt><trkpt lat="45.83999889638322" lon="12.241462474260505"><ele>73.71428571428572</ele><time>2026-04-25T04:06:45.999Z</time></trkpt><trkpt lat="45.83995946810227" lon="12.241381100893731"><ele>74.14285714285714</ele><time>2026-04-25T04:06:46.999Z</time></trkpt><trkpt lat="45.839920589592815" lon="12.241296258406264"><ele>74.57142857142857</ele><time>2026-04-25T04:06:47.999Z</time></trkpt><trkpt lat="45.839883951340916" lon="12.241209016664019"><ele>75.0</ele><time>2026-04-25T04:06:48.999Z</time></trkpt><trkpt lat="45.839853341601476" lon="12.241119712899822"><ele>74.99999999999999</ele><time>2026-04-25T04:06:49.999Z</time></trkpt><trkpt lat="45.839822938270395" lon="12.241027902441415"><ele>75.0</ele><time>2026-04-25T04:06:50.999Z</time></trkpt><trkpt lat="45.83979146303489" lon="12.24093794021803"><ele>75.0</ele><time>2026-04-25T04:06:51.999Z</time></trkpt><trkpt lat="45.83975906392646" lon="12.240849200292454"><ele>75.0</ele><time>2026-04-25T04:06:52.999Z</time></trkpt><trkpt lat="45.8397282475165" lon="12.24076078716704"><ele>75.0</ele><time>2026-04-25T04:06:53.999Z</time></trkpt><trkpt lat="45.83969729392921" lon="12.240680073493367"><ele>74.99999999999999</ele><time>2026-04-25T04:06:54.999Z</time></trkpt><trkpt lat="45.83966000626" lon="12.24059745637208"><ele>75.0</ele><time>2026-04-25T04:06:55.999Z</time></trkpt><trkpt lat="45.83963518889312" lon="12.240514283314763"><ele>74.85714285714285</ele><time>2026-04-25T04:06:56.999Z</time></trkpt><trkpt lat="45.83961418155892" lon="12.240427330247426"><ele>74.71428571428571</ele><time>2026-04-25T04:06:57.999Z</time></trkpt><trkpt lat="45.839587282591225" lon="12.240339681607628"><ele>74.57142857142857</ele><time>2026-04-25T04:06:58.999Z</time></trkpt><trkpt lat="45.83955779689231" lon="12.24025701582399"><ele>74.42857142857142</ele><time>2026-04-25T04:06:59.999Z</time></trkpt><trkpt lat="45.839525016270166" lon="12.24017567524862"><ele>74.28571428571428</ele><time>2026-04-25T04:07:00.999Z</time></trkpt><trkpt lat="45.839493808107285" lon="12.240092740699081"><ele>74.14285714285714</ele><time>2026-04-25T04:07:01.999Z</time></trkpt><trkpt lat="45.8394654638852" lon="12.240007138949617"><ele>74.0</ele><time>2026-04-25T04:07:02.999Z</time></trkpt><trkpt lat="45.839435287025665" lon="12.23992268944063"><ele>74.0</ele><time>2026-04-25T04:07:03.999Z</time></trkpt><trkpt lat="45.839406069569556" lon="12.23984132353919"><ele>74.0</ele><time>2026-04-25T04:07:04.999Z</time></trkpt><trkpt lat="45.83937740999252" lon="12.239754743103079"><ele>74.0</ele><time>2026-04-25T04:07:05.999Z</time></trkpt><trkpt lat="45.839346586789006" lon="12.23967142246845"><ele>74.0</ele><time>2026-04-25T04:07:06.999Z</time></trkpt><trkpt lat="45.83931660724591" lon="12.23958943706958"><ele>74.0</ele><time>2026-04-25T04:07:07.999Z</time></trkpt><trkpt lat="45.8392897977897" lon="12.23950607654557"><ele>74.0</ele><time>2026-04-25T04:07:08.999Z</time></trkpt><trkpt lat="45.83926111119214" lon="12.2394233729543"><ele>74.0</ele><time>2026-04-25T04:07:09.999Z</time></trkpt><trkpt lat="45.83922949913136" lon="12.239340065145578"><ele>74.0</ele><time>2026-04-25T04:07:10.999Z</time></trkpt><trkpt lat="45.83920047568542" lon="12.23925774076484"><ele>74.0</ele><time>2026-04-25T04:07:11.999Z</time></trkpt><trkpt lat="45.83917325163032" lon="12.239175761037094"><ele>74.0</ele><time>2026-04-25T04:07:12.999Z</time></trkpt><trkpt lat="45.83914586325483" lon="12.23909206436124"><ele>74.0</ele><time>2026-04-25T04:07:13.999Z</time></trkpt><trkpt lat="45.839085964677295" lon="12.238931286922192"><ele>74.0</ele><time>2026-04-25T04:07:15.999Z</time></trkpt><trkpt lat="45.839057704331125" lon="12.23884751429124"><ele>74.0</ele><time>2026-04-25T04:07:16.999Z</time></trkpt><trkpt lat="45.83902840943028" lon="12.238763864455562"><ele>74.0</ele><time>2026-04-25T04:07:17.999Z</time></trkpt><trkpt lat="45.838999519751226" lon="12.238679717342906"><ele>74.14285714285714</ele><time>2026-04-25T04:07:18.999Z</time></trkpt><trkpt lat="45.83897142929828" lon="12.238595816375756"><ele>74.28571428571428</ele><time>2026-04-25T04:07:19.999Z</time></trkpt><trkpt lat="45.838940035227196" lon="12.238510376633313"><ele>74.42857142857142</ele><time>2026-04-25T04:07:20.999Z</time></trkpt><trkpt lat="45.838909541854946" lon="12.238426169063061"><ele>74.57142857142857</ele><time>2026-04-25T04:07:21.999Z</time></trkpt><trkpt lat="45.83888011566009" lon="12.238341640631212"><ele>74.71428571428571</ele><time>2026-04-25T04:07:22.999Z</time></trkpt><trkpt lat="45.8388494016735" lon="12.238260455896318"><ele>74.85714285714285</ele><time>2026-04-25T04:07:23.999Z</time></trkpt><trkpt lat="45.83881928589104" lon="12.238173889689772"><ele>75.0</ele><time>2026-04-25T04:07:24.999Z</time></trkpt><trkpt lat="45.83878956217003" lon="12.238094179237356"><ele>74.66666666666667</ele><time>2026-04-25T04:07:25.999Z</time></trkpt><trkpt lat="45.83876155063686" lon="12.238013104117698"><ele>74.33333333333333</ele><time>2026-04-25T04:07:26.999Z</time></trkpt><trkpt lat="45.83873177842473" lon="12.237931428579424"><ele>74.0</ele><time>2026-04-25T04:07:27.999Z</time></trkpt><trkpt lat="45.83870248490562" lon="12.237848054791225"><ele>73.66666666666666</ele><time>2026-04-25T04:07:28.999Z</time></trkpt><trkpt lat="45.83864790291101" lon="12.2376864154492"><ele>73.33333333333333</ele><time>2026-04-25T04:07:30.998Z</time></trkpt><trkpt lat="45.83859062140591" lon="12.237531087301466"><ele>73.0</ele><time>2026-04-25T04:07:32.998Z</time></trkpt><trkpt lat="45.83856208908687" lon="12.23745034448803"><ele>73.0</ele><time>2026-04-25T04:07:33.998Z</time></trkpt><trkpt lat="45.838509114686666" lon="12.237290977125392"><ele>73.0</ele><time>2026-04-25T04:07:35.998Z</time></trkpt><trkpt lat="45.83845323012003" lon="12.237136032486921"><ele>73.0</ele><time>2026-04-25T04:07:37.998Z</time></trkpt><trkpt lat="45.838399509706576" lon="12.23697820500007"><ele>73.0</ele><time>2026-04-25T04:07:39.998Z</time></trkpt><trkpt lat="45.83834535827156" lon="12.236823515466462"><ele>72.75</ele><time>2026-04-25T04:07:41.998Z</time></trkpt><trkpt lat="45.83829062963951" lon="12.23666618861061"><ele>72.5</ele><time>2026-04-25T04:07:43.998Z</time></trkpt><trkpt lat="45.838235298161194" lon="12.23652100353975"><ele>72.25</ele><time>2026-04-25T04:07:45.998Z</time></trkpt><trkpt lat="45.838186939765436" lon="12.23638346161303"><ele>72.0</ele><time>2026-04-25T04:07:47.998Z</time></trkpt><trkpt lat="45.83813341459258" lon="12.236243107660295"><ele>72.75</ele><time>2026-04-25T04:07:49.998Z</time></trkpt><trkpt lat="45.83807726346528" lon="12.236102210163446"><ele>73.5</ele><time>2026-04-25T04:07:51.998Z</time></trkpt><trkpt lat="45.83801692689834" lon="12.235963493079694"><ele>74.25</ele><time>2026-04-25T04:07:53.998Z</time></trkpt><trkpt lat="45.83795636515542" lon="12.235823910117867"><ele>75.0</ele><time>2026-04-25T04:07:55.998Z</time></trkpt><trkpt lat="45.8378955464319" lon="12.235686055225669"><ele>75.0</ele><time>2026-04-25T04:07:57.998Z</time></trkpt><trkpt lat="45.837835393103596" lon="12.235547738848954"><ele>75.0</ele><time>2026-04-25T04:07:59.998Z</time></trkpt><trkpt lat="45.837776090506374" lon="12.235408137775927"><ele>75.0</ele><time>2026-04-25T04:08:01.998Z</time></trkpt><trkpt lat="45.837714700800134" lon="12.23526880449405"><ele>75.0</ele><time>2026-04-25T04:08:04Z</time></trkpt><trkpt lat="45.83765300174747" lon="12.235129469700498"><ele>75.0</ele><time>2026-04-25T04:08:06Z</time></trkpt><trkpt lat="45.8375946383974" lon="12.234990791156768"><ele>75.0</ele><time>2026-04-25T04:08:08Z</time></trkpt><trkpt lat="45.83753603368341" lon="12.234853684693343"><ele>75.0</ele><time>2026-04-25T04:08:10Z</time></trkpt><trkpt lat="45.837474069506584" lon="12.234715672378094"><ele>75.0</ele><time>2026-04-25T04:08:12Z</time></trkpt><trkpt lat="45.83741376929065" lon="12.234581394947714"><ele>75.2</ele><time>2026-04-25T04:08:14Z</time></trkpt><trkpt lat="45.83735864066772" lon="12.234447760007939"><ele>75.4</ele><time>2026-04-25T04:08:16Z</time></trkpt><trkpt lat="45.83730429346303" lon="12.234324849079684"><ele>75.6</ele><time>2026-04-25T04:08:18Z</time></trkpt><trkpt lat="45.837252461751774" lon="12.234225161087696"><ele>75.8</ele><time>2026-04-25T04:08:19.999Z</time></trkpt><trkpt lat="45.837248029013374" lon="12.234122909464899"><ele>76.0</ele><time>2026-04-25T04:08:21.999Z</time></trkpt><trkpt lat="45.837350406255716" lon="12.234043592564584"><ele>76.0</ele><time>2026-04-25T04:08:23.999Z</time></trkpt><trkpt lat="45.83743007422197" lon="12.233978169140915"><ele>76.0</ele><time>2026-04-25T04:08:25.999Z</time></trkpt><trkpt lat="45.837509034687066" lon="12.233907213301897"><ele>76.0</ele><time>2026-04-25T04:08:27.999Z</time></trkpt><trkpt lat="45.837583952383525" lon="12.233826361801023"><ele>76.0</ele><time>2026-04-25T04:08:29.999Z</time></trkpt><trkpt lat="45.83766227270138" lon="12.233745957040409"><ele>76.0</ele><time>2026-04-25T04:08:31.999Z</time></trkpt><trkpt lat="45.837738398884376" lon="12.233669340703244"><ele>77.0</ele><time>2026-04-25T04:08:33.999Z</time></trkpt><trkpt lat="45.83781272400824" lon="12.233584509425594"><ele>78.0</ele><time>2026-04-25T04:08:35.999Z</time></trkpt><trkpt lat="45.83788801387729" lon="12.233505328665224"><ele>79.0</ele><time>2026-04-25T04:08:37.999Z</time></trkpt><trkpt lat="45.837961165558944" lon="12.233426586402272"><ele>80.0</ele><time>2026-04-25T04:08:39.999Z</time></trkpt><trkpt lat="45.838035052797295" lon="12.2333428276521"><ele>81.0</ele><time>2026-04-25T04:08:41.999Z</time></trkpt><trkpt lat="45.838119991765055" lon="12.233275148062981"><ele>81.0</ele><time>2026-04-25T04:08:43.999Z</time></trkpt><trkpt lat="45.83817986749027" lon="12.233165544945402"><ele>81.0</ele><time>2026-04-25T04:08:45.999Z</time></trkpt><trkpt lat="45.83825335720757" lon="12.233076842404664"><ele>81.0</ele><time>2026-04-25T04:08:47.999Z</time></trkpt><trkpt lat="45.83832983849494" lon="12.232993341587651"><ele>81.0</ele><time>2026-04-25T04:08:49.999Z</time></trkpt><trkpt lat="45.838393829052684" lon="12.232881307970219"><ele>81.0</ele><time>2026-04-25T04:08:51.999Z</time></trkpt><trkpt lat="45.83846473749862" lon="12.232780244360457"><ele>81.0</ele><time>2026-04-25T04:08:53.999Z</time></trkpt><trkpt lat="45.83853853232329" lon="12.232678128077483"><ele>81.0</ele><time>2026-04-25T04:08:55.998Z</time></trkpt><trkpt lat="45.83857118972347" lon="12.232534820830649"><ele>81.0</ele><time>2026-04-25T04:08:57.998Z</time></trkpt><trkpt lat="45.83862351962654" lon="12.23241387401541"><ele>81.0</ele><time>2026-04-25T04:08:59.998Z</time></trkpt><trkpt lat="45.83865559703596" lon="12.232282897774487"><ele>81.0</ele><time>2026-04-25T04:09:01.998Z</time></trkpt><trkpt lat="45.838706448809425" lon="12.232172463235038"><ele>81.42857142857143</ele><time>2026-04-25T04:09:03.998Z</time></trkpt><trkpt lat="45.83875555389082" lon="12.232072289668078"><ele>81.85714285714286</ele><time>2026-04-25T04:09:05.998Z</time></trkpt><trkpt lat="45.83879741115147" lon="12.231976344069734"><ele>82.28571428571428</ele><time>2026-04-25T04:09:07.998Z</time></trkpt><trkpt lat="45.83883242120452" lon="12.23188362187825"><ele>82.71428571428572</ele><time>2026-04-25T04:09:09.998Z</time></trkpt><trkpt lat="45.838856494921636" lon="12.231789099809566"><ele>83.14285714285714</ele><time>2026-04-25T04:09:11.998Z</time></trkpt><trkpt lat="45.838885274477754" lon="12.231701418881267"><ele>83.57142857142857</ele><time>2026-04-25T04:09:13.998Z</time></trkpt><trkpt lat="45.83891841823558" lon="12.231619831264023"><ele>84.0</ele><time>2026-04-25T04:09:15.998Z</time></trkpt><trkpt lat="45.83896825589737" lon="12.231558474018934"><ele>84.0</ele><time>2026-04-25T04:09:17.998Z</time></trkpt><trkpt lat="45.83902928297063" lon="12.23151504919456"><ele>84.0</ele><time>2026-04-25T04:09:19.998Z</time></trkpt><trkpt lat="45.83909172189775" lon="12.231476254483697"><ele>84.0</ele><time>2026-04-25T04:09:21.998Z</time></trkpt><trkpt lat="45.8391536147111" lon="12.23143824327126"><ele>84.0</ele><time>2026-04-25T04:09:23.998Z</time></trkpt><trkpt lat="45.83921783586377" lon="12.231403445218069"><ele>84.0</ele><time>2026-04-25T04:09:25.998Z</time></trkpt><trkpt lat="45.83928053769018" lon="12.231365010779822"><ele>84.0</ele><time>2026-04-25T04:09:27.998Z</time></trkpt><trkpt lat="45.839342886815274" lon="12.231326169390487"><ele>84.0</ele><time>2026-04-25T04:09:29.998Z</time></trkpt><trkpt lat="45.83940352558937" lon="12.231291617186402"><ele>85.0</ele><time>2026-04-25T04:09:31.998Z</time></trkpt><trkpt lat="45.83946392657679" lon="12.231254754114218"><ele>86.0</ele><time>2026-04-25T04:09:33.998Z</time></trkpt><trkpt lat="45.839522226080206" lon="12.231215496126449"><ele>87.0</ele><time>2026-04-25T04:09:35.998Z</time></trkpt><trkpt lat="45.839600252930424" lon="12.23116061125262"><ele>88.0</ele><time>2026-04-25T04:09:38.998Z</time></trkpt><trkpt lat="45.83967367964105" lon="12.231107096982775"><ele>89.0</ele><time>2026-04-25T04:09:41.998Z</time></trkpt><trkpt lat="45.83975283224654" lon="12.23108280597368"><ele>90.0</ele><time>2026-04-25T04:09:44.998Z</time></trkpt><trkpt lat="45.839822650987024" lon="12.231022065385659"><ele>90.0</ele><time>2026-04-25T04:09:47.998Z</time></trkpt><trkpt lat="45.83989585080479" lon="12.230987242939985"><ele>90.0</ele><time>2026-04-25T04:09:50.997Z</time></trkpt><trkpt lat="45.83997596509618" lon="12.230935228527272"><ele>90.0</ele><time>2026-04-25T04:09:53.997Z</time></trkpt><trkpt lat="45.840055950119044" lon="12.230884319351137"><ele>90.0</ele><time>2026-04-25T04:09:56.997Z</time></trkpt><trkpt lat="45.84013692313742" lon="12.230834547088907"><ele>90.0</ele><time>2026-04-25T04:09:59.997Z</time></trkpt><trkpt lat="45.84022132481025" lon="12.23077950269548"><ele>90.0</ele><time>2026-04-25T04:10:02.997Z</time></trkpt><trkpt lat="45.840303826169205" lon="12.230719601002919"><ele>90.28571428571428</ele><time>2026-04-25T04:10:05.997Z</time></trkpt><trkpt lat="45.84036747738818" lon="12.230682996458446"><ele>90.57142857142858</ele><time>2026-04-25T04:10:07.997Z</time></trkpt><trkpt lat="45.84043143612792" lon="12.230643040660082"><ele>90.85714285714286</ele><time>2026-04-25T04:10:09.999Z</time></trkpt><trkpt lat="45.840495071452395" lon="12.230598408389012"><ele>91.14285714285714</ele><time>2026-04-25T04:10:11.999Z</time></trkpt><trkpt lat="45.84056085721732" lon="12.230557532803852"><ele>91.42857142857142</ele><time>2026-04-25T04:10:13.999Z</time></trkpt><trkpt lat="45.84062452491803" lon="12.230515408046339"><ele>91.71428571428572</ele><time>2026-04-25T04:10:15.999Z</time></trkpt><trkpt lat="45.84068721994057" lon="12.230472741264949"><ele>92.0</ele><time>2026-04-25T04:10:17.999Z</time></trkpt><trkpt lat="45.84075124593783" lon="12.230453984977892"><ele>92.0</ele><time>2026-04-25T04:10:19.999Z</time></trkpt><trkpt lat="45.84082175344507" lon="12.23049624566473"><ele>92.0</ele><time>2026-04-25T04:10:21.999Z</time></trkpt><trkpt lat="45.840872710558145" lon="12.230607901339054"><ele>92.0</ele><time>2026-04-25T04:10:23.999Z</time></trkpt><trkpt lat="45.84094677876685" lon="12.230677114344479"><ele>92.0</ele><time>2026-04-25T04:10:25.999Z</time></trkpt><trkpt lat="45.841045123918406" lon="12.230670573612498"><ele>92.0</ele><time>2026-04-25T04:10:27.999Z</time></trkpt><trkpt lat="45.841119078515064" lon="12.230585568310833"><ele>92.39999999999999</ele><time>2026-04-25T04:10:29.999Z</time></trkpt><trkpt lat="45.841176262135534" lon="12.230501983789393"><ele>92.8</ele><time>2026-04-25T04:10:31.999Z</time></trkpt><trkpt lat="45.84125454548846" lon="12.23043068118868"><ele>93.2</ele><time>2026-04-25T04:10:33.999Z</time></trkpt><trkpt lat="45.84133182204937" lon="12.230336633140219"><ele>93.6</ele><time>2026-04-25T04:10:35.999Z</time></trkpt><trkpt lat="45.8414170879667" lon="12.230249234459546"><ele>94.0</ele><time>2026-04-25T04:10:37.999Z</time></trkpt><trkpt lat="45.84153232563846" lon="12.230224090315295"><ele>94.0</ele><time>2026-04-25T04:10:39.999Z</time></trkpt><trkpt lat="45.84164696127391" lon="12.23025326648595"><ele>94.0</ele><time>2026-04-25T04:10:41.999Z</time></trkpt><trkpt lat="45.84176234416161" lon="12.230282315507"><ele>94.0</ele><time>2026-04-25T04:10:43.999Z</time></trkpt><trkpt lat="45.84188495963916" lon="12.230308948301149"><ele>94.0</ele><time>2026-04-25T04:10:45.999Z</time></trkpt><trkpt lat="45.84200190794711" lon="12.230331330187825"><ele>93.80000000000001</ele><time>2026-04-25T04:10:47.999Z</time></trkpt><trkpt lat="45.842114830246366" lon="12.230374228471847"><ele>93.60000000000001</ele><time>2026-04-25T04:10:49.999Z</time></trkpt><trkpt lat="45.84221094488424" lon="12.230434844495527"><ele>93.4</ele><time>2026-04-25T04:10:51.999Z</time></trkpt><trkpt lat="45.842298208636095" lon="12.230463271666688"><ele>93.2</ele><time>2026-04-25T04:10:53.999Z</time></trkpt><trkpt lat="45.84236616064431" lon="12.230413904470748"><ele>93.0</ele><time>2026-04-25T04:10:55.999Z</time></trkpt><trkpt lat="45.84238410342432" lon="12.230321293936015"><ele>93.0</ele><time>2026-04-25T04:10:56.999Z</time></trkpt><trkpt lat="45.842392145620295" lon="12.230201294300462"><ele>93.0</ele><time>2026-04-25T04:10:58.999Z</time></trkpt><trkpt lat="45.84240238479938" lon="12.230091817203427"><ele>93.0</ele><time>2026-04-25T04:11:01.999Z</time></trkpt><trkpt lat="45.84241682458927" lon="12.229990832496494"><ele>93.0</ele><time>2026-04-25T04:11:04.999Z</time></trkpt><trkpt lat="45.84243731867217" lon="12.229896312317033"><ele>93.0</ele><time>2026-04-25T04:11:07.999Z</time></trkpt><trkpt lat="45.84248090412701" lon="12.229793261027114"><ele>93.0</ele><time>2026-04-25T04:11:11.999Z</time></trkpt><trkpt lat="45.842522474313284" lon="12.22971840628157"><ele>93.16666666666667</ele><time>2026-04-25T04:11:14.999Z</time></trkpt><trkpt lat="45.84258110726898" lon="12.229652456315616"><ele>93.33333333333333</ele><time>2026-04-25T04:11:18.999Z</time></trkpt><trkpt lat="45.84264716929143" lon="12.22961860050309"><ele>93.5</ele><time>2026-04-25T04:11:22.998Z</time></trkpt><trkpt lat="45.84271594115934" lon="12.22957305491906"><ele>93.66666666666666</ele><time>2026-04-25T04:11:26.998Z</time></trkpt><trkpt lat="45.84279311870684" lon="12.229563930398605"><ele>93.83333333333333</ele><time>2026-04-25T04:11:30.998Z</time></trkpt><trkpt lat="45.842870727223556" lon="12.229555942106437"><ele>94.0</ele><time>2026-04-25T04:11:34.998Z</time></trkpt><trkpt lat="45.842947944104786" lon="12.229554105030264"><ele>95.71428571428571</ele><time>2026-04-25T04:11:38.998Z</time></trkpt><trkpt lat="45.843024357852634" lon="12.229554600226514"><ele>97.42857142857142</ele><time>2026-04-25T04:11:42.998Z</time></trkpt><trkpt lat="45.84309602267453" lon="12.229550407942474"><ele>99.14285714285714</ele><time>2026-04-25T04:11:46.998Z</time></trkpt><trkpt lat="45.84316740834999" lon="12.22954813251558"><ele>100.85714285714286</ele><time>2026-04-25T04:11:50.998Z</time></trkpt><trkpt lat="45.84323949756482" lon="12.229541972571727"><ele>102.57142857142857</ele><time>2026-04-25T04:11:54.998Z</time></trkpt><trkpt lat="45.843308782455445" lon="12.229537947505964"><ele>104.28571428571429</ele><time>2026-04-25T04:11:58.998Z</time></trkpt><trkpt lat="45.843381500780445" lon="12.229536883239508"><ele>106.0</ele><time>2026-04-25T04:12:02.998Z</time></trkpt><trkpt lat="45.843455156377914" lon="12.229527342479825"><ele>107.57142857142858</ele><time>2026-04-25T04:12:06.998Z</time></trkpt><trkpt lat="45.843529319762276" lon="12.229524032780331"><ele>109.14285714285714</ele><time>2026-04-25T04:12:10.998Z</time></trkpt><trkpt lat="45.843605510198635" lon="12.229514343351067"><ele>110.71428571428572</ele><time>2026-04-25T04:12:14.998Z</time></trkpt><trkpt lat="45.84367503206032" lon="12.229497350950496"><ele>112.28571428571429</ele><time>2026-04-25T04:12:18.999Z</time></trkpt><trkpt lat="45.84374989725329" lon="12.229486734728331"><ele>113.85714285714286</ele><time>2026-04-25T04:12:23Z</time></trkpt><trkpt lat="45.84382726146642" lon="12.22948619708812"><ele>115.42857142857143</ele><time>2026-04-25T04:12:27Z</time></trkpt><trkpt lat="45.843899663037504" lon="12.229458999063477"><ele>117.0</ele><time>2026-04-25T04:12:31Z</time></trkpt><trkpt lat="45.84394279909646" lon="12.229367143772377"><ele>117.0</ele><time>2026-04-25T04:12:35Z</time></trkpt><trkpt lat="45.84395288980435" lon="12.2292692354355"><ele>117.0</ele><time>2026-04-25T04:12:38Z</time></trkpt><trkpt lat="45.84397325719707" lon="12.229155270113095"><ele>117.0</ele><time>2026-04-25T04:12:40.999Z</time></trkpt><trkpt lat="45.84399701046775" lon="12.229039651486"><ele>117.0</ele><time>2026-04-25T04:12:43.999Z</time></trkpt><trkpt lat="45.844031197982616" lon="12.228932565891567"><ele>117.0</ele><time>2026-04-25T04:12:46.999Z</time></trkpt><trkpt lat="45.84406615025393" lon="12.228807527806062"><ele>117.0</ele><time>2026-04-25T04:12:49.999Z</time></trkpt><trkpt lat="45.844092682051375" lon="12.228711327742346"><ele>117.33333333333333</ele><time>2026-04-25T04:12:51.999Z</time></trkpt><trkpt lat="45.84411927344904" lon="12.228609848687134"><ele>117.66666666666666</ele><time>2026-04-25T04:12:53.999Z</time></trkpt><trkpt lat="45.84414129558726" lon="12.228507274483817"><ele>118.0</ele><time>2026-04-25T04:12:55.999Z</time></trkpt><trkpt lat="45.84417319481427" lon="12.228401232655017"><ele>118.33333333333333</ele><time>2026-04-25T04:12:57.999Z</time></trkpt><trkpt lat="45.84420171272165" lon="12.228287665764524"><ele>118.66666666666666</ele><time>2026-04-25T04:12:59.999Z</time></trkpt><trkpt lat="45.84423928643048" lon="12.228195306928558"><ele>119.0</ele><time>2026-04-25T04:13:01.999Z</time></trkpt><trkpt lat="45.84429941569678" lon="12.22811591998818"><ele>119.66666666666666</ele><time>2026-04-25T04:13:03.999Z</time></trkpt><trkpt lat="45.844378792573295" lon="12.22808166489452"><ele>120.33333333333333</ele><time>2026-04-25T04:13:05.999Z</time></trkpt><trkpt lat="45.84445512755553" lon="12.228090144584813"><ele>121.0</ele><time>2026-04-25T04:13:07.999Z</time></trkpt><trkpt lat="45.84453606784736" lon="12.228089103456291"><ele>121.66666666666666</ele><time>2026-04-25T04:13:10.999Z</time></trkpt><trkpt lat="45.84461487473245" lon="12.22805008205142"><ele>122.33333333333333</ele><time>2026-04-25T04:13:13.999Z</time></trkpt><trkpt lat="45.84467944297922" lon="12.228030585182685"><ele>123.0</ele><time>2026-04-25T04:13:15.999Z</time></trkpt><trkpt lat="45.84473608681231" lon="12.227960138919771"><ele>123.0</ele><time>2026-04-25T04:13:17.999Z</time></trkpt><trkpt lat="45.844788787605054" lon="12.227847657940776"><ele>123.00000000000001</ele><time>2026-04-25T04:13:19.999Z</time></trkpt><trkpt lat="45.844834977035596" lon="12.22773164542976"><ele>123.00000000000001</ele><time>2026-04-25T04:13:21.999Z</time></trkpt><trkpt lat="45.8448772264431" lon="12.227610830089736"><ele>123.0</ele><time>2026-04-25T04:13:23.999Z</time></trkpt><trkpt lat="45.84491823886039" lon="12.227491504796268"><ele>123.0</ele><time>2026-04-25T04:13:25.999Z</time></trkpt><trkpt lat="45.8449590076802" lon="12.227372888239813"><ele>123.5</ele><time>2026-04-25T04:13:27.999Z</time></trkpt><trkpt lat="45.844996556454625" lon="12.227263640373167"><ele>124.0</ele><time>2026-04-25T04:13:29.999Z</time></trkpt><trkpt lat="45.845034584718405" lon="12.227152997428597"><ele>124.5</ele><time>2026-04-25T04:13:31.999Z</time></trkpt><trkpt lat="45.84506889163593" lon="12.227056098958148"><ele>125.0</ele><time>2026-04-25T04:13:33.999Z</time></trkpt><trkpt lat="45.84510010663285" lon="12.226968793193697"><ele>125.5</ele><time>2026-04-25T04:13:35.999Z</time></trkpt><trkpt lat="45.845133661309696" lon="12.226874943493884"><ele>126.0</ele><time>2026-04-25T04:13:38.999Z</time></trkpt><trkpt lat="45.845147785905745" lon="12.226782934517203"><ele>126.14285714285714</ele><time>2026-04-25T04:13:41.999Z</time></trkpt><trkpt lat="45.84518793932951" lon="12.226706245904381"><ele>126.28571428571428</ele><time>2026-04-25T04:13:44.999Z</time></trkpt><trkpt lat="45.845216372344176" lon="12.226614266197773"><ele>126.42857142857143</ele><time>2026-04-25T04:13:47.998Z</time></trkpt><trkpt lat="45.84524386999596" lon="12.226524655687559"><ele>126.57142857142857</ele><time>2026-04-25T04:13:50.998Z</time></trkpt><trkpt lat="45.8453044229874" lon="12.226468063913215"><ele>126.71428571428571</ele><time>2026-04-25T04:13:53.998Z</time></trkpt><trkpt lat="45.84536368614444" lon="12.226426111056222"><ele>126.85714285714286</ele><time>2026-04-25T04:13:56.998Z</time></trkpt><trkpt lat="45.845434746214515" lon="12.22640619469716"><ele>127.0</ele><time>2026-04-25T04:14:00.998Z</time></trkpt><trkpt lat="45.84549819367513" lon="12.226381217494595"><ele>127.14285714285714</ele><time>2026-04-25T04:14:04.998Z</time></trkpt><trkpt lat="45.845560013770026" lon="12.226362443300017"><ele>127.28571428571428</ele><time>2026-04-25T04:14:08.998Z</time></trkpt><trkpt lat="45.84564046483482" lon="12.226360599269658"><ele>127.42857142857142</ele><time>2026-04-25T04:14:12.998Z</time></trkpt><trkpt lat="45.8457098338488" lon="12.226341915056723"><ele>127.57142857142857</ele><time>2026-04-25T04:14:16.998Z</time></trkpt><trkpt lat="45.84578325585508" lon="12.226320019160212"><ele>127.7142857142857</ele><time>2026-04-25T04:14:21Z</time></trkpt><trkpt lat="45.84585705042729" lon="12.226293834616218"><ele>127.85714285714285</ele><time>2026-04-25T04:14:25Z</time></trkpt><trkpt lat="45.84592294323067" lon="12.226253210468442"><ele>128.0</ele><time>2026-04-25T04:14:29Z</time></trkpt><trkpt lat="45.845971615475484" lon="12.226189119169963"><ele>128.0</ele><time>2026-04-25T04:14:46Z</time></trkpt><trkpt lat="45.84602923401454" lon="12.22610751464651"><ele>127.99999999999999</ele><time>2026-04-25T04:14:49Z</time></trkpt><trkpt lat="45.84605732718191" lon="12.226020969531268"><ele>128.0</ele><time>2026-04-25T04:14:51Z</time></trkpt><trkpt lat="45.846105627552234" lon="12.225960934563526"><ele>128.0</ele><time>2026-04-25T04:14:53Z</time></trkpt><trkpt lat="45.84616254888135" lon="12.2258957449622"><ele>127.99999999999999</ele><time>2026-04-25T04:14:55Z</time></trkpt><trkpt lat="45.84622087929624" lon="12.225841308268686"><ele>128.0</ele><time>2026-04-25T04:14:57Z</time></trkpt><trkpt lat="45.84627612236025" lon="12.225777474480143"><ele>128.0</ele><time>2026-04-25T04:14:59Z</time></trkpt><trkpt lat="45.84632313555539" lon="12.225702261482457"><ele>129.14285714285714</ele><time>2026-04-25T04:15:01Z</time></trkpt><trkpt lat="45.84638043191633" lon="12.2256409242351"><ele>130.28571428571428</ele><time>2026-04-25T04:15:03Z</time></trkpt><trkpt lat="45.8464259044912" lon="12.225557610354953"><ele>131.42857142857142</ele><time>2026-04-25T04:15:05Z</time></trkpt><trkpt lat="45.8464612432239" lon="12.22547928794807"><ele>132.57142857142856</ele><time>2026-04-25T04:15:07Z</time></trkpt><trkpt lat="45.84647530992097" lon="12.225391159927831"><ele>133.71428571428572</ele><time>2026-04-25T04:15:09Z</time></trkpt><trkpt lat="45.84645386100121" lon="12.22527861405959"><ele>134.85714285714283</ele><time>2026-04-25T04:15:12Z</time></trkpt><trkpt lat="45.84640742247407" lon="12.225171051198775"><ele>136.0</ele><time>2026-04-25T04:15:15Z</time></trkpt><trkpt lat="45.84637578902912" lon="12.225091628678369"><ele>135.99999999999997</ele><time>2026-04-25T04:15:18Z</time></trkpt><trkpt lat="45.846339157306595" lon="12.224995682808114"><ele>136.0</ele><time>2026-04-25T04:15:20.999Z</time></trkpt><trkpt lat="45.84629831444081" lon="12.224924734968695"><ele>136.0</ele><time>2026-04-25T04:15:23.999Z</time></trkpt><trkpt lat="45.846298016784" lon="12.224820028305993"><ele>136.0</ele><time>2026-04-25T04:15:26.999Z</time></trkpt><trkpt lat="45.84635153872517" lon="12.224769406716288"><ele>136.0</ele><time>2026-04-25T04:15:29.999Z</time></trkpt><trkpt lat="45.846411083666794" lon="12.224674498932831"><ele>135.99999999999997</ele><time>2026-04-25T04:15:33.999Z</time></trkpt><trkpt lat="45.8464625884254" lon="12.224620795982768"><ele>136.0</ele><time>2026-04-25T04:15:35.999Z</time></trkpt><trkpt lat="45.84651305601546" lon="12.22454476228474"><ele>135.8</ele><time>2026-04-25T04:15:37.999Z</time></trkpt><trkpt lat="45.8465759485051" lon="12.224465865624135"><ele>135.6</ele><time>2026-04-25T04:15:39.999Z</time></trkpt><trkpt lat="45.84664673205848" lon="12.224383083788853"><ele>135.4</ele><time>2026-04-25T04:15:41.999Z</time></trkpt><trkpt lat="45.846720920242596" lon="12.224286797749027"><ele>135.2</ele><time>2026-04-25T04:15:43.999Z</time></trkpt><trkpt lat="45.84679793862433" lon="12.224184227458807"><ele>135.0</ele><time>2026-04-25T04:15:45.999Z</time></trkpt><trkpt lat="45.84688239980312" lon="12.224075296438699"><ele>135.0</ele><time>2026-04-25T04:15:47.999Z</time></trkpt><trkpt lat="45.846946297814405" lon="12.22404741345018"><ele>135.0</ele><time>2026-04-25T04:15:48.999Z</time></trkpt><trkpt lat="45.8469938444636" lon="12.22398598120013"><ele>135.0</ele><time>2026-04-25T04:15:49.999Z</time></trkpt><trkpt lat="45.84708979458288" lon="12.22386015723013"><ele>135.0</ele><time>2026-04-25T04:15:51.999Z</time></trkpt><trkpt lat="45.84714000554038" lon="12.223794313240917"><ele>135.0</ele><time>2026-04-25T04:15:52.999Z</time></trkpt><trkpt lat="45.8471906094206" lon="12.2237287172679"><ele>135.0</ele><time>2026-04-25T04:15:53.999Z</time></trkpt><trkpt lat="45.84724396054887" lon="12.22366284863851"><ele>135.0</ele><time>2026-04-25T04:15:54.999Z</time></trkpt><trkpt lat="45.847295406943125" lon="12.223599331676812"><ele>135.0</ele><time>2026-04-25T04:15:55.999Z</time></trkpt><trkpt lat="45.84734759483377" lon="12.223534899266008"><ele>135.0</ele><time>2026-04-25T04:15:56.999Z</time></trkpt><trkpt lat="45.84740252489606" lon="12.223467042622863"><ele>135.0</ele><time>2026-04-25T04:15:57.999Z</time></trkpt><trkpt lat="45.84745877602983" lon="12.223396728735358"><ele>135.0</ele><time>2026-04-25T04:15:58.999Z</time></trkpt><trkpt lat="45.847512349052934" lon="12.223329762433448"><ele>135.0</ele><time>2026-04-25T04:15:59.999Z</time></trkpt><trkpt lat="45.84756470206669" lon="12.223263829529255"><ele>135.0</ele><time>2026-04-25T04:16:00.999Z</time></trkpt><trkpt lat="45.84761594161507" lon="12.223198507190034"><ele>135.6</ele><time>2026-04-25T04:16:01.999Z</time></trkpt><trkpt lat="45.847664805715915" lon="12.223136213181833"><ele>136.2</ele><time>2026-04-25T04:16:02.999Z</time></trkpt><trkpt lat="45.84775671301792" lon="12.22301904587731"><ele>136.8</ele><time>2026-04-25T04:16:04.999Z</time></trkpt><trkpt lat="45.84784043536353" lon="12.222912313083402"><ele>137.4</ele><time>2026-04-25T04:16:06.999Z</time></trkpt><trkpt lat="45.84792138096072" lon="12.222806998082662"><ele>138.0</ele><time>2026-04-25T04:16:08.999Z</time></trkpt><trkpt lat="45.847998085693604" lon="12.222707053956583"><ele>138.0</ele><time>2026-04-25T04:16:10.999Z</time></trkpt><trkpt lat="45.84806748471107" lon="12.222616628982577"><ele>138.0</ele><time>2026-04-25T04:16:12.999Z</time></trkpt><trkpt lat="45.848134494224205" lon="12.222529317471102"><ele>138.0</ele><time>2026-04-25T04:16:14.999Z</time></trkpt><trkpt lat="45.84819796624036" lon="12.222417855839415"><ele>138.0</ele><time>2026-04-25T04:16:16.998Z</time></trkpt><trkpt lat="45.848267190920396" lon="12.222330343091645"><ele>138.0</ele><time>2026-04-25T04:16:18.998Z</time></trkpt><trkpt lat="45.84832558240944" lon="12.222253310463492"><ele>138.5</ele><time>2026-04-25T04:16:20.998Z</time></trkpt><trkpt lat="45.848392844665355" lon="12.222175314926197"><ele>139.0</ele><time>2026-04-25T04:16:23.997Z</time></trkpt><trkpt lat="45.848453445654364" lon="12.22209517834234"><ele>139.5</ele><time>2026-04-25T04:16:27Z</time></trkpt><trkpt lat="45.848501308262065" lon="12.222023673070884"><ele>140.0</ele><time>2026-04-25T04:16:30Z</time></trkpt><trkpt lat="45.84854832882115" lon="12.221958222391036"><ele>140.5</ele><time>2026-04-25T04:16:33Z</time></trkpt><trkpt lat="45.848606493950186" lon="12.221880495533922"><ele>141.0</ele><time>2026-04-25T04:16:37Z</time></trkpt><trkpt lat="45.848655262951176" lon="12.221813681183392"><ele>142.57142857142858</ele><time>2026-04-25T04:16:40Z</time></trkpt><trkpt lat="45.848705652505046" lon="12.221750099360731"><ele>144.14285714285714</ele><time>2026-04-25T04:16:43Z</time></trkpt><trkpt lat="45.84876751859131" lon="12.221681104543734"><ele>145.71428571428572</ele><time>2026-04-25T04:16:47Z</time></trkpt><trkpt lat="45.848828438166585" lon="12.22164071703581"><ele>147.28571428571428</ele><time>2026-04-25T04:16:51Z</time></trkpt><trkpt lat="45.84889040851965" lon="12.221595819144033"><ele>148.85714285714286</ele><time>2026-04-25T04:16:54.999Z</time></trkpt><trkpt lat="45.8489519644709" lon="12.221560205613553"><ele>150.42857142857142</ele><time>2026-04-25T04:16:58.999Z</time></trkpt><trkpt lat="45.849017208988705" lon="12.221529096309348"><ele>152.0</ele><time>2026-04-25T04:17:02.999Z</time></trkpt><trkpt lat="45.849083590475395" lon="12.221492053666305"><ele>152.0</ele><time>2026-04-25T04:17:06.999Z</time></trkpt><trkpt lat="45.84914818860994" lon="12.22143288807123"><ele>152.0</ele><time>2026-04-25T04:17:10.999Z</time></trkpt><trkpt lat="45.84920804961904" lon="12.221367775198422"><ele>152.0</ele><time>2026-04-25T04:17:14.999Z</time></trkpt><trkpt lat="45.84927048495389" lon="12.221306085695302"><ele>152.0</ele><time>2026-04-25T04:17:18.999Z</time></trkpt><trkpt lat="45.84934576868268" lon="12.221265264720202"><ele>152.0</ele><time>2026-04-25T04:17:22.999Z</time></trkpt><trkpt lat="45.849407621688066" lon="12.22123387993953"><ele>152.0</ele><time>2026-04-25T04:17:25.999Z</time></trkpt><trkpt lat="45.84947688526974" lon="12.221210079608438"><ele>152.0</ele><time>2026-04-25T04:17:28.999Z</time></trkpt><trkpt lat="45.84954137260943" lon="12.221206228086064"><ele>153.16666666666666</ele><time>2026-04-25T04:17:31.999Z</time></trkpt><trkpt lat="45.849603540861196" lon="12.221177299954245"><ele>154.33333333333331</ele><time>2026-04-25T04:17:34.999Z</time></trkpt><trkpt lat="45.84967017233068" lon="12.22112877973083"><ele>155.5</ele><time>2026-04-25T04:17:38.999Z</time></trkpt><trkpt lat="45.849746153828804" lon="12.221094819213782"><ele>156.66666666666666</ele><time>2026-04-25T04:17:42.999Z</time></trkpt><trkpt lat="45.84981960840414" lon="12.22106395883947"><ele>157.83333333333334</ele><time>2026-04-25T04:17:46.999Z</time></trkpt><trkpt lat="45.84989741611008" lon="12.221032710632924"><ele>159.0</ele><time>2026-04-25T04:17:50.998Z</time></trkpt><trkpt lat="45.849975017975666" lon="12.221011281754535"><ele>159.0</ele><time>2026-04-25T04:17:54.998Z</time></trkpt><trkpt lat="45.85004186215712" lon="12.220983666200231"><ele>159.0</ele><time>2026-04-25T04:17:58.998Z</time></trkpt><trkpt lat="45.85010912173458" lon="12.2209577199946"><ele>159.0</ele><time>2026-04-25T04:18:02.998Z</time></trkpt><trkpt lat="45.850170063862286" lon="12.220932518214477"><ele>159.0</ele><time>2026-04-25T04:18:06.998Z</time></trkpt><trkpt lat="45.85024033284373" lon="12.220903881972669"><ele>159.0</ele><time>2026-04-25T04:18:11.998Z</time></trkpt><trkpt lat="45.85030468789257" lon="12.220882828228186"><ele>159.0</ele><time>2026-04-25T04:18:15.998Z</time></trkpt><trkpt lat="45.85036918590139" lon="12.220856588651507"><ele>159.0</ele><time>2026-04-25T04:18:19.998Z</time></trkpt><trkpt lat="45.85043688492016" lon="12.220831772277336"><ele>160.66666666666666</ele><time>2026-04-25T04:18:23.998Z</time></trkpt><trkpt lat="45.850508436525466" lon="12.220806298452601"><ele>162.33333333333334</ele><time>2026-04-25T04:18:27.998Z</time></trkpt><trkpt lat="45.8505790823522" lon="12.220778306525299"><ele>164.0</ele><time>2026-04-25T04:18:32Z</time></trkpt><trkpt lat="45.85065500412711" lon="12.22077398335777"><ele>165.66666666666669</ele><time>2026-04-25T04:18:36Z</time></trkpt><trkpt lat="45.85073077404338" lon="12.220747612570909"><ele>167.33333333333334</ele><time>2026-04-25T04:18:40Z</time></trkpt><trkpt lat="45.85080397725155" lon="12.220719198954521"><ele>169.0</ele><time>2026-04-25T04:18:44Z</time></trkpt><trkpt lat="45.85087727257331" lon="12.220690125611608"><ele>169.0</ele><time>2026-04-25T04:18:48Z</time></trkpt><trkpt lat="45.85094921789979" lon="12.220661587750543"><ele>169.0</ele><time>2026-04-25T04:18:52Z</time></trkpt><trkpt lat="45.85102305389092" lon="12.220632299950871"><ele>169.0</ele><time>2026-04-25T04:18:56Z</time></trkpt><trkpt lat="45.85109846003483" lon="12.220602389319989"><ele>169.0</ele><time>2026-04-25T04:19:00Z</time></trkpt><trkpt lat="45.85117686414321" lon="12.220575671837354"><ele>169.0</ele><time>2026-04-25T04:19:04Z</time></trkpt><trkpt lat="45.8512557449588" lon="12.220549706387633"><ele>169.0</ele><time>2026-04-25T04:19:08Z</time></trkpt><trkpt lat="45.851312460610586" lon="12.22050788052903"><ele>170.5</ele><time>2026-04-25T04:19:11Z</time></trkpt><trkpt lat="45.85139220337138" lon="12.220537116648318"><ele>172.0</ele><time>2026-04-25T04:19:14.999Z</time></trkpt><trkpt lat="45.85143055020014" lon="12.22065707110863"><ele>173.5</ele><time>2026-04-25T04:19:17.999Z</time></trkpt><trkpt lat="45.85144396461971" lon="12.22077064453763"><ele>175.0</ele><time>2026-04-25T04:19:19.999Z</time></trkpt><trkpt lat="45.85145905463119" lon="12.220888305622076"><ele>176.5</ele><time>2026-04-25T04:19:21.999Z</time></trkpt><trkpt lat="45.851480058911" lon="12.22102348910145"><ele>178.0</ele><time>2026-04-25T04:19:23.999Z</time></trkpt><trkpt lat="45.85149922397695" lon="12.221160685970517"><ele>178.0</ele><time>2026-04-25T04:19:25.999Z</time></trkpt><trkpt lat="45.85152681244547" lon="12.221315662089182"><ele>178.0</ele><time>2026-04-25T04:19:27.999Z</time></trkpt><trkpt lat="45.851549383678034" lon="12.221474428952478"><ele>178.0</ele><time>2026-04-25T04:19:29.999Z</time></trkpt><trkpt lat="45.851561566171114" lon="12.221632279882641"><ele>178.0</ele><time>2026-04-25T04:19:31.999Z</time></trkpt><trkpt lat="45.85158492614644" lon="12.22177907375717"><ele>178.0</ele><time>2026-04-25T04:19:33.999Z</time></trkpt><trkpt lat="45.85161567020162" lon="12.22191500793571"><ele>177.60000000000002</ele><time>2026-04-25T04:19:35.999Z</time></trkpt><trkpt lat="45.85164011654445" lon="12.22205458022571"><ele>177.20000000000002</ele><time>2026-04-25T04:19:37.999Z</time></trkpt><trkpt lat="45.85165797827542" lon="12.22219501496331"><ele>176.8</ele><time>2026-04-25T04:19:39.999Z</time></trkpt><trkpt lat="45.85167873630711" lon="12.222327149228763"><ele>176.4</ele><time>2026-04-25T04:19:41.999Z</time></trkpt><trkpt lat="45.85171554954472" lon="12.222433532883588"><ele>176.0</ele><time>2026-04-25T04:19:43.999Z</time></trkpt><trkpt lat="45.851785616114974" lon="12.222504827126718"><ele>176.0</ele><time>2026-04-25T04:19:45.999Z</time></trkpt><trkpt lat="45.85186872634312" lon="12.22252811483974"><ele>176.0</ele><time>2026-04-25T04:19:47.999Z</time></trkpt><trkpt lat="45.85194175222783" lon="12.222509675755909"><ele>176.0</ele><time>2026-04-25T04:19:49.999Z</time></trkpt><trkpt lat="45.85201058879249" lon="12.222478198404168"><ele>176.0</ele><time>2026-04-25T04:19:51.999Z</time></trkpt><trkpt lat="45.85208062187442" lon="12.222466706209197"><ele>176.0</ele><time>2026-04-25T04:19:53.999Z</time></trkpt><trkpt lat="45.852150321604945" lon="12.222471260250952"><ele>176.0</ele><time>2026-04-25T04:19:55.999Z</time></trkpt><trkpt lat="45.8522217047168" lon="12.222591501002379"><ele>176.0</ele><time>2026-04-25T04:19:58.999Z</time></trkpt><trkpt lat="45.8522475586057" lon="12.222731224894362"><ele>176.0</ele><time>2026-04-25T04:20:00.999Z</time></trkpt><trkpt lat="45.852282311458126" lon="12.222892420129659"><ele>176.0</ele><time>2026-04-25T04:20:02.999Z</time></trkpt><trkpt lat="45.852303856322166" lon="12.222979314869551"><ele>176.0</ele><time>2026-04-25T04:20:03.999Z</time></trkpt><trkpt lat="45.852326947361654" lon="12.223071636488054"><ele>176.0</ele><time>2026-04-25T04:20:04.999Z</time></trkpt><trkpt lat="45.852351124798375" lon="12.223167170299542"><ele>176.0</ele><time>2026-04-25T04:20:05.999Z</time></trkpt><trkpt lat="45.852376596045985" lon="12.223269330368186"><ele>175.0</ele><time>2026-04-25T04:20:06.999Z</time></trkpt><trkpt lat="45.852400846663365" lon="12.223374103744975"><ele>174.0</ele><time>2026-04-25T04:20:07.999Z</time></trkpt><trkpt lat="45.85242559437073" lon="12.223482434382493"><ele>173.0</ele><time>2026-04-25T04:20:08.999Z</time></trkpt><trkpt lat="45.85244733244743" lon="12.22359659960533"><ele>172.0</ele><time>2026-04-25T04:20:09.999Z</time></trkpt><trkpt lat="45.85246330794446" lon="12.223712968567238"><ele>171.0</ele><time>2026-04-25T04:20:10.999Z</time></trkpt><trkpt lat="45.852473068558425" lon="12.2238372513044"><ele>170.0</ele><time>2026-04-25T04:20:11.999Z</time></trkpt><trkpt lat="45.85247019395881" lon="12.223966286974813"><ele>169.8</ele><time>2026-04-25T04:20:12.999Z</time></trkpt><trkpt lat="45.85245732230329" lon="12.224097497723418"><ele>169.6</ele><time>2026-04-25T04:20:13.999Z</time></trkpt><trkpt lat="45.85243595455512" lon="12.224228701535493"><ele>169.39999999999998</ele><time>2026-04-25T04:20:14.998Z</time></trkpt><trkpt lat="45.852407075943404" lon="12.22436170527395"><ele>169.2</ele><time>2026-04-25T04:20:15.998Z</time></trkpt><trkpt lat="45.85237486633923" lon="12.224495898635748"><ele>169.0</ele><time>2026-04-25T04:20:16.998Z</time></trkpt><trkpt lat="45.85234303109124" lon="12.224633901231929"><ele>169.0</ele><time>2026-04-25T04:20:17.998Z</time></trkpt><trkpt lat="45.85231318907071" lon="12.22477287737715"><ele>169.0</ele><time>2026-04-25T04:20:18.998Z</time></trkpt><trkpt lat="45.852284080253625" lon="12.224914053220811"><ele>169.0</ele><time>2026-04-25T04:20:19.998Z</time></trkpt><trkpt lat="45.8522547137817" lon="12.225052218502295"><ele>169.0</ele><time>2026-04-25T04:20:20.998Z</time></trkpt><trkpt lat="45.85222222143902" lon="12.2251932448202"><ele>169.0</ele><time>2026-04-25T04:20:21.998Z</time></trkpt><trkpt lat="45.8521825373411" lon="12.225335062187725"><ele>167.79999999999998</ele><time>2026-04-25T04:20:22.998Z</time></trkpt><trkpt lat="45.852130260923126" lon="12.225471111769695"><ele>166.6</ele><time>2026-04-25T04:20:23.998Z</time></trkpt><trkpt lat="45.85206966959291" lon="12.225598153227471"><ele>165.4</ele><time>2026-04-25T04:20:24.998Z</time></trkpt><trkpt lat="45.85200912775138" lon="12.2257174601532"><ele>164.2</ele><time>2026-04-25T04:20:25.998Z</time></trkpt><trkpt lat="45.85194821980861" lon="12.225833983103742"><ele>163.0</ele><time>2026-04-25T04:20:26.998Z</time></trkpt><trkpt lat="45.8518890394002" lon="12.225949500955474"><ele>161.8</ele><time>2026-04-25T04:20:27.998Z</time></trkpt><trkpt lat="45.85183211409522" lon="12.226062050419548"><ele>160.60000000000002</ele><time>2026-04-25T04:20:28.998Z</time></trkpt><trkpt lat="45.85177766764372" lon="12.226170931486948"><ele>159.39999999999998</ele><time>2026-04-25T04:20:29.998Z</time></trkpt><trkpt lat="45.85172664129451" lon="12.2262779176655"><ele>158.2</ele><time>2026-04-25T04:20:30.998Z</time></trkpt><trkpt lat="45.851673592537395" lon="12.226379296545135"><ele>157.0</ele><time>2026-04-25T04:20:31.998Z</time></trkpt><trkpt lat="45.8516259177439" lon="12.226475046447593"><ele>156.16666666666669</ele><time>2026-04-25T04:20:32.998Z</time></trkpt><trkpt lat="45.851580025170726" lon="12.226564975206882"><ele>155.33333333333334</ele><time>2026-04-25T04:20:33.998Z</time></trkpt><trkpt lat="45.851536109107236" lon="12.226651674939161"><ele>154.5</ele><time>2026-04-25T04:20:34.998Z</time></trkpt><trkpt lat="45.85149788597143" lon="12.226735767496791"><ele>153.66666666666666</ele><time>2026-04-25T04:20:35.998Z</time></trkpt><trkpt lat="45.851466124539094" lon="12.226818132255016"><ele>152.83333333333331</ele><time>2026-04-25T04:20:36.998Z</time></trkpt><trkpt lat="45.85143719458731" lon="12.226956825839007"><ele>152.0</ele><time>2026-04-25T04:20:39Z</time></trkpt><trkpt lat="45.85145084371072" lon="12.227058661540212"><ele>152.0</ele><time>2026-04-25T04:20:41Z</time></trkpt><trkpt lat="45.851483372715265" lon="12.227158502236627"><ele>152.0</ele><time>2026-04-25T04:20:43Z</time></trkpt><trkpt lat="45.851562638345726" lon="12.2272200023746"><ele>152.0</ele><time>2026-04-25T04:20:45Z</time></trkpt><trkpt lat="45.85166206052302" lon="12.227273241481736"><ele>152.0</ele><time>2026-04-25T04:20:47Z</time></trkpt><trkpt lat="45.851769071182694" lon="12.22733844783339"><ele>152.0</ele><time>2026-04-25T04:20:49Z</time></trkpt><trkpt lat="45.85188687690305" lon="12.227403571962299"><ele>150.33333333333331</ele><time>2026-04-25T04:20:51Z</time></trkpt><trkpt lat="45.85194601633623" lon="12.22744794532305"><ele>148.66666666666666</ele><time>2026-04-25T04:20:52Z</time></trkpt><trkpt lat="45.85199874090306" lon="12.227518716315117"><ele>147.0</ele><time>2026-04-25T04:20:53Z</time></trkpt><trkpt lat="45.852038529066036" lon="12.227614211529465"><ele>145.33333333333334</ele><time>2026-04-25T04:20:54Z</time></trkpt><trkpt lat="45.85205562814418" lon="12.227727164672269"><ele>143.66666666666669</ele><time>2026-04-25T04:20:55Z</time></trkpt><trkpt lat="45.85206215755931" lon="12.227846313896444"><ele>142.0</ele><time>2026-04-25T04:20:56Z</time></trkpt><trkpt lat="45.852066845910564" lon="12.227969939623181"><ele>142.0</ele><time>2026-04-25T04:20:57Z</time></trkpt><trkpt lat="45.85206630544061" lon="12.228098339156002"><ele>142.0</ele><time>2026-04-25T04:20:58Z</time></trkpt><trkpt lat="45.8520683135346" lon="12.228231043382484"><ele>142.0</ele><time>2026-04-25T04:20:59Z</time></trkpt><trkpt lat="45.852071745338044" lon="12.228365879350198"><ele>142.0</ele><time>2026-04-25T04:21:00Z</time></trkpt><trkpt lat="45.852077359398166" lon="12.228500510634879"><ele>142.0</ele><time>2026-04-25T04:21:01Z</time></trkpt><trkpt lat="45.85208250596949" lon="12.228633460324644"><ele>140.16666666666669</ele><time>2026-04-25T04:21:02Z</time></trkpt><trkpt lat="45.85209069167927" lon="12.228763102621116"><ele>138.33333333333334</ele><time>2026-04-25T04:21:03Z</time></trkpt><trkpt lat="45.852095618668955" lon="12.228890225148994"><ele>136.5</ele><time>2026-04-25T04:21:04Z</time></trkpt><trkpt lat="45.85209978827131" lon="12.229016396680143"><ele>134.66666666666666</ele><time>2026-04-25T04:21:05Z</time></trkpt><trkpt lat="45.852102865986794" lon="12.229140478962313"><ele>132.83333333333331</ele><time>2026-04-25T04:21:06Z</time></trkpt><trkpt lat="45.85210796822389" lon="12.229262749177407"><ele>131.0</ele><time>2026-04-25T04:21:07Z</time></trkpt><trkpt lat="45.85211265395898" lon="12.229384901765194"><ele>130.0</ele><time>2026-04-25T04:21:08Z</time></trkpt><trkpt lat="45.85211576963173" lon="12.22950219421521"><ele>129.0</ele><time>2026-04-25T04:21:09Z</time></trkpt><trkpt lat="45.85211749331916" lon="12.229618817653687"><ele>128.0</ele><time>2026-04-25T04:21:10Z</time></trkpt><trkpt lat="45.85211808891836" lon="12.229736147846408"><ele>127.0</ele><time>2026-04-25T04:21:11Z</time></trkpt><trkpt lat="45.85211160327833" lon="12.229856954304413"><ele>125.99999999999999</ele><time>2026-04-25T04:21:12Z</time></trkpt><trkpt lat="45.85209473641554" lon="12.229980295592302"><ele>125.0</ele><time>2026-04-25T04:21:13Z</time></trkpt><trkpt lat="45.852059580181844" lon="12.230097637563134"><ele>124.0</ele><time>2026-04-25T04:21:14Z</time></trkpt><trkpt lat="45.85202071248029" lon="12.230213203863231"><ele>123.0</ele><time>2026-04-25T04:21:15Z</time></trkpt><trkpt lat="45.85197765445309" lon="12.230331572376247"><ele>122.0</ele><time>2026-04-25T04:21:16Z</time></trkpt><trkpt lat="45.8519299465805" lon="12.230451468072673"><ele>121.0</ele><time>2026-04-25T04:21:17Z</time></trkpt><trkpt lat="45.85187733428369" lon="12.23057285874204"><ele>120.0</ele><time>2026-04-25T04:21:18Z</time></trkpt><trkpt lat="45.851825207550476" lon="12.230692753581778"><ele>121.2</ele><time>2026-04-25T04:21:19Z</time></trkpt><trkpt lat="45.85176792138997" lon="12.230811722828573"><ele>122.4</ele><time>2026-04-25T04:21:20Z</time></trkpt><trkpt lat="45.85170590888085" lon="12.230931134082406"><ele>123.6</ele><time>2026-04-25T04:21:21Z</time></trkpt><trkpt lat="45.85164089942377" lon="12.23105007061716"><ele>124.8</ele><time>2026-04-25T04:21:22Z</time></trkpt><trkpt lat="45.85157667456141" lon="12.231161495713012"><ele>126.0</ele><time>2026-04-25T04:21:23Z</time></trkpt><trkpt lat="45.851515983837736" lon="12.231261589194357"><ele>126.0</ele><time>2026-04-25T04:21:24Z</time></trkpt><trkpt lat="45.85145821757496" lon="12.231346006365328"><ele>126.0</ele><time>2026-04-25T04:21:25Z</time></trkpt><trkpt lat="45.851401006676326" lon="12.231420783785596"><ele>126.0</ele><time>2026-04-25T04:21:26Z</time></trkpt><trkpt lat="45.85134612229749" lon="12.231486560458363"><ele>126.0</ele><time>2026-04-25T04:21:27Z</time></trkpt><trkpt lat="45.851295632716685" lon="12.231542527949694"><ele>126.0</ele><time>2026-04-25T04:21:28Z</time></trkpt><trkpt lat="45.85121038741313" lon="12.231621777157628"><ele>126.0</ele><time>2026-04-25T04:21:30Z</time></trkpt><trkpt lat="45.851151658021195" lon="12.231681289769385"><ele>126.0</ele><time>2026-04-25T04:21:32Z</time></trkpt><trkpt lat="45.851180210413496" lon="12.231829103491862"><ele>126.0</ele><time>2026-04-25T04:21:34.999Z</time></trkpt><trkpt lat="45.85125179612911" lon="12.231917422316814"><ele>126.0</ele><time>2026-04-25T04:21:36.999Z</time></trkpt><trkpt lat="45.851334405897994" lon="12.232016771060048"><ele>126.0</ele><time>2026-04-25T04:21:38.999Z</time></trkpt><trkpt lat="45.85143697490257" lon="12.232118535282483"><ele>126.0</ele><time>2026-04-25T04:21:40.999Z</time></trkpt><trkpt lat="45.85155765354888" lon="12.232171836262282"><ele>126.0</ele><time>2026-04-25T04:21:42.999Z</time></trkpt><trkpt lat="45.851620841110694" lon="12.23217640513156"><ele>126.0</ele><time>2026-04-25T04:21:43.999Z</time></trkpt><trkpt lat="45.851744235567104" lon="12.232180477951102"><ele>126.0</ele><time>2026-04-25T04:21:45.999Z</time></trkpt><trkpt lat="45.85184647510466" lon="12.232133493407941"><ele>126.0</ele><time>2026-04-25T04:21:47.999Z</time></trkpt><trkpt lat="45.85192675464356" lon="12.232064840075545"><ele>126.0</ele><time>2026-04-25T04:21:49.999Z</time></trkpt><trkpt lat="45.85202042767602" lon="12.232010966516153"><ele>123.19999999999999</ele><time>2026-04-25T04:21:51.999Z</time></trkpt><trkpt lat="45.852113387482454" lon="12.23192008771883"><ele>120.39999999999999</ele><time>2026-04-25T04:21:53.999Z</time></trkpt><trkpt lat="45.85221636607427" lon="12.231790268011823"><ele>117.6</ele><time>2026-04-25T04:21:55.999Z</time></trkpt><trkpt lat="45.85226756942336" lon="12.231693205362614"><ele>114.8</ele><time>2026-04-25T04:21:56.999Z</time></trkpt><trkpt lat="45.85231983743892" lon="12.231623489121239"><ele>112.0</ele><time>2026-04-25T04:21:57.999Z</time></trkpt><trkpt lat="45.85238599858887" lon="12.231552807058984"><ele>112.00000000000001</ele><time>2026-04-25T04:21:58.999Z</time></trkpt><trkpt lat="45.85244386148319" lon="12.231482883023112"><ele>112.0</ele><time>2026-04-25T04:21:59.999Z</time></trkpt><trkpt lat="45.85250658065778" lon="12.231398144777224"><ele>112.0</ele><time>2026-04-25T04:22:00.999Z</time></trkpt><trkpt lat="45.85255812538509" lon="12.231309975176284"><ele>112.0</ele><time>2026-04-25T04:22:01.999Z</time></trkpt><trkpt lat="45.85260983069048" lon="12.231226101261488"><ele>112.00000000000001</ele><time>2026-04-25T04:22:02.999Z</time></trkpt><trkpt lat="45.85265766351874" lon="12.231146675879328"><ele>112.0</ele><time>2026-04-25T04:22:03.999Z</time></trkpt><trkpt lat="45.85270257390297" lon="12.231062896740728"><ele>108.83333333333334</ele><time>2026-04-25T04:22:04.999Z</time></trkpt><trkpt lat="45.85273907230088" lon="12.23098027628865"><ele>105.66666666666667</ele><time>2026-04-25T04:22:05.999Z</time></trkpt><trkpt lat="45.85277439738714" lon="12.230894333332348"><ele>102.5</ele><time>2026-04-25T04:22:06.999Z</time></trkpt><trkpt lat="45.852825306796184" lon="12.230836127356762"><ele>99.33333333333334</ele><time>2026-04-25T04:22:07.999Z</time></trkpt><trkpt lat="45.852908866671726" lon="12.23071956614697"><ele>96.16666666666667</ele><time>2026-04-25T04:22:09.999Z</time></trkpt><trkpt lat="45.85300188556741" lon="12.230615006064314"><ele>93.0</ele><time>2026-04-25T04:22:11.999Z</time></trkpt><trkpt lat="45.85310294439639" lon="12.230565757038741"><ele>93.0</ele><time>2026-04-25T04:22:13.999Z</time></trkpt><trkpt lat="45.853176498803414" lon="12.23052628055838"><ele>93.0</ele><time>2026-04-25T04:22:15.999Z</time></trkpt><trkpt lat="45.853190341166886" lon="12.230382215290561"><ele>93.0</ele><time>2026-04-25T04:22:18.999Z</time></trkpt><trkpt lat="45.85318757052613" lon="12.230286873400239"><ele>93.0</ele><time>2026-04-25T04:22:20.999Z</time></trkpt><trkpt lat="45.85317710586245" lon="12.230152646379718"><ele>93.0</ele><time>2026-04-25T04:22:23.999Z</time></trkpt><trkpt lat="45.85317662861571" lon="12.230035382614492"><ele>93.0</ele><time>2026-04-25T04:22:25.999Z</time></trkpt><trkpt lat="45.85320653220948" lon="12.229924314197708"><ele>93.0</ele><time>2026-04-25T04:22:27.999Z</time></trkpt><trkpt lat="45.85326658204094" lon="12.2298261137126"><ele>93.0</ele><time>2026-04-25T04:22:29.999Z</time></trkpt><trkpt lat="45.85336366842485" lon="12.229798026145266"><ele>93.0</ele><time>2026-04-25T04:22:31.998Z</time></trkpt><trkpt lat="45.85346163315875" lon="12.229786065867637"><ele>93.0</ele><time>2026-04-25T04:22:33.998Z</time></trkpt><trkpt lat="45.85355320410029" lon="12.229750639055005"><ele>93.0</ele><time>2026-04-25T04:22:35.998Z</time></trkpt><trkpt lat="45.85363253320388" lon="12.229683860583096"><ele>93.4</ele><time>2026-04-25T04:22:37.998Z</time></trkpt><trkpt lat="45.85371103520101" lon="12.229596692889773"><ele>93.80000000000001</ele><time>2026-04-25T04:22:39.998Z</time></trkpt><trkpt lat="45.853781569424775" lon="12.229497161145106"><ele>94.2</ele><time>2026-04-25T04:22:41.998Z</time></trkpt><trkpt lat="45.85385000574911" lon="12.2294047486046"><ele>94.6</ele><time>2026-04-25T04:22:44.001Z</time></trkpt><trkpt lat="45.85391972415314" lon="12.229310529791674"><ele>95.0</ele><time>2026-04-25T04:22:46.001Z</time></trkpt><trkpt lat="45.853985962562746" lon="12.229221889538517"><ele>95.0</ele><time>2026-04-25T04:22:48.001Z</time></trkpt><trkpt lat="45.854054945155575" lon="12.22912724525386"><ele>95.0</ele><time>2026-04-25T04:22:50.001Z</time></trkpt><trkpt lat="45.854121894487385" lon="12.22903388550824"><ele>95.0</ele><time>2026-04-25T04:22:52Z</time></trkpt><trkpt lat="45.854186139683335" lon="12.22894486537941"><ele>95.0</ele><time>2026-04-25T04:22:54.001Z</time></trkpt><trkpt lat="45.85426504296305" lon="12.228871237150063"><ele>95.0</ele><time>2026-04-25T04:22:56Z</time></trkpt><trkpt lat="45.85432809182112" lon="12.228787919599476"><ele>95.5</ele><time>2026-04-25T04:22:58Z</time></trkpt><trkpt lat="45.85438839072553" lon="12.228708193423724"><ele>96.0</ele><time>2026-04-25T04:23:00Z</time></trkpt><trkpt lat="45.85444908478057" lon="12.228627944754505"><ele>96.5</ele><time>2026-04-25T04:23:02Z</time></trkpt><trkpt lat="45.8544992270154" lon="12.228531637945034"><ele>97.0</ele><time>2026-04-25T04:23:04Z</time></trkpt><trkpt lat="45.85456077412136" lon="12.228449314264381"><ele>97.49999999999999</ele><time>2026-04-25T04:23:06Z</time></trkpt><trkpt lat="45.85462310948081" lon="12.228367285892027"><ele>98.0</ele><time>2026-04-25T04:23:08Z</time></trkpt><trkpt lat="45.85468560526882" lon="12.228285243866663"><ele>97.99999999999999</ele><time>2026-04-25T04:23:10Z</time></trkpt><trkpt lat="45.85474506392216" lon="12.228198223706695"><ele>98.0</ele><time>2026-04-25T04:23:12Z</time></trkpt><trkpt lat="45.854808061313136" lon="12.2281147821713"><ele>98.0</ele><time>2026-04-25T04:23:14Z</time></trkpt><trkpt lat="45.85486866956108" lon="12.228028384083697"><ele>98.0</ele><time>2026-04-25T04:23:16Z</time></trkpt><trkpt lat="45.85492913164198" lon="12.227944490800317"><ele>97.99999999999999</ele><time>2026-04-25T04:23:18Z</time></trkpt><trkpt lat="45.854998141212135" lon="12.227878206268315"><ele>98.0</ele><time>2026-04-25T04:23:20Z</time></trkpt><trkpt lat="45.85504292288786" lon="12.227781378539625"><ele>98.33333333333333</ele><time>2026-04-25T04:23:22Z</time></trkpt><trkpt lat="45.85510782091773" lon="12.227716454675175"><ele>98.66666666666666</ele><time>2026-04-25T04:23:24Z</time></trkpt><trkpt lat="45.85516409307791" lon="12.227633275925504"><ele>99.0</ele><time>2026-04-25T04:23:26Z</time></trkpt><trkpt lat="45.85522389961716" lon="12.227543380333788"><ele>99.33333333333334</ele><time>2026-04-25T04:23:28Z</time></trkpt><trkpt lat="45.85527131411317" lon="12.227434846034313"><ele>99.66666666666667</ele><time>2026-04-25T04:23:30Z</time></trkpt><trkpt lat="45.855342743753795" lon="12.227355345664122"><ele>100.0</ele><time>2026-04-25T04:23:32Z</time></trkpt><trkpt lat="45.855404693717425" lon="12.227257328715627"><ele>100.2</ele><time>2026-04-25T04:23:34Z</time></trkpt><trkpt lat="45.855453509363585" lon="12.227145164262781"><ele>100.4</ele><time>2026-04-25T04:23:36Z</time></trkpt><trkpt lat="45.8555282123753" lon="12.22706189804597"><ele>100.6</ele><time>2026-04-25T04:23:38Z</time></trkpt><trkpt lat="45.85559421023014" lon="12.226957740235914"><ele>100.8</ele><time>2026-04-25T04:23:40Z</time></trkpt><trkpt lat="45.85564953101142" lon="12.226835824649347"><ele>101.0</ele><time>2026-04-25T04:23:42Z</time></trkpt><trkpt lat="45.85572874378639" lon="12.226746821196782"><ele>101.0</ele><time>2026-04-25T04:23:44Z</time></trkpt><trkpt lat="45.855785085758804" lon="12.226629375867153"><ele>101.0</ele><time>2026-04-25T04:23:46Z</time></trkpt><trkpt lat="45.85586278429668" lon="12.226536675176837"><ele>101.0</ele><time>2026-04-25T04:23:48Z</time></trkpt><trkpt lat="45.85593181932936" lon="12.226432491648378"><ele>101.0</ele><time>2026-04-25T04:23:50Z</time></trkpt><trkpt lat="45.856001468751366" lon="12.226328860944285"><ele>101.0</ele><time>2026-04-25T04:23:51.999Z</time></trkpt><trkpt lat="45.85607078427145" lon="12.226225727038639"><ele>100.6</ele><time>2026-04-25T04:23:53.999Z</time></trkpt><trkpt lat="45.856136741645926" lon="12.226127589677137"><ele>100.19999999999999</ele><time>2026-04-25T04:23:55.999Z</time></trkpt><trkpt lat="45.856204965185306" lon="12.226023558193607"><ele>99.80000000000001</ele><time>2026-04-25T04:23:57.999Z</time></trkpt><trkpt lat="45.856268010950146" lon="12.225925671266875"><ele>99.4</ele><time>2026-04-25T04:23:59.999Z</time></trkpt><trkpt lat="45.85632413093741" lon="12.22578685272847"><ele>99.0</ele><time>2026-04-25T04:24:01.999Z</time></trkpt><trkpt lat="45.856370629741754" lon="12.225632231501804"><ele>100.6</ele><time>2026-04-25T04:24:03.999Z</time></trkpt><trkpt lat="45.85635904498119" lon="12.225478573158972"><ele>102.2</ele><time>2026-04-25T04:24:05.999Z</time></trkpt><trkpt lat="45.856302124629885" lon="12.225434827236262"><ele>103.79999999999998</ele><time>2026-04-25T04:24:06.999Z</time></trkpt><trkpt lat="45.85620855365135" lon="12.225370114738643"><ele>105.39999999999999</ele><time>2026-04-25T04:24:08.999Z</time></trkpt><trkpt lat="45.85609252259814" lon="12.225354713735141"><ele>107.0</ele><time>2026-04-25T04:24:10.999Z</time></trkpt><trkpt lat="45.85599405269731" lon="12.22529231123297"><ele>106.99999999999999</ele><time>2026-04-25T04:24:12.998Z</time></trkpt><trkpt lat="45.85595884459459" lon="12.225154137162153"><ele>107.0</ele><time>2026-04-25T04:24:14.998Z</time></trkpt><trkpt lat="45.85596263033766" lon="12.225033955104271"><ele>107.0</ele><time>2026-04-25T04:24:16.998Z</time></trkpt><trkpt lat="45.85597371644402" lon="12.224921062423594"><ele>107.0</ele><time>2026-04-25T04:24:18.998Z</time></trkpt><trkpt lat="45.85598830519175" lon="12.224816342815247"><ele>106.99999999999999</ele><time>2026-04-25T04:24:20.998Z</time></trkpt><trkpt lat="45.85600331307319" lon="12.224705712087523"><ele>107.0</ele><time>2026-04-25T04:24:22.998Z</time></trkpt><trkpt lat="45.85600175505376" lon="12.224590020908972"><ele>108.49999999999999</ele><time>2026-04-25T04:24:24.998Z</time></trkpt><trkpt lat="45.85603060085391" lon="12.224490275425696"><ele>110.0</ele><time>2026-04-25T04:24:26.998Z</time></trkpt><trkpt lat="45.85603045561427" lon="12.22437586543927"><ele>111.5</ele><time>2026-04-25T04:24:28.998Z</time></trkpt><trkpt lat="45.856058674674316" lon="12.224268129519553"><ele>113.0</ele><time>2026-04-25T04:24:30.998Z</time></trkpt><trkpt lat="45.85607380920574" lon="12.224157875902693"><ele>114.49999999999999</ele><time>2026-04-25T04:24:32.998Z</time></trkpt><trkpt lat="45.856091459841416" lon="12.224060189616283"><ele>116.0</ele><time>2026-04-25T04:24:34.998Z</time></trkpt><trkpt lat="45.85610884438439" lon="12.223961873544162"><ele>116.14285714285717</ele><time>2026-04-25T04:24:36.998Z</time></trkpt><trkpt lat="45.85612793125119" lon="12.223864735190622"><ele>116.28571428571429</ele><time>2026-04-25T04:24:38.998Z</time></trkpt><trkpt lat="45.8561504647585" lon="12.22377603766066"><ele>116.42857142857144</ele><time>2026-04-25T04:24:40.998Z</time></trkpt><trkpt lat="45.85617698177841" lon="12.223690096652328"><ele>116.57142857142858</ele><time>2026-04-25T04:24:42.998Z</time></trkpt><trkpt lat="45.85619264165718" lon="12.223598655062705"><ele>116.71428571428572</ele><time>2026-04-25T04:24:44.998Z</time></trkpt><trkpt lat="45.85623801122647" lon="12.223532769950598"><ele>116.85714285714286</ele><time>2026-04-25T04:24:46.998Z</time></trkpt><trkpt lat="45.856271932936686" lon="12.22342325913229"><ele>117.0</ele><time>2026-04-25T04:24:50Z</time></trkpt><trkpt lat="45.85632483205294" lon="12.223341754877033"><ele>117.0</ele><time>2026-04-25T04:24:53Z</time></trkpt><trkpt lat="45.856357763353834" lon="12.223239389580563"><ele>117.00000000000001</ele><time>2026-04-25T04:24:56Z</time></trkpt><trkpt lat="45.85640791312687" lon="12.223161696808253"><ele>117.0</ele><time>2026-04-25T04:24:59Z</time></trkpt><trkpt lat="45.85644488098754" lon="12.223084310457848"><ele>117.0</ele><time>2026-04-25T04:25:02Z</time></trkpt><trkpt lat="45.856489347603016" lon="12.222995002963556"><ele>117.00000000000001</ele><time>2026-04-25T04:25:05.999Z</time></trkpt><trkpt lat="45.85653669522876" lon="12.222911997496025"><ele>117.0</ele><time>2026-04-25T04:25:09.999Z</time></trkpt><trkpt lat="45.85658515708124" lon="12.222842656436116"><ele>117.0</ele><time>2026-04-25T04:25:13.999Z</time></trkpt><trkpt lat="45.85663639195872" lon="12.22278840697019"><ele>116.71428571428572</ele><time>2026-04-25T04:25:17.999Z</time></trkpt><trkpt lat="45.85670686650442" lon="12.222731483752794"><ele>116.42857142857144</ele><time>2026-04-25T04:25:21.999Z</time></trkpt><trkpt lat="45.85677498389857" lon="12.222715842236491"><ele>116.14285714285714</ele><time>2026-04-25T04:25:25.999Z</time></trkpt><trkpt lat="45.85684064507731" lon="12.222710586130269"><ele>115.85714285714286</ele><time>2026-04-25T04:25:29.999Z</time></trkpt><trkpt lat="45.85691507004054" lon="12.222721756548587"><ele>115.57142857142857</ele><time>2026-04-25T04:25:34.999Z</time></trkpt><trkpt lat="45.85698238135974" lon="12.222714228008554"><ele>115.28571428571428</ele><time>2026-04-25T04:25:38.999Z</time></trkpt><trkpt lat="45.85704579428917" lon="12.22269566780721"><ele>114.99999999999999</ele><time>2026-04-25T04:25:42.999Z</time></trkpt><trkpt lat="45.85710961955981" lon="12.222677247019941"><ele>117.7142857142857</ele><time>2026-04-25T04:25:46.999Z</time></trkpt><trkpt lat="45.857173788468394" lon="12.222669916573707"><ele>120.42857142857142</ele><time>2026-04-25T04:25:50.999Z</time></trkpt><trkpt lat="45.85724886337424" lon="12.222648469154183"><ele>123.14285714285714</ele><time>2026-04-25T04:25:55.999Z</time></trkpt><trkpt lat="45.85731509061343" lon="12.22262583476346"><ele>125.85714285714285</ele><time>2026-04-25T04:25:59.999Z</time></trkpt><trkpt lat="45.85737452307702" lon="12.222565580872098"><ele>128.57142857142856</ele><time>2026-04-25T04:26:03.999Z</time></trkpt><trkpt lat="45.85741791253374" lon="12.222463822274229"><ele>131.28571428571428</ele><time>2026-04-25T04:26:07.998Z</time></trkpt><trkpt lat="45.85744240110048" lon="12.222374210379456"><ele>134.0</ele><time>2026-04-25T04:26:10.998Z</time></trkpt><trkpt lat="45.857463914574225" lon="12.22228570418965"><ele>134.0</ele><time>2026-04-25T04:26:13.998Z</time></trkpt><trkpt lat="45.857490582474796" lon="12.222175880683134"><ele>134.0</ele><time>2026-04-25T04:26:17.998Z</time></trkpt><trkpt lat="45.85752759854973" lon="12.222071585131973"><ele>134.0</ele><time>2026-04-25T04:26:21.998Z</time></trkpt><trkpt lat="45.85755195982653" lon="12.221976649342515"><ele>134.0</ele><time>2026-04-25T04:26:25.998Z</time></trkpt><trkpt lat="45.857582315048454" lon="12.221877031370399"><ele>134.0</ele><time>2026-04-25T04:26:29.998Z</time></trkpt><trkpt lat="45.857617767265836" lon="12.221776028675206"><ele>134.0</ele><time>2026-04-25T04:26:33.998Z</time></trkpt><trkpt lat="45.857662387085625" lon="12.221677361242332"><ele>133.85714285714286</ele><time>2026-04-25T04:26:37.998Z</time></trkpt><trkpt lat="45.85771401737407" lon="12.221586916320408"><ele>133.71428571428572</ele><time>2026-04-25T04:26:41.998Z</time></trkpt><trkpt lat="45.85776407387854" lon="12.221528741195414"><ele>133.57142857142856</ele><time>2026-04-25T04:26:44.998Z</time></trkpt><trkpt lat="45.857826138747114" lon="12.22146275861273"><ele>133.42857142857144</ele><time>2026-04-25T04:26:48.998Z</time></trkpt><trkpt lat="45.857883206521976" lon="12.22142357080826"><ele>133.28571428571428</ele><time>2026-04-25T04:26:51.998Z</time></trkpt><trkpt lat="45.857942355891026" lon="12.221392105524966"><ele>133.14285714285714</ele><time>2026-04-25T04:26:55Z</time></trkpt><trkpt lat="45.858024648749954" lon="12.221367834304615"><ele>133.0</ele><time>2026-04-25T04:26:59Z</time></trkpt><trkpt lat="45.85809776722637" lon="12.221333615997588"><ele>133.0</ele><time>2026-04-25T04:27:02Z</time></trkpt><trkpt lat="45.85818451054474" lon="12.221276386256097"><ele>133.0</ele><time>2026-04-25T04:27:05Z</time></trkpt><trkpt lat="45.8582442148863" lon="12.221215196619868"><ele>133.0</ele><time>2026-04-25T04:27:07Z</time></trkpt><trkpt lat="45.85830673142867" lon="12.221138244636158"><ele>133.0</ele><time>2026-04-25T04:27:09Z</time></trkpt><trkpt lat="45.85837386238811" lon="12.22106115663925"><ele>133.0</ele><time>2026-04-25T04:27:11Z</time></trkpt><trkpt lat="45.858444256492525" lon="12.22098640473274"><ele>133.0</ele><time>2026-04-25T04:27:13Z</time></trkpt><trkpt lat="45.85851892915767" lon="12.220901150296706"><ele>133.4</ele><time>2026-04-25T04:27:15Z</time></trkpt><trkpt lat="45.85859583698563" lon="12.22080660426749"><ele>133.8</ele><time>2026-04-25T04:27:17Z</time></trkpt><trkpt lat="45.85867465406224" lon="12.220711968037637"><ele>134.2</ele><time>2026-04-25T04:27:18.999Z</time></trkpt><trkpt lat="45.85876814683618" lon="12.220640529645317"><ele>134.6</ele><time>2026-04-25T04:27:20.999Z</time></trkpt><trkpt lat="45.85884546849106" lon="12.220574258224723"><ele>135.0</ele><time>2026-04-25T04:27:22.999Z</time></trkpt><trkpt lat="45.85892491442468" lon="12.220640704028217"><ele>135.16666666666666</ele><time>2026-04-25T04:27:24.999Z</time></trkpt><trkpt lat="45.85896443376067" lon="12.220757906411947"><ele>135.33333333333334</ele><time>2026-04-25T04:27:26.999Z</time></trkpt><trkpt lat="45.85901973554894" lon="12.220838600621596"><ele>135.5</ele><time>2026-04-25T04:27:28.999Z</time></trkpt><trkpt lat="45.859096648675376" lon="12.22086224858107"><ele>135.66666666666669</ele><time>2026-04-25T04:27:30.999Z</time></trkpt><trkpt lat="45.85918438894864" lon="12.220839904901451"><ele>135.83333333333334</ele><time>2026-04-25T04:27:32.999Z</time></trkpt><trkpt lat="45.859251579136846" lon="12.220743525395202"><ele>136.0</ele><time>2026-04-25T04:27:34.999Z</time></trkpt><trkpt lat="45.859303690709645" lon="12.220640965548315"><ele>136.5</ele><time>2026-04-25T04:27:36.999Z</time></trkpt><trkpt lat="45.85937695970916" lon="12.220565654200273"><ele>137.0</ele><time>2026-04-25T04:27:38.999Z</time></trkpt><trkpt lat="45.8594406435495" lon="12.220473014514027"><ele>137.5</ele><time>2026-04-25T04:27:40.999Z</time></trkpt><trkpt lat="45.8594932843541" lon="12.220368223238742"><ele>138.0</ele><time>2026-04-25T04:27:42.999Z</time></trkpt><trkpt lat="45.859556531870844" lon="12.220278846776255"><ele>138.5</ele><time>2026-04-25T04:27:44.999Z</time></trkpt><trkpt lat="45.85962698245177" lon="12.22020830736962"><ele>139.0</ele><time>2026-04-25T04:27:46.999Z</time></trkpt><trkpt lat="45.85967244278261" lon="12.220112527614303"><ele>139.0</ele><time>2026-04-25T04:27:48.999Z</time></trkpt><trkpt lat="45.85972490819762" lon="12.220043918325763"><ele>139.0</ele><time>2026-04-25T04:27:50.999Z</time></trkpt><trkpt lat="45.8597777487239" lon="12.21998765835864"><ele>139.0</ele><time>2026-04-25T04:27:52.999Z</time></trkpt><trkpt lat="45.859811622396606" lon="12.219910117476838"><ele>139.0</ele><time>2026-04-25T04:27:54.999Z</time></trkpt><trkpt lat="45.85987958114318" lon="12.21983599313467"><ele>139.0</ele><time>2026-04-25T04:27:57.999Z</time></trkpt><trkpt lat="45.85991960115271" lon="12.219756442816285"><ele>139.0</ele><time>2026-04-25T04:28:00.999Z</time></trkpt><trkpt lat="45.859980987137675" lon="12.219713056103906"><ele>139.0</ele><time>2026-04-25T04:28:03.999Z</time></trkpt><trkpt lat="45.86004411418802" lon="12.219661154897313"><ele>141.33333333333334</ele><time>2026-04-25T04:28:06.999Z</time></trkpt><trkpt lat="45.86011705695713" lon="12.219628784635619"><ele>143.66666666666669</ele><time>2026-04-25T04:28:09.999Z</time></trkpt><trkpt lat="45.86019031874252" lon="12.219575115979715"><ele>146.0</ele><time>2026-04-25T04:28:12.999Z</time></trkpt><trkpt lat="45.86025672233287" lon="12.219570229713279"><ele>148.33333333333334</ele><time>2026-04-25T04:28:15.999Z</time></trkpt><trkpt lat="45.86033024591256" lon="12.219545689628227"><ele>150.66666666666666</ele><time>2026-04-25T04:28:18.999Z</time></trkpt><trkpt lat="45.860403541016055" lon="12.21952175976453"><ele>153.0</ele><time>2026-04-25T04:28:21.998Z</time></trkpt><trkpt lat="45.86048075066178" lon="12.219497323323965"><ele>153.0</ele><time>2026-04-25T04:28:24.998Z</time></trkpt><trkpt lat="45.86055391499316" lon="12.219478722523109"><ele>153.0</ele><time>2026-04-25T04:28:27.998Z</time></trkpt><trkpt lat="45.86062597331494" lon="12.219468320206337"><ele>153.0</ele><time>2026-04-25T04:28:30.998Z</time></trkpt><trkpt lat="45.860699715011876" lon="12.219450173704756"><ele>153.0</ele><time>2026-04-25T04:28:33.998Z</time></trkpt><trkpt lat="45.86077195920823" lon="12.219478048608165"><ele>153.0</ele><time>2026-04-25T04:28:36.998Z</time></trkpt><trkpt lat="45.860843868390006" lon="12.219484412130276"><ele>153.0</ele><time>2026-04-25T04:28:39.998Z</time></trkpt><trkpt lat="45.86091194645351" lon="12.219466028570457"><ele>153.0</ele><time>2026-04-25T04:28:42.998Z</time></trkpt><trkpt lat="45.86097731480733" lon="12.219471215152197"><ele>154.0</ele><time>2026-04-25T04:28:45.998Z</time></trkpt><trkpt lat="45.86105336971399" lon="12.219466271717273"><ele>155.0</ele><time>2026-04-25T04:28:49.998Z</time></trkpt><trkpt lat="45.86111783280539" lon="12.219462105525961"><ele>156.0</ele><time>2026-04-25T04:28:52.998Z</time></trkpt><trkpt lat="45.86119680028409" lon="12.219453077428916"><ele>157.0</ele><time>2026-04-25T04:28:55.998Z</time></trkpt><trkpt lat="45.86127404187936" lon="12.219444022949121"><ele>158.0</ele><time>2026-04-25T04:28:58.998Z</time></trkpt><trkpt lat="45.86134545819074" lon="12.2194420036276"><ele>159.0</ele><time>2026-04-25T04:29:02Z</time></trkpt><trkpt lat="45.861417436176026" lon="12.219450475638313"><ele>160.0</ele><time>2026-04-25T04:29:05Z</time></trkpt><trkpt lat="45.861487196944374" lon="12.219465851636505"><ele>160.0</ele><time>2026-04-25T04:29:08Z</time></trkpt><trkpt lat="45.86156069138225" lon="12.219497214996279"><ele>160.0</ele><time>2026-04-25T04:29:12Z</time></trkpt><trkpt lat="45.86159194523058" lon="12.2195898422399"><ele>160.0</ele><time>2026-04-25T04:29:17Z</time></trkpt><trkpt lat="45.86158748866313" lon="12.219716570566613"><ele>160.0</ele><time>2026-04-25T04:29:25Z</time></trkpt><trkpt lat="45.86159317329404" lon="12.21981619046567"><ele>160.0</ele><time>2026-04-25T04:29:27Z</time></trkpt><trkpt lat="45.861633105132455" lon="12.219930265469118"><ele>160.0</ele><time>2026-04-25T04:29:29Z</time></trkpt><trkpt lat="45.861675835538364" lon="12.22005165169142"><ele>161.0</ele><time>2026-04-25T04:29:31Z</time></trkpt><trkpt lat="45.8617198649488" lon="12.220176892704865"><ele>162.0</ele><time>2026-04-25T04:29:33Z</time></trkpt><trkpt lat="45.86176580890241" lon="12.220313018901805"><ele>163.0</ele><time>2026-04-25T04:29:35Z</time></trkpt><trkpt lat="45.86180804168624" lon="12.22044019489292"><ele>164.0</ele><time>2026-04-25T04:29:37Z</time></trkpt><trkpt lat="45.86185930674448" lon="12.220559498961252"><ele>165.0</ele><time>2026-04-25T04:29:39Z</time></trkpt><trkpt lat="45.8619113400737" lon="12.220662173314336"><ele>165.66666666666666</ele><time>2026-04-25T04:29:41Z</time></trkpt><trkpt lat="45.86196578766363" lon="12.220749524594822"><ele>166.33333333333334</ele><time>2026-04-25T04:29:42.999Z</time></trkpt><trkpt lat="45.86201113301221" lon="12.220858375513867"><ele>167.0</ele><time>2026-04-25T04:29:44.999Z</time></trkpt><trkpt lat="45.86206835487188" lon="12.220954771956269"><ele>167.66666666666669</ele><time>2026-04-25T04:29:46.999Z</time></trkpt><trkpt lat="45.86212610511664" lon="12.221052115012625"><ele>168.33333333333334</ele><time>2026-04-25T04:29:48.999Z</time></trkpt><trkpt lat="45.86218224468699" lon="12.221143218477257"><ele>169.0</ele><time>2026-04-25T04:29:50.999Z</time></trkpt><trkpt lat="45.862236141538716" lon="12.221231051208033"><ele>169.0</ele><time>2026-04-25T04:29:52.999Z</time></trkpt><trkpt lat="45.86229715953127" lon="12.22130881481764"><ele>169.0</ele><time>2026-04-25T04:29:55.999Z</time></trkpt><trkpt lat="45.862236214759385" lon="12.22124399220032"><ele>169.0</ele><time>2026-04-25T04:30:02.999Z</time></trkpt><trkpt lat="45.86219550811275" lon="12.22115253147482"><ele>169.0</ele><time>2026-04-25T04:30:04.999Z</time></trkpt><trkpt lat="45.86215108609445" lon="12.221058716176534"><ele>169.0</ele><time>2026-04-25T04:30:06.999Z</time></trkpt><trkpt lat="45.86209666202649" lon="12.220972096429504"><ele>169.0</ele><time>2026-04-25T04:30:08.999Z</time></trkpt><trkpt lat="45.86204029864219" lon="12.2208929261693"><ele>169.0</ele><time>2026-04-25T04:30:10.999Z</time></trkpt><trkpt lat="45.86197005487799" lon="12.220791175032995"><ele>169.0</ele><time>2026-04-25T04:30:13.999Z</time></trkpt><trkpt lat="45.861910932656194" lon="12.220719939941471"><ele>169.0</ele><time>2026-04-25T04:30:15.999Z</time></trkpt><trkpt lat="45.86186591523044" lon="12.220619755293207"><ele>169.0</ele><time>2026-04-25T04:30:17.999Z</time></trkpt><trkpt lat="45.861819786209814" lon="12.22051668033105"><ele>169.0</ele><time>2026-04-25T04:30:19.999Z</time></trkpt><trkpt lat="45.86178734439275" lon="12.22041182243019"><ele>169.0</ele><time>2026-04-25T04:30:21.999Z</time></trkpt><trkpt lat="45.86174518241557" lon="12.220299342383314"><ele>168.42857142857144</ele><time>2026-04-25T04:30:23.999Z</time></trkpt><trkpt lat="45.861702348261275" lon="12.220187880672801"><ele>167.85714285714286</ele><time>2026-04-25T04:30:25.999Z</time></trkpt><trkpt lat="45.86166333305147" lon="12.220093644356872"><ele>167.28571428571428</ele><time>2026-04-25T04:30:27.999Z</time></trkpt><trkpt lat="45.86163462984679" lon="12.220001135896677"><ele>166.71428571428572</ele><time>2026-04-25T04:30:29.999Z</time></trkpt><trkpt lat="45.86161178031898" lon="12.219900143853243"><ele>166.14285714285714</ele><time>2026-04-25T04:30:32.999Z</time></trkpt><trkpt lat="45.86159440878162" lon="12.21981084598093"><ele>165.57142857142858</ele><time>2026-04-25T04:30:35.999Z</time></trkpt><trkpt lat="45.861588487213346" lon="12.219715176887814"><ele>165.0</ele><time>2026-04-25T04:30:38.999Z</time></trkpt><trkpt lat="45.86158250246257" lon="12.219623021840249"><ele>165.00000000000003</ele><time>2026-04-25T04:30:41.999Z</time></trkpt><trkpt lat="45.86155654336452" lon="12.219530101682981"><ele>165.0</ele><time>2026-04-25T04:30:47.998Z</time></trkpt><trkpt lat="45.86161509429622" lon="12.219496859578879"><ele>165.0</ele><time>2026-04-25T04:31:02.998Z</time></trkpt><trkpt lat="45.86168304426399" lon="12.219511072795358"><ele>165.0</ele><time>2026-04-25T04:31:14Z</time></trkpt><trkpt lat="45.86174155219253" lon="12.21954757443044"><ele>165.0</ele><time>2026-04-25T04:31:19Z</time></trkpt><trkpt lat="45.86181040733899" lon="12.21956072030693"><ele>165.00000000000003</ele><time>2026-04-25T04:31:23Z</time></trkpt><trkpt lat="45.86187734021626" lon="12.219577016795295"><ele>165.0</ele><time>2026-04-25T04:31:28Z</time></trkpt><trkpt lat="45.861944393157316" lon="12.21959319288492"><ele>165.00000000000003</ele><time>2026-04-25T04:31:38Z</time></trkpt><trkpt lat="45.86201679490766" lon="12.219581566968554"><ele>165.0</ele><time>2026-04-25T04:31:43Z</time></trkpt><trkpt lat="45.86209473546563" lon="12.219596459619648"><ele>165.0</ele><time>2026-04-25T04:31:49Z</time></trkpt><trkpt lat="45.86216041924591" lon="12.219596507441942"><ele>165.0</ele><time>2026-04-25T04:31:53Z</time></trkpt><trkpt lat="45.862229706691366" lon="12.219591386644824"><ele>165.0</ele><time>2026-04-25T04:31:57Z</time></trkpt><trkpt lat="45.862294659696225" lon="12.219590027844479"><ele>165.00000000000003</ele><time>2026-04-25T04:32:01Z</time></trkpt><trkpt lat="45.862375064029756" lon="12.219575747336789"><ele>165.0</ele><time>2026-04-25T04:32:07Z</time></trkpt><trkpt lat="45.862451116739095" lon="12.219574592878075"><ele>165.00000000000003</ele><time>2026-04-25T04:32:12.998Z</time></trkpt><trkpt lat="45.862522995375045" lon="12.219566417965364"><ele>165.0</ele><time>2026-04-25T04:32:16.998Z</time></trkpt><trkpt lat="45.862589286116716" lon="12.219531499197213"><ele>165.0</ele><time>2026-04-25T04:32:20.998Z</time></trkpt><trkpt lat="45.86264586376768" lon="12.219480975359836"><ele>165.0</ele><time>2026-04-25T04:32:25.998Z</time></trkpt><trkpt lat="45.86270496204043" lon="12.219437469653387"><ele>165.0</ele><time>2026-04-25T04:32:29.998Z</time></trkpt><trkpt lat="45.862766404626875" lon="12.219384022588999"><ele>165.00000000000003</ele><time>2026-04-25T04:32:33.998Z</time></trkpt><trkpt lat="45.86283465473749" lon="12.219375711107594"><ele>165.0</ele><time>2026-04-25T04:32:37.998Z</time></trkpt><trkpt lat="45.86291611506659" lon="12.219371837606904"><ele>167.0</ele><time>2026-04-25T04:32:41.998Z</time></trkpt><trkpt lat="45.86299017032785" lon="12.219359035138572"><ele>169.0</ele><time>2026-04-25T04:32:44.998Z</time></trkpt><trkpt lat="45.86306904094006" lon="12.219324358976657"><ele>171.0</ele><time>2026-04-25T04:32:48.998Z</time></trkpt><trkpt lat="45.863139651409945" lon="12.219300813241162"><ele>173.0</ele><time>2026-04-25T04:32:51.998Z</time></trkpt><trkpt lat="45.86321566324792" lon="12.219299958277965"><ele>175.0</ele><time>2026-04-25T04:32:54.998Z</time></trkpt><trkpt lat="45.863297907633324" lon="12.21928847980119"><ele>177.0</ele><time>2026-04-25T04:32:58.998Z</time></trkpt><trkpt lat="45.86336256503523" lon="12.21927020368491"><ele>177.0</ele><time>2026-04-25T04:33:01.998Z</time></trkpt><trkpt lat="45.863440533633316" lon="12.21926939069892"><ele>177.0</ele><time>2026-04-25T04:33:06.998Z</time></trkpt><trkpt lat="45.86350613366147" lon="12.21926924037931"><ele>177.0</ele><time>2026-04-25T04:33:12Z</time></trkpt><trkpt lat="45.86357339811116" lon="12.219283249992536"><ele>177.0</ele><time>2026-04-25T04:33:17Z</time></trkpt><trkpt lat="45.863645453030784" lon="12.219284315306334"><ele>177.0</ele><time>2026-04-25T04:33:22Z</time></trkpt><trkpt lat="45.863715992007236" lon="12.219293129654735"><ele>177.0</ele><time>2026-04-25T04:33:26Z</time></trkpt><trkpt lat="45.863787630269734" lon="12.219279251485222"><ele>177.0</ele><time>2026-04-25T04:33:30Z</time></trkpt><trkpt lat="45.86387060603617" lon="12.21926839247267"><ele>178.85714285714286</ele><time>2026-04-25T04:33:34Z</time></trkpt><trkpt lat="45.86394804878241" lon="12.219271933563562"><ele>180.7142857142857</ele><time>2026-04-25T04:33:37.999Z</time></trkpt><trkpt lat="45.864018374157844" lon="12.21925876177877"><ele>182.57142857142856</ele><time>2026-04-25T04:33:41.999Z</time></trkpt><trkpt lat="45.86409669359497" lon="12.219254310283057"><ele>184.42857142857144</ele><time>2026-04-25T04:33:45.999Z</time></trkpt><trkpt lat="45.8641783037442" lon="12.219247363235212"><ele>186.28571428571428</ele><time>2026-04-25T04:33:49.999Z</time></trkpt><trkpt lat="45.86424689573695" lon="12.219250173534766"><ele>188.14285714285714</ele><time>2026-04-25T04:33:52.999Z</time></trkpt><trkpt lat="45.86431412407574" lon="12.21925076130867"><ele>190.0</ele><time>2026-04-25T04:33:56.999Z</time></trkpt><trkpt lat="45.86439510238966" lon="12.219235529840667"><ele>191.42857142857144</ele><time>2026-04-25T04:34:00.999Z</time></trkpt><trkpt lat="45.86446874071627" lon="12.219226849211317"><ele>192.85714285714286</ele><time>2026-04-25T04:34:04.999Z</time></trkpt><trkpt lat="45.86453392502964" lon="12.219225774387139"><ele>194.28571428571428</ele><time>2026-04-25T04:34:08.999Z</time></trkpt><trkpt lat="45.86459638063182" lon="12.219212522116868"><ele>195.71428571428572</ele><time>2026-04-25T04:34:12.999Z</time></trkpt><trkpt lat="45.86466721254515" lon="12.219215247904556"><ele>197.14285714285714</ele><time>2026-04-25T04:34:16.999Z</time></trkpt><trkpt lat="45.86473264917187" lon="12.219162668173453"><ele>198.57142857142858</ele><time>2026-04-25T04:34:20.999Z</time></trkpt><trkpt lat="45.86478550722364" lon="12.21906584662757"><ele>200.0</ele><time>2026-04-25T04:34:24.999Z</time></trkpt><trkpt lat="45.86482268545912" lon="12.218964758412827"><ele>200.00000000000003</ele><time>2026-04-25T04:34:28.999Z</time></trkpt><trkpt lat="45.86487044429721" lon="12.218893711938227"><ele>200.0</ele><time>2026-04-25T04:34:32.999Z</time></trkpt><trkpt lat="45.86492215839127" lon="12.218831834169345"><ele>200.0</ele><time>2026-04-25T04:34:36.998Z</time></trkpt><trkpt lat="45.86499008240528" lon="12.218792208282883"><ele>200.0</ele><time>2026-04-25T04:34:41.998Z</time></trkpt><trkpt lat="45.86505055381446" lon="12.218758423366229"><ele>200.0</ele><time>2026-04-25T04:34:45.998Z</time></trkpt><trkpt lat="45.86511377572056" lon="12.218760939058633"><ele>200.00000000000003</ele><time>2026-04-25T04:34:49.998Z</time></trkpt><trkpt lat="45.86517841897342" lon="12.21878192229569"><ele>200.0</ele><time>2026-04-25T04:34:53.998Z</time></trkpt><trkpt lat="45.8652477191136" lon="12.218785235794694"><ele>202.50000000000003</ele><time>2026-04-25T04:34:57.998Z</time></trkpt><trkpt lat="45.865329672557735" lon="12.218784633769497"><ele>205.0</ele><time>2026-04-25T04:35:01.998Z</time></trkpt><trkpt lat="45.865415116319724" lon="12.218774199667687"><ele>207.5</ele><time>2026-04-25T04:35:05.998Z</time></trkpt><trkpt lat="45.86549151964811" lon="12.218765087087741"><ele>210.0</ele><time>2026-04-25T04:35:09.998Z</time></trkpt><trkpt lat="45.8655636379115" lon="12.218749770961862"><ele>212.50000000000003</ele><time>2026-04-25T04:35:13.998Z</time></trkpt><trkpt lat="45.865638418101476" lon="12.218736707018014"><ele>215.0</ele><time>2026-04-25T04:35:19Z</time></trkpt><trkpt lat="45.86569936032933" lon="12.218705473708635"><ele>215.0</ele><time>2026-04-25T04:35:23Z</time></trkpt><trkpt lat="45.86576091409662" lon="12.218660785421251"><ele>215.0</ele><time>2026-04-25T04:35:27Z</time></trkpt><trkpt lat="45.86582519661478" lon="12.218604625746963"><ele>215.0</ele><time>2026-04-25T04:35:31Z</time></trkpt><trkpt lat="45.86588825689056" lon="12.218537021001515"><ele>215.0</ele><time>2026-04-25T04:35:35Z</time></trkpt><trkpt lat="45.86594396850045" lon="12.218463646792891"><ele>215.0</ele><time>2026-04-25T04:35:39Z</time></trkpt><trkpt lat="45.86599767391263" lon="12.218409578043776"><ele>215.0</ele><time>2026-04-25T04:35:43Z</time></trkpt><trkpt lat="45.86605102670922" lon="12.218336561944817"><ele>215.0</ele><time>2026-04-25T04:35:47Z</time></trkpt><trkpt lat="45.86609215531734" lon="12.218255998678135"><ele>216.42857142857142</ele><time>2026-04-25T04:35:51Z</time></trkpt><trkpt lat="45.866145987785494" lon="12.218183218949152"><ele>217.8571428571429</ele><time>2026-04-25T04:35:55Z</time></trkpt><trkpt lat="45.86619995527354" lon="12.21810399221259"><ele>219.2857142857143</ele><time>2026-04-25T04:35:59Z</time></trkpt><trkpt lat="45.86624938100084" lon="12.218046408374018"><ele>220.71428571428572</ele><time>2026-04-25T04:36:02.999Z</time></trkpt><trkpt lat="45.86631028844678" lon="12.21801094301216"><ele>222.14285714285717</ele><time>2026-04-25T04:36:06.999Z</time></trkpt><trkpt lat="45.86637079336997" lon="12.217967585142373"><ele>223.5714285714286</ele><time>2026-04-25T04:36:10.999Z</time></trkpt><trkpt lat="45.8664437161273" lon="12.217920984471053"><ele>225.00000000000003</ele><time>2026-04-25T04:36:14.999Z</time></trkpt><trkpt lat="45.86651057744154" lon="12.217870124568494"><ele>225.00000000000003</ele><time>2026-04-25T04:36:18.999Z</time></trkpt><trkpt lat="45.86657766438516" lon="12.21780123489264"><ele>225.0</ele><time>2026-04-25T04:36:22.999Z</time></trkpt><trkpt lat="45.86664100693005" lon="12.217717593266325"><ele>225.00000000000003</ele><time>2026-04-25T04:36:26.999Z</time></trkpt><trkpt lat="45.86669959983907" lon="12.2176383230232"><ele>225.00000000000003</ele><time>2026-04-25T04:36:30.999Z</time></trkpt><trkpt lat="45.86674731989677" lon="12.217578785783816"><ele>225.0</ele><time>2026-04-25T04:36:33.999Z</time></trkpt><trkpt lat="45.86679491179646" lon="12.217511964046137"><ele>225.00000000000003</ele><time>2026-04-25T04:36:36.999Z</time></trkpt><trkpt lat="45.86683836180277" lon="12.217444846903676"><ele>225.00000000000003</ele><time>2026-04-25T04:36:39.999Z</time></trkpt><trkpt lat="45.866896038880206" lon="12.217360705115498"><ele>225.42857142857144</ele><time>2026-04-25T04:36:43.999Z</time></trkpt><trkpt lat="45.86693913631303" lon="12.217282491237093"><ele>225.85714285714286</ele><time>2026-04-25T04:36:47.999Z</time></trkpt><trkpt lat="45.86697878860822" lon="12.217198078647034"><ele>226.28571428571428</ele><time>2026-04-25T04:36:50.999Z</time></trkpt><trkpt lat="45.86702533859948" lon="12.217116177884543"><ele>226.71428571428572</ele><time>2026-04-25T04:36:53.999Z</time></trkpt><trkpt lat="45.867065178050375" lon="12.217017645179455"><ele>227.1428571428571</ele><time>2026-04-25T04:36:56.999Z</time></trkpt><trkpt lat="45.86710874964949" lon="12.216948032281966"><ele>227.57142857142856</ele><time>2026-04-25T04:36:58.999Z</time></trkpt><trkpt lat="45.86716687236548" lon="12.21686741021692"><ele>228.0</ele><time>2026-04-25T04:37:01.999Z</time></trkpt><trkpt lat="45.86721434014724" lon="12.216800317197585"><ele>228.0</ele><time>2026-04-25T04:37:03.998Z</time></trkpt><trkpt lat="45.8672589800066" lon="12.21673506601785"><ele>228.0</ele><time>2026-04-25T04:37:05.998Z</time></trkpt><trkpt lat="45.86730645114311" lon="12.216672507937544"><ele>228.0</ele><time>2026-04-25T04:37:07.998Z</time></trkpt><trkpt lat="45.86738077202875" lon="12.21658034062253"><ele>228.0</ele><time>2026-04-25T04:37:10.998Z</time></trkpt><trkpt lat="45.867438642265306" lon="12.216506066415409"><ele>228.0</ele><time>2026-04-25T04:37:13.998Z</time></trkpt><trkpt lat="45.86747759900882" lon="12.216407557471058"><ele>228.0</ele><time>2026-04-25T04:37:16.998Z</time></trkpt><trkpt lat="45.86749182575567" lon="12.216308691904608"><ele>229.33333333333334</ele><time>2026-04-25T04:37:19.998Z</time></trkpt><trkpt lat="45.8674633565827" lon="12.216221917039386"><ele>230.66666666666669</ele><time>2026-04-25T04:37:23Z</time></trkpt><trkpt lat="45.86738928695049" lon="12.216153385864263"><ele>232.0</ele><time>2026-04-25T04:37:26Z</time></trkpt><trkpt lat="45.86732114210749" lon="12.216084893843897"><ele>233.33333333333334</ele><time>2026-04-25T04:37:29Z</time></trkpt><trkpt lat="45.867255413293265" lon="12.216010517027447"><ele>234.66666666666669</ele><time>2026-04-25T04:37:32Z</time></trkpt><trkpt lat="45.86719499346812" lon="12.215922010900863"><ele>236.0</ele><time>2026-04-25T04:37:35Z</time></trkpt><trkpt lat="45.86716144847259" lon="12.21580388960891"><ele>236.0</ele><time>2026-04-25T04:37:38Z</time></trkpt><trkpt lat="45.867179146450944" lon="12.215677976898355"><ele>236.00000000000003</ele><time>2026-04-25T04:37:41Z</time></trkpt><trkpt lat="45.86716057163952" lon="12.215477602574653"><ele>236.00000000000003</ele><time>2026-04-25T04:37:44Z</time></trkpt><trkpt lat="45.86721378592108" lon="12.215410372881571"><ele>236.0</ele><time>2026-04-25T04:37:48Z</time></trkpt><trkpt lat="45.86727315131335" lon="12.21533163875993"><ele>236.0</ele><time>2026-04-25T04:37:51Z</time></trkpt><trkpt lat="45.867330327632594" lon="12.21523753639172"><ele>236.4</ele><time>2026-04-25T04:37:53Z</time></trkpt><trkpt lat="45.86737381887967" lon="12.215123939231518"><ele>236.8</ele><time>2026-04-25T04:37:55Z</time></trkpt><trkpt lat="45.86743876720408" lon="12.21501413934749"><ele>237.20000000000002</ele><time>2026-04-25T04:37:57Z</time></trkpt><trkpt lat="45.86750547868561" lon="12.214889904358628"><ele>237.60000000000002</ele><time>2026-04-25T04:37:59Z</time></trkpt><trkpt lat="45.86754263596137" lon="12.214726811945546"><ele>238.0</ele><time>2026-04-25T04:38:01Z</time></trkpt><trkpt lat="45.86758969786337" lon="12.214556971688102"><ele>237.14285714285714</ele><time>2026-04-25T04:38:03Z</time></trkpt><trkpt lat="45.867604481374144" lon="12.214468918738335"><ele>236.28571428571428</ele><time>2026-04-25T04:38:04Z</time></trkpt><trkpt lat="45.86763423324989" lon="12.214378242768174"><ele>235.42857142857144</ele><time>2026-04-25T04:38:05Z</time></trkpt><trkpt lat="45.86765962539308" lon="12.214283376120937"><ele>234.57142857142858</ele><time>2026-04-25T04:38:06Z</time></trkpt><trkpt lat="45.867689630519074" lon="12.214198315856782"><ele>233.71428571428572</ele><time>2026-04-25T04:38:07Z</time></trkpt><trkpt lat="45.867717444596515" lon="12.21409402996812"><ele>232.8571428571429</ele><time>2026-04-25T04:38:08Z</time></trkpt><trkpt lat="45.867760248629025" lon="12.21399340246622"><ele>232.00000000000003</ele><time>2026-04-25T04:38:09Z</time></trkpt><trkpt lat="45.867799537463846" lon="12.213887470655946"><ele>230.71428571428575</ele><time>2026-04-25T04:38:10Z</time></trkpt><trkpt lat="45.867850411842035" lon="12.213808055320413"><ele>229.42857142857144</ele><time>2026-04-25T04:38:11Z</time></trkpt><trkpt lat="45.867893428202734" lon="12.21371313973459"><ele>228.14285714285717</ele><time>2026-04-25T04:38:12Z</time></trkpt><trkpt lat="45.8679360318332" lon="12.2136382632978"><ele>226.8571428571429</ele><time>2026-04-25T04:38:13Z</time></trkpt><trkpt lat="45.86798898949341" lon="12.213562039968767"><ele>225.57142857142856</ele><time>2026-04-25T04:38:14Z</time></trkpt><trkpt lat="45.86804594031017" lon="12.213488878668299"><ele>224.28571428571428</ele><time>2026-04-25T04:38:15Z</time></trkpt><trkpt lat="45.86809892982142" lon="12.213423624032938"><ele>223.0</ele><time>2026-04-25T04:38:16Z</time></trkpt><trkpt lat="45.868151299163344" lon="12.21335913311247"><ele>222.99999999999997</ele><time>2026-04-25T04:38:17Z</time></trkpt><trkpt lat="45.86820439995051" lon="12.213293741445833"><ele>223.0</ele><time>2026-04-25T04:38:18Z</time></trkpt><trkpt lat="45.86825606505466" lon="12.213230117755277"><ele>223.0</ele><time>2026-04-25T04:38:19Z</time></trkpt><trkpt lat="45.86830440212321" lon="12.21317041479724"><ele>223.0</ele><time>2026-04-25T04:38:20Z</time></trkpt><trkpt lat="45.86835470831528" lon="12.213108108962459"><ele>222.99999999999997</ele><time>2026-04-25T04:38:21Z</time></trkpt><trkpt lat="45.86845079709882" lon="12.212988786675222"><ele>223.0</ele><time>2026-04-25T04:38:23Z</time></trkpt><trkpt lat="45.868530857150745" lon="12.21285550619975"><ele>225.4</ele><time>2026-04-25T04:38:24.999Z</time></trkpt><trkpt lat="45.868622616120675" lon="12.212735879451754"><ele>227.8</ele><time>2026-04-25T04:38:26.999Z</time></trkpt><trkpt lat="45.86867858653659" lon="12.21269116585033"><ele>230.2</ele><time>2026-04-25T04:38:27.999Z</time></trkpt><trkpt lat="45.86875169119063" lon="12.2125660841314"><ele>232.6</ele><time>2026-04-25T04:38:29.999Z</time></trkpt><trkpt lat="45.8688329883684" lon="12.21246370843478"><ele>235.0</ele><time>2026-04-25T04:38:31.999Z</time></trkpt><trkpt lat="45.86891001622922" lon="12.21235827179803"><ele>234.2</ele><time>2026-04-25T04:38:33.999Z</time></trkpt><trkpt lat="45.86899571612961" lon="12.21227630306062"><ele>233.4</ele><time>2026-04-25T04:38:35.999Z</time></trkpt><trkpt lat="45.869060970715516" lon="12.212158810305436"><ele>232.60000000000002</ele><time>2026-04-25T04:38:37.999Z</time></trkpt><trkpt lat="45.86913466425976" lon="12.212067073306546"><ele>231.8</ele><time>2026-04-25T04:38:39.999Z</time></trkpt><trkpt lat="45.869203754033684" lon="12.211978975310588"><ele>231.0</ele><time>2026-04-25T04:38:41.999Z</time></trkpt><trkpt lat="45.86926736118023" lon="12.211913994802057"><ele>232.42857142857144</ele><time>2026-04-25T04:38:43.999Z</time></trkpt><trkpt lat="45.869331576978844" lon="12.211899719333218"><ele>233.85714285714286</ele><time>2026-04-25T04:38:45.999Z</time></trkpt><trkpt lat="45.86940072645613" lon="12.211889157229898"><ele>235.28571428571428</ele><time>2026-04-25T04:38:48.999Z</time></trkpt><trkpt lat="45.869398921688735" lon="12.2117750747348"><ele>236.71428571428572</ele><time>2026-04-25T04:38:49.999Z</time></trkpt><trkpt lat="45.86945196970508" lon="12.211725810427556"><ele>238.14285714285717</ele><time>2026-04-25T04:38:51.999Z</time></trkpt><trkpt lat="45.869524442097635" lon="12.21170415412609"><ele>239.57142857142858</ele><time>2026-04-25T04:38:53.999Z</time></trkpt><trkpt lat="45.86958699808307" lon="12.211655780595216"><ele>241.0</ele><time>2026-04-25T04:38:55.999Z</time></trkpt><trkpt lat="45.86965789985252" lon="12.211624747384874"><ele>241.0</ele><time>2026-04-25T04:38:57.999Z</time></trkpt><trkpt lat="45.86973567679419" lon="12.211581222118818"><ele>241.00000000000003</ele><time>2026-04-25T04:38:59.999Z</time></trkpt><trkpt lat="45.86982821183744" lon="12.211587130417199"><ele>241.00000000000003</ele><time>2026-04-25T04:39:01.999Z</time></trkpt><trkpt lat="45.86992355023946" lon="12.211573671615973"><ele>241.0</ele><time>2026-04-25T04:39:03.999Z</time></trkpt><trkpt lat="45.87002164534374" lon="12.211564926952192"><ele>241.0</ele><time>2026-04-25T04:39:05.999Z</time></trkpt><trkpt lat="45.870126179352056" lon="12.21154668019136"><ele>241.8</ele><time>2026-04-25T04:39:07.999Z</time></trkpt><trkpt lat="45.87023422449258" lon="12.211520729191129"><ele>242.60000000000002</ele><time>2026-04-25T04:39:09.999Z</time></trkpt><trkpt lat="45.870343372631496" lon="12.211494021741125"><ele>243.4</ele><time>2026-04-25T04:39:11.999Z</time></trkpt><trkpt lat="45.87045510615933" lon="12.211466372979581"><ele>244.2</ele><time>2026-04-25T04:39:13.999Z</time></trkpt><trkpt lat="45.870559379081" lon="12.211438218884018"><ele>245.0</ele><time>2026-04-25T04:39:15.999Z</time></trkpt><trkpt lat="45.870670994744906" lon="12.211440537317305"><ele>245.00000000000003</ele><time>2026-04-25T04:39:17.999Z</time></trkpt><trkpt lat="45.870785750694886" lon="12.211390305795852"><ele>245.0</ele><time>2026-04-25T04:39:19.999Z</time></trkpt><trkpt lat="45.87083499331217" lon="12.211329833556551"><ele>245.0</ele><time>2026-04-25T04:39:20.999Z</time></trkpt><trkpt lat="45.87087099063207" lon="12.211247718917422"><ele>245.0</ele><time>2026-04-25T04:39:21.999Z</time></trkpt><trkpt lat="45.87090519296827" lon="12.211161548028297"><ele>245.00000000000003</ele><time>2026-04-25T04:39:22.998Z</time></trkpt><trkpt lat="45.87095579243441" lon="12.211016862164593"><ele>245.0</ele><time>2026-04-25T04:39:24.998Z</time></trkpt><trkpt lat="45.87101625643404" lon="12.210877918256932"><ele>245.0</ele><time>2026-04-25T04:39:26.998Z</time></trkpt><trkpt lat="45.87108592420944" lon="12.210741460653512"><ele>245.0</ele><time>2026-04-25T04:39:29.001Z</time></trkpt><trkpt lat="45.87115655712246" lon="12.21060239803497"><ele>245.0</ele><time>2026-04-25T04:39:31.001Z</time></trkpt><trkpt lat="45.871225276722924" lon="12.210447942603068"><ele>245.0</ele><time>2026-04-25T04:39:33.001Z</time></trkpt><trkpt lat="45.871276247260774" lon="12.210298032112927"><ele>244.75</ele><time>2026-04-25T04:39:35.001Z</time></trkpt><trkpt lat="45.8712924449863" lon="12.210138580564529"><ele>244.5</ele><time>2026-04-25T04:39:37.001Z</time></trkpt><trkpt lat="45.87124833313592" lon="12.209957853633664"><ele>244.25</ele><time>2026-04-25T04:39:39.001Z</time></trkpt><trkpt lat="45.871189409905185" lon="12.209836016318672"><ele>244.0</ele><time>2026-04-25T04:39:41.001Z</time></trkpt><trkpt lat="45.87112879953276" lon="12.209700290726397"><ele>243.33333333333331</ele><time>2026-04-25T04:39:43.001Z</time></trkpt><trkpt lat="45.87108957359109" lon="12.209620110688418"><ele>242.66666666666666</ele><time>2026-04-25T04:39:45.001Z</time></trkpt><trkpt lat="45.87106195398958" lon="12.209535462454033"><ele>242.0</ele><time>2026-04-25T04:39:47.001Z</time></trkpt><trkpt lat="45.87105176049513" lon="12.20944461631714"><ele>241.33333333333331</ele><time>2026-04-25T04:39:49.001Z</time></trkpt><trkpt lat="45.87105290006541" lon="12.20930421092555"><ele>240.66666666666666</ele><time>2026-04-25T04:39:52.001Z</time></trkpt><trkpt lat="45.87105987619571" lon="12.209175597023096"><ele>240.0</ele><time>2026-04-25T04:39:55Z</time></trkpt><trkpt lat="45.87106259851358" lon="12.209080133950325"><ele>240.16666666666666</ele><time>2026-04-25T04:40:57.998Z</time></trkpt><trkpt lat="45.87105740146424" lon="12.20898616705729"><ele>240.33333333333331</ele><time>2026-04-25T04:41:01.998Z</time></trkpt><trkpt lat="45.871040527251154" lon="12.2088721937407"><ele>240.5</ele><time>2026-04-25T04:41:04.998Z</time></trkpt><trkpt lat="45.87101738260464" lon="12.208785350226634"><ele>240.66666666666666</ele><time>2026-04-25T04:41:06.998Z</time></trkpt><trkpt lat="45.87098547248734" lon="12.208681082020096"><ele>240.83333333333331</ele><time>2026-04-25T04:41:08.998Z</time></trkpt><trkpt lat="45.87094782678478" lon="12.208558390704864"><ele>241.0</ele><time>2026-04-25T04:41:10.998Z</time></trkpt><trkpt lat="45.87090549649798" lon="12.208415751666843"><ele>238.0</ele><time>2026-04-25T04:41:12.998Z</time></trkpt><trkpt lat="45.8708618081422" lon="12.208268536410815"><ele>235.0</ele><time>2026-04-25T04:41:14.998Z</time></trkpt><trkpt lat="45.87081272407716" lon="12.208106195584573"><ele>232.0</ele><time>2026-04-25T04:41:16.998Z</time></trkpt><trkpt lat="45.870764688518705" lon="12.20794782137222"><ele>229.0</ele><time>2026-04-25T04:41:18.998Z</time></trkpt><trkpt lat="45.8707157477805" lon="12.207788709630586"><ele>229.0</ele><time>2026-04-25T04:41:20.998Z</time></trkpt><trkpt lat="45.8706646363266" lon="12.207623829105236"><ele>228.99999999999997</ele><time>2026-04-25T04:41:22.998Z</time></trkpt><trkpt lat="45.870637651834926" lon="12.20753652260965"><ele>228.99999999999997</ele><time>2026-04-25T04:41:23.998Z</time></trkpt><trkpt lat="45.87061181618278" lon="12.207452226740271"><ele>229.0</ele><time>2026-04-25T04:41:24.998Z</time></trkpt><trkpt lat="45.870566964733015" lon="12.207291877608899"><ele>229.0</ele><time>2026-04-25T04:41:26.998Z</time></trkpt><trkpt lat="45.87053100990498" lon="12.207155234478103"><ele>229.0</ele><time>2026-04-25T04:41:28.998Z</time></trkpt><trkpt lat="45.87052213129987" lon="12.207032075692483"><ele>228.99999999999997</ele><time>2026-04-25T04:41:30.998Z</time></trkpt><trkpt lat="45.87054898685726" lon="12.206893529034557"><ele>228.99999999999997</ele><time>2026-04-25T04:41:32.998Z</time></trkpt><trkpt lat="45.87059926971014" lon="12.206736478014959"><ele>229.0</ele><time>2026-04-25T04:41:35Z</time></trkpt><trkpt lat="45.870624712423485" lon="12.206653304779609"><ele>229.0</ele><time>2026-04-25T04:41:36Z</time></trkpt><trkpt lat="45.87067472867509" lon="12.206493957836233"><ele>227.66666666666666</ele><time>2026-04-25T04:41:38Z</time></trkpt><trkpt lat="45.87070226035232" lon="12.206408385633564"><ele>226.33333333333331</ele><time>2026-04-25T04:41:39Z</time></trkpt><trkpt lat="45.87073042437109" lon="12.206320848035913"><ele>225.0</ele><time>2026-04-25T04:41:40Z</time></trkpt><trkpt lat="45.8707567630949" lon="12.206232216301615"><ele>223.66666666666669</ele><time>2026-04-25T04:41:41Z</time></trkpt><trkpt lat="45.87077963094475" lon="12.206144632630112"><ele>222.33333333333334</ele><time>2026-04-25T04:41:42Z</time></trkpt><trkpt lat="45.87081983197784" lon="12.205981699698105"><ele>221.0</ele><time>2026-04-25T04:41:44Z</time></trkpt><trkpt lat="45.8708426389991" lon="12.205792036804052"><ele>221.0</ele><time>2026-04-25T04:41:46Z</time></trkpt><trkpt lat="45.87083329880611" lon="12.205700669002828"><ele>221.00000000000003</ele><time>2026-04-25T04:41:47Z</time></trkpt><trkpt lat="45.870763699162794" lon="12.205529847387396"><ele>221.00000000000003</ele><time>2026-04-25T04:41:49Z</time></trkpt><trkpt lat="45.870699096376136" lon="12.205396454003944"><ele>221.0</ele><time>2026-04-25T04:41:51Z</time></trkpt><trkpt lat="45.870625421981664" lon="12.205272489216036"><ele>221.0</ele><time>2026-04-25T04:41:53Z</time></trkpt><trkpt lat="45.87055275603119" lon="12.205155056409152"><ele>221.8</ele><time>2026-04-25T04:41:55Z</time></trkpt><trkpt lat="45.8704806284845" lon="12.205045221296519"><ele>222.60000000000002</ele><time>2026-04-25T04:41:57Z</time></trkpt><trkpt lat="45.870404026329076" lon="12.204934072220505"><ele>223.4</ele><time>2026-04-25T04:41:59Z</time></trkpt><trkpt lat="45.870325082860056" lon="12.2048237585073"><ele>224.2</ele><time>2026-04-25T04:42:01Z</time></trkpt><trkpt lat="45.87024231943858" lon="12.204717532071534"><ele>225.0</ele><time>2026-04-25T04:42:03Z</time></trkpt><trkpt lat="45.8701560506987" lon="12.20460960093731"><ele>223.75</ele><time>2026-04-25T04:42:05Z</time></trkpt><trkpt lat="45.87007209430874" lon="12.204501549141915"><ele>222.5</ele><time>2026-04-25T04:42:07Z</time></trkpt><trkpt lat="45.86999181439427" lon="12.204390667805338"><ele>221.25</ele><time>2026-04-25T04:42:09Z</time></trkpt><trkpt lat="45.86990043580418" lon="12.204290809715081"><ele>220.0</ele><time>2026-04-25T04:42:10.999Z</time></trkpt><trkpt lat="45.86979131683816" lon="12.204224109299133"><ele>220.0</ele><time>2026-04-25T04:42:12.999Z</time></trkpt><trkpt lat="45.869725551984324" lon="12.204216332003908"><ele>220.0</ele><time>2026-04-25T04:42:13.999Z</time></trkpt><trkpt lat="45.86965896137426" lon="12.204230593106098"><ele>220.0</ele><time>2026-04-25T04:42:14.999Z</time></trkpt><trkpt lat="45.86954224002913" lon="12.204273561913206"><ele>220.0</ele><time>2026-04-25T04:42:16.999Z</time></trkpt><trkpt lat="45.869438070617605" lon="12.204325704886095"><ele>220.0</ele><time>2026-04-25T04:42:18.999Z</time></trkpt><trkpt lat="45.86933459601908" lon="12.204391800180964"><ele>220.8</ele><time>2026-04-25T04:42:20.999Z</time></trkpt><trkpt lat="45.869236368548584" lon="12.204463382147681"><ele>221.6</ele><time>2026-04-25T04:42:22.999Z</time></trkpt><trkpt lat="45.869144813935854" lon="12.20452589205505"><ele>222.39999999999998</ele><time>2026-04-25T04:42:24.999Z</time></trkpt><trkpt lat="45.86905835358456" lon="12.204599717526598"><ele>223.2</ele><time>2026-04-25T04:42:26.999Z</time></trkpt><trkpt lat="45.86897199970586" lon="12.2046582450282"><ele>224.0</ele><time>2026-04-25T04:42:28.999Z</time></trkpt><trkpt lat="45.86888201418669" lon="12.204710309945973"><ele>224.0</ele><time>2026-04-25T04:42:30.999Z</time></trkpt><trkpt lat="45.86879547169965" lon="12.204774459520273"><ele>223.99999999999997</ele><time>2026-04-25T04:42:32.999Z</time></trkpt><trkpt lat="45.86870018545201" lon="12.204798550235623"><ele>223.99999999999997</ele><time>2026-04-25T04:42:34.999Z</time></trkpt><trkpt lat="45.86860672813694" lon="12.204809678243116"><ele>224.0</ele><time>2026-04-25T04:42:36.999Z</time></trkpt><trkpt lat="45.868522126443686" lon="12.204787040534692"><ele>224.0</ele><time>2026-04-25T04:42:38.999Z</time></trkpt><trkpt lat="45.86845481584511" lon="12.20472492336259"><ele>222.33333333333334</ele><time>2026-04-25T04:42:40.999Z</time></trkpt><trkpt lat="45.86841753351642" lon="12.2046276692162"><ele>220.66666666666669</ele><time>2026-04-25T04:42:42.999Z</time></trkpt><trkpt lat="45.86839681653399" lon="12.204512624283051"><ele>219.0</ele><time>2026-04-25T04:42:44.999Z</time></trkpt><trkpt lat="45.86837905605397" lon="12.204349781100072"><ele>217.33333333333331</ele><time>2026-04-25T04:42:46.999Z</time></trkpt><trkpt lat="45.86836942506459" lon="12.20425593629227"><ele>215.66666666666666</ele><time>2026-04-25T04:42:47.999Z</time></trkpt><trkpt lat="45.8683596425719" lon="12.20415471820754"><ele>214.0</ele><time>2026-04-25T04:42:48.999Z</time></trkpt><trkpt lat="45.868351937550074" lon="12.204042995547395"><ele>212.99999999999997</ele><time>2026-04-25T04:42:49.999Z</time></trkpt><trkpt lat="45.86834831310031" lon="12.203933340261786"><ele>212.0</ele><time>2026-04-25T04:42:50.999Z</time></trkpt><trkpt lat="45.8683553790396" lon="12.20383133349806"><ele>211.0</ele><time>2026-04-25T04:42:51.999Z</time></trkpt><trkpt lat="45.868367664380585" lon="12.203723445587617"><ele>210.0</ele><time>2026-04-25T04:42:52.999Z</time></trkpt><trkpt lat="45.86838246008784" lon="12.203608453729496"><ele>208.99999999999997</ele><time>2026-04-25T04:42:53.999Z</time></trkpt><trkpt lat="45.86839694339523" lon="12.203495889905934"><ele>208.0</ele><time>2026-04-25T04:42:54.999Z</time></trkpt><trkpt lat="45.86841142306292" lon="12.203386802382795"><ele>208.0</ele><time>2026-04-25T04:42:55.999Z</time></trkpt><trkpt lat="45.86842550162168" lon="12.20328675620325"><ele>208.0</ele><time>2026-04-25T04:42:56.999Z</time></trkpt><trkpt lat="45.868439305408906" lon="12.203188662619329"><ele>208.0</ele><time>2026-04-25T04:42:57.999Z</time></trkpt><trkpt lat="45.86845310488677" lon="12.203090599687714"><ele>208.0</ele><time>2026-04-25T04:42:58.999Z</time></trkpt><trkpt lat="45.868468399591784" lon="12.202981911240013"><ele>208.0</ele><time>2026-04-25T04:42:59.999Z</time></trkpt><trkpt lat="45.86848213110566" lon="12.202884331224979"><ele>208.0</ele><time>2026-04-25T04:43:00.999Z</time></trkpt><trkpt lat="45.868496885352016" lon="12.20277948343088"><ele>208.0</ele><time>2026-04-25T04:43:01.999Z</time></trkpt><trkpt lat="45.86851197457272" lon="12.202672255230484"><ele>208.0</ele><time>2026-04-25T04:43:02.999Z</time></trkpt><trkpt lat="45.868527044041954" lon="12.20256516736552"><ele>208.0</ele><time>2026-04-25T04:43:03.999Z</time></trkpt><trkpt lat="45.86854132577226" lon="12.202460207546565"><ele>208.0</ele><time>2026-04-25T04:43:04.998Z</time></trkpt><trkpt lat="45.86855536284446" lon="12.2023507493741"><ele>208.0</ele><time>2026-04-25T04:43:05.998Z</time></trkpt><trkpt lat="45.86856717312278" lon="12.202253229257884"><ele>208.0</ele><time>2026-04-25T04:43:06.998Z</time></trkpt><trkpt lat="45.86857933097434" lon="12.202152839164071"><ele>208.0</ele><time>2026-04-25T04:43:07.998Z</time></trkpt><trkpt lat="45.868592402759184" lon="12.202057108064292"><ele>208.0</ele><time>2026-04-25T04:43:08.998Z</time></trkpt><trkpt lat="45.868606784593446" lon="12.201959710882385"><ele>208.0</ele><time>2026-04-25T04:43:09.998Z</time></trkpt><trkpt lat="45.868620621694525" lon="12.20186653315624"><ele>208.0</ele><time>2026-04-25T04:43:10.998Z</time></trkpt><trkpt lat="45.86864040835204" lon="12.201773972261698"><ele>208.0</ele><time>2026-04-25T04:43:11.998Z</time></trkpt><trkpt lat="45.86866237690968" lon="12.201679377159177"><ele>208.0</ele><time>2026-04-25T04:43:12.998Z</time></trkpt><trkpt lat="45.868686101400186" lon="12.201578625116047"><ele>208.0</ele><time>2026-04-25T04:43:13.998Z</time></trkpt><trkpt lat="45.868709357010246" lon="12.20147555514597"><ele>208.0</ele><time>2026-04-25T04:43:14.998Z</time></trkpt><trkpt lat="45.86872939978823" lon="12.201372220234946"><ele>208.0</ele><time>2026-04-25T04:43:15.998Z</time></trkpt><trkpt lat="45.8687493719948" lon="12.201271924248259"><ele>207.42857142857142</ele><time>2026-04-25T04:43:16.998Z</time></trkpt><trkpt lat="45.86877285912261" lon="12.20116814283996"><ele>206.85714285714286</ele><time>2026-04-25T04:43:17.998Z</time></trkpt><trkpt lat="45.86879574778881" lon="12.201067005817753"><ele>206.28571428571428</ele><time>2026-04-25T04:43:18.998Z</time></trkpt><trkpt lat="45.868820691749164" lon="12.200968855767318"><ele>205.71428571428572</ele><time>2026-04-25T04:43:19.998Z</time></trkpt><trkpt lat="45.86884855321975" lon="12.20087494683283"><ele>205.14285714285717</ele><time>2026-04-25T04:43:20.998Z</time></trkpt><trkpt lat="45.86887854672261" lon="12.200783376778018"><ele>204.57142857142858</ele><time>2026-04-25T04:43:21.998Z</time></trkpt><trkpt lat="45.86891040104656" lon="12.200693930519401"><ele>204.0</ele><time>2026-04-25T04:43:22.998Z</time></trkpt><trkpt lat="45.868945902262745" lon="12.200604704793584"><ele>204.0</ele><time>2026-04-25T04:43:23.998Z</time></trkpt><trkpt lat="45.86898590477508" lon="12.200522220281146"><ele>204.0</ele><time>2026-04-25T04:43:24.998Z</time></trkpt><trkpt lat="45.86902580776505" lon="12.20044620445658"><ele>204.0</ele><time>2026-04-25T04:43:25.998Z</time></trkpt><trkpt lat="45.86907092832923" lon="12.200368790957421"><ele>204.0</ele><time>2026-04-25T04:43:26.998Z</time></trkpt><trkpt lat="45.86912050458551" lon="12.200290277621052"><ele>204.0</ele><time>2026-04-25T04:43:27.998Z</time></trkpt><trkpt lat="45.86917214868405" lon="12.200208489460413"><ele>204.0</ele><time>2026-04-25T04:43:28.998Z</time></trkpt><trkpt lat="45.869221851857155" lon="12.200130139834078"><ele>204.0</ele><time>2026-04-25T04:43:29.998Z</time></trkpt><trkpt lat="45.869270811362966" lon="12.200055894719279"><ele>202.0</ele><time>2026-04-25T04:43:30.998Z</time></trkpt><trkpt lat="45.86932004001828" lon="12.199993379293698"><ele>200.0</ele><time>2026-04-25T04:43:31.998Z</time></trkpt><trkpt lat="45.86937456441469" lon="12.199936314379844"><ele>198.0</ele><time>2026-04-25T04:43:32.998Z</time></trkpt><trkpt lat="45.86947670337581" lon="12.199881763298967"><ele>196.0</ele><time>2026-04-25T04:43:34.998Z</time></trkpt><trkpt lat="45.869544513479" lon="12.199836120633316"><ele>194.0</ele><time>2026-04-25T04:43:36.998Z</time></trkpt><trkpt lat="45.86960640271794" lon="12.199811229237557"><ele>192.0</ele><time>2026-04-25T04:43:38.998Z</time></trkpt><trkpt lat="45.86962247740979" lon="12.19964164152246"><ele>191.0</ele><time>2026-04-25T04:43:41Z</time></trkpt><trkpt lat="45.86961239228796" lon="12.199478996587914"><ele>190.0</ele><time>2026-04-25T04:43:43Z</time></trkpt><trkpt lat="45.869603619899166" lon="12.199303814314376"><ele>189.0</ele><time>2026-04-25T04:43:45Z</time></trkpt><trkpt lat="45.869599345225424" lon="12.19921291352981"><ele>188.0</ele><time>2026-04-25T04:43:46Z</time></trkpt><trkpt lat="45.86959500891738" lon="12.199120702115964"><ele>187.0</ele><time>2026-04-25T04:43:47Z</time></trkpt><trkpt lat="45.86959067310722" lon="12.199028501288739"><ele>186.0</ele><time>2026-04-25T04:43:48Z</time></trkpt><trkpt lat="45.86958577941598" lon="12.198928376246025"><ele>185.57142857142858</ele><time>2026-04-25T04:43:49Z</time></trkpt><trkpt lat="45.869580377645065" lon="12.1988325155451"><ele>185.14285714285714</ele><time>2026-04-25T04:43:50Z</time></trkpt><trkpt lat="45.86957487365808" lon="12.198734840966592"><ele>184.71428571428572</ele><time>2026-04-25T04:43:51Z</time></trkpt><trkpt lat="45.86956816820847" lon="12.198638749460317"><ele>184.28571428571428</ele><time>2026-04-25T04:43:52Z</time></trkpt><trkpt lat="45.86956093667705" lon="12.198539445058014"><ele>183.85714285714286</ele><time>2026-04-25T04:43:53Z</time></trkpt><trkpt lat="45.86955173291028" lon="12.198438487626996"><ele>183.42857142857144</ele><time>2026-04-25T04:43:54Z</time></trkpt><trkpt lat="45.86953736221479" lon="12.198331036802477"><ele>183.0</ele><time>2026-04-25T04:43:55Z</time></trkpt><trkpt lat="45.86951090244541" lon="12.198229577907862"><ele>182.33333333333334</ele><time>2026-04-25T04:43:56Z</time></trkpt><trkpt lat="45.86948026103149" lon="12.198132495197637"><ele>181.66666666666666</ele><time>2026-04-25T04:43:57Z</time></trkpt><trkpt lat="45.86944937205291" lon="12.198039893110145"><ele>181.0</ele><time>2026-04-25T04:43:58Z</time></trkpt><trkpt lat="45.86941731941151" lon="12.197943802428966"><ele>180.33333333333331</ele><time>2026-04-25T04:43:59Z</time></trkpt><trkpt lat="45.86938314292424" lon="12.197846136794519"><ele>179.66666666666666</ele><time>2026-04-25T04:44:00Z</time></trkpt><trkpt lat="45.869352227094886" lon="12.19776123074416"><ele>179.0</ele><time>2026-04-25T04:44:01Z</time></trkpt><trkpt lat="45.86930157854847" lon="12.19762063741444"><ele>180.83333333333331</ele><time>2026-04-25T04:44:03Z</time></trkpt><trkpt lat="45.869269038518574" lon="12.197500476015763"><ele>182.66666666666666</ele><time>2026-04-25T04:44:05Z</time></trkpt><trkpt lat="45.86925502296726" lon="12.19741179605731"><ele>184.5</ele><time>2026-04-25T04:44:07Z</time></trkpt><trkpt lat="45.86913593742214" lon="12.197343480006591"><ele>186.33333333333334</ele><time>2026-04-25T04:44:10Z</time></trkpt><trkpt lat="45.869059147697044" lon="12.197328365781091"><ele>188.16666666666669</ele><time>2026-04-25T04:44:13Z</time></trkpt><trkpt lat="45.868991615491744" lon="12.197315073681702"><ele>190.0</ele><time>2026-04-25T04:44:16Z</time></trkpt><trkpt lat="45.86892249512691" lon="12.197301468986472"><ele>190.0</ele><time>2026-04-25T04:44:19Z</time></trkpt><trkpt lat="45.86885524978302" lon="12.197288233349658"><ele>190.0</ele><time>2026-04-25T04:44:22Z</time></trkpt><trkpt lat="45.86877921477655" lon="12.197311538389068"><ele>190.0</ele><time>2026-04-25T04:44:25Z</time></trkpt><trkpt lat="45.8687071922361" lon="12.197292238729725"><ele>190.0</ele><time>2026-04-25T04:44:27.999Z</time></trkpt><trkpt lat="45.86863813160712" lon="12.197278212997645"><ele>190.0</ele><time>2026-04-25T04:44:30.999Z</time></trkpt><trkpt lat="45.86856334692513" lon="12.197263161674107"><ele>190.0</ele><time>2026-04-25T04:44:33.999Z</time></trkpt><trkpt lat="45.86849551630896" lon="12.197257323662502"><ele>190.0</ele><time>2026-04-25T04:44:36.999Z</time></trkpt><trkpt lat="45.86842797407186" lon="12.197238959331651"><ele>190.5</ele><time>2026-04-25T04:44:39.999Z</time></trkpt><trkpt lat="45.8683563331392" lon="12.197223126060315"><ele>191.0</ele><time>2026-04-25T04:44:42.999Z</time></trkpt><trkpt lat="45.8682801636218" lon="12.197201721352041"><ele>191.5</ele><time>2026-04-25T04:44:45.999Z</time></trkpt><trkpt lat="45.86820472593382" lon="12.19718336686517"><ele>192.0</ele><time>2026-04-25T04:44:48.999Z</time></trkpt><trkpt lat="45.868118127050415" lon="12.197158822917217"><ele>192.49999999999997</ele><time>2026-04-25T04:44:51.999Z</time></trkpt><trkpt lat="45.868024515605455" lon="12.197148324698768"><ele>193.0</ele><time>2026-04-25T04:44:54.999Z</time></trkpt><trkpt lat="45.8679347293616" lon="12.197125005666601"><ele>193.00000000000003</ele><time>2026-04-25T04:44:57.999Z</time></trkpt><trkpt lat="45.867871634611284" lon="12.197108404719293"><ele>193.0</ele><time>2026-04-25T04:44:59.999Z</time></trkpt><trkpt lat="45.86780582295634" lon="12.197098829877937"><ele>193.0</ele><time>2026-04-25T04:45:01.999Z</time></trkpt><trkpt lat="45.86774124678589" lon="12.19708472547655"><ele>193.0</ele><time>2026-04-25T04:45:03.999Z</time></trkpt><trkpt lat="45.86767726705973" lon="12.197075099808911"><ele>193.0</ele><time>2026-04-25T04:45:05.999Z</time></trkpt><trkpt lat="45.86761548150517" lon="12.197057122338228"><ele>193.00000000000003</ele><time>2026-04-25T04:45:07.999Z</time></trkpt><trkpt lat="45.867529781934216" lon="12.19704031411165"><ele>193.0</ele><time>2026-04-25T04:45:10.999Z</time></trkpt><trkpt lat="45.86744500057618" lon="12.197022264789151"><ele>193.33333333333331</ele><time>2026-04-25T04:45:13.999Z</time></trkpt><trkpt lat="45.86736346802905" lon="12.197008676599484"><ele>193.66666666666666</ele><time>2026-04-25T04:45:16.999Z</time></trkpt><trkpt lat="45.86728614302285" lon="12.196988236116061"><ele>194.0</ele><time>2026-04-25T04:45:19.998Z</time></trkpt><trkpt lat="45.867206974073184" lon="12.196971457294264"><ele>194.33333333333331</ele><time>2026-04-25T04:45:22.998Z</time></trkpt><trkpt lat="45.867129704392774" lon="12.196951513500636"><ele>194.66666666666666</ele><time>2026-04-25T04:45:25.998Z</time></trkpt><trkpt lat="45.86704993134598" lon="12.196938457084395"><ele>195.0</ele><time>2026-04-25T04:45:28.998Z</time></trkpt><trkpt lat="45.86697232509391" lon="12.196918371191943"><ele>195.0</ele><time>2026-04-25T04:45:31.998Z</time></trkpt><trkpt lat="45.86689223241664" lon="12.196898599538057"><ele>195.0</ele><time>2026-04-25T04:45:34.998Z</time></trkpt><trkpt lat="45.86680725322195" lon="12.196880665340924"><ele>195.0</ele><time>2026-04-25T04:45:37.998Z</time></trkpt><trkpt lat="45.8667104016872" lon="12.196871088317847"><ele>195.0</ele><time>2026-04-25T04:45:40.998Z</time></trkpt><trkpt lat="45.86663652825687" lon="12.19686637464568"><ele>195.0</ele><time>2026-04-25T04:45:42.998Z</time></trkpt><trkpt lat="45.866550723906514" lon="12.196865310204178"><ele>195.0</ele><time>2026-04-25T04:45:44.998Z</time></trkpt><trkpt lat="45.866463715754634" lon="12.196877705706347"><ele>196.8</ele><time>2026-04-25T04:45:47Z</time></trkpt><trkpt lat="45.86636902450941" lon="12.196898274055027"><ele>198.6</ele><time>2026-04-25T04:45:49Z</time></trkpt><trkpt lat="45.866274341899334" lon="12.19693961615857"><ele>200.39999999999998</ele><time>2026-04-25T04:45:51Z</time></trkpt><trkpt lat="45.86617568376267" lon="12.196982463834173"><ele>202.2</ele><time>2026-04-25T04:45:53Z</time></trkpt><trkpt lat="45.866071908265795" lon="12.197017840666101"><ele>204.0</ele><time>2026-04-25T04:45:55Z</time></trkpt><trkpt lat="45.865964877667075" lon="12.197053378062353"><ele>203.6</ele><time>2026-04-25T04:45:57Z</time></trkpt><trkpt lat="45.86584887712564" lon="12.197060642887136"><ele>203.2</ele><time>2026-04-25T04:45:59Z</time></trkpt><trkpt lat="45.86573606506968" lon="12.197100534585996"><ele>202.79999999999998</ele><time>2026-04-25T04:46:01Z</time></trkpt><trkpt lat="45.865619854353504" lon="12.197138702386331"><ele>202.39999999999998</ele><time>2026-04-25T04:46:03Z</time></trkpt><trkpt lat="45.865557597109195" lon="12.197159149913176"><ele>202.0</ele><time>2026-04-25T04:46:04Z</time></trkpt><trkpt lat="45.86543532116812" lon="12.197199736773582"><ele>201.99999999999997</ele><time>2026-04-25T04:46:06Z</time></trkpt><trkpt lat="45.865372292372555" lon="12.197221528970767"><ele>202.0</ele><time>2026-04-25T04:46:07Z</time></trkpt><trkpt lat="45.86525413647457" lon="12.197266621681388"><ele>202.0</ele><time>2026-04-25T04:46:09Z</time></trkpt><trkpt lat="45.865190382004066" lon="12.19729163262847"><ele>202.0</ele><time>2026-04-25T04:46:10Z</time></trkpt><trkpt lat="45.86512846619835" lon="12.197316131234382"><ele>201.99999999999997</ele><time>2026-04-25T04:46:11Z</time></trkpt><trkpt lat="45.86506470749901" lon="12.197341359009634"><ele>202.0</ele><time>2026-04-25T04:46:12Z</time></trkpt><trkpt lat="45.865000328782706" lon="12.197366832133396"><ele>202.14285714285714</ele><time>2026-04-25T04:46:13Z</time></trkpt><trkpt lat="45.864935019297825" lon="12.197392652216328"><ele>202.28571428571428</ele><time>2026-04-25T04:46:14Z</time></trkpt><trkpt lat="45.864872545721674" lon="12.197414948595267"><ele>202.42857142857144</ele><time>2026-04-25T04:46:15Z</time></trkpt><trkpt lat="45.86481035323916" lon="12.197437144647745"><ele>202.57142857142856</ele><time>2026-04-25T04:46:16Z</time></trkpt><trkpt lat="45.8647456976322" lon="12.197460219782906"><ele>202.71428571428572</ele><time>2026-04-25T04:46:17Z</time></trkpt><trkpt lat="45.864678847078785" lon="12.197484078266125"><ele>202.85714285714286</ele><time>2026-04-25T04:46:18Z</time></trkpt><trkpt lat="45.8646116577298" lon="12.19751084731272"><ele>203.0</ele><time>2026-04-25T04:46:19Z</time></trkpt><trkpt lat="45.86455272499948" lon="12.197559612472746"><ele>203.0</ele><time>2026-04-25T04:46:20Z</time></trkpt><trkpt lat="45.8644892707966" lon="12.197592030647595"><ele>203.0</ele><time>2026-04-25T04:46:21Z</time></trkpt><trkpt lat="45.8644215585448" lon="12.19762827064291"><ele>203.0</ele><time>2026-04-25T04:46:22Z</time></trkpt><trkpt lat="45.86434822588283" lon="12.197630868640426"><ele>203.0</ele><time>2026-04-25T04:46:23Z</time></trkpt><trkpt lat="45.864277974674806" lon="12.197647786886773"><ele>203.0</ele><time>2026-04-25T04:46:24Z</time></trkpt><trkpt lat="45.86420830412822" lon="12.19764517534422"><ele>203.0</ele><time>2026-04-25T04:46:25Z</time></trkpt><trkpt lat="45.864137133793015" lon="12.19761961151595"><ele>203.0</ele><time>2026-04-25T04:46:26Z</time></trkpt><trkpt lat="45.8640696540622" lon="12.197568141701714"><ele>201.50000000000003</ele><time>2026-04-25T04:46:27Z</time></trkpt><trkpt lat="45.86399865138749" lon="12.197514109114122"><ele>200.0</ele><time>2026-04-25T04:46:28Z</time></trkpt><trkpt lat="45.863930811476884" lon="12.197454233875607"><ele>198.5</ele><time>2026-04-25T04:46:29Z</time></trkpt><trkpt lat="45.8638659749319" lon="12.197386352009929"><ele>197.0</ele><time>2026-04-25T04:46:30Z</time></trkpt><trkpt lat="45.86380293914102" lon="12.197314145436739"><ele>195.50000000000003</ele><time>2026-04-25T04:46:31Z</time></trkpt><trkpt lat="45.86374349154881" lon="12.197244558226418"><ele>194.0</ele><time>2026-04-25T04:46:32Z</time></trkpt><trkpt lat="45.863682642600544" lon="12.197171862685662"><ele>194.0</ele><time>2026-04-25T04:46:33Z</time></trkpt><trkpt lat="45.863626153078236" lon="12.197098916238717"><ele>194.0</ele><time>2026-04-25T04:46:34Z</time></trkpt><trkpt lat="45.86357072496029" lon="12.19702583971447"><ele>194.0</ele><time>2026-04-25T04:46:35Z</time></trkpt><trkpt lat="45.86351882740198" lon="12.19695642899604"><ele>194.0</ele><time>2026-04-25T04:46:36Z</time></trkpt><trkpt lat="45.86346880623608" lon="12.196889527844228"><ele>194.0</ele><time>2026-04-25T04:46:37Z</time></trkpt><trkpt lat="45.86341773340002" lon="12.196821220135705"><ele>194.0</ele><time>2026-04-25T04:46:38Z</time></trkpt><trkpt lat="45.863366464704306" lon="12.19675265050254"><ele>194.0</ele><time>2026-04-25T04:46:39Z</time></trkpt><trkpt lat="45.86331386617594" lon="12.196683247694939"><ele>194.33333333333334</ele><time>2026-04-25T04:46:39.999Z</time></trkpt><trkpt lat="45.863257651098195" lon="12.196618701754758"><ele>194.66666666666669</ele><time>2026-04-25T04:46:40.999Z</time></trkpt><trkpt lat="45.86314474375222" lon="12.196517550706012"><ele>195.0</ele><time>2026-04-25T04:46:42.999Z</time></trkpt><trkpt lat="45.863074453102655" lon="12.196493063502672"><ele>195.33333333333331</ele><time>2026-04-25T04:46:43.999Z</time></trkpt><trkpt lat="45.86300267371618" lon="12.196487273643495"><ele>195.66666666666666</ele><time>2026-04-25T04:46:44.999Z</time></trkpt><trkpt lat="45.86293421811052" lon="12.196502138297461"><ele>196.0</ele><time>2026-04-25T04:46:45.999Z</time></trkpt><trkpt lat="45.86280781044167" lon="12.196520154817637"><ele>195.99999999999997</ele><time>2026-04-25T04:46:47.999Z</time></trkpt><trkpt lat="45.8626809323435" lon="12.196553896444618"><ele>196.0</ele><time>2026-04-25T04:46:49.999Z</time></trkpt><trkpt lat="45.86261021804084" lon="12.19658324276366"><ele>196.0</ele><time>2026-04-25T04:46:50.999Z</time></trkpt><trkpt lat="45.86254375779248" lon="12.196618722328246"><ele>196.0</ele><time>2026-04-25T04:46:51.999Z</time></trkpt><trkpt lat="45.862474440484746" lon="12.19665813657885"><ele>195.99999999999997</ele><time>2026-04-25T04:46:52.999Z</time></trkpt><trkpt lat="45.86240919518259" lon="12.19670174364033"><ele>196.0</ele><time>2026-04-25T04:46:53.999Z</time></trkpt><trkpt lat="45.86235028012783" lon="12.196767174931319"><ele>195.66666666666666</ele><time>2026-04-25T04:46:54.999Z</time></trkpt><trkpt lat="45.862282452904374" lon="12.196812314833833"><ele>195.33333333333331</ele><time>2026-04-25T04:46:55.999Z</time></trkpt><trkpt lat="45.86221253425127" lon="12.19685524688484"><ele>195.0</ele><time>2026-04-25T04:46:56.999Z</time></trkpt><trkpt lat="45.862144782846606" lon="12.196910088560633"><ele>194.66666666666669</ele><time>2026-04-25T04:46:57.999Z</time></trkpt><trkpt lat="45.862068911501005" lon="12.196936967384248"><ele>194.33333333333334</ele><time>2026-04-25T04:46:58.999Z</time></trkpt><trkpt lat="45.86199757843303" lon="12.196986276921844"><ele>194.0</ele><time>2026-04-25T04:46:59.999Z</time></trkpt><trkpt lat="45.86192741712693" lon="12.19703477647109"><ele>194.00000000000003</ele><time>2026-04-25T04:47:00.999Z</time></trkpt><trkpt lat="45.86186276120196" lon="12.197098926882846"><ele>194.0</ele><time>2026-04-25T04:47:01.999Z</time></trkpt><trkpt lat="45.861791373722156" lon="12.197151674663255"><ele>194.0</ele><time>2026-04-25T04:47:02.999Z</time></trkpt><trkpt lat="45.86171505582262" lon="12.197181572874701"><ele>194.0</ele><time>2026-04-25T04:47:03.999Z</time></trkpt><trkpt lat="45.86164720678179" lon="12.197228474053766"><ele>194.00000000000003</ele><time>2026-04-25T04:47:04.999Z</time></trkpt><trkpt lat="45.861578255089725" lon="12.197276417099314"><ele>194.0</ele><time>2026-04-25T04:47:05.999Z</time></trkpt><trkpt lat="45.861506360620965" lon="12.197326804065659"><ele>193.66666666666669</ele><time>2026-04-25T04:47:06.999Z</time></trkpt><trkpt lat="45.86144350594375" lon="12.197397174786365"><ele>193.33333333333334</ele><time>2026-04-25T04:47:07.999Z</time></trkpt><trkpt lat="45.86137184537113" lon="12.197441206983719"><ele>193.0</ele><time>2026-04-25T04:47:08.999Z</time></trkpt><trkpt lat="45.86130464908375" lon="12.197489932480213"><ele>192.66666666666669</ele><time>2026-04-25T04:47:09.999Z</time></trkpt><trkpt lat="45.86123507931032" lon="12.19754002084699"><ele>192.33333333333334</ele><time>2026-04-25T04:47:10.999Z</time></trkpt><trkpt lat="45.861168708077" lon="12.197588314137992"><ele>192.0</ele><time>2026-04-25T04:47:11.999Z</time></trkpt><trkpt lat="45.86109966758115" lon="12.197637710986495"><ele>192.0</ele><time>2026-04-25T04:47:12.999Z</time></trkpt><trkpt lat="45.861034555438735" lon="12.197685221950012"><ele>192.0</ele><time>2026-04-25T04:47:13.999Z</time></trkpt><trkpt lat="45.860971192604865" lon="12.197723172638478"><ele>192.0</ele><time>2026-04-25T04:47:14.999Z</time></trkpt><trkpt lat="45.86089755541185" lon="12.197754805120306"><ele>192.0</ele><time>2026-04-25T04:47:15.999Z</time></trkpt><trkpt lat="45.86083460819174" lon="12.197819775262893"><ele>192.0</ele><time>2026-04-25T04:47:16.999Z</time></trkpt><trkpt lat="45.860764014786035" lon="12.197867924881107"><ele>192.0</ele><time>2026-04-25T04:47:17.999Z</time></trkpt><trkpt lat="45.860695608316234" lon="12.197916502404883"><ele>191.5</ele><time>2026-04-25T04:47:18.999Z</time></trkpt><trkpt lat="45.86062879065151" lon="12.197964990404339"><ele>191.0</ele><time>2026-04-25T04:47:19.999Z</time></trkpt><trkpt lat="45.86055597636063" lon="12.19802058021334"><ele>190.5</ele><time>2026-04-25T04:47:20.999Z</time></trkpt><trkpt lat="45.86048947773109" lon="12.19807223673519"><ele>190.0</ele><time>2026-04-25T04:47:21.999Z</time></trkpt><trkpt lat="45.86042113109594" lon="12.198135857886193"><ele>189.5</ele><time>2026-04-25T04:47:22.999Z</time></trkpt><trkpt lat="45.86035205205059" lon="12.19819066784833"><ele>189.0</ele><time>2026-04-25T04:47:23.999Z</time></trkpt><trkpt lat="45.86027580535753" lon="12.19823332681563"><ele>188.66666666666666</ele><time>2026-04-25T04:47:24.999Z</time></trkpt><trkpt lat="45.86020799110669" lon="12.198289977895397"><ele>188.33333333333334</ele><time>2026-04-25T04:47:25.999Z</time></trkpt><trkpt lat="45.860140457100016" lon="12.198346394866398"><ele>188.0</ele><time>2026-04-25T04:47:26.999Z</time></trkpt><trkpt lat="45.860074843047244" lon="12.198401207931859"><ele>187.66666666666669</ele><time>2026-04-25T04:47:27.999Z</time></trkpt><trkpt lat="45.86000756696831" lon="12.198457409428086"><ele>187.33333333333334</ele><time>2026-04-25T04:47:28.999Z</time></trkpt><trkpt lat="45.85994025211579" lon="12.198512382292668"><ele>187.0</ele><time>2026-04-25T04:47:29.999Z</time></trkpt><trkpt lat="45.85987331155177" lon="12.198565049682093"><ele>187.0</ele><time>2026-04-25T04:47:30.999Z</time></trkpt><trkpt lat="45.85980535924698" lon="12.198614794477788"><ele>187.0</ele><time>2026-04-25T04:47:31.999Z</time></trkpt><trkpt lat="45.859738420850434" lon="12.19866232332296"><ele>187.0</ele><time>2026-04-25T04:47:32.999Z</time></trkpt><trkpt lat="45.859671089233856" lon="12.198707511374165"><ele>187.0</ele><time>2026-04-25T04:47:33.998Z</time></trkpt><trkpt lat="45.85960861057986" lon="12.198749442470639"><ele>187.0</ele><time>2026-04-25T04:47:34.998Z</time></trkpt><trkpt lat="45.85954355893286" lon="12.19879008074131"><ele>187.0</ele><time>2026-04-25T04:47:35.998Z</time></trkpt><trkpt lat="45.85947803812472" lon="12.198830112162366"><ele>187.0</ele><time>2026-04-25T04:47:36.998Z</time></trkpt><trkpt lat="45.85942203667877" lon="12.19888362548855"><ele>187.0</ele><time>2026-04-25T04:47:37.998Z</time></trkpt><trkpt lat="45.85935963079017" lon="12.19892024623135"><ele>187.0</ele><time>2026-04-25T04:47:38.998Z</time></trkpt><trkpt lat="45.85930073022679" lon="12.198965145837576"><ele>187.0</ele><time>2026-04-25T04:47:39.998Z</time></trkpt><trkpt lat="45.859241585169855" lon="12.198999399309308"><ele>187.0</ele><time>2026-04-25T04:47:40.998Z</time></trkpt><trkpt lat="45.85917816209544" lon="12.199046800255838"><ele>187.0</ele><time>2026-04-25T04:47:41.998Z</time></trkpt><trkpt lat="45.859116525770425" lon="12.199093941961946"><ele>187.0</ele><time>2026-04-25T04:47:42.998Z</time></trkpt><trkpt lat="45.85900834353527" lon="12.199178581046413"><ele>187.0</ele><time>2026-04-25T04:47:44.998Z</time></trkpt><trkpt lat="45.858901772524746" lon="12.199256913194747"><ele>187.0</ele><time>2026-04-25T04:47:46.998Z</time></trkpt><trkpt lat="45.85881103019716" lon="12.199375825931224"><ele>187.0</ele><time>2026-04-25T04:47:48.998Z</time></trkpt><trkpt lat="45.8587247160579" lon="12.19946812640508"><ele>187.0</ele><time>2026-04-25T04:47:50.998Z</time></trkpt><trkpt lat="45.858639630893975" lon="12.199556271252817"><ele>187.0</ele><time>2026-04-25T04:47:53Z</time></trkpt><trkpt lat="45.85855376533439" lon="12.199623472526893"><ele>187.0</ele><time>2026-04-25T04:47:55Z</time></trkpt><trkpt lat="45.85848138061088" lon="12.19972038607805"><ele>187.0</ele><time>2026-04-25T04:47:57Z</time></trkpt><trkpt lat="45.858406841844015" lon="12.199843953299185"><ele>187.0</ele><time>2026-04-25T04:47:59Z</time></trkpt><trkpt lat="45.85835837118822" lon="12.20001951410894"><ele>187.0</ele><time>2026-04-25T04:48:01Z</time></trkpt><trkpt lat="45.85834841021385" lon="12.20011364099285"><ele>187.33333333333334</ele><time>2026-04-25T04:48:02Z</time></trkpt><trkpt lat="45.85832838523681" lon="12.20030209423777"><ele>187.66666666666669</ele><time>2026-04-25T04:48:04Z</time></trkpt><trkpt lat="45.85830777499924" lon="12.200407768442915"><ele>188.0</ele><time>2026-04-25T04:48:05Z</time></trkpt><trkpt lat="45.858286822525876" lon="12.200511537907262"><ele>188.33333333333334</ele><time>2026-04-25T04:48:05.999Z</time></trkpt><trkpt lat="45.85823935256828" lon="12.200595808947167"><ele>188.66666666666666</ele><time>2026-04-25T04:48:06.999Z</time></trkpt><trkpt lat="45.85820325185292" lon="12.20069638346985"><ele>189.0</ele><time>2026-04-25T04:48:07.999Z</time></trkpt><trkpt lat="45.85816915559806" lon="12.200786101312234"><ele>189.57142857142858</ele><time>2026-04-25T04:48:08.999Z</time></trkpt><trkpt lat="45.858130390517246" lon="12.200882442203056"><ele>190.14285714285714</ele><time>2026-04-25T04:48:09.999Z</time></trkpt><trkpt lat="45.858092003709245" lon="12.200967627983946"><ele>190.71428571428572</ele><time>2026-04-25T04:48:10.999Z</time></trkpt><trkpt lat="45.85806398503853" lon="12.20106604014243"><ele>191.28571428571428</ele><time>2026-04-25T04:48:11.999Z</time></trkpt><trkpt lat="45.85801374184091" lon="12.201148127345935"><ele>191.85714285714286</ele><time>2026-04-25T04:48:12.999Z</time></trkpt><trkpt lat="45.85795780992989" lon="12.201205441413197"><ele>192.42857142857144</ele><time>2026-04-25T04:48:13.999Z</time></trkpt><trkpt lat="45.85791722628705" lon="12.20128839373065"><ele>193.0</ele><time>2026-04-25T04:48:14.999Z</time></trkpt><trkpt lat="45.85785210477427" lon="12.20134971874278"><ele>193.00000000000003</ele><time>2026-04-25T04:48:15.999Z</time></trkpt><trkpt lat="45.85779509049739" lon="12.201403763108672"><ele>193.0</ele><time>2026-04-25T04:48:16.999Z</time></trkpt><trkpt lat="45.85773560410977" lon="12.201447486517623"><ele>193.0</ele><time>2026-04-25T04:48:17.999Z</time></trkpt><trkpt lat="45.85767223819244" lon="12.201494098151054"><ele>193.0</ele><time>2026-04-25T04:48:18.999Z</time></trkpt><trkpt lat="45.857612368544864" lon="12.201535059724034"><ele>193.0</ele><time>2026-04-25T04:48:19.999Z</time></trkpt><trkpt lat="45.85754777244218" lon="12.201575327837965"><ele>193.00000000000003</ele><time>2026-04-25T04:48:20.999Z</time></trkpt><trkpt lat="45.85748292746455" lon="12.201607183197057"><ele>193.0</ele><time>2026-04-25T04:48:21.999Z</time></trkpt><trkpt lat="45.85741758901599" lon="12.201642766039074"><ele>192.2857142857143</ele><time>2026-04-25T04:48:22.999Z</time></trkpt><trkpt lat="45.857352913541334" lon="12.201683871801647"><ele>191.57142857142858</ele><time>2026-04-25T04:48:23.999Z</time></trkpt><trkpt lat="45.85728403685774" lon="12.201716852559231"><ele>190.85714285714286</ele><time>2026-04-25T04:48:24.999Z</time></trkpt><trkpt lat="45.857214238550505" lon="12.201753512852632"><ele>190.14285714285717</ele><time>2026-04-25T04:48:25.999Z</time></trkpt><trkpt lat="45.85715106578986" lon="12.201795536183381"><ele>189.42857142857142</ele><time>2026-04-25T04:48:26.999Z</time></trkpt><trkpt lat="45.857084819745225" lon="12.201834358141681"><ele>188.71428571428572</ele><time>2026-04-25T04:48:27.999Z</time></trkpt><trkpt lat="45.85702083961031" lon="12.201856912657094"><ele>188.0</ele><time>2026-04-25T04:48:28.999Z</time></trkpt><trkpt lat="45.8569254584731" lon="12.201927546851257"><ele>188.0</ele><time>2026-04-25T04:48:30.999Z</time></trkpt><trkpt lat="45.85684977261751" lon="12.201987679440387"><ele>188.0</ele><time>2026-04-25T04:48:32.999Z</time></trkpt><trkpt lat="45.85678280092904" lon="12.202047350556184"><ele>188.0</ele><time>2026-04-25T04:48:34.999Z</time></trkpt><trkpt lat="45.856732195016" lon="12.202110466762349"><ele>188.0</ele><time>2026-04-25T04:48:37.999Z</time></trkpt><trkpt lat="45.856775083668964" lon="12.202028438852983"><ele>188.0</ele><time>2026-04-25T04:48:51.999Z</time></trkpt><trkpt lat="45.85684468918001" lon="12.201964382958598"><ele>188.0</ele><time>2026-04-25T04:48:54.999Z</time></trkpt><trkpt lat="45.856913500759234" lon="12.20190961699519"><ele>188.0</ele><time>2026-04-25T04:48:56.998Z</time></trkpt><trkpt lat="45.8569726100699" lon="12.2018653537256"><ele>188.0</ele><time>2026-04-25T04:48:57.998Z</time></trkpt><trkpt lat="45.85707431415887" lon="12.20179284476008"><ele>188.0</ele><time>2026-04-25T04:48:59.998Z</time></trkpt><trkpt lat="45.857150036973444" lon="12.20174455149737"><ele>188.0</ele><time>2026-04-25T04:49:01.998Z</time></trkpt><trkpt lat="45.85714892857167" lon="12.201572311751402"><ele>188.0</ele><time>2026-04-25T04:49:02.998Z</time></trkpt><trkpt lat="45.8572029394399" lon="12.201469516913042"><ele>186.33333333333331</ele><time>2026-04-25T04:49:04.998Z</time></trkpt><trkpt lat="45.85724462603853" lon="12.201381024807846"><ele>184.66666666666666</ele><time>2026-04-25T04:49:06.998Z</time></trkpt><trkpt lat="45.85728203585488" lon="12.201271951215793"><ele>183.0</ele><time>2026-04-25T04:49:09.998Z</time></trkpt><trkpt lat="45.85727052675157" lon="12.201178495869947"><ele>181.33333333333334</ele><time>2026-04-25T04:49:15.998Z</time></trkpt><trkpt lat="45.85721323999273" lon="12.20111161011579"><ele>179.66666666666669</ele><time>2026-04-25T04:49:25.998Z</time></trkpt><trkpt lat="45.85714520609533" lon="12.201118675182935"><ele>178.0</ele><time>2026-04-25T04:49:27.998Z</time></trkpt><trkpt lat="45.85706961268258" lon="12.201174409374625"><ele>178.0</ele><time>2026-04-25T04:49:29.998Z</time></trkpt><trkpt lat="45.85697344090943" lon="12.201242041384813"><ele>178.0</ele><time>2026-04-25T04:49:31.998Z</time></trkpt><trkpt lat="45.85687121626237" lon="12.201304354284177"><ele>178.0</ele><time>2026-04-25T04:49:33.998Z</time></trkpt><trkpt lat="45.856812217658366" lon="12.201336120275569"><ele>178.0</ele><time>2026-04-25T04:49:34.998Z</time></trkpt><trkpt lat="45.85671016322626" lon="12.201376362735612"><ele>178.0</ele><time>2026-04-25T04:49:36.998Z</time></trkpt><trkpt lat="45.85660156503624" lon="12.201413687002718"><ele>175.2</ele><time>2026-04-25T04:49:38.998Z</time></trkpt><trkpt lat="45.856503232035024" lon="12.20144215256493"><ele>172.4</ele><time>2026-04-25T04:49:40.998Z</time></trkpt><trkpt lat="45.85640628293321" lon="12.201465401553964"><ele>169.6</ele><time>2026-04-25T04:49:42.998Z</time></trkpt><trkpt lat="45.856340025463254" lon="12.201465750223328"><ele>166.79999999999998</ele><time>2026-04-25T04:49:43.998Z</time></trkpt><trkpt lat="45.85624195353782" lon="12.201481116228145"><ele>164.0</ele><time>2026-04-25T04:49:45.998Z</time></trkpt><trkpt lat="45.85613885378694" lon="12.20149267834367"><ele>164.0</ele><time>2026-04-25T04:49:47.998Z</time></trkpt><trkpt lat="45.85605884547088" lon="12.201497308211009"><ele>164.0</ele><time>2026-04-25T04:49:49.998Z</time></trkpt><trkpt lat="45.855984534838676" lon="12.201492048341677"><ele>164.0</ele><time>2026-04-25T04:49:51.997Z</time></trkpt><trkpt lat="45.85589291833661" lon="12.201442993039661"><ele>164.0</ele><time>2026-04-25T04:49:53.997Z</time></trkpt><trkpt lat="45.855841099177326" lon="12.201388911980109"><ele>164.0</ele><time>2026-04-25T04:49:54.997Z</time></trkpt><trkpt lat="45.85579405889675" lon="12.201311826007549"><ele>164.0</ele><time>2026-04-25T04:49:55.997Z</time></trkpt><trkpt lat="45.855748092214306" lon="12.201236668285524"><ele>163.57142857142856</ele><time>2026-04-25T04:49:56.997Z</time></trkpt><trkpt lat="45.855699910629674" lon="12.20115377992372"><ele>163.14285714285714</ele><time>2026-04-25T04:49:58Z</time></trkpt><trkpt lat="45.855661368454165" lon="12.20108206062848"><ele>162.71428571428572</ele><time>2026-04-25T04:49:59Z</time></trkpt><trkpt lat="45.855617997243456" lon="12.201007233432644"><ele>162.28571428571428</ele><time>2026-04-25T04:50:00Z</time></trkpt><trkpt lat="45.85556895811099" lon="12.200947239926297"><ele>161.85714285714286</ele><time>2026-04-25T04:50:01Z</time></trkpt><trkpt lat="45.85551666455271" lon="12.200886659394664"><ele>161.42857142857142</ele><time>2026-04-25T04:50:02Z</time></trkpt><trkpt lat="45.855456948790376" lon="12.200836417003035"><ele>161.0</ele><time>2026-04-25T04:50:03Z</time></trkpt><trkpt lat="45.855396298673845" lon="12.200790871066829"><ele>161.0</ele><time>2026-04-25T04:50:04Z</time></trkpt><trkpt lat="45.85528448551204" lon="12.200713846418878"><ele>161.0</ele><time>2026-04-25T04:50:06Z</time></trkpt><trkpt lat="45.85522102676425" lon="12.2006764905895"><ele>161.0</ele><time>2026-04-25T04:50:07Z</time></trkpt><trkpt lat="45.85511655782102" lon="12.20061355363647"><ele>161.0</ele><time>2026-04-25T04:50:09Z</time></trkpt><trkpt lat="45.855015170279096" lon="12.20059240431691"><ele>161.0</ele><time>2026-04-25T04:50:11Z</time></trkpt><trkpt lat="45.85490314004301" lon="12.200565882993082"><ele>160.33333333333331</ele><time>2026-04-25T04:50:13Z</time></trkpt><trkpt lat="45.854837908854115" lon="12.200555469730421"><ele>159.66666666666666</ele><time>2026-04-25T04:50:14Z</time></trkpt><trkpt lat="45.85476769558587" lon="12.200557482381582"><ele>159.0</ele><time>2026-04-25T04:50:15Z</time></trkpt><trkpt lat="45.85469779284758" lon="12.200565263126673"><ele>158.33333333333334</ele><time>2026-04-25T04:50:16Z</time></trkpt><trkpt lat="45.854634969797914" lon="12.20055728443436"><ele>157.66666666666669</ele><time>2026-04-25T04:50:17Z</time></trkpt><trkpt lat="45.85453057989872" lon="12.200508830648129"><ele>157.0</ele><time>2026-04-25T04:50:19Z</time></trkpt><trkpt lat="45.85445247044417" lon="12.200382707035514"><ele>157.0</ele><time>2026-04-25T04:50:21Z</time></trkpt><trkpt lat="45.854435571826" lon="12.200282993292683"><ele>157.0</ele><time>2026-04-25T04:50:22.999Z</time></trkpt><trkpt lat="45.85438012560462" lon="12.200202143788335"><ele>157.0</ele><time>2026-04-25T04:50:25.999Z</time></trkpt><trkpt lat="45.854344152405446" lon="12.200095195291263"><ele>157.0</ele><time>2026-04-25T04:50:27.999Z</time></trkpt><trkpt lat="45.85429630130603" lon="12.19999962827126"><ele>157.0</ele><time>2026-04-25T04:50:29.999Z</time></trkpt><trkpt lat="45.854250880044056" lon="12.199909531458081"><ele>157.0</ele><time>2026-04-25T04:50:31.999Z</time></trkpt><trkpt lat="45.85419985172551" lon="12.19980377090632"><ele>158.39999999999998</ele><time>2026-04-25T04:50:33.999Z</time></trkpt><trkpt lat="45.85416991617748" lon="12.19967947789329"><ele>159.79999999999998</ele><time>2026-04-25T04:50:35.999Z</time></trkpt><trkpt lat="45.85411745569181" lon="12.199541077686295"><ele>161.2</ele><time>2026-04-25T04:50:37.999Z</time></trkpt><trkpt lat="45.854072267287364" lon="12.199406302723526"><ele>162.6</ele><time>2026-04-25T04:50:39.999Z</time></trkpt><trkpt lat="45.85402893434689" lon="12.199267900269772"><ele>164.0</ele><time>2026-04-25T04:50:41.999Z</time></trkpt><trkpt lat="45.8539980550281" lon="12.199125491099757"><ele>162.2</ele><time>2026-04-25T04:50:43.999Z</time></trkpt><trkpt lat="45.85395434303315" lon="12.198987907099857"><ele>160.39999999999998</ele><time>2026-04-25T04:50:45.999Z</time></trkpt><trkpt lat="45.85389348235484" lon="12.198846460626944"><ele>158.6</ele><time>2026-04-25T04:50:47.999Z</time></trkpt><trkpt lat="45.8538352704321" lon="12.198701397438725"><ele>156.8</ele><time>2026-04-25T04:50:49.999Z</time></trkpt><trkpt lat="45.85379698849312" lon="12.198618060847831"><ele>155.0</ele><time>2026-04-25T04:50:50.999Z</time></trkpt><trkpt lat="45.85375344025076" lon="12.19853354936976"><ele>155.0</ele><time>2026-04-25T04:50:51.999Z</time></trkpt><trkpt lat="45.85371915897566" lon="12.198457251757862"><ele>155.0</ele><time>2026-04-25T04:50:52.999Z</time></trkpt><trkpt lat="45.853675145933146" lon="12.198356914473813"><ele>155.0</ele><time>2026-04-25T04:50:53.999Z</time></trkpt><trkpt lat="45.85362332869368" lon="12.198262812968858"><ele>155.0</ele><time>2026-04-25T04:50:54.999Z</time></trkpt><trkpt lat="45.85358313864336" lon="12.198151082069176"><ele>155.0</ele><time>2026-04-25T04:50:55.999Z</time></trkpt><trkpt lat="45.85353825821125" lon="12.19805223707398"><ele>155.0</ele><time>2026-04-25T04:50:56.999Z</time></trkpt><trkpt lat="45.85350436875013" lon="12.19796060855796"><ele>154.71428571428572</ele><time>2026-04-25T04:50:57.999Z</time></trkpt><trkpt lat="45.85346681548571" lon="12.197882140803245"><ele>154.42857142857142</ele><time>2026-04-25T04:50:58.999Z</time></trkpt><trkpt lat="45.85342006091405" lon="12.197812334311754"><ele>154.14285714285714</ele><time>2026-04-25T04:50:59.999Z</time></trkpt><trkpt lat="45.853363954099656" lon="12.197729190839505"><ele>153.85714285714286</ele><time>2026-04-25T04:51:00.999Z</time></trkpt><trkpt lat="45.85330957294342" lon="12.197650255017576"><ele>153.57142857142858</ele><time>2026-04-25T04:51:01.999Z</time></trkpt><trkpt lat="45.853246047911846" lon="12.197573046592003"><ele>153.28571428571428</ele><time>2026-04-25T04:51:02.999Z</time></trkpt><trkpt lat="45.85320802329101" lon="12.197488605713616"><ele>153.0</ele><time>2026-04-25T04:51:03.999Z</time></trkpt><trkpt lat="45.85316144503542" lon="12.197411986849282"><ele>149.8</ele><time>2026-04-25T04:51:04.999Z</time></trkpt><trkpt lat="45.853081327102046" lon="12.197296067729036"><ele>146.60000000000002</ele><time>2026-04-25T04:51:06.999Z</time></trkpt><trkpt lat="45.85297848431654" lon="12.197237492571366"><ele>143.39999999999998</ele><time>2026-04-25T04:51:08.999Z</time></trkpt><trkpt lat="45.852909799522735" lon="12.19723451599703"><ele>140.2</ele><time>2026-04-25T04:51:09.999Z</time></trkpt><trkpt lat="45.85281351410289" lon="12.197267323679435"><ele>137.0</ele><time>2026-04-25T04:51:11.999Z</time></trkpt><trkpt lat="45.85268706939315" lon="12.197281553507093"><ele>137.4</ele><time>2026-04-25T04:51:13.999Z</time></trkpt><trkpt lat="45.852613483309625" lon="12.197268127812332"><ele>137.79999999999998</ele><time>2026-04-25T04:51:14.999Z</time></trkpt><trkpt lat="45.852551034822014" lon="12.197242394529354"><ele>138.2</ele><time>2026-04-25T04:51:15.998Z</time></trkpt><trkpt lat="45.8524432401249" lon="12.197177171881759"><ele>138.6</ele><time>2026-04-25T04:51:17.998Z</time></trkpt><trkpt lat="45.85233447544964" lon="12.197124846223215"><ele>139.0</ele><time>2026-04-25T04:51:19.998Z</time></trkpt><trkpt lat="45.85222080599888" lon="12.19710164227191"><ele>139.0</ele><time>2026-04-25T04:51:21.998Z</time></trkpt><trkpt lat="45.85211051864535" lon="12.197058547284648"><ele>139.0</ele><time>2026-04-25T04:51:23.998Z</time></trkpt><trkpt lat="45.852013433044505" lon="12.196993990129139"><ele>139.0</ele><time>2026-04-25T04:51:25.998Z</time></trkpt><trkpt lat="45.85195140898677" lon="12.196924476984007"><ele>139.0</ele><time>2026-04-25T04:51:27.998Z</time></trkpt><trkpt lat="45.85191719230287" lon="12.196784955183611"><ele>139.0</ele><time>2026-04-25T04:51:29.998Z</time></trkpt><trkpt lat="45.85188311144665" lon="12.196624051561129"><ele>138.4</ele><time>2026-04-25T04:51:31.998Z</time></trkpt><trkpt lat="45.85185187864341" lon="12.196490223643375"><ele>137.8</ele><time>2026-04-25T04:51:33.998Z</time></trkpt><trkpt lat="45.85178354539987" lon="12.196367394674521"><ele>137.2</ele><time>2026-04-25T04:51:35.998Z</time></trkpt><trkpt lat="45.85172470805995" lon="12.196250489992279"><ele>136.6</ele><time>2026-04-25T04:51:37.998Z</time></trkpt><trkpt lat="45.85168120425321" lon="12.196157559790358"><ele>136.0</ele><time>2026-04-25T04:51:39.998Z</time></trkpt><trkpt lat="45.85163629808407" lon="12.196071444618292"><ele>136.0</ele><time>2026-04-25T04:51:41.998Z</time></trkpt><trkpt lat="45.851599603125145" lon="12.195989743191623"><ele>136.0</ele><time>2026-04-25T04:51:43.998Z</time></trkpt><trkpt lat="45.85154561776137" lon="12.195925112995567"><ele>136.0</ele><time>2026-04-25T04:51:49.998Z</time></trkpt><trkpt lat="45.851500298792516" lon="12.195823002762133"><ele>136.0</ele><time>2026-04-25T04:51:52.998Z</time></trkpt><trkpt lat="45.85143457115891" lon="12.195730794472487"><ele>136.0</ele><time>2026-04-25T04:51:55.998Z</time></trkpt><trkpt lat="45.85137216500656" lon="12.195676450009486"><ele>136.0</ele><time>2026-04-25T04:51:57.998Z</time></trkpt><trkpt lat="45.851288026069334" lon="12.19563023490418"><ele>133.0</ele><time>2026-04-25T04:51:59.998Z</time></trkpt><trkpt lat="45.85122051632989" lon="12.1955943447888"><ele>130.0</ele><time>2026-04-25T04:52:01.998Z</time></trkpt><trkpt lat="45.85114217949851" lon="12.195561388328732"><ele>127.0</ele><time>2026-04-25T04:52:04Z</time></trkpt><trkpt lat="45.8510587861864" lon="12.195563179143278"><ele>124.0</ele><time>2026-04-25T04:52:06Z</time></trkpt><trkpt lat="45.85097718307315" lon="12.195565946755558"><ele>121.00000000000001</ele><time>2026-04-25T04:52:08Z</time></trkpt><trkpt lat="45.850899641504625" lon="12.195584606700345"><ele>118.0</ele><time>2026-04-25T04:52:10Z</time></trkpt><trkpt lat="45.85082988921629" lon="12.195601792181584"><ele>117.85714285714286</ele><time>2026-04-25T04:52:12Z</time></trkpt><trkpt lat="45.850758371196925" lon="12.195637465786744"><ele>117.71428571428572</ele><time>2026-04-25T04:52:16Z</time></trkpt><trkpt lat="45.850687713987654" lon="12.19567542662883"><ele>117.57142857142858</ele><time>2026-04-25T04:52:19Z</time></trkpt><trkpt lat="45.850626092432954" lon="12.195710126685722"><ele>117.42857142857143</ele><time>2026-04-25T04:52:21Z</time></trkpt><trkpt lat="45.8505693890953" lon="12.195755991890904"><ele>117.2857142857143</ele><time>2026-04-25T04:52:23Z</time></trkpt><trkpt lat="45.85050115699598" lon="12.19576201174009"><ele>117.14285714285715</ele><time>2026-04-25T04:53:13.999Z</time></trkpt><trkpt lat="45.850445462698694" lon="12.195702994222396"><ele>117.0</ele><time>2026-04-25T04:54:17Z</time></trkpt><trkpt lat="45.85038176537462" lon="12.195586389964136"><ele>117.0</ele><time>2026-04-25T04:54:49Z</time></trkpt><trkpt lat="45.850344321841675" lon="12.195510080601444"><ele>117.00000000000001</ele><time>2026-04-25T04:54:54Z</time></trkpt><trkpt lat="45.85032787930269" lon="12.195413307033988"><ele>117.0</ele><time>2026-04-25T04:54:58Z</time></trkpt><trkpt lat="45.8503892892431" lon="12.195363299667706"><ele>117.0</ele><time>2026-04-25T04:55:12.999Z</time></trkpt><trkpt lat="45.850470158808456" lon="12.195359336492167"><ele>117.00000000000001</ele><time>2026-04-25T04:55:29.999Z</time></trkpt><trkpt lat="45.8505464235387" lon="12.195341222846675"><ele>117.0</ele><time>2026-04-25T04:55:32.999Z</time></trkpt><trkpt lat="45.85061851286221" lon="12.195283803365768"><ele>117.0</ele><time>2026-04-25T04:55:35.999Z</time></trkpt><trkpt lat="45.85068428896225" lon="12.195222018823236"><ele>117.0</ele><time>2026-04-25T04:55:38.999Z</time></trkpt><trkpt lat="45.85075566129599" lon="12.195177511050687"><ele>117.0</ele><time>2026-04-25T04:55:41.999Z</time></trkpt><trkpt lat="45.85082101664297" lon="12.195105415446294"><ele>117.0</ele><time>2026-04-25T04:55:48.999Z</time></trkpt><trkpt lat="45.85087598209481" lon="12.195040816267172"><ele>117.0</ele><time>2026-04-25T04:55:51.999Z</time></trkpt><trkpt lat="45.850931884063" lon="12.194987708002246"><ele>117.0</ele><time>2026-04-25T04:55:55.999Z</time></trkpt><trkpt lat="45.850988414882885" lon="12.19489900991591"><ele>117.0</ele><time>2026-04-25T04:55:58.998Z</time></trkpt><trkpt lat="45.85104082042754" lon="12.194805631537546"><ele>117.14285714285715</ele><time>2026-04-25T04:56:02.998Z</time></trkpt><trkpt lat="45.85106392267893" lon="12.194710554929294"><ele>117.2857142857143</ele><time>2026-04-25T04:56:07.997Z</time></trkpt><trkpt lat="45.851034402056825" lon="12.194600432445837"><ele>117.42857142857143</ele><time>2026-04-25T04:56:11.997Z</time></trkpt><trkpt lat="45.85100270997092" lon="12.194505534868728"><ele>117.57142857142858</ele><time>2026-04-25T04:56:14.997Z</time></trkpt><trkpt lat="45.85094576690228" lon="12.19445532185704"><ele>117.71428571428572</ele><time>2026-04-25T04:56:17.999Z</time></trkpt><trkpt lat="45.85087425646483" lon="12.194480160274155"><ele>117.85714285714286</ele><time>2026-04-25T04:56:19.999Z</time></trkpt><trkpt lat="45.85080643999327" lon="12.194493566731623"><ele>118.0</ele><time>2026-04-25T04:56:20.999Z</time></trkpt><trkpt lat="45.85070294409025" lon="12.194500036525364"><ele>116.71428571428571</ele><time>2026-04-25T04:56:22.999Z</time></trkpt><trkpt lat="45.85063262756787" lon="12.194503301825142"><ele>115.42857142857143</ele><time>2026-04-25T04:56:24.999Z</time></trkpt><trkpt lat="45.8505702322088" lon="12.194518490609205"><ele>114.14285714285714</ele><time>2026-04-25T04:56:26.999Z</time></trkpt><trkpt lat="45.850503805513846" lon="12.194541726853503"><ele>112.85714285714286</ele><time>2026-04-25T04:56:28.999Z</time></trkpt><trkpt lat="45.850418858558385" lon="12.19457760929239"><ele>111.57142857142858</ele><time>2026-04-25T04:56:31.999Z</time></trkpt><trkpt lat="45.85047683464143" lon="12.194525868543117"><ele>110.28571428571429</ele><time>2026-04-25T04:57:07.999Z</time></trkpt><trkpt lat="45.85053825086463" lon="12.194500031134831"><ele>109.0</ele><time>2026-04-25T04:57:14.999Z</time></trkpt><trkpt lat="45.85046913702902" lon="12.194533080820678"><ele>109.00000000000001</ele><time>2026-04-25T05:06:53Z</time></trkpt><trkpt lat="45.850394768303936" lon="12.19457454745948"><ele>109.0</ele><time>2026-04-25T05:06:55Z</time></trkpt><trkpt lat="45.85033048020487" lon="12.194605177495571"><ele>109.0</ele><time>2026-04-25T05:06:57Z</time></trkpt><trkpt lat="45.85025400331044" lon="12.194645372914634"><ele>109.0</ele><time>2026-04-25T05:06:59Z</time></trkpt><trkpt lat="45.85017336075843" lon="12.194678905472804"><ele>109.00000000000001</ele><time>2026-04-25T05:07:01Z</time></trkpt><trkpt lat="45.850091771252735" lon="12.194709856798628"><ele>109.0</ele><time>2026-04-25T05:07:03Z</time></trkpt><trkpt lat="45.85005231717993" lon="12.194794507730053"><ele>108.85714285714286</ele><time>2026-04-25T05:07:06Z</time></trkpt><trkpt lat="45.85002947006346" lon="12.194887026879098"><ele>108.71428571428572</ele><time>2026-04-25T05:07:12Z</time></trkpt><trkpt lat="45.8499641691031" lon="12.194938135042564"><ele>108.57142857142857</ele><time>2026-04-25T05:07:17Z</time></trkpt><trkpt lat="45.849906434558065" lon="12.194991602960528"><ele>108.42857142857143</ele><time>2026-04-25T05:07:21Z</time></trkpt><trkpt lat="45.84982854126344" lon="12.194991354974416"><ele>108.28571428571428</ele><time>2026-04-25T05:07:26Z</time></trkpt><trkpt lat="45.84975859532208" lon="12.194972736647587"><ele>108.14285714285714</ele><time>2026-04-25T05:07:30Z</time></trkpt><trkpt lat="45.8496911509961" lon="12.194946278165633"><ele>108.0</ele><time>2026-04-25T05:07:37.999Z</time></trkpt><trkpt lat="45.84964463272112" lon="12.194885094226592"><ele>106.5</ele><time>2026-04-25T05:07:51.999Z</time></trkpt><trkpt lat="45.849603983101574" lon="12.194807726313572"><ele>105.0</ele><time>2026-04-25T05:07:59.999Z</time></trkpt><trkpt lat="45.849536405072016" lon="12.194789269771755"><ele>103.5</ele><time>2026-04-25T05:08:05.999Z</time></trkpt><trkpt lat="45.849465934778365" lon="12.194808459251137"><ele>102.0</ele><time>2026-04-25T05:08:09.999Z</time></trkpt><trkpt lat="45.849383642720504" lon="12.194803628159379"><ele>100.5</ele><time>2026-04-25T05:08:13.057Z</time></trkpt><trkpt lat="45.84931862652978" lon="12.194817763496966"><ele>99.0</ele><time>2026-04-25T05:08:18.039Z</time></trkpt><trkpt lat="45.84888062568484" lon="12.193985497326972"><ele>98.25</ele><time>2026-04-25T05:08:28.025Z</time></trkpt><trkpt lat="45.84889775306817" lon="12.194100419125952"><ele>97.5</ele><time>2026-04-25T05:08:29.025Z</time></trkpt><trkpt lat="45.84892235181171" lon="12.194274916983142"><ele>96.75</ele><time>2026-04-25T05:08:30.027Z</time></trkpt><trkpt lat="45.848999213179795" lon="12.194384263972475"><ele>96.0</ele><time>2026-04-25T05:08:31.998Z</time></trkpt><trkpt lat="45.84915571921972" lon="12.194237931256373"><ele>95.99999999999999</ele><time>2026-04-25T05:08:37.998Z</time></trkpt><trkpt lat="45.849196515992695" lon="12.194160242958741"><ele>96.0</ele><time>2026-04-25T05:08:44.998Z</time></trkpt><trkpt lat="45.84919215811131" lon="12.19406901100424"><ele>96.0</ele><time>2026-04-25T05:08:54Z</time></trkpt><trkpt lat="45.84913202945391" lon="12.194022772365722"><ele>96.0</ele><time>2026-04-25T05:09:03Z</time></trkpt><trkpt lat="45.84908530302252" lon="12.193957129906622"><ele>96.0</ele><time>2026-04-25T05:09:11Z</time></trkpt><trkpt lat="45.849026408642324" lon="12.193923263675947"><ele>95.99999999999999</ele><time>2026-04-25T05:09:18Z</time></trkpt><trkpt lat="45.84898170585456" lon="12.193850390617763"><ele>96.0</ele><time>2026-04-25T05:09:24Z</time></trkpt><trkpt lat="45.84894944136457" lon="12.193749561920145"><ele>95.5</ele><time>2026-04-25T05:09:33Z</time></trkpt><trkpt lat="45.84896802427002" lon="12.193641984373487"><ele>95.0</ele><time>2026-04-25T05:09:37Z</time></trkpt><trkpt lat="45.84902405824452" lon="12.193554483398199"><ele>94.5</ele><time>2026-04-25T05:09:41Z</time></trkpt><trkpt lat="45.84906473511672" lon="12.19347335712892"><ele>94.0</ele><time>2026-04-25T05:09:44.999Z</time></trkpt><trkpt lat="45.84912788226634" lon="12.19345017536275"><ele>93.5</ele><time>2026-04-25T05:09:46.999Z</time></trkpt><trkpt lat="45.84921198344815" lon="12.193372660341963"><ele>93.0</ele><time>2026-04-25T05:09:49.999Z</time></trkpt><trkpt lat="45.84926985229879" lon="12.193304641476779"><ele>93.16666666666667</ele><time>2026-04-25T05:09:51.999Z</time></trkpt><trkpt lat="45.84931979298443" lon="12.193225949761754"><ele>93.33333333333333</ele><time>2026-04-25T05:09:53.999Z</time></trkpt><trkpt lat="45.84936779582871" lon="12.193134821257413"><ele>93.5</ele><time>2026-04-25T05:09:55.999Z</time></trkpt><trkpt lat="45.849417635516154" lon="12.193035466641303"><ele>93.66666666666666</ele><time>2026-04-25T05:09:57.999Z</time></trkpt><trkpt lat="45.849444419872285" lon="12.192938842480299"><ele>93.83333333333333</ele><time>2026-04-25T05:09:59.999Z</time></trkpt><trkpt lat="45.8494657309511" lon="12.192822162199786"><ele>94.0</ele><time>2026-04-25T05:10:01.999Z</time></trkpt><trkpt lat="45.84949783093274" lon="12.192735342018342"><ele>93.5</ele><time>2026-04-25T05:10:03.999Z</time></trkpt><trkpt lat="45.849563826040324" lon="12.192654063922202"><ele>93.0</ele><time>2026-04-25T05:10:05.999Z</time></trkpt><trkpt lat="45.84961705350102" lon="12.19259080456828"><ele>92.5</ele><time>2026-04-25T05:10:07.999Z</time></trkpt><trkpt lat="45.84960347445794" lon="12.192492583423999"><ele>92.0</ele><time>2026-04-25T05:10:09.999Z</time></trkpt><trkpt lat="45.84963148829034" lon="12.192395846193465"><ele>91.5</ele><time>2026-04-25T05:10:11.999Z</time></trkpt><trkpt lat="45.849678542536935" lon="12.192299741332162"><ele>91.0</ele><time>2026-04-25T05:10:13.999Z</time></trkpt><trkpt lat="45.849722973985116" lon="12.192207731955905"><ele>90.66666666666666</ele><time>2026-04-25T05:10:15.999Z</time></trkpt><trkpt lat="45.849754541604426" lon="12.192104408039462"><ele>90.33333333333333</ele><time>2026-04-25T05:10:17.999Z</time></trkpt><trkpt lat="45.8497833781353" lon="12.192002275825939"><ele>90.0</ele><time>2026-04-25T05:10:19.999Z</time></trkpt><trkpt lat="45.849844459398504" lon="12.191935507840045"><ele>89.66666666666667</ele><time>2026-04-25T05:10:21.999Z</time></trkpt><trkpt lat="45.849926057807146" lon="12.191939562556076"><ele>89.33333333333334</ele><time>2026-04-25T05:10:24.999Z</time></trkpt><trkpt lat="45.85001973441595" lon="12.19194985021374"><ele>89.0</ele><time>2026-04-25T05:10:26.999Z</time></trkpt><trkpt lat="45.85008159787786" lon="12.191916138034076"><ele>88.99999999999999</ele><time>2026-04-25T05:10:29.999Z</time></trkpt><trkpt lat="45.85009894225424" lon="12.191814955648827"><ele>89.0</ele><time>2026-04-25T05:10:31.999Z</time></trkpt><trkpt lat="45.850125793746464" lon="12.191730093779501"><ele>89.0</ele><time>2026-04-25T05:10:33.999Z</time></trkpt><trkpt lat="45.850160125566674" lon="12.191640963310526"><ele>89.0</ele><time>2026-04-25T05:10:35.999Z</time></trkpt><trkpt lat="45.850195074688685" lon="12.19155925145676"><ele>89.0</ele><time>2026-04-25T05:10:38.998Z</time></trkpt><trkpt lat="45.85022786908617" lon="12.191442542147191"><ele>88.99999999999999</ele><time>2026-04-25T05:10:41.998Z</time></trkpt><trkpt lat="45.85025819137796" lon="12.191352945078936"><ele>89.0</ele><time>2026-04-25T05:10:44.998Z</time></trkpt><trkpt lat="45.850270135563015" lon="12.191259774836672"><ele>90.5</ele><time>2026-04-25T05:10:47.998Z</time></trkpt><trkpt lat="45.85030933619715" lon="12.191184416140006"><ele>92.0</ele><time>2026-04-25T05:10:51.998Z</time></trkpt><trkpt lat="45.85032102856035" lon="12.191083409316049"><ele>93.5</ele><time>2026-04-25T05:10:56.998Z</time></trkpt><trkpt lat="45.850350133342914" lon="12.190981698201925"><ele>95.0</ele><time>2026-04-25T05:11:01Z</time></trkpt><trkpt lat="45.850364081963484" lon="12.190861455018098"><ele>96.49999999999999</ele><time>2026-04-25T05:11:04Z</time></trkpt><trkpt lat="45.85040137653273" lon="12.190750118665132"><ele>98.0</ele><time>2026-04-25T05:11:06Z</time></trkpt><trkpt lat="45.850430186557084" lon="12.190652711809461"><ele>97.99999999999999</ele><time>2026-04-25T05:11:08Z</time></trkpt><trkpt lat="45.85046757977743" lon="12.190528643035211"><ele>98.0</ele><time>2026-04-25T05:11:10Z</time></trkpt><trkpt lat="45.85050513585998" lon="12.190412354941273"><ele>98.0</ele><time>2026-04-25T05:11:12Z</time></trkpt><trkpt lat="45.850537527241784" lon="12.190321306592137"><ele>98.0</ele><time>2026-04-25T05:11:14Z</time></trkpt><trkpt lat="45.85057814017469" lon="12.190195040030543"><ele>97.99999999999999</ele><time>2026-04-25T05:11:17Z</time></trkpt><trkpt lat="45.850610944526224" lon="12.190084711579905"><ele>98.0</ele><time>2026-04-25T05:11:19Z</time></trkpt><trkpt lat="45.850658542329235" lon="12.189984428624856"><ele>97.99999999999999</ele><time>2026-04-25T05:11:21Z</time></trkpt><trkpt lat="45.850700305259906" lon="12.189874803570826"><ele>98.0</ele><time>2026-04-25T05:11:23Z</time></trkpt><trkpt lat="45.850748456063194" lon="12.18977681946786"><ele>98.0</ele><time>2026-04-25T05:11:25Z</time></trkpt><trkpt lat="45.85079715875962" lon="12.189699584386734"><ele>98.0</ele><time>2026-04-25T05:11:27Z</time></trkpt><trkpt lat="45.850845975985486" lon="12.189601238976023"><ele>97.99999999999999</ele><time>2026-04-25T05:11:29Z</time></trkpt><trkpt lat="45.85089563386874" lon="12.189501062866073"><ele>98.0</ele><time>2026-04-25T05:11:31Z</time></trkpt><trkpt lat="45.85095624792086" lon="12.189419448313954"><ele>97.49999999999999</ele><time>2026-04-25T05:11:33Z</time></trkpt><trkpt lat="45.851023792413166" lon="12.189353124194259"><ele>97.0</ele><time>2026-04-25T05:11:35Z</time></trkpt><trkpt lat="45.85109941298526" lon="12.189260597542782"><ele>96.5</ele><time>2026-04-25T05:11:38Z</time></trkpt><trkpt lat="45.85115072173507" lon="12.18919156542509"><ele>96.0</ele><time>2026-04-25T05:11:40Z</time></trkpt><trkpt lat="45.85121490742575" lon="12.189094218620825"><ele>95.5</ele><time>2026-04-25T05:11:42Z</time></trkpt><trkpt lat="45.85127659898339" lon="12.188987674122757"><ele>95.0</ele><time>2026-04-25T05:11:44Z</time></trkpt><trkpt lat="45.851332676855435" lon="12.188886676497726"><ele>95.0</ele><time>2026-04-25T05:11:46Z</time></trkpt><trkpt lat="45.85140207162523" lon="12.188798241106046"><ele>95.0</ele><time>2026-04-25T05:11:48Z</time></trkpt><trkpt lat="45.85148544653505" lon="12.188689724856372"><ele>95.0</ele><time>2026-04-25T05:11:50Z</time></trkpt><trkpt lat="45.851525323359816" lon="12.188618350246466"><ele>95.0</ele><time>2026-04-25T05:11:51Z</time></trkpt><trkpt lat="45.85160207086748" lon="12.188495459102882"><ele>95.0</ele><time>2026-04-25T05:11:53Z</time></trkpt><trkpt lat="45.851673274697475" lon="12.18837614345632"><ele>95.0</ele><time>2026-04-25T05:11:55Z</time></trkpt><trkpt lat="45.85173131437104" lon="12.1882563911448"><ele>95.0</ele><time>2026-04-25T05:11:57Z</time></trkpt><trkpt lat="45.85179774046046" lon="12.188133853968532"><ele>95.0</ele><time>2026-04-25T05:11:59Z</time></trkpt><trkpt lat="45.85186158531612" lon="12.188004885103746"><ele>95.0</ele><time>2026-04-25T05:12:00.998Z</time></trkpt><trkpt lat="45.85191352683518" lon="12.187861693841008"><ele>95.0</ele><time>2026-04-25T05:12:02.998Z</time></trkpt><trkpt lat="45.85195978217364" lon="12.187734150042388"><ele>94.16666666666667</ele><time>2026-04-25T05:12:04.998Z</time></trkpt><trkpt lat="45.852023836319965" lon="12.187638897221108"><ele>93.33333333333334</ele><time>2026-04-25T05:12:06.998Z</time></trkpt><trkpt lat="45.85208481637249" lon="12.187586793494347"><ele>92.5</ele><time>2026-04-25T05:12:08.998Z</time></trkpt><trkpt lat="45.852135953213875" lon="12.18752401645394"><ele>91.66666666666667</ele><time>2026-04-25T05:12:10.998Z</time></trkpt><trkpt lat="45.85219364537037" lon="12.187444474639113"><ele>90.83333333333333</ele><time>2026-04-25T05:12:12.998Z</time></trkpt><trkpt lat="45.85225787579528" lon="12.187339103830443"><ele>90.0</ele><time>2026-04-25T05:12:14.998Z</time></trkpt><trkpt lat="45.8523474902594" lon="12.18724028178507"><ele>90.0</ele><time>2026-04-25T05:12:16.998Z</time></trkpt><trkpt lat="45.85243784051379" lon="12.187174251362057"><ele>90.0</ele><time>2026-04-25T05:12:18.998Z</time></trkpt><trkpt lat="45.852520521128405" lon="12.187120802064287"><ele>90.0</ele><time>2026-04-25T05:12:20.998Z</time></trkpt><trkpt lat="45.852585499750525" lon="12.187071936325216"><ele>90.0</ele><time>2026-04-25T05:12:22.998Z</time></trkpt><trkpt lat="45.852646858785704" lon="12.18701827167865"><ele>90.0</ele><time>2026-04-25T05:12:24.998Z</time></trkpt><trkpt lat="45.85270307060647" lon="12.186934727359917"><ele>90.0</ele><time>2026-04-25T05:12:26.998Z</time></trkpt><trkpt lat="45.85276266027538" lon="12.186815335617869"><ele>90.8</ele><time>2026-04-25T05:12:28.998Z</time></trkpt><trkpt lat="45.85281734371127" lon="12.186718968883726"><ele>91.6</ele><time>2026-04-25T05:12:30.998Z</time></trkpt><trkpt lat="45.8528837218984" lon="12.186650607550206"><ele>92.4</ele><time>2026-04-25T05:12:32.998Z</time></trkpt><trkpt lat="45.85292840138392" lon="12.186534754228008"><ele>93.2</ele><time>2026-04-25T05:12:34.998Z</time></trkpt><trkpt lat="45.852986665744666" lon="12.1864028340299"><ele>94.0</ele><time>2026-04-25T05:12:36.998Z</time></trkpt><trkpt lat="45.85306368986985" lon="12.186314088779902"><ele>94.0</ele><time>2026-04-25T05:12:38.998Z</time></trkpt><trkpt lat="45.853121400113125" lon="12.186214510484037"><ele>94.0</ele><time>2026-04-25T05:12:40.998Z</time></trkpt><trkpt lat="45.85317146363356" lon="12.186149739449101"><ele>94.0</ele><time>2026-04-25T05:12:42.998Z</time></trkpt><trkpt lat="45.85323049506194" lon="12.186092879311058"><ele>94.0</ele><time>2026-04-25T05:12:45.998Z</time></trkpt><trkpt lat="45.85328642450327" lon="12.186033036133757"><ele>94.0</ele><time>2026-04-25T05:12:48.998Z</time></trkpt><trkpt lat="45.85334511750879" lon="12.185966127064702"><ele>94.0</ele><time>2026-04-25T05:12:50.998Z</time></trkpt><trkpt lat="45.85342927937566" lon="12.185845528858755"><ele>94.80000000000001</ele><time>2026-04-25T05:12:52.998Z</time></trkpt><trkpt lat="45.853487138864615" lon="12.185790315865821"><ele>95.60000000000001</ele><time>2026-04-25T05:12:53.998Z</time></trkpt><trkpt lat="45.85357987328263" lon="12.185731658489038"><ele>96.4</ele><time>2026-04-25T05:12:55.997Z</time></trkpt><trkpt lat="45.853667525558905" lon="12.185606455436078"><ele>97.2</ele><time>2026-04-25T05:12:57.997Z</time></trkpt><trkpt lat="45.85370725967541" lon="12.185524578694055"><ele>98.0</ele><time>2026-04-25T05:12:58.997Z</time></trkpt><trkpt lat="45.85377508751268" lon="12.185401741144235"><ele>98.0</ele><time>2026-04-25T05:13:00.997Z</time></trkpt><trkpt lat="45.853855462301965" lon="12.185284610984155"><ele>98.0</ele><time>2026-04-25T05:13:02.997Z</time></trkpt><trkpt lat="45.85392305097931" lon="12.185163249684827"><ele>98.0</ele><time>2026-04-25T05:13:05Z</time></trkpt><trkpt lat="45.85400704919746" lon="12.185062546194207"><ele>98.0</ele><time>2026-04-25T05:13:07Z</time></trkpt><trkpt lat="45.85409021927764" lon="12.18496207182248"><ele>98.0</ele><time>2026-04-25T05:13:09Z</time></trkpt><trkpt lat="45.85417354386263" lon="12.18488854590728"><ele>97.4</ele><time>2026-04-25T05:13:11Z</time></trkpt><trkpt lat="45.854251765208666" lon="12.184785440108646"><ele>96.80000000000001</ele><time>2026-04-25T05:13:13Z</time></trkpt><trkpt lat="45.854336855519364" lon="12.18469591958488"><ele>96.2</ele><time>2026-04-25T05:13:15Z</time></trkpt><trkpt lat="45.8544149673453" lon="12.18460541657526"><ele>95.6</ele><time>2026-04-25T05:13:17Z</time></trkpt><trkpt lat="45.85450825933937" lon="12.184520242771292"><ele>95.0</ele><time>2026-04-25T05:13:19Z</time></trkpt><trkpt lat="45.85457968249818" lon="12.184425869790438"><ele>94.6</ele><time>2026-04-25T05:13:20.999Z</time></trkpt><trkpt lat="45.85466607124888" lon="12.184316328291619"><ele>94.2</ele><time>2026-04-25T05:13:22.999Z</time></trkpt><trkpt lat="45.854758671808156" lon="12.184226447930024"><ele>93.80000000000001</ele><time>2026-04-25T05:13:24.999Z</time></trkpt><trkpt lat="45.85480969859804" lon="12.184172867334329"><ele>93.4</ele><time>2026-04-25T05:13:25.999Z</time></trkpt><trkpt lat="45.85489145693334" lon="12.184068346844985"><ele>93.0</ele><time>2026-04-25T05:13:27.999Z</time></trkpt><trkpt lat="45.854968962774706" lon="12.183943908192084"><ele>93.0</ele><time>2026-04-25T05:13:29.999Z</time></trkpt><trkpt lat="45.85506534789624" lon="12.183844578184495"><ele>93.0</ele><time>2026-04-25T05:13:31.999Z</time></trkpt><trkpt lat="45.85515101496944" lon="12.18376629750145"><ele>93.0</ele><time>2026-04-25T05:13:33.999Z</time></trkpt><trkpt lat="45.85524954104224" lon="12.183691207750911"><ele>93.0</ele><time>2026-04-25T05:13:35.999Z</time></trkpt><trkpt lat="45.85535134763474" lon="12.183626933113489"><ele>93.0</ele><time>2026-04-25T05:13:37.999Z</time></trkpt><trkpt lat="45.8554020501445" lon="12.18357108245458"><ele>94.4</ele><time>2026-04-25T05:13:38.999Z</time></trkpt><trkpt lat="45.85551039027168" lon="12.183501949053712"><ele>95.80000000000001</ele><time>2026-04-25T05:13:40.999Z</time></trkpt><trkpt lat="45.85560119864873" lon="12.183429672783262"><ele>97.2</ele><time>2026-04-25T05:13:42.999Z</time></trkpt><trkpt lat="45.8557055940303" lon="12.183372607532474"><ele>98.6</ele><time>2026-04-25T05:13:44.999Z</time></trkpt><trkpt lat="45.85579523365736" lon="12.183310789558266"><ele>100.0</ele><time>2026-04-25T05:13:46.999Z</time></trkpt><trkpt lat="45.85585529991922" lon="12.183260256129659"><ele>100.00000000000001</ele><time>2026-04-25T05:13:48.999Z</time></trkpt><trkpt lat="45.85594730699775" lon="12.183213476204813"><ele>100.0</ele><time>2026-04-25T05:13:51.999Z</time></trkpt><trkpt lat="45.856031060009556" lon="12.183184694354408"><ele>100.0</ele><time>2026-04-25T05:13:54.999Z</time></trkpt><trkpt lat="45.85610337214373" lon="12.183163227428897"><ele>100.0</ele><time>2026-04-25T05:13:56.999Z</time></trkpt><trkpt lat="45.85616604385354" lon="12.183116777282102"><ele>100.00000000000001</ele><time>2026-04-25T05:14:01.999Z</time></trkpt><trkpt lat="45.85622584213772" lon="12.183046365748648"><ele>100.0</ele><time>2026-04-25T05:14:09.999Z</time></trkpt><trkpt lat="45.856285575189055" lon="12.18298610607727"><ele>100.16666666666667</ele><time>2026-04-25T05:14:13.999Z</time></trkpt><trkpt lat="45.85636925122664" lon="12.182914755260374"><ele>100.33333333333334</ele><time>2026-04-25T05:14:21.998Z</time></trkpt><trkpt lat="45.8564262076651" lon="12.182860874110185"><ele>100.5</ele><time>2026-04-25T05:14:23.998Z</time></trkpt><trkpt lat="45.856490834541205" lon="12.182804818097694"><ele>100.66666666666666</ele><time>2026-04-25T05:14:25.998Z</time></trkpt><trkpt lat="45.8565827370528" lon="12.182743457714935"><ele>100.83333333333333</ele><time>2026-04-25T05:14:27.998Z</time></trkpt><trkpt lat="45.8566741096755" lon="12.18270552848105"><ele>101.0</ele><time>2026-04-25T05:14:29.998Z</time></trkpt><trkpt lat="45.85676712977278" lon="12.18267085722937"><ele>101.0</ele><time>2026-04-25T05:14:31.998Z</time></trkpt><trkpt lat="45.85686675075979" lon="12.182633882475491"><ele>101.0</ele><time>2026-04-25T05:14:33.998Z</time></trkpt><trkpt lat="45.856962137392124" lon="12.182612090436095"><ele>101.0</ele><time>2026-04-25T05:14:35.998Z</time></trkpt><trkpt lat="45.85706317524462" lon="12.18259265756616"><ele>101.0</ele><time>2026-04-25T05:14:37.998Z</time></trkpt><trkpt lat="45.85716263545791" lon="12.182560985533309"><ele>101.0</ele><time>2026-04-25T05:14:39.998Z</time></trkpt><trkpt lat="45.85725162296662" lon="12.182535446829904"><ele>101.0</ele><time>2026-04-25T05:14:41.998Z</time></trkpt><trkpt lat="45.85732814405995" lon="12.18245922512132"><ele>101.0</ele><time>2026-04-25T05:14:59.998Z</time></trkpt><trkpt lat="45.85741214052986" lon="12.1823777064847"><ele>101.0</ele><time>2026-04-25T05:15:01.998Z</time></trkpt><trkpt lat="45.857508539722026" lon="12.182287116516026"><ele>101.0</ele><time>2026-04-25T05:15:03.998Z</time></trkpt><trkpt lat="45.85759991373402" lon="12.182212048598045"><ele>101.0</ele><time>2026-04-25T05:15:05.998Z</time></trkpt><trkpt lat="45.85767277928488" lon="12.182144962641829"><ele>99.85714285714286</ele><time>2026-04-25T05:15:07.998Z</time></trkpt><trkpt lat="45.8577373771971" lon="12.182106843473898"><ele>98.71428571428571</ele><time>2026-04-25T05:15:11Z</time></trkpt><trkpt lat="45.85780623464357" lon="12.182044003800918"><ele>97.57142857142858</ele><time>2026-04-25T05:15:15Z</time></trkpt><trkpt lat="45.85786343714716" lon="12.181986517913325"><ele>96.42857142857143</ele><time>2026-04-25T05:18:31.999Z</time></trkpt><trkpt lat="45.85787492985085" lon="12.181895861402182"><ele>95.28571428571429</ele><time>2026-04-25T05:18:45.999Z</time></trkpt><trkpt lat="45.85788485634385" lon="12.18180237926887"><ele>94.14285714285715</ele><time>2026-04-25T05:18:52.999Z</time></trkpt><trkpt lat="45.8578900019911" lon="12.18171116912268"><ele>93.0</ele><time>2026-04-25T05:19:51.001Z</time></trkpt><trkpt lat="45.85790231041363" lon="12.181598601887892"><ele>93.0</ele><time>2026-04-25T05:19:55Z</time></trkpt><trkpt lat="45.85791804494108" lon="12.181491584273036"><ele>93.0</ele><time>2026-04-25T05:19:57.999Z</time></trkpt><trkpt lat="45.85793959170084" lon="12.181388488494314"><ele>93.0</ele><time>2026-04-25T05:19:59.999Z</time></trkpt><trkpt lat="45.85794526172673" lon="12.181284029014824"><ele>93.0</ele><time>2026-04-25T05:20:01.999Z</time></trkpt><trkpt lat="45.85793604981819" lon="12.18116294312857"><ele>93.0</ele><time>2026-04-25T05:20:03.999Z</time></trkpt><trkpt lat="45.85790375066904" lon="12.181006373856944"><ele>93.0</ele><time>2026-04-25T05:20:05.999Z</time></trkpt><trkpt lat="45.85787223140094" lon="12.180873010920719"><ele>93.0</ele><time>2026-04-25T05:20:07.999Z</time></trkpt><trkpt lat="45.85784186997014" lon="12.18077952865376"><ele>93.0</ele><time>2026-04-25T05:20:10.999Z</time></trkpt><trkpt lat="45.85780326712521" lon="12.18070229933062"><ele>93.0</ele><time>2026-04-25T05:20:13.999Z</time></trkpt><trkpt lat="45.85775927694968" lon="12.180570946449736"><ele>93.0</ele><time>2026-04-25T05:20:16.999Z</time></trkpt><trkpt lat="45.85775063065394" lon="12.180449886783013"><ele>93.0</ele><time>2026-04-25T05:20:18.999Z</time></trkpt><trkpt lat="45.857766610096284" lon="12.180331545239051"><ele>93.0</ele><time>2026-04-25T05:20:20.999Z</time></trkpt><trkpt lat="45.85779299248088" lon="12.18022054367658"><ele>92.83333333333333</ele><time>2026-04-25T05:20:22.999Z</time></trkpt><trkpt lat="45.857828560788064" lon="12.180116426392052"><ele>92.66666666666667</ele><time>2026-04-25T05:20:24.999Z</time></trkpt><trkpt lat="45.85787000073859" lon="12.180027348208075"><ele>92.5</ele><time>2026-04-25T05:20:26.999Z</time></trkpt><trkpt lat="45.857909332362034" lon="12.179930370042372"><ele>92.33333333333334</ele><time>2026-04-25T05:20:28.999Z</time></trkpt><trkpt lat="45.857953057549224" lon="12.179836040827986"><ele>92.16666666666667</ele><time>2026-04-25T05:20:30.999Z</time></trkpt><trkpt lat="45.85799796120877" lon="12.17974935401835"><ele>92.0</ele><time>2026-04-25T05:20:32.999Z</time></trkpt><trkpt lat="45.85804288584295" lon="12.17965656614858"><ele>92.33333333333334</ele><time>2026-04-25T05:20:34.999Z</time></trkpt><trkpt lat="45.858090132674256" lon="12.179565681115081"><ele>92.66666666666667</ele><time>2026-04-25T05:20:36.999Z</time></trkpt><trkpt lat="45.85813770293026" lon="12.179476710469844"><ele>93.0</ele><time>2026-04-25T05:20:38.999Z</time></trkpt><trkpt lat="45.85819732494004" lon="12.179388616283854"><ele>93.33333333333333</ele><time>2026-04-25T05:20:40.999Z</time></trkpt><trkpt lat="45.858244403589275" lon="12.179276544538325"><ele>93.66666666666666</ele><time>2026-04-25T05:20:42.998Z</time></trkpt><trkpt lat="45.858294540644465" lon="12.179166154138878"><ele>94.0</ele><time>2026-04-25T05:20:44.998Z</time></trkpt><trkpt lat="45.85834486189179" lon="12.179049729850394"><ele>94.2</ele><time>2026-04-25T05:20:46.998Z</time></trkpt><trkpt lat="45.858401762251596" lon="12.178945443401064"><ele>94.4</ele><time>2026-04-25T05:20:48.998Z</time></trkpt><trkpt lat="45.858463859182955" lon="12.178839539229195"><ele>94.6</ele><time>2026-04-25T05:20:50.998Z</time></trkpt><trkpt lat="45.8585275274256" lon="12.178736314773356"><ele>94.8</ele><time>2026-04-25T05:20:52.998Z</time></trkpt><trkpt lat="45.85859106887709" lon="12.178634061669651"><ele>95.0</ele><time>2026-04-25T05:20:54.998Z</time></trkpt><trkpt lat="45.85865553282344" lon="12.178534274169253"><ele>95.0</ele><time>2026-04-25T05:20:56.998Z</time></trkpt><trkpt lat="45.85871540343498" lon="12.178431595331862"><ele>95.0</ele><time>2026-04-25T05:20:58.998Z</time></trkpt><trkpt lat="45.85877669586496" lon="12.17833142684588"><ele>95.0</ele><time>2026-04-25T05:21:00.998Z</time></trkpt><trkpt lat="45.8588339214952" lon="12.178226620903347"><ele>95.0</ele><time>2026-04-25T05:21:02.998Z</time></trkpt><trkpt lat="45.858886150488324" lon="12.178112126799618"><ele>95.0</ele><time>2026-04-25T05:21:04.998Z</time></trkpt><trkpt lat="45.85893309656949" lon="12.17799560758956"><ele>95.0</ele><time>2026-04-25T05:21:06.998Z</time></trkpt><trkpt lat="45.85896729520092" lon="12.177861364042077"><ele>95.0</ele><time>2026-04-25T05:21:08.998Z</time></trkpt><trkpt lat="45.858995972810554" lon="12.177720931890123"><ele>95.0</ele><time>2026-04-25T05:21:10.998Z</time></trkpt><trkpt lat="45.859010065151395" lon="12.177580166305102"><ele>95.0</ele><time>2026-04-25T05:21:12.998Z</time></trkpt><trkpt lat="45.85900653565068" lon="12.177434749565357"><ele>95.0</ele><time>2026-04-25T05:21:14.998Z</time></trkpt><trkpt lat="45.859013180460344" lon="12.177292464445154"><ele>95.4</ele><time>2026-04-25T05:21:16.998Z</time></trkpt><trkpt lat="45.85903855783513" lon="12.177152882416049"><ele>95.8</ele><time>2026-04-25T05:21:18.998Z</time></trkpt><trkpt lat="45.85907088343711" lon="12.17701434207032"><ele>96.19999999999999</ele><time>2026-04-25T05:21:20.998Z</time></trkpt><trkpt lat="45.85909650204718" lon="12.176870013647859"><ele>96.6</ele><time>2026-04-25T05:21:22.998Z</time></trkpt><trkpt lat="45.859110849693124" lon="12.176716448838983"><ele>97.0</ele><time>2026-04-25T05:21:24.998Z</time></trkpt><trkpt lat="45.85910115517984" lon="12.176557446909696"><ele>97.6</ele><time>2026-04-25T05:21:26.998Z</time></trkpt><trkpt lat="45.85908587368578" lon="12.176404406770128"><ele>98.19999999999999</ele><time>2026-04-25T05:21:29Z</time></trkpt><trkpt lat="45.859065979686925" lon="12.176243563270338"><ele>98.8</ele><time>2026-04-25T05:21:31Z</time></trkpt><trkpt lat="45.8590577243548" lon="12.176086288565402"><ele>99.4</ele><time>2026-04-25T05:21:33Z</time></trkpt><trkpt lat="45.859052737125374" lon="12.175918362569107"><ele>100.0</ele><time>2026-04-25T05:21:35Z</time></trkpt><trkpt lat="45.859062477052866" lon="12.175754030932008"><ele>100.6</ele><time>2026-04-25T05:21:37Z</time></trkpt><trkpt lat="45.85907326547537" lon="12.175580292863218"><ele>101.2</ele><time>2026-04-25T05:21:39Z</time></trkpt><trkpt lat="45.85906571289178" lon="12.175414582816472"><ele>101.80000000000001</ele><time>2026-04-25T05:21:41Z</time></trkpt><trkpt lat="45.859056990396624" lon="12.175324633209074"><ele>102.4</ele><time>2026-04-25T05:21:42Z</time></trkpt><trkpt lat="45.859043021013086" lon="12.1751614957495"><ele>103.0</ele><time>2026-04-25T05:21:44Z</time></trkpt><trkpt lat="45.85903090630945" lon="12.174997137281805"><ele>103.0</ele><time>2026-04-25T05:21:46Z</time></trkpt><trkpt lat="45.85901880988367" lon="12.174836587439575"><ele>103.0</ele><time>2026-04-25T05:21:48Z</time></trkpt><trkpt lat="45.8589994878782" lon="12.17467564432198"><ele>103.0</ele><time>2026-04-25T05:21:50Z</time></trkpt><trkpt lat="45.85897893218782" lon="12.174520270014591"><ele>103.0</ele><time>2026-04-25T05:21:52Z</time></trkpt><trkpt lat="45.858961900492595" lon="12.174362051839502"><ele>103.0</ele><time>2026-04-25T05:21:54Z</time></trkpt><trkpt lat="45.858938969740855" lon="12.174203023942942"><ele>103.0</ele><time>2026-04-25T05:21:56Z</time></trkpt><trkpt lat="45.858918863632994" lon="12.174044032660941"><ele>103.0</ele><time>2026-04-25T05:21:58Z</time></trkpt><trkpt lat="45.85890211765531" lon="12.173882397076902"><ele>103.0</ele><time>2026-04-25T05:22:00Z</time></trkpt><trkpt lat="45.85888822393103" lon="12.17371796803279"><ele>103.0</ele><time>2026-04-25T05:22:02Z</time></trkpt><trkpt lat="45.858878376155474" lon="12.173552574657371"><ele>102.75</ele><time>2026-04-25T05:22:04Z</time></trkpt><trkpt lat="45.85885843332016" lon="12.173391487828376"><ele>102.5</ele><time>2026-04-25T05:22:06Z</time></trkpt><trkpt lat="45.8588224557611" lon="12.173225008686698"><ele>102.25</ele><time>2026-04-25T05:22:08Z</time></trkpt><trkpt lat="45.858767887941745" lon="12.173078711749126"><ele>102.0</ele><time>2026-04-25T05:22:09.999Z</time></trkpt><trkpt lat="45.85870424053932" lon="12.17294915896223"><ele>101.6</ele><time>2026-04-25T05:22:11.999Z</time></trkpt><trkpt lat="45.85862102116793" lon="12.172839710828539"><ele>101.19999999999999</ele><time>2026-04-25T05:22:13.999Z</time></trkpt><trkpt lat="45.85851751502207" lon="12.172780350079698"><ele>100.8</ele><time>2026-04-25T05:22:15.999Z</time></trkpt><trkpt lat="45.858411692387186" lon="12.17274663684686"><ele>100.4</ele><time>2026-04-25T05:22:17.999Z</time></trkpt><trkpt lat="45.85831110900835" lon="12.172695235520358"><ele>100.0</ele><time>2026-04-25T05:22:19.999Z</time></trkpt><trkpt lat="45.85822873709358" lon="12.172601270041199"><ele>99.6</ele><time>2026-04-25T05:22:21.999Z</time></trkpt><trkpt lat="45.85817139607866" lon="12.172471184288232"><ele>99.2</ele><time>2026-04-25T05:22:23.999Z</time></trkpt><trkpt lat="45.85813061246054" lon="12.172329870693462"><ele>98.80000000000001</ele><time>2026-04-25T05:22:25.999Z</time></trkpt><trkpt lat="45.85808724382604" lon="12.172175328271294"><ele>98.4</ele><time>2026-04-25T05:22:27.999Z</time></trkpt><trkpt lat="45.85806762981711" lon="12.172012859340557"><ele>98.0</ele><time>2026-04-25T05:22:29.999Z</time></trkpt><trkpt lat="45.858064815403885" lon="12.171841673307267"><ele>97.80000000000001</ele><time>2026-04-25T05:22:31.999Z</time></trkpt><trkpt lat="45.85805296643842" lon="12.171668855700243"><ele>97.6</ele><time>2026-04-25T05:22:33.999Z</time></trkpt><trkpt lat="45.85802296893946" lon="12.171511824605949"><ele>97.4</ele><time>2026-04-25T05:22:35.999Z</time></trkpt><trkpt lat="45.85797632019317" lon="12.171371420234815"><ele>97.19999999999999</ele><time>2026-04-25T05:22:37.999Z</time></trkpt><trkpt lat="45.857931785624075" lon="12.171307185971314"><ele>97.0</ele><time>2026-04-25T05:22:38.999Z</time></trkpt><trkpt lat="45.857849237059774" lon="12.171180030234767"><ele>96.25</ele><time>2026-04-25T05:22:40.999Z</time></trkpt><trkpt lat="45.85779256440168" lon="12.171028227185328"><ele>95.5</ele><time>2026-04-25T05:22:42.999Z</time></trkpt><trkpt lat="45.857751625585436" lon="12.170870168073186"><ele>94.75</ele><time>2026-04-25T05:22:44.999Z</time></trkpt><trkpt lat="45.85770891806423" lon="12.17072064731557"><ele>94.0</ele><time>2026-04-25T05:22:46.999Z</time></trkpt><trkpt lat="45.85764275443133" lon="12.170579344455474"><ele>94.0</ele><time>2026-04-25T05:22:48.999Z</time></trkpt><trkpt lat="45.857589198451116" lon="12.170524054588642"><ele>94.0</ele><time>2026-04-25T05:22:49.999Z</time></trkpt><trkpt lat="45.85748866615543" lon="12.1704357529675"><ele>94.0</ele><time>2026-04-25T05:22:51.999Z</time></trkpt><trkpt lat="45.85739142549171" lon="12.170354110550006"><ele>94.0</ele><time>2026-04-25T05:22:53.999Z</time></trkpt><trkpt lat="45.857291204906595" lon="12.170273177512719"><ele>94.0</ele><time>2026-04-25T05:22:55.999Z</time></trkpt><trkpt lat="45.85722488202753" lon="12.170151271150788"><ele>94.0</ele><time>2026-04-25T05:22:57.998Z</time></trkpt><trkpt lat="45.857142352179544" lon="12.170020395452703"><ele>94.0</ele><time>2026-04-25T05:22:59.998Z</time></trkpt><trkpt lat="45.85705703488706" lon="12.169898726464183"><ele>94.0</ele><time>2026-04-25T05:23:01.998Z</time></trkpt><trkpt lat="45.85698262995942" lon="12.169760934596674"><ele>94.0</ele><time>2026-04-25T05:23:03.998Z</time></trkpt><trkpt lat="45.85698664655245" lon="12.169668461054755"><ele>94.0</ele><time>2026-04-25T05:23:04.998Z</time></trkpt><trkpt lat="45.856973109581894" lon="12.1695742149662"><ele>93.75</ele><time>2026-04-25T05:23:05.998Z</time></trkpt><trkpt lat="45.85692805099879" lon="12.169413918051788"><ele>93.5</ele><time>2026-04-25T05:23:07.998Z</time></trkpt><trkpt lat="45.85690247603947" lon="12.169255592823752"><ele>93.25</ele><time>2026-04-25T05:23:09.998Z</time></trkpt><trkpt lat="45.856889682491" lon="12.169085828804658"><ele>93.0</ele><time>2026-04-25T05:23:11.998Z</time></trkpt><trkpt lat="45.85685959937886" lon="12.16893025359608"><ele>92.75</ele><time>2026-04-25T05:23:13.998Z</time></trkpt><trkpt lat="45.85688867929264" lon="12.16877188316191"><ele>92.5</ele><time>2026-04-25T05:23:15.998Z</time></trkpt><trkpt lat="45.85689202792181" lon="12.168604243686381"><ele>92.25</ele><time>2026-04-25T05:23:17.998Z</time></trkpt><trkpt lat="45.85687473444556" lon="12.168451321661186"><ele>92.0</ele><time>2026-04-25T05:23:19.998Z</time></trkpt><trkpt lat="45.85683365175898" lon="12.16828575289757"><ele>92.39999999999999</ele><time>2026-04-25T05:23:21.998Z</time></trkpt><trkpt lat="45.85676244892379" lon="12.168159049673372"><ele>92.8</ele><time>2026-04-25T05:23:23.998Z</time></trkpt><trkpt lat="45.856734971678996" lon="12.168004489031595"><ele>93.2</ele><time>2026-04-25T05:23:25.998Z</time></trkpt><trkpt lat="45.85674081430517" lon="12.167854094119377"><ele>93.6</ele><time>2026-04-25T05:23:27.998Z</time></trkpt><trkpt lat="45.8567590697332" lon="12.167720867428098"><ele>94.0</ele><time>2026-04-25T05:23:29.998Z</time></trkpt><trkpt lat="45.85675885152896" lon="12.167607642212065"><ele>94.0</ele><time>2026-04-25T05:23:31.998Z</time></trkpt><trkpt lat="45.856744986759686" lon="12.167498573894374"><ele>94.0</ele><time>2026-04-25T05:23:34Z</time></trkpt><trkpt lat="45.856702456891426" lon="12.167385756119113"><ele>94.0</ele><time>2026-04-25T05:23:37Z</time></trkpt><trkpt lat="45.85670071374324" lon="12.167279991327122"><ele>94.0</ele><time>2026-04-25T05:23:40Z</time></trkpt><trkpt lat="45.85667717347925" lon="12.167166731508813"><ele>94.0</ele><time>2026-04-25T05:23:43Z</time></trkpt><trkpt lat="45.85665672836052" lon="12.16706836343828"><ele>94.0</ele><time>2026-04-25T05:23:45Z</time></trkpt><trkpt lat="45.85649785855266" lon="12.167024643813338"><ele>93.80000000000001</ele><time>2026-04-25T05:23:47Z</time></trkpt><trkpt lat="45.85645882137268" lon="12.166918023828952"><ele>93.60000000000001</ele><time>2026-04-25T05:23:49Z</time></trkpt><trkpt lat="45.85640954076721" lon="12.16680209722723"><ele>93.4</ele><time>2026-04-25T05:23:51Z</time></trkpt><trkpt lat="45.85637109840172" lon="12.166662570989525"><ele>93.2</ele><time>2026-04-25T05:23:53Z</time></trkpt><trkpt lat="45.856337381045726" lon="12.166519467062091"><ele>93.0</ele><time>2026-04-25T05:23:55Z</time></trkpt><trkpt lat="45.85629756479846" lon="12.166380154105047"><ele>93.4</ele><time>2026-04-25T05:23:57Z</time></trkpt><trkpt lat="45.85626048776032" lon="12.16623848726712"><ele>93.80000000000001</ele><time>2026-04-25T05:23:59Z</time></trkpt><trkpt lat="45.85621802514318" lon="12.166100579908475"><ele>94.2</ele><time>2026-04-25T05:24:01Z</time></trkpt><trkpt lat="45.85617916625369" lon="12.16596014124987"><ele>94.6</ele><time>2026-04-25T05:24:03Z</time></trkpt><trkpt lat="45.85614928266954" lon="12.165814103066367"><ele>95.0</ele><time>2026-04-25T05:24:05Z</time></trkpt><trkpt lat="45.85613672841976" lon="12.165660882289544"><ele>95.6</ele><time>2026-04-25T05:24:07Z</time></trkpt><trkpt lat="45.856140264875826" lon="12.165520016299938"><ele>96.2</ele><time>2026-04-25T05:24:09Z</time></trkpt><trkpt lat="45.85613686963303" lon="12.165366401484434"><ele>96.80000000000001</ele><time>2026-04-25T05:24:11Z</time></trkpt><trkpt lat="45.85610694524831" lon="12.165231848847599"><ele>97.4</ele><time>2026-04-25T05:24:13Z</time></trkpt><trkpt lat="45.85608790621888" lon="12.165121603920893"><ele>98.0</ele><time>2026-04-25T05:24:14.999Z</time></trkpt><trkpt lat="45.85609736413696" lon="12.165005556310266"><ele>98.0</ele><time>2026-04-25T05:24:16.999Z</time></trkpt><trkpt lat="45.85609492199603" lon="12.164879425084509"><ele>98.0</ele><time>2026-04-25T05:24:18.999Z</time></trkpt><trkpt lat="45.85607051272762" lon="12.164747289841513"><ele>98.0</ele><time>2026-04-25T05:24:20.999Z</time></trkpt><trkpt lat="45.85608618071745" lon="12.164601742055668"><ele>98.0</ele><time>2026-04-25T05:24:22.999Z</time></trkpt><trkpt lat="45.85607947729166" lon="12.164479229490853"><ele>98.0</ele><time>2026-04-25T05:24:24.999Z</time></trkpt><trkpt lat="45.85607993576782" lon="12.164352895866697"><ele>98.80000000000001</ele><time>2026-04-25T05:24:26.999Z</time></trkpt><trkpt lat="45.856090139871625" lon="12.164196509469946"><ele>99.6</ele><time>2026-04-25T05:24:29.999Z</time></trkpt><trkpt lat="45.85607981932418" lon="12.164083581674399"><ele>100.4</ele><time>2026-04-25T05:24:31.999Z</time></trkpt><trkpt lat="45.85611544888873" lon="12.163985556874747"><ele>101.19999999999999</ele><time>2026-04-25T05:24:32.999Z</time></trkpt><trkpt lat="45.85607105862923" lon="12.163869265549998"><ele>102.0</ele><time>2026-04-25T05:24:34.999Z</time></trkpt><trkpt lat="45.85602711141302" lon="12.163754134891816"><ele>102.33333333333333</ele><time>2026-04-25T05:24:36.999Z</time></trkpt><trkpt lat="45.85600933599329" lon="12.16364879625372"><ele>102.66666666666666</ele><time>2026-04-25T05:24:38.999Z</time></trkpt><trkpt lat="45.855994322523735" lon="12.163546990993844"><ele>103.0</ele><time>2026-04-25T05:24:43.999Z</time></trkpt><trkpt lat="45.85598176346588" lon="12.163447455710005"><ele>103.33333333333333</ele><time>2026-04-25T05:24:45.999Z</time></trkpt><trkpt lat="45.855951945416585" lon="12.163312837018069"><ele>103.66666666666666</ele><time>2026-04-25T05:24:47.999Z</time></trkpt><trkpt lat="45.855936957966684" lon="12.163173220373114"><ele>104.0</ele><time>2026-04-25T05:24:49.999Z</time></trkpt><trkpt lat="45.85592744166364" lon="12.163049211451206"><ele>102.6</ele><time>2026-04-25T05:24:51.999Z</time></trkpt><trkpt lat="45.855911457090734" lon="12.162904301989565"><ele>101.2</ele><time>2026-04-25T05:24:53.999Z</time></trkpt><trkpt lat="45.85589348676267" lon="12.162810336581778"><ele>99.8</ele><time>2026-04-25T05:24:54.999Z</time></trkpt><trkpt lat="45.85589631500968" lon="12.162637879063118"><ele>98.39999999999999</ele><time>2026-04-25T05:24:56.999Z</time></trkpt><trkpt lat="45.855909855262944" lon="12.162478616369416"><ele>97.0</ele><time>2026-04-25T05:24:58.999Z</time></trkpt><trkpt lat="45.855921159328965" lon="12.162318551917313"><ele>97.0</ele><time>2026-04-25T05:25:00.999Z</time></trkpt><trkpt lat="45.855926358865176" lon="12.162164203615234"><ele>97.0</ele><time>2026-04-25T05:25:02.998Z</time></trkpt><trkpt lat="45.855916870453804" lon="12.162025885695265"><ele>97.0</ele><time>2026-04-25T05:25:04.998Z</time></trkpt><trkpt lat="45.855887223233516" lon="12.161912837373313"><ele>97.0</ele><time>2026-04-25T05:25:06.998Z</time></trkpt><trkpt lat="45.85584918550938" lon="12.161793756503526"><ele>97.0</ele><time>2026-04-25T05:25:08.998Z</time></trkpt><trkpt lat="45.855806477207295" lon="12.161651116792509"><ele>97.39999999999999</ele><time>2026-04-25T05:25:10.998Z</time></trkpt><trkpt lat="45.85583199324611" lon="12.16149646055577"><ele>97.8</ele><time>2026-04-25T05:25:12.998Z</time></trkpt><trkpt lat="45.85584027971762" lon="12.16135051532602"><ele>98.2</ele><time>2026-04-25T05:25:14.998Z</time></trkpt><trkpt lat="45.855832093635904" lon="12.161211599693434"><ele>98.6</ele><time>2026-04-25T05:25:16.998Z</time></trkpt><trkpt lat="45.85583173725165" lon="12.161078653599684"><ele>99.0</ele><time>2026-04-25T05:25:18.998Z</time></trkpt><trkpt lat="45.855815179293025" lon="12.16094538365608"><ele>99.0</ele><time>2026-04-25T05:25:20.998Z</time></trkpt><trkpt lat="45.855775214150185" lon="12.160819531867782"><ele>99.0</ele><time>2026-04-25T05:25:22.998Z</time></trkpt><trkpt lat="45.855715643109484" lon="12.160715367463295"><ele>99.0</ele><time>2026-04-25T05:25:24.998Z</time></trkpt><trkpt lat="45.85565626973719" lon="12.160629484200596"><ele>99.0</ele><time>2026-04-25T05:25:26.998Z</time></trkpt><trkpt lat="45.85560363851313" lon="12.160541150073364"><ele>99.0</ele><time>2026-04-25T05:25:28.998Z</time></trkpt><trkpt lat="45.85553669420427" lon="12.160433282917612"><ele>99.80000000000001</ele><time>2026-04-25T05:25:30.998Z</time></trkpt><trkpt lat="45.8555242821069" lon="12.1602763544506"><ele>100.60000000000001</ele><time>2026-04-25T05:25:32.998Z</time></trkpt><trkpt lat="45.855516068541675" lon="12.160126028776752"><ele>101.4</ele><time>2026-04-25T05:25:34.998Z</time></trkpt><trkpt lat="45.85550740480486" lon="12.159976689305967"><ele>102.2</ele><time>2026-04-25T05:25:36.998Z</time></trkpt><trkpt lat="45.85549488513797" lon="12.159830485492906"><ele>103.0</ele><time>2026-04-25T05:25:39Z</time></trkpt><trkpt lat="45.855519404952" lon="12.159682124578596"><ele>102.83333333333334</ele><time>2026-04-25T05:25:41Z</time></trkpt><trkpt lat="45.85553806508057" lon="12.159552246110414"><ele>102.66666666666667</ele><time>2026-04-25T05:25:43Z</time></trkpt><trkpt lat="45.8555371761294" lon="12.159423193953858"><ele>102.5</ele><time>2026-04-25T05:25:45Z</time></trkpt><trkpt lat="45.85555708526361" lon="12.159308082159209"><ele>102.33333333333334</ele><time>2026-04-25T05:25:47Z</time></trkpt><trkpt lat="45.85557432827556" lon="12.159173999353886"><ele>102.16666666666667</ele><time>2026-04-25T05:25:49Z</time></trkpt><trkpt lat="45.855599322852754" lon="12.15906784710938"><ele>102.0</ele><time>2026-04-25T05:25:51Z</time></trkpt><trkpt lat="45.855648078430605" lon="12.158985653867623"><ele>102.0</ele><time>2026-04-25T05:25:54Z</time></trkpt><trkpt lat="45.85565047171109" lon="12.158884705568319"><ele>102.0</ele><time>2026-04-25T05:25:58Z</time></trkpt><trkpt lat="45.85570653341059" lon="12.158814624939938"><ele>102.0</ele><time>2026-04-25T05:26:02Z</time></trkpt><trkpt lat="45.8557568200183" lon="12.15872366716872"><ele>102.0</ele><time>2026-04-25T05:26:06Z</time></trkpt><trkpt lat="45.85579651608193" lon="12.158608392546308"><ele>102.0</ele><time>2026-04-25T05:26:09Z</time></trkpt><trkpt lat="45.85582407181348" lon="12.158510295802502"><ele>102.0</ele><time>2026-04-25T05:26:11Z</time></trkpt><trkpt lat="45.8558620651429" lon="12.158398238530992"><ele>102.0</ele><time>2026-04-25T05:26:13Z</time></trkpt><trkpt lat="45.85590317586827" lon="12.158284213932546"><ele>102.0</ele><time>2026-04-25T05:26:15Z</time></trkpt><trkpt lat="45.855938833739934" lon="12.158162137336715"><ele>102.0</ele><time>2026-04-25T05:26:17Z</time></trkpt><trkpt lat="45.85597893775934" lon="12.158056713282276"><ele>102.0</ele><time>2026-04-25T05:26:19Z</time></trkpt><trkpt lat="45.856040667093104" lon="12.157975635898824"><ele>102.0</ele><time>2026-04-25T05:26:21Z</time></trkpt><trkpt lat="45.85608186931931" lon="12.15787681038108"><ele>102.0</ele><time>2026-04-25T05:26:22.999Z</time></trkpt><trkpt lat="45.85608790011409" lon="12.157753085184554"><ele>103.0</ele><time>2026-04-25T05:26:24.999Z</time></trkpt><trkpt lat="45.85610406115656" lon="12.157620954720963"><ele>104.0</ele><time>2026-04-25T05:26:26.999Z</time></trkpt><trkpt lat="45.85613229305243" lon="12.157502362071828"><ele>105.0</ele><time>2026-04-25T05:26:28.999Z</time></trkpt><trkpt lat="45.85616784769766" lon="12.157393175674255"><ele>106.0</ele><time>2026-04-25T05:26:30.999Z</time></trkpt><trkpt lat="45.85618536210659" lon="12.157274127538697"><ele>107.0</ele><time>2026-04-25T05:26:32.999Z</time></trkpt><trkpt lat="45.85619222121494" lon="12.157157317285673"><ele>108.0</ele><time>2026-04-25T05:26:34.999Z</time></trkpt><trkpt lat="45.85620899635943" lon="12.15702939864102"><ele>108.2</ele><time>2026-04-25T05:26:36.999Z</time></trkpt><trkpt lat="45.856208382145496" lon="12.156909049415308"><ele>108.4</ele><time>2026-04-25T05:26:38.999Z</time></trkpt><trkpt lat="45.85621778769528" lon="12.156778646036198"><ele>108.60000000000001</ele><time>2026-04-25T05:26:40.999Z</time></trkpt><trkpt lat="45.856230150077735" lon="12.156633608316824"><ele>108.80000000000001</ele><time>2026-04-25T05:26:42.999Z</time></trkpt><trkpt lat="45.85624391566375" lon="12.15649298878831"><ele>109.0</ele><time>2026-04-25T05:26:44.999Z</time></trkpt><trkpt lat="45.85625736874396" lon="12.156311264867858"><ele>109.0</ele><time>2026-04-25T05:26:46.999Z</time></trkpt><trkpt lat="45.85626621771083" lon="12.156145889903279"><ele>109.0</ele><time>2026-04-25T05:26:48.999Z</time></trkpt><trkpt lat="45.856283965653745" lon="12.155986988492304"><ele>109.0</ele><time>2026-04-25T05:26:50.999Z</time></trkpt><trkpt lat="45.8563037251438" lon="12.155816731217403"><ele>109.0</ele><time>2026-04-25T05:26:52.999Z</time></trkpt><trkpt lat="45.8563274979318" lon="12.15565374442921"><ele>108.4</ele><time>2026-04-25T05:26:54.999Z</time></trkpt><trkpt lat="45.85636176727417" lon="12.155517954287497"><ele>107.80000000000001</ele><time>2026-04-25T05:26:56.999Z</time></trkpt><trkpt lat="45.85638929915299" lon="12.155378583226636"><ele>107.19999999999999</ele><time>2026-04-25T05:26:58.999Z</time></trkpt><trkpt lat="45.856392641791324" lon="12.155257180606036"><ele>106.6</ele><time>2026-04-25T05:27:00.999Z</time></trkpt><trkpt lat="45.856399809316514" lon="12.1551606856965"><ele>106.0</ele><time>2026-04-25T05:27:02.999Z</time></trkpt><trkpt lat="45.85638037853247" lon="12.155018609069534"><ele>106.0</ele><time>2026-04-25T05:27:04.999Z</time></trkpt><trkpt lat="45.85633737708836" lon="12.154950079855302"><ele>106.0</ele><time>2026-04-25T05:27:05.999Z</time></trkpt><trkpt lat="45.85628579089805" lon="12.154815671135772"><ele>106.0</ele><time>2026-04-25T05:27:07.999Z</time></trkpt><trkpt lat="45.856284367913624" lon="12.154672772739701"><ele>106.0</ele><time>2026-04-25T05:27:09.999Z</time></trkpt><trkpt lat="45.856241370769894" lon="12.1545589438608"><ele>106.0</ele><time>2026-04-25T05:27:11.998Z</time></trkpt><trkpt lat="45.856252259218174" lon="12.15439555624012"><ele>106.00000000000001</ele><time>2026-04-25T05:27:13.998Z</time></trkpt><trkpt lat="45.85629525794824" lon="12.15428017731693"><ele>106.0</ele><time>2026-04-25T05:27:15.998Z</time></trkpt><trkpt lat="45.85629056402698" lon="12.154189320630195"><ele>106.0</ele><time>2026-04-25T05:27:17.998Z</time></trkpt><trkpt lat="45.856286364699" lon="12.154097964750122"><ele>106.0</ele><time>2026-04-25T05:27:20.998Z</time></trkpt><trkpt lat="45.85628596249009" lon="12.153981601624086"><ele>106.00000000000001</ele><time>2026-04-25T05:27:23.998Z</time></trkpt><trkpt lat="45.85631589653066" lon="12.153882566336074"><ele>106.0</ele><time>2026-04-25T05:27:26.998Z</time></trkpt><trkpt lat="45.85633138059047" lon="12.153762888979058"><ele>106.00000000000001</ele><time>2026-04-25T05:27:29.998Z</time></trkpt><trkpt lat="45.8563517081566" lon="12.153653451458041"><ele>106.0</ele><time>2026-04-25T05:27:31.998Z</time></trkpt><trkpt lat="45.8563884948797" lon="12.153575158836976"><ele>106.0</ele><time>2026-04-25T05:27:34.998Z</time></trkpt><trkpt lat="45.85643550219817" lon="12.153489085805917"><ele>106.0</ele><time>2026-04-25T05:27:38.998Z</time></trkpt><trkpt lat="45.85645882738061" lon="12.153352686091514"><ele>106.00000000000001</ele><time>2026-04-25T05:27:42.998Z</time></trkpt><trkpt lat="45.856462675017276" lon="12.153228722679183"><ele>106.0</ele><time>2026-04-25T05:27:45Z</time></trkpt><trkpt lat="45.856492292259915" lon="12.153140432611844"><ele>105.50000000000001</ele><time>2026-04-25T05:27:47Z</time></trkpt><trkpt lat="45.856496545757" lon="12.153012491958448"><ele>105.0</ele><time>2026-04-25T05:27:49Z</time></trkpt><trkpt lat="45.85653709083994" lon="12.15290504446424"><ele>104.5</ele><time>2026-04-25T05:27:51Z</time></trkpt><trkpt lat="45.856579497479096" lon="12.152782750445663"><ele>104.0</ele><time>2026-04-25T05:27:54Z</time></trkpt><trkpt lat="45.856614669609044" lon="12.152660094817724"><ele>103.50000000000001</ele><time>2026-04-25T05:27:56Z</time></trkpt><trkpt lat="45.856670512663165" lon="12.152614622468402"><ele>103.0</ele><time>2026-04-25T05:27:57.999Z</time></trkpt><trkpt lat="45.856722372979746" lon="12.152557755291092"><ele>103.00000000000001</ele><time>2026-04-25T05:27:59.999Z</time></trkpt><trkpt lat="45.856777570927214" lon="12.15248068563333"><ele>103.0</ele><time>2026-04-25T05:28:01.999Z</time></trkpt><trkpt lat="45.85682922160147" lon="12.15241253033457"><ele>103.0</ele><time>2026-04-25T05:28:03.999Z</time></trkpt><trkpt lat="45.85686842733388" lon="12.152292776752581"><ele>103.0</ele><time>2026-04-25T05:28:06.999Z</time></trkpt><trkpt lat="45.8569030341559" lon="12.152155592527372"><ele>103.00000000000001</ele><time>2026-04-25T05:28:08.999Z</time></trkpt><trkpt lat="45.85695193181237" lon="12.152058153510808"><ele>103.0</ele><time>2026-04-25T05:28:10.999Z</time></trkpt><trkpt lat="45.85697692404484" lon="12.15196567473855"><ele>104.00000000000001</ele><time>2026-04-25T05:28:12.999Z</time></trkpt><trkpt lat="45.85702151771841" lon="12.151866045278217"><ele>105.0</ele><time>2026-04-25T05:28:14.999Z</time></trkpt><trkpt lat="45.85707597345938" lon="12.151794538438306"><ele>106.0</ele><time>2026-04-25T05:28:16.999Z</time></trkpt><trkpt lat="45.85710836955864" lon="12.151672762206868"><ele>107.0</ele><time>2026-04-25T05:28:18.999Z</time></trkpt><trkpt lat="45.85713774093788" lon="12.15156244272517"><ele>108.00000000000001</ele><time>2026-04-25T05:28:20.999Z</time></trkpt><trkpt lat="45.8571462714841" lon="12.151440556713029"><ele>109.0</ele><time>2026-04-25T05:28:22.999Z</time></trkpt><trkpt lat="45.85715689513674" lon="12.151329098348565"><ele>109.00000000000001</ele><time>2026-04-25T05:28:24.999Z</time></trkpt><trkpt lat="45.85713056634163" lon="12.151225052847012"><ele>109.0</ele><time>2026-04-25T05:28:26.999Z</time></trkpt><trkpt lat="45.85714629911885" lon="12.151093937760944"><ele>109.0</ele><time>2026-04-25T05:28:28.999Z</time></trkpt><trkpt lat="45.857192098335595" lon="12.150995336363447"><ele>109.0</ele><time>2026-04-25T05:28:30.999Z</time></trkpt><trkpt lat="45.85721939622167" lon="12.150873544238388"><ele>109.00000000000001</ele><time>2026-04-25T05:28:32.999Z</time></trkpt><trkpt lat="45.85721561265976" lon="12.150769201196121"><ele>109.0</ele><time>2026-04-25T05:28:34.998Z</time></trkpt><trkpt lat="45.85727723205559" lon="12.150661070209862"><ele>108.42857142857143</ele><time>2026-04-25T05:28:36.998Z</time></trkpt><trkpt lat="45.8572960606211" lon="12.150552108774008"><ele>107.85714285714286</ele><time>2026-04-25T05:28:38.998Z</time></trkpt><trkpt lat="45.85733472860233" lon="12.150476309715517"><ele>107.28571428571428</ele><time>2026-04-25T05:28:41.998Z</time></trkpt><trkpt lat="45.857355755072106" lon="12.150359055283646"><ele>106.71428571428572</ele><time>2026-04-25T05:28:43.998Z</time></trkpt><trkpt lat="45.85740376585154" lon="12.150265728369174"><ele>106.14285714285714</ele><time>2026-04-25T05:28:45.998Z</time></trkpt><trkpt lat="45.85744803857495" lon="12.150196345962481"><ele>105.57142857142857</ele><time>2026-04-25T05:28:46.998Z</time></trkpt><trkpt lat="45.85750170907615" lon="12.150147697894852"><ele>105.0</ele><time>2026-04-25T05:28:48.998Z</time></trkpt><trkpt lat="45.85753610792949" lon="12.150053595087247"><ele>105.0</ele><time>2026-04-25T05:28:53.998Z</time></trkpt><trkpt lat="45.85756532661715" lon="12.149972590602898"><ele>105.0</ele><time>2026-04-25T05:28:55.998Z</time></trkpt><trkpt lat="45.85764044701924" lon="12.149870040367684"><ele>105.0</ele><time>2026-04-25T05:28:57.998Z</time></trkpt><trkpt lat="45.85769008541262" lon="12.149773757704503"><ele>105.0</ele><time>2026-04-25T05:28:59.998Z</time></trkpt><trkpt lat="45.857742682431486" lon="12.14966017255628"><ele>105.0</ele><time>2026-04-25T05:29:01.998Z</time></trkpt><trkpt lat="45.85781952336069" lon="12.149558972230842"><ele>105.33333333333333</ele><time>2026-04-25T05:29:03.998Z</time></trkpt><trkpt lat="45.857875702824174" lon="12.149499824534836"><ele>105.66666666666666</ele><time>2026-04-25T05:29:05.998Z</time></trkpt><trkpt lat="45.8579417288987" lon="12.149437321779793"><ele>106.0</ele><time>2026-04-25T05:29:12.998Z</time></trkpt><trkpt lat="45.858003231854084" lon="12.149373407942491"><ele>106.33333333333333</ele><time>2026-04-25T05:29:16.998Z</time></trkpt><trkpt lat="45.858066633023554" lon="12.149316574770745"><ele>106.66666666666666</ele><time>2026-04-25T05:29:27.997Z</time></trkpt><trkpt lat="45.85815315222609" lon="12.14925631001155"><ele>107.0</ele><time>2026-04-25T05:29:31.997Z</time></trkpt><trkpt lat="45.858209386089214" lon="12.149163457961684"><ele>106.39999999999999</ele><time>2026-04-25T05:29:33.997Z</time></trkpt><trkpt lat="45.85825725841157" lon="12.149041713714032"><ele>105.79999999999998</ele><time>2026-04-25T05:29:35.997Z</time></trkpt><trkpt lat="45.8582876015993" lon="12.148916695434089"><ele>105.2</ele><time>2026-04-25T05:29:39.997Z</time></trkpt><trkpt lat="45.858230756105904" lon="12.14880468767736"><ele>104.6</ele><time>2026-04-25T05:29:41.997Z</time></trkpt><trkpt lat="45.858147998041545" lon="12.148790370099256"><ele>104.0</ele><time>2026-04-25T05:29:43.997Z</time></trkpt><trkpt lat="45.85809530419977" lon="12.148695420570371"><ele>103.99999999999999</ele><time>2026-04-25T05:29:45.997Z</time></trkpt><trkpt lat="45.85808095230289" lon="12.148555664863057"><ele>104.0</ele><time>2026-04-25T05:29:47.997Z</time></trkpt><trkpt lat="45.85808901324416" lon="12.148419986807744"><ele>104.0</ele><time>2026-04-25T05:29:49.997Z</time></trkpt><trkpt lat="45.85812082947451" lon="12.148305691650528"><ele>104.0</ele><time>2026-04-25T05:29:51.999Z</time></trkpt><trkpt lat="45.85816652130725" lon="12.148207598188892"><ele>103.99999999999999</ele><time>2026-04-25T05:29:53.999Z</time></trkpt><trkpt lat="45.85822887828134" lon="12.14813567176484"><ele>104.0</ele><time>2026-04-25T05:29:55.999Z</time></trkpt><trkpt lat="45.85829662058874" lon="12.148086604686457"><ele>103.66666666666666</ele><time>2026-04-25T05:29:57.999Z</time></trkpt><trkpt lat="45.85837738078403" lon="12.148058592993879"><ele>103.33333333333333</ele><time>2026-04-25T05:29:59.999Z</time></trkpt><trkpt lat="45.85845910199949" lon="12.14800378134031"><ele>103.0</ele><time>2026-04-25T05:30:01.999Z</time></trkpt><trkpt lat="45.858537342185" lon="12.147946481320725"><ele>102.66666666666666</ele><time>2026-04-25T05:30:03.999Z</time></trkpt><trkpt lat="45.858611632424456" lon="12.147896255176535"><ele>102.33333333333333</ele><time>2026-04-25T05:30:05.999Z</time></trkpt><trkpt lat="45.85869034979152" lon="12.14783857098085"><ele>102.0</ele><time>2026-04-25T05:30:07.999Z</time></trkpt><trkpt lat="45.858769972316416" lon="12.147776535517503"><ele>102.0</ele><time>2026-04-25T05:30:09.999Z</time></trkpt><trkpt lat="45.858850222993254" lon="12.147726285759566"><ele>102.0</ele><time>2026-04-25T05:30:11.999Z</time></trkpt><trkpt lat="45.85894818148234" lon="12.14769065874587"><ele>102.0</ele><time>2026-04-25T05:30:13.999Z</time></trkpt><trkpt lat="45.85904321988253" lon="12.147689214869345"><ele>102.0</ele><time>2026-04-25T05:30:15.999Z</time></trkpt><trkpt lat="45.85913501143436" lon="12.147737676504198"><ele>102.0</ele><time>2026-04-25T05:30:17.999Z</time></trkpt><trkpt lat="45.85922129703528" lon="12.147769159703843"><ele>102.66666666666667</ele><time>2026-04-25T05:30:19.999Z</time></trkpt><trkpt lat="45.85931341773294" lon="12.147779970923844"><ele>103.33333333333334</ele><time>2026-04-25T05:30:21.999Z</time></trkpt><trkpt lat="45.85939905659042" lon="12.147792564478435"><ele>104.0</ele><time>2026-04-25T05:30:23.999Z</time></trkpt><trkpt lat="45.85947938435011" lon="12.147812641315229"><ele>104.66666666666667</ele><time>2026-04-25T05:30:25.999Z</time></trkpt><trkpt lat="45.859547330706256" lon="12.147836237701501"><ele>105.33333333333334</ele><time>2026-04-25T05:30:27.999Z</time></trkpt><trkpt lat="45.85961158658554" lon="12.147859503246824"><ele>106.0</ele><time>2026-04-25T05:30:29.999Z</time></trkpt><trkpt lat="45.8596749772987" lon="12.147879287975156"><ele>106.00000000000001</ele><time>2026-04-25T05:30:31.999Z</time></trkpt><trkpt lat="45.85973939870294" lon="12.147879821499986"><ele>106.0</ele><time>2026-04-25T05:30:33.999Z</time></trkpt><trkpt lat="45.85983042457106" lon="12.147876816015845"><ele>106.0</ele><time>2026-04-25T05:30:36.999Z</time></trkpt><trkpt lat="45.85991422969846" lon="12.147873111978459"><ele>106.0</ele><time>2026-04-25T05:30:39.999Z</time></trkpt><trkpt lat="45.859990393450396" lon="12.14787208966801"><ele>106.00000000000001</ele><time>2026-04-25T05:30:42.999Z</time></trkpt><trkpt lat="45.86005991421018" lon="12.147872107597276"><ele>106.0</ele><time>2026-04-25T05:30:45.999Z</time></trkpt><trkpt lat="45.86012847801135" lon="12.147889890378616"><ele>106.14285714285715</ele><time>2026-04-25T05:30:48.999Z</time></trkpt><trkpt lat="45.86019531629031" lon="12.147931175729033"><ele>106.28571428571428</ele><time>2026-04-25T05:30:51.999Z</time></trkpt><trkpt lat="45.86023698402155" lon="12.14801744305495"><ele>106.42857142857143</ele><time>2026-04-25T05:30:54.998Z</time></trkpt><trkpt lat="45.860259830670394" lon="12.148120545068414"><ele>106.57142857142858</ele><time>2026-04-25T05:30:57.998Z</time></trkpt><trkpt lat="45.86028093082403" lon="12.148220576972207"><ele>106.71428571428572</ele><time>2026-04-25T05:31:00.998Z</time></trkpt><trkpt lat="45.86031922534046" lon="12.148311643132361"><ele>106.85714285714286</ele><time>2026-04-25T05:31:03.998Z</time></trkpt><trkpt lat="45.860369510539634" lon="12.148395077917836"><ele>107.0</ele><time>2026-04-25T05:31:06.998Z</time></trkpt><trkpt lat="45.860425749105566" lon="12.148460483688254"><ele>108.14285714285715</ele><time>2026-04-25T05:31:09.998Z</time></trkpt><trkpt lat="45.86047992001783" lon="12.148520764376878"><ele>109.28571428571428</ele><time>2026-04-25T05:31:12.998Z</time></trkpt><trkpt lat="45.86053635466191" lon="12.148565218933527"><ele>110.42857142857142</ele><time>2026-04-25T05:31:15.998Z</time></trkpt><trkpt lat="45.8606041719762" lon="12.148567918120108"><ele>111.57142857142857</ele><time>2026-04-25T05:31:18.998Z</time></trkpt><trkpt lat="45.86067816177348" lon="12.148527969711916"><ele>112.71428571428571</ele><time>2026-04-25T05:31:21.998Z</time></trkpt><trkpt lat="45.86073646859154" lon="12.148481297723027"><ele>113.85714285714285</ele><time>2026-04-25T05:31:24.998Z</time></trkpt><trkpt lat="45.86081101893972" lon="12.148423924184637"><ele>114.99999999999999</ele><time>2026-04-25T05:31:27.998Z</time></trkpt><trkpt lat="45.860867357154135" lon="12.148381849601472"><ele>114.99999999999999</ele><time>2026-04-25T05:31:29.998Z</time></trkpt><trkpt lat="45.860929593101396" lon="12.148343370478822"><ele>115.0</ele><time>2026-04-25T05:31:31.998Z</time></trkpt><trkpt lat="45.86098743416094" lon="12.148300331386228"><ele>114.99999999999999</ele><time>2026-04-25T05:31:33.998Z</time></trkpt><trkpt lat="45.86105246162439" lon="12.148259379840097"><ele>114.99999999999999</ele><time>2026-04-25T05:31:35.998Z</time></trkpt><trkpt lat="45.86112382698389" lon="12.148214058290527"><ele>115.0</ele><time>2026-04-25T05:31:37.998Z</time></trkpt><trkpt lat="45.861198563861294" lon="12.148169111185348"><ele>114.99999999999999</ele><time>2026-04-25T05:31:39.998Z</time></trkpt><trkpt lat="45.86127566985183" lon="12.148123232531855"><ele>114.99999999999999</ele><time>2026-04-25T05:31:41.998Z</time></trkpt><trkpt lat="45.861354464861414" lon="12.148072310143966"><ele>114.6</ele><time>2026-04-25T05:31:43.998Z</time></trkpt><trkpt lat="45.86144021196318" lon="12.148018605489685"><ele>114.2</ele><time>2026-04-25T05:31:45.998Z</time></trkpt><trkpt lat="45.86152923573452" lon="12.147966973183493"><ele>113.80000000000001</ele><time>2026-04-25T05:31:47.998Z</time></trkpt><trkpt lat="45.86161980579747" lon="12.147916578979538"><ele>113.4</ele><time>2026-04-25T05:31:49.997Z</time></trkpt><trkpt lat="45.86170827509384" lon="12.147868130746227"><ele>113.0</ele><time>2026-04-25T05:31:51.997Z</time></trkpt><trkpt lat="45.86179729327842" lon="12.14782050566793"><ele>113.0</ele><time>2026-04-25T05:31:53.997Z</time></trkpt><trkpt lat="45.86188350025876" lon="12.147780524573859"><ele>113.00000000000001</ele><time>2026-04-25T05:31:55.997Z</time></trkpt><trkpt lat="45.86196529621354" lon="12.147726635681876"><ele>113.00000000000001</ele><time>2026-04-25T05:31:57.999Z</time></trkpt><trkpt lat="45.86200717015664" lon="12.147603116482776"><ele>113.0</ele><time>2026-04-25T05:31:59.999Z</time></trkpt><trkpt lat="45.86199951939939" lon="12.147466140331357"><ele>113.0</ele><time>2026-04-25T05:32:01.999Z</time></trkpt><trkpt lat="45.86202162857949" lon="12.147357417567319"><ele>112.80000000000001</ele><time>2026-04-25T05:32:03.999Z</time></trkpt><trkpt lat="45.86210278809653" lon="12.147339705381443"><ele>112.60000000000001</ele><time>2026-04-25T05:32:05.999Z</time></trkpt><trkpt lat="45.8620265960839" lon="12.147365218456919"><ele>112.39999999999999</ele><time>2026-04-25T05:32:21.999Z</time></trkpt><trkpt lat="45.86195745191818" lon="12.147367655657305"><ele>112.19999999999999</ele><time>2026-04-25T05:32:24.999Z</time></trkpt><trkpt lat="45.86195320332451" lon="12.147199710707472"><ele>112.0</ele><time>2026-04-25T05:32:25.999Z</time></trkpt><trkpt lat="45.86189955054221" lon="12.147068190387122"><ele>112.00000000000001</ele><time>2026-04-25T05:32:27.999Z</time></trkpt><trkpt lat="45.861872292422234" lon="12.14695460579398"><ele>112.0</ele><time>2026-04-25T05:32:29.999Z</time></trkpt><trkpt lat="45.86183412102198" lon="12.14684719872488"><ele>112.0</ele><time>2026-04-25T05:32:31.999Z</time></trkpt><trkpt lat="45.86180164117821" lon="12.146741667303944"><ele>112.0</ele><time>2026-04-25T05:32:33.999Z</time></trkpt><trkpt lat="45.86184708718394" lon="12.1466004825617"><ele>112.00000000000001</ele><time>2026-04-25T05:32:35.999Z</time></trkpt><trkpt lat="45.8618833513779" lon="12.146507653322955"><ele>112.0</ele><time>2026-04-25T05:32:37.999Z</time></trkpt><trkpt lat="45.86197207682033" lon="12.14643225110486"><ele>111.33333333333334</ele><time>2026-04-25T05:32:39.999Z</time></trkpt><trkpt lat="45.86205120777345" lon="12.146323385556846"><ele>110.66666666666667</ele><time>2026-04-25T05:32:41.999Z</time></trkpt><trkpt lat="45.862095558278256" lon="12.146254736524934"><ele>110.0</ele><time>2026-04-25T05:32:42.999Z</time></trkpt><trkpt lat="45.86219992520311" lon="12.14614238007201"><ele>109.33333333333334</ele><time>2026-04-25T05:32:44.999Z</time></trkpt><trkpt lat="45.862247056952505" lon="12.146081739318209"><ele>108.66666666666667</ele><time>2026-04-25T05:32:45.999Z</time></trkpt><trkpt lat="45.86228727819504" lon="12.146002299227092"><ele>108.0</ele><time>2026-04-25T05:32:46.999Z</time></trkpt><trkpt lat="45.86231607416789" lon="12.145917687607243"><ele>108.0</ele><time>2026-04-25T05:32:47.999Z</time></trkpt><trkpt lat="45.86234855294974" lon="12.145831782651431"><ele>108.00000000000001</ele><time>2026-04-25T05:32:48.999Z</time></trkpt><trkpt lat="45.862386609474676" lon="12.14567889312177"><ele>108.00000000000001</ele><time>2026-04-25T05:32:50.999Z</time></trkpt><trkpt lat="45.86236458135153" lon="12.145571286119424"><ele>108.0</ele><time>2026-04-25T05:32:52.999Z</time></trkpt><trkpt lat="45.86227273845439" lon="12.145491662405664"><ele>108.0</ele><time>2026-04-25T05:32:54.999Z</time></trkpt><trkpt lat="45.8621877816136" lon="12.145397275340116"><ele>107.42857142857143</ele><time>2026-04-25T05:32:56.999Z</time></trkpt><trkpt lat="45.862109568372475" lon="12.145280595900905"><ele>106.85714285714286</ele><time>2026-04-25T05:32:58.999Z</time></trkpt><trkpt lat="45.862063017476565" lon="12.1452101257515"><ele>106.28571428571428</ele><time>2026-04-25T05:32:59.999Z</time></trkpt><trkpt lat="45.86201861625369" lon="12.145144036761458"><ele>105.71428571428572</ele><time>2026-04-25T05:33:00.999Z</time></trkpt><trkpt lat="45.86197175337567" lon="12.14506860328189"><ele>105.14285714285715</ele><time>2026-04-25T05:33:01.999Z</time></trkpt><trkpt lat="45.86192592021352" lon="12.145003989813592"><ele>104.57142857142857</ele><time>2026-04-25T05:33:02.999Z</time></trkpt><trkpt lat="45.861878373565055" lon="12.14494347368339"><ele>104.0</ele><time>2026-04-25T05:33:03.999Z</time></trkpt><trkpt lat="45.86182995317424" lon="12.14488387543731"><ele>103.71428571428571</ele><time>2026-04-25T05:33:04.999Z</time></trkpt><trkpt lat="45.86178044907121" lon="12.144824315890075"><ele>103.42857142857143</ele><time>2026-04-25T05:33:05.999Z</time></trkpt><trkpt lat="45.8617312399495" lon="12.144764014221705"><ele>103.14285714285714</ele><time>2026-04-25T05:33:06.999Z</time></trkpt><trkpt lat="45.86168315462533" lon="12.144703210058884"><ele>102.85714285714286</ele><time>2026-04-25T05:33:07.999Z</time></trkpt><trkpt lat="45.86163813662818" lon="12.144634511448185"><ele>102.57142857142858</ele><time>2026-04-25T05:33:08.999Z</time></trkpt><trkpt lat="45.861596490661455" lon="12.144565462548027"><ele>102.28571428571429</ele><time>2026-04-25T05:33:09.999Z</time></trkpt><trkpt lat="45.86157159864815" lon="12.14447521157822"><ele>102.0</ele><time>2026-04-25T05:33:10.999Z</time></trkpt><trkpt lat="45.8615286183175" lon="12.144406233543029"><ele>102.0</ele><time>2026-04-25T05:33:11.999Z</time></trkpt><trkpt lat="45.861486032004706" lon="12.144337887862658"><ele>102.0</ele><time>2026-04-25T05:33:12.999Z</time></trkpt><trkpt lat="45.86140478299563" lon="12.144205946254992"><ele>102.0</ele><time>2026-04-25T05:33:14.999Z</time></trkpt><trkpt lat="45.86133416215229" lon="12.144076260449689"><ele>102.0</ele><time>2026-04-25T05:33:16.998Z</time></trkpt><trkpt lat="45.86128286493269" lon="12.143925565717382"><ele>102.0</ele><time>2026-04-25T05:33:18.998Z</time></trkpt><trkpt lat="45.86124440531679" lon="12.143789533943675"><ele>102.0</ele><time>2026-04-25T05:33:20.998Z</time></trkpt><trkpt lat="45.86121874606373" lon="12.143646010479522"><ele>102.0</ele><time>2026-04-25T05:33:22.998Z</time></trkpt><trkpt lat="45.86120475498765" lon="12.143497161301879"><ele>102.0</ele><time>2026-04-25T05:33:24.998Z</time></trkpt><trkpt lat="45.86119164169696" lon="12.143345742909665"><ele>102.0</ele><time>2026-04-25T05:33:26.998Z</time></trkpt><trkpt lat="45.86121395319178" lon="12.14319186852786"><ele>102.0</ele><time>2026-04-25T05:33:28.998Z</time></trkpt><trkpt lat="45.861250722401735" lon="12.143038640206013"><ele>102.5</ele><time>2026-04-25T05:33:30.998Z</time></trkpt><trkpt lat="45.86130824654526" lon="12.142891638527043"><ele>103.0</ele><time>2026-04-25T05:33:32.998Z</time></trkpt><trkpt lat="45.86136472787646" lon="12.142752804590234"><ele>103.5</ele><time>2026-04-25T05:33:34.998Z</time></trkpt><trkpt lat="45.86141429681961" lon="12.142608997035994"><ele>104.0</ele><time>2026-04-25T05:33:36.998Z</time></trkpt><trkpt lat="45.861469593417304" lon="12.142466188224116"><ele>104.25</ele><time>2026-04-25T05:33:38.998Z</time></trkpt><trkpt lat="45.86152366557268" lon="12.142320227127016"><ele>104.5</ele><time>2026-04-25T05:33:40.998Z</time></trkpt><trkpt lat="45.86156078355263" lon="12.14216855525915"><ele>104.75</ele><time>2026-04-25T05:33:42.998Z</time></trkpt><trkpt lat="45.86156043742509" lon="12.142006390918016"><ele>105.0</ele><time>2026-04-25T05:33:44.998Z</time></trkpt><trkpt lat="45.861534316808424" lon="12.141846759682256"><ele>105.0</ele><time>2026-04-25T05:33:46.998Z</time></trkpt><trkpt lat="45.86149684099031" lon="12.141704337070315"><ele>105.0</ele><time>2026-04-25T05:33:48.998Z</time></trkpt><trkpt lat="45.861485853376635" lon="12.141568082972876"><ele>105.0</ele><time>2026-04-25T05:33:50.998Z</time></trkpt><trkpt lat="45.86151728972908" lon="12.141432093033186"><ele>105.0</ele><time>2026-04-25T05:33:52.998Z</time></trkpt><trkpt lat="45.86152876645725" lon="12.141295950544725"><ele>105.0</ele><time>2026-04-25T05:33:54.998Z</time></trkpt><trkpt lat="45.86149330947174" lon="12.141184826508134"><ele>105.0</ele><time>2026-04-25T05:33:56.998Z</time></trkpt><trkpt lat="45.86147991117584" lon="12.141032465946562"><ele>105.0</ele><time>2026-04-25T05:33:58.998Z</time></trkpt><trkpt lat="45.86144514285838" lon="12.140929472347288"><ele>105.0</ele><time>2026-04-25T05:34:00.998Z</time></trkpt><trkpt lat="45.86136349011165" lon="12.140916705376288"><ele>105.0</ele><time>2026-04-25T05:34:03Z</time></trkpt><trkpt lat="45.86128816420542" lon="12.14098479441318"><ele>105.0</ele><time>2026-04-25T05:34:05Z</time></trkpt><trkpt lat="45.86120833614397" lon="12.141062215447395"><ele>105.0</ele><time>2026-04-25T05:34:07Z</time></trkpt><trkpt lat="45.86111244117723" lon="12.141141386120525"><ele>105.0</ele><time>2026-04-25T05:34:09Z</time></trkpt><trkpt lat="45.86101631604184" lon="12.141224659261159"><ele>105.0</ele><time>2026-04-25T05:34:11Z</time></trkpt><trkpt lat="45.860928131494575" lon="12.14130422360687"><ele>105.0</ele><time>2026-04-25T05:34:13Z</time></trkpt><trkpt lat="45.86085228266801" lon="12.141382115502408"><ele>105.0</ele><time>2026-04-25T05:34:15Z</time></trkpt><trkpt lat="45.86076016278019" lon="12.14143059376939"><ele>105.0</ele><time>2026-04-25T05:34:17Z</time></trkpt><trkpt lat="45.860634616251374" lon="12.141415451607433"><ele>105.0</ele><time>2026-04-25T05:34:19Z</time></trkpt><trkpt lat="45.860577824467796" lon="12.141366920957335"><ele>105.0</ele><time>2026-04-25T05:34:20Z</time></trkpt><trkpt lat="45.86045755225017" lon="12.141356276910996"><ele>105.0</ele><time>2026-04-25T05:34:22Z</time></trkpt><trkpt lat="45.86039373531594" lon="12.141329378413145"><ele>105.0</ele><time>2026-04-25T05:34:23Z</time></trkpt><trkpt lat="45.86032931590006" lon="12.141336826774973"><ele>105.0</ele><time>2026-04-25T05:34:24Z</time></trkpt><trkpt lat="45.86021007638133" lon="12.141379018319418"><ele>104.25</ele><time>2026-04-25T05:34:26Z</time></trkpt><trkpt lat="45.8600970730231" lon="12.141446755744493"><ele>103.5</ele><time>2026-04-25T05:34:28Z</time></trkpt><trkpt lat="45.85999461542354" lon="12.141512023502656"><ele>102.75</ele><time>2026-04-25T05:34:30Z</time></trkpt><trkpt lat="45.85989579353736" lon="12.14157515034021"><ele>102.0</ele><time>2026-04-25T05:34:32Z</time></trkpt><trkpt lat="45.85979333336911" lon="12.14164286634742"><ele>101.85714285714286</ele><time>2026-04-25T05:34:34Z</time></trkpt><trkpt lat="45.85970165260085" lon="12.141703458239112"><ele>101.71428571428572</ele><time>2026-04-25T05:34:36Z</time></trkpt><trkpt lat="45.85964324743331" lon="12.14174205826071"><ele>101.57142857142857</ele><time>2026-04-25T05:34:38Z</time></trkpt><trkpt lat="45.85957788913343" lon="12.141784177716247"><ele>101.42857142857143</ele><time>2026-04-25T05:34:42Z</time></trkpt><trkpt lat="45.85951311841036" lon="12.14182253032836"><ele>101.28571428571428</ele><time>2026-04-25T05:34:45.999Z</time></trkpt><trkpt lat="45.85945257326173" lon="12.141878802072695"><ele>101.14285714285714</ele><time>2026-04-25T05:34:50.999Z</time></trkpt><trkpt lat="45.859392611365614" lon="12.141907141257903"><ele>101.0</ele><time>2026-04-25T05:34:54.999Z</time></trkpt><trkpt lat="45.859337932649005" lon="12.14195387513146"><ele>101.49999999999999</ele><time>2026-04-25T05:34:58.999Z</time></trkpt><trkpt lat="45.85927124184394" lon="12.142011033479523"><ele>102.0</ele><time>2026-04-25T05:35:02.999Z</time></trkpt><trkpt lat="45.85919582545311" lon="12.142041966223854"><ele>102.5</ele><time>2026-04-25T05:35:06.999Z</time></trkpt><trkpt lat="45.85913255063245" lon="12.142080779976945"><ele>103.0</ele><time>2026-04-25T05:35:09.999Z</time></trkpt><trkpt lat="45.8590493323182" lon="12.142103098307153"><ele>103.49999999999999</ele><time>2026-04-25T05:35:13.999Z</time></trkpt><trkpt lat="45.85897278149709" lon="12.142137603413278"><ele>104.0</ele><time>2026-04-25T05:35:16.999Z</time></trkpt><trkpt lat="45.85890457798769" lon="12.142126341973745"><ele>103.99999999999999</ele><time>2026-04-25T05:35:19.999Z</time></trkpt><trkpt lat="45.8588296025713" lon="12.142092996536244"><ele>104.0</ele><time>2026-04-25T05:35:22.999Z</time></trkpt><trkpt lat="45.85876982583379" lon="12.142048034181744"><ele>104.0</ele><time>2026-04-25T05:35:24.999Z</time></trkpt><trkpt lat="45.85869226918443" lon="12.142008327137084"><ele>104.0</ele><time>2026-04-25T05:35:26.999Z</time></trkpt><trkpt lat="45.858603790276774" lon="12.141994302351623"><ele>103.99999999999999</ele><time>2026-04-25T05:35:28.999Z</time></trkpt><trkpt lat="45.85851394816931" lon="12.141997293333382"><ele>104.0</ele><time>2026-04-25T05:35:30.999Z</time></trkpt><trkpt lat="45.858421085432845" lon="12.142006045950712"><ele>103.4</ele><time>2026-04-25T05:35:32.999Z</time></trkpt><trkpt lat="45.85832980756089" lon="12.142024855169698"><ele>102.80000000000001</ele><time>2026-04-25T05:35:34.999Z</time></trkpt><trkpt lat="45.85823270154975" lon="12.142043685785112"><ele>102.19999999999999</ele><time>2026-04-25T05:35:36.999Z</time></trkpt><trkpt lat="45.8581339484584" lon="12.142062423028916"><ele>101.6</ele><time>2026-04-25T05:35:38.999Z</time></trkpt><trkpt lat="45.85803046143823" lon="12.14205834238117"><ele>101.0</ele><time>2026-04-25T05:35:40.999Z</time></trkpt><trkpt lat="45.85792678440066" lon="12.142076996539792"><ele>101.0</ele><time>2026-04-25T05:35:42.999Z</time></trkpt><trkpt lat="45.857820984913026" lon="12.142094397022152"><ele>101.0</ele><time>2026-04-25T05:35:44.999Z</time></trkpt><trkpt lat="45.85771737410863" lon="12.142129442736591"><ele>101.0</ele><time>2026-04-25T05:35:46.999Z</time></trkpt><trkpt lat="45.857629945865156" lon="12.142145677888411"><ele>101.0</ele><time>2026-04-25T05:35:48.998Z</time></trkpt><trkpt lat="45.85753911887994" lon="12.142167681067427"><ele>101.0</ele><time>2026-04-25T05:35:50.998Z</time></trkpt><trkpt lat="45.85744226201175" lon="12.142187618764888"><ele>100.83333333333333</ele><time>2026-04-25T05:35:52.998Z</time></trkpt><trkpt lat="45.857343835631575" lon="12.142196544921369"><ele>100.66666666666666</ele><time>2026-04-25T05:35:54.997Z</time></trkpt><trkpt lat="45.85725390976244" lon="12.142230982662287"><ele>100.5</ele><time>2026-04-25T05:35:56.997Z</time></trkpt><trkpt lat="45.857161919134825" lon="12.142259424774116"><ele>100.33333333333334</ele><time>2026-04-25T05:35:58.997Z</time></trkpt><trkpt lat="45.85707921569166" lon="12.142247881085362"><ele>100.16666666666667</ele><time>2026-04-25T05:36:00.997Z</time></trkpt><trkpt lat="45.85701442805936" lon="12.142235016201125"><ele>100.0</ele><time>2026-04-25T05:36:02.997Z</time></trkpt><trkpt lat="45.8569836318481" lon="12.14201923299112"><ele>100.00000000000001</ele><time>2026-04-25T05:36:06.997Z</time></trkpt><trkpt lat="45.85696571226847" lon="12.141897870263662"><ele>100.0</ele><time>2026-04-25T05:36:08.999Z</time></trkpt><trkpt lat="45.8569568130117" lon="12.14178958159718"><ele>100.0</ele><time>2026-04-25T05:36:10.999Z</time></trkpt><trkpt lat="45.856942662640044" lon="12.141676855770026"><ele>100.0</ele><time>2026-04-25T05:36:12.999Z</time></trkpt><trkpt lat="45.856926085433464" lon="12.141563277562192"><ele>100.00000000000001</ele><time>2026-04-25T05:36:14.999Z</time></trkpt><trkpt lat="45.85691303112098" lon="12.14143837513073"><ele>100.0</ele><time>2026-04-25T05:36:16.999Z</time></trkpt><trkpt lat="45.85689513894197" lon="12.141304372628204"><ele>100.0</ele><time>2026-04-25T05:36:18.999Z</time></trkpt><trkpt lat="45.856881090934735" lon="12.141168985597446"><ele>100.0</ele><time>2026-04-25T05:36:20.999Z</time></trkpt><trkpt lat="45.85686383994778" lon="12.141036729301883"><ele>100.0</ele><time>2026-04-25T05:36:22.999Z</time></trkpt><trkpt lat="45.856844341916386" lon="12.140899160409004"><ele>100.0</ele><time>2026-04-25T05:36:24.999Z</time></trkpt><trkpt lat="45.856826873515374" lon="12.14075770032832"><ele>100.0</ele><time>2026-04-25T05:36:26.999Z</time></trkpt><trkpt lat="45.8568049628677" lon="12.140609118413728"><ele>100.2</ele><time>2026-04-25T05:36:28.999Z</time></trkpt><trkpt lat="45.85678703586146" lon="12.140451962296044"><ele>100.4</ele><time>2026-04-25T05:36:30.999Z</time></trkpt><trkpt lat="45.8567688043669" lon="12.140303861731777"><ele>100.6</ele><time>2026-04-25T05:36:32.999Z</time></trkpt><trkpt lat="45.856752238056885" lon="12.140149815177695"><ele>100.8</ele><time>2026-04-25T05:36:34.999Z</time></trkpt><trkpt lat="45.85672485692338" lon="12.14000456625817"><ele>101.0</ele><time>2026-04-25T05:36:36.999Z</time></trkpt><trkpt lat="45.85670063106009" lon="12.13986512986615"><ele>101.33333333333333</ele><time>2026-04-25T05:36:38.999Z</time></trkpt><trkpt lat="45.85668685215893" lon="12.139723936024742"><ele>101.66666666666666</ele><time>2026-04-25T05:36:40.999Z</time></trkpt><trkpt lat="45.8566739254268" lon="12.139575705854057"><ele>102.0</ele><time>2026-04-25T05:36:42.999Z</time></trkpt><trkpt lat="45.85665770166771" lon="12.139448752802352"><ele>102.33333333333334</ele><time>2026-04-25T05:36:44.999Z</time></trkpt><trkpt lat="45.85661823846618" lon="12.13937321656488"><ele>102.66666666666667</ele><time>2026-04-25T05:36:48.999Z</time></trkpt><trkpt lat="45.85658024482186" lon="12.139295190929271"><ele>103.0</ele><time>2026-04-25T05:37:36.998Z</time></trkpt><trkpt lat="45.85658071475984" lon="12.139201699705586"><ele>103.00000000000001</ele><time>2026-04-25T05:37:58.998Z</time></trkpt><trkpt lat="45.85658962918712" lon="12.139098841886035"><ele>103.0</ele><time>2026-04-25T05:38:34Z</time></trkpt><trkpt lat="45.8566221318635" lon="12.138996468636696"><ele>103.0</ele><time>2026-04-25T05:38:36Z</time></trkpt><trkpt lat="45.85663378213676" lon="12.138887065998361"><ele>103.0</ele><time>2026-04-25T05:38:38Z</time></trkpt><trkpt lat="45.85662444172551" lon="12.138775441359712"><ele>103.00000000000001</ele><time>2026-04-25T05:38:40Z</time></trkpt><trkpt lat="45.85661456538491" lon="12.138656318040292"><ele>103.0</ele><time>2026-04-25T05:38:42Z</time></trkpt><trkpt lat="45.85660465353552" lon="12.13852537067565"><ele>102.83333333333334</ele><time>2026-04-25T05:38:44Z</time></trkpt><trkpt lat="45.85659453706784" lon="12.138410864343152"><ele>102.66666666666667</ele><time>2026-04-25T05:38:46Z</time></trkpt><trkpt lat="45.85657278682169" lon="12.138288585978106"><ele>102.5</ele><time>2026-04-25T05:38:47.999Z</time></trkpt><trkpt lat="45.85656406694064" lon="12.138168948733853"><ele>102.33333333333334</ele><time>2026-04-25T05:38:49.999Z</time></trkpt><trkpt lat="45.85655345278621" lon="12.138051137958229"><ele>102.16666666666667</ele><time>2026-04-25T05:38:51.999Z</time></trkpt><trkpt lat="45.8565417553941" lon="12.137921823968409"><ele>102.0</ele><time>2026-04-25T05:38:53.999Z</time></trkpt><trkpt lat="45.85652634136578" lon="12.137782905353765"><ele>102.0</ele><time>2026-04-25T05:38:55.999Z</time></trkpt><trkpt lat="45.85651648515723" lon="12.137647412580547"><ele>102.0</ele><time>2026-04-25T05:38:57.999Z</time></trkpt><trkpt lat="45.85650419558202" lon="12.137511136530845"><ele>102.0</ele><time>2026-04-25T05:38:59.999Z</time></trkpt><trkpt lat="45.856492029386665" lon="12.137372741106034"><ele>102.0</ele><time>2026-04-25T05:39:01.999Z</time></trkpt><trkpt lat="45.856484273936616" lon="12.137241138687957"><ele>102.0</ele><time>2026-04-25T05:39:03.999Z</time></trkpt><trkpt lat="45.85647216279631" lon="12.13711090526975"><ele>101.83333333333333</ele><time>2026-04-25T05:39:05.999Z</time></trkpt><trkpt lat="45.85644208602361" lon="12.13699407874986"><ele>101.66666666666666</ele><time>2026-04-25T05:39:07.999Z</time></trkpt><trkpt lat="45.856373429312434" lon="12.13691634159374"><ele>101.5</ele><time>2026-04-25T05:39:09.999Z</time></trkpt><trkpt lat="45.856296975362866" lon="12.13687978248554"><ele>101.33333333333333</ele><time>2026-04-25T05:39:11.999Z</time></trkpt><trkpt lat="45.85622976522037" lon="12.136889771671653"><ele>101.16666666666666</ele><time>2026-04-25T05:39:13.999Z</time></trkpt><trkpt lat="45.85615970638857" lon="12.136893493654842"><ele>101.0</ele><time>2026-04-25T05:39:15.999Z</time></trkpt><trkpt lat="45.856083107552706" lon="12.136930871180416"><ele>100.99999999999999</ele><time>2026-04-25T05:39:17.999Z</time></trkpt><trkpt lat="45.856011635667706" lon="12.136974202839978"><ele>101.0</ele><time>2026-04-25T05:39:19.999Z</time></trkpt><trkpt lat="45.855929752637806" lon="12.137023041133899"><ele>101.0</ele><time>2026-04-25T05:39:21.999Z</time></trkpt><trkpt lat="45.855838726915835" lon="12.137056780165521"><ele>101.0</ele><time>2026-04-25T05:39:23.999Z</time></trkpt><trkpt lat="45.85575235485257" lon="12.137075120297716"><ele>100.99999999999999</ele><time>2026-04-25T05:39:25.999Z</time></trkpt><trkpt lat="45.85565803727841" lon="12.137088978507585"><ele>101.0</ele><time>2026-04-25T05:39:27.999Z</time></trkpt><trkpt lat="45.855582172924144" lon="12.137037651605626"><ele>101.66666666666666</ele><time>2026-04-25T05:39:29.999Z</time></trkpt><trkpt lat="45.8555554334342" lon="12.136922852516"><ele>102.33333333333333</ele><time>2026-04-25T05:39:31.999Z</time></trkpt><trkpt lat="45.855544174732984" lon="12.136807165237052"><ele>103.0</ele><time>2026-04-25T05:39:33.999Z</time></trkpt><trkpt lat="45.85549812229395" lon="12.136714497783913"><ele>103.66666666666666</ele><time>2026-04-25T05:39:35.999Z</time></trkpt><trkpt lat="45.8554231227474" lon="12.136703532904482"><ele>104.33333333333333</ele><time>2026-04-25T05:39:37.999Z</time></trkpt><trkpt lat="45.855354721810684" lon="12.136705313435458"><ele>105.0</ele><time>2026-04-25T05:39:39.999Z</time></trkpt><trkpt lat="45.85528045303237" lon="12.13668542485277"><ele>105.0</ele><time>2026-04-25T05:39:41.999Z</time></trkpt><trkpt lat="45.855216021105484" lon="12.136616947590062"><ele>105.0</ele><time>2026-04-25T05:39:43.999Z</time></trkpt><trkpt lat="45.85517916759219" lon="12.136515515497633"><ele>105.0</ele><time>2026-04-25T05:39:45.999Z</time></trkpt><trkpt lat="45.85515343766009" lon="12.136413783935975"><ele>105.0</ele><time>2026-04-25T05:39:47.999Z</time></trkpt><trkpt lat="45.85512383420161" lon="12.136309974538744"><ele>105.0</ele><time>2026-04-25T05:39:49.999Z</time></trkpt><trkpt lat="45.85509860380729" lon="12.136199848345699"><ele>105.0</ele><time>2026-04-25T05:39:51.998Z</time></trkpt><trkpt lat="45.855082902082856" lon="12.136086793458686"><ele>104.4</ele><time>2026-04-25T05:39:53.998Z</time></trkpt><trkpt lat="45.85510007499063" lon="12.135966049833796"><ele>103.8</ele><time>2026-04-25T05:39:55.998Z</time></trkpt><trkpt lat="45.85512065422315" lon="12.135841128526977"><ele>103.19999999999999</ele><time>2026-04-25T05:39:57.998Z</time></trkpt><trkpt lat="45.85513801382054" lon="12.135713051647025"><ele>102.6</ele><time>2026-04-25T05:39:59.998Z</time></trkpt><trkpt lat="45.855153954492216" lon="12.135580089207938"><ele>102.0</ele><time>2026-04-25T05:40:01.998Z</time></trkpt><trkpt lat="45.85514965279789" lon="12.135451180098832"><ele>101.83333333333333</ele><time>2026-04-25T05:40:03.998Z</time></trkpt><trkpt lat="45.85513917009171" lon="12.135328571515453"><ele>101.66666666666666</ele><time>2026-04-25T05:40:05.998Z</time></trkpt><trkpt lat="45.85514457418513" lon="12.135212870218089"><ele>101.5</ele><time>2026-04-25T05:40:07.998Z</time></trkpt><trkpt lat="45.85519621770166" lon="12.135121633253606"><ele>101.33333333333333</ele><time>2026-04-25T05:40:09.998Z</time></trkpt><trkpt lat="45.855290560511826" lon="12.13507699810187"><ele>101.16666666666666</ele><time>2026-04-25T05:40:11.998Z</time></trkpt><trkpt lat="45.85536657149507" lon="12.135006811980487"><ele>101.0</ele><time>2026-04-25T05:40:13.998Z</time></trkpt><trkpt lat="45.855381580771805" lon="12.134876627648039"><ele>101.0</ele><time>2026-04-25T05:40:15.998Z</time></trkpt><trkpt lat="45.85538565615997" lon="12.13474258040689"><ele>101.0</ele><time>2026-04-25T05:40:17.998Z</time></trkpt><trkpt lat="45.85535456613735" lon="12.134624960117172"><ele>101.0</ele><time>2026-04-25T05:40:19.998Z</time></trkpt><trkpt lat="45.85531860227062" lon="12.13449670850294"><ele>101.0</ele><time>2026-04-25T05:40:22Z</time></trkpt><trkpt lat="45.85528340338379" lon="12.134370569994259"><ele>101.0</ele><time>2026-04-25T05:40:24Z</time></trkpt><trkpt lat="45.85524824047019" lon="12.13424456039827"><ele>101.0</ele><time>2026-04-25T05:40:26Z</time></trkpt><trkpt lat="45.85521263564481" lon="12.13412296497213"><ele>101.0</ele><time>2026-04-25T05:40:28Z</time></trkpt><trkpt lat="45.85516348945489" lon="12.134007772949285"><ele>101.0</ele><time>2026-04-25T05:40:30Z</time></trkpt><trkpt lat="45.85513593697966" lon="12.133879799706612"><ele>101.0</ele><time>2026-04-25T05:40:32Z</time></trkpt><trkpt lat="45.85509466887318" lon="12.133753635279067"><ele>101.0</ele><time>2026-04-25T05:40:34Z</time></trkpt><trkpt lat="45.855054308316596" lon="12.133630245410739"><ele>100.99999999999999</ele><time>2026-04-25T05:40:36Z</time></trkpt><trkpt lat="45.85501246227444" lon="12.133507238139934"><ele>101.0</ele><time>2026-04-25T05:40:38Z</time></trkpt><trkpt lat="45.854981485236145" lon="12.133394948003371"><ele>101.0</ele><time>2026-04-25T05:40:40Z</time></trkpt><trkpt lat="45.85505235383497" lon="12.13329461627673"><ele>101.0</ele><time>2026-04-25T05:40:42Z</time></trkpt><trkpt lat="45.85511850815255" lon="12.133306982919317"><ele>100.99999999999999</ele><time>2026-04-25T05:40:43Z</time></trkpt><trkpt lat="45.85521128005537" lon="12.133250367733197"><ele>101.0</ele><time>2026-04-25T05:40:45Z</time></trkpt><trkpt lat="45.855304819893234" lon="12.133199493006556"><ele>102.0</ele><time>2026-04-25T05:40:47Z</time></trkpt><trkpt lat="45.85538700541747" lon="12.133139425506517"><ele>103.0</ele><time>2026-04-25T05:40:49Z</time></trkpt><trkpt lat="45.85538234597698" lon="12.132997988338616"><ele>104.0</ele><time>2026-04-25T05:40:51Z</time></trkpt><trkpt lat="45.855325632512994" lon="12.132888027860929"><ele>105.0</ele><time>2026-04-25T05:40:53Z</time></trkpt><trkpt lat="45.85528722938663" lon="12.132769375001535"><ele>106.0</ele><time>2026-04-25T05:40:55Z</time></trkpt><trkpt lat="45.855247437093766" lon="12.132640512283682"><ele>106.0</ele><time>2026-04-25T05:40:57Z</time></trkpt><trkpt lat="45.855206176889574" lon="12.132506895905319"><ele>106.0</ele><time>2026-04-25T05:40:59Z</time></trkpt><trkpt lat="45.85516301216195" lon="12.13237268356402"><ele>106.0</ele><time>2026-04-25T05:41:01Z</time></trkpt><trkpt lat="45.85510809809083" lon="12.13224235147761"><ele>106.0</ele><time>2026-04-25T05:41:03Z</time></trkpt><trkpt lat="45.855059802401634" lon="12.132100093894639"><ele>106.0</ele><time>2026-04-25T05:41:05Z</time></trkpt><trkpt lat="45.85501486224551" lon="12.13195457167917"><ele>106.0</ele><time>2026-04-25T05:41:07Z</time></trkpt><trkpt lat="45.85497150484176" lon="12.131808015118022"><ele>106.0</ele><time>2026-04-25T05:41:09Z</time></trkpt><trkpt lat="45.85492870599088" lon="12.131659016003319"><ele>106.0</ele><time>2026-04-25T05:41:10.999Z</time></trkpt><trkpt lat="45.85488729436023" lon="12.13151603879775"><ele>106.0</ele><time>2026-04-25T05:41:12.999Z</time></trkpt><trkpt lat="45.854891899481224" lon="12.131360361244745"><ele>106.0</ele><time>2026-04-25T05:41:14.999Z</time></trkpt><trkpt lat="45.85494709157724" lon="12.13130743225562"><ele>105.8</ele><time>2026-04-25T05:41:15.999Z</time></trkpt><trkpt lat="45.85505679793522" lon="12.13127516548837"><ele>105.6</ele><time>2026-04-25T05:41:17.999Z</time></trkpt><trkpt lat="45.85514899476566" lon="12.131213371985753"><ele>105.4</ele><time>2026-04-25T05:41:19.999Z</time></trkpt><trkpt lat="45.85524069283258" lon="12.131144897958706"><ele>105.2</ele><time>2026-04-25T05:41:21.999Z</time></trkpt><trkpt lat="45.85532588548965" lon="12.131072820739432"><ele>105.0</ele><time>2026-04-25T05:41:23.999Z</time></trkpt><trkpt lat="45.855412593117975" lon="12.130974916964554"><ele>105.2</ele><time>2026-04-25T05:41:25.999Z</time></trkpt><trkpt lat="45.85549281817182" lon="12.130870414079148"><ele>105.4</ele><time>2026-04-25T05:41:27.999Z</time></trkpt><trkpt lat="45.855565841667435" lon="12.130760420261078"><ele>105.6</ele><time>2026-04-25T05:41:29.999Z</time></trkpt><trkpt lat="45.85561919336597" lon="12.130633086618573"><ele>105.8</ele><time>2026-04-25T05:41:31.999Z</time></trkpt><trkpt lat="45.85559909401527" lon="12.130466069167873"><ele>106.0</ele><time>2026-04-25T05:41:33.999Z</time></trkpt><trkpt lat="45.85554747814736" lon="12.130337271086077"><ele>106.0</ele><time>2026-04-25T05:41:35.999Z</time></trkpt><trkpt lat="45.85548988058512" lon="12.130223471844554"><ele>106.0</ele><time>2026-04-25T05:41:37.999Z</time></trkpt><trkpt lat="45.855454078027016" lon="12.130091165992013"><ele>106.0</ele><time>2026-04-25T05:41:39.999Z</time></trkpt><trkpt lat="45.85540480402394" lon="12.129963464900186"><ele>106.0</ele><time>2026-04-25T05:41:41.999Z</time></trkpt><trkpt lat="45.85533930684047" lon="12.129846168753739"><ele>106.0</ele><time>2026-04-25T05:41:43.999Z</time></trkpt><trkpt lat="45.85529312687196" lon="12.129723145193946"><ele>106.0</ele><time>2026-04-25T05:41:45.999Z</time></trkpt><trkpt lat="45.85524227296296" lon="12.12958737320271"><ele>106.0</ele><time>2026-04-25T05:41:47.999Z</time></trkpt><trkpt lat="45.85520725508886" lon="12.129440792680159"><ele>106.0</ele><time>2026-04-25T05:41:49.999Z</time></trkpt><trkpt lat="45.85515704412546" lon="12.129303987485374"><ele>106.0</ele><time>2026-04-25T05:41:51.999Z</time></trkpt><trkpt lat="45.855104755290625" lon="12.129167282407607"><ele>106.0</ele><time>2026-04-25T05:41:53.999Z</time></trkpt><trkpt lat="45.855051229025364" lon="12.129029155711962"><ele>106.0</ele><time>2026-04-25T05:41:55.999Z</time></trkpt><trkpt lat="45.85500059502284" lon="12.128894215359749"><ele>106.0</ele><time>2026-04-25T05:41:57.999Z</time></trkpt><trkpt lat="45.85495608746383" lon="12.12877578964757"><ele>106.0</ele><time>2026-04-25T05:41:59.999Z</time></trkpt><trkpt lat="45.8549266883319" lon="12.128690701041632"><ele>106.0</ele><time>2026-04-25T05:42:01.999Z</time></trkpt><trkpt lat="45.85478100635522" lon="12.128701769044543"><ele>106.0</ele><time>2026-04-25T05:42:06.999Z</time></trkpt><trkpt lat="45.85469664105503" lon="12.128730582909514"><ele>106.0</ele><time>2026-04-25T05:42:08.999Z</time></trkpt><trkpt lat="45.854604738978075" lon="12.128787229448408"><ele>106.0</ele><time>2026-04-25T05:42:10.999Z</time></trkpt><trkpt lat="45.85450868991484" lon="12.128849598784761"><ele>106.0</ele><time>2026-04-25T05:42:12.998Z</time></trkpt><trkpt lat="45.85440932081026" lon="12.12890878088751"><ele>106.0</ele><time>2026-04-25T05:42:14.998Z</time></trkpt><trkpt lat="45.8543084903328" lon="12.128972440410113"><ele>106.0</ele><time>2026-04-25T05:42:16.998Z</time></trkpt><trkpt lat="45.85426656910483" lon="12.129040754722167"><ele>106.0</ele><time>2026-04-25T05:42:17.998Z</time></trkpt><trkpt lat="45.85415765381254" lon="12.129103240463749"><ele>106.0</ele><time>2026-04-25T05:42:19.998Z</time></trkpt><trkpt lat="45.85404890386453" lon="12.129174963863802"><ele>106.0</ele><time>2026-04-25T05:42:21.998Z</time></trkpt><trkpt lat="45.85394063820262" lon="12.129251818932673"><ele>106.0</ele><time>2026-04-25T05:42:23.998Z</time></trkpt><trkpt lat="45.853827561250704" lon="12.129315573868693"><ele>106.0</ele><time>2026-04-25T05:42:26Z</time></trkpt><trkpt lat="45.853720403614396" lon="12.129387475605702"><ele>106.0</ele><time>2026-04-25T05:42:28Z</time></trkpt><trkpt lat="45.85361236210415" lon="12.129455196632964"><ele>106.0</ele><time>2026-04-25T05:42:30Z</time></trkpt><trkpt lat="45.85350425476674" lon="12.129522708585355"><ele>106.0</ele><time>2026-04-25T05:42:32Z</time></trkpt><trkpt lat="45.85339114547895" lon="12.129586358931663"><ele>105.5</ele><time>2026-04-25T05:42:34Z</time></trkpt><trkpt lat="45.85328147090621" lon="12.129641237889901"><ele>105.0</ele><time>2026-04-25T05:42:36Z</time></trkpt><trkpt lat="45.8531680795529" lon="12.129702897889288"><ele>104.5</ele><time>2026-04-25T05:42:38Z</time></trkpt><trkpt lat="45.853059621232205" lon="12.129760383412078"><ele>104.0</ele><time>2026-04-25T05:42:40Z</time></trkpt><trkpt lat="45.852951949335775" lon="12.129817305354111"><ele>104.0</ele><time>2026-04-25T05:42:42Z</time></trkpt><trkpt lat="45.85284345983802" lon="12.129866973192724"><ele>104.0</ele><time>2026-04-25T05:42:44Z</time></trkpt><trkpt lat="45.8527333928021" lon="12.12992729184301"><ele>104.0</ele><time>2026-04-25T05:42:46Z</time></trkpt><trkpt lat="45.85262449068023" lon="12.129981189066301"><ele>104.0</ele><time>2026-04-25T05:42:48Z</time></trkpt><trkpt lat="45.852517148803045" lon="12.130037722233883"><ele>103.80000000000001</ele><time>2026-04-25T05:42:50Z</time></trkpt><trkpt lat="45.85242074872156" lon="12.130070264991328"><ele>103.60000000000001</ele><time>2026-04-25T05:42:52Z</time></trkpt><trkpt lat="45.8523271129209" lon="12.130003767495344"><ele>103.4</ele><time>2026-04-25T05:42:54Z</time></trkpt><trkpt lat="45.85229612561202" lon="12.129854493361147"><ele>103.2</ele><time>2026-04-25T05:42:56Z</time></trkpt><trkpt lat="45.85225480469935" lon="12.12972364663975"><ele>103.0</ele><time>2026-04-25T05:42:58Z</time></trkpt><trkpt lat="45.852166073781305" lon="12.129660824275927"><ele>103.0</ele><time>2026-04-25T05:43:00Z</time></trkpt><trkpt lat="45.8520542241425" lon="12.129632405672666"><ele>103.0</ele><time>2026-04-25T05:43:02Z</time></trkpt><trkpt lat="45.85194825853038" lon="12.12959186055159"><ele>103.0</ele><time>2026-04-25T05:43:04Z</time></trkpt><trkpt lat="45.85188766726664" lon="12.12956502621707"><ele>103.0</ele><time>2026-04-25T05:43:05Z</time></trkpt><trkpt lat="45.85177363489484" lon="12.129515834977932"><ele>103.0</ele><time>2026-04-25T05:43:07Z</time></trkpt><trkpt lat="45.851657480577636" lon="12.129464275332847"><ele>102.75</ele><time>2026-04-25T05:43:09Z</time></trkpt><trkpt lat="45.851545425666984" lon="12.129416848592633"><ele>102.5</ele><time>2026-04-25T05:43:11Z</time></trkpt><trkpt lat="45.851429342811166" lon="12.1293666506844"><ele>102.25</ele><time>2026-04-25T05:43:13Z</time></trkpt><trkpt lat="45.85131912400652" lon="12.129316121977679"><ele>102.0</ele><time>2026-04-25T05:43:15Z</time></trkpt><trkpt lat="45.85121150738398" lon="12.129273066803318"><ele>102.0</ele><time>2026-04-25T05:43:17Z</time></trkpt><trkpt lat="45.85112449219443" lon="12.12927040155939"><ele>102.0</ele><time>2026-04-25T05:43:19Z</time></trkpt><trkpt lat="45.851066323173406" lon="12.129346882876629"><ele>102.0</ele><time>2026-04-25T05:43:21Z</time></trkpt><trkpt lat="45.85106550690038" lon="12.12947014566661"><ele>102.0</ele><time>2026-04-25T05:43:23Z</time></trkpt><trkpt lat="45.85108647417996" lon="12.129573506567858"><ele>102.0</ele><time>2026-04-25T05:43:25Z</time></trkpt><trkpt lat="45.85108573848943" lon="12.129692958771571"><ele>102.0</ele><time>2026-04-25T05:43:27Z</time></trkpt><trkpt lat="45.85104280734769" lon="12.129803124592204"><ele>102.0</ele><time>2026-04-25T05:43:29Z</time></trkpt><trkpt lat="45.85094890375972" lon="12.129848212495158"><ele>102.0</ele><time>2026-04-25T05:43:31Z</time></trkpt><trkpt lat="45.850858412469066" lon="12.129789940932966"><ele>102.0</ele><time>2026-04-25T05:43:33Z</time></trkpt><trkpt lat="45.85081472287327" lon="12.129641494200737"><ele>102.0</ele><time>2026-04-25T05:43:35Z</time></trkpt><trkpt lat="45.85077964405847" lon="12.129486945354826"><ele>102.0</ele><time>2026-04-25T05:43:36.999Z</time></trkpt><trkpt lat="45.8507301909635" lon="12.129342779485185"><ele>102.0</ele><time>2026-04-25T05:43:38.999Z</time></trkpt><trkpt lat="45.85069072775083" lon="12.129198227247954"><ele>102.0</ele><time>2026-04-25T05:43:40.999Z</time></trkpt><trkpt lat="45.85065373186633" lon="12.129051688198254"><ele>102.0</ele><time>2026-04-25T05:43:42.999Z</time></trkpt><trkpt lat="45.85063560357633" lon="12.12889851884772"><ele>102.0</ele><time>2026-04-25T05:43:44.999Z</time></trkpt><trkpt lat="45.85065390818051" lon="12.128750249228078"><ele>102.0</ele><time>2026-04-25T05:43:46.999Z</time></trkpt><trkpt lat="45.85067980421432" lon="12.128603223979168"><ele>102.6</ele><time>2026-04-25T05:43:48.999Z</time></trkpt><trkpt lat="45.850681233492416" lon="12.128454175816461"><ele>103.19999999999999</ele><time>2026-04-25T05:43:50.998Z</time></trkpt><trkpt lat="45.85065358247855" lon="12.128299417209654"><ele>103.8</ele><time>2026-04-25T05:43:52.998Z</time></trkpt><trkpt lat="45.85061950543514" lon="12.128144284216521"><ele>104.4</ele><time>2026-04-25T05:43:54.998Z</time></trkpt><trkpt lat="45.85059099212288" lon="12.12798754879847"><ele>105.0</ele><time>2026-04-25T05:43:56.998Z</time></trkpt><trkpt lat="45.85056317919934" lon="12.127834711485086"><ele>105.0</ele><time>2026-04-25T05:43:58.998Z</time></trkpt><trkpt lat="45.850513155393834" lon="12.127688984139455"><ele>105.0</ele><time>2026-04-25T05:44:00.998Z</time></trkpt><trkpt lat="45.85045079468115" lon="12.127560322558983"><ele>105.0</ele><time>2026-04-25T05:44:02.998Z</time></trkpt><trkpt lat="45.850376562090034" lon="12.127447175162759"><ele>105.0</ele><time>2026-04-25T05:44:04.998Z</time></trkpt><trkpt lat="45.850324980318646" lon="12.127305961592127"><ele>105.0</ele><time>2026-04-25T05:44:06.998Z</time></trkpt><trkpt lat="45.85032058366499" lon="12.12714114238222"><ele>104.8</ele><time>2026-04-25T05:44:08.998Z</time></trkpt><trkpt lat="45.85032786026086" lon="12.126984676491922"><ele>104.6</ele><time>2026-04-25T05:44:10.998Z</time></trkpt><trkpt lat="45.850332855065695" lon="12.126832888442973"><ele>104.4</ele><time>2026-04-25T05:44:12.998Z</time></trkpt><trkpt lat="45.85034029704055" lon="12.126665740810367"><ele>104.2</ele><time>2026-04-25T05:44:14.998Z</time></trkpt><trkpt lat="45.85034734163698" lon="12.126499555910323"><ele>104.0</ele><time>2026-04-25T05:44:16.998Z</time></trkpt><trkpt lat="45.850349342474985" lon="12.126331464567729"><ele>104.0</ele><time>2026-04-25T05:44:18.998Z</time></trkpt><trkpt lat="45.850356216806944" lon="12.126169755526979"><ele>104.0</ele><time>2026-04-25T05:44:20.998Z</time></trkpt><trkpt lat="45.8503618067588" lon="12.126009271776066"><ele>104.0</ele><time>2026-04-25T05:44:22.998Z</time></trkpt><trkpt lat="45.850354499371704" lon="12.125846917736022"><ele>104.0</ele><time>2026-04-25T05:44:24.998Z</time></trkpt><trkpt lat="45.85033132143073" lon="12.125684668938318"><ele>104.25</ele><time>2026-04-25T05:44:26.998Z</time></trkpt><trkpt lat="45.850319946353686" lon="12.125523035615373"><ele>104.5</ele><time>2026-04-25T05:44:28.998Z</time></trkpt><trkpt lat="45.85029128025808" lon="12.125364769887055"><ele>104.75</ele><time>2026-04-25T05:44:30.998Z</time></trkpt><trkpt lat="45.85025985380882" lon="12.125206291128713"><ele>105.0</ele><time>2026-04-25T05:44:33Z</time></trkpt><trkpt lat="45.85022180277444" lon="12.125051461425755"><ele>105.0</ele><time>2026-04-25T05:44:35Z</time></trkpt><trkpt lat="45.85014626731988" lon="12.124928673488816"><ele>105.0</ele><time>2026-04-25T05:44:37Z</time></trkpt><trkpt lat="45.85004691029703" lon="12.124850569403016"><ele>105.0</ele><time>2026-04-25T05:44:39Z</time></trkpt><trkpt lat="45.84994281323894" lon="12.124790693760103"><ele>105.0</ele><time>2026-04-25T05:44:41Z</time></trkpt><trkpt lat="45.84983284665311" lon="12.124731767310166"><ele>105.0</ele><time>2026-04-25T05:44:43Z</time></trkpt><trkpt lat="45.84972685748409" lon="12.124680965507233"><ele>105.0</ele><time>2026-04-25T05:44:45Z</time></trkpt><trkpt lat="45.84962110858665" lon="12.124639670060413"><ele>105.0</ele><time>2026-04-25T05:44:47Z</time></trkpt><trkpt lat="45.84954421024293" lon="12.124550804080915"><ele>105.0</ele><time>2026-04-25T05:44:49Z</time></trkpt><trkpt lat="45.84955086973695" lon="12.124389159011608"><ele>105.0</ele><time>2026-04-25T05:44:51Z</time></trkpt><trkpt lat="45.84951920728308" lon="12.124235014908946"><ele>105.0</ele><time>2026-04-25T05:44:53Z</time></trkpt><trkpt lat="45.84949970364736" lon="12.124082111323673"><ele>105.0</ele><time>2026-04-25T05:44:55Z</time></trkpt><trkpt lat="45.849459368392836" lon="12.123933859969146"><ele>105.0</ele><time>2026-04-25T05:44:57Z</time></trkpt><trkpt lat="45.84942671630393" lon="12.123772592931358"><ele>105.0</ele><time>2026-04-25T05:44:58.999Z</time></trkpt><trkpt lat="45.84938993950149" lon="12.123620821834235"><ele>105.0</ele><time>2026-04-25T05:45:00.999Z</time></trkpt><trkpt lat="45.84934438944403" lon="12.123475272349216"><ele>105.0</ele><time>2026-04-25T05:45:02.999Z</time></trkpt><trkpt lat="45.84930281129668" lon="12.123324108504017"><ele>105.0</ele><time>2026-04-25T05:45:04.999Z</time></trkpt><trkpt lat="45.84926371616798" lon="12.123166780386546"><ele>105.0</ele><time>2026-04-25T05:45:06.999Z</time></trkpt><trkpt lat="45.84922776636926" lon="12.123015998931637"><ele>105.0</ele><time>2026-04-25T05:45:08.999Z</time></trkpt><trkpt lat="45.8491923110526" lon="12.122864123804002"><ele>105.4</ele><time>2026-04-25T05:45:10.999Z</time></trkpt><trkpt lat="45.849160482621514" lon="12.12271239568037"><ele>105.8</ele><time>2026-04-25T05:45:12.999Z</time></trkpt><trkpt lat="45.84912759108339" lon="12.122563991815712"><ele>106.19999999999999</ele><time>2026-04-25T05:45:14.999Z</time></trkpt><trkpt lat="45.849094900406406" lon="12.12241078952235"><ele>106.6</ele><time>2026-04-25T05:45:16.999Z</time></trkpt><trkpt lat="45.84906066147641" lon="12.122257407461946"><ele>107.0</ele><time>2026-04-25T05:45:18.999Z</time></trkpt><trkpt lat="45.84902258896112" lon="12.122105509122983"><ele>107.5</ele><time>2026-04-25T05:45:20.999Z</time></trkpt><trkpt lat="45.84897780636822" lon="12.121958370313916"><ele>108.0</ele><time>2026-04-25T05:45:22.999Z</time></trkpt><trkpt lat="45.84892703233546" lon="12.121814140154488"><ele>108.5</ele><time>2026-04-25T05:45:24.999Z</time></trkpt><trkpt lat="45.84888011832166" lon="12.121664035774714"><ele>109.0</ele><time>2026-04-25T05:45:26.999Z</time></trkpt><trkpt lat="45.848831781619104" lon="12.121516655819"><ele>109.0</ele><time>2026-04-25T05:45:28.999Z</time></trkpt><trkpt lat="45.848772654663605" lon="12.121373312167995"><ele>109.0</ele><time>2026-04-25T05:45:30.999Z</time></trkpt><trkpt lat="45.84871232975857" lon="12.121232849470246"><ele>109.0</ele><time>2026-04-25T05:45:32.999Z</time></trkpt><trkpt lat="45.84864744540411" lon="12.121097198026568"><ele>109.0</ele><time>2026-04-25T05:45:34.999Z</time></trkpt><trkpt lat="45.84859736408761" lon="12.120957760581856"><ele>109.0</ele><time>2026-04-25T05:45:36.999Z</time></trkpt><trkpt lat="45.848557084578424" lon="12.12081055752273"><ele>109.0</ele><time>2026-04-25T05:45:38.999Z</time></trkpt><trkpt lat="45.84852387924265" lon="12.120659116534243"><ele>109.0</ele><time>2026-04-25T05:45:40.999Z</time></trkpt><trkpt lat="45.848488650096506" lon="12.120513869886008"><ele>109.0</ele><time>2026-04-25T05:45:42.999Z</time></trkpt><trkpt lat="45.8484501330388" lon="12.120364991711435"><ele>109.0</ele><time>2026-04-25T05:45:44.999Z</time></trkpt><trkpt lat="45.84840989644646" lon="12.120211963502948"><ele>109.00000000000001</ele><time>2026-04-25T05:45:46.999Z</time></trkpt><trkpt lat="45.8483567287353" lon="12.12006141649373"><ele>109.0</ele><time>2026-04-25T05:45:48.999Z</time></trkpt><trkpt lat="45.848324370790785" lon="12.119978535002312"><ele>109.0</ele><time>2026-04-25T05:45:49.999Z</time></trkpt><trkpt lat="45.84829556813467" lon="12.11989686841105"><ele>109.0</ele><time>2026-04-25T05:45:50.999Z</time></trkpt><trkpt lat="45.84823682059345" lon="12.119744144856908"><ele>109.00000000000001</ele><time>2026-04-25T05:45:52.999Z</time></trkpt><trkpt lat="45.84819857826529" lon="12.119664688211541"><ele>109.0</ele><time>2026-04-25T05:45:53.999Z</time></trkpt><trkpt lat="45.84812598671581" lon="12.119517000758913"><ele>109.0</ele><time>2026-04-25T05:45:55.999Z</time></trkpt><trkpt lat="45.84804385068801" lon="12.119387858895715"><ele>109.0</ele><time>2026-04-25T05:45:57.998Z</time></trkpt><trkpt lat="45.847948041420075" lon="12.119280605744548"><ele>109.0</ele><time>2026-04-25T05:45:59.998Z</time></trkpt><trkpt lat="45.847862490147925" lon="12.119164229667195"><ele>109.0</ele><time>2026-04-25T05:46:01.998Z</time></trkpt><trkpt lat="45.847776939541056" lon="12.119061114669181"><ele>109.0</ele><time>2026-04-25T05:46:03.998Z</time></trkpt><trkpt lat="45.84770243953147" lon="12.11893549666867"><ele>109.0</ele><time>2026-04-25T05:46:05.998Z</time></trkpt><trkpt lat="45.84765245424594" lon="12.118777993931035"><ele>109.0</ele><time>2026-04-25T05:46:07.998Z</time></trkpt><trkpt lat="45.847631021218255" lon="12.118692319876635"><ele>109.0</ele><time>2026-04-25T05:46:08.998Z</time></trkpt><trkpt lat="45.847583135524935" lon="12.11853322400117"><ele>109.0</ele><time>2026-04-25T05:46:10.998Z</time></trkpt><trkpt lat="45.847552098182625" lon="12.118453681808989"><ele>109.0</ele><time>2026-04-25T05:46:11.998Z</time></trkpt><trkpt lat="45.84750361605143" lon="12.118297907700049"><ele>109.0</ele><time>2026-04-25T05:46:13.998Z</time></trkpt><trkpt lat="45.84745830456942" lon="12.11814032571051"><ele>109.0</ele><time>2026-04-25T05:46:15.998Z</time></trkpt><trkpt lat="45.84741413368363" lon="12.117989424758125"><ele>109.0</ele><time>2026-04-25T05:46:17.998Z</time></trkpt><trkpt lat="45.847364780640376" lon="12.11783916426801"><ele>109.25</ele><time>2026-04-25T05:46:19.998Z</time></trkpt><trkpt lat="45.84730935743775" lon="12.117697297139394"><ele>109.5</ele><time>2026-04-25T05:46:21.998Z</time></trkpt><trkpt lat="45.84723182433214" lon="12.11757195059183"><ele>109.75</ele><time>2026-04-25T05:46:23.998Z</time></trkpt><trkpt lat="45.847123631089794" lon="12.11751038450749"><ele>110.0</ele><time>2026-04-25T05:46:25.998Z</time></trkpt><trkpt lat="45.84700140209646" lon="12.117521544960145"><ele>110.0</ele><time>2026-04-25T05:46:27.998Z</time></trkpt><trkpt lat="45.84687786271529" lon="12.117527641643925"><ele>110.0</ele><time>2026-04-25T05:46:29.998Z</time></trkpt><trkpt lat="45.84675474484202" lon="12.117504340091223"><ele>110.0</ele><time>2026-04-25T05:46:31.998Z</time></trkpt><trkpt lat="45.846633265138756" lon="12.117467868339434"><ele>110.0</ele><time>2026-04-25T05:46:33.998Z</time></trkpt><trkpt lat="45.84657219577128" lon="12.11744444786853"><ele>110.0</ele><time>2026-04-25T05:46:34.998Z</time></trkpt><trkpt lat="45.84651093340288" lon="12.117422773898587"><ele>109.85714285714285</ele><time>2026-04-25T05:46:35.998Z</time></trkpt><trkpt lat="45.8464487950592" lon="12.117398358189691"><ele>109.71428571428571</ele><time>2026-04-25T05:46:36.998Z</time></trkpt><trkpt lat="45.846328912628245" lon="12.117348496816373"><ele>109.57142857142857</ele><time>2026-04-25T05:46:39Z</time></trkpt><trkpt lat="45.84627085651665" lon="12.117311510660363"><ele>109.42857142857142</ele><time>2026-04-25T05:46:40Z</time></trkpt><trkpt lat="45.846219060331734" lon="12.117257136294985"><ele>109.28571428571429</ele><time>2026-04-25T05:46:41Z</time></trkpt><trkpt lat="45.84617352817917" lon="12.117193247896855"><ele>109.14285714285714</ele><time>2026-04-25T05:46:42Z</time></trkpt><trkpt lat="45.84612454898194" lon="12.117129090887506"><ele>109.0</ele><time>2026-04-25T05:46:43Z</time></trkpt><trkpt lat="45.84603261333746" lon="12.11700485081911"><ele>109.25</ele><time>2026-04-25T05:46:45Z</time></trkpt><trkpt lat="45.84594093210364" lon="12.116884457739344"><ele>109.5</ele><time>2026-04-25T05:46:47Z</time></trkpt><trkpt lat="45.84585312608436" lon="12.116761509167052"><ele>109.75</ele><time>2026-04-25T05:46:49Z</time></trkpt><trkpt lat="45.84576428808473" lon="12.116640817559121"><ele>110.0</ele><time>2026-04-25T05:46:51Z</time></trkpt><trkpt lat="45.84568271498363" lon="12.11651051504585"><ele>110.0</ele><time>2026-04-25T05:46:53Z</time></trkpt><trkpt lat="45.845643173537596" lon="12.116436726754158"><ele>110.0</ele><time>2026-04-25T05:46:54Z</time></trkpt><trkpt lat="45.84556963660316" lon="12.116296678889293"><ele>110.0</ele><time>2026-04-25T05:46:56Z</time></trkpt><trkpt lat="45.84550446423465" lon="12.11614884620183"><ele>110.0</ele><time>2026-04-25T05:46:58Z</time></trkpt><trkpt lat="45.84544307064397" lon="12.116003217845957"><ele>110.0</ele><time>2026-04-25T05:47:00Z</time></trkpt><trkpt lat="45.84539535210935" lon="12.11584804829241"><ele>110.6</ele><time>2026-04-25T05:47:02Z</time></trkpt><trkpt lat="45.845362325388265" lon="12.115688231209825"><ele>111.2</ele><time>2026-04-25T05:47:04Z</time></trkpt><trkpt lat="45.845315837785" lon="12.11554597716733"><ele>111.80000000000001</ele><time>2026-04-25T05:47:06Z</time></trkpt><trkpt lat="45.845272400763044" lon="12.115414161054375"><ele>112.4</ele><time>2026-04-25T05:47:08Z</time></trkpt><trkpt lat="45.84526067993954" lon="12.115321852542987"><ele>113.0</ele><time>2026-04-25T05:47:10Z</time></trkpt><trkpt lat="45.84532042197171" lon="12.11527292628652"><ele>112.99999999999999</ele><time>2026-04-25T05:47:13Z</time></trkpt><trkpt lat="45.84538794592342" lon="12.115264829551366"><ele>113.0</ele><time>2026-04-25T05:47:15Z</time></trkpt><trkpt lat="45.845465546981345" lon="12.115261664120673"><ele>113.0</ele><time>2026-04-25T05:47:17Z</time></trkpt><trkpt lat="45.845548450642625" lon="12.11524420803043"><ele>113.0</ele><time>2026-04-25T05:47:18.999Z</time></trkpt><trkpt lat="45.845625691093026" lon="12.115242087250286"><ele>112.99999999999999</ele><time>2026-04-25T05:47:20.999Z</time></trkpt><trkpt lat="45.845712206675614" lon="12.115239313187049"><ele>113.0</ele><time>2026-04-25T05:47:22.999Z</time></trkpt><trkpt lat="45.84579392149576" lon="12.115228360860334"><ele>112.99999999999999</ele><time>2026-04-25T05:47:24.999Z</time></trkpt><trkpt lat="45.845880248862315" lon="12.11521096919908"><ele>113.0</ele><time>2026-04-25T05:47:26.999Z</time></trkpt><trkpt lat="45.84596483261388" lon="12.115199626968396"><ele>113.0</ele><time>2026-04-25T05:47:28.999Z</time></trkpt><trkpt lat="45.84603071822615" lon="12.115188025646065"><ele>113.0</ele><time>2026-04-25T05:47:30.999Z</time></trkpt><trkpt lat="45.84609327549372" lon="12.115172990536855"><ele>112.99999999999999</ele><time>2026-04-25T05:47:33.999Z</time></trkpt><trkpt lat="45.84613210622468" lon="12.1150882520857"><ele>113.0</ele><time>2026-04-25T05:47:46.999Z</time></trkpt><trkpt lat="45.8461185566106" lon="12.114976896227216"><ele>112.49999999999999</ele><time>2026-04-25T05:47:49.999Z</time></trkpt><trkpt lat="45.84611464989146" lon="12.114864744629777"><ele>112.0</ele><time>2026-04-25T05:47:52.999Z</time></trkpt><trkpt lat="45.84610135498013" lon="12.114775102861369"><ele>111.5</ele><time>2026-04-25T05:47:54.999Z</time></trkpt><trkpt lat="45.84609539934839" lon="12.114642591454487"><ele>111.0</ele><time>2026-04-25T05:47:57.999Z</time></trkpt><trkpt lat="45.84607979663245" lon="12.11453350630391"><ele>110.49999999999999</ele><time>2026-04-25T05:47:59.999Z</time></trkpt><trkpt lat="45.846067800397954" lon="12.11441512001418"><ele>110.0</ele><time>2026-04-25T05:48:01.999Z</time></trkpt><trkpt lat="45.846054234782635" lon="12.114307684970422"><ele>109.99999999999999</ele><time>2026-04-25T05:48:03.999Z</time></trkpt><trkpt lat="45.84604534423241" lon="12.114192524152479"><ele>110.0</ele><time>2026-04-25T05:48:05.999Z</time></trkpt><trkpt lat="45.84603328131169" lon="12.114073631210733"><ele>110.0</ele><time>2026-04-25T05:48:07.999Z</time></trkpt><trkpt lat="45.84602033984391" lon="12.113948793558222"><ele>110.0</ele><time>2026-04-25T05:48:09.999Z</time></trkpt><trkpt lat="45.846014605022184" lon="12.113832113475574"><ele>109.99999999999999</ele><time>2026-04-25T05:48:11.999Z</time></trkpt><trkpt lat="45.84601441629244" lon="12.113714979236867"><ele>110.0</ele><time>2026-04-25T05:48:13.999Z</time></trkpt><trkpt lat="45.84602868017207" lon="12.11358998506109"><ele>109.99999999999999</ele><time>2026-04-25T05:48:15.999Z</time></trkpt><trkpt lat="45.84603692638131" lon="12.113458126782378"><ele>110.0</ele><time>2026-04-25T05:48:17.998Z</time></trkpt><trkpt lat="45.84603555854152" lon="12.113324488626306"><ele>110.0</ele><time>2026-04-25T05:48:19.998Z</time></trkpt><trkpt lat="45.846044552615396" lon="12.113196416539141"><ele>110.0</ele><time>2026-04-25T05:48:21.998Z</time></trkpt><trkpt lat="45.84604417789343" lon="12.113068263639407"><ele>109.99999999999999</ele><time>2026-04-25T05:48:23.998Z</time></trkpt><trkpt lat="45.846029550322726" lon="12.11294824143972"><ele>110.0</ele><time>2026-04-25T05:48:25.998Z</time></trkpt><trkpt lat="45.846051146161116" lon="12.112822105332574"><ele>110.2</ele><time>2026-04-25T05:48:27.998Z</time></trkpt><trkpt lat="45.84608495518263" lon="12.112701473282712"><ele>110.4</ele><time>2026-04-25T05:48:29.998Z</time></trkpt><trkpt lat="45.8461252953807" lon="12.112595768180984"><ele>110.6</ele><time>2026-04-25T05:48:31.998Z</time></trkpt><trkpt lat="45.8462028541827" lon="12.11249408485519"><ele>110.8</ele><time>2026-04-25T05:48:33.998Z</time></trkpt><trkpt lat="45.846258650947284" lon="12.1123716601841"><ele>111.0</ele><time>2026-04-25T05:48:35.998Z</time></trkpt><trkpt lat="45.846316465165664" lon="12.112242595676339"><ele>111.0</ele><time>2026-04-25T05:48:37.998Z</time></trkpt><trkpt lat="45.846367164574055" lon="12.112109799500143"><ele>111.0</ele><time>2026-04-25T05:48:39.998Z</time></trkpt><trkpt lat="45.84639168639753" lon="12.11195419141961"><ele>111.0</ele><time>2026-04-25T05:48:41.998Z</time></trkpt><trkpt lat="45.84638487296473" lon="12.111797985552139"><ele>111.0</ele><time>2026-04-25T05:48:44Z</time></trkpt><trkpt lat="45.84636425339283" lon="12.111654292104678"><ele>111.0</ele><time>2026-04-25T05:48:46Z</time></trkpt><trkpt lat="45.846343553937444" lon="12.111520642807116"><ele>111.0</ele><time>2026-04-25T05:48:48Z</time></trkpt><trkpt lat="45.84634592574851" lon="12.111372781559957"><ele>111.0</ele><time>2026-04-25T05:48:50Z</time></trkpt><trkpt lat="45.846362889572156" lon="12.111281522238144"><ele>111.0</ele><time>2026-04-25T05:48:51Z</time></trkpt><trkpt lat="45.846459026454546" lon="12.111259597995168"><ele>111.0</ele><time>2026-04-25T05:48:53Z</time></trkpt><trkpt lat="45.8465491717723" lon="12.111180023127949"><ele>111.0</ele><time>2026-04-25T05:48:55Z</time></trkpt><trkpt lat="45.84662981220383" lon="12.111096806493125"><ele>111.0</ele><time>2026-04-25T05:48:57Z</time></trkpt><trkpt lat="45.84672157508797" lon="12.111039422153091"><ele>111.0</ele><time>2026-04-25T05:48:59Z</time></trkpt><trkpt lat="45.8468034712974" lon="12.110956225109735"><ele>111.0</ele><time>2026-04-25T05:49:01Z</time></trkpt><trkpt lat="45.84689228382272" lon="12.110918048908848"><ele>111.0</ele><time>2026-04-25T05:49:03Z</time></trkpt><trkpt lat="45.84697598120106" lon="12.110886457045016"><ele>111.0</ele><time>2026-04-25T05:49:05Z</time></trkpt><trkpt lat="45.84706916511743" lon="12.110829512972657"><ele>111.19999999999999</ele><time>2026-04-25T05:49:07Z</time></trkpt><trkpt lat="45.84714821671291" lon="12.110735111188715"><ele>111.39999999999999</ele><time>2026-04-25T05:49:09Z</time></trkpt><trkpt lat="45.84721446668625" lon="12.110637308299765"><ele>111.6</ele><time>2026-04-25T05:49:11Z</time></trkpt><trkpt lat="45.84720107109029" lon="12.110452643198128"><ele>111.8</ele><time>2026-04-25T05:49:13Z</time></trkpt><trkpt lat="45.847230750696994" lon="12.1103162084618"><ele>112.0</ele><time>2026-04-25T05:49:15Z</time></trkpt><trkpt lat="45.84727006781772" lon="12.110178389797698"><ele>112.0</ele><time>2026-04-25T05:49:17Z</time></trkpt><trkpt lat="45.84729908176412" lon="12.110022697728423"><ele>111.99999999999999</ele><time>2026-04-25T05:49:19Z</time></trkpt><trkpt lat="45.8473212576754" lon="12.109866135407254"><ele>111.99999999999999</ele><time>2026-04-25T05:49:21Z</time></trkpt><trkpt lat="45.847337396511776" lon="12.109709693614455"><ele>112.0</ele><time>2026-04-25T05:49:23Z</time></trkpt><trkpt lat="45.84734982399357" lon="12.10955700313397"><ele>112.0</ele><time>2026-04-25T05:49:25Z</time></trkpt><trkpt lat="45.84736161277394" lon="12.109400377569916"><ele>112.6</ele><time>2026-04-25T05:49:27Z</time></trkpt><trkpt lat="45.84737319613405" lon="12.109243174822202"><ele>113.19999999999999</ele><time>2026-04-25T05:49:29Z</time></trkpt><trkpt lat="45.8473844519715" lon="12.109090417020527"><ele>113.8</ele><time>2026-04-25T05:49:31Z</time></trkpt><trkpt lat="45.84739467714275" lon="12.10892960854513"><ele>114.4</ele><time>2026-04-25T05:49:33Z</time></trkpt><trkpt lat="45.847417308398775" lon="12.108781821903216"><ele>115.0</ele><time>2026-04-25T05:49:35Z</time></trkpt><trkpt lat="45.84746907261705" lon="12.108652697762505"><ele>115.0</ele><time>2026-04-25T05:49:37Z</time></trkpt><trkpt lat="45.84752482754863" lon="12.108520842241239"><ele>115.0</ele><time>2026-04-25T05:49:38.999Z</time></trkpt><trkpt lat="45.84757889601698" lon="12.108396740016746"><ele>115.0</ele><time>2026-04-25T05:49:40.999Z</time></trkpt><trkpt lat="45.847622802474916" lon="12.108305795842808"><ele>115.0</ele><time>2026-04-25T05:49:42.999Z</time></trkpt><trkpt lat="45.847530260624936" lon="12.108190528594"><ele>115.0</ele><time>2026-04-25T05:49:45.999Z</time></trkpt><trkpt lat="45.84741289058117" lon="12.108207664707225"><ele>115.0</ele><time>2026-04-25T05:49:48.999Z</time></trkpt><trkpt lat="45.84730753385174" lon="12.108211200751109"><ele>115.0</ele><time>2026-04-25T05:49:50.999Z</time></trkpt><trkpt lat="45.847206235704135" lon="12.1081982722438"><ele>115.0</ele><time>2026-04-25T05:49:52.999Z</time></trkpt><trkpt lat="45.84709657943481" lon="12.108199390320445"><ele>115.0</ele><time>2026-04-25T05:49:54.999Z</time></trkpt><trkpt lat="45.847041889313864" lon="12.10813533230978"><ele>115.0</ele><time>2026-04-25T05:49:55.999Z</time></trkpt><trkpt lat="45.846938262641146" lon="12.108126052668181"><ele>115.0</ele><time>2026-04-25T05:49:57.999Z</time></trkpt><trkpt lat="45.846825677113586" lon="12.108113263717371"><ele>115.0</ele><time>2026-04-25T05:49:59.999Z</time></trkpt><trkpt lat="45.846734852150234" lon="12.108025886146216"><ele>115.0</ele><time>2026-04-25T05:50:01.999Z</time></trkpt><trkpt lat="45.846747389719575" lon="12.107822488560048"><ele>115.0</ele><time>2026-04-25T05:50:03.999Z</time></trkpt><trkpt lat="45.84667256983458" lon="12.107711015536642"><ele>115.00000000000001</ele><time>2026-04-25T05:50:04.999Z</time></trkpt><trkpt lat="45.846613881048256" lon="12.107661178438974"><ele>115.0</ele><time>2026-04-25T05:50:05.999Z</time></trkpt><trkpt lat="45.84655763463531" lon="12.107619187196232"><ele>115.0</ele><time>2026-04-25T05:50:06.999Z</time></trkpt><trkpt lat="45.846496401408885" lon="12.107578351837788"><ele>115.0</ele><time>2026-04-25T05:50:07.999Z</time></trkpt><trkpt lat="45.84639054931264" lon="12.107511855005596"><ele>115.00000000000001</ele><time>2026-04-25T05:50:09.999Z</time></trkpt><trkpt lat="45.84629123819458" lon="12.107445218650993"><ele>115.0</ele><time>2026-04-25T05:50:11.999Z</time></trkpt><trkpt lat="45.846186414712406" lon="12.107369786514784"><ele>114.8</ele><time>2026-04-25T05:50:13.999Z</time></trkpt><trkpt lat="45.84608339955368" lon="12.107297191910382"><ele>114.6</ele><time>2026-04-25T05:50:15.999Z</time></trkpt><trkpt lat="45.84597285085133" lon="12.107225769285943"><ele>114.4</ele><time>2026-04-25T05:50:17.999Z</time></trkpt><trkpt lat="45.845914206742144" lon="12.107189261265834"><ele>114.2</ele><time>2026-04-25T05:50:18.999Z</time></trkpt><trkpt lat="45.845836027965824" lon="12.107161944237927"><ele>114.0</ele><time>2026-04-25T05:50:19.999Z</time></trkpt><trkpt lat="45.84569761513556" lon="12.107154173446544"><ele>114.4</ele><time>2026-04-25T05:50:21.999Z</time></trkpt><trkpt lat="45.84564013377708" lon="12.107297375208331"><ele>114.80000000000001</ele><time>2026-04-25T05:50:22.999Z</time></trkpt><trkpt lat="45.84554100052252" lon="12.10722560505424"><ele>115.19999999999999</ele><time>2026-04-25T05:50:24.999Z</time></trkpt><trkpt lat="45.845456429665326" lon="12.107176811639837"><ele>115.6</ele><time>2026-04-25T05:50:26.999Z</time></trkpt><trkpt lat="45.845390494304894" lon="12.107119900237198"><ele>116.0</ele><time>2026-04-25T05:50:28.999Z</time></trkpt><trkpt lat="45.84533052952393" lon="12.107072249665656"><ele>115.99999999999999</ele><time>2026-04-25T05:50:32.999Z</time></trkpt><trkpt lat="45.845260298580364" lon="12.10701124438793"><ele>116.0</ele><time>2026-04-25T05:50:38.998Z</time></trkpt><trkpt lat="45.845195488333836" lon="12.106938287670085"><ele>116.0</ele><time>2026-04-25T05:50:41.998Z</time></trkpt><trkpt lat="45.84512728914397" lon="12.106882717260236"><ele>116.0</ele><time>2026-04-25T05:50:43.998Z</time></trkpt><trkpt lat="45.84505078855011" lon="12.106822025095298"><ele>115.99999999999999</ele><time>2026-04-25T05:50:45.998Z</time></trkpt><trkpt lat="45.8449643459654" lon="12.106755596914374"><ele>116.0</ele><time>2026-04-25T05:50:47.998Z</time></trkpt><trkpt lat="45.84487725287946" lon="12.10669023714714"><ele>116.0</ele><time>2026-04-25T05:50:50.001Z</time></trkpt><trkpt lat="45.84478396047573" lon="12.106620225052264"><ele>116.0</ele><time>2026-04-25T05:50:52.001Z</time></trkpt><trkpt lat="45.84468761319585" lon="12.106547922180122"><ele>116.0</ele><time>2026-04-25T05:50:54.001Z</time></trkpt><trkpt lat="45.8445907696362" lon="12.106469017315765"><ele>116.0</ele><time>2026-04-25T05:50:56.001Z</time></trkpt><trkpt lat="45.84449365630291" lon="12.106389892647545"><ele>116.0</ele><time>2026-04-25T05:50:58.001Z</time></trkpt><trkpt lat="45.844394842531145" lon="12.10631122967662"><ele>116.0</ele><time>2026-04-25T05:51:00.001Z</time></trkpt><trkpt lat="45.84429693079842" lon="12.106237309611707"><ele>116.0</ele><time>2026-04-25T05:51:02.001Z</time></trkpt><trkpt lat="45.844196380903874" lon="12.106170931710198"><ele>116.0</ele><time>2026-04-25T05:51:04Z</time></trkpt><trkpt lat="45.84409928273644" lon="12.106115995647636"><ele>116.0</ele><time>2026-04-25T05:51:06Z</time></trkpt><trkpt lat="45.843994010145586" lon="12.106088610106813"><ele>116.0</ele><time>2026-04-25T05:51:08Z</time></trkpt><trkpt lat="45.843892672856875" lon="12.10604168983022"><ele>116.75</ele><time>2026-04-25T05:51:10Z</time></trkpt><trkpt lat="45.84378378360223" lon="12.105967311556999"><ele>117.5</ele><time>2026-04-25T05:51:12Z</time></trkpt><trkpt lat="45.84366565944463" lon="12.105940864355821"><ele>118.25</ele><time>2026-04-25T05:51:14Z</time></trkpt><trkpt lat="45.843558202092474" lon="12.105872457041443"><ele>119.0</ele><time>2026-04-25T05:51:16Z</time></trkpt><trkpt lat="45.84344928787151" lon="12.10582898577017"><ele>119.0</ele><time>2026-04-25T05:51:18Z</time></trkpt><trkpt lat="45.84333757844005" lon="12.105785117156536"><ele>119.0</ele><time>2026-04-25T05:51:20Z</time></trkpt><trkpt lat="45.843223450766416" lon="12.10576497768953"><ele>119.0</ele><time>2026-04-25T05:51:22Z</time></trkpt><trkpt lat="45.84311239969104" lon="12.105724582709852"><ele>119.0</ele><time>2026-04-25T05:51:24Z</time></trkpt><trkpt lat="45.843002594650514" lon="12.105675416613883"><ele>118.80000000000001</ele><time>2026-04-25T05:51:26Z</time></trkpt><trkpt lat="45.84289247967963" lon="12.105634372764982"><ele>118.60000000000001</ele><time>2026-04-25T05:51:28Z</time></trkpt><trkpt lat="45.84278147411695" lon="12.105589219473401"><ele>118.4</ele><time>2026-04-25T05:51:30Z</time></trkpt><trkpt lat="45.84267755836666" lon="12.10552694785101"><ele>118.2</ele><time>2026-04-25T05:51:32Z</time></trkpt><trkpt lat="45.84258693706608" lon="12.105489441855287"><ele>118.0</ele><time>2026-04-25T05:51:34Z</time></trkpt><trkpt lat="45.842527373406206" lon="12.10543911609459"><ele>117.80000000000001</ele><time>2026-04-25T05:51:36Z</time></trkpt><trkpt lat="45.842415748153655" lon="12.10528800234311"><ele>117.60000000000001</ele><time>2026-04-25T05:51:38Z</time></trkpt><trkpt lat="45.84243971140211" lon="12.10515991833837"><ele>117.39999999999999</ele><time>2026-04-25T05:51:40Z</time></trkpt><trkpt lat="45.84246344882303" lon="12.105033041390294"><ele>117.19999999999999</ele><time>2026-04-25T05:51:42Z</time></trkpt><trkpt lat="45.84248878145624" lon="12.104897637993332"><ele>117.0</ele><time>2026-04-25T05:51:44Z</time></trkpt><trkpt lat="45.842514913745646" lon="12.104757959835933"><ele>117.0</ele><time>2026-04-25T05:51:46Z</time></trkpt><trkpt lat="45.842541605252094" lon="12.104615292375716"><ele>116.99999999999999</ele><time>2026-04-25T05:51:48Z</time></trkpt><trkpt lat="45.842568916126574" lon="12.104469314357651"><ele>116.99999999999999</ele><time>2026-04-25T05:51:49.999Z</time></trkpt><trkpt lat="45.842682406193695" lon="12.104431982662346"><ele>117.0</ele><time>2026-04-25T05:51:50.999Z</time></trkpt><trkpt lat="45.84270885237662" lon="12.10428594546802"><ele>117.0</ele><time>2026-04-25T05:51:52.999Z</time></trkpt><trkpt lat="45.84273591915869" lon="12.10413735247255"><ele>117.0</ele><time>2026-04-25T05:51:54.999Z</time></trkpt><trkpt lat="45.84276664377472" lon="12.103979266761863"><ele>116.99999999999999</ele><time>2026-04-25T05:51:56.999Z</time></trkpt><trkpt lat="45.8427915939711" lon="12.103828287663509"><ele>116.99999999999999</ele><time>2026-04-25T05:51:58.999Z</time></trkpt><trkpt lat="45.842817324912566" lon="12.1036732125258"><ele>117.0</ele><time>2026-04-25T05:52:00.999Z</time></trkpt><trkpt lat="45.84284599100284" lon="12.103513179609196"><ele>117.0</ele><time>2026-04-25T05:52:02.998Z</time></trkpt><trkpt lat="45.8428714761764" lon="12.103352341843268"><ele>117.5</ele><time>2026-04-25T05:52:04.998Z</time></trkpt><trkpt lat="45.842901183841555" lon="12.103190912105262"><ele>118.0</ele><time>2026-04-25T05:52:06.998Z</time></trkpt><trkpt lat="45.84292761682649" lon="12.103026533026153"><ele>118.5</ele><time>2026-04-25T05:52:08.998Z</time></trkpt><trkpt lat="45.8429558430797" lon="12.10286146697706"><ele>119.0</ele><time>2026-04-25T05:52:10.998Z</time></trkpt><trkpt lat="45.84298571673432" lon="12.102695526881876"><ele>119.0</ele><time>2026-04-25T05:52:12.998Z</time></trkpt><trkpt lat="45.84301580190544" lon="12.102534364277673"><ele>119.0</ele><time>2026-04-25T05:52:14.998Z</time></trkpt><trkpt lat="45.843045471740595" lon="12.102367683711256"><ele>119.0</ele><time>2026-04-25T05:52:16.998Z</time></trkpt><trkpt lat="45.843074739823685" lon="12.102202185348862"><ele>119.0</ele><time>2026-04-25T05:52:18.998Z</time></trkpt><trkpt lat="45.84309975081479" lon="12.102038052013636"><ele>119.0</ele><time>2026-04-25T05:52:20.998Z</time></trkpt><trkpt lat="45.84312959707652" lon="12.101864151099369"><ele>119.0</ele><time>2026-04-25T05:52:22.998Z</time></trkpt><trkpt lat="45.84315997851902" lon="12.101709122855265"><ele>119.0</ele><time>2026-04-25T05:52:24.998Z</time></trkpt><trkpt lat="45.84318711482434" lon="12.101551971409332"><ele>119.0</ele><time>2026-04-25T05:52:26.998Z</time></trkpt><trkpt lat="45.84321489137812" lon="12.101396712272345"><ele>119.0</ele><time>2026-04-25T05:52:28.998Z</time></trkpt><trkpt lat="45.84324275488301" lon="12.101230301925282"><ele>119.0</ele><time>2026-04-25T05:52:30.998Z</time></trkpt><trkpt lat="45.84327434558193" lon="12.101068856174637"><ele>119.0</ele><time>2026-04-25T05:52:32.998Z</time></trkpt><trkpt lat="45.843308057512886" lon="12.100902546307658"><ele>119.0</ele><time>2026-04-25T05:52:34.998Z</time></trkpt><trkpt lat="45.84333856673344" lon="12.100742652578742"><ele>118.75</ele><time>2026-04-25T05:52:36.998Z</time></trkpt><trkpt lat="45.84336947080522" lon="12.100570830353387"><ele>118.5</ele><time>2026-04-25T05:52:38.998Z</time></trkpt><trkpt lat="45.843397228946365" lon="12.100404828646512"><ele>118.25</ele><time>2026-04-25T05:52:40.998Z</time></trkpt><trkpt lat="45.843430095819436" lon="12.100240825371461"><ele>118.0</ele><time>2026-04-25T05:52:42.998Z</time></trkpt><trkpt lat="45.8434591081172" lon="12.100075420187258"><ele>117.75</ele><time>2026-04-25T05:52:44.998Z</time></trkpt><trkpt lat="45.84348957882869" lon="12.099917153443638"><ele>117.5</ele><time>2026-04-25T05:52:46.998Z</time></trkpt><trkpt lat="45.84351761258392" lon="12.099750821162823"><ele>117.25</ele><time>2026-04-25T05:52:48.998Z</time></trkpt><trkpt lat="45.843545838311535" lon="12.099580621179056"><ele>117.0</ele><time>2026-04-25T05:52:50.998Z</time></trkpt><trkpt lat="45.84357574028214" lon="12.09942023841279"><ele>117.0</ele><time>2026-04-25T05:52:52.998Z</time></trkpt><trkpt lat="45.843608829767916" lon="12.099257126388657"><ele>116.99999999999999</ele><time>2026-04-25T05:52:55Z</time></trkpt><trkpt lat="45.8436234624949" lon="12.09916883621033"><ele>116.99999999999999</ele><time>2026-04-25T05:52:56Z</time></trkpt><trkpt lat="45.84365195924294" lon="12.099008981186065"><ele>117.0</ele><time>2026-04-25T05:52:58Z</time></trkpt><trkpt lat="45.8436797409104" lon="12.09884879216682"><ele>117.0</ele><time>2026-04-25T05:53:00Z</time></trkpt><trkpt lat="45.84365484447304" lon="12.098699623724297"><ele>117.0</ele><time>2026-04-25T05:53:02Z</time></trkpt><trkpt lat="45.84355996726461" lon="12.098617854217306"><ele>116.99999999999999</ele><time>2026-04-25T05:53:04Z</time></trkpt><trkpt lat="45.843467541456924" lon="12.098628469934756"><ele>116.99999999999999</ele><time>2026-04-25T05:53:06Z</time></trkpt><trkpt lat="45.84336591705451" lon="12.098710919329077"><ele>117.0</ele><time>2026-04-25T05:53:08Z</time></trkpt><trkpt lat="45.84327720830036" lon="12.098821400033913"><ele>117.0</ele><time>2026-04-25T05:53:10Z</time></trkpt><trkpt lat="45.84319118488424" lon="12.098936153880508"><ele>117.5</ele><time>2026-04-25T05:53:12Z</time></trkpt><trkpt lat="45.84310306029248" lon="12.099053716067948"><ele>118.0</ele><time>2026-04-25T05:53:14Z</time></trkpt><trkpt lat="45.84301719255791" lon="12.099172065101037"><ele>118.5</ele><time>2026-04-25T05:53:16Z</time></trkpt><trkpt lat="45.84293890339416" lon="12.099290386385334"><ele>119.0</ele><time>2026-04-25T05:53:18Z</time></trkpt><trkpt lat="45.84285143766475" lon="12.099372432888003"><ele>119.0</ele><time>2026-04-25T05:53:20Z</time></trkpt><trkpt lat="45.842761972393255" lon="12.0993255309399"><ele>119.0</ele><time>2026-04-25T05:53:22Z</time></trkpt><trkpt lat="45.84273552654613" lon="12.099185497783216"><ele>119.0</ele><time>2026-04-25T05:53:23.999Z</time></trkpt><trkpt lat="45.842736478675285" lon="12.099044432567592"><ele>119.0</ele><time>2026-04-25T05:53:25.999Z</time></trkpt><trkpt lat="45.84274196430908" lon="12.098890087394794"><ele>119.0</ele><time>2026-04-25T05:53:27.999Z</time></trkpt><trkpt lat="45.842736770378266" lon="12.098730475806414"><ele>119.0</ele><time>2026-04-25T05:53:29.999Z</time></trkpt><trkpt lat="45.84272815209493" lon="12.098567899178697"><ele>119.0</ele><time>2026-04-25T05:53:31.999Z</time></trkpt><trkpt lat="45.8427265925954" lon="12.09840302057644"><ele>119.0</ele><time>2026-04-25T05:53:33.999Z</time></trkpt><trkpt lat="45.84273262500336" lon="12.098242891474092"><ele>119.0</ele><time>2026-04-25T05:53:35.999Z</time></trkpt><trkpt lat="45.8427798244622" lon="12.098088461953864"><ele>119.0</ele><time>2026-04-25T05:53:37.999Z</time></trkpt><trkpt lat="45.84287774243117" lon="12.097995019947774"><ele>119.0</ele><time>2026-04-25T05:53:39.999Z</time></trkpt><trkpt lat="45.84297372756973" lon="12.097901612333253"><ele>119.0</ele><time>2026-04-25T05:53:41.999Z</time></trkpt><trkpt lat="45.84306557105666" lon="12.097814785726946"><ele>119.0</ele><time>2026-04-25T05:53:43.999Z</time></trkpt><trkpt lat="45.84315739038337" lon="12.097723494024482"><ele>119.0</ele><time>2026-04-25T05:53:45.999Z</time></trkpt><trkpt lat="45.84324823055879" lon="12.097627047048633"><ele>119.0</ele><time>2026-04-25T05:53:47.999Z</time></trkpt><trkpt lat="45.843318937897386" lon="12.097512332752663"><ele>119.0</ele><time>2026-04-25T05:53:49.999Z</time></trkpt><trkpt lat="45.84336159369679" lon="12.09736033392785"><ele>119.0</ele><time>2026-04-25T05:53:51.999Z</time></trkpt><trkpt lat="45.8433961842114" lon="12.09719508698004"><ele>119.25</ele><time>2026-04-25T05:53:53.999Z</time></trkpt><trkpt lat="45.843444165417374" lon="12.097037518976284"><ele>119.5</ele><time>2026-04-25T05:53:55.999Z</time></trkpt><trkpt lat="45.84350139661497" lon="12.096887486373836"><ele>119.75</ele><time>2026-04-25T05:53:57.999Z</time></trkpt><trkpt lat="45.843547807798664" lon="12.09673176378133"><ele>120.0</ele><time>2026-04-25T05:53:59.999Z</time></trkpt><trkpt lat="45.843591138583605" lon="12.09657982185978"><ele>120.25</ele><time>2026-04-25T05:54:01.999Z</time></trkpt><trkpt lat="45.84363954196524" lon="12.096426828302738"><ele>120.5</ele><time>2026-04-25T05:54:03.999Z</time></trkpt><trkpt lat="45.84368408014948" lon="12.096269531238491"><ele>120.75</ele><time>2026-04-25T05:54:05.999Z</time></trkpt><trkpt lat="45.84373686858383" lon="12.096118533833888"><ele>121.0</ele><time>2026-04-25T05:54:07.999Z</time></trkpt><trkpt lat="45.843785183005906" lon="12.09596628498146"><ele>121.0</ele><time>2026-04-25T05:54:09.999Z</time></trkpt><trkpt lat="45.8438412776789" lon="12.095814533203471"><ele>121.0</ele><time>2026-04-25T05:54:11.999Z</time></trkpt><trkpt lat="45.84389605277776" lon="12.095663410026566"><ele>121.0</ele><time>2026-04-25T05:54:13.999Z</time></trkpt><trkpt lat="45.84393044289873" lon="12.095584747234428"><ele>121.0</ele><time>2026-04-25T05:54:14.999Z</time></trkpt><trkpt lat="45.84399623125461" lon="12.095446927618292"><ele>121.0</ele><time>2026-04-25T05:54:16.998Z</time></trkpt><trkpt lat="45.844038464951325" lon="12.095295861022112"><ele>120.8</ele><time>2026-04-25T05:54:18.998Z</time></trkpt><trkpt lat="45.8440396575052" lon="12.09514314357877"><ele>120.6</ele><time>2026-04-25T05:54:20.998Z</time></trkpt><trkpt lat="45.84401981641293" lon="12.09497752956067"><ele>120.4</ele><time>2026-04-25T05:54:22.998Z</time></trkpt><trkpt lat="45.84399742731784" lon="12.094817756185712"><ele>120.2</ele><time>2026-04-25T05:54:24.998Z</time></trkpt><trkpt lat="45.84398931610244" lon="12.094662719101413"><ele>120.0</ele><time>2026-04-25T05:54:26.998Z</time></trkpt><trkpt lat="45.84398106767611" lon="12.094509491361872"><ele>119.8</ele><time>2026-04-25T05:54:28.998Z</time></trkpt><trkpt lat="45.84396867490302" lon="12.094372023786281"><ele>119.6</ele><time>2026-04-25T05:54:30.998Z</time></trkpt><trkpt lat="45.843955761507154" lon="12.094273884911775"><ele>119.4</ele><time>2026-04-25T05:54:32.998Z</time></trkpt><trkpt lat="45.84396737676229" lon="12.094154304440695"><ele>119.2</ele><time>2026-04-25T05:54:34.998Z</time></trkpt><trkpt lat="45.84395249562961" lon="12.093994221138429"><ele>119.0</ele><time>2026-04-25T05:54:36.998Z</time></trkpt><trkpt lat="45.84393948905194" lon="12.093830420135"><ele>119.0</ele><time>2026-04-25T05:54:38.998Z</time></trkpt><trkpt lat="45.843938244356785" lon="12.093665905777582"><ele>119.0</ele><time>2026-04-25T05:54:40.998Z</time></trkpt><trkpt lat="45.84394123997613" lon="12.093500472660834"><ele>119.0</ele><time>2026-04-25T05:54:42.998Z</time></trkpt><trkpt lat="45.84395314554751" lon="12.09332768210916"><ele>119.0</ele><time>2026-04-25T05:54:44.998Z</time></trkpt><trkpt lat="45.84396208064803" lon="12.093151937370134"><ele>118.75</ele><time>2026-04-25T05:54:46.998Z</time></trkpt><trkpt lat="45.84399220813183" lon="12.092995416808249"><ele>118.5</ele><time>2026-04-25T05:54:48.998Z</time></trkpt><trkpt lat="45.844053932738206" lon="12.092854390054615"><ele>118.25</ele><time>2026-04-25T05:54:50.998Z</time></trkpt><trkpt lat="45.84411408101796" lon="12.092711533866"><ele>118.0</ele><time>2026-04-25T05:54:52.998Z</time></trkpt><trkpt lat="45.84417408512041" lon="12.092570379350642"><ele>118.0</ele><time>2026-04-25T05:54:54.998Z</time></trkpt><trkpt lat="45.84420207181296" lon="12.092485768295159"><ele>118.00000000000001</ele><time>2026-04-25T05:54:55.998Z</time></trkpt><trkpt lat="45.84425491775755" lon="12.092331684197223"><ele>118.00000000000001</ele><time>2026-04-25T05:54:57.998Z</time></trkpt><trkpt lat="45.84431350139176" lon="12.092176222517212"><ele>118.0</ele><time>2026-04-25T05:54:59.998Z</time></trkpt><trkpt lat="45.84437387459622" lon="12.092015450509612"><ele>118.0</ele><time>2026-04-25T05:55:02Z</time></trkpt><trkpt lat="45.84440220546931" lon="12.091933941988518"><ele>118.28571428571428</ele><time>2026-04-25T05:55:03Z</time></trkpt><trkpt lat="45.844431639649756" lon="12.091853936948516"><ele>118.57142857142858</ele><time>2026-04-25T05:55:04Z</time></trkpt><trkpt lat="45.844466095361746" lon="12.091773725131324"><ele>118.85714285714286</ele><time>2026-04-25T05:55:05Z</time></trkpt><trkpt lat="45.844497656178824" lon="12.091694514235"><ele>119.14285714285714</ele><time>2026-04-25T05:55:06Z</time></trkpt><trkpt lat="45.844528391544706" lon="12.091610927546725"><ele>119.42857142857142</ele><time>2026-04-25T05:55:07Z</time></trkpt><trkpt lat="45.84458879159724" lon="12.091454712842204"><ele>119.71428571428572</ele><time>2026-04-25T05:55:09Z</time></trkpt><trkpt lat="45.84461876012982" lon="12.09137437316361"><ele>120.0</ele><time>2026-04-25T05:55:10Z</time></trkpt><trkpt lat="45.84464903612927" lon="12.091292220415612"><ele>120.0</ele><time>2026-04-25T05:55:11Z</time></trkpt><trkpt lat="45.84470501695123" lon="12.091133654468015"><ele>120.0</ele><time>2026-04-25T05:55:13Z</time></trkpt><trkpt lat="45.84473114412379" lon="12.091049658308739"><ele>120.0</ele><time>2026-04-25T05:55:14Z</time></trkpt><trkpt lat="45.84476562236983" lon="12.090970737931285"><ele>120.0</ele><time>2026-04-25T05:55:15Z</time></trkpt><trkpt lat="45.84482202444443" lon="12.090810004532038"><ele>120.0</ele><time>2026-04-25T05:55:17Z</time></trkpt><trkpt lat="45.844884613309425" lon="12.090653014434542"><ele>120.0</ele><time>2026-04-25T05:55:19Z</time></trkpt><trkpt lat="45.84494595228035" lon="12.090496361579195"><ele>120.0</ele><time>2026-04-25T05:55:21Z</time></trkpt><trkpt lat="45.84497622545402" lon="12.090414142434776"><ele>120.0</ele><time>2026-04-25T05:55:22Z</time></trkpt><trkpt lat="45.84500846457385" lon="12.090335489289362"><ele>120.0</ele><time>2026-04-25T05:55:23Z</time></trkpt><trkpt lat="45.845069279437915" lon="12.090177580290137"><ele>120.0</ele><time>2026-04-25T05:55:25Z</time></trkpt><trkpt lat="45.845100217537244" lon="12.090095735982054"><ele>120.0</ele><time>2026-04-25T05:55:26Z</time></trkpt><trkpt lat="45.845130886955225" lon="12.090015213931258"><ele>119.83333333333333</ele><time>2026-04-25T05:55:27Z</time></trkpt><trkpt lat="45.845191689051624" lon="12.0898556361825"><ele>119.66666666666666</ele><time>2026-04-25T05:55:29Z</time></trkpt><trkpt lat="45.845224315656274" lon="12.08977488546162"><ele>119.5</ele><time>2026-04-25T05:55:30Z</time></trkpt><trkpt lat="45.84525397350453" lon="12.08969369668437"><ele>119.33333333333333</ele><time>2026-04-25T05:55:31Z</time></trkpt><trkpt lat="45.845284430384204" lon="12.08960979388819"><ele>119.16666666666666</ele><time>2026-04-25T05:55:32Z</time></trkpt><trkpt lat="45.845343461758624" lon="12.08944953679746"><ele>119.0</ele><time>2026-04-25T05:55:34Z</time></trkpt><trkpt lat="45.84537437014189" lon="12.089367007773195"><ele>119.0</ele><time>2026-04-25T05:55:35Z</time></trkpt><trkpt lat="45.845442886359" lon="12.08922760179801"><ele>119.0</ele><time>2026-04-25T05:55:37Z</time></trkpt><trkpt lat="45.84553364574801" lon="12.089105253433166"><ele>119.0</ele><time>2026-04-25T05:55:39Z</time></trkpt><trkpt lat="45.84556232362278" lon="12.089018403482406"><ele>119.0</ele><time>2026-04-25T05:55:40Z</time></trkpt><trkpt lat="45.845576880188936" lon="12.08892608081024"><ele>119.0</ele><time>2026-04-25T05:55:40.999Z</time></trkpt><trkpt lat="45.84565027890792" lon="12.088845221923727"><ele>119.75</ele><time>2026-04-25T05:55:41.999Z</time></trkpt><trkpt lat="45.84566999295574" lon="12.088680817236245"><ele>120.5</ele><time>2026-04-25T05:55:43.999Z</time></trkpt><trkpt lat="45.84569512949639" lon="12.088512449763158"><ele>121.25</ele><time>2026-04-25T05:55:45.999Z</time></trkpt><trkpt lat="45.8457186241246" lon="12.088361091426743"><ele>122.0</ele><time>2026-04-25T05:55:47.999Z</time></trkpt><trkpt lat="45.845744069323764" lon="12.088197166971048"><ele>122.0</ele><time>2026-04-25T05:55:49.999Z</time></trkpt><trkpt lat="45.845757811067124" lon="12.08810831377391"><ele>121.99999999999999</ele><time>2026-04-25T05:55:50.999Z</time></trkpt><trkpt lat="45.84578267147824" lon="12.087938264391218"><ele>121.99999999999999</ele><time>2026-04-25T05:55:52.999Z</time></trkpt><trkpt lat="45.84580316942254" lon="12.087774075111327"><ele>122.0</ele><time>2026-04-25T05:55:54.999Z</time></trkpt><trkpt lat="45.845813812791576" lon="12.087679882624188"><ele>122.0</ele><time>2026-04-25T05:55:55.999Z</time></trkpt><trkpt lat="45.845831922237586" lon="12.08750896691171"><ele>121.6</ele><time>2026-04-25T05:55:57.999Z</time></trkpt><trkpt lat="45.84584928918762" lon="12.087332017762375"><ele>121.19999999999999</ele><time>2026-04-25T05:55:59.999Z</time></trkpt><trkpt lat="45.84585786102906" lon="12.087240482732572"><ele>120.8</ele><time>2026-04-25T05:56:00.999Z</time></trkpt><trkpt lat="45.84587448968045" lon="12.087062912485262"><ele>120.4</ele><time>2026-04-25T05:56:02.999Z</time></trkpt><trkpt lat="45.84589156087562" lon="12.08688478596945"><ele>120.0</ele><time>2026-04-25T05:56:04.999Z</time></trkpt><trkpt lat="45.84590889921031" lon="12.086713603876483"><ele>120.0</ele><time>2026-04-25T05:56:06.999Z</time></trkpt><trkpt lat="45.845918402534906" lon="12.086619777203548"><ele>120.0</ele><time>2026-04-25T05:56:07.999Z</time></trkpt><trkpt lat="45.8459275544659" lon="12.086529419828567"><ele>120.0</ele><time>2026-04-25T05:56:08.999Z</time></trkpt><trkpt lat="45.845945198830506" lon="12.086355216369723"><ele>120.0</ele><time>2026-04-25T05:56:10.999Z</time></trkpt><trkpt lat="45.84596323423557" lon="12.086179773979108"><ele>120.0</ele><time>2026-04-25T05:56:12.999Z</time></trkpt><trkpt lat="45.84598137455826" lon="12.086007700037063"><ele>120.16666666666667</ele><time>2026-04-25T05:56:14.999Z</time></trkpt><trkpt lat="45.84600209261019" lon="12.085831979060254"><ele>120.33333333333334</ele><time>2026-04-25T05:56:16.999Z</time></trkpt><trkpt lat="45.84601401385168" lon="12.085741866159092"><ele>120.5</ele><time>2026-04-25T05:56:17.999Z</time></trkpt><trkpt lat="45.84603994383877" lon="12.085568653145089"><ele>120.66666666666667</ele><time>2026-04-25T05:56:19.999Z</time></trkpt><trkpt lat="45.84605524974731" lon="12.085478711706594"><ele>120.83333333333334</ele><time>2026-04-25T05:56:20.999Z</time></trkpt><trkpt lat="45.84606219777146" lon="12.085387405413694"><ele>121.0</ele><time>2026-04-25T05:56:21.999Z</time></trkpt><trkpt lat="45.84610701897132" lon="12.085218275387929"><ele>121.00000000000001</ele><time>2026-04-25T05:56:23.999Z</time></trkpt><trkpt lat="45.84612724181859" lon="12.0851316525053"><ele>121.0</ele><time>2026-04-25T05:56:24.999Z</time></trkpt><trkpt lat="45.84616745175971" lon="12.084962274480699"><ele>121.0</ele><time>2026-04-25T05:56:26.999Z</time></trkpt><trkpt lat="45.84618889193866" lon="12.084876587143699"><ele>121.0</ele><time>2026-04-25T05:56:27.999Z</time></trkpt><trkpt lat="45.84621084093319" lon="12.084788550299626"><ele>121.00000000000001</ele><time>2026-04-25T05:56:28.999Z</time></trkpt><trkpt lat="45.84625367602413" lon="12.08461246349198"><ele>121.0</ele><time>2026-04-25T05:56:30.999Z</time></trkpt><trkpt lat="45.84625904680791" lon="12.084514070092991"><ele>121.0</ele><time>2026-04-25T05:56:31.999Z</time></trkpt><trkpt lat="45.84629995688761" lon="12.08435004218487"><ele>121.0</ele><time>2026-04-25T05:56:33.999Z</time></trkpt><trkpt lat="45.84631640593091" lon="12.084262678829392"><ele>121.0</ele><time>2026-04-25T05:56:34.999Z</time></trkpt><trkpt lat="45.846358461673866" lon="12.084091345246874"><ele>121.0</ele><time>2026-04-25T05:56:36.999Z</time></trkpt><trkpt lat="45.84637616369871" lon="12.08400447592514"><ele>121.0</ele><time>2026-04-25T05:56:37.998Z</time></trkpt><trkpt lat="45.846425256400074" lon="12.083839556005154"><ele>121.0</ele><time>2026-04-25T05:56:39.998Z</time></trkpt><trkpt lat="45.846461343220795" lon="12.08367660404803"><ele>121.0</ele><time>2026-04-25T05:56:41.998Z</time></trkpt><trkpt lat="45.846497755317706" lon="12.083517501032615"><ele>121.0</ele><time>2026-04-25T05:56:43.998Z</time></trkpt><trkpt lat="45.846533395905006" lon="12.08334305017896"><ele>121.0</ele><time>2026-04-25T05:56:45.998Z</time></trkpt><trkpt lat="45.84657776391286" lon="12.083181479231477"><ele>121.6</ele><time>2026-04-25T05:56:47.998Z</time></trkpt><trkpt lat="45.84659854758635" lon="12.083092600502013"><ele>122.19999999999999</ele><time>2026-04-25T05:56:48.998Z</time></trkpt><trkpt lat="45.84663698881573" lon="12.082915991388935"><ele>122.80000000000001</ele><time>2026-04-25T05:56:50.998Z</time></trkpt><trkpt lat="45.84665371874384" lon="12.08282793984661"><ele>123.4</ele><time>2026-04-25T05:56:51.998Z</time></trkpt><trkpt lat="45.84668175544285" lon="12.082649345553607"><ele>124.0</ele><time>2026-04-25T05:56:53.998Z</time></trkpt><trkpt lat="45.84668435196834" lon="12.08255665398336"><ele>124.25</ele><time>2026-04-25T05:56:54.998Z</time></trkpt><trkpt lat="45.84670361615767" lon="12.082387764937232"><ele>124.5</ele><time>2026-04-25T05:56:56.998Z</time></trkpt><trkpt lat="45.84671502513333" lon="12.082216073755324"><ele>124.75</ele><time>2026-04-25T05:56:58.998Z</time></trkpt><trkpt lat="45.84672151737308" lon="12.082055110035506"><ele>125.0</ele><time>2026-04-25T05:57:00.998Z</time></trkpt><trkpt lat="45.846763000898314" lon="12.081904883779705"><ele>124.8</ele><time>2026-04-25T05:57:02.998Z</time></trkpt><trkpt lat="45.84680073926166" lon="12.081763749818649"><ele>124.6</ele><time>2026-04-25T05:57:04.998Z</time></trkpt><trkpt lat="45.846846184598874" lon="12.081622338264555"><ele>124.4</ele><time>2026-04-25T05:57:07Z</time></trkpt><trkpt lat="45.84691218100435" lon="12.08150222479434"><ele>124.2</ele><time>2026-04-25T05:57:09Z</time></trkpt><trkpt lat="45.847003270150196" lon="12.081430244414053"><ele>124.0</ele><time>2026-04-25T05:57:11Z</time></trkpt><trkpt lat="45.84710683702965" lon="12.081394455536058"><ele>124.4</ele><time>2026-04-25T05:57:13Z</time></trkpt><trkpt lat="45.847203338840536" lon="12.081339982155967"><ele>124.80000000000001</ele><time>2026-04-25T05:57:15Z</time></trkpt><trkpt lat="45.84727404332917" lon="12.081252977027734"><ele>125.19999999999999</ele><time>2026-04-25T05:57:17Z</time></trkpt><trkpt lat="45.847361294848874" lon="12.081189081376916"><ele>125.6</ele><time>2026-04-25T05:57:19Z</time></trkpt><trkpt lat="45.84745081592487" lon="12.081129461255143"><ele>126.0</ele><time>2026-04-25T05:57:21Z</time></trkpt><trkpt lat="45.84754471444192" lon="12.081036111988576"><ele>125.83333333333333</ele><time>2026-04-25T05:57:23Z</time></trkpt><trkpt lat="45.847630042329726" lon="12.080918969167298"><ele>125.66666666666666</ele><time>2026-04-25T05:57:25Z</time></trkpt><trkpt lat="45.84769530211549" lon="12.080779389980782"><ele>125.5</ele><time>2026-04-25T05:57:27Z</time></trkpt><trkpt lat="45.84770652480152" lon="12.080682926427329"><ele>125.33333333333333</ele><time>2026-04-25T05:57:28Z</time></trkpt><trkpt lat="45.84769322105956" lon="12.080588406047926"><ele>125.16666666666666</ele><time>2026-04-25T05:57:29Z</time></trkpt><trkpt lat="45.84764405223837" lon="12.080502175008505"><ele>125.0</ele><time>2026-04-25T05:57:30Z</time></trkpt><trkpt lat="45.84758421820313" lon="12.08037400684147"><ele>125.0</ele><time>2026-04-25T05:57:32Z</time></trkpt><trkpt lat="45.847543602295076" lon="12.080229404024966"><ele>125.0</ele><time>2026-04-25T05:57:34Z</time></trkpt><trkpt lat="45.84752064409841" lon="12.080092584095208"><ele>125.0</ele><time>2026-04-25T05:57:36Z</time></trkpt><trkpt lat="45.84756400087346" lon="12.079950842717183"><ele>125.0</ele><time>2026-04-25T05:57:38Z</time></trkpt><trkpt lat="45.84761932217672" lon="12.079799133571218"><ele>125.0</ele><time>2026-04-25T05:57:40Z</time></trkpt><trkpt lat="45.84769278194281" lon="12.079663116870359"><ele>125.0</ele><time>2026-04-25T05:57:42Z</time></trkpt><trkpt lat="45.84776572916578" lon="12.079523327199238"><ele>125.0</ele><time>2026-04-25T05:57:44Z</time></trkpt><trkpt lat="45.847849841862136" lon="12.079401680826631"><ele>125.0</ele><time>2026-04-25T05:57:46Z</time></trkpt><trkpt lat="45.847889553865244" lon="12.079331496437435"><ele>125.0</ele><time>2026-04-25T05:57:47Z</time></trkpt><trkpt lat="45.8479670927433" lon="12.079197573291395"><ele>125.0</ele><time>2026-04-25T05:57:49Z</time></trkpt><trkpt lat="45.84804773781102" lon="12.079059609069263"><ele>124.75</ele><time>2026-04-25T05:57:51Z</time></trkpt><trkpt lat="45.84812480491586" lon="12.07893257105372"><ele>124.5</ele><time>2026-04-25T05:57:53Z</time></trkpt><trkpt lat="45.84820604597606" lon="12.07881221471608"><ele>124.25</ele><time>2026-04-25T05:57:55Z</time></trkpt><trkpt lat="45.848286531482735" lon="12.078701748648143"><ele>124.0</ele><time>2026-04-25T05:57:57Z</time></trkpt><trkpt lat="45.848374266514625" lon="12.0785813789131"><ele>124.0</ele><time>2026-04-25T05:57:59Z</time></trkpt><trkpt lat="45.84845532836901" lon="12.078452420551201"><ele>124.0</ele><time>2026-04-25T05:58:00.999Z</time></trkpt><trkpt lat="45.848535299408276" lon="12.078322441580157"><ele>124.0</ele><time>2026-04-25T05:58:02.999Z</time></trkpt><trkpt lat="45.84856659886764" lon="12.078154713961492"><ele>124.0</ele><time>2026-04-25T05:58:04.999Z</time></trkpt><trkpt lat="45.848561715861" lon="12.078062773915706"><ele>124.0</ele><time>2026-04-25T05:58:05.999Z</time></trkpt><trkpt lat="45.84853207044665" lon="12.077914435512549"><ele>124.2</ele><time>2026-04-25T05:58:07.999Z</time></trkpt><trkpt lat="45.848515507258874" lon="12.077748926802496"><ele>124.4</ele><time>2026-04-25T05:58:09.999Z</time></trkpt><trkpt lat="45.84851258415201" lon="12.077600276802846"><ele>124.6</ele><time>2026-04-25T05:58:11.999Z</time></trkpt><trkpt lat="45.848551518615515" lon="12.077455222943726"><ele>124.8</ele><time>2026-04-25T05:58:13.999Z</time></trkpt><trkpt lat="45.84860969037947" lon="12.077323290214999"><ele>125.0</ele><time>2026-04-25T05:58:15.999Z</time></trkpt><trkpt lat="45.848668076676184" lon="12.077181178994062"><ele>125.16666666666666</ele><time>2026-04-25T05:58:17.999Z</time></trkpt><trkpt lat="45.848690151354674" lon="12.077096148234084"><ele>125.33333333333333</ele><time>2026-04-25T05:58:18.999Z</time></trkpt><trkpt lat="45.84873322644102" lon="12.076937785661984"><ele>125.5</ele><time>2026-04-25T05:58:20.999Z</time></trkpt><trkpt lat="45.84876774811539" lon="12.076771626369318"><ele>125.66666666666666</ele><time>2026-04-25T05:58:22.999Z</time></trkpt><trkpt lat="45.84877638621253" lon="12.07667751758328"><ele>125.83333333333333</ele><time>2026-04-25T05:58:23.999Z</time></trkpt><trkpt lat="45.848772849616644" lon="12.07658102502545"><ele>126.0</ele><time>2026-04-25T05:58:24.999Z</time></trkpt><trkpt lat="45.84875866391473" lon="12.076490885580908"><ele>126.0</ele><time>2026-04-25T05:58:25.999Z</time></trkpt><trkpt lat="45.84872054772706" lon="12.076396521931459"><ele>126.0</ele><time>2026-04-25T05:58:26.999Z</time></trkpt><trkpt lat="45.84867920652101" lon="12.076324144114263"><ele>126.0</ele><time>2026-04-25T05:58:27.999Z</time></trkpt><trkpt lat="45.84859793021922" lon="12.076195475023795"><ele>126.0</ele><time>2026-04-25T05:58:29.999Z</time></trkpt><trkpt lat="45.84855742233843" lon="12.076043425340837"><ele>126.0</ele><time>2026-04-25T05:58:31.999Z</time></trkpt><trkpt lat="45.84850064354184" lon="12.075891010754358"><ele>126.19999999999999</ele><time>2026-04-25T05:58:33.999Z</time></trkpt><trkpt lat="45.84845281948785" lon="12.075737479695702"><ele>126.39999999999999</ele><time>2026-04-25T05:58:35.999Z</time></trkpt><trkpt lat="45.84844542178185" lon="12.075616815318515"><ele>126.6</ele><time>2026-04-25T05:58:37.999Z</time></trkpt><trkpt lat="45.84847472191582" lon="12.075466677830569"><ele>126.8</ele><time>2026-04-25T05:58:39.999Z</time></trkpt><trkpt lat="45.8485500379498" lon="12.075330360084592"><ele>127.0</ele><time>2026-04-25T05:58:41.999Z</time></trkpt><trkpt lat="45.84862551241744" lon="12.07519868233194"><ele>127.0</ele><time>2026-04-25T05:58:43.999Z</time></trkpt><trkpt lat="45.848695661919926" lon="12.075060913239268"><ele>126.99999999999999</ele><time>2026-04-25T05:58:45.999Z</time></trkpt><trkpt lat="45.848768444288886" lon="12.074933964090432"><ele>126.99999999999999</ele><time>2026-04-25T05:58:47.999Z</time></trkpt><trkpt lat="45.848846986277955" lon="12.074840304284779"><ele>127.0</ele><time>2026-04-25T05:58:49.999Z</time></trkpt><trkpt lat="45.84892795895764" lon="12.074763792696464"><ele>127.0</ele><time>2026-04-25T05:58:51.999Z</time></trkpt><trkpt lat="45.848993995071694" lon="12.074836575317692"><ele>127.0</ele><time>2026-04-25T05:58:54.999Z</time></trkpt><trkpt lat="45.84907763932143" lon="12.07486856110652"><ele>126.99999999999999</ele><time>2026-04-25T05:58:56.998Z</time></trkpt><trkpt lat="45.84917682552824" lon="12.07495768337902"><ele>126.99999999999999</ele><time>2026-04-25T05:58:58.998Z</time></trkpt><trkpt lat="45.84924095737382" lon="12.075005176495898"><ele>127.0</ele><time>2026-04-25T05:58:59.998Z</time></trkpt><trkpt lat="45.84933632080974" lon="12.075022688261837"><ele>127.0</ele><time>2026-04-25T05:59:00.998Z</time></trkpt><trkpt lat="45.849406795741935" lon="12.074898428281603"><ele>127.0</ele><time>2026-04-25T05:59:01.998Z</time></trkpt><trkpt lat="45.8495305972874" lon="12.074921987784915"><ele>126.99999999999999</ele><time>2026-04-25T05:59:03.998Z</time></trkpt><trkpt lat="45.84965405050366" lon="12.074870132834612"><ele>126.99999999999999</ele><time>2026-04-25T05:59:05.998Z</time></trkpt><trkpt lat="45.84970180521987" lon="12.074789880130771"><ele>127.0</ele><time>2026-04-25T05:59:06.998Z</time></trkpt><trkpt lat="45.849737988961344" lon="12.074697914807901"><ele>127.0</ele><time>2026-04-25T05:59:07.998Z</time></trkpt><trkpt lat="45.84976690414324" lon="12.074608845745496"><ele>127.0</ele><time>2026-04-25T05:59:08.998Z</time></trkpt><trkpt lat="45.84980892451578" lon="12.074432832821385"><ele>126.99999999999999</ele><time>2026-04-25T05:59:10.998Z</time></trkpt><trkpt lat="45.84982039723885" lon="12.074341337342418"><ele>126.99999999999999</ele><time>2026-04-25T05:59:11.998Z</time></trkpt><trkpt lat="45.84984470371235" lon="12.07417861832752"><ele>127.0</ele><time>2026-04-25T05:59:14Z</time></trkpt><trkpt lat="45.84987638650031" lon="12.074023768227772"><ele>127.0</ele><time>2026-04-25T05:59:16Z</time></trkpt><trkpt lat="45.84992101706383" lon="12.073895201004511"><ele>127.0</ele><time>2026-04-25T05:59:18Z</time></trkpt><trkpt lat="45.849962750932725" lon="12.073759824390304"><ele>126.99999999999999</ele><time>2026-04-25T05:59:20.001Z</time></trkpt><trkpt lat="45.850020543403055" lon="12.073645282872869"><ele>126.99999999999999</ele><time>2026-04-25T05:59:22Z</time></trkpt><trkpt lat="45.850097864397654" lon="12.073551334884751"><ele>127.0</ele><time>2026-04-25T05:59:24Z</time></trkpt><trkpt lat="45.850176855931956" lon="12.073455554531405"><ele>127.0</ele><time>2026-04-25T05:59:26.001Z</time></trkpt><trkpt lat="45.85026364762338" lon="12.073379072041414"><ele>127.0</ele><time>2026-04-25T05:59:28Z</time></trkpt><trkpt lat="45.850357271482075" lon="12.073302884996684"><ele>126.99999999999999</ele><time>2026-04-25T05:59:30Z</time></trkpt><trkpt lat="45.850454208261965" lon="12.073226361959849"><ele>126.99999999999999</ele><time>2026-04-25T05:59:32Z</time></trkpt><trkpt lat="45.850541343150574" lon="12.07312480810258"><ele>127.0</ele><time>2026-04-25T05:59:34Z</time></trkpt><trkpt lat="45.85063179072439" lon="12.07303064121536"><ele>127.0</ele><time>2026-04-25T05:59:36Z</time></trkpt><trkpt lat="45.850712994436186" lon="12.072936227678984"><ele>127.19999999999999</ele><time>2026-04-25T05:59:38Z</time></trkpt><trkpt lat="45.85078288783686" lon="12.072823091018009"><ele>127.39999999999999</ele><time>2026-04-25T05:59:40Z</time></trkpt><trkpt lat="45.850856256578425" lon="12.072712292265484"><ele>127.60000000000001</ele><time>2026-04-25T05:59:42Z</time></trkpt><trkpt lat="45.85091936663509" lon="12.072583878690024"><ele>127.80000000000001</ele><time>2026-04-25T05:59:44Z</time></trkpt><trkpt lat="45.850980759588936" lon="12.072450543536842"><ele>128.0</ele><time>2026-04-25T05:59:46Z</time></trkpt><trkpt lat="45.85103887677398" lon="12.072321439967478"><ele>128.0</ele><time>2026-04-25T05:59:47.999Z</time></trkpt><trkpt lat="45.85110043338923" lon="12.072180583020897"><ele>128.0</ele><time>2026-04-25T05:59:49.999Z</time></trkpt><trkpt lat="45.85115839443258" lon="12.072039864289952"><ele>128.0</ele><time>2026-04-25T05:59:51.999Z</time></trkpt><trkpt lat="45.85121445055918" lon="12.071888264054172"><ele>128.0</ele><time>2026-04-25T05:59:53.999Z</time></trkpt><trkpt lat="45.85126873116836" lon="12.07174511890736"><ele>127.75</ele><time>2026-04-25T05:59:55.999Z</time></trkpt><trkpt lat="45.85132348065788" lon="12.071597853986217"><ele>127.5</ele><time>2026-04-25T05:59:57.999Z</time></trkpt><trkpt lat="45.85143364360871" lon="12.07153169701801"><ele>127.25</ele><time>2026-04-25T05:59:59.999Z</time></trkpt><trkpt lat="45.85154509868439" lon="12.071499131990963"><ele>127.0</ele><time>2026-04-25T06:00:01.999Z</time></trkpt><trkpt lat="45.851650487275776" lon="12.071429938251747"><ele>127.0</ele><time>2026-04-25T06:00:03.999Z</time></trkpt><trkpt lat="45.851773027986546" lon="12.071417965456407"><ele>126.99999999999999</ele><time>2026-04-25T06:00:05.999Z</time></trkpt><trkpt lat="45.85188978432953" lon="12.071417100657708"><ele>126.99999999999999</ele><time>2026-04-25T06:00:07.999Z</time></trkpt><trkpt lat="45.85200685273679" lon="12.071466996866018"><ele>127.0</ele><time>2026-04-25T06:00:09.999Z</time></trkpt><trkpt lat="45.85206987305408" lon="12.071472434244784"><ele>127.0</ele><time>2026-04-25T06:00:10.999Z</time></trkpt><trkpt lat="45.85213719184036" lon="12.071476922688596"><ele>127.16666666666667</ele><time>2026-04-25T06:00:11.999Z</time></trkpt><trkpt lat="45.85219790573278" lon="12.071442397849383"><ele>127.33333333333334</ele><time>2026-04-25T06:00:12.999Z</time></trkpt><trkpt lat="45.85224808306773" lon="12.071381956432472"><ele>127.5</ele><time>2026-04-25T06:00:13.999Z</time></trkpt><trkpt lat="45.852266545068" lon="12.071268424016612"><ele>127.66666666666666</ele><time>2026-04-25T06:00:14.999Z</time></trkpt><trkpt lat="45.85223457218619" lon="12.07117683546997"><ele>127.83333333333333</ele><time>2026-04-25T06:00:15.999Z</time></trkpt><trkpt lat="45.852252418521566" lon="12.071027048557012"><ele>128.0</ele><time>2026-04-25T06:00:17.999Z</time></trkpt><trkpt lat="45.85226239568703" lon="12.070866275438036"><ele>127.80000000000001</ele><time>2026-04-25T06:00:19.999Z</time></trkpt><trkpt lat="45.852286601632585" lon="12.070715316823462"><ele>127.60000000000001</ele><time>2026-04-25T06:00:21.998Z</time></trkpt><trkpt lat="45.85233180043274" lon="12.070568598206485"><ele>127.39999999999999</ele><time>2026-04-25T06:00:23.998Z</time></trkpt><trkpt lat="45.852401297568605" lon="12.070441802122321"><ele>127.19999999999999</ele><time>2026-04-25T06:00:25.998Z</time></trkpt><trkpt lat="45.85247618901392" lon="12.070311975757662"><ele>127.0</ele><time>2026-04-25T06:00:27.998Z</time></trkpt><trkpt lat="45.85254868120086" lon="12.070170833074545"><ele>127.00000000000001</ele><time>2026-04-25T06:00:29.998Z</time></trkpt><trkpt lat="45.852607071591656" lon="12.069998912900429"><ele>127.0</ele><time>2026-04-25T06:00:31.998Z</time></trkpt><trkpt lat="45.85262338412878" lon="12.069908163040244"><ele>127.0</ele><time>2026-04-25T06:00:32.998Z</time></trkpt><trkpt lat="45.85263298367959" lon="12.069816591111257"><ele>127.0</ele><time>2026-04-25T06:00:33.998Z</time></trkpt><trkpt lat="45.85263863901785" lon="12.069723585205754"><ele>127.00000000000001</ele><time>2026-04-25T06:00:34.998Z</time></trkpt><trkpt lat="45.85264163202931" lon="12.069631111164284"><ele>127.0</ele><time>2026-04-25T06:00:35.998Z</time></trkpt><trkpt lat="45.85264577472304" lon="12.069459990237016"><ele>126.75</ele><time>2026-04-25T06:00:37.998Z</time></trkpt><trkpt lat="45.85265217791168" lon="12.069291296959912"><ele>126.5</ele><time>2026-04-25T06:00:39.998Z</time></trkpt><trkpt lat="45.8526717574607" lon="12.069112523955063"><ele>126.25</ele><time>2026-04-25T06:00:41.998Z</time></trkpt><trkpt lat="45.85269698507323" lon="12.068934995554756"><ele>126.0</ele><time>2026-04-25T06:00:43.998Z</time></trkpt><trkpt lat="45.85272533371915" lon="12.068754073092338"><ele>126.4</ele><time>2026-04-25T06:00:45.998Z</time></trkpt><trkpt lat="45.852754175218855" lon="12.068580338635742"><ele>126.8</ele><time>2026-04-25T06:00:47.998Z</time></trkpt><trkpt lat="45.85277003391896" lon="12.068485900717466"><ele>127.20000000000002</ele><time>2026-04-25T06:00:48.998Z</time></trkpt><trkpt lat="45.85278643524767" lon="12.068310469188521"><ele>127.60000000000001</ele><time>2026-04-25T06:00:50.998Z</time></trkpt><trkpt lat="45.852786989910705" lon="12.06821823562902"><ele>128.0</ele><time>2026-04-25T06:00:51.998Z</time></trkpt><trkpt lat="45.852793104590575" lon="12.068045551180953"><ele>128.0</ele><time>2026-04-25T06:00:53.998Z</time></trkpt><trkpt lat="45.85281016436297" lon="12.067955323223437"><ele>128.0</ele><time>2026-04-25T06:00:54.998Z</time></trkpt><trkpt lat="45.852819589438155" lon="12.067865179550672"><ele>128.0</ele><time>2026-04-25T06:00:55.998Z</time></trkpt><trkpt lat="45.8528382053451" lon="12.067687132541657"><ele>128.0</ele><time>2026-04-25T06:00:57.998Z</time></trkpt><trkpt lat="45.85285599234622" lon="12.067517013398097"><ele>128.0</ele><time>2026-04-25T06:00:59.998Z</time></trkpt><trkpt lat="45.85287438552737" lon="12.067341096595774"><ele>128.25</ele><time>2026-04-25T06:01:01.998Z</time></trkpt><trkpt lat="45.852892798624424" lon="12.067164989319755"><ele>128.5</ele><time>2026-04-25T06:01:03.998Z</time></trkpt><trkpt lat="45.85291223484402" lon="12.066985841456857"><ele>128.75</ele><time>2026-04-25T06:01:05.998Z</time></trkpt><trkpt lat="45.852930810583054" lon="12.066816430701206"><ele>129.0</ele><time>2026-04-25T06:01:07.998Z</time></trkpt><trkpt lat="45.85295000312173" lon="12.06664139475959"><ele>129.4</ele><time>2026-04-25T06:01:09.998Z</time></trkpt><trkpt lat="45.85294361402141" lon="12.066548290647594"><ele>129.8</ele><time>2026-04-25T06:01:10.998Z</time></trkpt><trkpt lat="45.85296744789651" lon="12.066373401090315"><ele>130.2</ele><time>2026-04-25T06:01:12.998Z</time></trkpt><trkpt lat="45.85300123787685" lon="12.066203281967661"><ele>130.6</ele><time>2026-04-25T06:01:14.998Z</time></trkpt><trkpt lat="45.85299625484813" lon="12.066110038785476"><ele>131.0</ele><time>2026-04-25T06:01:15.998Z</time></trkpt><trkpt lat="45.853015466669724" lon="12.065941108653258"><ele>131.0</ele><time>2026-04-25T06:01:17.998Z</time></trkpt><trkpt lat="45.853053840258056" lon="12.06579354593803"><ele>131.0</ele><time>2026-04-25T06:01:20Z</time></trkpt><trkpt lat="45.85310960831781" lon="12.065662355179882"><ele>131.0</ele><time>2026-04-25T06:01:22Z</time></trkpt><trkpt lat="45.853217565768766" lon="12.06570198863239"><ele>131.0</ele><time>2026-04-25T06:01:24Z</time></trkpt><trkpt lat="45.853331185562936" lon="12.065699445184817"><ele>131.0</ele><time>2026-04-25T06:01:26Z</time></trkpt><trkpt lat="45.85344154796514" lon="12.065725642747552"><ele>130.75</ele><time>2026-04-25T06:01:28Z</time></trkpt><trkpt lat="45.8535584795295" lon="12.06574323901441"><ele>130.5</ele><time>2026-04-25T06:01:30Z</time></trkpt><trkpt lat="45.85367301011541" lon="12.065757908255412"><ele>130.25</ele><time>2026-04-25T06:01:32Z</time></trkpt><trkpt lat="45.85379808449873" lon="12.06579951761846"><ele>130.0</ele><time>2026-04-25T06:01:34Z</time></trkpt><trkpt lat="45.85392085152924" lon="12.06579738897746"><ele>130.0</ele><time>2026-04-25T06:01:36Z</time></trkpt><trkpt lat="45.854044573448526" lon="12.06581171038725"><ele>130.0</ele><time>2026-04-25T06:01:38Z</time></trkpt><trkpt lat="45.854166437334975" lon="12.065837506733299"><ele>130.0</ele><time>2026-04-25T06:01:40Z</time></trkpt><trkpt lat="45.85428773501183" lon="12.065830727278184"><ele>130.0</ele><time>2026-04-25T06:01:42Z</time></trkpt><trkpt lat="45.85434880087465" lon="12.065801113979674"><ele>130.0</ele><time>2026-04-25T06:01:43Z</time></trkpt><trkpt lat="45.854414061010615" lon="12.065793314588023"><ele>130.2</ele><time>2026-04-25T06:01:44Z</time></trkpt><trkpt lat="45.85453255552812" lon="12.065783342127991"><ele>130.4</ele><time>2026-04-25T06:01:46Z</time></trkpt><trkpt lat="45.85464809027444" lon="12.065773196988845"><ele>130.6</ele><time>2026-04-25T06:01:47.999Z</time></trkpt><trkpt lat="45.8547653177993" lon="12.06577665930368"><ele>130.8</ele><time>2026-04-25T06:01:49.999Z</time></trkpt><trkpt lat="45.854827254638415" lon="12.06575341085588"><ele>131.0</ele><time>2026-04-25T06:01:50.999Z</time></trkpt><trkpt lat="45.85494924760962" lon="12.065756069368842"><ele>131.0</ele><time>2026-04-25T06:01:52.999Z</time></trkpt><trkpt lat="45.85506606439631" lon="12.065725591845716"><ele>131.0</ele><time>2026-04-25T06:01:54.999Z</time></trkpt><trkpt lat="45.85516894798236" lon="12.065714841325672"><ele>131.0</ele><time>2026-04-25T06:01:56.999Z</time></trkpt><trkpt lat="45.855265311238064" lon="12.065697656009588"><ele>131.0</ele><time>2026-04-25T06:01:58.999Z</time></trkpt><trkpt lat="45.85529748876887" lon="12.065534741188129"><ele>131.0</ele><time>2026-04-25T06:02:00.999Z</time></trkpt><trkpt lat="45.855295141265174" lon="12.06537738115756"><ele>131.8</ele><time>2026-04-25T06:02:02.999Z</time></trkpt><trkpt lat="45.855290445743016" lon="12.065228779321961"><ele>132.6</ele><time>2026-04-25T06:02:04.999Z</time></trkpt><trkpt lat="45.85528260901156" lon="12.065071881934337"><ele>133.4</ele><time>2026-04-25T06:02:06.999Z</time></trkpt><trkpt lat="45.85527483689735" lon="12.064916278232094"><ele>134.2</ele><time>2026-04-25T06:02:08.999Z</time></trkpt><trkpt lat="45.855266729251014" lon="12.064753956900319"><ele>135.0</ele><time>2026-04-25T06:02:10.999Z</time></trkpt><trkpt lat="45.85525848707526" lon="12.064588942177542"><ele>135.0</ele><time>2026-04-25T06:02:12.999Z</time></trkpt><trkpt lat="45.85525234348451" lon="12.064418516967132"><ele>135.0</ele><time>2026-04-25T06:02:14.999Z</time></trkpt><trkpt lat="45.85524670067708" lon="12.06424701857546"><ele>135.0</ele><time>2026-04-25T06:02:16.999Z</time></trkpt><trkpt lat="45.855240844000676" lon="12.064071817649523"><ele>135.0</ele><time>2026-04-25T06:02:18.999Z</time></trkpt><trkpt lat="45.85523223979116" lon="12.063898726580222"><ele>135.4</ele><time>2026-04-25T06:02:20.999Z</time></trkpt><trkpt lat="45.85522678500949" lon="12.063806113618389"><ele>135.8</ele><time>2026-04-25T06:02:21.999Z</time></trkpt><trkpt lat="45.85521052104416" lon="12.063641465824215"><ele>136.2</ele><time>2026-04-25T06:02:23.999Z</time></trkpt><trkpt lat="45.855199657677574" lon="12.063551431672476"><ele>136.6</ele><time>2026-04-25T06:02:24.999Z</time></trkpt><trkpt lat="45.85517626653109" lon="12.063386479497398"><ele>137.0</ele><time>2026-04-25T06:02:26.999Z</time></trkpt><trkpt lat="45.85515422640498" lon="12.063253365300573"><ele>137.16666666666666</ele><time>2026-04-25T06:02:28.999Z</time></trkpt><trkpt lat="45.85513492837465" lon="12.063143821979633"><ele>137.33333333333331</ele><time>2026-04-25T06:02:31.999Z</time></trkpt><trkpt lat="45.85516373416751" lon="12.06303434288143"><ele>137.5</ele><time>2026-04-25T06:02:36.999Z</time></trkpt><trkpt lat="45.85519843768824" lon="12.062883671922727"><ele>137.66666666666666</ele><time>2026-04-25T06:02:38.999Z</time></trkpt><trkpt lat="45.85520443807746" lon="12.062766201043095"><ele>137.83333333333334</ele><time>2026-04-25T06:02:40.998Z</time></trkpt><trkpt lat="45.85521007888998" lon="12.06264598590891"><ele>138.0</ele><time>2026-04-25T06:02:43.998Z</time></trkpt><trkpt lat="45.85521966223662" lon="12.062549421141352"><ele>138.0</ele><time>2026-04-25T06:02:46.998Z</time></trkpt><trkpt lat="45.855213919461406" lon="12.062450640570411"><ele>138.0</ele><time>2026-04-25T06:02:50.998Z</time></trkpt><trkpt lat="45.855222326988375" lon="12.062322119672721"><ele>138.0</ele><time>2026-04-25T06:02:54.998Z</time></trkpt><trkpt lat="45.85491596736713" lon="12.062162313921979"><ele>137.66666666666666</ele><time>2026-04-25T06:02:55.998Z</time></trkpt><trkpt lat="45.85491847493167" lon="12.062060333646494"><ele>137.33333333333334</ele><time>2026-04-25T06:02:56.998Z</time></trkpt><trkpt lat="45.85492496461374" lon="12.061965504463794"><ele>137.0</ele><time>2026-04-25T06:02:57.998Z</time></trkpt><trkpt lat="45.85491529973172" lon="12.061863461786725"><ele>136.66666666666669</ele><time>2026-04-25T06:02:58.998Z</time></trkpt><trkpt lat="45.854906375476176" lon="12.061772270153227"><ele>136.33333333333334</ele><time>2026-04-25T06:02:59.998Z</time></trkpt><trkpt lat="45.85489552794938" lon="12.061606201701691"><ele>136.0</ele><time>2026-04-25T06:03:01.998Z</time></trkpt><trkpt lat="45.85488675785932" lon="12.061516241084071"><ele>135.6</ele><time>2026-04-25T06:03:02.998Z</time></trkpt><trkpt lat="45.85487181616237" lon="12.061348256854476"><ele>135.2</ele><time>2026-04-25T06:03:04.998Z</time></trkpt><trkpt lat="45.854853099337845" lon="12.06117925257627"><ele>134.8</ele><time>2026-04-25T06:03:06.998Z</time></trkpt><trkpt lat="45.85484254693233" lon="12.06108835131868"><ele>134.4</ele><time>2026-04-25T06:03:07.998Z</time></trkpt><trkpt lat="45.854822069991286" lon="12.06092220115908"><ele>134.0</ele><time>2026-04-25T06:03:09.998Z</time></trkpt><trkpt lat="45.85481758925654" lon="12.060829349544392"><ele>134.25</ele><time>2026-04-25T06:03:10.998Z</time></trkpt><trkpt lat="45.85480713586784" lon="12.060650435017601"><ele>134.5</ele><time>2026-04-25T06:03:12.998Z</time></trkpt><trkpt lat="45.85478058366946" lon="12.06048409540049"><ele>134.75</ele><time>2026-04-25T06:03:14.998Z</time></trkpt><trkpt lat="45.8546996835583" lon="12.060365574198906"><ele>135.0</ele><time>2026-04-25T06:03:16.998Z</time></trkpt><trkpt lat="45.85459656672997" lon="12.060319895906293"><ele>135.0</ele><time>2026-04-25T06:03:18.998Z</time></trkpt><trkpt lat="45.85448930677774" lon="12.06027337028479"><ele>135.0</ele><time>2026-04-25T06:03:20.998Z</time></trkpt><trkpt lat="45.854461517407124" lon="12.06012031562268"><ele>135.0</ele><time>2026-04-25T06:03:22.998Z</time></trkpt><trkpt lat="45.85449592358973" lon="12.05998039963121"><ele>135.0</ele><time>2026-04-25T06:03:25Z</time></trkpt><trkpt lat="45.854520870937904" lon="12.059832956808174"><ele>135.0</ele><time>2026-04-25T06:03:27Z</time></trkpt><trkpt lat="45.854554307284914" lon="12.059682117730814"><ele>135.0</ele><time>2026-04-25T06:03:29Z</time></trkpt><trkpt lat="45.85458741672978" lon="12.059532703454755"><ele>135.0</ele><time>2026-04-25T06:03:31Z</time></trkpt><trkpt lat="45.85461883135019" lon="12.059385323138494"><ele>135.0</ele><time>2026-04-25T06:03:33Z</time></trkpt><trkpt lat="45.85465645631225" lon="12.059225746099369"><ele>135.0</ele><time>2026-04-25T06:03:35Z</time></trkpt><trkpt lat="45.85470427370314" lon="12.059071676813053"><ele>135.25</ele><time>2026-04-25T06:03:37Z</time></trkpt><trkpt lat="45.85475242659064" lon="12.058918568469"><ele>135.5</ele><time>2026-04-25T06:03:39Z</time></trkpt><trkpt lat="45.85480490739847" lon="12.058777144047323"><ele>135.75</ele><time>2026-04-25T06:03:41Z</time></trkpt><trkpt lat="45.854865795664836" lon="12.058632699242487"><ele>136.0</ele><time>2026-04-25T06:03:43Z</time></trkpt><trkpt lat="45.85492815773776" lon="12.058484944206903"><ele>135.99999999999997</ele><time>2026-04-25T06:03:45Z</time></trkpt><trkpt lat="45.85495514379668" lon="12.058402570922306"><ele>136.0</ele><time>2026-04-25T06:03:46Z</time></trkpt><trkpt lat="45.85497650671116" lon="12.058312317271634"><ele>136.0</ele><time>2026-04-25T06:03:47Z</time></trkpt><trkpt lat="45.85499513297152" lon="12.058221574357802"><ele>136.0</ele><time>2026-04-25T06:03:48Z</time></trkpt><trkpt lat="45.85500978159412" lon="12.058124614944477"><ele>136.0</ele><time>2026-04-25T06:03:49Z</time></trkpt><trkpt lat="45.85502515080589" lon="12.058031404583204"><ele>135.99999999999997</ele><time>2026-04-25T06:03:50Z</time></trkpt><trkpt lat="45.85504421760131" lon="12.05794131906046"><ele>136.0</ele><time>2026-04-25T06:03:51Z</time></trkpt><trkpt lat="45.85505884217706" lon="12.057850430749536"><ele>136.4</ele><time>2026-04-25T06:03:52Z</time></trkpt><trkpt lat="45.855067947092394" lon="12.057758098788492"><ele>136.8</ele><time>2026-04-25T06:03:53Z</time></trkpt><trkpt lat="45.855111564331914" lon="12.057588468391677"><ele>137.20000000000002</ele><time>2026-04-25T06:03:55Z</time></trkpt><trkpt lat="45.855165075957366" lon="12.057429473474166"><ele>137.6</ele><time>2026-04-25T06:03:57Z</time></trkpt><trkpt lat="45.855212502114796" lon="12.057264010470504"><ele>138.0</ele><time>2026-04-25T06:03:59Z</time></trkpt><trkpt lat="45.855254001234606" lon="12.057099259924573"><ele>138.0</ele><time>2026-04-25T06:04:01Z</time></trkpt><trkpt lat="45.85529524709596" lon="12.05693973425708"><ele>138.0</ele><time>2026-04-25T06:04:03Z</time></trkpt><trkpt lat="45.855325482762616" lon="12.056771085502744"><ele>138.0</ele><time>2026-04-25T06:04:05Z</time></trkpt><trkpt lat="45.855321470020634" lon="12.05660690789019"><ele>138.0</ele><time>2026-04-25T06:04:07Z</time></trkpt><trkpt lat="45.8553068835474" lon="12.056433624852158"><ele>138.0</ele><time>2026-04-25T06:04:08.999Z</time></trkpt><trkpt lat="45.85528415108668" lon="12.056265867900427"><ele>138.0</ele><time>2026-04-25T06:04:10.999Z</time></trkpt><trkpt lat="45.85526097044824" lon="12.056097672789647"><ele>138.0</ele><time>2026-04-25T06:04:12.999Z</time></trkpt><trkpt lat="45.85524561074193" lon="12.055925629405456"><ele>138.0</ele><time>2026-04-25T06:04:14.999Z</time></trkpt><trkpt lat="45.85524007248815" lon="12.055833796190225"><ele>138.0</ele><time>2026-04-25T06:04:15.999Z</time></trkpt><trkpt lat="45.85523086945151" lon="12.0556659068741"><ele>137.5</ele><time>2026-04-25T06:04:17.999Z</time></trkpt><trkpt lat="45.855240009804184" lon="12.055494682832553"><ele>137.0</ele><time>2026-04-25T06:04:19.999Z</time></trkpt><trkpt lat="45.85524698083699" lon="12.05532660540245"><ele>136.5</ele><time>2026-04-25T06:04:21.999Z</time></trkpt><trkpt lat="45.85526727555869" lon="12.055151319350408"><ele>136.0</ele><time>2026-04-25T06:04:23.999Z</time></trkpt><trkpt lat="45.85526494167375" lon="12.054977346182522"><ele>135.75</ele><time>2026-04-25T06:04:25.999Z</time></trkpt><trkpt lat="45.855271338827876" lon="12.054803293216564"><ele>135.5</ele><time>2026-04-25T06:04:27.999Z</time></trkpt><trkpt lat="45.85527881631521" lon="12.054629255576408"><ele>135.25</ele><time>2026-04-25T06:04:29.999Z</time></trkpt><trkpt lat="45.85529885472026" lon="12.054458158391531"><ele>135.0</ele><time>2026-04-25T06:04:31.999Z</time></trkpt><trkpt lat="45.8553157610285" lon="12.05429012405634"><ele>134.5</ele><time>2026-04-25T06:04:33.999Z</time></trkpt><trkpt lat="45.855328353860834" lon="12.054116162367443"><ele>134.0</ele><time>2026-04-25T06:04:35.999Z</time></trkpt><trkpt lat="45.85533548428968" lon="12.053946040402804"><ele>133.5</ele><time>2026-04-25T06:04:37.999Z</time></trkpt><trkpt lat="45.855332531752794" lon="12.0537765062829"><ele>133.0</ele><time>2026-04-25T06:04:39.999Z</time></trkpt><trkpt lat="45.8553154974235" lon="12.053617138106844"><ele>133.0</ele><time>2026-04-25T06:04:41.999Z</time></trkpt><trkpt lat="45.855276442347936" lon="12.053460020730407"><ele>133.0</ele><time>2026-04-25T06:04:43.999Z</time></trkpt><trkpt lat="45.85522185079168" lon="12.053317894225223"><ele>133.0</ele><time>2026-04-25T06:04:45.999Z</time></trkpt><trkpt lat="45.85515807061212" lon="12.053177115248916"><ele>133.0</ele><time>2026-04-25T06:04:47.999Z</time></trkpt><trkpt lat="45.855090048597525" lon="12.05304490250225"><ele>133.20000000000002</ele><time>2026-04-25T06:04:49.999Z</time></trkpt><trkpt lat="45.85504830091912" lon="12.052895359877008"><ele>133.4</ele><time>2026-04-25T06:04:51.999Z</time></trkpt><trkpt lat="45.85508883872342" lon="12.052725180898342"><ele>133.60000000000002</ele><time>2026-04-25T06:04:53.999Z</time></trkpt><trkpt lat="45.855126213014536" lon="12.052646261136529"><ele>133.8</ele><time>2026-04-25T06:04:54.999Z</time></trkpt><trkpt lat="45.85519314694482" lon="12.052504268572324"><ele>134.0</ele><time>2026-04-25T06:04:56.999Z</time></trkpt><trkpt lat="45.85524369869322" lon="12.052356472921629"><ele>134.6</ele><time>2026-04-25T06:04:58.999Z</time></trkpt><trkpt lat="45.85527482563151" lon="12.052194028300772"><ele>135.2</ele><time>2026-04-25T06:05:00.999Z</time></trkpt><trkpt lat="45.85531441825855" lon="12.052033640187613"><ele>135.79999999999998</ele><time>2026-04-25T06:05:02.998Z</time></trkpt><trkpt lat="45.85536910460878" lon="12.051986877530434"><ele>136.4</ele><time>2026-04-25T06:05:03.998Z</time></trkpt><trkpt lat="45.855493918938926" lon="12.051968573540158"><ele>137.0</ele><time>2026-04-25T06:05:05.998Z</time></trkpt><trkpt lat="45.855605240583635" lon="12.051969124981031"><ele>137.0</ele><time>2026-04-25T06:05:07.998Z</time></trkpt><trkpt lat="45.855712053450404" lon="12.0519167588406"><ele>137.0</ele><time>2026-04-25T06:05:09.998Z</time></trkpt><trkpt lat="45.85579478252606" lon="12.051790128631776"><ele>137.0</ele><time>2026-04-25T06:05:11.998Z</time></trkpt><trkpt lat="45.855836310878814" lon="12.051625393216055"><ele>137.0</ele><time>2026-04-25T06:05:13.998Z</time></trkpt><trkpt lat="45.85586925711814" lon="12.051462840203692"><ele>137.0</ele><time>2026-04-25T06:05:15.998Z</time></trkpt><trkpt lat="45.85589759428763" lon="12.051295904241387"><ele>137.0</ele><time>2026-04-25T06:05:17.998Z</time></trkpt><trkpt lat="45.85589566026031" lon="12.051127651425558"><ele>137.0</ele><time>2026-04-25T06:05:19.998Z</time></trkpt><trkpt lat="45.85585932951192" lon="12.050959735781083"><ele>137.0</ele><time>2026-04-25T06:05:21.998Z</time></trkpt><trkpt lat="45.855819697327306" lon="12.05079847019384"><ele>137.25</ele><time>2026-04-25T06:05:23.998Z</time></trkpt><trkpt lat="45.855796435873195" lon="12.050637277721917"><ele>137.5</ele><time>2026-04-25T06:05:25.998Z</time></trkpt><trkpt lat="45.85578759931399" lon="12.050466809783797"><ele>137.75</ele><time>2026-04-25T06:05:27.998Z</time></trkpt><trkpt lat="45.85578049455002" lon="12.050306130776375"><ele>138.0</ele><time>2026-04-25T06:05:30Z</time></trkpt><trkpt lat="45.855763320812905" lon="12.050146926064622"><ele>138.0</ele><time>2026-04-25T06:05:32Z</time></trkpt><trkpt lat="45.85575302216546" lon="12.049986008704165"><ele>138.0</ele><time>2026-04-25T06:05:34Z</time></trkpt><trkpt lat="45.855770328757906" lon="12.049820172814268"><ele>138.0</ele><time>2026-04-25T06:05:36Z</time></trkpt><trkpt lat="45.85575413645954" lon="12.049645100729029"><ele>138.0</ele><time>2026-04-25T06:05:38Z</time></trkpt><trkpt lat="45.855740326417056" lon="12.049474229189569"><ele>138.0</ele><time>2026-04-25T06:05:40Z</time></trkpt><trkpt lat="45.855758464616095" lon="12.049298650107351"><ele>138.0</ele><time>2026-04-25T06:05:42Z</time></trkpt><trkpt lat="45.85576010407504" lon="12.04920717020619"><ele>138.0</ele><time>2026-04-25T06:05:43Z</time></trkpt><trkpt lat="45.85575664645457" lon="12.049114147507217"><ele>138.0</ele><time>2026-04-25T06:05:44Z</time></trkpt><trkpt lat="45.85574019002171" lon="12.048938473759673"><ele>138.0</ele><time>2026-04-25T06:05:46Z</time></trkpt><trkpt lat="45.8557130603597" lon="12.048767168481563"><ele>138.0</ele><time>2026-04-25T06:05:48Z</time></trkpt><trkpt lat="45.855684772795506" lon="12.048598489237225"><ele>138.0</ele><time>2026-04-25T06:05:50Z</time></trkpt><trkpt lat="45.855655580745164" lon="12.04843004841688"><ele>138.0</ele><time>2026-04-25T06:05:52Z</time></trkpt><trkpt lat="45.85561906989563" lon="12.048260905172091"><ele>138.0</ele><time>2026-04-25T06:05:54Z</time></trkpt><trkpt lat="45.855605530619535" lon="12.048172352952434"><ele>138.0</ele><time>2026-04-25T06:05:55Z</time></trkpt><trkpt lat="45.855574102385866" lon="12.048003361968696"><ele>138.4</ele><time>2026-04-25T06:05:57Z</time></trkpt><trkpt lat="45.855552241273756" lon="12.047828338995378"><ele>138.8</ele><time>2026-04-25T06:05:59Z</time></trkpt><trkpt lat="45.85553296186915" lon="12.04765242335277"><ele>139.2</ele><time>2026-04-25T06:06:01Z</time></trkpt><trkpt lat="45.85552436815461" lon="12.047562438441592"><ele>139.6</ele><time>2026-04-25T06:06:02Z</time></trkpt><trkpt lat="45.855500573167134" lon="12.047383686653333"><ele>140.0</ele><time>2026-04-25T06:06:04Z</time></trkpt><trkpt lat="45.855483981029806" lon="12.047296043046007"><ele>140.4</ele><time>2026-04-25T06:06:05Z</time></trkpt><trkpt lat="45.85544926785941" lon="12.047124415008165"><ele>140.8</ele><time>2026-04-25T06:06:07Z</time></trkpt><trkpt lat="45.855412797577706" lon="12.046952891302245"><ele>141.2</ele><time>2026-04-25T06:06:09Z</time></trkpt><trkpt lat="45.85539322677837" lon="12.046866910972472"><ele>141.6</ele><time>2026-04-25T06:06:10Z</time></trkpt><trkpt lat="45.85535545023072" lon="12.046700543808988"><ele>142.0</ele><time>2026-04-25T06:06:12Z</time></trkpt><trkpt lat="45.85529632774847" lon="12.046546037034501"><ele>142.0</ele><time>2026-04-25T06:06:14Z</time></trkpt><trkpt lat="45.85522091478926" lon="12.046403658938088"><ele>142.0</ele><time>2026-04-25T06:06:16Z</time></trkpt><trkpt lat="45.85518336000657" lon="12.046327087419474"><ele>142.0</ele><time>2026-04-25T06:06:17Z</time></trkpt><trkpt lat="45.855122631261374" lon="12.046163602750669"><ele>142.0</ele><time>2026-04-25T06:06:19Z</time></trkpt><trkpt lat="45.85509433926296" lon="12.046078225103143"><ele>142.0</ele><time>2026-04-25T06:06:20Z</time></trkpt><trkpt lat="45.85506872310766" lon="12.04599355275891"><ele>142.0</ele><time>2026-04-25T06:06:21Z</time></trkpt><trkpt lat="45.85501407211238" lon="12.045831790154292"><ele>141.66666666666669</ele><time>2026-04-25T06:06:22.999Z</time></trkpt><trkpt lat="45.85498323240336" lon="12.045747509900927"><ele>141.33333333333334</ele><time>2026-04-25T06:06:23.999Z</time></trkpt><trkpt lat="45.85495319182597" lon="12.045667192101236"><ele>141.0</ele><time>2026-04-25T06:06:24.999Z</time></trkpt><trkpt lat="45.85492288223074" lon="12.045583240138338"><ele>140.66666666666666</ele><time>2026-04-25T06:06:25.999Z</time></trkpt><trkpt lat="45.85489522429029" lon="12.04549847283274"><ele>140.33333333333331</ele><time>2026-04-25T06:06:26.999Z</time></trkpt><trkpt lat="45.85485249340459" lon="12.045328699819665"><ele>140.0</ele><time>2026-04-25T06:06:28.999Z</time></trkpt><trkpt lat="45.854829225210715" lon="12.045152790060376"><ele>140.0</ele><time>2026-04-25T06:06:30.999Z</time></trkpt><trkpt lat="45.854811019498584" lon="12.044976997899377"><ele>140.0</ele><time>2026-04-25T06:06:32.999Z</time></trkpt><trkpt lat="45.85476673679295" lon="12.044820713621398"><ele>140.0</ele><time>2026-04-25T06:06:34.999Z</time></trkpt><trkpt lat="45.85466060981418" lon="12.044756540245936"><ele>140.0</ele><time>2026-04-25T06:06:36.999Z</time></trkpt><trkpt lat="45.85459758215916" lon="12.044764267458053"><ele>140.0</ele><time>2026-04-25T06:06:37.999Z</time></trkpt><trkpt lat="45.85447948197485" lon="12.044755380956463"><ele>140.33333333333331</ele><time>2026-04-25T06:06:39.999Z</time></trkpt><trkpt lat="45.854422020407256" lon="12.044715697105238"><ele>140.66666666666666</ele><time>2026-04-25T06:06:40.999Z</time></trkpt><trkpt lat="45.8543561058682" lon="12.044586037728628"><ele>141.0</ele><time>2026-04-25T06:06:42.999Z</time></trkpt><trkpt lat="45.85432630157916" lon="12.0445056333302"><ele>141.33333333333334</ele><time>2026-04-25T06:06:43.999Z</time></trkpt><trkpt lat="45.854246660810986" lon="12.04436431524204"><ele>141.66666666666669</ele><time>2026-04-25T06:06:45.999Z</time></trkpt><trkpt lat="45.85418654901724" lon="12.04432485233348"><ele>142.0</ele><time>2026-04-25T06:06:46.999Z</time></trkpt><trkpt lat="45.85405897767341" lon="12.044300811735773"><ele>141.0</ele><time>2026-04-25T06:06:48.999Z</time></trkpt><trkpt lat="45.85397304260231" lon="12.044209418873631"><ele>140.0</ele><time>2026-04-25T06:06:50.999Z</time></trkpt><trkpt lat="45.85393932334597" lon="12.044066137291809"><ele>139.0</ele><time>2026-04-25T06:06:52.999Z</time></trkpt><trkpt lat="45.85392259084173" lon="12.04391526713992"><ele>138.0</ele><time>2026-04-25T06:06:54.999Z</time></trkpt><trkpt lat="45.853971040029776" lon="12.043774218190965"><ele>137.0</ele><time>2026-04-25T06:06:56.999Z</time></trkpt><trkpt lat="45.854054219186196" lon="12.043659990998373"><ele>137.0</ele><time>2026-04-25T06:06:58.999Z</time></trkpt><trkpt lat="45.854143651349766" lon="12.043553793681626"><ele>137.0</ele><time>2026-04-25T06:07:00.999Z</time></trkpt><trkpt lat="45.8542599599754" lon="12.043495528576079"><ele>137.0</ele><time>2026-04-25T06:07:02.999Z</time></trkpt><trkpt lat="45.85433973133674" lon="12.043367427671372"><ele>137.0</ele><time>2026-04-25T06:07:04.999Z</time></trkpt><trkpt lat="45.854356406052844" lon="12.043188792143239"><ele>138.2</ele><time>2026-04-25T06:07:06.999Z</time></trkpt><trkpt lat="45.854362598071546" lon="12.043092029818038"><ele>139.39999999999998</ele><time>2026-04-25T06:07:07.999Z</time></trkpt><trkpt lat="45.85437505296306" lon="12.043002784395032"><ele>140.60000000000002</ele><time>2026-04-25T06:07:08.999Z</time></trkpt><trkpt lat="45.854397183923396" lon="12.042828012597601"><ele>141.8</ele><time>2026-04-25T06:07:10.999Z</time></trkpt><trkpt lat="45.85446854434649" lon="12.04268711998969"><ele>143.0</ele><time>2026-04-25T06:07:12.999Z</time></trkpt><trkpt lat="45.854493588088424" lon="12.042520316669961"><ele>143.0</ele><time>2026-04-25T06:07:14.999Z</time></trkpt><trkpt lat="45.854469865363576" lon="12.042350279805055"><ele>143.0</ele><time>2026-04-25T06:07:16.998Z</time></trkpt><trkpt lat="45.85449225915987" lon="12.042193937636076"><ele>143.0</ele><time>2026-04-25T06:07:18.998Z</time></trkpt><trkpt lat="45.85453735916317" lon="12.042039742537058"><ele>143.0</ele><time>2026-04-25T06:07:20.998Z</time></trkpt><trkpt lat="45.85454510652014" lon="12.041870015564113"><ele>143.0</ele><time>2026-04-25T06:07:22.998Z</time></trkpt><trkpt lat="45.8545501936383" lon="12.041705293187636"><ele>143.0</ele><time>2026-04-25T06:07:24.998Z</time></trkpt><trkpt lat="45.85457460648376" lon="12.041545443656892"><ele>143.0</ele><time>2026-04-25T06:07:26.998Z</time></trkpt><trkpt lat="45.85461543485104" lon="12.041388574932984"><ele>143.0</ele><time>2026-04-25T06:07:28.998Z</time></trkpt><trkpt lat="45.85463699725883" lon="12.04122812085574"><ele>142.75</ele><time>2026-04-25T06:07:30.998Z</time></trkpt><trkpt lat="45.854634449517135" lon="12.04105256624223"><ele>142.5</ele><time>2026-04-25T06:07:32.998Z</time></trkpt><trkpt lat="45.85463342486327" lon="12.04088439028612"><ele>142.25</ele><time>2026-04-25T06:07:34.998Z</time></trkpt><trkpt lat="45.85463991948438" lon="12.040713207378944"><ele>142.0</ele><time>2026-04-25T06:07:37Z</time></trkpt><trkpt lat="45.85464920698719" lon="12.040556025375066"><ele>142.0</ele><time>2026-04-25T06:07:39.001Z</time></trkpt><trkpt lat="45.854663457215786" lon="12.04038630206789"><ele>142.0</ele><time>2026-04-25T06:07:41.001Z</time></trkpt><trkpt lat="45.854704263240365" lon="12.040230023156582"><ele>142.0</ele><time>2026-04-25T06:07:43.001Z</time></trkpt><trkpt lat="45.85472581472318" lon="12.04006242137668"><ele>142.0</ele><time>2026-04-25T06:07:45Z</time></trkpt><trkpt lat="45.85472910095491" lon="12.03989017770273"><ele>142.0</ele><time>2026-04-25T06:07:47Z</time></trkpt><trkpt lat="45.854784449583335" lon="12.03973950467491"><ele>142.0</ele><time>2026-04-25T06:07:49Z</time></trkpt><trkpt lat="45.854804935431424" lon="12.03965246666689"><ele>142.0</ele><time>2026-04-25T06:07:50Z</time></trkpt><trkpt lat="45.85481161838472" lon="12.039559248388851"><ele>142.0</ele><time>2026-04-25T06:07:51Z</time></trkpt><trkpt lat="45.85483799482741" lon="12.03947575527299"><ele>142.0</ele><time>2026-04-25T06:07:52Z</time></trkpt><trkpt lat="45.85487006093855" lon="12.039392053520267"><ele>142.0</ele><time>2026-04-25T06:07:52.999Z</time></trkpt><trkpt lat="45.85491080847291" lon="12.039240012670138"><ele>141.0</ele><time>2026-04-25T06:07:54.999Z</time></trkpt><trkpt lat="45.85496847411813" lon="12.039103872297394"><ele>140.0</ele><time>2026-04-25T06:07:56.999Z</time></trkpt><trkpt lat="45.85502410045628" lon="12.038982025240044"><ele>139.0</ele><time>2026-04-25T06:07:58.999Z</time></trkpt><trkpt lat="45.8550786848386" lon="12.038887637220874"><ele>138.0</ele><time>2026-04-25T06:08:00.999Z</time></trkpt><trkpt lat="45.855157834392394" lon="12.038824350141196"><ele>137.0</ele><time>2026-04-25T06:08:02.999Z</time></trkpt><trkpt lat="45.85524376707056" lon="12.038746456670527"><ele>139.6</ele><time>2026-04-25T06:08:04.999Z</time></trkpt><trkpt lat="45.855410425488365" lon="12.03887291849544"><ele>142.2</ele><time>2026-04-25T06:08:05.999Z</time></trkpt><trkpt lat="45.85545916742324" lon="12.038805750102108"><ele>144.8</ele><time>2026-04-25T06:08:06.999Z</time></trkpt><trkpt lat="45.855509671571966" lon="12.03872612653863"><ele>147.4</ele><time>2026-04-25T06:08:07.999Z</time></trkpt><trkpt lat="45.85558600930893" lon="12.038597280082824"><ele>150.0</ele><time>2026-04-25T06:08:09.999Z</time></trkpt><trkpt lat="45.85563443310444" lon="12.03850981445888"><ele>150.0</ele><time>2026-04-25T06:08:10.999Z</time></trkpt><trkpt lat="45.85569023027636" lon="12.038385726961842"><ele>150.0</ele><time>2026-04-25T06:08:12.999Z</time></trkpt><trkpt lat="45.85572828957504" lon="12.038287059385873"><ele>150.0</ele><time>2026-04-25T06:08:14.999Z</time></trkpt><trkpt lat="45.855779898383965" lon="12.038180233019446"><ele>150.0</ele><time>2026-04-25T06:08:16.999Z</time></trkpt><trkpt lat="45.85582685468459" lon="12.038083036502993"><ele>150.0</ele><time>2026-04-25T06:08:18.999Z</time></trkpt><trkpt lat="45.85575929984521" lon="12.0381420054922"><ele>150.0</ele><time>2026-04-25T06:08:27.999Z</time></trkpt><trkpt lat="45.85570725361313" lon="12.038211657036078"><ele>149.99999999999997</ele><time>2026-04-25T06:08:31.999Z</time></trkpt><trkpt lat="45.85566372054871" lon="12.03829936201521"><ele>150.0</ele><time>2026-04-25T06:08:35.999Z</time></trkpt><trkpt lat="45.855630042329715" lon="12.038385632309309"><ele>150.0</ele><time>2026-04-25T06:08:38.999Z</time></trkpt><trkpt lat="45.85559481584497" lon="12.038470627800583"><ele>150.0</ele><time>2026-04-25T06:08:41.999Z</time></trkpt><trkpt lat="45.855572183082096" lon="12.03856504919734"><ele>150.0</ele><time>2026-04-25T06:08:45.998Z</time></trkpt><trkpt lat="45.85552886634503" lon="12.038660132940532"><ele>149.99999999999997</ele><time>2026-04-25T06:08:48.998Z</time></trkpt><trkpt lat="45.85547700289977" lon="12.038749337851515"><ele>150.0</ele><time>2026-04-25T06:08:52.998Z</time></trkpt><trkpt lat="45.85541621984213" lon="12.038828269234434"><ele>149.99999999999997</ele><time>2026-04-25T06:08:56.998Z</time></trkpt><trkpt lat="45.85535919432234" lon="12.038876674790618"><ele>150.0</ele><time>2026-04-25T06:08:59.998Z</time></trkpt><trkpt lat="45.85532366655369" lon="12.0389559888049"><ele>150.0</ele><time>2026-04-25T06:09:02.998Z</time></trkpt><trkpt lat="45.85527193921512" lon="12.03904484051186"><ele>150.0</ele><time>2026-04-25T06:09:06.998Z</time></trkpt><trkpt lat="45.85522995784284" lon="12.039141955038978"><ele>150.0</ele><time>2026-04-25T06:09:10.998Z</time></trkpt><trkpt lat="45.85524622637011" lon="12.039229908450451"><ele>149.99999999999997</ele><time>2026-04-25T06:09:12.998Z</time></trkpt><trkpt lat="45.85532135275818" lon="12.039268774947866"><ele>150.0</ele><time>2026-04-25T06:09:14.998Z</time></trkpt><trkpt lat="45.855384785750324" lon="12.039362570931107"><ele>150.16666666666666</ele><time>2026-04-25T06:09:17.998Z</time></trkpt><trkpt lat="45.85543549161782" lon="12.039479821548671"><ele>150.33333333333334</ele><time>2026-04-25T06:09:20.998Z</time></trkpt><trkpt lat="45.85546208141793" lon="12.039571614596584"><ele>150.5</ele><time>2026-04-25T06:09:22.998Z</time></trkpt><trkpt lat="45.855484164536335" lon="12.039676728118984"><ele>150.66666666666669</ele><time>2026-04-25T06:09:24.998Z</time></trkpt><trkpt lat="45.85551654549334" lon="12.039797686763983"><ele>150.83333333333334</ele><time>2026-04-25T06:09:26.998Z</time></trkpt><trkpt lat="45.855544481555455" lon="12.039923985795717"><ele>151.0</ele><time>2026-04-25T06:09:28.998Z</time></trkpt><trkpt lat="45.85557373321689" lon="12.040056368282245"><ele>150.4</ele><time>2026-04-25T06:09:30.998Z</time></trkpt><trkpt lat="45.855604899431846" lon="12.040194074141889"><ele>149.8</ele><time>2026-04-25T06:09:32.998Z</time></trkpt><trkpt lat="45.855637535596756" lon="12.040332298998834"><ele>149.20000000000002</ele><time>2026-04-25T06:09:34.998Z</time></trkpt><trkpt lat="45.855672573673466" lon="12.040474922445163"><ele>148.6</ele><time>2026-04-25T06:09:36.998Z</time></trkpt><trkpt lat="45.85570610764027" lon="12.040618110270902"><ele>148.0</ele><time>2026-04-25T06:09:38.998Z</time></trkpt><trkpt lat="45.85574082805589" lon="12.040764276246646"><ele>148.0</ele><time>2026-04-25T06:09:40.997Z</time></trkpt><trkpt lat="45.85577832606441" lon="12.040911381700646"><ele>148.0</ele><time>2026-04-25T06:09:43Z</time></trkpt><trkpt lat="45.85581378199681" lon="12.04106230232516"><ele>148.0</ele><time>2026-04-25T06:09:45Z</time></trkpt><trkpt lat="45.85584740996366" lon="12.041218256584928"><ele>148.0</ele><time>2026-04-25T06:09:47Z</time></trkpt><trkpt lat="45.85589994869692" lon="12.041351507239467"><ele>148.0</ele><time>2026-04-25T06:09:49Z</time></trkpt><trkpt lat="45.85600638312356" lon="12.041374289004466"><ele>148.0</ele><time>2026-04-25T06:09:51Z</time></trkpt><trkpt lat="45.85610881297556" lon="12.041319644451084"><ele>148.0</ele><time>2026-04-25T06:09:53Z</time></trkpt><trkpt lat="45.85620858779799" lon="12.04127578598646"><ele>148.0</ele><time>2026-04-25T06:09:55Z</time></trkpt><trkpt lat="45.856302478475705" lon="12.041245412210753"><ele>148.0</ele><time>2026-04-25T06:09:57Z</time></trkpt><trkpt lat="45.85639066573984" lon="12.041211224915243"><ele>148.0</ele><time>2026-04-25T06:09:59Z</time></trkpt><trkpt lat="45.856476068774974" lon="12.04118349054594"><ele>148.0</ele><time>2026-04-25T06:10:01Z</time></trkpt><trkpt lat="45.8565645009044" lon="12.041156009986642"><ele>148.0</ele><time>2026-04-25T06:10:03Z</time></trkpt><trkpt lat="45.8566581723271" lon="12.04112774013876"><ele>148.0</ele><time>2026-04-25T06:10:05Z</time></trkpt><trkpt lat="45.85675401958004" lon="12.041118494639237"><ele>148.0</ele><time>2026-04-25T06:10:07Z</time></trkpt><trkpt lat="45.856854829016456" lon="12.041083380302636"><ele>148.0</ele><time>2026-04-25T06:10:09Z</time></trkpt><trkpt lat="45.85694590905431" lon="12.040992957669472"><ele>148.4</ele><time>2026-04-25T06:10:11Z</time></trkpt><trkpt lat="45.85701815606135" lon="12.040886098979009"><ele>148.8</ele><time>2026-04-25T06:10:12.999Z</time></trkpt><trkpt lat="45.857087951407564" lon="12.040783092421508"><ele>149.2</ele><time>2026-04-25T06:10:14.999Z</time></trkpt><trkpt lat="45.857159733793765" lon="12.040671970479362"><ele>149.6</ele><time>2026-04-25T06:10:16.999Z</time></trkpt><trkpt lat="45.85722913546568" lon="12.040563312499327"><ele>150.0</ele><time>2026-04-25T06:10:18.999Z</time></trkpt><trkpt lat="45.85730146217035" lon="12.040450075037208"><ele>150.4</ele><time>2026-04-25T06:10:20.999Z</time></trkpt><trkpt lat="45.85737308113224" lon="12.040341903349235"><ele>150.8</ele><time>2026-04-25T06:10:22.999Z</time></trkpt><trkpt lat="45.857447898445045" lon="12.040231486756356"><ele>151.2</ele><time>2026-04-25T06:10:24.999Z</time></trkpt><trkpt lat="45.85752287336945" lon="12.040117655693903"><ele>151.6</ele><time>2026-04-25T06:10:26.999Z</time></trkpt><trkpt lat="45.85759727117897" lon="12.03999823398812"><ele>152.0</ele><time>2026-04-25T06:10:28.999Z</time></trkpt><trkpt lat="45.85767143793185" lon="12.03987849352689"><ele>155.8</ele><time>2026-04-25T06:10:30.999Z</time></trkpt><trkpt lat="45.85774531150897" lon="12.039763655959623"><ele>159.6</ele><time>2026-04-25T06:10:32.999Z</time></trkpt><trkpt lat="45.85781943311929" lon="12.03965050843981"><ele>163.4</ele><time>2026-04-25T06:10:34.999Z</time></trkpt><trkpt lat="45.85789334029723" lon="12.039539853658525"><ele>167.20000000000002</ele><time>2026-04-25T06:10:36.999Z</time></trkpt><trkpt lat="45.85796307634334" lon="12.039429925276623"><ele>171.0</ele><time>2026-04-25T06:10:38.999Z</time></trkpt><trkpt lat="45.858073776482684" lon="12.039395121323787"><ele>171.0</ele><time>2026-04-25T06:10:40.999Z</time></trkpt><trkpt lat="45.858190588748705" lon="12.039414870066302"><ele>171.0</ele><time>2026-04-25T06:10:42.999Z</time></trkpt><trkpt lat="45.8583104162921" lon="12.039439442226675"><ele>171.0</ele><time>2026-04-25T06:10:44.999Z</time></trkpt><trkpt lat="45.858428316663954" lon="12.039476206527318"><ele>171.0</ele><time>2026-04-25T06:10:46.999Z</time></trkpt><trkpt lat="45.85854846641569" lon="12.039459216804534"><ele>169.0</ele><time>2026-04-25T06:10:48.999Z</time></trkpt><trkpt lat="45.85865420877796" lon="12.03943303061212"><ele>167.0</ele><time>2026-04-25T06:10:50.999Z</time></trkpt><trkpt lat="45.85875140257625" lon="12.039427421970856"><ele>165.0</ele><time>2026-04-25T06:10:52.999Z</time></trkpt><trkpt lat="45.8588399619168" lon="12.039435700237492"><ele>163.0</ele><time>2026-04-25T06:10:54.999Z</time></trkpt><trkpt lat="45.85892650757028" lon="12.03945718819996"><ele>161.0</ele><time>2026-04-25T06:10:56.999Z</time></trkpt><trkpt lat="45.859002433624525" lon="12.039475822050441"><ele>161.0</ele><time>2026-04-25T06:10:58.999Z</time></trkpt><trkpt lat="45.85909204167624" lon="12.039503846180873"><ele>161.0</ele><time>2026-04-25T06:11:00.999Z</time></trkpt><trkpt lat="45.85917433241234" lon="12.039554512758857"><ele>161.0</ele><time>2026-04-25T06:11:02.999Z</time></trkpt><trkpt lat="45.85927169560667" lon="12.03938100738009"><ele>161.0</ele><time>2026-04-25T06:11:06.998Z</time></trkpt><trkpt lat="45.85930168513473" lon="12.039300004508577"><ele>161.0</ele><time>2026-04-25T06:11:08.998Z</time></trkpt><trkpt lat="45.859332343056835" lon="12.039216728878532"><ele>163.66666666666666</ele><time>2026-04-25T06:11:10.998Z</time></trkpt><trkpt lat="45.859373253478985" lon="12.039102338103932"><ele>166.33333333333331</ele><time>2026-04-25T06:11:13.998Z</time></trkpt><trkpt lat="45.85939930207329" lon="12.039006711545856"><ele>169.0</ele><time>2026-04-25T06:11:16.998Z</time></trkpt><trkpt lat="45.85942028423038" lon="12.038920360672172"><ele>171.66666666666666</ele><time>2026-04-25T06:11:19.998Z</time></trkpt><trkpt lat="45.859443650271636" lon="12.038814940981997"><ele>174.33333333333334</ele><time>2026-04-25T06:11:23.998Z</time></trkpt><trkpt lat="45.85946601306276" lon="12.03871135370565"><ele>177.0</ele><time>2026-04-25T06:11:27.998Z</time></trkpt><trkpt lat="45.85949272730223" lon="12.038612689589968"><ele>177.0</ele><time>2026-04-25T06:11:31.998Z</time></trkpt><trkpt lat="45.8595137389725" lon="12.038525730330988"><ele>177.0</ele><time>2026-04-25T06:11:34.998Z</time></trkpt><trkpt lat="45.859544525977164" lon="12.038412129214613"><ele>177.0</ele><time>2026-04-25T06:11:38.998Z</time></trkpt><trkpt lat="45.8595632981687" lon="12.038321586592618"><ele>177.0</ele><time>2026-04-25T06:11:41.998Z</time></trkpt><trkpt lat="45.859581264480006" lon="12.038227768031799"><ele>177.0</ele><time>2026-04-25T06:11:44.998Z</time></trkpt><trkpt lat="45.85960319353823" lon="12.038124829776448"><ele>177.0</ele><time>2026-04-25T06:11:48Z</time></trkpt><trkpt lat="45.859618704029536" lon="12.03801513598345"><ele>177.0</ele><time>2026-04-25T06:11:51Z</time></trkpt><trkpt lat="45.85963808935979" lon="12.037904734628697"><ele>176.14285714285714</ele><time>2026-04-25T06:11:54Z</time></trkpt><trkpt lat="45.85966280850057" lon="12.037802932082215"><ele>175.28571428571428</ele><time>2026-04-25T06:11:57Z</time></trkpt><trkpt lat="45.85968352423624" lon="12.037703874264205"><ele>174.42857142857142</ele><time>2026-04-25T06:12:00Z</time></trkpt><trkpt lat="45.859697544806316" lon="12.037598635370559"><ele>173.57142857142856</ele><time>2026-04-25T06:12:04Z</time></trkpt><trkpt lat="45.85968663327142" lon="12.037503915431769"><ele>172.71428571428572</ele><time>2026-04-25T06:12:09Z</time></trkpt><trkpt lat="45.85975602094208" lon="12.03742892347684"><ele>171.85714285714283</ele><time>2026-04-25T06:12:12Z</time></trkpt><trkpt lat="45.85969626795191" lon="12.037381068739974"><ele>171.0</ele><time>2026-04-25T06:12:19Z</time></trkpt><trkpt lat="45.8597100124718" lon="12.037278819246312"><ele>168.83333333333334</ele><time>2026-04-25T06:12:26Z</time></trkpt><trkpt lat="45.85966170032015" lon="12.037195758837228"><ele>166.66666666666666</ele><time>2026-04-25T06:12:31Z</time></trkpt><trkpt lat="45.85957160391631" lon="12.037194283514538"><ele>164.5</ele><time>2026-04-25T06:12:33Z</time></trkpt><trkpt lat="45.859510469265814" lon="12.037148365395737"><ele>162.33333333333331</ele><time>2026-04-25T06:12:35Z</time></trkpt><trkpt lat="45.85951957842708" lon="12.037047755857976"><ele>160.16666666666666</ele><time>2026-04-25T06:12:36.999Z</time></trkpt><trkpt lat="45.859600562306625" lon="12.036901393860207"><ele>158.0</ele><time>2026-04-25T06:12:38.999Z</time></trkpt><trkpt lat="45.85963296599437" lon="12.036808053233111"><ele>158.0</ele><time>2026-04-25T06:12:39.999Z</time></trkpt><trkpt lat="45.85965207622287" lon="12.03668509151198"><ele>158.0</ele><time>2026-04-25T06:12:40.999Z</time></trkpt><trkpt lat="45.85966738661164" lon="12.036562544333348"><ele>158.0</ele><time>2026-04-25T06:12:41.999Z</time></trkpt><trkpt lat="45.859687335236075" lon="12.03644495300788"><ele>158.0</ele><time>2026-04-25T06:12:42.999Z</time></trkpt><trkpt lat="45.85970411519458" lon="12.036333747802885"><ele>158.0</ele><time>2026-04-25T06:12:43.999Z</time></trkpt><trkpt lat="45.85971101196747" lon="12.036232182648492"><ele>158.0</ele><time>2026-04-25T06:12:44.999Z</time></trkpt><trkpt lat="45.85971613678229" lon="12.036133824174824"><ele>156.83333333333331</ele><time>2026-04-25T06:12:45.999Z</time></trkpt><trkpt lat="45.85972701252062" lon="12.036036813202724"><ele>155.66666666666666</ele><time>2026-04-25T06:12:46.999Z</time></trkpt><trkpt lat="45.859734053149936" lon="12.035938991780048"><ele>154.5</ele><time>2026-04-25T06:12:47.999Z</time></trkpt><trkpt lat="45.85974589090315" lon="12.035844382234378"><ele>153.33333333333334</ele><time>2026-04-25T06:12:48.999Z</time></trkpt><trkpt lat="45.859750030685376" lon="12.035742089398235"><ele>152.16666666666669</ele><time>2026-04-25T06:12:49.999Z</time></trkpt><trkpt lat="45.85978347912824" lon="12.035581773492073"><ele>151.0</ele><time>2026-04-25T06:12:51.999Z</time></trkpt><trkpt lat="45.859874278214214" lon="12.035480429248777"><ele>151.0</ele><time>2026-04-25T06:12:53.999Z</time></trkpt><trkpt lat="45.8599842756511" lon="12.035479184800465"><ele>151.0</ele><time>2026-04-25T06:12:55.999Z</time></trkpt><trkpt lat="45.860080138468575" lon="12.035495121555737"><ele>151.0</ele><time>2026-04-25T06:12:57.999Z</time></trkpt><trkpt lat="45.86018951173994" lon="12.035496864937214"><ele>151.0</ele><time>2026-04-25T06:12:59.999Z</time></trkpt><trkpt lat="45.86029471557862" lon="12.035509516687878"><ele>151.0</ele><time>2026-04-25T06:13:01.999Z</time></trkpt><trkpt lat="45.860396914776274" lon="12.035525284344951"><ele>150.25</ele><time>2026-04-25T06:13:03.999Z</time></trkpt><trkpt lat="45.86050594885223" lon="12.03549400193609"><ele>149.5</ele><time>2026-04-25T06:13:05.999Z</time></trkpt><trkpt lat="45.860600681271215" lon="12.03539235133558"><ele>148.75</ele><time>2026-04-25T06:13:07.999Z</time></trkpt><trkpt lat="45.860703987" lon="12.035316719121226"><ele>148.0</ele><time>2026-04-25T06:13:09.999Z</time></trkpt><trkpt lat="45.860810504380645" lon="12.035255980030099"><ele>148.0</ele><time>2026-04-25T06:13:11.999Z</time></trkpt><trkpt lat="45.86091371264485" lon="12.03517811792737"><ele>148.0</ele><time>2026-04-25T06:13:13.999Z</time></trkpt><trkpt lat="45.86101960036202" lon="12.035112065050168"><ele>148.0</ele><time>2026-04-25T06:13:15.999Z</time></trkpt><trkpt lat="45.861120193626434" lon="12.035071098889837"><ele>148.0</ele><time>2026-04-25T06:13:17.999Z</time></trkpt><trkpt lat="45.861205358141376" lon="12.0351188230756"><ele>148.0</ele><time>2026-04-25T06:13:19.999Z</time></trkpt><trkpt lat="45.861247485704176" lon="12.035204724642304"><ele>147.14285714285714</ele><time>2026-04-25T06:13:21.999Z</time></trkpt><trkpt lat="45.86126862426997" lon="12.035292279727487"><ele>146.28571428571428</ele><time>2026-04-25T06:13:23.999Z</time></trkpt><trkpt lat="45.86127843369203" lon="12.035406516202869"><ele>145.42857142857142</ele><time>2026-04-25T06:13:26.999Z</time></trkpt><trkpt lat="45.861307444371334" lon="12.035487794480511"><ele>144.57142857142856</ele><time>2026-04-25T06:13:28.998Z</time></trkpt><trkpt lat="45.86134402928814" lon="12.035579236542894"><ele>143.7142857142857</ele><time>2026-04-25T06:13:31.998Z</time></trkpt><trkpt lat="45.86141161093228" lon="12.035634218918089"><ele>142.85714285714286</ele><time>2026-04-25T06:13:35.998Z</time></trkpt><trkpt lat="45.861468908119704" lon="12.035556081436228"><ele>142.0</ele><time>2026-04-25T06:13:37.998Z</time></trkpt><trkpt lat="45.86152032075333" lon="12.035440707869991"><ele>142.0</ele><time>2026-04-25T06:13:39.998Z</time></trkpt><trkpt lat="45.8615818394162" lon="12.035327801748103"><ele>142.0</ele><time>2026-04-25T06:13:41.998Z</time></trkpt><trkpt lat="45.86165948160223" lon="12.035220797569838"><ele>142.0</ele><time>2026-04-25T06:13:43.998Z</time></trkpt><trkpt lat="45.86173804922163" lon="12.035123570424712"><ele>142.0</ele><time>2026-04-25T06:13:45.998Z</time></trkpt><trkpt lat="45.86182742091979" lon="12.035045155459402"><ele>142.0</ele><time>2026-04-25T06:13:47.998Z</time></trkpt><trkpt lat="45.861922065590626" lon="12.035045046121246"><ele>143.2</ele><time>2026-04-25T06:13:49.998Z</time></trkpt><trkpt lat="45.862015594851385" lon="12.035098723571288"><ele>144.39999999999998</ele><time>2026-04-25T06:13:51.998Z</time></trkpt><trkpt lat="45.86210981388515" lon="12.035143155466622"><ele>145.60000000000002</ele><time>2026-04-25T06:13:54Z</time></trkpt><trkpt lat="45.86220687216893" lon="12.035164214223162"><ele>146.8</ele><time>2026-04-25T06:13:56Z</time></trkpt><trkpt lat="45.862284678572784" lon="12.03517806519737"><ele>148.0</ele><time>2026-04-25T06:13:58Z</time></trkpt><trkpt lat="45.86240474194463" lon="12.035175539910203"><ele>148.0</ele><time>2026-04-25T06:14:00Z</time></trkpt><trkpt lat="45.86247111060266" lon="12.035164510878761"><ele>148.0</ele><time>2026-04-25T06:14:01Z</time></trkpt><trkpt lat="45.862539658701216" lon="12.035144561743776"><ele>148.0</ele><time>2026-04-25T06:14:02Z</time></trkpt><trkpt lat="45.86265732835978" lon="12.035070517534248"><ele>148.0</ele><time>2026-04-25T06:14:04Z</time></trkpt><trkpt lat="45.86276349038052" lon="12.034989692856659"><ele>148.0</ele><time>2026-04-25T06:14:06Z</time></trkpt><trkpt lat="45.86286743352933" lon="12.034905358753212"><ele>148.20000000000002</ele><time>2026-04-25T06:14:08Z</time></trkpt><trkpt lat="45.862966503868286" lon="12.034827139234945"><ele>148.4</ele><time>2026-04-25T06:14:10Z</time></trkpt><trkpt lat="45.86305191920832" lon="12.034745407032803"><ele>148.60000000000002</ele><time>2026-04-25T06:14:12Z</time></trkpt><trkpt lat="45.86311541365859" lon="12.034630248248769"><ele>148.8</ele><time>2026-04-25T06:14:14Z</time></trkpt><trkpt lat="45.86316957398891" lon="12.034556619171623"><ele>149.0</ele><time>2026-04-25T06:14:16Z</time></trkpt><trkpt lat="45.86323843945886" lon="12.034494553469116"><ele>149.0</ele><time>2026-04-25T06:14:18Z</time></trkpt><trkpt lat="45.86332260638922" lon="12.03441769334781"><ele>149.0</ele><time>2026-04-25T06:14:20Z</time></trkpt><trkpt lat="45.86340445010383" lon="12.034339756064796"><ele>149.0</ele><time>2026-04-25T06:14:22Z</time></trkpt><trkpt lat="45.86349205872762" lon="12.034254900377867"><ele>149.0</ele><time>2026-04-25T06:14:24Z</time></trkpt><trkpt lat="45.86357272301764" lon="12.034175078555256"><ele>149.0</ele><time>2026-04-25T06:14:26Z</time></trkpt><trkpt lat="45.8636485054931" lon="12.034104585831688"><ele>149.42857142857142</ele><time>2026-04-25T06:14:28Z</time></trkpt><trkpt lat="45.86370445408572" lon="12.034049586191479"><ele>149.85714285714283</ele><time>2026-04-25T06:14:31Z</time></trkpt><trkpt lat="45.86376795009251" lon="12.034015170625391"><ele>150.28571428571428</ele><time>2026-04-25T06:14:42Z</time></trkpt><trkpt lat="45.863841274813524" lon="12.033961364746968"><ele>150.71428571428572</ele><time>2026-04-25T06:14:45Z</time></trkpt><trkpt lat="45.863918483759605" lon="12.033904708422407"><ele>151.14285714285717</ele><time>2026-04-25T06:14:48Z</time></trkpt><trkpt lat="45.863987715728015" lon="12.033853906018289"><ele>151.57142857142856</ele><time>2026-04-25T06:14:52Z</time></trkpt><trkpt lat="45.864024970154325" lon="12.033780099215264"><ele>152.0</ele><time>2026-04-25T06:14:54.999Z</time></trkpt><trkpt lat="45.864072545098956" lon="12.033661546911231"><ele>152.66666666666666</ele><time>2026-04-25T06:14:58.999Z</time></trkpt><trkpt lat="45.86391409458554" lon="12.033200443248598"><ele>153.33333333333334</ele><time>2026-04-25T06:14:59.999Z</time></trkpt><trkpt lat="45.86392476687952" lon="12.033072381568278"><ele>154.0</ele><time>2026-04-25T06:15:02.999Z</time></trkpt><trkpt lat="45.863931256108636" lon="12.032953766877627"><ele>154.0</ele><time>2026-04-25T06:15:05.999Z</time></trkpt><trkpt lat="45.863934233132746" lon="12.0328365705807"><ele>154.0</ele><time>2026-04-25T06:15:09.999Z</time></trkpt><trkpt lat="45.86396212909524" lon="12.032717887993536"><ele>154.0</ele><time>2026-04-25T06:15:13.999Z</time></trkpt><trkpt lat="45.86389885785311" lon="12.032670401402994"><ele>154.0</ele><time>2026-04-25T06:15:44.997Z</time></trkpt><trkpt lat="45.86386121568669" lon="12.032596230094823"><ele>154.0</ele><time>2026-04-25T06:15:48.997Z</time></trkpt><trkpt lat="45.86381202855528" lon="12.03251086197347"><ele>154.0</ele><time>2026-04-25T06:15:52.997Z</time></trkpt><trkpt lat="45.86376309501721" lon="12.032442968039254"><ele>154.0</ele><time>2026-04-25T06:15:56.997Z</time></trkpt><trkpt lat="45.86371116875953" lon="12.032369632203803"><ele>154.71428571428572</ele><time>2026-04-25T06:16:01Z</time></trkpt><trkpt lat="45.863654590279516" lon="12.032296032082733"><ele>155.42857142857144</ele><time>2026-04-25T06:16:06Z</time></trkpt><trkpt lat="45.86360124484299" lon="12.032235649744418"><ele>156.14285714285714</ele><time>2026-04-25T06:16:10Z</time></trkpt><trkpt lat="45.86352788235357" lon="12.032235032806714"><ele>156.85714285714286</ele><time>2026-04-25T06:16:15Z</time></trkpt><trkpt lat="45.86348280475879" lon="12.032316756263828"><ele>157.57142857142858</ele><time>2026-04-25T06:16:18.999Z</time></trkpt><trkpt lat="45.86347403354601" lon="12.032424454554613"><ele>158.28571428571428</ele><time>2026-04-25T06:16:23.999Z</time></trkpt><trkpt lat="45.86341627123702" lon="12.032465954675923"><ele>159.0</ele><time>2026-04-25T06:16:28.999Z</time></trkpt><trkpt lat="45.86341704072582" lon="12.032355199403245"><ele>159.0</ele><time>2026-04-25T06:16:31.999Z</time></trkpt><trkpt lat="45.86340771634317" lon="12.032250879067545"><ele>159.0</ele><time>2026-04-25T06:16:34.999Z</time></trkpt><trkpt lat="45.86338837228959" lon="12.032138677466166"><ele>159.0</ele><time>2026-04-25T06:16:37.999Z</time></trkpt><trkpt lat="45.86335327933272" lon="12.03201991515191"><ele>159.0</ele><time>2026-04-25T06:16:40.999Z</time></trkpt><trkpt lat="45.86332960683404" lon="12.0318955278439"><ele>159.0</ele><time>2026-04-25T06:16:43.999Z</time></trkpt><trkpt lat="45.86331429613239" lon="12.031764502516062"><ele>159.0</ele><time>2026-04-25T06:16:46.999Z</time></trkpt><trkpt lat="45.86329837279684" lon="12.031633362106795"><ele>159.5</ele><time>2026-04-25T06:16:49.999Z</time></trkpt><trkpt lat="45.86328642326421" lon="12.031542422150551"><ele>160.0</ele><time>2026-04-25T06:16:51.999Z</time></trkpt><trkpt lat="45.86332570257057" lon="12.031424762853252"><ele>160.5</ele><time>2026-04-25T06:16:54.999Z</time></trkpt><trkpt lat="45.86339410328006" lon="12.031382482513157"><ele>161.0</ele><time>2026-04-25T06:16:56.999Z</time></trkpt><trkpt lat="45.8634659722445" lon="12.031340973580205"><ele>161.5</ele><time>2026-04-25T06:16:58.999Z</time></trkpt><trkpt lat="45.86354496938165" lon="12.03129974864913"><ele>162.0</ele><time>2026-04-25T06:17:00.999Z</time></trkpt><trkpt lat="45.86362546174179" lon="12.031253883218875"><ele>162.39999999999998</ele><time>2026-04-25T06:17:02.999Z</time></trkpt><trkpt lat="45.86370858109807" lon="12.031204993648535"><ele>162.79999999999998</ele><time>2026-04-25T06:17:04.999Z</time></trkpt><trkpt lat="45.863791217858534" lon="12.031150101980034"><ele>163.2</ele><time>2026-04-25T06:17:06.999Z</time></trkpt><trkpt lat="45.863877366686424" lon="12.031092395813332"><ele>163.6</ele><time>2026-04-25T06:17:08.998Z</time></trkpt><trkpt lat="45.863962504927336" lon="12.031046852590219"><ele>164.0</ele><time>2026-04-25T06:17:10.998Z</time></trkpt><trkpt lat="45.86404890380826" lon="12.030994976526708"><ele>164.0</ele><time>2026-04-25T06:17:12.998Z</time></trkpt><trkpt lat="45.864134659941406" lon="12.030941076447712"><ele>164.0</ele><time>2026-04-25T06:17:14.998Z</time></trkpt><trkpt lat="45.86422252107524" lon="12.030890213621747"><ele>164.0</ele><time>2026-04-25T06:17:16.998Z</time></trkpt><trkpt lat="45.864306309775024" lon="12.03084006658914"><ele>164.0</ele><time>2026-04-25T06:17:18.998Z</time></trkpt><trkpt lat="45.86438828231988" lon="12.030796036555326"><ele>164.0</ele><time>2026-04-25T06:17:20.998Z</time></trkpt><trkpt lat="45.86446706892364" lon="12.030743933454929"><ele>163.83333333333331</ele><time>2026-04-25T06:17:22.998Z</time></trkpt><trkpt lat="45.86455023245207" lon="12.030700597743152"><ele>163.66666666666666</ele><time>2026-04-25T06:17:24.998Z</time></trkpt><trkpt lat="45.86463369187149" lon="12.03066657108751"><ele>163.5</ele><time>2026-04-25T06:17:26.998Z</time></trkpt><trkpt lat="45.864710339900604" lon="12.030644880156114"><ele>163.33333333333334</ele><time>2026-04-25T06:17:28.998Z</time></trkpt><trkpt lat="45.864783547596126" lon="12.030638198363631"><ele>163.16666666666669</ele><time>2026-04-25T06:17:30.998Z</time></trkpt><trkpt lat="45.86485507182233" lon="12.030624595767826"><ele>163.0</ele><time>2026-04-25T06:17:32.998Z</time></trkpt><trkpt lat="45.86492254304135" lon="12.030611848799367"><ele>163.0</ele><time>2026-04-25T06:17:34.998Z</time></trkpt><trkpt lat="45.86499726383106" lon="12.030595392564736"><ele>163.0</ele><time>2026-04-25T06:17:36.998Z</time></trkpt><trkpt lat="45.865102907456304" lon="12.030572502587727"><ele>163.0</ele><time>2026-04-25T06:17:38.998Z</time></trkpt><trkpt lat="45.86521634648532" lon="12.030523657365105"><ele>163.0</ele><time>2026-04-25T06:17:40.998Z</time></trkpt><trkpt lat="45.86528785457929" lon="12.03052467799013"><ele>163.0</ele><time>2026-04-25T06:17:41.998Z</time></trkpt><trkpt lat="45.865395377586786" lon="12.030513224064544"><ele>162.66666666666669</ele><time>2026-04-25T06:17:43.998Z</time></trkpt><trkpt lat="45.865491347177496" lon="12.030536171274367"><ele>162.33333333333334</ele><time>2026-04-25T06:17:45.998Z</time></trkpt><trkpt lat="45.86557862837501" lon="12.030550592885968"><ele>162.0</ele><time>2026-04-25T06:17:47.998Z</time></trkpt><trkpt lat="45.86564585761932" lon="12.030615854436464"><ele>161.66666666666666</ele><time>2026-04-25T06:17:49.998Z</time></trkpt><trkpt lat="45.86571478582429" lon="12.030681328482368"><ele>161.33333333333331</ele><time>2026-04-25T06:17:52.998Z</time></trkpt><trkpt lat="45.86577811541877" lon="12.030728136259611"><ele>161.0</ele><time>2026-04-25T06:17:55.998Z</time></trkpt><trkpt lat="45.86584193492561" lon="12.030733080556706"><ele>161.0</ele><time>2026-04-25T06:17:58.998Z</time></trkpt><trkpt lat="45.865912711659774" lon="12.030663302095851"><ele>161.0</ele><time>2026-04-25T06:18:01.997Z</time></trkpt><trkpt lat="45.86595971124562" lon="12.030596877754231"><ele>161.0</ele><time>2026-04-25T06:18:03.997Z</time></trkpt><trkpt lat="45.86601389071489" lon="12.030526198863793"><ele>161.0</ele><time>2026-04-25T06:18:06Z</time></trkpt><trkpt lat="45.86606846639941" lon="12.030454736840763"><ele>161.0</ele><time>2026-04-25T06:18:08Z</time></trkpt><trkpt lat="45.86611399389428" lon="12.03036834078454"><ele>161.0</ele><time>2026-04-25T06:18:10Z</time></trkpt><trkpt lat="45.866180116556315" lon="12.030308540754627"><ele>161.33333333333331</ele><time>2026-04-25T06:18:12Z</time></trkpt><trkpt lat="45.866229686837286" lon="12.030209898060233"><ele>161.66666666666666</ele><time>2026-04-25T06:18:14Z</time></trkpt><trkpt lat="45.86629087824441" lon="12.030124087825696"><ele>162.0</ele><time>2026-04-25T06:18:16Z</time></trkpt><trkpt lat="45.86636477333718" lon="12.030048754988988"><ele>162.33333333333334</ele><time>2026-04-25T06:18:18Z</time></trkpt><trkpt lat="45.86642860189658" lon="12.029951366143964"><ele>162.66666666666669</ele><time>2026-04-25T06:18:20Z</time></trkpt><trkpt lat="45.866487438901366" lon="12.029861451291042"><ele>163.0</ele><time>2026-04-25T06:18:22Z</time></trkpt><trkpt lat="45.86655611568773" lon="12.029756499254038"><ele>163.0</ele><time>2026-04-25T06:18:24Z</time></trkpt><trkpt lat="45.866616054962456" lon="12.029646919350618"><ele>163.0</ele><time>2026-04-25T06:18:26Z</time></trkpt><trkpt lat="45.86668605966627" lon="12.029542011287965"><ele>163.0</ele><time>2026-04-25T06:18:28Z</time></trkpt><trkpt lat="45.86675892725102" lon="12.029465831674345"><ele>163.0</ele><time>2026-04-25T06:18:30Z</time></trkpt><trkpt lat="45.86681809911676" lon="12.029386893200797"><ele>163.0</ele><time>2026-04-25T06:18:32Z</time></trkpt><trkpt lat="45.86687304604591" lon="12.029313587214384"><ele>163.0</ele><time>2026-04-25T06:18:34Z</time></trkpt><trkpt lat="45.86692543398893" lon="12.029211845849089"><ele>163.0</ele><time>2026-04-25T06:18:35.999Z</time></trkpt><trkpt lat="45.86698886341817" lon="12.02914897846592"><ele>163.0</ele><time>2026-04-25T06:18:37.999Z</time></trkpt><trkpt lat="45.86706802364444" lon="12.029104590125955"><ele>163.0</ele><time>2026-04-25T06:18:39.999Z</time></trkpt><trkpt lat="45.86711771574994" lon="12.029010408327249"><ele>163.0</ele><time>2026-04-25T06:18:41.999Z</time></trkpt><trkpt lat="45.86712097531858" lon="12.028887186501155"><ele>163.0</ele><time>2026-04-25T06:18:43.999Z</time></trkpt><trkpt lat="45.867131482923924" lon="12.028764664941637"><ele>163.0</ele><time>2026-04-25T06:18:45.999Z</time></trkpt><trkpt lat="45.8671694295133" lon="12.028654215912372"><ele>163.16666666666669</ele><time>2026-04-25T06:18:47.999Z</time></trkpt><trkpt lat="45.86721031377479" lon="12.028542593168867"><ele>163.33333333333334</ele><time>2026-04-25T06:18:49.999Z</time></trkpt><trkpt lat="45.8672343124946" lon="12.02842069724572"><ele>163.5</ele><time>2026-04-25T06:18:51.999Z</time></trkpt><trkpt lat="45.86727331089123" lon="12.02833532868986"><ele>163.66666666666666</ele><time>2026-04-25T06:18:53.999Z</time></trkpt><trkpt lat="45.867325753191736" lon="12.028247202763122"><ele>163.83333333333331</ele><time>2026-04-25T06:18:57.999Z</time></trkpt><trkpt lat="45.867399682883644" lon="12.028207518031714"><ele>164.0</ele><time>2026-04-25T06:19:00.999Z</time></trkpt><trkpt lat="45.86745950460319" lon="12.02816615506455"><ele>163.99999999999997</ele><time>2026-04-25T06:19:03.999Z</time></trkpt><trkpt lat="45.8675224143842" lon="12.028177674890191"><ele>164.0</ele><time>2026-04-25T06:19:06.999Z</time></trkpt><trkpt lat="45.86755971635945" lon="12.02825949421435"><ele>164.0</ele><time>2026-04-25T06:19:09.999Z</time></trkpt><trkpt lat="45.86754659374891" lon="12.028354252801577"><ele>164.0</ele><time>2026-04-25T06:19:12.999Z</time></trkpt><trkpt lat="45.86751612112697" lon="12.028436161951097"><ele>164.0</ele><time>2026-04-25T06:19:15.999Z</time></trkpt><trkpt lat="45.86747162201694" lon="12.02854600206564"><ele>163.99999999999997</ele><time>2026-04-25T06:19:18.999Z</time></trkpt><trkpt lat="45.867438395858066" lon="12.028628491728066"><ele>164.0</ele><time>2026-04-25T06:19:20.999Z</time></trkpt><trkpt lat="45.867430952133105" lon="12.028724987657245"><ele>163.99999999999997</ele><time>2026-04-25T06:19:22.999Z</time></trkpt><trkpt lat="45.867444083084365" lon="12.028829832005766"><ele>164.0</ele><time>2026-04-25T06:19:24.999Z</time></trkpt><trkpt lat="45.86748993752654" lon="12.028908477041767"><ele>164.0</ele><time>2026-04-25T06:19:26.998Z</time></trkpt><trkpt lat="45.86753711717383" lon="12.028975300474006"><ele>164.0</ele><time>2026-04-25T06:19:28.998Z</time></trkpt><trkpt lat="45.86758405464927" lon="12.029035683034328"><ele>164.0</ele><time>2026-04-25T06:19:30.998Z</time></trkpt><trkpt lat="45.86763527794838" lon="12.029107614510554"><ele>163.99999999999997</ele><time>2026-04-25T06:19:33.998Z</time></trkpt><trkpt lat="45.86769038607783" lon="12.029168834220384"><ele>164.0</ele><time>2026-04-25T06:19:36.998Z</time></trkpt><trkpt lat="45.867758897570994" lon="12.02922885650066"><ele>164.16666666666666</ele><time>2026-04-25T06:19:39.998Z</time></trkpt><trkpt lat="45.86781741715063" lon="12.029285735578393"><ele>164.33333333333331</ele><time>2026-04-25T06:19:42.998Z</time></trkpt><trkpt lat="45.8678708357459" lon="12.02936837364812"><ele>164.5</ele><time>2026-04-25T06:19:45.998Z</time></trkpt><trkpt lat="45.86793286203065" lon="12.029444541366896"><ele>164.66666666666666</ele><time>2026-04-25T06:19:48.998Z</time></trkpt><trkpt lat="45.86799122648287" lon="12.029519645552927"><ele>164.83333333333334</ele><time>2026-04-25T06:19:51.998Z</time></trkpt><trkpt lat="45.868044074704244" lon="12.029593615328979"><ele>165.0</ele><time>2026-04-25T06:19:54.998Z</time></trkpt><trkpt lat="45.86809290217189" lon="12.029666676326013"><ele>165.00000000000003</ele><time>2026-04-25T06:19:57.998Z</time></trkpt><trkpt lat="45.86814296552619" lon="12.029742033955"><ele>165.0</ele><time>2026-04-25T06:20:00.998Z</time></trkpt><trkpt lat="45.86820594733745" lon="12.02983897557031"><ele>165.0</ele><time>2026-04-25T06:20:03.998Z</time></trkpt><trkpt lat="45.868255188814075" lon="12.029908901250002"><ele>165.0</ele><time>2026-04-25T06:20:05.998Z</time></trkpt><trkpt lat="45.86830301134413" lon="12.029977188451626"><ele>165.0</ele><time>2026-04-25T06:20:07.998Z</time></trkpt><trkpt lat="45.868351600895345" lon="12.030051688666747"><ele>165.00000000000003</ele><time>2026-04-25T06:20:09.998Z</time></trkpt><trkpt lat="45.86840029744281" lon="12.030124142059092"><ele>165.0</ele><time>2026-04-25T06:20:12Z</time></trkpt><trkpt lat="45.86845369894347" lon="12.030202899230552"><ele>165.16666666666666</ele><time>2026-04-25T06:20:14Z</time></trkpt><trkpt lat="45.86851236247302" lon="12.030280425022422"><ele>165.33333333333334</ele><time>2026-04-25T06:20:16Z</time></trkpt><trkpt lat="45.86856824232578" lon="12.030363557146082"><ele>165.5</ele><time>2026-04-25T06:20:18Z</time></trkpt><trkpt lat="45.86862783248688" lon="12.030442215127513"><ele>165.66666666666669</ele><time>2026-04-25T06:20:20Z</time></trkpt><trkpt lat="45.86868693775995" lon="12.030527270296377"><ele>165.83333333333334</ele><time>2026-04-25T06:20:22Z</time></trkpt><trkpt lat="45.868745495302804" lon="12.030599425643336"><ele>166.0</ele><time>2026-04-25T06:20:24Z</time></trkpt><trkpt lat="45.86880054158161" lon="12.030676185461472"><ele>166.0</ele><time>2026-04-25T06:20:26Z</time></trkpt><trkpt lat="45.86886132222878" lon="12.030755909764824"><ele>166.0</ele><time>2026-04-25T06:20:28Z</time></trkpt><trkpt lat="45.86892405226871" lon="12.030839919723096"><ele>166.0</ele><time>2026-04-25T06:20:30Z</time></trkpt><trkpt lat="45.8689805076076" lon="12.030923506498919"><ele>166.0</ele><time>2026-04-25T06:20:32Z</time></trkpt><trkpt lat="45.869041099806836" lon="12.031006969572204"><ele>166.0</ele><time>2026-04-25T06:20:34Z</time></trkpt><trkpt lat="45.86910501169781" lon="12.031090434452679"><ele>166.0</ele><time>2026-04-25T06:20:36Z</time></trkpt><trkpt lat="45.869166362487604" lon="12.031176503388776"><ele>166.0</ele><time>2026-04-25T06:20:38Z</time></trkpt><trkpt lat="45.86922921024752" lon="12.031256284996813"><ele>166.0</ele><time>2026-04-25T06:20:40Z</time></trkpt><trkpt lat="45.8692968202013" lon="12.031339017155801"><ele>166.0</ele><time>2026-04-25T06:20:42Z</time></trkpt><trkpt lat="45.869367667287705" lon="12.031421061967244"><ele>166.0</ele><time>2026-04-25T06:20:44Z</time></trkpt><trkpt lat="45.86944261508763" lon="12.03148850665409"><ele>166.0</ele><time>2026-04-25T06:20:46Z</time></trkpt><trkpt lat="45.86952742649025" lon="12.031554217985482"><ele>166.0</ele><time>2026-04-25T06:20:48Z</time></trkpt><trkpt lat="45.869617411525475" lon="12.031610623992655"><ele>166.0</ele><time>2026-04-25T06:20:50Z</time></trkpt><trkpt lat="45.869711028117045" lon="12.031665846705115"><ele>166.0</ele><time>2026-04-25T06:20:52Z</time></trkpt><trkpt lat="45.86980532349417" lon="12.031722640270239"><ele>166.0</ele><time>2026-04-25T06:20:54Z</time></trkpt><trkpt lat="45.869887223622634" lon="12.031781842675917"><ele>166.0</ele><time>2026-04-25T06:20:56Z</time></trkpt><trkpt lat="45.86998572470355" lon="12.031826942349769"><ele>166.0</ele><time>2026-04-25T06:20:58Z</time></trkpt><trkpt lat="45.870078110135665" lon="12.031881840126356"><ele>165.8</ele><time>2026-04-25T06:20:59.999Z</time></trkpt><trkpt lat="45.87017617609127" lon="12.031936524688042"><ele>165.60000000000002</ele><time>2026-04-25T06:21:01.999Z</time></trkpt><trkpt lat="45.8702742729503" lon="12.031994384301283"><ele>165.4</ele><time>2026-04-25T06:21:03.999Z</time></trkpt><trkpt lat="45.87036880108079" lon="12.032047453301882"><ele>165.2</ele><time>2026-04-25T06:21:05.999Z</time></trkpt><trkpt lat="45.87047358964151" lon="12.032102072720642"><ele>165.0</ele><time>2026-04-25T06:21:07.999Z</time></trkpt><trkpt lat="45.870573119969514" lon="12.032167588882137"><ele>165.0</ele><time>2026-04-25T06:21:09.999Z</time></trkpt><trkpt lat="45.87067637241002" lon="12.03222520079796"><ele>165.0</ele><time>2026-04-25T06:21:11.999Z</time></trkpt><trkpt lat="45.870775328067275" lon="12.032294462015262"><ele>165.0</ele><time>2026-04-25T06:21:13.999Z</time></trkpt><trkpt lat="45.870878837953626" lon="12.032338398666715"><ele>165.0</ele><time>2026-04-25T06:21:15.999Z</time></trkpt><trkpt lat="45.870973460199544" lon="12.032394912294311"><ele>165.0</ele><time>2026-04-25T06:21:17.999Z</time></trkpt><trkpt lat="45.87106650821355" lon="12.032457616266319"><ele>165.0</ele><time>2026-04-25T06:21:19.999Z</time></trkpt><trkpt lat="45.871155344449214" lon="12.032516210232245"><ele>165.0</ele><time>2026-04-25T06:21:21.999Z</time></trkpt><trkpt lat="45.871246385109586" lon="12.032595776791265"><ele>165.0</ele><time>2026-04-25T06:21:23.999Z</time></trkpt><trkpt lat="45.87134015235258" lon="12.032664330308108"><ele>165.0</ele><time>2026-04-25T06:21:25.999Z</time></trkpt><trkpt lat="45.87143681004938" lon="12.032740258087921"><ele>165.0</ele><time>2026-04-25T06:21:27.999Z</time></trkpt><trkpt lat="45.871535933760796" lon="12.03281950485185"><ele>165.0</ele><time>2026-04-25T06:21:29.999Z</time></trkpt><trkpt lat="45.87163725933321" lon="12.032900379028023"><ele>165.0</ele><time>2026-04-25T06:21:31.999Z</time></trkpt><trkpt lat="45.871740868100865" lon="12.032981443128744"><ele>165.0</ele><time>2026-04-25T06:21:33.999Z</time></trkpt><trkpt lat="45.87184620255429" lon="12.033062261827322"><ele>165.0</ele><time>2026-04-25T06:21:35.999Z</time></trkpt><trkpt lat="45.87194899577249" lon="12.033135136665916"><ele>164.8</ele><time>2026-04-25T06:21:37.999Z</time></trkpt><trkpt lat="45.87203642393655" lon="12.033201820711144"><ele>164.6</ele><time>2026-04-25T06:21:39.999Z</time></trkpt><trkpt lat="45.872084430659726" lon="12.033265482876823"><ele>164.39999999999998</ele><time>2026-04-25T06:21:41.999Z</time></trkpt><trkpt lat="45.87205746233815" lon="12.033386674016064"><ele>164.2</ele><time>2026-04-25T06:21:42.999Z</time></trkpt><trkpt lat="45.87204466204755" lon="12.033532249434677"><ele>164.0</ele><time>2026-04-25T06:21:44.999Z</time></trkpt><trkpt lat="45.87204029313718" lon="12.03368292291806"><ele>163.79999999999998</ele><time>2026-04-25T06:21:46.999Z</time></trkpt><trkpt lat="45.87203192023474" lon="12.033821017099338"><ele>163.6</ele><time>2026-04-25T06:21:48.999Z</time></trkpt><trkpt lat="45.87202415259758" lon="12.03396085123853"><ele>163.4</ele><time>2026-04-25T06:21:50.998Z</time></trkpt><trkpt lat="45.87202943419747" lon="12.034111812827653"><ele>163.2</ele><time>2026-04-25T06:21:52.998Z</time></trkpt><trkpt lat="45.87202930257719" lon="12.034260052197876"><ele>163.0</ele><time>2026-04-25T06:21:54.998Z</time></trkpt><trkpt lat="45.87218748782493" lon="12.034412472245464"><ele>162.2857142857143</ele><time>2026-04-25T06:21:56.998Z</time></trkpt><trkpt lat="45.87223116494115" lon="12.034490990092278"><ele>161.57142857142856</ele><time>2026-04-25T06:21:57.998Z</time></trkpt><trkpt lat="45.87227728642583" lon="12.03457135474733"><ele>160.85714285714286</ele><time>2026-04-25T06:21:58.998Z</time></trkpt><trkpt lat="45.8723236944504" lon="12.034649513283386"><ele>160.14285714285717</ele><time>2026-04-25T06:21:59.998Z</time></trkpt><trkpt lat="45.87237213342131" lon="12.034730407748246"><ele>159.42857142857144</ele><time>2026-04-25T06:22:00.998Z</time></trkpt><trkpt lat="45.872424513581485" lon="12.03481599148423"><ele>158.71428571428572</ele><time>2026-04-25T06:22:01.998Z</time></trkpt><trkpt lat="45.8724794381846" lon="12.034893776432838"><ele>158.0</ele><time>2026-04-25T06:22:02.998Z</time></trkpt><trkpt lat="45.87254439144371" lon="12.034962056656465"><ele>156.66666666666666</ele><time>2026-04-25T06:22:03.998Z</time></trkpt><trkpt lat="45.8726098820634" lon="12.035020475890171"><ele>155.33333333333331</ele><time>2026-04-25T06:22:04.998Z</time></trkpt><trkpt lat="45.8726814372538" lon="12.035078978955868"><ele>154.0</ele><time>2026-04-25T06:22:05.998Z</time></trkpt><trkpt lat="45.87275686522463" lon="12.035138719870808"><ele>152.66666666666666</ele><time>2026-04-25T06:22:06.998Z</time></trkpt><trkpt lat="45.87281775805286" lon="12.035201102918824"><ele>151.33333333333334</ele><time>2026-04-25T06:22:07.998Z</time></trkpt><trkpt lat="45.87285389076094" lon="12.035279378830163"><ele>150.0</ele><time>2026-04-25T06:22:08.998Z</time></trkpt><trkpt lat="45.87286941827253" lon="12.035369848035318"><ele>150.0</ele><time>2026-04-25T06:22:09.998Z</time></trkpt><trkpt lat="45.87292332278444" lon="12.03551634517401"><ele>150.0</ele><time>2026-04-25T06:22:11.998Z</time></trkpt><trkpt lat="45.87296508749867" lon="12.035600772780963"><ele>150.0</ele><time>2026-04-25T06:22:12.998Z</time></trkpt><trkpt lat="45.873006946128775" lon="12.035688809946302"><ele>150.0</ele><time>2026-04-25T06:22:13.998Z</time></trkpt><trkpt lat="45.87304963159101" lon="12.035760237163075"><ele>150.0</ele><time>2026-04-25T06:22:14.998Z</time></trkpt><trkpt lat="45.87312750312587" lon="12.035875481820321"><ele>150.0</ele><time>2026-04-25T06:22:17Z</time></trkpt><trkpt lat="45.87319376792614" lon="12.035962349077652"><ele>150.14285714285714</ele><time>2026-04-25T06:22:19Z</time></trkpt><trkpt lat="45.87323612230904" lon="12.036040805438896"><ele>150.28571428571428</ele><time>2026-04-25T06:22:21Z</time></trkpt><trkpt lat="45.873224102708434" lon="12.036138699878068"><ele>150.42857142857144</ele><time>2026-04-25T06:22:23Z</time></trkpt><trkpt lat="45.87321928073098" lon="12.03623397191449"><ele>150.57142857142856</ele><time>2026-04-25T06:22:25Z</time></trkpt><trkpt lat="45.87324861569085" lon="12.036317320371676"><ele>150.71428571428572</ele><time>2026-04-25T06:22:27Z</time></trkpt><trkpt lat="45.87329493918634" lon="12.036406708477308"><ele>150.85714285714286</ele><time>2026-04-25T06:22:29Z</time></trkpt><trkpt lat="45.873340720662775" lon="12.036484341828045"><ele>151.0</ele><time>2026-04-25T06:22:31Z</time></trkpt><trkpt lat="45.873384266605335" lon="12.0365556702709"><ele>151.00000000000003</ele><time>2026-04-25T06:22:33Z</time></trkpt><trkpt lat="45.87342431137433" lon="12.036626250443101"><ele>151.0</ele><time>2026-04-25T06:22:35Z</time></trkpt><trkpt lat="45.87347403654837" lon="12.036694828683114"><ele>151.0</ele><time>2026-04-25T06:22:37Z</time></trkpt><trkpt lat="45.87353276897092" lon="12.036748931889646"><ele>151.0</ele><time>2026-04-25T06:22:39Z</time></trkpt><trkpt lat="45.873580100614895" lon="12.036822042267334"><ele>151.0</ele><time>2026-04-25T06:22:41Z</time></trkpt><trkpt lat="45.87362992972687" lon="12.036880904094593"><ele>151.00000000000003</ele><time>2026-04-25T06:22:43Z</time></trkpt><trkpt lat="45.87369834067969" lon="12.036966084957369"><ele>151.0</ele><time>2026-04-25T06:22:46Z</time></trkpt><trkpt lat="45.87377008204375" lon="12.037040744217618"><ele>152.0</ele><time>2026-04-25T06:22:49Z</time></trkpt><trkpt lat="45.87384934102501" lon="12.037093276379492"><ele>153.0</ele><time>2026-04-25T06:22:52Z</time></trkpt><trkpt lat="45.873925454830264" lon="12.037146028669202"><ele>154.0</ele><time>2026-04-25T06:22:55Z</time></trkpt><trkpt lat="45.873997899710744" lon="12.037193867137683"><ele>155.0</ele><time>2026-04-25T06:22:58Z</time></trkpt><trkpt lat="45.87406529146152" lon="12.03723627499435"><ele>156.0</ele><time>2026-04-25T06:23:01Z</time></trkpt><trkpt lat="45.87413404497396" lon="12.037269327738684"><ele>157.0</ele><time>2026-04-25T06:23:04Z</time></trkpt><trkpt lat="45.87420181354927" lon="12.037318797663506"><ele>157.33333333333334</ele><time>2026-04-25T06:23:07Z</time></trkpt><trkpt lat="45.874271919754506" lon="12.03732178941338"><ele>157.66666666666669</ele><time>2026-04-25T06:23:10Z</time></trkpt><trkpt lat="45.87433684298815" lon="12.037382008866096"><ele>158.0</ele><time>2026-04-25T06:23:13.999Z</time></trkpt><trkpt lat="45.87436807712438" lon="12.037471370656617"><ele>158.33333333333334</ele><time>2026-04-25T06:23:16.999Z</time></trkpt><trkpt lat="45.87442136034425" lon="12.037567278327794"><ele>158.66666666666666</ele><time>2026-04-25T06:23:19.999Z</time></trkpt><trkpt lat="45.87446290322398" lon="12.03768227049813"><ele>159.0</ele><time>2026-04-25T06:23:22.999Z</time></trkpt><trkpt lat="45.8744975900129" lon="12.037764066467092"><ele>159.66666666666666</ele><time>2026-04-25T06:23:24.999Z</time></trkpt><trkpt lat="45.874536466675984" lon="12.037856109469818"><ele>160.33333333333334</ele><time>2026-04-25T06:23:26.999Z</time></trkpt><trkpt lat="45.874579414395825" lon="12.037954661271968"><ele>161.0</ele><time>2026-04-25T06:23:28.999Z</time></trkpt><trkpt lat="45.874623281136614" lon="12.038053578019822"><ele>161.66666666666669</ele><time>2026-04-25T06:23:30.999Z</time></trkpt><trkpt lat="45.87466227203682" lon="12.038150771900392"><ele>162.33333333333334</ele><time>2026-04-25T06:23:32.999Z</time></trkpt><trkpt lat="45.874702807253435" lon="12.038249725780668"><ele>163.0</ele><time>2026-04-25T06:23:34.999Z</time></trkpt><trkpt lat="45.874792814024495" lon="12.038286634660642"><ele>163.0</ele><time>2026-04-25T06:23:36.999Z</time></trkpt><trkpt lat="45.87487493709335" lon="12.038251895907575"><ele>163.0</ele><time>2026-04-25T06:23:38.999Z</time></trkpt><trkpt lat="45.87493433265414" lon="12.038221158084726"><ele>163.0</ele><time>2026-04-25T06:23:40.999Z</time></trkpt><trkpt lat="45.87501418480629" lon="12.038175164824448"><ele>163.0</ele><time>2026-04-25T06:23:43.998Z</time></trkpt><trkpt lat="45.87505932055026" lon="12.038304645706091"><ele>163.0</ele><time>2026-04-25T06:23:46.998Z</time></trkpt><trkpt lat="45.875082577641635" lon="12.03840512278869"><ele>163.0</ele><time>2026-04-25T06:23:48.998Z</time></trkpt><trkpt lat="45.87510745613555" lon="12.038498818674233"><ele>163.0</ele><time>2026-04-25T06:23:50.998Z</time></trkpt><trkpt lat="45.87512937674068" lon="12.038595477070286"><ele>163.0</ele><time>2026-04-25T06:23:52.998Z</time></trkpt><trkpt lat="45.87513249687634" lon="12.038696350563344"><ele>163.0</ele><time>2026-04-25T06:23:54.998Z</time></trkpt><trkpt lat="45.87513034346543" lon="12.03879114476438"><ele>163.0</ele><time>2026-04-25T06:23:56.998Z</time></trkpt><trkpt lat="45.875122296659455" lon="12.038893275915248"><ele>163.0</ele><time>2026-04-25T06:23:58.998Z</time></trkpt><trkpt lat="45.87510789013808" lon="12.038997521969419"><ele>163.0</ele><time>2026-04-25T06:24:00.998Z</time></trkpt><trkpt lat="45.87509273538365" lon="12.039108847338959"><ele>163.0</ele><time>2026-04-25T06:24:02.998Z</time></trkpt><trkpt lat="45.87507802008941" lon="12.039230334184262"><ele>163.0</ele><time>2026-04-25T06:24:04.997Z</time></trkpt><trkpt lat="45.875062976900495" lon="12.039351950885848"><ele>163.0</ele><time>2026-04-25T06:24:06.997Z</time></trkpt><trkpt lat="45.87504636081494" lon="12.039472668339899"><ele>163.0</ele><time>2026-04-25T06:24:08.997Z</time></trkpt><trkpt lat="45.87503102569531" lon="12.03959471407976"><ele>163.0</ele><time>2026-04-25T06:24:10.997Z</time></trkpt><trkpt lat="45.87501906053618" lon="12.039723816289815"><ele>163.0</ele><time>2026-04-25T06:24:12.997Z</time></trkpt><trkpt lat="45.875017219917986" lon="12.039850985580962"><ele>163.0</ele><time>2026-04-25T06:24:14.997Z</time></trkpt><trkpt lat="45.87503485649522" lon="12.039979926749862"><ele>163.0</ele><time>2026-04-25T06:24:16.997Z</time></trkpt><trkpt lat="45.875060345538024" lon="12.040097395917392"><ele>163.0</ele><time>2026-04-25T06:24:18.997Z</time></trkpt><trkpt lat="45.87508865134503" lon="12.040212205572752"><ele>163.0</ele><time>2026-04-25T06:24:20.997Z</time></trkpt><trkpt lat="45.875118626086305" lon="12.040324015920456"><ele>163.0</ele><time>2026-04-25T06:24:23Z</time></trkpt><trkpt lat="45.87515269103118" lon="12.040431059359754"><ele>163.0</ele><time>2026-04-25T06:24:25Z</time></trkpt><trkpt lat="45.875181408450764" lon="12.040526261801762"><ele>163.0</ele><time>2026-04-25T06:24:27Z</time></trkpt><trkpt lat="45.87520794344679" lon="12.040611997260546"><ele>164.5</ele><time>2026-04-25T06:24:29Z</time></trkpt><trkpt lat="45.87523671277861" lon="12.04073953991006"><ele>166.0</ele><time>2026-04-25T06:24:32Z</time></trkpt><trkpt lat="45.8752557539244" lon="12.04084826720392"><ele>167.5</ele><time>2026-04-25T06:24:35Z</time></trkpt><trkpt lat="45.875263918241224" lon="12.040946167590665"><ele>169.0</ele><time>2026-04-25T06:24:38Z</time></trkpt><trkpt lat="45.875282207457104" lon="12.041033497416846"><ele>170.5</ele><time>2026-04-25T06:24:41Z</time></trkpt><trkpt lat="45.87531894300641" lon="12.041130256728783"><ele>172.0</ele><time>2026-04-25T06:24:44.999Z</time></trkpt><trkpt lat="45.87536447490794" lon="12.041221792286093"><ele>172.2857142857143</ele><time>2026-04-25T06:24:48.999Z</time></trkpt><trkpt lat="45.8754122279128" lon="12.041309141060081"><ele>172.57142857142858</ele><time>2026-04-25T06:24:52.999Z</time></trkpt><trkpt lat="45.87547867501619" lon="12.041371717768731"><ele>172.85714285714286</ele><time>2026-04-25T06:24:56.999Z</time></trkpt><trkpt lat="45.87553869312126" lon="12.04142492739157"><ele>173.14285714285717</ele><time>2026-04-25T06:25:00.999Z</time></trkpt><trkpt lat="45.87560781284025" lon="12.041434397946574"><ele>173.42857142857144</ele><time>2026-04-25T06:25:04.999Z</time></trkpt><trkpt lat="45.87567000030356" lon="12.041467349159232"><ele>173.71428571428572</ele><time>2026-04-25T06:25:08.999Z</time></trkpt><trkpt lat="45.87573396264047" lon="12.041492488053823"><ele>174.0</ele><time>2026-04-25T06:25:12.999Z</time></trkpt><trkpt lat="45.87579978943628" lon="12.041518848593851"><ele>174.0</ele><time>2026-04-25T06:25:16.999Z</time></trkpt><trkpt lat="45.87586460364379" lon="12.041544876247281"><ele>174.0</ele><time>2026-04-25T06:25:20.999Z</time></trkpt><trkpt lat="45.87593686887493" lon="12.041578124089538"><ele>174.0</ele><time>2026-04-25T06:25:25.999Z</time></trkpt><trkpt lat="45.87601112791753" lon="12.041598839963278"><ele>174.0</ele><time>2026-04-25T06:25:30.999Z</time></trkpt><trkpt lat="45.87608509825589" lon="12.041650489636382"><ele>174.0</ele><time>2026-04-25T06:25:34.998Z</time></trkpt><trkpt lat="45.876021801768466" lon="12.041629826282854"><ele>174.0</ele><time>2026-04-25T06:26:06.998Z</time></trkpt><trkpt lat="45.87609391718702" lon="12.041634107239279"><ele>174.0</ele><time>2026-04-25T06:26:38Z</time></trkpt><trkpt lat="45.87615934643934" lon="12.041690399484692"><ele>176.0</ele><time>2026-04-25T06:26:40Z</time></trkpt><trkpt lat="45.876199056423175" lon="12.041771426422612"><ele>178.0</ele><time>2026-04-25T06:26:42Z</time></trkpt><trkpt lat="45.87622239625336" lon="12.041880289977247"><ele>180.0</ele><time>2026-04-25T06:26:44Z</time></trkpt><trkpt lat="45.876210154587994" lon="12.041973355105936"><ele>182.0</ele><time>2026-04-25T06:26:46Z</time></trkpt><trkpt lat="45.8762200686656" lon="12.042076678568037"><ele>184.0</ele><time>2026-04-25T06:26:48Z</time></trkpt><trkpt lat="45.87628240453329" lon="12.042192336044828"><ele>186.0</ele><time>2026-04-25T06:26:50Z</time></trkpt><trkpt lat="45.87637205329995" lon="12.042283082217123"><ele>186.0</ele><time>2026-04-25T06:26:52Z</time></trkpt><trkpt lat="45.87648809983336" lon="12.04235520621564"><ele>186.0</ele><time>2026-04-25T06:26:54Z</time></trkpt><trkpt lat="45.87650665571398" lon="12.042467094062692"><ele>186.0</ele><time>2026-04-25T06:26:55Z</time></trkpt><trkpt lat="45.8765916103637" lon="12.042560090075982"><ele>186.0</ele><time>2026-04-25T06:26:58Z</time></trkpt><trkpt lat="45.87663970436914" lon="12.042618728512137"><ele>186.0</ele><time>2026-04-25T06:26:59Z</time></trkpt><trkpt lat="45.87657877833134" lon="12.042542222216724"><ele>183.33333333333334</ele><time>2026-04-25T06:27:04Z</time></trkpt><trkpt lat="45.87662889100838" lon="12.0426256039572"><ele>180.66666666666666</ele><time>2026-04-25T06:27:07.999Z</time></trkpt><trkpt lat="45.87664966602994" lon="12.042712681330084"><ele>178.0</ele><time>2026-04-25T06:27:28.999Z</time></trkpt><trkpt lat="45.87665285608225" lon="12.042854395460777"><ele>175.33333333333331</ele><time>2026-04-25T06:27:30.999Z</time></trkpt><trkpt lat="45.876642850379596" lon="12.043032260119794"><ele>172.66666666666666</ele><time>2026-04-25T06:27:32.999Z</time></trkpt><trkpt lat="45.87663810795846" lon="12.043130270128563"><ele>170.0</ele><time>2026-04-25T06:27:33.999Z</time></trkpt><trkpt lat="45.876633079323305" lon="12.043232879458477"><ele>168.5</ele><time>2026-04-25T06:27:34.999Z</time></trkpt><trkpt lat="45.87662722130502" lon="12.043351977390753"><ele>167.0</ele><time>2026-04-25T06:27:35.999Z</time></trkpt><trkpt lat="45.8766216673785" lon="12.043472678608971"><ele>165.5</ele><time>2026-04-25T06:27:36.999Z</time></trkpt><trkpt lat="45.87661872003202" lon="12.043590264392561"><ele>164.0</ele><time>2026-04-25T06:27:37.999Z</time></trkpt><trkpt lat="45.87661955537303" lon="12.043705732237495"><ele>162.5</ele><time>2026-04-25T06:27:38.999Z</time></trkpt><trkpt lat="45.876621445102494" lon="12.043822895610157"><ele>161.0</ele><time>2026-04-25T06:27:39.999Z</time></trkpt><trkpt lat="45.87662034912222" lon="12.04393603036263"><ele>161.0</ele><time>2026-04-25T06:27:40.999Z</time></trkpt><trkpt lat="45.87661096931282" lon="12.04402839681152"><ele>161.0</ele><time>2026-04-25T06:27:41.999Z</time></trkpt><trkpt lat="45.87657497920237" lon="12.044151165348314"><ele>161.0</ele><time>2026-04-25T06:27:43.999Z</time></trkpt><trkpt lat="45.87655969135131" lon="12.044242461621021"><ele>161.0</ele><time>2026-04-25T06:27:45.999Z</time></trkpt><trkpt lat="45.876535551355154" lon="12.044345852371269"><ele>161.0</ele><time>2026-04-25T06:27:47.999Z</time></trkpt><trkpt lat="45.876543490287396" lon="12.044477641769408"><ele>161.0</ele><time>2026-04-25T06:27:49.999Z</time></trkpt><trkpt lat="45.87655201624223" lon="12.044601217218451"><ele>160.0</ele><time>2026-04-25T06:27:51.999Z</time></trkpt><trkpt lat="45.87657622990946" lon="12.044709482724944"><ele>159.0</ele><time>2026-04-25T06:27:53.999Z</time></trkpt><trkpt lat="45.87648294546017" lon="12.04477613983238"><ele>158.0</ele><time>2026-04-25T06:27:56.998Z</time></trkpt><trkpt lat="45.87640309970544" lon="12.04483673455549"><ele>157.0</ele><time>2026-04-25T06:27:58.998Z</time></trkpt><trkpt lat="45.87631442496379" lon="12.044858999874549"><ele>156.0</ele><time>2026-04-25T06:28:00.998Z</time></trkpt><trkpt lat="45.87622706438518" lon="12.044840719569565"><ele>156.0</ele><time>2026-04-25T06:28:02.998Z</time></trkpt><trkpt lat="45.876151850893265" lon="12.044768972924048"><ele>156.0</ele><time>2026-04-25T06:28:04.998Z</time></trkpt><trkpt lat="45.87608684370634" lon="12.044711694979465"><ele>156.0</ele><time>2026-04-25T06:28:06.998Z</time></trkpt><trkpt lat="45.87601386913563" lon="12.044731418291452"><ele>156.0</ele><time>2026-04-25T06:28:08.998Z</time></trkpt><trkpt lat="45.875954168549406" lon="12.044770712435781"><ele>156.0</ele><time>2026-04-25T06:28:12.998Z</time></trkpt><trkpt lat="45.87588240265325" lon="12.04478664425993"><ele>156.0</ele><time>2026-04-25T06:29:04Z</time></trkpt><trkpt lat="45.87580277989037" lon="12.044826884998168"><ele>155.0</ele><time>2026-04-25T06:29:07Z</time></trkpt><trkpt lat="45.87573405476654" lon="12.044861558309929"><ele>154.0</ele><time>2026-04-25T06:29:09Z</time></trkpt><trkpt lat="45.87566190014529" lon="12.044897346945316"><ele>153.0</ele><time>2026-04-25T06:29:11Z</time></trkpt><trkpt lat="45.87558351614918" lon="12.044932748350863"><ele>152.0</ele><time>2026-04-25T06:29:13Z</time></trkpt><trkpt lat="45.875496611170476" lon="12.044980067611407"><ele>151.0</ele><time>2026-04-25T06:29:15Z</time></trkpt><trkpt lat="45.87541353407112" lon="12.045048654085765"><ele>150.0</ele><time>2026-04-25T06:29:17Z</time></trkpt><trkpt lat="45.875336204458144" lon="12.045153969710645"><ele>150.0</ele><time>2026-04-25T06:29:19Z</time></trkpt><trkpt lat="45.87525500783926" lon="12.045251560732494"><ele>150.0</ele><time>2026-04-25T06:29:21Z</time></trkpt><trkpt lat="45.87516330949242" lon="12.045350569877591"><ele>150.0</ele><time>2026-04-25T06:29:23Z</time></trkpt><trkpt lat="45.875073503189746" lon="12.045462790823725"><ele>150.0</ele><time>2026-04-25T06:29:25Z</time></trkpt><trkpt lat="45.87499584737228" lon="12.045580365539383"><ele>149.2</ele><time>2026-04-25T06:29:27Z</time></trkpt><trkpt lat="45.87491532012163" lon="12.045697527163982"><ele>148.4</ele><time>2026-04-25T06:29:29Z</time></trkpt><trkpt lat="45.874837568598835" lon="12.045800121836548"><ele>147.6</ele><time>2026-04-25T06:29:30.999Z</time></trkpt><trkpt lat="45.87477821928857" lon="12.045877441303995"><ele>146.8</ele><time>2026-04-25T06:29:32.999Z</time></trkpt><trkpt lat="45.874717804602156" lon="12.045960643336636"><ele>146.0</ele><time>2026-04-25T06:29:34.999Z</time></trkpt><trkpt lat="45.874656672334375" lon="12.04602333102284"><ele>146.0</ele><time>2026-04-25T06:29:36.999Z</time></trkpt><trkpt lat="45.874532657409944" lon="12.045923932718395"><ele>146.0</ele><time>2026-04-25T06:29:38.999Z</time></trkpt><trkpt lat="45.87442163099148" lon="12.045898844320828"><ele>146.0</ele><time>2026-04-25T06:29:40.999Z</time></trkpt><trkpt lat="45.87430829160178" lon="12.045894218353245"><ele>146.0</ele><time>2026-04-25T06:29:42.999Z</time></trkpt><trkpt lat="45.87419442154217" lon="12.045866330067769"><ele>145.75</ele><time>2026-04-25T06:29:44.999Z</time></trkpt><trkpt lat="45.87407350773384" lon="12.045842768427917"><ele>145.5</ele><time>2026-04-25T06:29:46.999Z</time></trkpt><trkpt lat="45.873956174856" lon="12.045797504375717"><ele>145.25</ele><time>2026-04-25T06:29:48.999Z</time></trkpt><trkpt lat="45.87383018634717" lon="12.045775273287486"><ele>145.0</ele><time>2026-04-25T06:29:50.999Z</time></trkpt><trkpt lat="45.873702122089256" lon="12.045762392560091"><ele>145.0</ele><time>2026-04-25T06:29:52.999Z</time></trkpt><trkpt lat="45.873638152093285" lon="12.045759971852442"><ele>145.0</ele><time>2026-04-25T06:29:53.999Z</time></trkpt><trkpt lat="45.87357435896098" lon="12.045781808943095"><ele>145.0</ele><time>2026-04-25T06:29:54.999Z</time></trkpt><trkpt lat="45.8735096538201" lon="12.045789936133025"><ele>145.0</ele><time>2026-04-25T06:29:55.999Z</time></trkpt><trkpt lat="45.87344424480425" lon="12.045801218548254"><ele>145.0</ele><time>2026-04-25T06:29:56.999Z</time></trkpt><trkpt lat="45.873379115569236" lon="12.045823644812547"><ele>145.0</ele><time>2026-04-25T06:29:57.999Z</time></trkpt><trkpt lat="45.87331673497446" lon="12.045841019048353"><ele>145.0</ele><time>2026-04-25T06:29:58.999Z</time></trkpt><trkpt lat="45.87325089082366" lon="12.045862310302564"><ele>145.14285714285714</ele><time>2026-04-25T06:29:59.999Z</time></trkpt><trkpt lat="45.87318827848812" lon="12.045883027064814"><ele>145.2857142857143</ele><time>2026-04-25T06:30:00.999Z</time></trkpt><trkpt lat="45.87312052177342" lon="12.045892222148497"><ele>145.42857142857144</ele><time>2026-04-25T06:30:01.999Z</time></trkpt><trkpt lat="45.87305611350711" lon="12.045881925908052"><ele>145.57142857142858</ele><time>2026-04-25T06:30:02.999Z</time></trkpt><trkpt lat="45.87299502271574" lon="12.045829096879167"><ele>145.71428571428572</ele><time>2026-04-25T06:30:03.999Z</time></trkpt><trkpt lat="45.872927223234946" lon="12.045817556670686"><ele>145.85714285714286</ele><time>2026-04-25T06:30:04.999Z</time></trkpt><trkpt lat="45.872866106239776" lon="12.045782681420715"><ele>146.0</ele><time>2026-04-25T06:30:05.999Z</time></trkpt><trkpt lat="45.87280186749914" lon="12.045747035242472"><ele>146.0</ele><time>2026-04-25T06:30:06.999Z</time></trkpt><trkpt lat="45.872739331128344" lon="12.045708777208208"><ele>146.0</ele><time>2026-04-25T06:30:07.999Z</time></trkpt><trkpt lat="45.87267584101654" lon="12.045672887851662"><ele>146.0</ele><time>2026-04-25T06:30:08.999Z</time></trkpt><trkpt lat="45.87261653548202" lon="12.04563095880076"><ele>146.0</ele><time>2026-04-25T06:30:09.999Z</time></trkpt><trkpt lat="45.872553355853476" lon="12.045587842747064"><ele>146.0</ele><time>2026-04-25T06:30:10.999Z</time></trkpt><trkpt lat="45.87249476789423" lon="12.045538112319099"><ele>146.0</ele><time>2026-04-25T06:30:11.999Z</time></trkpt><trkpt lat="45.872437859690535" lon="12.04547915353554"><ele>146.0</ele><time>2026-04-25T06:30:12.999Z</time></trkpt><trkpt lat="45.8723794978029" lon="12.045425006185225"><ele>145.0</ele><time>2026-04-25T06:30:13.999Z</time></trkpt><trkpt lat="45.87231957303285" lon="12.04536764775009"><ele>144.0</ele><time>2026-04-25T06:30:14.999Z</time></trkpt><trkpt lat="45.87226130612958" lon="12.045312759585107"><ele>143.0</ele><time>2026-04-25T06:30:15.999Z</time></trkpt><trkpt lat="45.87220021906472" lon="12.045259398651178"><ele>142.0</ele><time>2026-04-25T06:30:16.999Z</time></trkpt><trkpt lat="45.87214020621971" lon="12.045207023677925"><ele>141.0</ele><time>2026-04-25T06:30:17.999Z</time></trkpt><trkpt lat="45.87207567056781" lon="12.045164257884986"><ele>140.0</ele><time>2026-04-25T06:30:18.999Z</time></trkpt><trkpt lat="45.87200761000161" lon="12.04513133784371"><ele>139.0</ele><time>2026-04-25T06:30:19.998Z</time></trkpt><trkpt lat="45.87194628629238" lon="12.045077418058828"><ele>139.0</ele><time>2026-04-25T06:30:20.998Z</time></trkpt><trkpt lat="45.871877456274575" lon="12.045051804432122"><ele>139.0</ele><time>2026-04-25T06:30:21.998Z</time></trkpt><trkpt lat="45.871806056487316" lon="12.045049616370644"><ele>139.0</ele><time>2026-04-25T06:30:22.998Z</time></trkpt><trkpt lat="45.87173950652092" lon="12.045008490338235"><ele>139.0</ele><time>2026-04-25T06:30:23.998Z</time></trkpt><trkpt lat="45.871671552352964" lon="12.044988454311113"><ele>139.0</ele><time>2026-04-25T06:30:24.998Z</time></trkpt><trkpt lat="45.871604278783224" lon="12.044968618952636"><ele>139.0</ele><time>2026-04-25T06:30:25.998Z</time></trkpt><trkpt lat="45.87153695271356" lon="12.04494868710957"><ele>139.0</ele><time>2026-04-25T06:30:26.998Z</time></trkpt><trkpt lat="45.87147061757229" lon="12.04492814872877"><ele>139.57142857142856</ele><time>2026-04-25T06:30:27.998Z</time></trkpt><trkpt lat="45.87140387795041" lon="12.044907485115738"><ele>140.14285714285714</ele><time>2026-04-25T06:30:28.998Z</time></trkpt><trkpt lat="45.871336135924714" lon="12.044902064051172"><ele>140.71428571428572</ele><time>2026-04-25T06:30:29.998Z</time></trkpt><trkpt lat="45.871270896537936" lon="12.044877984809444"><ele>141.28571428571428</ele><time>2026-04-25T06:30:30.998Z</time></trkpt><trkpt lat="45.871207839663015" lon="12.044844485808808"><ele>141.85714285714286</ele><time>2026-04-25T06:30:31.998Z</time></trkpt><trkpt lat="45.87114549894538" lon="12.044805811842158"><ele>142.42857142857142</ele><time>2026-04-25T06:30:32.998Z</time></trkpt><trkpt lat="45.87108583705717" lon="12.04476096898066"><ele>143.0</ele><time>2026-04-25T06:30:33.998Z</time></trkpt><trkpt lat="45.871026605232736" lon="12.044710512352994"><ele>142.99999999999997</ele><time>2026-04-25T06:30:34.998Z</time></trkpt><trkpt lat="45.87098378792272" lon="12.044631559408147"><ele>143.0</ele><time>2026-04-25T06:30:35.998Z</time></trkpt><trkpt lat="45.870935880538994" lon="12.044565690510227"><ele>143.0</ele><time>2026-04-25T06:30:36.998Z</time></trkpt><trkpt lat="45.870888754534334" lon="12.044495774107295"><ele>143.0</ele><time>2026-04-25T06:30:37.998Z</time></trkpt><trkpt lat="45.87083597221387" lon="12.04443585984376"><ele>143.0</ele><time>2026-04-25T06:30:38.998Z</time></trkpt><trkpt lat="45.87079573219086" lon="12.044356051601289"><ele>142.99999999999997</ele><time>2026-04-25T06:30:40.001Z</time></trkpt><trkpt lat="45.870756643308795" lon="12.044277818785515"><ele>143.0</ele><time>2026-04-25T06:30:41.001Z</time></trkpt><trkpt lat="45.87071768409571" lon="12.044198708244618"><ele>142.99999999999997</ele><time>2026-04-25T06:30:42.001Z</time></trkpt><trkpt lat="45.87067815940308" lon="12.0441205937638"><ele>143.0</ele><time>2026-04-25T06:30:43.001Z</time></trkpt><trkpt lat="45.87063711857276" lon="12.044044355850438"><ele>143.0</ele><time>2026-04-25T06:30:44.001Z</time></trkpt><trkpt lat="45.87059809831166" lon="12.04397129005218"><ele>143.0</ele><time>2026-04-25T06:30:45.001Z</time></trkpt><trkpt lat="45.87055709301916" lon="12.043894065259991"><ele>143.0</ele><time>2026-04-25T06:30:46.001Z</time></trkpt><trkpt lat="45.87052173949971" lon="12.043814866839844"><ele>142.99999999999997</ele><time>2026-04-25T06:30:47.001Z</time></trkpt><trkpt lat="45.87048362227919" lon="12.0437327819565"><ele>143.0</ele><time>2026-04-25T06:30:48.001Z</time></trkpt><trkpt lat="45.870445693912274" lon="12.043652996932256"><ele>142.99999999999997</ele><time>2026-04-25T06:30:49.001Z</time></trkpt><trkpt lat="45.87040725356535" lon="12.04357976053711"><ele>143.0</ele><time>2026-04-25T06:30:50.001Z</time></trkpt><trkpt lat="45.87038036158257" lon="12.043488591288229"><ele>143.0</ele><time>2026-04-25T06:30:51.001Z</time></trkpt><trkpt lat="45.87034247202213" lon="12.043410427329377"><ele>143.0</ele><time>2026-04-25T06:30:52.001Z</time></trkpt><trkpt lat="45.87030296403975" lon="12.043328925666822"><ele>143.0</ele><time>2026-04-25T06:30:53.001Z</time></trkpt><trkpt lat="45.87026467514961" lon="12.043255099916056"><ele>142.99999999999997</ele><time>2026-04-25T06:30:54.001Z</time></trkpt><trkpt lat="45.87022616187899" lon="12.043178261396985"><ele>143.0</ele><time>2026-04-25T06:30:55.001Z</time></trkpt><trkpt lat="45.87019164438484" lon="12.04309902821692"><ele>142.83333333333331</ele><time>2026-04-25T06:30:56.001Z</time></trkpt><trkpt lat="45.87015347717364" lon="12.04302338496956"><ele>142.66666666666666</ele><time>2026-04-25T06:30:57.001Z</time></trkpt><trkpt lat="45.870106804313714" lon="12.042950072757668"><ele>142.5</ele><time>2026-04-25T06:30:58.001Z</time></trkpt><trkpt lat="45.87006049063842" lon="12.04288493866868"><ele>142.33333333333334</ele><time>2026-04-25T06:30:59.001Z</time></trkpt><trkpt lat="45.870011532905984" lon="12.04282004542997"><ele>142.16666666666669</ele><time>2026-04-25T06:31:00.001Z</time></trkpt><trkpt lat="45.869910983632096" lon="12.042711377553253"><ele>142.0</ele><time>2026-04-25T06:31:02Z</time></trkpt><trkpt lat="45.86983079315933" lon="12.042576938655465"><ele>142.75</ele><time>2026-04-25T06:31:04Z</time></trkpt><trkpt lat="45.86974856722746" lon="12.042460350197445"><ele>143.5</ele><time>2026-04-25T06:31:06Z</time></trkpt><trkpt lat="45.8696661313631" lon="12.042343464080872"><ele>144.25</ele><time>2026-04-25T06:31:08Z</time></trkpt><trkpt lat="45.86957470661103" lon="12.042230862831227"><ele>145.0</ele><time>2026-04-25T06:31:10Z</time></trkpt><trkpt lat="45.869468808037134" lon="12.042183266152092"><ele>145.0</ele><time>2026-04-25T06:31:12Z</time></trkpt><trkpt lat="45.869395530488106" lon="12.04210877463269"><ele>145.0</ele><time>2026-04-25T06:31:14Z</time></trkpt><trkpt lat="45.86933439743741" lon="12.042083589639057"><ele>145.0</ele><time>2026-04-25T06:31:17Z</time></trkpt><trkpt lat="45.86927899974612" lon="12.042010793764504"><ele>145.0</ele><time>2026-04-25T06:31:22Z</time></trkpt><trkpt lat="45.869214493315944" lon="12.041943457342859"><ele>145.0</ele><time>2026-04-25T06:31:26Z</time></trkpt><trkpt lat="45.869141236781054" lon="12.041870009256527"><ele>145.0</ele><time>2026-04-25T06:31:28Z</time></trkpt><trkpt lat="45.8690725064575" lon="12.041739829645516"><ele>145.4</ele><time>2026-04-25T06:31:30Z</time></trkpt><trkpt lat="45.868967167690016" lon="12.041657467899407"><ele>145.8</ele><time>2026-04-25T06:31:32Z</time></trkpt><trkpt lat="45.8688560181723" lon="12.04162533481828"><ele>146.2</ele><time>2026-04-25T06:31:34Z</time></trkpt><trkpt lat="45.8687603986327" lon="12.041610727447111"><ele>146.6</ele><time>2026-04-25T06:31:36Z</time></trkpt><trkpt lat="45.868670522611154" lon="12.041586656646695"><ele>147.0</ele><time>2026-04-25T06:31:38Z</time></trkpt><trkpt lat="45.868585830911975" lon="12.041564619826927"><ele>147.0</ele><time>2026-04-25T06:31:40Z</time></trkpt><trkpt lat="45.86851865053932" lon="12.041715821175675"><ele>147.0</ele><time>2026-04-25T06:31:41Z</time></trkpt><trkpt lat="45.86843097542022" lon="12.04180364029134"><ele>147.0</ele><time>2026-04-25T06:31:42.999Z</time></trkpt><trkpt lat="45.868340015015725" lon="12.041897109329158"><ele>147.0</ele><time>2026-04-25T06:31:44.999Z</time></trkpt><trkpt lat="45.868261686650555" lon="12.042004746034952"><ele>146.6</ele><time>2026-04-25T06:31:46.998Z</time></trkpt><trkpt lat="45.86817504817407" lon="12.042094975771738"><ele>146.2</ele><time>2026-04-25T06:31:48.998Z</time></trkpt><trkpt lat="45.86808178329386" lon="12.042169083536619"><ele>145.8</ele><time>2026-04-25T06:31:50.998Z</time></trkpt><trkpt lat="45.867973546657794" lon="12.042148207159212"><ele>145.4</ele><time>2026-04-25T06:31:52.998Z</time></trkpt><trkpt lat="45.86794742013837" lon="12.0420648261257"><ele>145.0</ele><time>2026-04-25T06:31:53.998Z</time></trkpt><trkpt lat="45.86785652213832" lon="12.04196643834279"><ele>145.0</ele><time>2026-04-25T06:31:55.998Z</time></trkpt><trkpt lat="45.86777446407408" lon="12.041842270254342"><ele>145.0</ele><time>2026-04-25T06:31:57.998Z</time></trkpt><trkpt lat="45.86771163221624" lon="12.041814440829958"><ele>145.0</ele><time>2026-04-25T06:31:58.998Z</time></trkpt><trkpt lat="45.867647238468166" lon="12.04181667400047"><ele>145.0</ele><time>2026-04-25T06:31:59.998Z</time></trkpt><trkpt lat="45.86758994826213" lon="12.041863932280402"><ele>145.0</ele><time>2026-04-25T06:32:00.998Z</time></trkpt><trkpt lat="45.86747177751723" lon="12.041902696924286"><ele>145.0</ele><time>2026-04-25T06:32:02.998Z</time></trkpt><trkpt lat="45.867362716314965" lon="12.041962956138946"><ele>144.75</ele><time>2026-04-25T06:32:04.998Z</time></trkpt><trkpt lat="45.86725098397164" lon="12.042020976545041"><ele>144.5</ele><time>2026-04-25T06:32:06.998Z</time></trkpt><trkpt lat="45.8671407050673" lon="12.042094174330275"><ele>144.25</ele><time>2026-04-25T06:32:08.998Z</time></trkpt><trkpt lat="45.86702714852167" lon="12.042102252190318"><ele>144.0</ele><time>2026-04-25T06:32:10.998Z</time></trkpt><trkpt lat="45.86692386104639" lon="12.042112867046962"><ele>144.0</ele><time>2026-04-25T06:32:12.998Z</time></trkpt><trkpt lat="45.86682786554424" lon="12.042113412080033"><ele>144.0</ele><time>2026-04-25T06:32:14.998Z</time></trkpt><trkpt lat="45.86675197854275" lon="12.042111436238535"><ele>144.0</ele><time>2026-04-25T06:32:17.998Z</time></trkpt><trkpt lat="45.86674226979422" lon="12.042271660375453"><ele>144.0</ele><time>2026-04-25T06:32:19.998Z</time></trkpt><trkpt lat="45.86672807896859" lon="12.042365078936188"><ele>144.0</ele><time>2026-04-25T06:32:23.998Z</time></trkpt><trkpt lat="45.86673657394324" lon="12.042467979162293"><ele>144.0</ele><time>2026-04-25T06:32:26.998Z</time></trkpt><trkpt lat="45.86672985627124" lon="12.042570943417939"><ele>144.4</ele><time>2026-04-25T06:32:28.998Z</time></trkpt><trkpt lat="45.86672800097651" lon="12.042701396111966"><ele>144.8</ele><time>2026-04-25T06:32:30.998Z</time></trkpt><trkpt lat="45.866732430914915" lon="12.04285124001484"><ele>145.2</ele><time>2026-04-25T06:32:32.997Z</time></trkpt><trkpt lat="45.86673613376171" lon="12.043006583393398"><ele>145.6</ele><time>2026-04-25T06:32:34.997Z</time></trkpt><trkpt lat="45.86672662212644" lon="12.043174686795954"><ele>146.0</ele><time>2026-04-25T06:32:36.997Z</time></trkpt><trkpt lat="45.86673629654808" lon="12.043346014623438"><ele>146.0</ele><time>2026-04-25T06:32:38.997Z</time></trkpt><trkpt lat="45.86676392519323" lon="12.043518610986997"><ele>146.0</ele><time>2026-04-25T06:32:40.997Z</time></trkpt><trkpt lat="45.866764174669186" lon="12.043697273049839"><ele>146.0</ele><time>2026-04-25T06:32:42.997Z</time></trkpt><trkpt lat="45.86678823272558" lon="12.043783856996978"><ele>146.0</ele><time>2026-04-25T06:32:43.997Z</time></trkpt><trkpt lat="45.866797331982134" lon="12.04387695555632"><ele>146.0</ele><time>2026-04-25T06:32:44.997Z</time></trkpt><trkpt lat="45.86680584084283" lon="12.04396821020101"><ele>146.0</ele><time>2026-04-25T06:32:46Z</time></trkpt><trkpt lat="45.86681312645056" lon="12.044058233791384"><ele>145.8</ele><time>2026-04-25T06:32:47Z</time></trkpt><trkpt lat="45.866827016194975" lon="12.044231373330684"><ele>145.6</ele><time>2026-04-25T06:32:49Z</time></trkpt><trkpt lat="45.86683853115675" lon="12.044405306431065"><ele>145.4</ele><time>2026-04-25T06:32:51Z</time></trkpt><trkpt lat="45.866855905933534" lon="12.044584410321928"><ele>145.2</ele><time>2026-04-25T06:32:53Z</time></trkpt><trkpt lat="45.866863929718704" lon="12.044676523126613"><ele>145.0</ele><time>2026-04-25T06:32:54Z</time></trkpt><trkpt lat="45.86686944972001" lon="12.044771299847469"><ele>145.0</ele><time>2026-04-25T06:32:55Z</time></trkpt><trkpt lat="45.866877399679886" lon="12.044865438596437"><ele>145.0</ele><time>2026-04-25T06:32:56Z</time></trkpt><trkpt lat="45.86688484905066" lon="12.04495579928327"><ele>145.0</ele><time>2026-04-25T06:32:57Z</time></trkpt><trkpt lat="45.86689402412322" lon="12.045046591689651"><ele>145.0</ele><time>2026-04-25T06:32:58Z</time></trkpt><trkpt lat="45.86690031499043" lon="12.045138350174911"><ele>145.0</ele><time>2026-04-25T06:32:59Z</time></trkpt><trkpt lat="45.86690437893876" lon="12.045231031608834"><ele>145.0</ele><time>2026-04-25T06:33:00Z</time></trkpt><trkpt lat="45.86690861667417" lon="12.045324276635734"><ele>145.0</ele><time>2026-04-25T06:33:01Z</time></trkpt><trkpt lat="45.86690665369081" lon="12.04541612844508"><ele>145.14285714285714</ele><time>2026-04-25T06:33:02Z</time></trkpt><trkpt lat="45.86691199663609" lon="12.045513916310972"><ele>145.2857142857143</ele><time>2026-04-25T06:33:03Z</time></trkpt><trkpt lat="45.86691020059759" lon="12.045607379538152"><ele>145.42857142857144</ele><time>2026-04-25T06:33:04Z</time></trkpt><trkpt lat="45.866891389193775" lon="12.0456990324851"><ele>145.57142857142858</ele><time>2026-04-25T06:33:05Z</time></trkpt><trkpt lat="45.86688540149532" lon="12.045789242967334"><ele>145.71428571428572</ele><time>2026-04-25T06:33:06Z</time></trkpt><trkpt lat="45.8668913486386" lon="12.045880348132915"><ele>145.85714285714286</ele><time>2026-04-25T06:33:07Z</time></trkpt><trkpt lat="45.86687974052535" lon="12.045972591188391"><ele>146.0</ele><time>2026-04-25T06:33:08Z</time></trkpt><trkpt lat="45.866868361886226" lon="12.046062180921588"><ele>145.71428571428572</ele><time>2026-04-25T06:33:09Z</time></trkpt><trkpt lat="45.866859265588786" lon="12.046155021340574"><ele>145.42857142857144</ele><time>2026-04-25T06:33:10Z</time></trkpt><trkpt lat="45.86685065797641" lon="12.046247167278457"><ele>145.14285714285717</ele><time>2026-04-25T06:33:11Z</time></trkpt><trkpt lat="45.86684138579539" lon="12.046339003735074"><ele>144.85714285714286</ele><time>2026-04-25T06:33:12Z</time></trkpt><trkpt lat="45.86683140982832" lon="12.046432878172643"><ele>144.57142857142858</ele><time>2026-04-25T06:33:12.999Z</time></trkpt><trkpt lat="45.866825414139576" lon="12.046527626606407"><ele>144.2857142857143</ele><time>2026-04-25T06:33:13.999Z</time></trkpt><trkpt lat="45.866816017460586" lon="12.046620223032587"><ele>144.0</ele><time>2026-04-25T06:33:14.999Z</time></trkpt><trkpt lat="45.86678591826442" lon="12.046706420865245"><ele>144.0</ele><time>2026-04-25T06:33:15.999Z</time></trkpt><trkpt lat="45.86678140182857" lon="12.04680291901154"><ele>144.0</ele><time>2026-04-25T06:33:16.999Z</time></trkpt><trkpt lat="45.86675675812388" lon="12.046887968747622"><ele>144.0</ele><time>2026-04-25T06:33:17.999Z</time></trkpt><trkpt lat="45.86671768124872" lon="12.046959893468355"><ele>144.0</ele><time>2026-04-25T06:33:18.999Z</time></trkpt><trkpt lat="45.866665051066" lon="12.047113711780156"><ele>144.0</ele><time>2026-04-25T06:33:20.999Z</time></trkpt><trkpt lat="45.86658721300597" lon="12.047238030229641"><ele>144.0</ele><time>2026-04-25T06:33:22.999Z</time></trkpt><trkpt lat="45.866498977233206" lon="12.047331984571287"><ele>144.2</ele><time>2026-04-25T06:33:24.999Z</time></trkpt><trkpt lat="45.866510625351594" lon="12.047515184469189"><ele>144.4</ele><time>2026-04-25T06:33:26.999Z</time></trkpt><trkpt lat="45.86651655602343" lon="12.047668344916517"><ele>144.6</ele><time>2026-04-25T06:33:28.999Z</time></trkpt><trkpt lat="45.86656539669704" lon="12.047747561806059"><ele>144.8</ele><time>2026-04-25T06:33:29.999Z</time></trkpt><trkpt lat="45.86657523191161" lon="12.04783718437853"><ele>145.0</ele><time>2026-04-25T06:33:30.999Z</time></trkpt><trkpt lat="45.866646882405036" lon="12.047976925256974"><ele>145.0</ele><time>2026-04-25T06:33:32.999Z</time></trkpt><trkpt lat="45.86670706895538" lon="12.048117869958542"><ele>145.0</ele><time>2026-04-25T06:33:34.999Z</time></trkpt><trkpt lat="45.8667647421026" lon="12.048265010120074"><ele>145.0</ele><time>2026-04-25T06:33:36.999Z</time></trkpt><trkpt lat="45.86681730831748" lon="12.048427754020533"><ele>145.0</ele><time>2026-04-25T06:33:38.999Z</time></trkpt><trkpt lat="45.866871021129256" lon="12.04859126865419"><ele>145.0</ele><time>2026-04-25T06:33:40.999Z</time></trkpt><trkpt lat="45.866898042055226" lon="12.048679276077142"><ele>145.0</ele><time>2026-04-25T06:33:41.999Z</time></trkpt><trkpt lat="45.866939800728744" lon="12.048850962074143"><ele>145.0</ele><time>2026-04-25T06:33:43.999Z</time></trkpt><trkpt lat="45.86696025835634" lon="12.048937584121294"><ele>145.0</ele><time>2026-04-25T06:33:44.999Z</time></trkpt><trkpt lat="45.86698012123554" lon="12.0490248494527"><ele>145.0</ele><time>2026-04-25T06:33:45.999Z</time></trkpt><trkpt lat="45.86702331198814" lon="12.049195876057045"><ele>145.0</ele><time>2026-04-25T06:33:47.999Z</time></trkpt><trkpt lat="45.86704705219533" lon="12.049284474719686"><ele>145.0</ele><time>2026-04-25T06:33:48.999Z</time></trkpt><trkpt lat="45.867066631157314" lon="12.049374081137344"><ele>145.0</ele><time>2026-04-25T06:33:49.999Z</time></trkpt><trkpt lat="45.86709145940234" lon="12.049463236467668"><ele>145.0</ele><time>2026-04-25T06:33:50.999Z</time></trkpt><trkpt lat="45.86712095277147" lon="12.049546163862683"><ele>145.0</ele><time>2026-04-25T06:33:51.999Z</time></trkpt><trkpt lat="45.86714537075937" lon="12.049634830833114"><ele>145.0</ele><time>2026-04-25T06:33:52.999Z</time></trkpt><trkpt lat="45.86716783337148" lon="12.049728147315298"><ele>145.0</ele><time>2026-04-25T06:33:53.999Z</time></trkpt><trkpt lat="45.86719621715174" lon="12.049816401697187"><ele>145.0</ele><time>2026-04-25T06:33:54.999Z</time></trkpt><trkpt lat="45.867221867182494" lon="12.04990018855489"><ele>144.66666666666669</ele><time>2026-04-25T06:33:55.999Z</time></trkpt><trkpt lat="45.86724875608677" lon="12.049988057556074"><ele>144.33333333333334</ele><time>2026-04-25T06:33:56.999Z</time></trkpt><trkpt lat="45.867270588517314" lon="12.050078035591302"><ele>144.0</ele><time>2026-04-25T06:33:57.999Z</time></trkpt><trkpt lat="45.86729224135364" lon="12.05017054163233"><ele>143.66666666666666</ele><time>2026-04-25T06:33:58.998Z</time></trkpt><trkpt lat="45.86731623381936" lon="12.050256893490392"><ele>143.33333333333331</ele><time>2026-04-25T06:33:59.998Z</time></trkpt><trkpt lat="45.86734646486647" lon="12.05034050833199"><ele>143.0</ele><time>2026-04-25T06:34:00.998Z</time></trkpt><trkpt lat="45.86740641983531" lon="12.05050066710286"><ele>143.0</ele><time>2026-04-25T06:34:02.998Z</time></trkpt><trkpt lat="45.867440369147296" lon="12.05057968310689"><ele>143.0</ele><time>2026-04-25T06:34:03.998Z</time></trkpt><trkpt lat="45.867470157808704" lon="12.050662514873286"><ele>143.0</ele><time>2026-04-25T06:34:04.998Z</time></trkpt><trkpt lat="45.86749894077703" lon="12.050747098154389"><ele>143.0</ele><time>2026-04-25T06:34:05.998Z</time></trkpt><trkpt lat="45.86752169713225" lon="12.050833513994698"><ele>143.0</ele><time>2026-04-25T06:34:06.998Z</time></trkpt><trkpt lat="45.867567072100016" lon="12.05100982568328"><ele>143.0</ele><time>2026-04-25T06:34:08.998Z</time></trkpt><trkpt lat="45.86758471128204" lon="12.051098836924183"><ele>142.8</ele><time>2026-04-25T06:34:09.998Z</time></trkpt><trkpt lat="45.86760802211493" lon="12.051277099790605"><ele>142.60000000000002</ele><time>2026-04-25T06:34:11.998Z</time></trkpt><trkpt lat="45.867623999144726" lon="12.05137151987272"><ele>142.39999999999998</ele><time>2026-04-25T06:34:12.998Z</time></trkpt><trkpt lat="45.867644436591824" lon="12.051534633363325"><ele>142.2</ele><time>2026-04-25T06:34:14.998Z</time></trkpt><trkpt lat="45.86765598364504" lon="12.051683871308676"><ele>142.0</ele><time>2026-04-25T06:34:16.998Z</time></trkpt><trkpt lat="45.86768400765644" lon="12.051839975680085"><ele>141.79999999999998</ele><time>2026-04-25T06:34:18.998Z</time></trkpt><trkpt lat="45.867727777063216" lon="12.051995881755337"><ele>141.6</ele><time>2026-04-25T06:34:20.998Z</time></trkpt><trkpt lat="45.86773754426541" lon="12.052151033530867"><ele>141.39999999999998</ele><time>2026-04-25T06:34:22.998Z</time></trkpt><trkpt lat="45.867739139078644" lon="12.052318195517527"><ele>141.2</ele><time>2026-04-25T06:34:24.998Z</time></trkpt><trkpt lat="45.86773110244126" lon="12.052467260498531"><ele>141.0</ele><time>2026-04-25T06:34:26.998Z</time></trkpt><trkpt lat="45.86770943714395" lon="12.052626469366857"><ele>141.0</ele><time>2026-04-25T06:34:28.998Z</time></trkpt><trkpt lat="45.86766934865229" lon="12.052781413199504"><ele>141.0</ele><time>2026-04-25T06:34:30.998Z</time></trkpt><trkpt lat="45.86762363978254" lon="12.052923027752266"><ele>141.0</ele><time>2026-04-25T06:34:32.998Z</time></trkpt><trkpt lat="45.867576577147275" lon="12.053060129361826"><ele>141.0</ele><time>2026-04-25T06:34:34.998Z</time></trkpt><trkpt lat="45.86754124204553" lon="12.053207320762262"><ele>141.0</ele><time>2026-04-25T06:34:36.998Z</time></trkpt><trkpt lat="45.867497475939466" lon="12.05333806968275"><ele>140.4</ele><time>2026-04-25T06:34:38.998Z</time></trkpt><trkpt lat="45.86744802134619" lon="12.053473893039747"><ele>139.8</ele><time>2026-04-25T06:34:40.998Z</time></trkpt><trkpt lat="45.867405350288166" lon="12.053607444533768"><ele>139.20000000000002</ele><time>2026-04-25T06:34:42.998Z</time></trkpt><trkpt lat="45.867358419471515" lon="12.053746247830066"><ele>138.6</ele><time>2026-04-25T06:34:44.998Z</time></trkpt><trkpt lat="45.86731369509233" lon="12.053870165273873"><ele>138.0</ele><time>2026-04-25T06:34:46.997Z</time></trkpt><trkpt lat="45.86729674075962" lon="12.054012532080787"><ele>138.0</ele><time>2026-04-25T06:34:48.997Z</time></trkpt><trkpt lat="45.867294627788645" lon="12.054157195493302"><ele>138.0</ele><time>2026-04-25T06:34:50.997Z</time></trkpt><trkpt lat="45.86731181330947" lon="12.054276717338112"><ele>138.0</ele><time>2026-04-25T06:34:53Z</time></trkpt><trkpt lat="45.86733348212352" lon="12.054386104086358"><ele>138.0</ele><time>2026-04-25T06:34:55Z</time></trkpt><trkpt lat="45.86733505950674" lon="12.054498148823194"><ele>138.0</ele><time>2026-04-25T06:34:57Z</time></trkpt><trkpt lat="45.86738110616145" lon="12.054609916800931"><ele>138.0</ele><time>2026-04-25T06:34:59Z</time></trkpt><trkpt lat="45.867430376000875" lon="12.054719738105579"><ele>138.0</ele><time>2026-04-25T06:35:01Z</time></trkpt><trkpt lat="45.86748992412294" lon="12.054834958776514"><ele>138.0</ele><time>2026-04-25T06:35:03Z</time></trkpt><trkpt lat="45.8675605152829" lon="12.054949031733782"><ele>138.0</ele><time>2026-04-25T06:35:05Z</time></trkpt><trkpt lat="45.867643021773006" lon="12.055065410643179"><ele>138.0</ele><time>2026-04-25T06:35:07Z</time></trkpt><trkpt lat="45.86772601277117" lon="12.05518799534503"><ele>138.0</ele><time>2026-04-25T06:35:09Z</time></trkpt><trkpt lat="45.86780542720777" lon="12.055313068602056"><ele>138.0</ele><time>2026-04-25T06:35:11Z</time></trkpt><trkpt lat="45.86788511732003" lon="12.055440102098785"><ele>138.0</ele><time>2026-04-25T06:35:13Z</time></trkpt><trkpt lat="45.8679581407339" lon="12.055573517982024"><ele>138.0</ele><time>2026-04-25T06:35:15Z</time></trkpt><trkpt lat="45.86802683907329" lon="12.055716722064309"><ele>138.0</ele><time>2026-04-25T06:35:17Z</time></trkpt><trkpt lat="45.86805768304002" lon="12.055796192679729"><ele>138.0</ele><time>2026-04-25T06:35:18Z</time></trkpt><trkpt lat="45.86811442316189" lon="12.055952023168011"><ele>138.0</ele><time>2026-04-25T06:35:20Z</time></trkpt><trkpt lat="45.868169211478616" lon="12.056111174434402"><ele>138.0</ele><time>2026-04-25T06:35:22Z</time></trkpt><trkpt lat="45.86822035626873" lon="12.056269776512345"><ele>138.0</ele><time>2026-04-25T06:35:24Z</time></trkpt><trkpt lat="45.868264577253264" lon="12.056433775043232"><ele>138.0</ele><time>2026-04-25T06:35:25.999Z</time></trkpt><trkpt lat="45.868318171599874" lon="12.056583762767737"><ele>138.0</ele><time>2026-04-25T06:35:27.999Z</time></trkpt><trkpt lat="45.86835430918011" lon="12.056659819580835"><ele>138.0</ele><time>2026-04-25T06:35:28.999Z</time></trkpt><trkpt lat="45.86843067230425" lon="12.056796395583406"><ele>138.0</ele><time>2026-04-25T06:35:30.999Z</time></trkpt><trkpt lat="45.86847315371582" lon="12.05686380885999"><ele>138.0</ele><time>2026-04-25T06:35:31.999Z</time></trkpt><trkpt lat="45.86855422823034" lon="12.056997635607447"><ele>138.0</ele><time>2026-04-25T06:35:33.999Z</time></trkpt><trkpt lat="45.868603410205786" lon="12.057133933962328"><ele>137.8</ele><time>2026-04-25T06:35:35.999Z</time></trkpt><trkpt lat="45.86863647358973" lon="12.057212680119695"><ele>137.60000000000002</ele><time>2026-04-25T06:35:36.999Z</time></trkpt><trkpt lat="45.868705595034925" lon="12.057352518457241"><ele>137.39999999999998</ele><time>2026-04-25T06:35:38.999Z</time></trkpt><trkpt lat="45.868771829889724" lon="12.057495075167253"><ele>137.2</ele><time>2026-04-25T06:35:40.999Z</time></trkpt><trkpt lat="45.8688247894733" lon="12.057652198978365"><ele>137.0</ele><time>2026-04-25T06:35:42.999Z</time></trkpt><trkpt lat="45.86885037319689" lon="12.0578268535045"><ele>137.25</ele><time>2026-04-25T06:35:44.999Z</time></trkpt><trkpt lat="45.868863177493324" lon="12.05799438743957"><ele>137.5</ele><time>2026-04-25T06:35:46.999Z</time></trkpt><trkpt lat="45.86888047491533" lon="12.05816870218184"><ele>137.75</ele><time>2026-04-25T06:35:48.999Z</time></trkpt><trkpt lat="45.86888605298512" lon="12.058342363346672"><ele>138.0</ele><time>2026-04-25T06:35:50.999Z</time></trkpt><trkpt lat="45.86890190381851" lon="12.058516028331793"><ele>138.0</ele><time>2026-04-25T06:35:52.999Z</time></trkpt><trkpt lat="45.868920439496314" lon="12.05860447684021"><ele>138.0</ele><time>2026-04-25T06:35:53.999Z</time></trkpt><trkpt lat="45.868944355217955" lon="12.058689533753245"><ele>138.0</ele><time>2026-04-25T06:35:54.999Z</time></trkpt><trkpt lat="45.868999989180075" lon="12.058852738963823"><ele>138.0</ele><time>2026-04-25T06:35:56.999Z</time></trkpt><trkpt lat="45.869033513045466" lon="12.058932043647786"><ele>138.0</ele><time>2026-04-25T06:35:57.999Z</time></trkpt><trkpt lat="45.86909342293144" lon="12.059087672622645"><ele>138.0</ele><time>2026-04-25T06:35:59.999Z</time></trkpt><trkpt lat="45.869121276556776" lon="12.05916970090634"><ele>137.85714285714286</ele><time>2026-04-25T06:36:00.999Z</time></trkpt><trkpt lat="45.869147189211006" lon="12.059252524384313"><ele>137.71428571428572</ele><time>2026-04-25T06:36:01.999Z</time></trkpt><trkpt lat="45.86917115903935" lon="12.059336308646566"><ele>137.57142857142858</ele><time>2026-04-25T06:36:02.999Z</time></trkpt><trkpt lat="45.86919386684112" lon="12.059422283383862"><ele>137.42857142857144</ele><time>2026-04-25T06:36:03.999Z</time></trkpt><trkpt lat="45.86921241118847" lon="12.059511635225174"><ele>137.28571428571428</ele><time>2026-04-25T06:36:04.999Z</time></trkpt><trkpt lat="45.86924693751642" lon="12.059684856591405"><ele>137.14285714285717</ele><time>2026-04-25T06:36:06.999Z</time></trkpt><trkpt lat="45.86926419503873" lon="12.059773038785966"><ele>137.0</ele><time>2026-04-25T06:36:07.999Z</time></trkpt><trkpt lat="45.869281804766885" lon="12.059860804009663"><ele>137.4</ele><time>2026-04-25T06:36:08.999Z</time></trkpt><trkpt lat="45.86932504758745" lon="12.06003371571436"><ele>137.79999999999998</ele><time>2026-04-25T06:36:10.999Z</time></trkpt><trkpt lat="45.869366060326634" lon="12.0601999823211"><ele>138.2</ele><time>2026-04-25T06:36:12.998Z</time></trkpt><trkpt lat="45.869405982306866" lon="12.06036703354994"><ele>138.6</ele><time>2026-04-25T06:36:14.998Z</time></trkpt><trkpt lat="45.86941751125701" lon="12.060456266848345"><ele>139.0</ele><time>2026-04-25T06:36:15.998Z</time></trkpt><trkpt lat="45.86942059322199" lon="12.060549792295168"><ele>139.0</ele><time>2026-04-25T06:36:16.998Z</time></trkpt><trkpt lat="45.86942160596459" lon="12.060647234262323"><ele>139.0</ele><time>2026-04-25T06:36:17.998Z</time></trkpt><trkpt lat="45.86942184656045" lon="12.060742743361995"><ele>139.0</ele><time>2026-04-25T06:36:18.998Z</time></trkpt><trkpt lat="45.8694220231239" lon="12.06083733198124"><ele>139.0</ele><time>2026-04-25T06:36:19.998Z</time></trkpt><trkpt lat="45.86942386881784" lon="12.060930652113274"><ele>139.0</ele><time>2026-04-25T06:36:20.998Z</time></trkpt><trkpt lat="45.86942435794073" lon="12.06102571389528"><ele>139.0</ele><time>2026-04-25T06:36:21.998Z</time></trkpt><trkpt lat="45.86942466623031" lon="12.061119389266416"><ele>139.0</ele><time>2026-04-25T06:36:22.998Z</time></trkpt><trkpt lat="45.8694284668227" lon="12.0612114315745"><ele>138.85714285714286</ele><time>2026-04-25T06:36:23.998Z</time></trkpt><trkpt lat="45.86943104047346" lon="12.061303501992537"><ele>138.71428571428572</ele><time>2026-04-25T06:36:24.998Z</time></trkpt><trkpt lat="45.86943759368792" lon="12.061401887174702"><ele>138.57142857142858</ele><time>2026-04-25T06:36:25.998Z</time></trkpt><trkpt lat="45.86944949742363" lon="12.061494305464432"><ele>138.42857142857144</ele><time>2026-04-25T06:36:26.998Z</time></trkpt><trkpt lat="45.86947127180229" lon="12.061582971331058"><ele>138.2857142857143</ele><time>2026-04-25T06:36:27.998Z</time></trkpt><trkpt lat="45.86950759091246" lon="12.061664014036417"><ele>138.14285714285714</ele><time>2026-04-25T06:36:28.998Z</time></trkpt><trkpt lat="45.86954810177226" lon="12.06174218904669"><ele>138.0</ele><time>2026-04-25T06:36:29.998Z</time></trkpt><trkpt lat="45.869585928246124" lon="12.061819990221098"><ele>138.0</ele><time>2026-04-25T06:36:30.998Z</time></trkpt><trkpt lat="45.869625450490034" lon="12.061892342808296"><ele>138.0</ele><time>2026-04-25T06:36:31.998Z</time></trkpt><trkpt lat="45.8696706159654" lon="12.061961866005827"><ele>138.0</ele><time>2026-04-25T06:36:32.998Z</time></trkpt><trkpt lat="45.86971298875972" lon="12.062034724272236"><ele>138.0</ele><time>2026-04-25T06:36:33.998Z</time></trkpt><trkpt lat="45.86975458987359" lon="12.062109753377511"><ele>138.0</ele><time>2026-04-25T06:36:34.998Z</time></trkpt><trkpt lat="45.869796935690765" lon="12.062181546658902"><ele>138.0</ele><time>2026-04-25T06:36:35.998Z</time></trkpt><trkpt lat="45.86984563068955" lon="12.06225366671285"><ele>138.0</ele><time>2026-04-25T06:36:36.998Z</time></trkpt><trkpt lat="45.86989271525616" lon="12.062324253724112"><ele>138.0</ele><time>2026-04-25T06:36:37.998Z</time></trkpt><trkpt lat="45.86993185382323" lon="12.06240335663267"><ele>138.0</ele><time>2026-04-25T06:36:38.998Z</time></trkpt><trkpt lat="45.869970952035814" lon="12.062481900587407"><ele>138.0</ele><time>2026-04-25T06:36:39.998Z</time></trkpt><trkpt lat="45.87000979661883" lon="12.062558648778147"><ele>138.0</ele><time>2026-04-25T06:36:40.998Z</time></trkpt><trkpt lat="45.870049497756696" lon="12.062634938566308"><ele>138.0</ele><time>2026-04-25T06:36:41.998Z</time></trkpt><trkpt lat="45.87008749901461" lon="12.062715406944678"><ele>138.0</ele><time>2026-04-25T06:36:42.998Z</time></trkpt><trkpt lat="45.8701571520132" lon="12.062873780787475"><ele>137.71428571428572</ele><time>2026-04-25T06:36:44.998Z</time></trkpt><trkpt lat="45.870188939463496" lon="12.062952588562082"><ele>137.42857142857144</ele><time>2026-04-25T06:36:45.998Z</time></trkpt><trkpt lat="45.87022258970789" lon="12.063040696921746"><ele>137.14285714285714</ele><time>2026-04-25T06:36:46.998Z</time></trkpt><trkpt lat="45.87025689464736" lon="12.063120939780719"><ele>136.85714285714286</ele><time>2026-04-25T06:36:47.998Z</time></trkpt><trkpt lat="45.87029209410794" lon="12.06320278992717"><ele>136.57142857142856</ele><time>2026-04-25T06:36:48.998Z</time></trkpt><trkpt lat="45.87032492577967" lon="12.06328715369783"><ele>136.28571428571428</ele><time>2026-04-25T06:36:49.998Z</time></trkpt><trkpt lat="45.870360551050375" lon="12.063364486827595"><ele>136.0</ele><time>2026-04-25T06:36:50.998Z</time></trkpt><trkpt lat="45.87040415616991" lon="12.063434166469605"><ele>135.8</ele><time>2026-04-25T06:36:51.998Z</time></trkpt><trkpt lat="45.8704587210447" lon="12.063580268017624"><ele>135.6</ele><time>2026-04-25T06:36:53.998Z</time></trkpt><trkpt lat="45.87048922681577" lon="12.06366158329995"><ele>135.4</ele><time>2026-04-25T06:36:54.998Z</time></trkpt><trkpt lat="45.8705559094577" lon="12.063809130487696"><ele>135.2</ele><time>2026-04-25T06:36:56.998Z</time></trkpt><trkpt lat="45.87059455671933" lon="12.06388085778627"><ele>135.0</ele><time>2026-04-25T06:36:58Z</time></trkpt><trkpt lat="45.870663192863674" lon="12.064030750192229"><ele>135.0</ele><time>2026-04-25T06:37:00Z</time></trkpt><trkpt lat="45.87069342203209" lon="12.064112678188112"><ele>135.0</ele><time>2026-04-25T06:37:01Z</time></trkpt><trkpt lat="45.870723044215154" lon="12.064198974107354"><ele>135.0</ele><time>2026-04-25T06:37:02Z</time></trkpt><trkpt lat="45.87078691505277" lon="12.064347389541046"><ele>135.0</ele><time>2026-04-25T06:37:04Z</time></trkpt><trkpt lat="45.87082318094027" lon="12.064421899440578"><ele>135.0</ele><time>2026-04-25T06:37:05Z</time></trkpt><trkpt lat="45.87088156981516" lon="12.064558123273462"><ele>135.0</ele><time>2026-04-25T06:37:07Z</time></trkpt><trkpt lat="45.87094507711254" lon="12.06469291665535"><ele>135.0</ele><time>2026-04-25T06:37:09Z</time></trkpt><trkpt lat="45.8710079387317" lon="12.064838986174953"><ele>135.0</ele><time>2026-04-25T06:37:11Z</time></trkpt><trkpt lat="45.87106757192391" lon="12.064974347797275"><ele>135.0</ele><time>2026-04-25T06:37:13Z</time></trkpt><trkpt lat="45.8711210839086" lon="12.065108298621647"><ele>135.0</ele><time>2026-04-25T06:37:15Z</time></trkpt><trkpt lat="45.87118318379571" lon="12.06523863002147"><ele>135.0</ele><time>2026-04-25T06:37:17Z</time></trkpt><trkpt lat="45.87123756200375" lon="12.065375870479768"><ele>134.75</ele><time>2026-04-25T06:37:19Z</time></trkpt><trkpt lat="45.871282543279406" lon="12.06551930148098"><ele>134.5</ele><time>2026-04-25T06:37:21Z</time></trkpt><trkpt lat="45.8713286718947" lon="12.065673566845476"><ele>134.25</ele><time>2026-04-25T06:37:23Z</time></trkpt><trkpt lat="45.87137253368263" lon="12.065836038922635"><ele>134.0</ele><time>2026-04-25T06:37:25Z</time></trkpt><trkpt lat="45.87141471129838" lon="12.066006562499261"><ele>133.8</ele><time>2026-04-25T06:37:27Z</time></trkpt><trkpt lat="45.871440549451364" lon="12.066163380347152"><ele>133.60000000000002</ele><time>2026-04-25T06:37:29Z</time></trkpt><trkpt lat="45.87148628267269" lon="12.066328723710988"><ele>133.4</ele><time>2026-04-25T06:37:31Z</time></trkpt><trkpt lat="45.87152712195951" lon="12.06647957096041"><ele>133.20000000000002</ele><time>2026-04-25T06:37:33Z</time></trkpt><trkpt lat="45.87154316461955" lon="12.066570690217253"><ele>133.0</ele><time>2026-04-25T06:37:34Z</time></trkpt><trkpt lat="45.87159333656839" lon="12.066736310699303"><ele>133.0</ele><time>2026-04-25T06:37:36Z</time></trkpt><trkpt lat="45.8716188053917" lon="12.066819894997058"><ele>133.0</ele><time>2026-04-25T06:37:37Z</time></trkpt><trkpt lat="45.871670679447504" lon="12.066981817054057"><ele>133.0</ele><time>2026-04-25T06:37:39Z</time></trkpt><trkpt lat="45.87169165637406" lon="12.067068693221245"><ele>133.0</ele><time>2026-04-25T06:37:40Z</time></trkpt><trkpt lat="45.87171556416937" lon="12.06715290032349"><ele>133.0</ele><time>2026-04-25T06:37:41Z</time></trkpt><trkpt lat="45.871763381440964" lon="12.067323333429524"><ele>133.0</ele><time>2026-04-25T06:37:42.999Z</time></trkpt><trkpt lat="45.87178822064968" lon="12.067411720798766"><ele>133.0</ele><time>2026-04-25T06:37:43.999Z</time></trkpt><trkpt lat="45.871807163504485" lon="12.067506272113098"><ele>133.0</ele><time>2026-04-25T06:37:44.999Z</time></trkpt><trkpt lat="45.871824623429575" lon="12.06760030823719"><ele>133.0</ele><time>2026-04-25T06:37:45.999Z</time></trkpt><trkpt lat="45.871847180258314" lon="12.067692820725497"><ele>133.0</ele><time>2026-04-25T06:37:46.999Z</time></trkpt><trkpt lat="45.87186632395896" lon="12.067784389600446"><ele>133.0</ele><time>2026-04-25T06:37:47.999Z</time></trkpt><trkpt lat="45.87188759657318" lon="12.067877938597757"><ele>133.0</ele><time>2026-04-25T06:37:48.999Z</time></trkpt><trkpt lat="45.87190687543108" lon="12.067967352930854"><ele>133.0</ele><time>2026-04-25T06:37:49.999Z</time></trkpt><trkpt lat="45.871921740595724" lon="12.06806143770546"><ele>133.0</ele><time>2026-04-25T06:37:50.999Z</time></trkpt><trkpt lat="45.87193398761465" lon="12.068163177858267"><ele>133.0</ele><time>2026-04-25T06:37:51.999Z</time></trkpt><trkpt lat="45.87194509412278" lon="12.068263650423212"><ele>133.0</ele><time>2026-04-25T06:37:52.999Z</time></trkpt><trkpt lat="45.87195714370686" lon="12.068360739508266"><ele>133.0</ele><time>2026-04-25T06:37:53.999Z</time></trkpt><trkpt lat="45.87197000328501" lon="12.068461953382487"><ele>133.0</ele><time>2026-04-25T06:37:54.999Z</time></trkpt><trkpt lat="45.87198433747116" lon="12.068558096173089"><ele>133.0</ele><time>2026-04-25T06:37:55.999Z</time></trkpt><trkpt lat="45.87200235626035" lon="12.06865434367668"><ele>133.0</ele><time>2026-04-25T06:37:56.999Z</time></trkpt><trkpt lat="45.87201533241585" lon="12.068751484247192"><ele>133.0</ele><time>2026-04-25T06:37:57.999Z</time></trkpt><trkpt lat="45.87202463919095" lon="12.068848868459302"><ele>133.0</ele><time>2026-04-25T06:37:58.999Z</time></trkpt><trkpt lat="45.872035969447104" lon="12.068950535940745"><ele>133.0</ele><time>2026-04-25T06:37:59.999Z</time></trkpt><trkpt lat="45.87204822765788" lon="12.069047973618586"><ele>133.0</ele><time>2026-04-25T06:38:00.999Z</time></trkpt><trkpt lat="45.87205828817839" lon="12.069147588041062"><ele>133.0</ele><time>2026-04-25T06:38:01.999Z</time></trkpt><trkpt lat="45.87206897908367" lon="12.069246113507665"><ele>133.0</ele><time>2026-04-25T06:38:02.999Z</time></trkpt><trkpt lat="45.87207829969408" lon="12.069345492773618"><ele>133.0</ele><time>2026-04-25T06:38:03.999Z</time></trkpt><trkpt lat="45.872084175902096" lon="12.069446423464447"><ele>132.71428571428572</ele><time>2026-04-25T06:38:04.999Z</time></trkpt><trkpt lat="45.872087085119915" lon="12.069548081033568"><ele>132.42857142857144</ele><time>2026-04-25T06:38:05.999Z</time></trkpt><trkpt lat="45.87209205877213" lon="12.069647262031076"><ele>132.14285714285714</ele><time>2026-04-25T06:38:06.999Z</time></trkpt><trkpt lat="45.87210405946504" lon="12.06974963683896"><ele>131.85714285714286</ele><time>2026-04-25T06:38:07.999Z</time></trkpt><trkpt lat="45.87211108463207" lon="12.06984552386261"><ele>131.57142857142858</ele><time>2026-04-25T06:38:08.999Z</time></trkpt><trkpt lat="45.87212091062363" lon="12.069943738071547"><ele>131.28571428571428</ele><time>2026-04-25T06:38:09.999Z</time></trkpt><trkpt lat="45.87213046781243" lon="12.070038800532787"><ele>131.0</ele><time>2026-04-25T06:38:10.999Z</time></trkpt><trkpt lat="45.872137830635054" lon="12.07013662696854"><ele>131.0</ele><time>2026-04-25T06:38:11.999Z</time></trkpt><trkpt lat="45.8721449874634" lon="12.070228776547543"><ele>131.0</ele><time>2026-04-25T06:38:12.999Z</time></trkpt><trkpt lat="45.87214789850987" lon="12.07033154560224"><ele>131.0</ele><time>2026-04-25T06:38:13.999Z</time></trkpt><trkpt lat="45.87214208670897" lon="12.07043089436322"><ele>131.0</ele><time>2026-04-25T06:38:14.999Z</time></trkpt><trkpt lat="45.872134993165204" lon="12.070522687636245"><ele>131.0</ele><time>2026-04-25T06:38:15.999Z</time></trkpt><trkpt lat="45.872131986242955" lon="12.070621076888473"><ele>131.0</ele><time>2026-04-25T06:38:16.999Z</time></trkpt><trkpt lat="45.8721294610081" lon="12.070722513740439"><ele>131.0</ele><time>2026-04-25T06:38:17.999Z</time></trkpt><trkpt lat="45.872126074294115" lon="12.070817320105999"><ele>130.85714285714286</ele><time>2026-04-25T06:38:18.999Z</time></trkpt><trkpt lat="45.872121489077706" lon="12.070916416855306"><ele>130.71428571428572</ele><time>2026-04-25T06:38:19.999Z</time></trkpt><trkpt lat="45.87211422492154" lon="12.07101405426964"><ele>130.57142857142858</ele><time>2026-04-25T06:38:20.999Z</time></trkpt><trkpt lat="45.872103962403266" lon="12.071114172179088"><ele>130.42857142857144</ele><time>2026-04-25T06:38:21.999Z</time></trkpt><trkpt lat="45.872092030860955" lon="12.071210133333098"><ele>130.28571428571428</ele><time>2026-04-25T06:38:22.999Z</time></trkpt><trkpt lat="45.87207975143935" lon="12.071309876984442"><ele>130.14285714285717</ele><time>2026-04-25T06:38:23.999Z</time></trkpt><trkpt lat="45.87206805660848" lon="12.071407281143344"><ele>130.0</ele><time>2026-04-25T06:38:24.999Z</time></trkpt><trkpt lat="45.87205408041602" lon="12.07150410043677"><ele>130.00000000000003</ele><time>2026-04-25T06:38:25.999Z</time></trkpt><trkpt lat="45.87204236728804" lon="12.071601576161758"><ele>130.0</ele><time>2026-04-25T06:38:26.999Z</time></trkpt><trkpt lat="45.872032100930255" lon="12.071699638831388"><ele>130.0</ele><time>2026-04-25T06:38:27.999Z</time></trkpt><trkpt lat="45.872019197570346" lon="12.071797743191635"><ele>130.0</ele><time>2026-04-25T06:38:28.998Z</time></trkpt><trkpt lat="45.872000623362446" lon="12.07188841370712"><ele>130.0</ele><time>2026-04-25T06:38:29.998Z</time></trkpt><trkpt lat="45.87198282995706" lon="12.071985415196234"><ele>130.00000000000003</ele><time>2026-04-25T06:38:30.998Z</time></trkpt><trkpt lat="45.871961939908594" lon="12.072078426153316"><ele>130.0</ele><time>2026-04-25T06:38:31.998Z</time></trkpt><trkpt lat="45.8719431864568" lon="12.072174374071542"><ele>129.85714285714286</ele><time>2026-04-25T06:38:32.998Z</time></trkpt><trkpt lat="45.87192012926471" lon="12.072267659178168"><ele>129.71428571428572</ele><time>2026-04-25T06:38:33.998Z</time></trkpt><trkpt lat="45.87189670724037" lon="12.072357586674773"><ele>129.57142857142856</ele><time>2026-04-25T06:38:34.998Z</time></trkpt><trkpt lat="45.87187557515123" lon="12.072446148486456"><ele>129.42857142857144</ele><time>2026-04-25T06:38:35.998Z</time></trkpt><trkpt lat="45.87185506409414" lon="12.072541884172349"><ele>129.28571428571428</ele><time>2026-04-25T06:38:36.998Z</time></trkpt><trkpt lat="45.871838667320404" lon="12.072637640845771"><ele>129.14285714285714</ele><time>2026-04-25T06:38:37.998Z</time></trkpt><trkpt lat="45.87182037551927" lon="12.072731903772816"><ele>129.0</ele><time>2026-04-25T06:38:38.998Z</time></trkpt><trkpt lat="45.87180260182668" lon="12.072824893402496"><ele>128.85714285714283</ele><time>2026-04-25T06:38:39.998Z</time></trkpt><trkpt lat="45.87179125330938" lon="12.072921470127183"><ele>128.71428571428572</ele><time>2026-04-25T06:38:40.998Z</time></trkpt><trkpt lat="45.87178635043173" lon="12.07301904505821"><ele>128.57142857142856</ele><time>2026-04-25T06:38:41.998Z</time></trkpt><trkpt lat="45.871779268806414" lon="12.073118415677367"><ele>128.42857142857142</ele><time>2026-04-25T06:38:42.998Z</time></trkpt><trkpt lat="45.87177396012394" lon="12.073216464730407"><ele>128.28571428571428</ele><time>2026-04-25T06:38:43.998Z</time></trkpt><trkpt lat="45.87177458864529" lon="12.073316963764654"><ele>128.14285714285714</ele><time>2026-04-25T06:38:44.998Z</time></trkpt><trkpt lat="45.871783051178085" lon="12.073413638510283"><ele>128.0</ele><time>2026-04-25T06:38:45.998Z</time></trkpt><trkpt lat="45.87180418948175" lon="12.073502953933344"><ele>128.0</ele><time>2026-04-25T06:38:46.998Z</time></trkpt><trkpt lat="45.87183796816033" lon="12.073589829733693"><ele>127.99999999999999</ele><time>2026-04-25T06:38:47.998Z</time></trkpt><trkpt lat="45.87187951306532" lon="12.073664773368437"><ele>128.0</ele><time>2026-04-25T06:38:48.998Z</time></trkpt><trkpt lat="45.87190651257807" lon="12.073756008038103"><ele>128.0</ele><time>2026-04-25T06:38:49.998Z</time></trkpt><trkpt lat="45.87194583795958" lon="12.073828542583424"><ele>127.99999999999999</ele><time>2026-04-25T06:38:50.998Z</time></trkpt><trkpt lat="45.87199033552014" lon="12.073898096194728"><ele>128.0</ele><time>2026-04-25T06:38:51.998Z</time></trkpt><trkpt lat="45.87203626154772" lon="12.073960418672216"><ele>128.0</ele><time>2026-04-25T06:38:52.998Z</time></trkpt><trkpt lat="45.872139343862244" lon="12.074048536114743"><ele>128.4</ele><time>2026-04-25T06:38:54.998Z</time></trkpt><trkpt lat="45.872223584134204" lon="12.074154060489679"><ele>128.8</ele><time>2026-04-25T06:38:56.998Z</time></trkpt><trkpt lat="45.87231245726983" lon="12.074260208052172"><ele>129.2</ele><time>2026-04-25T06:38:58.998Z</time></trkpt><trkpt lat="45.87239655819927" lon="12.074366101149497"><ele>129.6</ele><time>2026-04-25T06:39:00.998Z</time></trkpt><trkpt lat="45.872482768125" lon="12.07446281773695"><ele>130.0</ele><time>2026-04-25T06:39:02.998Z</time></trkpt><trkpt lat="45.872556597498175" lon="12.074559794174839"><ele>130.0</ele><time>2026-04-25T06:39:05Z</time></trkpt><trkpt lat="45.87262756188358" lon="12.07465426853092"><ele>130.0</ele><time>2026-04-25T06:39:07Z</time></trkpt><trkpt lat="45.87269700620129" lon="12.074748329467432"><ele>130.0</ele><time>2026-04-25T06:39:09Z</time></trkpt><trkpt lat="45.8727746092209" lon="12.074824542513719"><ele>130.0</ele><time>2026-04-25T06:39:11Z</time></trkpt><trkpt lat="45.87284823724446" lon="12.07489304571192"><ele>130.0</ele><time>2026-04-25T06:39:13Z</time></trkpt><trkpt lat="45.87289386466325" lon="12.074968505031988"><ele>130.0</ele><time>2026-04-25T06:39:15Z</time></trkpt><trkpt lat="45.87291609933173" lon="12.075057389283849"><ele>130.2</ele><time>2026-04-25T06:39:18Z</time></trkpt><trkpt lat="45.8729106460035" lon="12.075148703401377"><ele>130.4</ele><time>2026-04-25T06:39:21Z</time></trkpt><trkpt lat="45.87286371007707" lon="12.07523435027146"><ele>130.6</ele><time>2026-04-25T06:39:24Z</time></trkpt><trkpt lat="45.872810922264314" lon="12.075292038264793"><ele>130.8</ele><time>2026-04-25T06:39:28Z</time></trkpt><trkpt lat="45.873000226710005" lon="12.075496506448442"><ele>131.0</ele><time>2026-04-25T06:39:43Z</time></trkpt><trkpt lat="45.87305812665531" lon="12.075564525810098"><ele>131.0</ele><time>2026-04-25T06:39:44.999Z</time></trkpt><trkpt lat="45.87312572905405" lon="12.075641521993184"><ele>131.0</ele><time>2026-04-25T06:39:46.999Z</time></trkpt><trkpt lat="45.87319429186958" lon="12.07572569117899"><ele>131.0</ele><time>2026-04-25T06:39:48.999Z</time></trkpt><trkpt lat="45.873272869249604" lon="12.075811739538135"><ele>131.0</ele><time>2026-04-25T06:39:50.999Z</time></trkpt><trkpt lat="45.87335621955664" lon="12.075896218129936"><ele>131.0</ele><time>2026-04-25T06:39:52.999Z</time></trkpt><trkpt lat="45.87343913381512" lon="12.075987553397782"><ele>130.8</ele><time>2026-04-25T06:39:54.999Z</time></trkpt><trkpt lat="45.8735242222964" lon="12.076077567756526"><ele>130.6</ele><time>2026-04-25T06:39:56.999Z</time></trkpt><trkpt lat="45.873611788381766" lon="12.076162590134794"><ele>130.4</ele><time>2026-04-25T06:39:58.998Z</time></trkpt><trkpt lat="45.87369860770494" lon="12.076250615129506"><ele>130.2</ele><time>2026-04-25T06:40:00.998Z</time></trkpt><trkpt lat="45.87378671445593" lon="12.076338080841987"><ele>130.0</ele><time>2026-04-25T06:40:02.998Z</time></trkpt><trkpt lat="45.873871719907484" lon="12.076417951242588"><ele>130.0</ele><time>2026-04-25T06:40:04.998Z</time></trkpt><trkpt lat="45.87395592090624" lon="12.07649738753662"><ele>130.0</ele><time>2026-04-25T06:40:06.998Z</time></trkpt><trkpt lat="45.874024687575705" lon="12.076594393748378"><ele>130.0</ele><time>2026-04-25T06:40:08.998Z</time></trkpt><trkpt lat="45.87407075685346" lon="12.076700061191417"><ele>130.0</ele><time>2026-04-25T06:40:10.998Z</time></trkpt><trkpt lat="45.874143314138074" lon="12.076682342467928"><ele>130.0</ele><time>2026-04-25T06:40:11.998Z</time></trkpt><trkpt lat="45.87424347565125" lon="12.076672315104869"><ele>130.0</ele><time>2026-04-25T06:40:13.998Z</time></trkpt><trkpt lat="45.8743358061139" lon="12.076673257085437"><ele>130.0</ele><time>2026-04-25T06:40:15.998Z</time></trkpt><trkpt lat="45.874429410554" lon="12.07667647631432"><ele>130.0</ele><time>2026-04-25T06:40:17.998Z</time></trkpt><trkpt lat="45.87452117386253" lon="12.076704671544553"><ele>130.0</ele><time>2026-04-25T06:40:19.998Z</time></trkpt><trkpt lat="45.87461413623752" lon="12.076756020287696"><ele>130.0</ele><time>2026-04-25T06:40:21.998Z</time></trkpt><trkpt lat="45.87465238325697" lon="12.076832075327799"><ele>130.0</ele><time>2026-04-25T06:40:22.998Z</time></trkpt><trkpt lat="45.87474529326941" lon="12.076924086478263"><ele>130.0</ele><time>2026-04-25T06:40:24.998Z</time></trkpt><trkpt lat="45.87484207162053" lon="12.077008812505728"><ele>130.0</ele><time>2026-04-25T06:40:26.998Z</time></trkpt><trkpt lat="45.87494816835333" lon="12.077067646401408"><ele>130.0</ele><time>2026-04-25T06:40:28.998Z</time></trkpt><trkpt lat="45.87505305703557" lon="12.077100906241586"><ele>130.0</ele><time>2026-04-25T06:40:30.998Z</time></trkpt><trkpt lat="45.875143922622584" lon="12.077183666405865"><ele>130.0</ele><time>2026-04-25T06:40:32.998Z</time></trkpt><trkpt lat="45.87523147568983" lon="12.077283543357138"><ele>129.75</ele><time>2026-04-25T06:40:34.998Z</time></trkpt><trkpt lat="45.87532496650135" lon="12.077378831199473"><ele>129.5</ele><time>2026-04-25T06:40:36.998Z</time></trkpt><trkpt lat="45.87543994316556" lon="12.077430322205723"><ele>129.25</ele><time>2026-04-25T06:40:38.998Z</time></trkpt><trkpt lat="45.87555816369972" lon="12.077387136715515"><ele>129.0</ele><time>2026-04-25T06:40:40.998Z</time></trkpt><trkpt lat="45.87566357302997" lon="12.077312601647712"><ele>129.0</ele><time>2026-04-25T06:40:42.998Z</time></trkpt><trkpt lat="45.87576615660569" lon="12.077232876746057"><ele>129.0</ele><time>2026-04-25T06:40:44.997Z</time></trkpt><trkpt lat="45.87586636992849" lon="12.077148373507628"><ele>129.0</ele><time>2026-04-25T06:40:46.997Z</time></trkpt><trkpt lat="45.87596379280048" lon="12.077076900951129"><ele>129.0</ele><time>2026-04-25T06:40:48.997Z</time></trkpt><trkpt lat="45.876064796514996" lon="12.077024924894939"><ele>129.0</ele><time>2026-04-25T06:40:50.997Z</time></trkpt><trkpt lat="45.87615894411657" lon="12.076976208135154"><ele>129.0</ele><time>2026-04-25T06:40:52.997Z</time></trkpt><trkpt lat="45.87625204764537" lon="12.07695605785234"><ele>129.0</ele><time>2026-04-25T06:40:54.997Z</time></trkpt><trkpt lat="45.87633365365263" lon="12.076898525955746"><ele>129.0</ele><time>2026-04-25T06:40:56.997Z</time></trkpt><trkpt lat="45.876406227053366" lon="12.0768497888034"><ele>129.0</ele><time>2026-04-25T06:40:58.997Z</time></trkpt><trkpt lat="45.87647652341609" lon="12.076790802531354"><ele>129.0</ele><time>2026-04-25T06:41:00.997Z</time></trkpt><trkpt lat="45.87653721099377" lon="12.076744366863597"><ele>129.0</ele><time>2026-04-25T06:41:02.997Z</time></trkpt><trkpt lat="45.87660573252587" lon="12.07671263589143"><ele>129.0</ele><time>2026-04-25T06:41:08.997Z</time></trkpt><trkpt lat="45.876665883178696" lon="12.076668697515807"><ele>129.0</ele><time>2026-04-25T06:41:12Z</time></trkpt><trkpt lat="45.876752344748425" lon="12.076609731566139"><ele>129.0</ele><time>2026-04-25T06:41:15Z</time></trkpt><trkpt lat="45.87682145613974" lon="12.07654926794477"><ele>129.0</ele><time>2026-04-25T06:41:17Z</time></trkpt><trkpt lat="45.8768983760159" lon="12.076492762105806"><ele>129.0</ele><time>2026-04-25T06:41:19Z</time></trkpt><trkpt lat="45.876975838488306" lon="12.076431085707025"><ele>129.6</ele><time>2026-04-25T06:41:21Z</time></trkpt><trkpt lat="45.87706499052481" lon="12.076381134166466"><ele>130.2</ele><time>2026-04-25T06:41:23Z</time></trkpt><trkpt lat="45.87713528921976" lon="12.076266491488516"><ele>130.79999999999998</ele><time>2026-04-25T06:41:25Z</time></trkpt><trkpt lat="45.87717806530224" lon="12.076124632781328"><ele>131.4</ele><time>2026-04-25T06:41:27Z</time></trkpt><trkpt lat="45.87722599396521" lon="12.075992956366951"><ele>132.0</ele><time>2026-04-25T06:41:29Z</time></trkpt><trkpt lat="45.87728169579428" lon="12.075868532904355"><ele>131.79999999999998</ele><time>2026-04-25T06:41:30.999Z</time></trkpt><trkpt lat="45.87734917301256" lon="12.07575487439032"><ele>131.6</ele><time>2026-04-25T06:41:32.999Z</time></trkpt><trkpt lat="45.87743574766867" lon="12.07567790621068"><ele>131.39999999999998</ele><time>2026-04-25T06:41:34.999Z</time></trkpt><trkpt lat="45.87751565263383" lon="12.075582665947527"><ele>131.2</ele><time>2026-04-25T06:41:36.999Z</time></trkpt><trkpt lat="45.87759717245847" lon="12.07548657281395"><ele>131.0</ele><time>2026-04-25T06:41:38.999Z</time></trkpt><trkpt lat="45.87768388972481" lon="12.075386134711314"><ele>131.4</ele><time>2026-04-25T06:41:40.999Z</time></trkpt><trkpt lat="45.87777238555672" lon="12.075283636664945"><ele>131.8</ele><time>2026-04-25T06:41:42.999Z</time></trkpt><trkpt lat="45.87785786989806" lon="12.075178239030583"><ele>132.20000000000002</ele><time>2026-04-25T06:41:44.999Z</time></trkpt><trkpt lat="45.8779401911334" lon="12.075081022088886"><ele>132.6</ele><time>2026-04-25T06:41:46.999Z</time></trkpt><trkpt lat="45.878026273604796" lon="12.074995004761066"><ele>133.0</ele><time>2026-04-25T06:41:48.999Z</time></trkpt><trkpt lat="45.87812136235418" lon="12.074924236558958"><ele>133.0</ele><time>2026-04-25T06:41:50.999Z</time></trkpt><trkpt lat="45.87821042797019" lon="12.074835394001191"><ele>133.0</ele><time>2026-04-25T06:41:52.999Z</time></trkpt><trkpt lat="45.87829680801308" lon="12.074781682384641"><ele>133.0</ele><time>2026-04-25T06:41:54.999Z</time></trkpt><trkpt lat="45.87836328900272" lon="12.074733934008014"><ele>133.0</ele><time>2026-04-25T06:41:56.999Z</time></trkpt><trkpt lat="45.878412474015015" lon="12.074614847802048"><ele>133.0</ele><time>2026-04-25T06:41:58.999Z</time></trkpt><trkpt lat="45.87841394208388" lon="12.074458919800321"><ele>133.0</ele><time>2026-04-25T06:42:00.999Z</time></trkpt><trkpt lat="45.878393555507564" lon="12.074305893549287"><ele>133.0</ele><time>2026-04-25T06:42:02.999Z</time></trkpt><trkpt lat="45.878430381085394" lon="12.074164950134326"><ele>133.0</ele><time>2026-04-25T06:42:04.999Z</time></trkpt><trkpt lat="45.87847164042205" lon="12.074030500485716"><ele>133.0</ele><time>2026-04-25T06:42:06.999Z</time></trkpt><trkpt lat="45.878533322038585" lon="12.073912452459027"><ele>133.0</ele><time>2026-04-25T06:42:08.999Z</time></trkpt><trkpt lat="45.878630312800475" lon="12.073825543516445"><ele>133.25</ele><time>2026-04-25T06:42:10.999Z</time></trkpt><trkpt lat="45.878745574800575" lon="12.073773960904731"><ele>133.5</ele><time>2026-04-25T06:42:12.999Z</time></trkpt><trkpt lat="45.878858691632445" lon="12.07371528168332"><ele>133.75</ele><time>2026-04-25T06:42:14.999Z</time></trkpt><trkpt lat="45.87896959487948" lon="12.07365248451093"><ele>134.0</ele><time>2026-04-25T06:42:16.998Z</time></trkpt><trkpt lat="45.87907156425174" lon="12.073573887311696"><ele>134.0</ele><time>2026-04-25T06:42:18.998Z</time></trkpt><trkpt lat="45.879180468627204" lon="12.073492134808069"><ele>134.0</ele><time>2026-04-25T06:42:20.998Z</time></trkpt><trkpt lat="45.879288588248" lon="12.07341950046709"><ele>134.0</ele><time>2026-04-25T06:42:22.998Z</time></trkpt><trkpt lat="45.8794110890908" lon="12.073394922397805"><ele>134.0</ele><time>2026-04-25T06:42:24.998Z</time></trkpt><trkpt lat="45.8795321575008" lon="12.073453015031195"><ele>134.2</ele><time>2026-04-25T06:42:26.998Z</time></trkpt><trkpt lat="45.87964707078527" lon="12.07351340135326"><ele>134.4</ele><time>2026-04-25T06:42:28.998Z</time></trkpt><trkpt lat="45.879707825471634" lon="12.07354015422861"><ele>134.6</ele><time>2026-04-25T06:42:29.998Z</time></trkpt><trkpt lat="45.87982699215553" lon="12.073583355623416"><ele>134.8</ele><time>2026-04-25T06:42:31.998Z</time></trkpt><trkpt lat="45.879939283477164" lon="12.073622526219143"><ele>135.0</ele><time>2026-04-25T06:42:33.998Z</time></trkpt><trkpt lat="45.880047286247795" lon="12.07365131543484"><ele>135.4</ele><time>2026-04-25T06:42:35.998Z</time></trkpt><trkpt lat="45.88015528264878" lon="12.0736951364517"><ele>135.8</ele><time>2026-04-25T06:42:37.998Z</time></trkpt><trkpt lat="45.88025747730801" lon="12.073738070580283"><ele>136.2</ele><time>2026-04-25T06:42:39.998Z</time></trkpt><trkpt lat="45.880361832290234" lon="12.073779864821008"><ele>136.6</ele><time>2026-04-25T06:42:41.998Z</time></trkpt><trkpt lat="45.88046294775134" lon="12.073826312241314"><ele>137.0</ele><time>2026-04-25T06:42:43.998Z</time></trkpt><trkpt lat="45.88056348609906" lon="12.073863522424723"><ele>137.0</ele><time>2026-04-25T06:42:45.998Z</time></trkpt><trkpt lat="45.88067468768941" lon="12.073878028761534"><ele>137.0</ele><time>2026-04-25T06:42:47.998Z</time></trkpt><trkpt lat="45.880781085027564" lon="12.073857811365023"><ele>137.0</ele><time>2026-04-25T06:42:49.998Z</time></trkpt><trkpt lat="45.88088600160471" lon="12.073829449936495"><ele>137.0</ele><time>2026-04-25T06:42:51.998Z</time></trkpt><trkpt lat="45.880989846255396" lon="12.073803619809308"><ele>137.0</ele><time>2026-04-25T06:42:53.998Z</time></trkpt><trkpt lat="45.88109139122417" lon="12.07378204880743"><ele>137.0</ele><time>2026-04-25T06:42:55.998Z</time></trkpt><trkpt lat="45.881188373309755" lon="12.073757167528917"><ele>137.0</ele><time>2026-04-25T06:42:57.998Z</time></trkpt><trkpt lat="45.88129284759354" lon="12.073742048756237"><ele>137.0</ele><time>2026-04-25T06:42:59.998Z</time></trkpt><trkpt lat="45.88139986764525" lon="12.07372673282829"><ele>137.0</ele><time>2026-04-25T06:43:01.998Z</time></trkpt><trkpt lat="45.88150093100598" lon="12.073729019538224"><ele>137.0</ele><time>2026-04-25T06:43:03.997Z</time></trkpt><trkpt lat="45.88160518222313" lon="12.073736081136424"><ele>137.0</ele><time>2026-04-25T06:43:05.997Z</time></trkpt><trkpt lat="45.881705777920246" lon="12.07373614644841"><ele>137.0</ele><time>2026-04-25T06:43:07.997Z</time></trkpt><trkpt lat="45.88180608654554" lon="12.073752618555504"><ele>137.0</ele><time>2026-04-25T06:43:09.997Z</time></trkpt><trkpt lat="45.881901374552235" lon="12.073790382604606"><ele>137.0</ele><time>2026-04-25T06:43:11.997Z</time></trkpt><trkpt lat="45.881982056293396" lon="12.073876223852436"><ele>137.0</ele><time>2026-04-25T06:43:13.997Z</time></trkpt><trkpt lat="45.881998921374134" lon="12.074028563383898"><ele>137.25</ele><time>2026-04-25T06:43:16Z</time></trkpt><trkpt lat="45.88199373927377" lon="12.07418688195373"><ele>137.5</ele><time>2026-04-25T06:43:18Z</time></trkpt><trkpt lat="45.882016351714775" lon="12.074345567661632"><ele>137.75</ele><time>2026-04-25T06:43:20Z</time></trkpt><trkpt lat="45.88206521662161" lon="12.074495262067014"><ele>138.0</ele><time>2026-04-25T06:43:22Z</time></trkpt><trkpt lat="45.88208071685839" lon="12.074667778638272"><ele>138.0</ele><time>2026-04-25T06:43:24Z</time></trkpt><trkpt lat="45.882071993436256" lon="12.074832375812376"><ele>138.0</ele><time>2026-04-25T06:43:26Z</time></trkpt><trkpt lat="45.882086304791876" lon="12.074998215644879"><ele>138.0</ele><time>2026-04-25T06:43:28Z</time></trkpt><trkpt lat="45.88212733770284" lon="12.075156882940705"><ele>138.0</ele><time>2026-04-25T06:43:30Z</time></trkpt><trkpt lat="45.88219401500446" lon="12.075285186949271"><ele>138.0</ele><time>2026-04-25T06:43:32Z</time></trkpt><trkpt lat="45.88226834257989" lon="12.07540619691334"><ele>138.0</ele><time>2026-04-25T06:43:34Z</time></trkpt><trkpt lat="45.88235158211413" lon="12.075513147204733"><ele>138.0</ele><time>2026-04-25T06:43:36Z</time></trkpt><trkpt lat="45.88243729428494" lon="12.075600280132653"><ele>138.0</ele><time>2026-04-25T06:43:38Z</time></trkpt><trkpt lat="45.88254019698678" lon="12.075668617031983"><ele>138.0</ele><time>2026-04-25T06:43:40Z</time></trkpt><trkpt lat="45.88264723220173" lon="12.075701547082387"><ele>138.0</ele><time>2026-04-25T06:43:42Z</time></trkpt><trkpt lat="45.88274944892344" lon="12.075718945591953"><ele>138.0</ele><time>2026-04-25T06:43:44Z</time></trkpt><trkpt lat="45.88286104431167" lon="12.075726233372768"><ele>138.0</ele><time>2026-04-25T06:43:46Z</time></trkpt><trkpt lat="45.88296164783878" lon="12.075731441612623"><ele>138.0</ele><time>2026-04-25T06:43:47.999Z</time></trkpt><trkpt lat="45.88307547334361" lon="12.075720458876694"><ele>138.0</ele><time>2026-04-25T06:43:49.999Z</time></trkpt><trkpt lat="45.88317168296691" lon="12.07571224609599"><ele>138.0</ele><time>2026-04-25T06:43:51.999Z</time></trkpt><trkpt lat="45.88328132285165" lon="12.075694670381251"><ele>138.0</ele><time>2026-04-25T06:43:53.999Z</time></trkpt><trkpt lat="45.88337604085274" lon="12.075693569813673"><ele>138.0</ele><time>2026-04-25T06:43:55.999Z</time></trkpt><trkpt lat="45.88348265334995" lon="12.075654643350232"><ele>138.0</ele><time>2026-04-25T06:43:57.999Z</time></trkpt><trkpt lat="45.88357899991452" lon="12.075591196851962"><ele>138.0</ele><time>2026-04-25T06:43:59.999Z</time></trkpt><trkpt lat="45.883661477601514" lon="12.075493856406746"><ele>138.20000000000002</ele><time>2026-04-25T06:44:01.999Z</time></trkpt><trkpt lat="45.88373639058633" lon="12.075397074257285"><ele>138.4</ele><time>2026-04-25T06:44:03.999Z</time></trkpt><trkpt lat="45.8838083889943" lon="12.075300978237387"><ele>138.60000000000002</ele><time>2026-04-25T06:44:05.999Z</time></trkpt><trkpt lat="45.883882396004395" lon="12.075208199550861"><ele>138.8</ele><time>2026-04-25T06:44:07.999Z</time></trkpt><trkpt lat="45.883956950903254" lon="12.075106509706144"><ele>139.0</ele><time>2026-04-25T06:44:09.999Z</time></trkpt><trkpt lat="45.884036980957305" lon="12.075003919741704"><ele>139.2</ele><time>2026-04-25T06:44:11.999Z</time></trkpt><trkpt lat="45.88410886709991" lon="12.074899199761006"><ele>139.4</ele><time>2026-04-25T06:44:13.999Z</time></trkpt><trkpt lat="45.88418858389251" lon="12.07479513506912"><ele>139.6</ele><time>2026-04-25T06:44:15.999Z</time></trkpt><trkpt lat="45.88426559647938" lon="12.074693531381158"><ele>139.8</ele><time>2026-04-25T06:44:17.999Z</time></trkpt><trkpt lat="45.8843443758574" lon="12.07459127911307"><ele>140.0</ele><time>2026-04-25T06:44:19.999Z</time></trkpt><trkpt lat="45.88442158001825" lon="12.07450105017315"><ele>140.0</ele><time>2026-04-25T06:44:21.999Z</time></trkpt><trkpt lat="45.88451085836016" lon="12.074422407458554"><ele>140.0</ele><time>2026-04-25T06:44:23.999Z</time></trkpt><trkpt lat="45.88459084478129" lon="12.074341631635697"><ele>140.0</ele><time>2026-04-25T06:44:25.999Z</time></trkpt><trkpt lat="45.88466772659116" lon="12.074261022959295"><ele>140.0</ele><time>2026-04-25T06:44:27.999Z</time></trkpt><trkpt lat="45.88475754214728" lon="12.074201733328783"><ele>140.0</ele><time>2026-04-25T06:44:29.999Z</time></trkpt><trkpt lat="45.88485038117375" lon="12.074159239918204"><ele>140.0</ele><time>2026-04-25T06:44:31.999Z</time></trkpt><trkpt lat="45.88495141318685" lon="12.074127633977257"><ele>140.0</ele><time>2026-04-25T06:44:33.999Z</time></trkpt><trkpt lat="45.88505183721907" lon="12.074085188387164"><ele>140.0</ele><time>2026-04-25T06:44:35.998Z</time></trkpt><trkpt lat="45.885147959770634" lon="12.074036908063768"><ele>140.0</ele><time>2026-04-25T06:44:37.998Z</time></trkpt><trkpt lat="45.8852394399429" lon="12.073972995018305"><ele>140.0</ele><time>2026-04-25T06:44:39.998Z</time></trkpt><trkpt lat="45.88532845765301" lon="12.073914417554114"><ele>140.0</ele><time>2026-04-25T06:44:41.998Z</time></trkpt><trkpt lat="45.885420914642445" lon="12.07387827210388"><ele>140.0</ele><time>2026-04-25T06:44:43.998Z</time></trkpt><trkpt lat="45.88551360992458" lon="12.073841261322928"><ele>140.0</ele><time>2026-04-25T06:44:45.998Z</time></trkpt><trkpt lat="45.8856000017705" lon="12.073803095102045"><ele>140.0</ele><time>2026-04-25T06:44:47.998Z</time></trkpt><trkpt lat="45.885687471587644" lon="12.073744563483915"><ele>140.0</ele><time>2026-04-25T06:44:49.998Z</time></trkpt><trkpt lat="45.88578234500466" lon="12.073700154101664"><ele>140.0</ele><time>2026-04-25T06:44:51.998Z</time></trkpt><trkpt lat="45.885867890589005" lon="12.073628664308186"><ele>140.0</ele><time>2026-04-25T06:44:53.998Z</time></trkpt><trkpt lat="45.88595719847627" lon="12.073564395167889"><ele>140.0</ele><time>2026-04-25T06:44:55.998Z</time></trkpt><trkpt lat="45.886041843331235" lon="12.073494866727648"><ele>140.0</ele><time>2026-04-25T06:44:57.998Z</time></trkpt><trkpt lat="45.8861196086432" lon="12.073406726809806"><ele>140.0</ele><time>2026-04-25T06:44:59.998Z</time></trkpt><trkpt lat="45.88620510439207" lon="12.073328191962176"><ele>140.4</ele><time>2026-04-25T06:45:01.998Z</time></trkpt><trkpt lat="45.88629519479907" lon="12.073259783611311"><ele>140.8</ele><time>2026-04-25T06:45:03.998Z</time></trkpt><trkpt lat="45.88638054084397" lon="12.073183053772278"><ele>141.2</ele><time>2026-04-25T06:45:05.998Z</time></trkpt><trkpt lat="45.88646157865908" lon="12.073110173845341"><ele>141.6</ele><time>2026-04-25T06:45:07.998Z</time></trkpt><trkpt lat="45.88653761850404" lon="12.073020801015883"><ele>142.0</ele><time>2026-04-25T06:45:09.998Z</time></trkpt><trkpt lat="45.8866166433614" lon="12.072933476882628"><ele>142.0</ele><time>2026-04-25T06:45:11.998Z</time></trkpt><trkpt lat="45.886707243901775" lon="12.072879082084297"><ele>142.0</ele><time>2026-04-25T06:45:13.998Z</time></trkpt><trkpt lat="45.88680023681884" lon="12.07282076666166"><ele>142.0</ele><time>2026-04-25T06:45:15.998Z</time></trkpt><trkpt lat="45.88689199709725" lon="12.072748100721284"><ele>142.0</ele><time>2026-04-25T06:45:17.998Z</time></trkpt><trkpt lat="45.88699068553754" lon="12.072693546578842"><ele>142.0</ele><time>2026-04-25T06:45:20Z</time></trkpt><trkpt lat="45.887089409322975" lon="12.072642593442943"><ele>142.6</ele><time>2026-04-25T06:45:22Z</time></trkpt><trkpt lat="45.887185528565595" lon="12.072601071506604"><ele>143.2</ele><time>2026-04-25T06:45:24Z</time></trkpt><trkpt lat="45.887279386975074" lon="12.072566037073534"><ele>143.8</ele><time>2026-04-25T06:45:26Z</time></trkpt><trkpt lat="45.88737667135813" lon="12.07253019144838"><ele>144.4</ele><time>2026-04-25T06:45:28Z</time></trkpt><trkpt lat="45.88745896596937" lon="12.072511613888427"><ele>145.0</ele><time>2026-04-25T06:45:30Z</time></trkpt><trkpt lat="45.88752087425086" lon="12.072632276478357"><ele>145.0</ele><time>2026-04-25T06:45:33Z</time></trkpt><trkpt lat="45.887558469516804" lon="12.072746778601726"><ele>145.0</ele><time>2026-04-25T06:45:35Z</time></trkpt><trkpt lat="45.887599784668915" lon="12.0728568719731"><ele>145.0</ele><time>2026-04-25T06:45:37Z</time></trkpt><trkpt lat="45.88763714140887" lon="12.072962376814036"><ele>145.0</ele><time>2026-04-25T06:45:39Z</time></trkpt><trkpt lat="45.88766309332051" lon="12.073073572717993"><ele>145.0</ele><time>2026-04-25T06:45:41Z</time></trkpt><trkpt lat="45.88767766737074" lon="12.07319826428136"><ele>145.0</ele><time>2026-04-25T06:45:43Z</time></trkpt><trkpt lat="45.88771171282763" lon="12.073346234654112"><ele>145.4</ele><time>2026-04-25T06:45:45Z</time></trkpt><trkpt lat="45.88774079975475" lon="12.073503925696434"><ele>145.8</ele><time>2026-04-25T06:45:47Z</time></trkpt><trkpt lat="45.88776964007326" lon="12.073659528414458"><ele>146.2</ele><time>2026-04-25T06:45:49Z</time></trkpt><trkpt lat="45.887799958702324" lon="12.07380679774803"><ele>146.6</ele><time>2026-04-25T06:45:51Z</time></trkpt><trkpt lat="45.88782710588283" lon="12.073945466344933"><ele>147.0</ele><time>2026-04-25T06:45:53Z</time></trkpt><trkpt lat="45.8878595138911" lon="12.074086588794946"><ele>146.6</ele><time>2026-04-25T06:45:55Z</time></trkpt><trkpt lat="45.88790432983086" lon="12.074226931947297"><ele>146.2</ele><time>2026-04-25T06:45:57Z</time></trkpt><trkpt lat="45.887960820595225" lon="12.074358031071553"><ele>145.8</ele><time>2026-04-25T06:45:59Z</time></trkpt><trkpt lat="45.88802925315031" lon="12.074486849248503"><ele>145.4</ele><time>2026-04-25T06:46:01Z</time></trkpt><trkpt lat="45.88810032441965" lon="12.074616758194301"><ele>145.0</ele><time>2026-04-25T06:46:03Z</time></trkpt><trkpt lat="45.88817863547155" lon="12.07472177872526"><ele>145.0</ele><time>2026-04-25T06:46:04.999Z</time></trkpt><trkpt lat="45.88826397572697" lon="12.074824155791823"><ele>145.0</ele><time>2026-04-25T06:46:06.999Z</time></trkpt><trkpt lat="45.88834523295761" lon="12.074930228090373"><ele>145.0</ele><time>2026-04-25T06:46:08.999Z</time></trkpt><trkpt lat="45.88842168684229" lon="12.075043712219351"><ele>145.0</ele><time>2026-04-25T06:46:10.999Z</time></trkpt><trkpt lat="45.88849021764368" lon="12.07516586302521"><ele>145.0</ele><time>2026-04-25T06:46:12.999Z</time></trkpt><trkpt lat="45.88855382387476" lon="12.075293503906684"><ele>145.6</ele><time>2026-04-25T06:46:14.999Z</time></trkpt><trkpt lat="45.888619650886504" lon="12.075413398411042"><ele>146.2</ele><time>2026-04-25T06:46:16.999Z</time></trkpt><trkpt lat="45.8886924810892" lon="12.075528070674096"><ele>146.8</ele><time>2026-04-25T06:46:18.999Z</time></trkpt><trkpt lat="45.8887686480459" lon="12.075632253514808"><ele>147.4</ele><time>2026-04-25T06:46:20.999Z</time></trkpt><trkpt lat="45.88884091055419" lon="12.075739722693438"><ele>148.0</ele><time>2026-04-25T06:46:22.999Z</time></trkpt><trkpt lat="45.88890304772043" lon="12.075857259847844"><ele>148.0</ele><time>2026-04-25T06:46:24.999Z</time></trkpt><trkpt lat="45.88896432019324" lon="12.075979429387093"><ele>148.0</ele><time>2026-04-25T06:46:26.999Z</time></trkpt><trkpt lat="45.88902610378931" lon="12.076100562522674"><ele>148.0</ele><time>2026-04-25T06:46:28.999Z</time></trkpt><trkpt lat="45.88908773498987" lon="12.076220370728855"><ele>148.0</ele><time>2026-04-25T06:46:30.999Z</time></trkpt><trkpt lat="45.88914872225844" lon="12.076336188797882"><ele>148.0</ele><time>2026-04-25T06:46:32.999Z</time></trkpt><trkpt lat="45.88921227487176" lon="12.076446754183674"><ele>148.4</ele><time>2026-04-25T06:46:34.999Z</time></trkpt><trkpt lat="45.8892774818196" lon="12.07655572399673"><ele>148.8</ele><time>2026-04-25T06:46:36.999Z</time></trkpt><trkpt lat="45.88934266028317" lon="12.076663736282034"><ele>149.2</ele><time>2026-04-25T06:46:38.999Z</time></trkpt><trkpt lat="45.889411176931134" lon="12.07676772002787"><ele>149.6</ele><time>2026-04-25T06:46:40.999Z</time></trkpt><trkpt lat="45.8894808779061" lon="12.076874651059553"><ele>150.0</ele><time>2026-04-25T06:46:42.999Z</time></trkpt><trkpt lat="45.88955927208446" lon="12.076975376229587"><ele>150.0</ele><time>2026-04-25T06:46:44.999Z</time></trkpt><trkpt lat="45.889640992471875" lon="12.077069970522208"><ele>150.0</ele><time>2026-04-25T06:46:46.999Z</time></trkpt><trkpt lat="45.889728137120905" lon="12.077155475617536"><ele>150.0</ele><time>2026-04-25T06:46:48.999Z</time></trkpt><trkpt lat="45.889821346381346" lon="12.077228342038877"><ele>150.0</ele><time>2026-04-25T06:46:50.999Z</time></trkpt><trkpt lat="45.88991122472952" lon="12.077310619047772"><ele>150.0</ele><time>2026-04-25T06:46:52.998Z</time></trkpt><trkpt lat="45.88999518075239" lon="12.077407540866135"><ele>149.8</ele><time>2026-04-25T06:46:54.998Z</time></trkpt><trkpt lat="45.89006080689563" lon="12.077527879579062"><ele>149.6</ele><time>2026-04-25T06:46:56.998Z</time></trkpt><trkpt lat="45.89010387433632" lon="12.077666788189468"><ele>149.4</ele><time>2026-04-25T06:46:58.998Z</time></trkpt><trkpt lat="45.89012740756256" lon="12.077814208761628"><ele>149.2</ele><time>2026-04-25T06:47:00.998Z</time></trkpt><trkpt lat="45.890148468447904" lon="12.077961117242827"><ele>149.0</ele><time>2026-04-25T06:47:02.998Z</time></trkpt><trkpt lat="45.890175702194" lon="12.078098719817849"><ele>149.8</ele><time>2026-04-25T06:47:04.998Z</time></trkpt><trkpt lat="45.890215232710645" lon="12.078222273943224"><ele>150.60000000000002</ele><time>2026-04-25T06:47:06.998Z</time></trkpt><trkpt lat="45.890279560958724" lon="12.078324646014778"><ele>151.4</ele><time>2026-04-25T06:47:08.998Z</time></trkpt><trkpt lat="45.89040718353228" lon="12.07827483684928"><ele>152.20000000000002</ele><time>2026-04-25T06:47:10.998Z</time></trkpt><trkpt lat="45.8905058801209" lon="12.078239546299042"><ele>153.0</ele><time>2026-04-25T06:47:12.998Z</time></trkpt><trkpt lat="45.89059948651903" lon="12.07819000923768"><ele>153.0</ele><time>2026-04-25T06:47:14.998Z</time></trkpt><trkpt lat="45.89069194535252" lon="12.078132828050117"><ele>153.0</ele><time>2026-04-25T06:47:16.998Z</time></trkpt><trkpt lat="45.89078472361816" lon="12.078078229474778"><ele>153.0</ele><time>2026-04-25T06:47:18.998Z</time></trkpt><trkpt lat="45.89087614161035" lon="12.07802106395888"><ele>153.0</ele><time>2026-04-25T06:47:20.998Z</time></trkpt><trkpt lat="45.89096578977434" lon="12.077961897663606"><ele>153.0</ele><time>2026-04-25T06:47:22.998Z</time></trkpt><trkpt lat="45.891055824607115" lon="12.077914183335771"><ele>153.6</ele><time>2026-04-25T06:47:24.998Z</time></trkpt><trkpt lat="45.89114351003815" lon="12.077857669791483"><ele>154.20000000000002</ele><time>2026-04-25T06:47:27Z</time></trkpt><trkpt lat="45.89123278074904" lon="12.0778069632493"><ele>154.8</ele><time>2026-04-25T06:47:29Z</time></trkpt><trkpt lat="45.89132791019453" lon="12.077763178790685"><ele>155.4</ele><time>2026-04-25T06:47:31Z</time></trkpt><trkpt lat="45.89142086879554" lon="12.077734829672908"><ele>156.0</ele><time>2026-04-25T06:47:33Z</time></trkpt><trkpt lat="45.8915045476344" lon="12.077739419927875"><ele>156.0</ele><time>2026-04-25T06:47:35Z</time></trkpt><trkpt lat="45.89157405847723" lon="12.077793164840969"><ele>156.0</ele><time>2026-04-25T06:47:37Z</time></trkpt><trkpt lat="45.8916287662324" lon="12.07784722609955"><ele>156.0</ele><time>2026-04-25T06:47:39Z</time></trkpt><trkpt lat="45.891697418124856" lon="12.077904976742202"><ele>156.0</ele><time>2026-04-25T06:47:41Z</time></trkpt><trkpt lat="45.891770518296774" lon="12.07801651426362"><ele>156.0</ele><time>2026-04-25T06:47:43.999Z</time></trkpt><trkpt lat="45.89181400064742" lon="12.078121164340967"><ele>156.0</ele><time>2026-04-25T06:47:45.999Z</time></trkpt><trkpt lat="45.89186495281783" lon="12.07822423191525"><ele>156.6</ele><time>2026-04-25T06:47:47.999Z</time></trkpt><trkpt lat="45.89191718237781" lon="12.078336583331192"><ele>157.2</ele><time>2026-04-25T06:47:49.999Z</time></trkpt><trkpt lat="45.89198037809142" lon="12.078443980761966"><ele>157.8</ele><time>2026-04-25T06:47:51.999Z</time></trkpt><trkpt lat="45.892045807625934" lon="12.078553172699658"><ele>158.4</ele><time>2026-04-25T06:47:53.999Z</time></trkpt><trkpt lat="45.89210551300834" lon="12.0786687164784"><ele>159.0</ele><time>2026-04-25T06:47:55.999Z</time></trkpt><trkpt lat="45.89217181987044" lon="12.07878323801021"><ele>159.0</ele><time>2026-04-25T06:47:57.999Z</time></trkpt><trkpt lat="45.89223454802866" lon="12.078897190120388"><ele>159.0</ele><time>2026-04-25T06:47:59.999Z</time></trkpt><trkpt lat="45.89229134950016" lon="12.079013352076798"><ele>159.0</ele><time>2026-04-25T06:48:01.999Z</time></trkpt><trkpt lat="45.89234241012222" lon="12.079127416056194"><ele>159.0</ele><time>2026-04-25T06:48:03.999Z</time></trkpt><trkpt lat="45.89238713539473" lon="12.079240201416061"><ele>159.0</ele><time>2026-04-25T06:48:05.999Z</time></trkpt><trkpt lat="45.89242690738068" lon="12.079317421449858"><ele>158.66666666666666</ele><time>2026-04-25T06:48:07.999Z</time></trkpt><trkpt lat="45.89245193661357" lon="12.079400956984156"><ele>158.33333333333334</ele><time>2026-04-25T06:48:09.999Z</time></trkpt><trkpt lat="45.89247354142749" lon="12.079506047081798"><ele>158.0</ele><time>2026-04-25T06:48:11.999Z</time></trkpt><trkpt lat="45.89249514380292" lon="12.079630303560862"><ele>157.66666666666669</ele><time>2026-04-25T06:48:13.999Z</time></trkpt><trkpt lat="45.892502035348876" lon="12.079757440724835"><ele>157.33333333333334</ele><time>2026-04-25T06:48:15.999Z</time></trkpt><trkpt lat="45.892510383667286" lon="12.079878242704018"><ele>157.0</ele><time>2026-04-25T06:48:17.999Z</time></trkpt><trkpt lat="45.89251683986938" lon="12.079993154752641"><ele>156.83333333333334</ele><time>2026-04-25T06:48:19.999Z</time></trkpt><trkpt lat="45.89252248563108" lon="12.080104716042792"><ele>156.66666666666669</ele><time>2026-04-25T06:48:21.999Z</time></trkpt><trkpt lat="45.892532077911696" lon="12.08020877900359"><ele>156.5</ele><time>2026-04-25T06:48:23.999Z</time></trkpt><trkpt lat="45.89254151570603" lon="12.08031135223101"><ele>156.33333333333334</ele><time>2026-04-25T06:48:25.998Z</time></trkpt><trkpt lat="45.89254187174147" lon="12.080413316765055"><ele>156.16666666666666</ele><time>2026-04-25T06:48:27.998Z</time></trkpt><trkpt lat="45.89255617789763" lon="12.080502539300593"><ele>156.0</ele><time>2026-04-25T06:48:30.998Z</time></trkpt><trkpt lat="45.89269264208387" lon="12.080481795685248"><ele>156.5</ele><time>2026-04-25T06:48:31.998Z</time></trkpt><trkpt lat="45.892772411936974" lon="12.080445343159449"><ele>157.0</ele><time>2026-04-25T06:48:33.998Z</time></trkpt><trkpt lat="45.89284330544498" lon="12.080407673433555"><ele>157.5</ele><time>2026-04-25T06:48:35.998Z</time></trkpt><trkpt lat="45.892918968283126" lon="12.080373491370556"><ele>158.0</ele><time>2026-04-25T06:48:37.998Z</time></trkpt><trkpt lat="45.89299253388545" lon="12.080334098788558"><ele>158.5</ele><time>2026-04-25T06:48:39.998Z</time></trkpt><trkpt lat="45.89306751547158" lon="12.080297716556265"><ele>159.0</ele><time>2026-04-25T06:48:41.998Z</time></trkpt><trkpt lat="45.89314220851238" lon="12.080261073245603"><ele>159.0</ele><time>2026-04-25T06:48:43.998Z</time></trkpt><trkpt lat="45.89321489709882" lon="12.08021983749061"><ele>159.0</ele><time>2026-04-25T06:48:45.998Z</time></trkpt><trkpt lat="45.89328768224348" lon="12.080183771470956"><ele>159.0</ele><time>2026-04-25T06:48:47.998Z</time></trkpt><trkpt lat="45.89336000646694" lon="12.080143739743352"><ele>159.0</ele><time>2026-04-25T06:48:49.998Z</time></trkpt><trkpt lat="45.893428748838176" lon="12.080106351987316"><ele>159.0</ele><time>2026-04-25T06:48:51.998Z</time></trkpt><trkpt lat="45.893488819451925" lon="12.080067317731165"><ele>159.0</ele><time>2026-04-25T06:48:53.998Z</time></trkpt><trkpt lat="45.89356916341657" lon="12.080039513476263"><ele>159.7142857142857</ele><time>2026-04-25T06:48:56.998Z</time></trkpt><trkpt lat="45.893659263395065" lon="12.080022359551517"><ele>160.42857142857144</ele><time>2026-04-25T06:48:59.998Z</time></trkpt><trkpt lat="45.89372326014149" lon="12.080036997299267"><ele>161.14285714285714</ele><time>2026-04-25T06:49:01.998Z</time></trkpt><trkpt lat="45.89378587882434" lon="12.080067783744434"><ele>161.85714285714283</ele><time>2026-04-25T06:49:03.998Z</time></trkpt><trkpt lat="45.89384427146408" lon="12.080118142281087"><ele>162.57142857142856</ele><time>2026-04-25T06:49:05.998Z</time></trkpt><trkpt lat="45.89389196530527" lon="12.080188862642762"><ele>163.28571428571428</ele><time>2026-04-25T06:49:07.998Z</time></trkpt><trkpt lat="45.89395204586897" lon="12.080250490514546"><ele>164.0</ele><time>2026-04-25T06:49:09.998Z</time></trkpt><trkpt lat="45.894014898588324" lon="12.080302754181774"><ele>164.0</ele><time>2026-04-25T06:49:11.998Z</time></trkpt><trkpt lat="45.89407990662415" lon="12.08035328467331"><ele>164.0</ele><time>2026-04-25T06:49:13.997Z</time></trkpt><trkpt lat="45.89415453110916" lon="12.080381699940475"><ele>164.0</ele><time>2026-04-25T06:49:15.997Z</time></trkpt><trkpt lat="45.89421660223986" lon="12.08044765373944"><ele>164.0</ele><time>2026-04-25T06:49:17.997Z</time></trkpt><trkpt lat="45.89429008518597" lon="12.080484827782954"><ele>164.0</ele><time>2026-04-25T06:49:19.997Z</time></trkpt><trkpt lat="45.89436544613251" lon="12.08050679802447"><ele>164.0</ele><time>2026-04-25T06:49:21.997Z</time></trkpt><trkpt lat="45.89443644704373" lon="12.080524466851733"><ele>165.5</ele><time>2026-04-25T06:49:23.997Z</time></trkpt><trkpt lat="45.894520764614036" lon="12.080500271150363"><ele>167.0</ele><time>2026-04-25T06:49:25.997Z</time></trkpt><trkpt lat="45.89459993650824" lon="12.080491831413875"><ele>168.5</ele><time>2026-04-25T06:49:27.997Z</time></trkpt><trkpt lat="45.894680700515174" lon="12.08048300345095"><ele>170.0</ele><time>2026-04-25T06:49:29.997Z</time></trkpt><trkpt lat="45.89476341916195" lon="12.080477561165965"><ele>171.5</ele><time>2026-04-25T06:49:32Z</time></trkpt><trkpt lat="45.89484463606781" lon="12.08047821573934"><ele>173.0</ele><time>2026-04-25T06:49:34Z</time></trkpt><trkpt lat="45.89492499506968" lon="12.080482141815382"><ele>173.0</ele><time>2026-04-25T06:49:36Z</time></trkpt><trkpt lat="45.89500457822066" lon="12.080485929033541"><ele>173.0</ele><time>2026-04-25T06:49:38Z</time></trkpt><trkpt lat="45.895082305444014" lon="12.080489627932192"><ele>173.0</ele><time>2026-04-25T06:49:40Z</time></trkpt><trkpt lat="45.89515718956126" lon="12.080492687337502"><ele>173.0</ele><time>2026-04-25T06:49:42Z</time></trkpt><trkpt lat="45.895229773361066" lon="12.080488065969082"><ele>173.0</ele><time>2026-04-25T06:49:44Z</time></trkpt><trkpt lat="45.89529597717039" lon="12.080474459978273"><ele>173.0</ele><time>2026-04-25T06:49:46Z</time></trkpt><trkpt lat="45.89538723991911" lon="12.080455704085711"><ele>173.5</ele><time>2026-04-25T06:49:49Z</time></trkpt><trkpt lat="45.89542077631415" lon="12.08034369416212"><ele>174.0</ele><time>2026-04-25T06:49:50Z</time></trkpt><trkpt lat="45.89547368787097" lon="12.080287404128873"><ele>174.5</ele><time>2026-04-25T06:49:52Z</time></trkpt><trkpt lat="45.895550609975814" lon="12.080214732248173"><ele>175.0</ele><time>2026-04-25T06:49:55Z</time></trkpt><trkpt lat="45.895631070152504" lon="12.080148444358038"><ele>175.5</ele><time>2026-04-25T06:49:58Z</time></trkpt><trkpt lat="45.89571017307427" lon="12.080094139421565"><ele>176.0</ele><time>2026-04-25T06:50:00.999Z</time></trkpt><trkpt lat="45.89578427538283" lon="12.080052456380121"><ele>176.0</ele><time>2026-04-25T06:50:03.999Z</time></trkpt><trkpt lat="45.89585863126033" lon="12.080007897332713"><ele>176.0</ele><time>2026-04-25T06:50:06.999Z</time></trkpt><trkpt lat="45.89593798818103" lon="12.079968998416705"><ele>176.0</ele><time>2026-04-25T06:50:09.999Z</time></trkpt><trkpt lat="45.896028371503895" lon="12.079950051889927"><ele>176.0</ele><time>2026-04-25T06:50:12.999Z</time></trkpt><trkpt lat="45.89610292344058" lon="12.079927053730248"><ele>176.0</ele><time>2026-04-25T06:50:14.999Z</time></trkpt><trkpt lat="45.89618522947813" lon="12.079895259511206"><ele>176.0</ele><time>2026-04-25T06:50:16.999Z</time></trkpt><trkpt lat="45.89627676610668" lon="12.07986864791517"><ele>177.0</ele><time>2026-04-25T06:50:18.999Z</time></trkpt><trkpt lat="45.89638053704045" lon="12.079847446517128"><ele>178.0</ele><time>2026-04-25T06:50:20.999Z</time></trkpt><trkpt lat="45.89648675789471" lon="12.079822414255435"><ele>179.0</ele><time>2026-04-25T06:50:22.999Z</time></trkpt><trkpt lat="45.89659542559291" lon="12.079797575008948"><ele>180.0</ele><time>2026-04-25T06:50:24.999Z</time></trkpt><trkpt lat="45.89670405250181" lon="12.07977706445816"><ele>181.0</ele><time>2026-04-25T06:50:26.999Z</time></trkpt><trkpt lat="45.896812934219696" lon="12.079753666689465"><ele>181.0</ele><time>2026-04-25T06:50:28.999Z</time></trkpt><trkpt lat="45.89692620981519" lon="12.07973320721979"><ele>181.0</ele><time>2026-04-25T06:50:30.999Z</time></trkpt><trkpt lat="45.897039672691896" lon="12.079710520654544"><ele>181.0</ele><time>2026-04-25T06:50:32.999Z</time></trkpt><trkpt lat="45.89715272444511" lon="12.079683474051405"><ele>181.0</ele><time>2026-04-25T06:50:34.999Z</time></trkpt><trkpt lat="45.897263345279235" lon="12.079657175029114"><ele>181.0</ele><time>2026-04-25T06:50:36.999Z</time></trkpt><trkpt lat="45.89737082797087" lon="12.079613701335456"><ele>181.0</ele><time>2026-04-25T06:50:38.999Z</time></trkpt><trkpt lat="45.897467436036635" lon="12.079574073000545"><ele>181.0</ele><time>2026-04-25T06:50:40.999Z</time></trkpt><trkpt lat="45.897553916858044" lon="12.079525098688405"><ele>181.0</ele><time>2026-04-25T06:50:42.999Z</time></trkpt><trkpt lat="45.89763160598863" lon="12.079486980627452"><ele>181.0</ele><time>2026-04-25T06:50:44.999Z</time></trkpt><trkpt lat="45.897710204338296" lon="12.079443660676482"><ele>179.33333333333334</ele><time>2026-04-25T06:50:46.999Z</time></trkpt><trkpt lat="45.89779098752587" lon="12.079408666467039"><ele>177.66666666666669</ele><time>2026-04-25T06:50:48.998Z</time></trkpt><trkpt lat="45.89786898426425" lon="12.079369477313337"><ele>176.0</ele><time>2026-04-25T06:50:50.998Z</time></trkpt><trkpt lat="45.89794604454126" lon="12.07932862094371"><ele>174.33333333333334</ele><time>2026-04-25T06:50:52.998Z</time></trkpt><trkpt lat="45.89802928945953" lon="12.079276506958376"><ele>172.66666666666666</ele><time>2026-04-25T06:50:54.998Z</time></trkpt><trkpt lat="45.898107234797834" lon="12.079220234352567"><ele>171.0</ele><time>2026-04-25T06:50:56.998Z</time></trkpt><trkpt lat="45.89818843492733" lon="12.079169643462313"><ele>171.0</ele><time>2026-04-25T06:50:58.998Z</time></trkpt><trkpt lat="45.89827117142795" lon="12.079128299335352"><ele>171.0</ele><time>2026-04-25T06:51:00.998Z</time></trkpt><trkpt lat="45.89835024697983" lon="12.079082306782212"><ele>171.0</ele><time>2026-04-25T06:51:02.998Z</time></trkpt><trkpt lat="45.89842995764821" lon="12.079053905371344"><ele>171.0</ele><time>2026-04-25T06:51:04.998Z</time></trkpt><trkpt lat="45.89850821896391" lon="12.079048146960584"><ele>171.0</ele><time>2026-04-25T06:51:06.998Z</time></trkpt><trkpt lat="45.8985783643576" lon="12.079038303607593"><ele>171.0</ele><time>2026-04-25T06:51:08.998Z</time></trkpt><trkpt lat="45.898630124806026" lon="12.078946840071746"><ele>172.5</ele><time>2026-04-25T06:51:11.998Z</time></trkpt><trkpt lat="45.898598672347475" lon="12.078849190129125"><ele>174.0</ele><time>2026-04-25T06:51:14.998Z</time></trkpt><trkpt lat="45.89857511586967" lon="12.078737637985128"><ele>175.5</ele><time>2026-04-25T06:51:17.998Z</time></trkpt><trkpt lat="45.898535317572176" lon="12.07863017203272"><ele>177.0</ele><time>2026-04-25T06:51:20.998Z</time></trkpt><trkpt lat="45.898494692930704" lon="12.078526197685662"><ele>178.5</ele><time>2026-04-25T06:51:23.998Z</time></trkpt><trkpt lat="45.89844218670948" lon="12.078420888634964"><ele>180.0</ele><time>2026-04-25T06:51:26.998Z</time></trkpt><trkpt lat="45.89838563164452" lon="12.078313732709416"><ele>181.66666666666666</ele><time>2026-04-25T06:51:29.998Z</time></trkpt><trkpt lat="45.898329854226915" lon="12.078214923776846"><ele>183.33333333333334</ele><time>2026-04-25T06:51:32.998Z</time></trkpt><trkpt lat="45.89827288882681" lon="12.078115714226428"><ele>185.0</ele><time>2026-04-25T06:51:35.997Z</time></trkpt><trkpt lat="45.898204257581625" lon="12.078048308756236"><ele>186.66666666666669</ele><time>2026-04-25T06:51:39Z</time></trkpt><trkpt lat="45.898136168546046" lon="12.077976557679985"><ele>188.33333333333334</ele><time>2026-04-25T06:51:42Z</time></trkpt><trkpt lat="45.89807363605152" lon="12.077911249707457"><ele>190.0</ele><time>2026-04-25T06:51:45Z</time></trkpt><trkpt lat="45.89801355482558" lon="12.077834217251077"><ele>190.0</ele><time>2026-04-25T06:51:48Z</time></trkpt><trkpt lat="45.89794940539308" lon="12.077746479584173"><ele>190.0</ele><time>2026-04-25T06:51:51Z</time></trkpt><trkpt lat="45.8978999569419" lon="12.077672965175271"><ele>190.0</ele><time>2026-04-25T06:51:53Z</time></trkpt><trkpt lat="45.89785066286734" lon="12.077586778732877"><ele>190.0</ele><time>2026-04-25T06:51:55Z</time></trkpt><trkpt lat="45.89780320759517" lon="12.077491431467955"><ele>190.0</ele><time>2026-04-25T06:51:57Z</time></trkpt><trkpt lat="45.89776747627592" lon="12.07739665907197"><ele>190.0</ele><time>2026-04-25T06:51:59Z</time></trkpt><trkpt lat="45.89772669067077" lon="12.07729575505654"><ele>189.5</ele><time>2026-04-25T06:52:01Z</time></trkpt><trkpt lat="45.8976910151626" lon="12.077188120370916"><ele>189.0</ele><time>2026-04-25T06:52:03Z</time></trkpt><trkpt lat="45.89764445733748" lon="12.077082117643272"><ele>188.5</ele><time>2026-04-25T06:52:05Z</time></trkpt><trkpt lat="45.89759688986344" lon="12.076988189740055"><ele>188.0</ele><time>2026-04-25T06:52:07Z</time></trkpt><trkpt lat="45.89755874863983" lon="12.076914820364564"><ele>187.5</ele><time>2026-04-25T06:52:09Z</time></trkpt><trkpt lat="45.897522777650394" lon="12.076826772723525"><ele>187.0</ele><time>2026-04-25T06:52:12Z</time></trkpt><trkpt lat="45.897486384313524" lon="12.076721887437213"><ele>187.0</ele><time>2026-04-25T06:52:16Z</time></trkpt><trkpt lat="45.89746226684247" lon="12.076616224471655"><ele>187.0</ele><time>2026-04-25T06:52:19.999Z</time></trkpt><trkpt lat="45.89743939944292" lon="12.076510058252815"><ele>187.0</ele><time>2026-04-25T06:52:23.999Z</time></trkpt><trkpt lat="45.89742498618723" lon="12.076398798001108"><ele>187.0</ele><time>2026-04-25T06:52:27.999Z</time></trkpt><trkpt lat="45.89741734269276" lon="12.076297751244304"><ele>187.0</ele><time>2026-04-25T06:52:31.999Z</time></trkpt><trkpt lat="45.897416145414" lon="12.076203129957745"><ele>187.0</ele><time>2026-04-25T06:52:35.999Z</time></trkpt><trkpt lat="45.89741574380473" lon="12.076101738155046"><ele>187.0</ele><time>2026-04-25T06:52:39.999Z</time></trkpt><trkpt lat="45.89742120632052" lon="12.075991599282876"><ele>187.7142857142857</ele><time>2026-04-25T06:52:44.999Z</time></trkpt><trkpt lat="45.89742285346668" lon="12.075890834561205"><ele>188.42857142857144</ele><time>2026-04-25T06:52:48.999Z</time></trkpt><trkpt lat="45.89740783696927" lon="12.075789611104156"><ele>189.14285714285714</ele><time>2026-04-25T06:52:52.999Z</time></trkpt><trkpt lat="45.897393878648806" lon="12.07568929285104"><ele>189.85714285714283</ele><time>2026-04-25T06:52:56.999Z</time></trkpt><trkpt lat="45.89738128378676" lon="12.075600538867965"><ele>190.57142857142856</ele><time>2026-04-25T06:52:59.999Z</time></trkpt><trkpt lat="45.89738447785561" lon="12.075498692826047"><ele>191.28571428571428</ele><time>2026-04-25T06:53:02.999Z</time></trkpt><trkpt lat="45.8973757037781" lon="12.07538689411281"><ele>192.0</ele><time>2026-04-25T06:53:05.998Z</time></trkpt><trkpt lat="45.897367129251045" lon="12.075274712073524"><ele>192.85714285714283</ele><time>2026-04-25T06:53:08.998Z</time></trkpt><trkpt lat="45.897365941604335" lon="12.07516679648868"><ele>193.71428571428572</ele><time>2026-04-25T06:53:11.998Z</time></trkpt><trkpt lat="45.89736337147455" lon="12.075061681393363"><ele>194.57142857142856</ele><time>2026-04-25T06:53:14.998Z</time></trkpt><trkpt lat="45.89736955607295" lon="12.074958282191242"><ele>195.42857142857142</ele><time>2026-04-25T06:53:17.998Z</time></trkpt><trkpt lat="45.89737204986837" lon="12.074855224921885"><ele>196.28571428571428</ele><time>2026-04-25T06:53:20.998Z</time></trkpt><trkpt lat="45.89737294735462" lon="12.074758898648279"><ele>197.14285714285714</ele><time>2026-04-25T06:53:23.998Z</time></trkpt><trkpt lat="45.89736587778439" lon="12.074642240726838"><ele>198.0</ele><time>2026-04-25T06:53:27.998Z</time></trkpt><trkpt lat="45.89734117763726" lon="12.07453794256994"><ele>199.5</ele><time>2026-04-25T06:53:31.998Z</time></trkpt><trkpt lat="45.89731840038501" lon="12.074435060491718"><ele>201.0</ele><time>2026-04-25T06:53:35.998Z</time></trkpt><trkpt lat="45.89729379917065" lon="12.074334392419214"><ele>202.5</ele><time>2026-04-25T06:53:39.998Z</time></trkpt><trkpt lat="45.897293129422685" lon="12.074218143116319"><ele>204.0</ele><time>2026-04-25T06:53:44Z</time></trkpt><trkpt lat="45.8973102537082" lon="12.074108447604528"><ele>205.5</ele><time>2026-04-25T06:53:48Z</time></trkpt><trkpt lat="45.89731718811589" lon="12.073987753503065"><ele>207.0</ele><time>2026-04-25T06:53:52Z</time></trkpt><trkpt lat="45.897327940110536" lon="12.073873323063479"><ele>207.71428571428572</ele><time>2026-04-25T06:53:56Z</time></trkpt><trkpt lat="45.897333221779704" lon="12.073773826142645"><ele>208.42857142857144</ele><time>2026-04-25T06:54:00Z</time></trkpt><trkpt lat="45.897338230404245" lon="12.073661280640023"><ele>209.14285714285717</ele><time>2026-04-25T06:54:05Z</time></trkpt><trkpt lat="45.89735385992816" lon="12.073570489139879"><ele>209.85714285714286</ele><time>2026-04-25T06:54:09Z</time></trkpt><trkpt lat="45.8973818794182" lon="12.073482077641808"><ele>210.57142857142856</ele><time>2026-04-25T06:54:13Z</time></trkpt><trkpt lat="45.897405222970676" lon="12.073383340415958"><ele>211.2857142857143</ele><time>2026-04-25T06:54:16Z</time></trkpt><trkpt lat="45.89740412002777" lon="12.073271682740986"><ele>212.0</ele><time>2026-04-25T06:54:19Z</time></trkpt><trkpt lat="45.897350815799044" lon="12.073177409181321"><ele>212.66666666666669</ele><time>2026-04-25T06:54:22Z</time></trkpt><trkpt lat="45.89730563811482" lon="12.073069013090485"><ele>213.33333333333334</ele><time>2026-04-25T06:54:25Z</time></trkpt><trkpt lat="45.8972948518444" lon="12.072948759774714"><ele>214.0</ele><time>2026-04-25T06:54:28Z</time></trkpt><trkpt lat="45.89726819365678" lon="12.07285351097028"><ele>214.66666666666669</ele><time>2026-04-25T06:54:31Z</time></trkpt><trkpt lat="45.89722395729889" lon="12.072768687208532"><ele>215.33333333333334</ele><time>2026-04-25T06:54:34Z</time></trkpt><trkpt lat="45.89717813651926" lon="12.072696646898224"><ele>216.0</ele><time>2026-04-25T06:54:37Z</time></trkpt><trkpt lat="45.89712651896601" lon="12.072622651660316"><ele>216.0</ele><time>2026-04-25T06:54:39.999Z</time></trkpt><trkpt lat="45.897079373030266" lon="12.072557054006523"><ele>216.0</ele><time>2026-04-25T06:54:42.999Z</time></trkpt><trkpt lat="45.89703308357166" lon="12.072495058936212"><ele>216.0</ele><time>2026-04-25T06:54:45.999Z</time></trkpt><trkpt lat="45.89697910234367" lon="12.072417328263915"><ele>216.0</ele><time>2026-04-25T06:54:49.999Z</time></trkpt><trkpt lat="45.89692366879086" lon="12.072350538230584"><ele>216.0</ele><time>2026-04-25T06:54:53.999Z</time></trkpt><trkpt lat="45.896870171364355" lon="12.07229210919985"><ele>216.0</ele><time>2026-04-25T06:54:57.999Z</time></trkpt><trkpt lat="45.896825595099756" lon="12.072219919502658"><ele>216.0</ele><time>2026-04-25T06:55:01.999Z</time></trkpt><trkpt lat="45.89679527749379" lon="12.072134967012417"><ele>218.5</ele><time>2026-04-25T06:55:05.999Z</time></trkpt><trkpt lat="45.896780114059574" lon="12.072037038075296"><ele>221.0</ele><time>2026-04-25T06:55:09.999Z</time></trkpt><trkpt lat="45.89676507791776" lon="12.071932784622055"><ele>223.5</ele><time>2026-04-25T06:55:13.999Z</time></trkpt><trkpt lat="45.896757029881286" lon="12.071842293974171"><ele>226.0</ele><time>2026-04-25T06:55:16.999Z</time></trkpt><trkpt lat="45.8967563689665" lon="12.071742404560789"><ele>228.5</ele><time>2026-04-25T06:55:18.999Z</time></trkpt><trkpt lat="45.89677333577214" lon="12.071631385359403"><ele>231.0</ele><time>2026-04-25T06:55:20.999Z</time></trkpt><trkpt lat="45.89679576391423" lon="12.07149863373002"><ele>231.66666666666666</ele><time>2026-04-25T06:55:23.999Z</time></trkpt><trkpt lat="45.89681797320633" lon="12.071367528115651"><ele>232.33333333333331</ele><time>2026-04-25T06:55:26.998Z</time></trkpt><trkpt lat="45.89683432167832" lon="12.071264520586974"><ele>233.0</ele><time>2026-04-25T06:55:28.998Z</time></trkpt><trkpt lat="45.89684989394489" lon="12.071160253196016"><ele>233.66666666666666</ele><time>2026-04-25T06:55:30.998Z</time></trkpt><trkpt lat="45.89687193006386" lon="12.071070017021144"><ele>234.33333333333331</ele><time>2026-04-25T06:55:32.998Z</time></trkpt><trkpt lat="45.89689753452468" lon="12.070946085956345"><ele>235.0</ele><time>2026-04-25T06:55:44.997Z</time></trkpt><trkpt lat="45.89692593590948" lon="12.070864945201217"><ele>234.66666666666666</ele><time>2026-04-25T06:56:18.999Z</time></trkpt><trkpt lat="45.89692622883646" lon="12.070738489922894"><ele>234.33333333333331</ele><time>2026-04-25T06:56:22.999Z</time></trkpt><trkpt lat="45.89692300467178" lon="12.070639572517464"><ele>234.0</ele><time>2026-04-25T06:56:24.999Z</time></trkpt><trkpt lat="45.89687281544083" lon="12.07054865472899"><ele>233.66666666666669</ele><time>2026-04-25T06:56:26.999Z</time></trkpt><trkpt lat="45.89683149188207" lon="12.070477207746343"><ele>233.33333333333334</ele><time>2026-04-25T06:56:28.999Z</time></trkpt><trkpt lat="45.896808434741004" lon="12.07037223438302"><ele>233.0</ele><time>2026-04-25T06:56:33.999Z</time></trkpt><trkpt lat="45.896813896945545" lon="12.070260807723457"><ele>233.0</ele><time>2026-04-25T06:56:38.999Z</time></trkpt><trkpt lat="45.89685226670755" lon="12.070163634656458"><ele>233.0</ele><time>2026-04-25T06:56:42.999Z</time></trkpt><trkpt lat="45.896902378795765" lon="12.070079787602545"><ele>233.0</ele><time>2026-04-25T06:56:45.999Z</time></trkpt><trkpt lat="45.89696242183201" lon="12.070004709183635"><ele>233.0</ele><time>2026-04-25T06:56:48.999Z</time></trkpt><trkpt lat="45.89701721462335" lon="12.0699589528265"><ele>233.0</ele><time>2026-04-25T06:56:50.999Z</time></trkpt><trkpt lat="45.897057148035046" lon="12.069876598112478"><ele>233.0</ele><time>2026-04-25T06:56:52.999Z</time></trkpt><trkpt lat="45.897074248798575" lon="12.069764589941261"><ele>233.0</ele><time>2026-04-25T06:56:54.999Z</time></trkpt><trkpt lat="45.897035425323885" lon="12.0696689611069"><ele>233.0</ele><time>2026-04-25T06:56:56.998Z</time></trkpt><trkpt lat="45.89697048420741" lon="12.06960761264601"><ele>233.0</ele><time>2026-04-25T06:56:58.998Z</time></trkpt><trkpt lat="45.896914969722175" lon="12.069509933765499"><ele>233.0</ele><time>2026-04-25T06:57:01.998Z</time></trkpt><trkpt lat="45.89688299909139" lon="12.069406009503735"><ele>233.0</ele><time>2026-04-25T06:57:03.998Z</time></trkpt><trkpt lat="45.89687233799156" lon="12.069253323995364"><ele>233.0</ele><time>2026-04-25T06:57:05.998Z</time></trkpt><trkpt lat="45.89679559136709" lon="12.069117634276864"><ele>231.50000000000003</ele><time>2026-04-25T06:57:07.998Z</time></trkpt><trkpt lat="45.896727569724405" lon="12.069044094769078"><ele>230.0</ele><time>2026-04-25T06:57:09.998Z</time></trkpt><trkpt lat="45.8966598530578" lon="12.068961189028379"><ele>228.5</ele><time>2026-04-25T06:57:12.998Z</time></trkpt><trkpt lat="45.89660677787839" lon="12.06888726480974"><ele>227.0</ele><time>2026-04-25T06:57:15.998Z</time></trkpt><trkpt lat="45.89656060642832" lon="12.068804440587733"><ele>225.50000000000003</ele><time>2026-04-25T06:57:18.998Z</time></trkpt><trkpt lat="45.89653184978517" lon="12.06872144285248"><ele>224.0</ele><time>2026-04-25T06:57:21.998Z</time></trkpt><trkpt lat="45.8965388488714" lon="12.068618547753566"><ele>224.00000000000003</ele><time>2026-04-25T06:57:26.998Z</time></trkpt><trkpt lat="45.89653117588469" lon="12.068512958160335"><ele>224.0</ele><time>2026-04-25T06:57:30.998Z</time></trkpt><trkpt lat="45.89650053492558" lon="12.06842648154036"><ele>224.0</ele><time>2026-04-25T06:57:33.998Z</time></trkpt><trkpt lat="45.89646022413235" lon="12.068325520024636"><ele>224.0</ele><time>2026-04-25T06:57:38.998Z</time></trkpt><trkpt lat="45.89641752808391" lon="12.068235987421723"><ele>224.00000000000003</ele><time>2026-04-25T06:57:43.997Z</time></trkpt><trkpt lat="45.89641128271433" lon="12.068142083117346"><ele>224.0</ele><time>2026-04-25T06:57:52.997Z</time></trkpt><trkpt lat="45.89651073327658" lon="12.068088475710573"><ele>222.39999999999998</ele><time>2026-04-25T06:57:53.997Z</time></trkpt><trkpt lat="45.8964182656603" lon="12.067868013101808"><ele>220.79999999999998</ele><time>2026-04-25T06:58:07Z</time></trkpt><trkpt lat="45.89636443308692" lon="12.067784407876431"><ele>219.20000000000002</ele><time>2026-04-25T06:58:10Z</time></trkpt><trkpt lat="45.89629207290927" lon="12.067698656800578"><ele>217.60000000000002</ele><time>2026-04-25T06:58:13Z</time></trkpt><trkpt lat="45.89622028258396" lon="12.067644111566631"><ele>216.0</ele><time>2026-04-25T06:58:16Z</time></trkpt><trkpt lat="45.89616596048678" lon="12.067565480901164"><ele>216.0</ele><time>2026-04-25T06:58:20Z</time></trkpt><trkpt lat="45.8961169860369" lon="12.067474932121128"><ele>216.0</ele><time>2026-04-25T06:58:24Z</time></trkpt><trkpt lat="45.896074738564494" lon="12.067365443041966"><ele>216.0</ele><time>2026-04-25T06:58:28Z</time></trkpt><trkpt lat="45.89604054181565" lon="12.067286211853421"><ele>216.0</ele><time>2026-04-25T06:58:30.999Z</time></trkpt><trkpt lat="45.89603081313255" lon="12.067191021012189"><ele>216.0</ele><time>2026-04-25T06:58:42.999Z</time></trkpt><trkpt lat="45.89603077700342" lon="12.067081716781665"><ele>216.0</ele><time>2026-04-25T06:58:47.999Z</time></trkpt><trkpt lat="45.896017020954346" lon="12.066978468322487"><ele>216.0</ele><time>2026-04-25T06:58:52.999Z</time></trkpt><trkpt lat="45.89600544357446" lon="12.066883255433861"><ele>213.71428571428572</ele><time>2026-04-25T06:58:57.999Z</time></trkpt><trkpt lat="45.89599867810154" lon="12.066786293960105"><ele>211.42857142857142</ele><time>2026-04-25T06:59:02.999Z</time></trkpt><trkpt lat="45.89599288327149" lon="12.066683032351008"><ele>209.14285714285717</ele><time>2026-04-25T06:59:07.999Z</time></trkpt><trkpt lat="45.89597078623071" lon="12.06659176621179"><ele>206.85714285714286</ele><time>2026-04-25T06:59:18.998Z</time></trkpt><trkpt lat="45.895927251807805" lon="12.06650923323531"><ele>204.57142857142858</ele><time>2026-04-25T06:59:24.998Z</time></trkpt><trkpt lat="45.895880787128085" lon="12.066423421581105"><ele>202.2857142857143</ele><time>2026-04-25T06:59:30.998Z</time></trkpt><trkpt lat="45.895820867691306" lon="12.066337302108229"><ele>200.0</ele><time>2026-04-25T06:59:40.998Z</time></trkpt><trkpt lat="45.89575755193813" lon="12.066275542961959"><ele>198.33333333333334</ele><time>2026-04-25T06:59:42.998Z</time></trkpt><trkpt lat="45.895689853971696" lon="12.066359044542118"><ele>196.66666666666669</ele><time>2026-04-25T06:59:45.998Z</time></trkpt><trkpt lat="45.89564983678711" lon="12.066445259091479"><ele>195.0</ele><time>2026-04-25T06:59:47.998Z</time></trkpt><trkpt lat="45.895568250734996" lon="12.06649372368002"><ele>193.33333333333334</ele><time>2026-04-25T06:59:49.998Z</time></trkpt><trkpt lat="45.895482933454645" lon="12.066544178041509"><ele>191.66666666666669</ele><time>2026-04-25T06:59:51.998Z</time></trkpt><trkpt lat="45.895393593835216" lon="12.066613846468618"><ele>190.0</ele><time>2026-04-25T06:59:53.998Z</time></trkpt><trkpt lat="45.895283183852676" lon="12.066669565966059"><ele>190.0</ele><time>2026-04-25T06:59:55.998Z</time></trkpt><trkpt lat="45.8952044951988" lon="12.066651332819118"><ele>190.0</ele><time>2026-04-25T06:59:56.998Z</time></trkpt><trkpt lat="45.89512843985048" lon="12.066682850734452"><ele>190.0</ele><time>2026-04-25T06:59:57.997Z</time></trkpt><trkpt lat="45.895055793488446" lon="12.066711058426431"><ele>190.0</ele><time>2026-04-25T06:59:58.997Z</time></trkpt><trkpt lat="45.89497028901201" lon="12.066742585095556"><ele>190.0</ele><time>2026-04-25T06:59:59.997Z</time></trkpt><trkpt lat="45.894887802904094" lon="12.066771575458201"><ele>190.0</ele><time>2026-04-25T07:00:00.997Z</time></trkpt><trkpt lat="45.89480095498765" lon="12.06680209888107"><ele>189.66666666666669</ele><time>2026-04-25T07:00:02Z</time></trkpt><trkpt lat="45.89471383306033" lon="12.06683272981466"><ele>189.33333333333334</ele><time>2026-04-25T07:00:03Z</time></trkpt><trkpt lat="45.89463260544396" lon="12.066879195897107"><ele>189.0</ele><time>2026-04-25T07:00:04Z</time></trkpt><trkpt lat="45.89455164437399" lon="12.06689338381492"><ele>188.66666666666666</ele><time>2026-04-25T07:00:05Z</time></trkpt><trkpt lat="45.89447148832026" lon="12.066918177264856"><ele>188.33333333333331</ele><time>2026-04-25T07:00:06Z</time></trkpt><trkpt lat="45.89439901121243" lon="12.066951425177923"><ele>188.0</ele><time>2026-04-25T07:00:07Z</time></trkpt><trkpt lat="45.894328774659165" lon="12.06697039736786"><ele>188.28571428571428</ele><time>2026-04-25T07:00:08Z</time></trkpt><trkpt lat="45.89425090134906" lon="12.06701564439795"><ele>188.57142857142856</ele><time>2026-04-25T07:00:09Z</time></trkpt><trkpt lat="45.894177669797784" lon="12.067017161777608"><ele>188.85714285714286</ele><time>2026-04-25T07:00:10Z</time></trkpt><trkpt lat="45.894108561758024" lon="12.067032631025137"><ele>189.14285714285714</ele><time>2026-04-25T07:00:11Z</time></trkpt><trkpt lat="45.894039106592025" lon="12.067043040031278"><ele>189.42857142857144</ele><time>2026-04-25T07:00:12Z</time></trkpt><trkpt lat="45.893969265064726" lon="12.067051415755234"><ele>189.71428571428572</ele><time>2026-04-25T07:00:13Z</time></trkpt><trkpt lat="45.893905349258986" lon="12.067059281142798"><ele>190.0</ele><time>2026-04-25T07:00:14Z</time></trkpt><trkpt lat="45.89384228451647" lon="12.067067041795973"><ele>190.0</ele><time>2026-04-25T07:00:15Z</time></trkpt><trkpt lat="45.89372294470792" lon="12.0670836853115"><ele>190.0</ele><time>2026-04-25T07:00:17Z</time></trkpt><trkpt lat="45.89360933423077" lon="12.06710211355417"><ele>190.0</ele><time>2026-04-25T07:00:19Z</time></trkpt><trkpt lat="45.8934974344482" lon="12.067121112200978"><ele>190.0</ele><time>2026-04-25T07:00:21Z</time></trkpt><trkpt lat="45.893391121392526" lon="12.067144592143162"><ele>190.0</ele><time>2026-04-25T07:00:23Z</time></trkpt><trkpt lat="45.89328467425873" lon="12.067140882729623"><ele>190.0</ele><time>2026-04-25T07:00:25Z</time></trkpt><trkpt lat="45.89316616158473" lon="12.067121099910919"><ele>190.0</ele><time>2026-04-25T07:00:27Z</time></trkpt><trkpt lat="45.89304725442982" lon="12.067104863867842"><ele>190.0</ele><time>2026-04-25T07:00:29Z</time></trkpt><trkpt lat="45.89292812233948" lon="12.067092602572814"><ele>190.0</ele><time>2026-04-25T07:00:31Z</time></trkpt><trkpt lat="45.89280876204277" lon="12.067083851312342"><ele>190.0</ele><time>2026-04-25T07:00:33Z</time></trkpt><trkpt lat="45.89269299252255" lon="12.067082091261673"><ele>190.0</ele><time>2026-04-25T07:00:35Z</time></trkpt><trkpt lat="45.89257432908947" lon="12.067087111641587"><ele>190.0</ele><time>2026-04-25T07:00:37Z</time></trkpt><trkpt lat="45.89246031714093" lon="12.067093854337159"><ele>189.4</ele><time>2026-04-25T07:00:39Z</time></trkpt><trkpt lat="45.89239706308244" lon="12.067106383051806"><ele>188.8</ele><time>2026-04-25T07:00:40Z</time></trkpt><trkpt lat="45.89228654416789" lon="12.06714810322533"><ele>188.2</ele><time>2026-04-25T07:00:42Z</time></trkpt><trkpt lat="45.892181368329105" lon="12.067173068818052"><ele>187.6</ele><time>2026-04-25T07:00:44Z</time></trkpt><trkpt lat="45.892064323499724" lon="12.067186426513892"><ele>187.0</ele><time>2026-04-25T07:00:45.999Z</time></trkpt><trkpt lat="45.89196524789961" lon="12.067200731642592"><ele>187.0</ele><time>2026-04-25T07:00:47.999Z</time></trkpt><trkpt lat="45.891870148298736" lon="12.067218582894943"><ele>187.0</ele><time>2026-04-25T07:00:49.999Z</time></trkpt><trkpt lat="45.89177757024533" lon="12.067223771475126"><ele>187.0</ele><time>2026-04-25T07:00:51.999Z</time></trkpt><trkpt lat="45.89170580945009" lon="12.067226891468632"><ele>187.0</ele><time>2026-04-25T07:00:53.999Z</time></trkpt><trkpt lat="45.89163531267799" lon="12.067264762204882"><ele>187.0</ele><time>2026-04-25T07:00:56.999Z</time></trkpt><trkpt lat="45.8915541556375" lon="12.067208734956377"><ele>187.0</ele><time>2026-04-25T07:01:09.999Z</time></trkpt><trkpt lat="45.891507222495605" lon="12.067276132597998"><ele>181.0</ele><time>2026-04-25T07:01:12.999Z</time></trkpt><trkpt lat="45.89142789311734" lon="12.067306163490558"><ele>175.0</ele><time>2026-04-25T07:01:15.999Z</time></trkpt><trkpt lat="45.891326138543484" lon="12.06696607888314"><ele>169.0</ele><time>2026-04-25T07:01:16.999Z</time></trkpt><trkpt lat="45.891240874643984" lon="12.066857546306434"><ele>169.0</ele><time>2026-04-25T07:01:18.999Z</time></trkpt><trkpt lat="45.89123996525522" lon="12.066697339401397"><ele>169.0</ele><time>2026-04-25T07:01:20.999Z</time></trkpt><trkpt lat="45.891226297456825" lon="12.066546598887813"><ele>169.0</ele><time>2026-04-25T07:01:22.999Z</time></trkpt><trkpt lat="45.891208601688376" lon="12.066385443980737"><ele>169.0</ele><time>2026-04-25T07:01:24.999Z</time></trkpt><trkpt lat="45.89119178467688" lon="12.066218757791605"><ele>169.0</ele><time>2026-04-25T07:01:26.999Z</time></trkpt><trkpt lat="45.89117771294574" lon="12.066050103818139"><ele>169.2</ele><time>2026-04-25T07:01:28.998Z</time></trkpt><trkpt lat="45.891160312052826" lon="12.065886292754257"><ele>169.39999999999998</ele><time>2026-04-25T07:01:30.998Z</time></trkpt><trkpt lat="45.891147142316015" lon="12.065723671610954"><ele>169.6</ele><time>2026-04-25T07:01:32.998Z</time></trkpt><trkpt lat="45.89116403213992" lon="12.065578090299711"><ele>169.8</ele><time>2026-04-25T07:01:34.998Z</time></trkpt><trkpt lat="45.89119473613859" lon="12.065444090561884"><ele>170.0</ele><time>2026-04-25T07:01:36.998Z</time></trkpt><trkpt lat="45.891212503705006" lon="12.06532041843775"><ele>170.0</ele><time>2026-04-25T07:01:38.998Z</time></trkpt><trkpt lat="45.891235841091294" lon="12.065204154421584"><ele>170.0</ele><time>2026-04-25T07:01:40.998Z</time></trkpt><trkpt lat="45.89126593130362" lon="12.065095697505466"><ele>170.0</ele><time>2026-04-25T07:01:42.998Z</time></trkpt><trkpt lat="45.89130095523484" lon="12.065006470403674"><ele>170.0</ele><time>2026-04-25T07:01:44.998Z</time></trkpt><trkpt lat="45.89135387938922" lon="12.06493934621216"><ele>170.0</ele><time>2026-04-25T07:01:46.998Z</time></trkpt><trkpt lat="45.891413155619674" lon="12.064894324115462"><ele>170.0</ele><time>2026-04-25T07:01:48.998Z</time></trkpt><trkpt lat="45.8914872190579" lon="12.064879685208089"><ele>170.0</ele><time>2026-04-25T07:01:50.998Z</time></trkpt><trkpt lat="45.89154570892552" lon="12.064829344203236"><ele>171.42857142857144</ele><time>2026-04-25T07:01:52.998Z</time></trkpt><trkpt lat="45.89160183835801" lon="12.064782619794324"><ele>172.85714285714283</ele><time>2026-04-25T07:01:54.998Z</time></trkpt><trkpt lat="45.89166024955567" lon="12.064738519613424"><ele>174.28571428571428</ele><time>2026-04-25T07:01:56.998Z</time></trkpt><trkpt lat="45.89171896355187" lon="12.064701666629478"><ele>175.71428571428572</ele><time>2026-04-25T07:01:58.998Z</time></trkpt><trkpt lat="45.89177833539719" lon="12.064659510349134"><ele>177.14285714285717</ele><time>2026-04-25T07:02:00.998Z</time></trkpt><trkpt lat="45.89183695606008" lon="12.064606403490718"><ele>178.57142857142856</ele><time>2026-04-25T07:02:02.998Z</time></trkpt><trkpt lat="45.89189148418609" lon="12.064525124132205"><ele>180.0</ele><time>2026-04-25T07:02:04.998Z</time></trkpt><trkpt lat="45.89192555207689" lon="12.064424129013299"><ele>179.85714285714286</ele><time>2026-04-25T07:02:06.998Z</time></trkpt><trkpt lat="45.89194762979279" lon="12.064312472759134"><ele>179.71428571428572</ele><time>2026-04-25T07:02:09Z</time></trkpt><trkpt lat="45.891961591230114" lon="12.064208131087323"><ele>179.57142857142858</ele><time>2026-04-25T07:02:11Z</time></trkpt><trkpt lat="45.89196718394878" lon="12.064099234461565"><ele>179.42857142857144</ele><time>2026-04-25T07:02:13Z</time></trkpt><trkpt lat="45.891967191891325" lon="12.063998160867046"><ele>179.28571428571428</ele><time>2026-04-25T07:02:15Z</time></trkpt><trkpt lat="45.891969774955975" lon="12.063898666811193"><ele>179.14285714285717</ele><time>2026-04-25T07:02:17Z</time></trkpt><trkpt lat="45.89198008698071" lon="12.063805758471714"><ele>179.0</ele><time>2026-04-25T07:02:19Z</time></trkpt><trkpt lat="45.8920102067723" lon="12.063681645180562"><ele>179.0</ele><time>2026-04-25T07:02:22Z</time></trkpt><trkpt lat="45.892054865785624" lon="12.063582856444695"><ele>179.0</ele><time>2026-04-25T07:02:25Z</time></trkpt><trkpt lat="45.892102210354146" lon="12.063470607722788"><ele>179.0</ele><time>2026-04-25T07:02:28Z</time></trkpt><trkpt lat="45.8921180578343" lon="12.06333649038675"><ele>179.0</ele><time>2026-04-25T07:02:31Z</time></trkpt><trkpt lat="45.89214609868241" lon="12.063209870116495"><ele>179.0</ele><time>2026-04-25T07:02:34Z</time></trkpt><trkpt lat="45.892172185013266" lon="12.063093288260617"><ele>179.0</ele><time>2026-04-25T07:02:37Z</time></trkpt><trkpt lat="45.892221045911924" lon="12.062990123676704"><ele>179.00000000000003</ele><time>2026-04-25T07:02:40Z</time></trkpt><trkpt lat="45.89224405118432" lon="12.062877728287116"><ele>179.0</ele><time>2026-04-25T07:02:43Z</time></trkpt><trkpt lat="45.892256669311394" lon="12.062783314374608"><ele>179.0</ele><time>2026-04-25T07:02:47Z</time></trkpt><trkpt lat="45.89226521821867" lon="12.0626919622466"><ele>179.0</ele><time>2026-04-25T07:02:51Z</time></trkpt><trkpt lat="45.89227390333655" lon="12.062598185117263"><ele>179.0</ele><time>2026-04-25T07:02:55Z</time></trkpt><trkpt lat="45.89228291964689" lon="12.06249594688918"><ele>179.00000000000003</ele><time>2026-04-25T07:02:59.999Z</time></trkpt><trkpt lat="45.89228088948531" lon="12.062385421598933"><ele>179.0</ele><time>2026-04-25T07:03:03.999Z</time></trkpt><trkpt lat="45.892296502184585" lon="12.062292369007638"><ele>180.66666666666666</ele><time>2026-04-25T07:03:07.999Z</time></trkpt><trkpt lat="45.89230703888582" lon="12.062173863365564"><ele>182.33333333333331</ele><time>2026-04-25T07:03:11.999Z</time></trkpt><trkpt lat="45.892313548597684" lon="12.06208294223416"><ele>184.0</ele><time>2026-04-25T07:03:14.999Z</time></trkpt><trkpt lat="45.89231252381562" lon="12.061980530626098"><ele>185.66666666666666</ele><time>2026-04-25T07:03:17.999Z</time></trkpt><trkpt lat="45.89228877610199" lon="12.061867889710916"><ele>187.33333333333334</ele><time>2026-04-25T07:03:21.999Z</time></trkpt><trkpt lat="45.89227524753474" lon="12.061744557460122"><ele>189.0</ele><time>2026-04-25T07:03:25.999Z</time></trkpt><trkpt lat="45.89225446726631" lon="12.061649030105032"><ele>189.57142857142858</ele><time>2026-04-25T07:03:28.999Z</time></trkpt><trkpt lat="45.89224182913192" lon="12.06155297816354"><ele>190.14285714285714</ele><time>2026-04-25T07:03:31.999Z</time></trkpt><trkpt lat="45.892243015184256" lon="12.061452167505832"><ele>190.71428571428572</ele><time>2026-04-25T07:03:34.999Z</time></trkpt><trkpt lat="45.89226058324236" lon="12.06135603260422"><ele>191.28571428571428</ele><time>2026-04-25T07:03:37.999Z</time></trkpt><trkpt lat="45.892288127297334" lon="12.061261885657474"><ele>191.85714285714286</ele><time>2026-04-25T07:03:40.999Z</time></trkpt><trkpt lat="45.892311201073184" lon="12.06116375860091"><ele>192.42857142857144</ele><time>2026-04-25T07:03:43.998Z</time></trkpt><trkpt lat="45.89231498992852" lon="12.061055572098697"><ele>193.0</ele><time>2026-04-25T07:03:46.997Z</time></trkpt><trkpt lat="45.89231689139319" lon="12.060963856768007"><ele>193.00000000000003</ele><time>2026-04-25T07:03:49.997Z</time></trkpt><trkpt lat="45.89232033834353" lon="12.060855677365248"><ele>193.0</ele><time>2026-04-25T07:03:53.997Z</time></trkpt><trkpt lat="45.89232026886897" lon="12.06075005775942"><ele>193.0</ele><time>2026-04-25T07:03:57.997Z</time></trkpt><trkpt lat="45.89234104849026" lon="12.060661281785181"><ele>193.0</ele><time>2026-04-25T07:04:01.997Z</time></trkpt><trkpt lat="45.89236444940901" lon="12.060565526103113"><ele>193.0</ele><time>2026-04-25T07:04:05.997Z</time></trkpt><trkpt lat="45.89237964282719" lon="12.06047230396241"><ele>193.00000000000003</ele><time>2026-04-25T07:04:09.997Z</time></trkpt><trkpt lat="45.892392568147656" lon="12.06037319255223"><ele>193.0</ele><time>2026-04-25T07:04:12.997Z</time></trkpt><trkpt lat="45.89238721568575" lon="12.060261671255237"><ele>193.42857142857144</ele><time>2026-04-25T07:04:16Z</time></trkpt><trkpt lat="45.892378052268676" lon="12.060158262044443"><ele>193.85714285714286</ele><time>2026-04-25T07:04:19Z</time></trkpt><trkpt lat="45.89235395614856" lon="12.060065870054766"><ele>194.28571428571428</ele><time>2026-04-25T07:04:22Z</time></trkpt><trkpt lat="45.89235758971282" lon="12.059959262237037"><ele>194.71428571428572</ele><time>2026-04-25T07:04:25Z</time></trkpt><trkpt lat="45.8923464695747" lon="12.059851114166008"><ele>195.14285714285714</ele><time>2026-04-25T07:04:28Z</time></trkpt><trkpt lat="45.89229890108837" lon="12.059789716119417"><ele>195.57142857142858</ele><time>2026-04-25T07:04:30Z</time></trkpt><trkpt lat="45.89228550271907" lon="12.059688769960765"><ele>196.0</ele><time>2026-04-25T07:04:32.999Z</time></trkpt><trkpt lat="45.89227879168637" lon="12.059592126336657"><ele>195.99999999999997</ele><time>2026-04-25T07:04:35.999Z</time></trkpt><trkpt lat="45.89227344834815" lon="12.059492488777297"><ele>196.0</ele><time>2026-04-25T07:04:38.999Z</time></trkpt><trkpt lat="45.89227885067941" lon="12.059391787916303"><ele>196.0</ele><time>2026-04-25T07:04:41.999Z</time></trkpt><trkpt lat="45.89229707624923" lon="12.059291177774377"><ele>196.0</ele><time>2026-04-25T07:04:44.999Z</time></trkpt><trkpt lat="45.8923308880805" lon="12.059203490377213"><ele>195.99999999999997</ele><time>2026-04-25T07:04:47.999Z</time></trkpt><trkpt lat="45.892382086488915" lon="12.059090876910526"><ele>196.0</ele><time>2026-04-25T07:04:50.999Z</time></trkpt><trkpt lat="45.892437432845504" lon="12.058990865423715"><ele>196.33333333333331</ele><time>2026-04-25T07:04:52.999Z</time></trkpt><trkpt lat="45.892481446152686" lon="12.058878800047882"><ele>196.66666666666666</ele><time>2026-04-25T07:04:54.999Z</time></trkpt><trkpt lat="45.89251822488597" lon="12.058756716863767"><ele>197.0</ele><time>2026-04-25T07:04:56.999Z</time></trkpt><trkpt lat="45.892541498926505" lon="12.058642862293441"><ele>197.33333333333331</ele><time>2026-04-25T07:04:58.999Z</time></trkpt><trkpt lat="45.89256222748499" lon="12.058546549287703"><ele>197.66666666666666</ele><time>2026-04-25T07:05:00.999Z</time></trkpt><trkpt lat="45.892578755147305" lon="12.058432798692207"><ele>198.0</ele><time>2026-04-25T07:05:03.999Z</time></trkpt><trkpt lat="45.89258872731273" lon="12.058319488058308"><ele>200.0</ele><time>2026-04-25T07:05:07.999Z</time></trkpt><trkpt lat="45.89258903546908" lon="12.058214198009148"><ele>202.0</ele><time>2026-04-25T07:05:11.999Z</time></trkpt><trkpt lat="45.89259501592629" lon="12.058121476347354"><ele>204.0</ele><time>2026-04-25T07:05:16.998Z</time></trkpt><trkpt lat="45.89257772997792" lon="12.058010131406578"><ele>206.0</ele><time>2026-04-25T07:05:20.998Z</time></trkpt><trkpt lat="45.892565330605166" lon="12.057911297026417"><ele>208.0</ele><time>2026-04-25T07:05:24.998Z</time></trkpt><trkpt lat="45.89255655092237" lon="12.057802220669098"><ele>210.0</ele><time>2026-04-25T07:05:29.998Z</time></trkpt><trkpt lat="45.89254845794195" lon="12.057690955024286"><ele>212.0</ele><time>2026-04-25T07:05:34.998Z</time></trkpt><trkpt lat="45.89251960494724" lon="12.057601073466168"><ele>212.0</ele><time>2026-04-25T07:05:38.998Z</time></trkpt><trkpt lat="45.89251847287663" lon="12.05749204804976"><ele>212.0</ele><time>2026-04-25T07:05:43.998Z</time></trkpt><trkpt lat="45.89252422495222" lon="12.05740055001079"><ele>212.0</ele><time>2026-04-25T07:05:47.998Z</time></trkpt><trkpt lat="45.89252199922031" lon="12.057287124342947"><ele>212.0</ele><time>2026-04-25T07:05:52.998Z</time></trkpt><trkpt lat="45.89252534585847" lon="12.057187310466361"><ele>212.0</ele><time>2026-04-25T07:05:56.998Z</time></trkpt><trkpt lat="45.892539862258054" lon="12.057089341579411"><ele>212.0</ele><time>2026-04-25T07:06:00.998Z</time></trkpt><trkpt lat="45.89257454409761" lon="12.056979859822999"><ele>212.0</ele><time>2026-04-25T07:06:04.997Z</time></trkpt><trkpt lat="45.89261308445351" lon="12.056882661414365"><ele>213.42857142857144</ele><time>2026-04-25T07:06:06.997Z</time></trkpt><trkpt lat="45.89265468768707" lon="12.056803845602285"><ele>214.85714285714283</ele><time>2026-04-25T07:06:08.997Z</time></trkpt><trkpt lat="45.892691514590865" lon="12.056712948754647"><ele>216.28571428571428</ele><time>2026-04-25T07:06:10.997Z</time></trkpt><trkpt lat="45.89267241569662" lon="12.056605756088308"><ele>217.71428571428572</ele><time>2026-04-25T07:06:12.997Z</time></trkpt><trkpt lat="45.89262983016399" lon="12.056506153701706"><ele>219.14285714285717</ele><time>2026-04-25T07:06:15.997Z</time></trkpt><trkpt lat="45.89258400382799" lon="12.056438947925038"><ele>220.57142857142856</ele><time>2026-04-25T07:06:19Z</time></trkpt><trkpt lat="45.89254149516868" lon="12.056370567142885"><ele>222.0</ele><time>2026-04-25T07:06:23Z</time></trkpt><trkpt lat="45.8924977498232" lon="12.056297470916835"><ele>222.0</ele><time>2026-04-25T07:06:28Z</time></trkpt><trkpt lat="45.892452816156805" lon="12.056225508143958"><ele>222.0</ele><time>2026-04-25T07:06:33Z</time></trkpt><trkpt lat="45.892413905404936" lon="12.056153067832412"><ele>222.0</ele><time>2026-04-25T07:06:38Z</time></trkpt><trkpt lat="45.89236439093151" lon="12.056087000227249"><ele>222.0</ele><time>2026-04-25T07:06:43Z</time></trkpt><trkpt lat="45.89232216250394" lon="12.055994562107973"><ele>222.0</ele><time>2026-04-25T07:06:48Z</time></trkpt><trkpt lat="45.892286326996896" lon="12.05590181734962"><ele>222.0</ele><time>2026-04-25T07:06:52.999Z</time></trkpt><trkpt lat="45.8922721166217" lon="12.05581180459477"><ele>222.0</ele><time>2026-04-25T07:06:57.999Z</time></trkpt><trkpt lat="45.89228434345682" lon="12.055711299981919"><ele>224.71428571428572</ele><time>2026-04-25T07:07:02.999Z</time></trkpt><trkpt lat="45.892345405805976" lon="12.055674530409572"><ele>227.42857142857144</ele><time>2026-04-25T07:07:06.999Z</time></trkpt><trkpt lat="45.892404750300344" lon="12.055639585305562"><ele>230.14285714285717</ele><time>2026-04-25T07:07:10.999Z</time></trkpt><trkpt lat="45.892478330127226" lon="12.055608950665263"><ele>232.85714285714286</ele><time>2026-04-25T07:07:15.999Z</time></trkpt><trkpt lat="45.89255214096634" lon="12.055613206534314"><ele>235.5714285714286</ele><time>2026-04-25T07:07:20.999Z</time></trkpt><trkpt lat="45.89252626325432" lon="12.05552843121009"><ele>238.2857142857143</ele><time>2026-04-25T07:07:30.999Z</time></trkpt><trkpt lat="45.892460060090144" lon="12.055520385278347"><ele>241.0</ele><time>2026-04-25T07:07:34.998Z</time></trkpt><trkpt lat="45.89239139197105" lon="12.055503648412934"><ele>241.0</ele><time>2026-04-25T07:07:38.998Z</time></trkpt><trkpt lat="45.89233037109708" lon="12.055472041401739"><ele>241.00000000000003</ele><time>2026-04-25T07:07:42.998Z</time></trkpt><trkpt lat="45.892267542816306" lon="12.055428913118341"><ele>241.0</ele><time>2026-04-25T07:07:46.998Z</time></trkpt><trkpt lat="45.892201121510375" lon="12.05538247146262"><ele>241.0</ele><time>2026-04-25T07:07:51.998Z</time></trkpt><trkpt lat="45.89213778151176" lon="12.055334361420705"><ele>241.00000000000003</ele><time>2026-04-25T07:07:56.998Z</time></trkpt><trkpt lat="45.89205940710709" lon="12.055303637763604"><ele>241.0</ele><time>2026-04-25T07:08:01.998Z</time></trkpt><trkpt lat="45.891991323794514" lon="12.055294510473095"><ele>241.0</ele><time>2026-04-25T07:08:05.998Z</time></trkpt><trkpt lat="45.89192725759568" lon="12.055293056913422"><ele>241.0</ele><time>2026-04-25T07:08:09.998Z</time></trkpt><trkpt lat="45.89189045944542" lon="12.055204975696931"><ele>241.00000000000003</ele><time>2026-04-25T07:08:15.998Z</time></trkpt><trkpt lat="45.89195049159243" lon="12.055139893092997"><ele>241.0</ele><time>2026-04-25T07:08:20.997Z</time></trkpt><trkpt lat="45.892010239222635" lon="12.055089782222776"><ele>241.0</ele><time>2026-04-25T07:08:26Z</time></trkpt><trkpt lat="45.8920834063871" lon="12.055079730502941"><ele>241.00000000000003</ele><time>2026-04-25T07:08:31Z</time></trkpt><trkpt lat="45.89214119539094" lon="12.055040439881278"><ele>241.0</ele><time>2026-04-25T07:08:37Z</time></trkpt><trkpt lat="45.892066458796016" lon="12.05502162642449"><ele>241.0</ele><time>2026-04-25T07:08:45Z</time></trkpt><trkpt lat="45.89200445662439" lon="12.054992178124216"><ele>241.0</ele><time>2026-04-25T07:08:51Z</time></trkpt><trkpt lat="45.89193378062716" lon="12.054961186711711"><ele>241.00000000000003</ele><time>2026-04-25T07:08:58Z</time></trkpt><trkpt lat="45.89186699404978" lon="12.05494452430463"><ele>241.0</ele><time>2026-04-25T07:09:03Z</time></trkpt><trkpt lat="45.89179640349617" lon="12.054970508343605"><ele>241.0</ele><time>2026-04-25T07:09:07.999Z</time></trkpt><trkpt lat="45.8917294528987" lon="12.05498109368936"><ele>241.00000000000003</ele><time>2026-04-25T07:09:11.999Z</time></trkpt><trkpt lat="45.89165743899778" lon="12.054990623928767"><ele>241.0</ele><time>2026-04-25T07:09:15.999Z</time></trkpt><trkpt lat="45.891592877763394" lon="12.054998837630865"><ele>241.0</ele><time>2026-04-25T07:09:19.999Z</time></trkpt><trkpt lat="45.891515466143794" lon="12.054997099346139"><ele>243.33333333333331</ele><time>2026-04-25T07:09:24.999Z</time></trkpt><trkpt lat="45.89145752911888" lon="12.054958445316531"><ele>245.66666666666666</ele><time>2026-04-25T07:09:29.999Z</time></trkpt><trkpt lat="45.89138800327882" lon="12.054922850401393"><ele>248.0</ele><time>2026-04-25T07:09:36.999Z</time></trkpt><trkpt lat="45.89133478750156" lon="12.054871692813457"><ele>250.33333333333331</ele><time>2026-04-25T07:09:42.999Z</time></trkpt><trkpt lat="45.891271894387444" lon="12.05495175571329"><ele>252.66666666666666</ele><time>2026-04-25T07:09:59.998Z</time></trkpt><trkpt lat="45.8911816800097" lon="12.054972263384293"><ele>255.0</ele><time>2026-04-25T07:10:01.998Z</time></trkpt><trkpt lat="45.89110157676186" lon="12.05500674947969"><ele>255.0</ele><time>2026-04-25T07:10:03.998Z</time></trkpt><trkpt lat="45.8910100524945" lon="12.055061057960653"><ele>255.0</ele><time>2026-04-25T07:10:05.998Z</time></trkpt><trkpt lat="45.89091327820053" lon="12.055109165431668"><ele>255.0</ele><time>2026-04-25T07:10:07.998Z</time></trkpt><trkpt lat="45.89080992243174" lon="12.055154057798985"><ele>255.0</ele><time>2026-04-25T07:10:09.998Z</time></trkpt><trkpt lat="45.89072308127151" lon="12.055186323841676"><ele>255.0</ele><time>2026-04-25T07:10:11.998Z</time></trkpt><trkpt lat="45.89065877511863" lon="12.055201836341112"><ele>253.33333333333334</ele><time>2026-04-25T07:10:13.998Z</time></trkpt><trkpt lat="45.89057669338004" lon="12.055222059895945"><ele>251.66666666666669</ele><time>2026-04-25T07:10:16.998Z</time></trkpt><trkpt lat="45.890498181406564" lon="12.055276881253215"><ele>250.0</ele><time>2026-04-25T07:10:19.998Z</time></trkpt><trkpt lat="45.89044728704916" lon="12.055350186797"><ele>248.33333333333334</ele><time>2026-04-25T07:10:22.998Z</time></trkpt><trkpt lat="45.890387749592165" lon="12.055414191804406"><ele>246.66666666666669</ele><time>2026-04-25T07:10:25.998Z</time></trkpt><trkpt lat="45.89032695055122" lon="12.055464573369333"><ele>245.0</ele><time>2026-04-25T07:10:30Z</time></trkpt><trkpt lat="45.890266223927895" lon="12.05552252838704"><ele>245.0</ele><time>2026-04-25T07:10:34Z</time></trkpt><trkpt lat="45.8902205737958" lon="12.055603727426673"><ele>245.0</ele><time>2026-04-25T07:10:38Z</time></trkpt><trkpt lat="45.890189928025855" lon="12.055704189294635"><ele>245.0</ele><time>2026-04-25T07:10:41Z</time></trkpt><trkpt lat="45.890152822564524" lon="12.055792049639187"><ele>245.0</ele><time>2026-04-25T07:10:43Z</time></trkpt><trkpt lat="45.89011001851436" lon="12.055864797900336"><ele>245.0</ele><time>2026-04-25T07:10:45Z</time></trkpt><trkpt lat="45.89005822970004" lon="12.055940017213361"><ele>245.0</ele><time>2026-04-25T07:10:47Z</time></trkpt><trkpt lat="45.89000122197179" lon="12.055995158410317"><ele>245.0</ele><time>2026-04-25T07:10:49Z</time></trkpt><trkpt lat="45.88993309503754" lon="12.056042880661074"><ele>248.00000000000003</ele><time>2026-04-25T07:10:52Z</time></trkpt><trkpt lat="45.88986427991854" lon="12.056111667432612"><ele>251.0</ele><time>2026-04-25T07:10:56Z</time></trkpt><trkpt lat="45.88978450093761" lon="12.056142936261603"><ele>254.0</ele><time>2026-04-25T07:10:59Z</time></trkpt><trkpt lat="45.88972638582342" lon="12.056077481237294"><ele>257.0</ele><time>2026-04-25T07:11:01Z</time></trkpt><trkpt lat="45.8896968954426" lon="12.055989372041138"><ele>260.0</ele><time>2026-04-25T07:11:03Z</time></trkpt><trkpt lat="45.88965592454081" lon="12.055910813404978"><ele>263.0</ele><time>2026-04-25T07:11:06Z</time></trkpt><trkpt lat="45.88957393466951" lon="12.055865110227984"><ele>263.0</ele><time>2026-04-25T07:11:09Z</time></trkpt><trkpt lat="45.88947854117656" lon="12.055878146052219"><ele>263.0</ele><time>2026-04-25T07:11:11Z</time></trkpt><trkpt lat="45.889350174370705" lon="12.055851085382422"><ele>263.0</ele><time>2026-04-25T07:11:13Z</time></trkpt><trkpt lat="45.88928226008529" lon="12.055841931262634"><ele>263.0</ele><time>2026-04-25T07:11:14Z</time></trkpt><trkpt lat="45.8892184354248" lon="12.055827505650571"><ele>263.0</ele><time>2026-04-25T07:11:15Z</time></trkpt><trkpt lat="45.889099048133524" lon="12.055796999648685"><ele>259.0</ele><time>2026-04-25T07:11:17Z</time></trkpt><trkpt lat="45.88901176820103" lon="12.05577055473045"><ele>255.0</ele><time>2026-04-25T07:11:19Z</time></trkpt><trkpt lat="45.888948371144885" lon="12.05576178647964"><ele>251.0</ele><time>2026-04-25T07:11:22Z</time></trkpt><trkpt lat="45.88886387271792" lon="12.055754910783499"><ele>247.0</ele><time>2026-04-25T07:11:26Z</time></trkpt><trkpt lat="45.88877363588215" lon="12.055732190119235"><ele>243.00000000000003</ele><time>2026-04-25T07:11:28.999Z</time></trkpt><trkpt lat="45.8887022952092" lon="12.055671664208251"><ele>239.0</ele><time>2026-04-25T07:11:30.999Z</time></trkpt><trkpt lat="45.88862200923843" lon="12.055593709138998"><ele>239.0</ele><time>2026-04-25T07:11:32.999Z</time></trkpt><trkpt lat="45.888523205628246" lon="12.05550786553929"><ele>238.99999999999997</ele><time>2026-04-25T07:11:34.999Z</time></trkpt><trkpt lat="45.888408207529835" lon="12.055440212770758"><ele>238.99999999999997</ele><time>2026-04-25T07:11:36.999Z</time></trkpt><trkpt lat="45.8883122066712" lon="12.055396296777051"><ele>239.0</ele><time>2026-04-25T07:11:38.999Z</time></trkpt><trkpt lat="45.88823054384997" lon="12.055310941460784"><ele>239.0</ele><time>2026-04-25T07:11:40.999Z</time></trkpt><trkpt lat="45.88819019642459" lon="12.055225906314371"><ele>240.42857142857144</ele><time>2026-04-25T07:11:41.999Z</time></trkpt><trkpt lat="45.88815241713595" lon="12.055139952200358"><ele>241.85714285714286</ele><time>2026-04-25T07:11:42.999Z</time></trkpt><trkpt lat="45.88811094195423" lon="12.055060156113061"><ele>243.28571428571428</ele><time>2026-04-25T07:11:43.998Z</time></trkpt><trkpt lat="45.88806065042429" lon="12.05499162173266"><ele>244.71428571428572</ele><time>2026-04-25T07:11:44.998Z</time></trkpt><trkpt lat="45.88798798765307" lon="12.054941248987449"><ele>246.1428571428571</ele><time>2026-04-25T07:11:45.998Z</time></trkpt><trkpt lat="45.88792907591269" lon="12.054904912919794"><ele>247.57142857142856</ele><time>2026-04-25T07:11:46.998Z</time></trkpt><trkpt lat="45.88787224295504" lon="12.054853701034391"><ele>249.0</ele><time>2026-04-25T07:11:47.998Z</time></trkpt><trkpt lat="45.88777387804979" lon="12.054757525138669"><ele>247.66666666666666</ele><time>2026-04-25T07:11:49.998Z</time></trkpt><trkpt lat="45.88768207634434" lon="12.054662038203038"><ele>246.33333333333331</ele><time>2026-04-25T07:11:51.998Z</time></trkpt><trkpt lat="45.887597069243526" lon="12.05460782115084"><ele>245.0</ele><time>2026-04-25T07:11:53.998Z</time></trkpt><trkpt lat="45.887534885120644" lon="12.054542352936421"><ele>243.66666666666666</ele><time>2026-04-25T07:11:55.998Z</time></trkpt><trkpt lat="45.88747638120708" lon="12.054459525947344"><ele>242.33333333333331</ele><time>2026-04-25T07:11:57.998Z</time></trkpt><trkpt lat="45.88741777199912" lon="12.054375375883195"><ele>241.0</ele><time>2026-04-25T07:11:59.998Z</time></trkpt><trkpt lat="45.88735592595517" lon="12.054296582025994"><ele>240.99999999999997</ele><time>2026-04-25T07:12:01.998Z</time></trkpt><trkpt lat="45.88728828715138" lon="12.054216858223205"><ele>241.0</ele><time>2026-04-25T07:12:03.998Z</time></trkpt><trkpt lat="45.887233442714724" lon="12.054153356680876"><ele>241.0</ele><time>2026-04-25T07:12:05.998Z</time></trkpt><trkpt lat="45.88715495413866" lon="12.05407641153838"><ele>241.0</ele><time>2026-04-25T07:12:08.998Z</time></trkpt><trkpt lat="45.887074003532085" lon="12.054031460392473"><ele>240.99999999999997</ele><time>2026-04-25T07:12:10.998Z</time></trkpt><trkpt lat="45.88698583659355" lon="12.053985460358277"><ele>241.0</ele><time>2026-04-25T07:12:12.997Z</time></trkpt><trkpt lat="45.88688896470303" lon="12.05394220666421"><ele>239.0</ele><time>2026-04-25T07:12:14.997Z</time></trkpt><trkpt lat="45.886802081420306" lon="12.053893396905115"><ele>237.00000000000003</ele><time>2026-04-25T07:12:16.997Z</time></trkpt><trkpt lat="45.886724172917894" lon="12.053815904323324"><ele>235.00000000000003</ele><time>2026-04-25T07:12:18.997Z</time></trkpt><trkpt lat="45.886672998852205" lon="12.053680463216393"><ele>233.0</ele><time>2026-04-25T07:12:20.997Z</time></trkpt><trkpt lat="45.88667039835483" lon="12.053583373256624"><ele>231.0</ele><time>2026-04-25T07:12:21.997Z</time></trkpt><trkpt lat="45.88673156661584" lon="12.053449976429855"><ele>230.83333333333334</ele><time>2026-04-25T07:12:23.997Z</time></trkpt><trkpt lat="45.88674438044078" lon="12.053275260273436"><ele>230.66666666666669</ele><time>2026-04-25T07:12:25.997Z</time></trkpt><trkpt lat="45.886709893286266" lon="12.05318139411676"><ele>230.5</ele><time>2026-04-25T07:12:26.997Z</time></trkpt><trkpt lat="45.88666816888087" lon="12.05309570099298"><ele>230.33333333333334</ele><time>2026-04-25T07:12:27.997Z</time></trkpt><trkpt lat="45.8866290895443" lon="12.0530177584924"><ele>230.16666666666669</ele><time>2026-04-25T07:12:28.997Z</time></trkpt><trkpt lat="45.8865515952869" lon="12.052905320572723"><ele>230.0</ele><time>2026-04-25T07:12:30.997Z</time></trkpt><trkpt lat="45.886489718940375" lon="12.052860890054825"><ele>230.00000000000003</ele><time>2026-04-25T07:12:32.997Z</time></trkpt><trkpt lat="45.88639644732172" lon="12.052846393640968"><ele>230.0</ele><time>2026-04-25T07:12:37Z</time></trkpt><trkpt lat="45.886298674308605" lon="12.052839166389656"><ele>230.0</ele><time>2026-04-25T07:12:40Z</time></trkpt><trkpt lat="45.88623006590573" lon="12.052805982676333"><ele>230.0</ele><time>2026-04-25T07:12:42Z</time></trkpt><trkpt lat="45.886153877037586" lon="12.052774077518134"><ele>230.00000000000003</ele><time>2026-04-25T07:12:44Z</time></trkpt><trkpt lat="45.88607141018887" lon="12.052754208752798"><ele>230.0</ele><time>2026-04-25T07:12:46Z</time></trkpt><trkpt lat="45.885990085161275" lon="12.052736445511242"><ele>228.8</ele><time>2026-04-25T07:12:48Z</time></trkpt><trkpt lat="45.8859153174261" lon="12.052692738827458"><ele>227.6</ele><time>2026-04-25T07:12:50Z</time></trkpt><trkpt lat="45.885839539700896" lon="12.052614540468527"><ele>226.39999999999998</ele><time>2026-04-25T07:12:53Z</time></trkpt><trkpt lat="45.8857659733184" lon="12.052555778825788"><ele>225.2</ele><time>2026-04-25T07:12:55Z</time></trkpt><trkpt lat="45.88567198175728" lon="12.05249555647798"><ele>224.0</ele><time>2026-04-25T07:12:57Z</time></trkpt><trkpt lat="45.88557450100416" lon="12.052443494317282"><ele>222.0</ele><time>2026-04-25T07:12:58.999Z</time></trkpt><trkpt lat="45.88547765318049" lon="12.0524040655495"><ele>219.99999999999997</ele><time>2026-04-25T07:13:00.999Z</time></trkpt><trkpt lat="45.8854142728965" lon="12.052366663209375"><ele>217.99999999999997</ele><time>2026-04-25T07:13:01.999Z</time></trkpt><trkpt lat="45.885311374645894" lon="12.052299572589922"><ele>216.0</ele><time>2026-04-25T07:13:03.999Z</time></trkpt><trkpt lat="45.88519477501838" lon="12.052243975394374"><ele>214.0</ele><time>2026-04-25T07:13:05.999Z</time></trkpt><trkpt lat="45.88508296922633" lon="12.052206965559112"><ele>211.99999999999997</ele><time>2026-04-25T07:13:07.999Z</time></trkpt><trkpt lat="45.88498548019888" lon="12.05218530881547"><ele>210.0</ele><time>2026-04-25T07:13:09.999Z</time></trkpt><trkpt lat="45.88492083325106" lon="12.052200252749582"><ele>208.0</ele><time>2026-04-25T07:13:11.999Z</time></trkpt><trkpt lat="45.884861287099106" lon="12.052253298461737"><ele>206.0</ele><time>2026-04-25T07:13:23.999Z</time></trkpt><trkpt lat="45.88476408544371" lon="12.05226438042081"><ele>203.99999999999997</ele><time>2026-04-25T07:13:26.999Z</time></trkpt><trkpt lat="45.884668746878475" lon="12.052278556625764"><ele>202.0</ele><time>2026-04-25T07:13:29.999Z</time></trkpt><trkpt lat="45.88460046615454" lon="12.052270489739733"><ele>201.99999999999997</ele><time>2026-04-25T07:13:31.999Z</time></trkpt><trkpt lat="45.88453284517571" lon="12.052239425880481"><ele>202.0</ele><time>2026-04-25T07:13:33.999Z</time></trkpt><trkpt lat="45.884473870553585" lon="12.052189570285686"><ele>202.0</ele><time>2026-04-25T07:13:35.999Z</time></trkpt><trkpt lat="45.88441849236595" lon="12.052113681085217"><ele>202.0</ele><time>2026-04-25T07:13:37.999Z</time></trkpt><trkpt lat="45.88437251231958" lon="12.052021545006992"><ele>201.99999999999997</ele><time>2026-04-25T07:13:39.999Z</time></trkpt><trkpt lat="45.88434944947671" lon="12.051907171555849"><ele>202.0</ele><time>2026-04-25T07:13:41.998Z</time></trkpt><trkpt lat="45.88433198961961" lon="12.051778543096944"><ele>202.0</ele><time>2026-04-25T07:13:43.998Z</time></trkpt><trkpt lat="45.88431038226409" lon="12.05164455460271"><ele>202.0</ele><time>2026-04-25T07:13:45.998Z</time></trkpt><trkpt lat="45.884289715209114" lon="12.051507391797756"><ele>202.0</ele><time>2026-04-25T07:13:47.998Z</time></trkpt><trkpt lat="45.88424609313035" lon="12.051392944137591"><ele>202.0</ele><time>2026-04-25T07:13:49.998Z</time></trkpt><trkpt lat="45.884163317921114" lon="12.051366326575616"><ele>202.0</ele><time>2026-04-25T07:13:51.998Z</time></trkpt><trkpt lat="45.88407021544008" lon="12.051348072683627"><ele>202.0</ele><time>2026-04-25T07:13:53.998Z</time></trkpt><trkpt lat="45.883971296829316" lon="12.051312149649599"><ele>202.0</ele><time>2026-04-25T07:13:55.998Z</time></trkpt><trkpt lat="45.883843577953705" lon="12.051302328165011"><ele>202.0</ele><time>2026-04-25T07:13:57.998Z</time></trkpt><trkpt lat="45.88377719021898" lon="12.051303587610967"><ele>202.0</ele><time>2026-04-25T07:13:58.998Z</time></trkpt><trkpt lat="45.88371331667447" lon="12.051305412711388"><ele>202.0</ele><time>2026-04-25T07:13:59.998Z</time></trkpt><trkpt lat="45.883585589904634" lon="12.051323101997792"><ele>202.0</ele><time>2026-04-25T07:14:01.998Z</time></trkpt><trkpt lat="45.88351729432047" lon="12.051334599933742"><ele>202.0</ele><time>2026-04-25T07:14:02.998Z</time></trkpt><trkpt lat="45.88339339448273" lon="12.051331039039134"><ele>202.0</ele><time>2026-04-25T07:14:04.998Z</time></trkpt><trkpt lat="45.883291380340886" lon="12.051324121934067"><ele>202.0</ele><time>2026-04-25T07:14:06.998Z</time></trkpt><trkpt lat="45.88319086790634" lon="12.051294997801678"><ele>202.0</ele><time>2026-04-25T07:14:08.998Z</time></trkpt><trkpt lat="45.88310708585798" lon="12.051238480549607"><ele>199.83333333333331</ele><time>2026-04-25T07:14:10.998Z</time></trkpt><trkpt lat="45.88305663207501" lon="12.051173780096528"><ele>197.66666666666666</ele><time>2026-04-25T07:14:11.998Z</time></trkpt><trkpt lat="45.882993421633785" lon="12.051073006199019"><ele>195.5</ele><time>2026-04-25T07:14:13.998Z</time></trkpt><trkpt lat="45.88294736546236" lon="12.050980792165507"><ele>193.33333333333331</ele><time>2026-04-25T07:14:15.998Z</time></trkpt><trkpt lat="45.88291010569026" lon="12.05088345682296"><ele>191.16666666666666</ele><time>2026-04-25T07:14:17.998Z</time></trkpt><trkpt lat="45.88287410024221" lon="12.050774764278168"><ele>189.0</ele><time>2026-04-25T07:14:19.998Z</time></trkpt><trkpt lat="45.88284195467111" lon="12.050679863363735"><ele>189.0</ele><time>2026-04-25T07:14:21.998Z</time></trkpt><trkpt lat="45.88279711825558" lon="12.050561156891039"><ele>189.0</ele><time>2026-04-25T07:14:23.998Z</time></trkpt><trkpt lat="45.88276212167114" lon="12.050477680744693"><ele>189.0</ele><time>2026-04-25T07:14:24.998Z</time></trkpt><trkpt lat="45.88273490921312" lon="12.050380393530268"><ele>189.0</ele><time>2026-04-25T07:14:25.997Z</time></trkpt><trkpt lat="45.88270107186667" lon="12.05021234342269"><ele>189.0</ele><time>2026-04-25T07:14:27.997Z</time></trkpt><trkpt lat="45.882665143415245" lon="12.050046028788817"><ele>188.5</ele><time>2026-04-25T07:14:29.997Z</time></trkpt><trkpt lat="45.8826379227285" lon="12.04995410925822"><ele>188.0</ele><time>2026-04-25T07:14:30.997Z</time></trkpt><trkpt lat="45.88260470747067" lon="12.049874389954988"><ele>187.5</ele><time>2026-04-25T07:14:31.997Z</time></trkpt><trkpt lat="45.88256490195126" lon="12.049793505725102"><ele>187.0</ele><time>2026-04-25T07:14:32.997Z</time></trkpt><trkpt lat="45.882512657529446" lon="12.04964512984947"><ele>186.5</ele><time>2026-04-25T07:14:34.997Z</time></trkpt><trkpt lat="45.882478899724696" lon="12.04952988116318"><ele>186.0</ele><time>2026-04-25T07:14:36.997Z</time></trkpt><trkpt lat="45.882515710998746" lon="12.049447419894806"><ele>186.00000000000003</ele><time>2026-04-25T07:14:39.997Z</time></trkpt><trkpt lat="45.88256603093859" lon="12.04938307620992"><ele>186.0</ele><time>2026-04-25T07:14:44Z</time></trkpt><trkpt lat="45.882604294241865" lon="12.049300086021564"><ele>186.0</ele><time>2026-04-25T07:14:48Z</time></trkpt><trkpt lat="45.882646827356695" lon="12.049213086948326"><ele>186.0</ele><time>2026-04-25T07:14:53Z</time></trkpt><trkpt lat="45.88268608080279" lon="12.049124481243634"><ele>186.0</ele><time>2026-04-25T07:14:59Z</time></trkpt><trkpt lat="45.88272068784099" lon="12.049040000059778"><ele>186.00000000000003</ele><time>2026-04-25T07:15:04Z</time></trkpt><trkpt lat="45.88276196065277" lon="12.048959150816641"><ele>186.0</ele><time>2026-04-25T07:15:09Z</time></trkpt><trkpt lat="45.882816871492146" lon="12.048894343786705"><ele>186.14285714285717</ele><time>2026-04-25T07:15:13.999Z</time></trkpt><trkpt lat="45.88287016208513" lon="12.048843972059212"><ele>186.28571428571428</ele><time>2026-04-25T07:15:18.999Z</time></trkpt><trkpt lat="45.88288713252141" lon="12.048755387632802"><ele>186.42857142857144</ele><time>2026-04-25T07:15:23.999Z</time></trkpt><trkpt lat="45.88286692789055" lon="12.048652596535344"><ele>186.57142857142858</ele><time>2026-04-25T07:15:29.999Z</time></trkpt><trkpt lat="45.88281616566714" lon="12.048592092825636"><ele>186.71428571428572</ele><time>2026-04-25T07:15:34.999Z</time></trkpt><trkpt lat="45.8827611300423" lon="12.048530712017232"><ele>186.85714285714286</ele><time>2026-04-25T07:15:39.999Z</time></trkpt><trkpt lat="45.88272279514063" lon="12.048450400249687"><ele>187.0</ele><time>2026-04-25T07:15:42.999Z</time></trkpt><trkpt lat="45.882643664115115" lon="12.048432689796341"><ele>187.0</ele><time>2026-04-25T07:15:46.999Z</time></trkpt><trkpt lat="45.88257599997141" lon="12.048412879520882"><ele>187.0</ele><time>2026-04-25T07:15:51.999Z</time></trkpt><trkpt lat="45.88265166331069" lon="12.048410160353631"><ele>187.0</ele><time>2026-04-25T07:16:04.998Z</time></trkpt><trkpt lat="45.88272981666052" lon="12.048430847541717"><ele>187.0</ele><time>2026-04-25T07:16:09.998Z</time></trkpt><trkpt lat="45.88279925050641" lon="12.048464281887018"><ele>187.0</ele><time>2026-04-25T07:16:14.998Z</time></trkpt><trkpt lat="45.88285931886483" lon="12.048512152317826"><ele>187.0</ele><time>2026-04-25T07:16:19.998Z</time></trkpt><trkpt lat="45.88290562518574" lon="12.048573840573496"><ele>187.0</ele><time>2026-04-25T07:16:25.998Z</time></trkpt><trkpt lat="45.882939115263305" lon="12.048651694549294"><ele>187.0</ele><time>2026-04-25T07:16:32.998Z</time></trkpt><trkpt lat="45.882981465237506" lon="12.048741861625944"><ele>187.0</ele><time>2026-04-25T07:16:39.998Z</time></trkpt><trkpt lat="45.88313085768953" lon="12.048028971235084"><ele>187.33333333333334</ele><time>2026-04-25T07:17:10Z</time></trkpt><trkpt lat="45.88307872550806" lon="12.047913726954604"><ele>187.66666666666669</ele><time>2026-04-25T07:17:13Z</time></trkpt><trkpt lat="45.88299099163004" lon="12.04792459136963"><ele>188.0</ele><time>2026-04-25T07:17:15Z</time></trkpt><trkpt lat="45.882912882559985" lon="12.047926941148503"><ele>188.33333333333334</ele><time>2026-04-25T07:17:18Z</time></trkpt><trkpt lat="45.88283284980379" lon="12.047904956344883"><ele>188.66666666666666</ele><time>2026-04-25T07:17:21Z</time></trkpt><trkpt lat="45.8827545649584" lon="12.047880850491682"><ele>189.0</ele><time>2026-04-25T07:17:24Z</time></trkpt><trkpt lat="45.88266082536274" lon="12.047854325539914"><ele>190.42857142857142</ele><time>2026-04-25T07:17:27Z</time></trkpt><trkpt lat="45.88259766431578" lon="12.047840561595777"><ele>191.85714285714286</ele><time>2026-04-25T07:17:28.999Z</time></trkpt><trkpt lat="45.88253221823016" lon="12.047845512022757"><ele>193.28571428571428</ele><time>2026-04-25T07:17:30.999Z</time></trkpt><trkpt lat="45.882469247805254" lon="12.047832058416105"><ele>194.71428571428572</ele><time>2026-04-25T07:17:32.999Z</time></trkpt><trkpt lat="45.8823905535994" lon="12.047816274939017"><ele>196.14285714285714</ele><time>2026-04-25T07:17:35.999Z</time></trkpt><trkpt lat="45.88231560588179" lon="12.047798381212178"><ele>197.57142857142856</ele><time>2026-04-25T07:17:39.999Z</time></trkpt><trkpt lat="45.88224551819493" lon="12.04778669883845"><ele>199.0</ele><time>2026-04-25T07:17:43.999Z</time></trkpt><trkpt lat="45.88218615619407" lon="12.047753873308478"><ele>198.99999999999997</ele><time>2026-04-25T07:17:47.999Z</time></trkpt><trkpt lat="45.882121078577875" lon="12.047736631274718"><ele>199.0</ele><time>2026-04-25T07:17:51.999Z</time></trkpt><trkpt lat="45.88204696375348" lon="12.047747400398121"><ele>199.0</ele><time>2026-04-25T07:17:55.999Z</time></trkpt><trkpt lat="45.88197047084464" lon="12.047722177995242"><ele>199.0</ele><time>2026-04-25T07:18:00.999Z</time></trkpt><trkpt lat="45.881905684630475" lon="12.047688266414037"><ele>199.0</ele><time>2026-04-25T07:18:04.999Z</time></trkpt><trkpt lat="45.881833995414084" lon="12.047672912164176"><ele>198.99999999999997</ele><time>2026-04-25T07:18:08.999Z</time></trkpt><trkpt lat="45.88177166555987" lon="12.047644759906095"><ele>199.0</ele><time>2026-04-25T07:18:11.998Z</time></trkpt><trkpt lat="45.88169841677934" lon="12.047620442575242"><ele>198.66666666666666</ele><time>2026-04-25T07:18:14.998Z</time></trkpt><trkpt lat="45.8816286486098" lon="12.047599132585715"><ele>198.33333333333331</ele><time>2026-04-25T07:18:17.998Z</time></trkpt><trkpt lat="45.88156246842801" lon="12.047559182280864"><ele>198.0</ele><time>2026-04-25T07:18:21.998Z</time></trkpt><trkpt lat="45.88148989887878" lon="12.047559595553553"><ele>197.66666666666669</ele><time>2026-04-25T07:19:26Z</time></trkpt><trkpt lat="45.88139757719464" lon="12.04752319216566"><ele>197.33333333333334</ele><time>2026-04-25T07:19:28Z</time></trkpt><trkpt lat="45.88128421391589" lon="12.04747836466891"><ele>197.0</ele><time>2026-04-25T07:19:30Z</time></trkpt><trkpt lat="45.88122936536437" lon="12.047414164879712"><ele>197.00000000000003</ele><time>2026-04-25T07:19:31Z</time></trkpt><trkpt lat="45.88111577803624" lon="12.047390276613903"><ele>197.0</ele><time>2026-04-25T07:19:33Z</time></trkpt><trkpt lat="45.88103073176472" lon="12.04743031496271"><ele>197.0</ele><time>2026-04-25T07:19:35Z</time></trkpt><trkpt lat="45.88097417048726" lon="12.047476559637042"><ele>197.0</ele><time>2026-04-25T07:19:39Z</time></trkpt><trkpt lat="45.88090400995175" lon="12.04744866931995"><ele>197.00000000000003</ele><time>2026-04-25T07:19:56.998Z</time></trkpt><trkpt lat="45.8808291772783" lon="12.047439852506148"><ele>197.0</ele><time>2026-04-25T07:19:59.998Z</time></trkpt><trkpt lat="45.88074040104681" lon="12.047428681125236"><ele>193.50000000000003</ele><time>2026-04-25T07:20:02.998Z</time></trkpt><trkpt lat="45.88067981695779" lon="12.047401074485096"><ele>190.0</ele><time>2026-04-25T07:20:04.998Z</time></trkpt><trkpt lat="45.880614187529616" lon="12.047362421786188"><ele>186.5</ele><time>2026-04-25T07:20:06.998Z</time></trkpt><trkpt lat="45.88052795186098" lon="12.04731693910087"><ele>183.0</ele><time>2026-04-25T07:20:08.998Z</time></trkpt><trkpt lat="45.88043457553981" lon="12.047288391639913"><ele>179.5</ele><time>2026-04-25T07:20:10.998Z</time></trkpt><trkpt lat="45.88034632497636" lon="12.047250439966582"><ele>176.0</ele><time>2026-04-25T07:20:12.998Z</time></trkpt><trkpt lat="45.88026752750299" lon="12.04718703327547"><ele>176.0</ele><time>2026-04-25T07:20:14.998Z</time></trkpt><trkpt lat="45.88016270557858" lon="12.047111859711583"><ele>176.0</ele><time>2026-04-25T07:20:16.998Z</time></trkpt><trkpt lat="45.88006652180804" lon="12.047063421962237"><ele>176.0</ele><time>2026-04-25T07:20:18.998Z</time></trkpt><trkpt lat="45.87998193058846" lon="12.047084202137581"><ele>176.0</ele><time>2026-04-25T07:20:21.998Z</time></trkpt><trkpt lat="45.879901404339286" lon="12.047068486142166"><ele>176.0</ele><time>2026-04-25T07:20:23.998Z</time></trkpt><trkpt lat="45.8798336608439" lon="12.047097419742478"><ele>174.60000000000002</ele><time>2026-04-25T07:20:25.998Z</time></trkpt><trkpt lat="45.879852578575516" lon="12.046895605876038"><ele>173.2</ele><time>2026-04-25T07:20:31.998Z</time></trkpt><trkpt lat="45.87987427187972" lon="12.046786730022696"><ele>171.8</ele><time>2026-04-25T07:20:34.997Z</time></trkpt><trkpt lat="45.879905721785576" lon="12.046657776727816"><ele>170.39999999999998</ele><time>2026-04-25T07:20:37.997Z</time></trkpt><trkpt lat="45.8799341470042" lon="12.046568387475128"><ele>169.0</ele><time>2026-04-25T07:20:39.997Z</time></trkpt><trkpt lat="45.87996707067599" lon="12.046482633140798"><ele>169.0</ele><time>2026-04-25T07:20:41.997Z</time></trkpt><trkpt lat="45.88001463429961" lon="12.04636933940974"><ele>169.0</ele><time>2026-04-25T07:20:44.997Z</time></trkpt><trkpt lat="45.88004949686704" lon="12.046290437656621"><ele>169.0</ele><time>2026-04-25T07:20:46.997Z</time></trkpt><trkpt lat="45.88008875153307" lon="12.04621073536688"><ele>169.0</ele><time>2026-04-25T07:20:48.997Z</time></trkpt><trkpt lat="45.88013772649205" lon="12.046142840815422"><ele>169.0</ele><time>2026-04-25T07:20:50.997Z</time></trkpt><trkpt lat="45.880193226871896" lon="12.04608067703034"><ele>169.0</ele><time>2026-04-25T07:20:52.997Z</time></trkpt><trkpt lat="45.8802719725734" lon="12.046000506162473"><ele>169.66666666666669</ele><time>2026-04-25T07:20:55.997Z</time></trkpt><trkpt lat="45.88032710618252" lon="12.045943062640983"><ele>170.33333333333334</ele><time>2026-04-25T07:20:58Z</time></trkpt><trkpt lat="45.880379530964994" lon="12.045870752061067"><ele>171.0</ele><time>2026-04-25T07:21:00Z</time></trkpt><trkpt lat="45.880409781931014" lon="12.045753145353823"><ele>171.66666666666666</ele><time>2026-04-25T07:21:02Z</time></trkpt><trkpt lat="45.88042965090424" lon="12.04564465200393"><ele>172.33333333333331</ele><time>2026-04-25T07:21:04Z</time></trkpt><trkpt lat="45.8804477425208" lon="12.045536707325576"><ele>173.0</ele><time>2026-04-25T07:21:06Z</time></trkpt><trkpt lat="45.88046217365943" lon="12.045432355329377"><ele>173.0</ele><time>2026-04-25T07:21:08Z</time></trkpt><trkpt lat="45.88048352506268" lon="12.045327610858838"><ele>173.0</ele><time>2026-04-25T07:21:10Z</time></trkpt><trkpt lat="45.88050713807676" lon="12.045226263831712"><ele>173.0</ele><time>2026-04-25T07:21:12Z</time></trkpt><trkpt lat="45.8805314138709" lon="12.045130511013564"><ele>173.0</ele><time>2026-04-25T07:21:14Z</time></trkpt><trkpt lat="45.88055620401456" lon="12.045041054227267"><ele>173.0</ele><time>2026-04-25T07:21:16Z</time></trkpt><trkpt lat="45.88057773761141" lon="12.04494661287415"><ele>173.0</ele><time>2026-04-25T07:21:19Z</time></trkpt><trkpt lat="45.88058527402772" lon="12.044853303089647"><ele>173.0</ele><time>2026-04-25T07:21:23.999Z</time></trkpt><trkpt lat="45.880592887755334" lon="12.044725355500818"><ele>171.0</ele><time>2026-04-25T07:21:32.999Z</time></trkpt><trkpt lat="45.88063369325545" lon="12.044634748662306"><ele>169.0</ele><time>2026-04-25T07:21:34.999Z</time></trkpt><trkpt lat="45.8806492834141" lon="12.044516346381942"><ele>167.0</ele><time>2026-04-25T07:21:37.999Z</time></trkpt><trkpt lat="45.880907299718196" lon="12.04444884566628"><ele>165.0</ele><time>2026-04-25T07:21:41.999Z</time></trkpt><trkpt lat="45.88093084651714" lon="12.044363010049217"><ele>165.83333333333334</ele><time>2026-04-25T07:21:43.999Z</time></trkpt><trkpt lat="45.8809663274518" lon="12.044229268119684"><ele>166.66666666666666</ele><time>2026-04-25T07:21:46.999Z</time></trkpt><trkpt lat="45.881028297363834" lon="12.044157904611154"><ele>167.5</ele><time>2026-04-25T07:21:48.999Z</time></trkpt><trkpt lat="45.88108324650602" lon="12.0441119205694"><ele>168.33333333333331</ele><time>2026-04-25T07:21:50.999Z</time></trkpt><trkpt lat="45.881135448773804" lon="12.044057769588733"><ele>169.16666666666666</ele><time>2026-04-25T07:21:52.999Z</time></trkpt><trkpt lat="45.88117043930828" lon="12.043928640364443"><ele>170.0</ele><time>2026-04-25T07:21:54.999Z</time></trkpt><trkpt lat="45.88116681543714" lon="12.043804161913787"><ele>170.0</ele><time>2026-04-25T07:21:57.999Z</time></trkpt><trkpt lat="45.881167700011325" lon="12.043706806675948"><ele>170.0</ele><time>2026-04-25T07:21:59.999Z</time></trkpt><trkpt lat="45.881162868600484" lon="12.043590856647748"><ele>170.0</ele><time>2026-04-25T07:22:02.999Z</time></trkpt><trkpt lat="45.881108040845355" lon="12.043516621008358"><ele>170.0</ele><time>2026-04-25T07:22:05.999Z</time></trkpt><trkpt lat="45.881044049240366" lon="12.043501704756299"><ele>170.0</ele><time>2026-04-25T07:22:08.998Z</time></trkpt><trkpt lat="45.880974150181004" lon="12.043496170720381"><ele>170.0</ele><time>2026-04-25T07:22:12.998Z</time></trkpt><trkpt lat="45.880904476382" lon="12.043508353278387"><ele>170.0</ele><time>2026-04-25T07:22:16.998Z</time></trkpt><trkpt lat="45.8808286502631" lon="12.04352488764971"><ele>168.83333333333331</ele><time>2026-04-25T07:22:19.998Z</time></trkpt><trkpt lat="45.88073805031851" lon="12.043520866952951"><ele>167.66666666666666</ele><time>2026-04-25T07:22:22.998Z</time></trkpt><trkpt lat="45.88064504101143" lon="12.043516384691387"><ele>166.5</ele><time>2026-04-25T07:22:25.998Z</time></trkpt><trkpt lat="45.88056101549585" lon="12.043495684170821"><ele>165.33333333333334</ele><time>2026-04-25T07:22:27.998Z</time></trkpt><trkpt lat="45.880484005381355" lon="12.043445861929392"><ele>164.16666666666669</ele><time>2026-04-25T07:22:29.998Z</time></trkpt><trkpt lat="45.88040372352538" lon="12.043389897090291"><ele>163.0</ele><time>2026-04-25T07:22:31.998Z</time></trkpt><trkpt lat="45.880313224119824" lon="12.043326809706231"><ele>163.0</ele><time>2026-04-25T07:22:33.998Z</time></trkpt><trkpt lat="45.88022423584459" lon="12.043261030899375"><ele>163.0</ele><time>2026-04-25T07:22:35.998Z</time></trkpt><trkpt lat="45.880136458225984" lon="12.043186120026961"><ele>163.0</ele><time>2026-04-25T07:22:37.998Z</time></trkpt><trkpt lat="45.880040480267276" lon="12.043127215510957"><ele>163.0</ele><time>2026-04-25T07:22:39.998Z</time></trkpt><trkpt lat="45.87993875736336" lon="12.043066183050339"><ele>163.0</ele><time>2026-04-25T07:22:41.998Z</time></trkpt><trkpt lat="45.879839485548565" lon="12.043008037473026"><ele>163.0</ele><time>2026-04-25T07:22:43.998Z</time></trkpt><trkpt lat="45.879739932242146" lon="12.042945429855072"><ele>163.0</ele><time>2026-04-25T07:22:45.998Z</time></trkpt><trkpt lat="45.87966429687338" lon="12.042867940439647"><ele>163.0</ele><time>2026-04-25T07:22:47.998Z</time></trkpt><trkpt lat="45.879653029382034" lon="12.042767840878541"><ele>163.0</ele><time>2026-04-25T07:22:49.998Z</time></trkpt><trkpt lat="45.8797017918368" lon="12.042668615629236"><ele>163.0</ele><time>2026-04-25T07:22:52.997Z</time></trkpt><trkpt lat="45.87975296470473" lon="12.04255973615194"><ele>163.0</ele><time>2026-04-25T07:22:55.997Z</time></trkpt><trkpt lat="45.879786023738944" lon="12.042482276509391"><ele>163.66666666666669</ele><time>2026-04-25T07:22:57.997Z</time></trkpt><trkpt lat="45.879814616911794" lon="12.04240142938404"><ele>164.33333333333334</ele><time>2026-04-25T07:22:59.997Z</time></trkpt><trkpt lat="45.879855862949896" lon="12.04228650290336"><ele>165.0</ele><time>2026-04-25T07:23:03Z</time></trkpt><trkpt lat="45.87988361476693" lon="12.042167261252754"><ele>165.66666666666666</ele><time>2026-04-25T07:23:06Z</time></trkpt><trkpt lat="45.879900382093375" lon="12.042050577109835"><ele>166.33333333333331</ele><time>2026-04-25T07:23:09Z</time></trkpt><trkpt lat="45.87991615555919" lon="12.041936679484808"><ele>167.0</ele><time>2026-04-25T07:23:12Z</time></trkpt><trkpt lat="45.879913531542016" lon="12.041817806308286"><ele>167.0</ele><time>2026-04-25T07:23:15Z</time></trkpt><trkpt lat="45.87990245353575" lon="12.041697581388044"><ele>167.0</ele><time>2026-04-25T07:23:18Z</time></trkpt><trkpt lat="45.879888008005516" lon="12.04157996443422"><ele>167.0</ele><time>2026-04-25T07:23:21Z</time></trkpt><trkpt lat="45.879874864566574" lon="12.041460895570866"><ele>167.0</ele><time>2026-04-25T07:23:24Z</time></trkpt><trkpt lat="45.87985997352297" lon="12.041334620620539"><ele>167.0</ele><time>2026-04-25T07:23:27Z</time></trkpt><trkpt lat="45.87984194032237" lon="12.041202297683837"><ele>167.0</ele><time>2026-04-25T07:23:30Z</time></trkpt><trkpt lat="45.87982153181632" lon="12.04107315017696"><ele>167.33333333333331</ele><time>2026-04-25T07:23:33Z</time></trkpt><trkpt lat="45.8798081947571" lon="12.040944682190736"><ele>167.66666666666666</ele><time>2026-04-25T07:23:36Z</time></trkpt><trkpt lat="45.87979193204417" lon="12.040814648283183"><ele>168.0</ele><time>2026-04-25T07:23:38.999Z</time></trkpt><trkpt lat="45.879767745228044" lon="12.040685034305868"><ele>168.33333333333334</ele><time>2026-04-25T07:23:41.999Z</time></trkpt><trkpt lat="45.87975071532803" lon="12.040594040524837"><ele>168.66666666666669</ele><time>2026-04-25T07:23:43.999Z</time></trkpt><trkpt lat="45.879729716393186" lon="12.040494433454702"><ele>169.0</ele><time>2026-04-25T07:23:45.999Z</time></trkpt><trkpt lat="45.8797090309885" lon="12.040392057137709"><ele>169.16666666666669</ele><time>2026-04-25T07:23:47.999Z</time></trkpt><trkpt lat="45.87969177937265" lon="12.040288567843577"><ele>169.33333333333334</ele><time>2026-04-25T07:23:49.999Z</time></trkpt><trkpt lat="45.87966880143906" lon="12.040185768083884"><ele>169.5</ele><time>2026-04-25T07:23:51.999Z</time></trkpt><trkpt lat="45.87964651578386" lon="12.040079934211501"><ele>169.66666666666666</ele><time>2026-04-25T07:23:53.999Z</time></trkpt><trkpt lat="45.879623196338805" lon="12.039974174178681"><ele>169.83333333333331</ele><time>2026-04-25T07:23:55.999Z</time></trkpt><trkpt lat="45.87959715677827" lon="12.03986791715827"><ele>170.0</ele><time>2026-04-25T07:23:57.999Z</time></trkpt><trkpt lat="45.87956158664792" lon="12.039767873104415"><ele>170.6</ele><time>2026-04-25T07:23:59.999Z</time></trkpt><trkpt lat="45.8795247379866" lon="12.03966675457394"><ele>171.2</ele><time>2026-04-25T07:24:01.999Z</time></trkpt><trkpt lat="45.87947987834379" lon="12.039565140955807"><ele>171.8</ele><time>2026-04-25T07:24:03.999Z</time></trkpt><trkpt lat="45.87942709596345" lon="12.039458859457344"><ele>172.4</ele><time>2026-04-25T07:24:05.999Z</time></trkpt><trkpt lat="45.87936981598222" lon="12.039345158655841"><ele>173.0</ele><time>2026-04-25T07:24:07.999Z</time></trkpt><trkpt lat="45.879312586239294" lon="12.03922948210926"><ele>172.4</ele><time>2026-04-25T07:24:09.999Z</time></trkpt><trkpt lat="45.879250617717226" lon="12.03912325429642"><ele>171.8</ele><time>2026-04-25T07:24:11.999Z</time></trkpt><trkpt lat="45.879191131794705" lon="12.039008790461777"><ele>171.2</ele><time>2026-04-25T07:24:13.999Z</time></trkpt><trkpt lat="45.879128574120436" lon="12.038890441367824"><ele>170.6</ele><time>2026-04-25T07:24:15.999Z</time></trkpt><trkpt lat="45.879062715010676" lon="12.03876879621205"><ele>170.0</ele><time>2026-04-25T07:24:17.999Z</time></trkpt><trkpt lat="45.878996231150246" lon="12.03863785993093"><ele>170.0</ele><time>2026-04-25T07:24:19.999Z</time></trkpt><trkpt lat="45.87893033243283" lon="12.038502917795594"><ele>170.0</ele><time>2026-04-25T07:24:21.998Z</time></trkpt><trkpt lat="45.878869758372" lon="12.038354515417797"><ele>170.0</ele><time>2026-04-25T07:24:23.998Z</time></trkpt><trkpt lat="45.87882022219925" lon="12.038188127488638"><ele>170.0</ele><time>2026-04-25T07:24:25.998Z</time></trkpt><trkpt lat="45.87880053392612" lon="12.038099444438858"><ele>170.0</ele><time>2026-04-25T07:24:26.998Z</time></trkpt><trkpt lat="45.87878132923379" lon="12.038005480072473"><ele>169.57142857142858</ele><time>2026-04-25T07:24:27.998Z</time></trkpt><trkpt lat="45.87876415608597" lon="12.037908151018978"><ele>169.14285714285714</ele><time>2026-04-25T07:24:28.998Z</time></trkpt><trkpt lat="45.87874879523114" lon="12.03780970861582"><ele>168.71428571428572</ele><time>2026-04-25T07:24:29.998Z</time></trkpt><trkpt lat="45.87873270161985" lon="12.03770652686373"><ele>168.28571428571428</ele><time>2026-04-25T07:24:30.998Z</time></trkpt><trkpt lat="45.87871689502624" lon="12.037600978364132"><ele>167.85714285714286</ele><time>2026-04-25T07:24:31.998Z</time></trkpt><trkpt lat="45.87870188142872" lon="12.03749170801282"><ele>167.42857142857142</ele><time>2026-04-25T07:24:32.998Z</time></trkpt><trkpt lat="45.87868726329456" lon="12.03738229725778"><ele>167.0</ele><time>2026-04-25T07:24:33.998Z</time></trkpt><trkpt lat="45.8786691988136" lon="12.037272136041466"><ele>167.0</ele><time>2026-04-25T07:24:34.998Z</time></trkpt><trkpt lat="45.878651649026416" lon="12.037160281639828"><ele>167.0</ele><time>2026-04-25T07:24:35.998Z</time></trkpt><trkpt lat="45.878634424091985" lon="12.037048909950329"><ele>167.0</ele><time>2026-04-25T07:24:36.998Z</time></trkpt><trkpt lat="45.87861400480489" lon="12.036939853866922"><ele>167.0</ele><time>2026-04-25T07:24:37.998Z</time></trkpt><trkpt lat="45.87861239621129" lon="12.036824178778739"><ele>167.0</ele><time>2026-04-25T07:24:38.998Z</time></trkpt><trkpt lat="45.87859521495628" lon="12.036712039882103"><ele>167.0</ele><time>2026-04-25T07:24:39.998Z</time></trkpt><trkpt lat="45.87856196975526" lon="12.03660411829032"><ele>167.0</ele><time>2026-04-25T07:24:40.998Z</time></trkpt><trkpt lat="45.87854789286285" lon="12.036490762684094"><ele>167.0</ele><time>2026-04-25T07:24:41.998Z</time></trkpt><trkpt lat="45.878530588461906" lon="12.036375755556193"><ele>167.0</ele><time>2026-04-25T07:24:42.998Z</time></trkpt><trkpt lat="45.87851283127965" lon="12.03626218110291"><ele>167.0</ele><time>2026-04-25T07:24:43.998Z</time></trkpt><trkpt lat="45.87849584413645" lon="12.036148767387477"><ele>167.0</ele><time>2026-04-25T07:24:44.998Z</time></trkpt><trkpt lat="45.878478027690484" lon="12.036036136786976"><ele>167.0</ele><time>2026-04-25T07:24:45.998Z</time></trkpt><trkpt lat="45.878461050570166" lon="12.035925723791458"><ele>167.0</ele><time>2026-04-25T07:24:46.998Z</time></trkpt><trkpt lat="45.87845992846737" lon="12.035811157487796"><ele>167.0</ele><time>2026-04-25T07:24:47.998Z</time></trkpt><trkpt lat="45.87842956477487" lon="12.035704374303748"><ele>167.0</ele><time>2026-04-25T07:24:48.998Z</time></trkpt><trkpt lat="45.87841287771143" lon="12.035598345599324"><ele>167.0</ele><time>2026-04-25T07:24:49.998Z</time></trkpt><trkpt lat="45.87839910037096" lon="12.035493152837049"><ele>167.0</ele><time>2026-04-25T07:24:50.998Z</time></trkpt><trkpt lat="45.87838384456965" lon="12.035390793681676"><ele>167.0</ele><time>2026-04-25T07:24:51.998Z</time></trkpt><trkpt lat="45.878367683286584" lon="12.035291902628964"><ele>167.14285714285714</ele><time>2026-04-25T07:24:52.998Z</time></trkpt><trkpt lat="45.87835075534981" lon="12.035196831437387"><ele>167.28571428571428</ele><time>2026-04-25T07:24:53.998Z</time></trkpt><trkpt lat="45.87833308880512" lon="12.035102641896502"><ele>167.42857142857144</ele><time>2026-04-25T07:24:54.998Z</time></trkpt><trkpt lat="45.87833413001903" lon="12.035007078235184"><ele>167.57142857142856</ele><time>2026-04-25T07:24:55.998Z</time></trkpt><trkpt lat="45.878316677288836" lon="12.034915018440204"><ele>167.71428571428572</ele><time>2026-04-25T07:24:56.998Z</time></trkpt><trkpt lat="45.87829780490726" lon="12.034822024979377"><ele>167.85714285714286</ele><time>2026-04-25T07:24:57.998Z</time></trkpt><trkpt lat="45.878261318314024" lon="12.034741588483783"><ele>168.0</ele><time>2026-04-25T07:24:58.998Z</time></trkpt><trkpt lat="45.878256140404545" lon="12.03465066733386"><ele>168.0</ele><time>2026-04-25T07:24:59.998Z</time></trkpt><trkpt lat="45.878231190263456" lon="12.034567228262885"><ele>168.0</ele><time>2026-04-25T07:25:00.998Z</time></trkpt><trkpt lat="45.87819149358611" lon="12.034491329027272"><ele>168.0</ele><time>2026-04-25T07:25:01.998Z</time></trkpt><trkpt lat="45.87816664027527" lon="12.034402081380444"><ele>168.0</ele><time>2026-04-25T07:25:02.998Z</time></trkpt><trkpt lat="45.87815293647019" lon="12.034304150474084"><ele>168.0</ele><time>2026-04-25T07:25:03.998Z</time></trkpt><trkpt lat="45.878125282756656" lon="12.034212229222097"><ele>168.0</ele><time>2026-04-25T07:25:04.997Z</time></trkpt><trkpt lat="45.878096494441195" lon="12.034116738608164"><ele>168.0</ele><time>2026-04-25T07:25:05.997Z</time></trkpt><trkpt lat="45.87806665025934" lon="12.034019093653924"><ele>167.66666666666666</ele><time>2026-04-25T07:25:06.997Z</time></trkpt><trkpt lat="45.87803643048468" lon="12.033920219258716"><ele>167.33333333333334</ele><time>2026-04-25T07:25:08Z</time></trkpt><trkpt lat="45.87800067782969" lon="12.033818071291606"><ele>167.0</ele><time>2026-04-25T07:25:09Z</time></trkpt><trkpt lat="45.877963684365554" lon="12.033716534581197"><ele>166.66666666666669</ele><time>2026-04-25T07:25:10Z</time></trkpt><trkpt lat="45.87791953443871" lon="12.033610913343516"><ele>166.33333333333334</ele><time>2026-04-25T07:25:11Z</time></trkpt><trkpt lat="45.877868764384154" lon="12.033506689991329"><ele>166.0</ele><time>2026-04-25T07:25:12Z</time></trkpt><trkpt lat="45.87780304876925" lon="12.03342052842102"><ele>166.0</ele><time>2026-04-25T07:25:13Z</time></trkpt><trkpt lat="45.877750634442855" lon="12.03331890798936"><ele>166.0</ele><time>2026-04-25T07:25:14Z</time></trkpt><trkpt lat="45.87769361872426" lon="12.033220397091078"><ele>166.0</ele><time>2026-04-25T07:25:15Z</time></trkpt><trkpt lat="45.877635910647314" lon="12.033125268334867"><ele>166.0</ele><time>2026-04-25T07:25:16Z</time></trkpt><trkpt lat="45.87757818323895" lon="12.033028778086841"><ele>166.0</ele><time>2026-04-25T07:25:17Z</time></trkpt><trkpt lat="45.87751911260152" lon="12.032930795109948"><ele>166.0</ele><time>2026-04-25T07:25:18Z</time></trkpt><trkpt lat="45.87746087778076" lon="12.032833847787451"><ele>164.8</ele><time>2026-04-25T07:25:19Z</time></trkpt><trkpt lat="45.87740191513582" lon="12.03273481661095"><ele>163.60000000000002</ele><time>2026-04-25T07:25:20Z</time></trkpt><trkpt lat="45.877343122415525" lon="12.032634881094518"><ele>162.4</ele><time>2026-04-25T07:25:21Z</time></trkpt><trkpt lat="45.8772837878241" lon="12.032535423543154"><ele>161.2</ele><time>2026-04-25T07:25:22Z</time></trkpt><trkpt lat="45.877224120639944" lon="12.032440044485272"><ele>160.0</ele><time>2026-04-25T07:25:23Z</time></trkpt><trkpt lat="45.8771766197245" lon="12.03232076007289"><ele>160.0</ele><time>2026-04-25T07:25:24Z</time></trkpt><trkpt lat="45.87710442574044" lon="12.032231245840427"><ele>160.0</ele><time>2026-04-25T07:25:25Z</time></trkpt><trkpt lat="45.877043672761985" lon="12.032127004005535"><ele>160.0</ele><time>2026-04-25T07:25:26Z</time></trkpt><trkpt lat="45.87698101135721" lon="12.032020746582525"><ele>160.0</ele><time>2026-04-25T07:25:27Z</time></trkpt><trkpt lat="45.876917071961785" lon="12.031917064734634"><ele>160.0</ele><time>2026-04-25T07:25:28Z</time></trkpt><trkpt lat="45.876853065213524" lon="12.031812096331238"><ele>160.0</ele><time>2026-04-25T07:25:29Z</time></trkpt><trkpt lat="45.87679084067918" lon="12.031707277308026"><ele>160.0</ele><time>2026-04-25T07:25:30Z</time></trkpt><trkpt lat="45.876731246223066" lon="12.031606758744072"><ele>160.0</ele><time>2026-04-25T07:25:31Z</time></trkpt><trkpt lat="45.87667131685653" lon="12.031508057849393"><ele>160.0</ele><time>2026-04-25T07:25:32Z</time></trkpt><trkpt lat="45.87661530980327" lon="12.031411534916776"><ele>160.0</ele><time>2026-04-25T07:25:33Z</time></trkpt><trkpt lat="45.876570190260765" lon="12.03130362219437"><ele>159.83333333333334</ele><time>2026-04-25T07:25:34Z</time></trkpt><trkpt lat="45.876517359212706" lon="12.031215448398433"><ele>159.66666666666669</ele><time>2026-04-25T07:25:35Z</time></trkpt><trkpt lat="45.876452622684845" lon="12.031142995669114"><ele>159.5</ele><time>2026-04-25T07:25:36Z</time></trkpt><trkpt lat="45.876404402161185" lon="12.031061070491416"><ele>159.33333333333334</ele><time>2026-04-25T07:25:37Z</time></trkpt><trkpt lat="45.8763690933432" lon="12.030968008758741"><ele>159.16666666666666</ele><time>2026-04-25T07:25:38Z</time></trkpt><trkpt lat="45.87632397582611" lon="12.030891708642153"><ele>159.0</ele><time>2026-04-25T07:25:39Z</time></trkpt><trkpt lat="45.87627914391412" lon="12.030815405441437"><ele>159.4</ele><time>2026-04-25T07:25:40Z</time></trkpt><trkpt lat="45.87623642375827" lon="12.030742696503482"><ele>159.8</ele><time>2026-04-25T07:25:41Z</time></trkpt><trkpt lat="45.87619524002893" lon="12.030672602526074"><ele>160.20000000000002</ele><time>2026-04-25T07:25:42Z</time></trkpt><trkpt lat="45.87611866704471" lon="12.030545224162369"><ele>160.60000000000002</ele><time>2026-04-25T07:25:44Z</time></trkpt><trkpt lat="45.876049550306654" lon="12.030432581829245"><ele>161.0</ele><time>2026-04-25T07:25:46Z</time></trkpt><trkpt lat="45.875974302309295" lon="12.030342038819066"><ele>161.83333333333331</ele><time>2026-04-25T07:25:48Z</time></trkpt><trkpt lat="45.875910274322656" lon="12.0302439254161"><ele>162.66666666666666</ele><time>2026-04-25T07:25:50Z</time></trkpt><trkpt lat="45.8758556838028" lon="12.03014504563223"><ele>163.5</ele><time>2026-04-25T07:25:51.999Z</time></trkpt><trkpt lat="45.87578349571684" lon="12.03008371350804"><ele>164.33333333333334</ele><time>2026-04-25T07:25:53.999Z</time></trkpt><trkpt lat="45.87570432559284" lon="12.030055649866801"><ele>165.16666666666669</ele><time>2026-04-25T07:25:55.999Z</time></trkpt><trkpt lat="45.875630123577515" lon="12.030011740857645"><ele>166.0</ele><time>2026-04-25T07:25:57.999Z</time></trkpt><trkpt lat="45.87555634061935" lon="12.0299657059023"><ele>166.16666666666669</ele><time>2026-04-25T07:25:59.999Z</time></trkpt><trkpt lat="45.87548226552548" lon="12.0299221739571"><ele>166.33333333333334</ele><time>2026-04-25T07:26:01.999Z</time></trkpt><trkpt lat="45.875406343127516" lon="12.029875848603355"><ele>166.5</ele><time>2026-04-25T07:26:03.999Z</time></trkpt><trkpt lat="45.875327255088415" lon="12.029830685988744"><ele>166.66666666666666</ele><time>2026-04-25T07:26:05.999Z</time></trkpt><trkpt lat="45.87524657622189" lon="12.029779468082365"><ele>166.83333333333331</ele><time>2026-04-25T07:26:07.999Z</time></trkpt><trkpt lat="45.87516298591899" lon="12.029731127494687"><ele>167.0</ele><time>2026-04-25T07:26:09.999Z</time></trkpt><trkpt lat="45.87507310092471" lon="12.02968209847897"><ele>167.0</ele><time>2026-04-25T07:26:11.999Z</time></trkpt><trkpt lat="45.87498264631371" lon="12.029626475437196"><ele>167.0</ele><time>2026-04-25T07:26:13.999Z</time></trkpt><trkpt lat="45.874890892111445" lon="12.029570431262561"><ele>167.0</ele><time>2026-04-25T07:26:15.999Z</time></trkpt><trkpt lat="45.87479645317366" lon="12.029512663856405"><ele>167.0</ele><time>2026-04-25T07:26:17.999Z</time></trkpt><trkpt lat="45.87470308250493" lon="12.02945659017556"><ele>167.0</ele><time>2026-04-25T07:26:19.999Z</time></trkpt><trkpt lat="45.87460843412964" lon="12.0293969652398"><ele>167.0</ele><time>2026-04-25T07:26:21.999Z</time></trkpt><trkpt lat="45.87451548017503" lon="12.029340836670585"><ele>167.0</ele><time>2026-04-25T07:26:23.999Z</time></trkpt><trkpt lat="45.87442068467124" lon="12.029282109516219"><ele>167.0</ele><time>2026-04-25T07:26:25.999Z</time></trkpt><trkpt lat="45.874326341642764" lon="12.029221478963732"><ele>167.0</ele><time>2026-04-25T07:26:27.999Z</time></trkpt><trkpt lat="45.87423111423054" lon="12.029163085893703"><ele>167.0</ele><time>2026-04-25T07:26:29.999Z</time></trkpt><trkpt lat="45.87413662631161" lon="12.029096330971797"><ele>167.2</ele><time>2026-04-25T07:26:31.999Z</time></trkpt><trkpt lat="45.87404613232257" lon="12.029015512108554"><ele>167.39999999999998</ele><time>2026-04-25T07:26:33.999Z</time></trkpt><trkpt lat="45.87395546682825" lon="12.028928904615558"><ele>167.60000000000002</ele><time>2026-04-25T07:26:35.998Z</time></trkpt><trkpt lat="45.87386747767033" lon="12.028834190758962"><ele>167.8</ele><time>2026-04-25T07:26:37.998Z</time></trkpt><trkpt lat="45.87378273713542" lon="12.028728873920365"><ele>168.0</ele><time>2026-04-25T07:26:39.998Z</time></trkpt><trkpt lat="45.87370523912394" lon="12.028613906135245"><ele>168.0</ele><time>2026-04-25T07:26:41.998Z</time></trkpt><trkpt lat="45.873625389565184" lon="12.02850114607607"><ele>168.0</ele><time>2026-04-25T07:26:43.998Z</time></trkpt><trkpt lat="45.8735463224825" lon="12.028382103173948"><ele>168.0</ele><time>2026-04-25T07:26:45.998Z</time></trkpt><trkpt lat="45.87347498885381" lon="12.02825484057757"><ele>168.0</ele><time>2026-04-25T07:26:47.998Z</time></trkpt><trkpt lat="45.873404357024995" lon="12.028123691513043"><ele>168.5</ele><time>2026-04-25T07:26:49.998Z</time></trkpt><trkpt lat="45.87333398981417" lon="12.027991089088282"><ele>169.0</ele><time>2026-04-25T07:26:51.998Z</time></trkpt><trkpt lat="45.873269479516736" lon="12.027851318365402"><ele>169.5</ele><time>2026-04-25T07:26:53.998Z</time></trkpt><trkpt lat="45.873203770133465" lon="12.027715194652774"><ele>170.0</ele><time>2026-04-25T07:26:55.998Z</time></trkpt><trkpt lat="45.873137681333766" lon="12.027575555531676"><ele>170.5</ele><time>2026-04-25T07:26:57.998Z</time></trkpt><trkpt lat="45.87307325797534" lon="12.027431811705585"><ele>171.0</ele><time>2026-04-25T07:26:59.998Z</time></trkpt><trkpt lat="45.87300505118353" lon="12.027288990097459"><ele>171.5</ele><time>2026-04-25T07:27:01.998Z</time></trkpt><trkpt lat="45.872939866556116" lon="12.027145185162814"><ele>172.0</ele><time>2026-04-25T07:27:03.998Z</time></trkpt><trkpt lat="45.87286965193082" lon="12.027002551154725"><ele>172.0</ele><time>2026-04-25T07:27:05.998Z</time></trkpt><trkpt lat="45.87280094968646" lon="12.026860004707665"><ele>172.0</ele><time>2026-04-25T07:27:07.998Z</time></trkpt><trkpt lat="45.87273208598607" lon="12.026716653735434"><ele>172.0</ele><time>2026-04-25T07:27:09.998Z</time></trkpt><trkpt lat="45.87267005534487" lon="12.026578167912094"><ele>172.0</ele><time>2026-04-25T07:27:11.998Z</time></trkpt><trkpt lat="45.87260941591212" lon="12.026442139522752"><ele>172.5</ele><time>2026-04-25T07:27:14Z</time></trkpt><trkpt lat="45.87254406738359" lon="12.026302514046774"><ele>173.0</ele><time>2026-04-25T07:27:16Z</time></trkpt><trkpt lat="45.87247767076242" lon="12.02615423604147"><ele>173.5</ele><time>2026-04-25T07:27:18Z</time></trkpt><trkpt lat="45.872406708697554" lon="12.02600634346142"><ele>174.0</ele><time>2026-04-25T07:27:20Z</time></trkpt><trkpt lat="45.87233627856841" lon="12.025855841823752"><ele>173.25</ele><time>2026-04-25T07:27:22Z</time></trkpt><trkpt lat="45.87226615418106" lon="12.025707991985982"><ele>172.5</ele><time>2026-04-25T07:27:24Z</time></trkpt><trkpt lat="45.87219554907201" lon="12.025563426165691"><ele>171.75</ele><time>2026-04-25T07:27:26Z</time></trkpt><trkpt lat="45.87212907386324" lon="12.025418106536437"><ele>171.0</ele><time>2026-04-25T07:27:28Z</time></trkpt><trkpt lat="45.87206474614362" lon="12.025278321141123"><ele>171.0</ele><time>2026-04-25T07:27:30Z</time></trkpt><trkpt lat="45.87200308729713" lon="12.02514706926097"><ele>171.0</ele><time>2026-04-25T07:27:32Z</time></trkpt><trkpt lat="45.87194124382607" lon="12.025027558454786"><ele>171.0</ele><time>2026-04-25T07:27:34Z</time></trkpt><trkpt lat="45.87188653799863" lon="12.024897306282229"><ele>171.0</ele><time>2026-04-25T07:27:36Z</time></trkpt><trkpt lat="45.87182336883003" lon="12.024764000651539"><ele>171.0</ele><time>2026-04-25T07:27:38Z</time></trkpt><trkpt lat="45.87175701237171" lon="12.024630236924175"><ele>170.75</ele><time>2026-04-25T07:27:40Z</time></trkpt><trkpt lat="45.871690523007885" lon="12.024485208474479"><ele>170.5</ele><time>2026-04-25T07:27:42Z</time></trkpt><trkpt lat="45.87162234357426" lon="12.024344608862108"><ele>170.25</ele><time>2026-04-25T07:27:43.999Z</time></trkpt><trkpt lat="45.87155495444255" lon="12.024200706764958"><ele>170.0</ele><time>2026-04-25T07:27:45.999Z</time></trkpt><trkpt lat="45.87148391651122" lon="12.024054745552933"><ele>170.0</ele><time>2026-04-25T07:27:47.999Z</time></trkpt><trkpt lat="45.87141281438182" lon="12.023904707845212"><ele>170.0</ele><time>2026-04-25T07:27:49.999Z</time></trkpt><trkpt lat="45.87137913187612" lon="12.023827388453608"><ele>170.0</ele><time>2026-04-25T07:27:50.999Z</time></trkpt><trkpt lat="45.8713449571211" lon="12.02375037063876"><ele>170.0</ele><time>2026-04-25T07:27:51.999Z</time></trkpt><trkpt lat="45.8713082812428" lon="12.023675059633549"><ele>170.0</ele><time>2026-04-25T07:27:52.999Z</time></trkpt><trkpt lat="45.871270471919104" lon="12.02360055366782"><ele>170.0</ele><time>2026-04-25T07:27:53.999Z</time></trkpt><trkpt lat="45.87123603774335" lon="12.023524490688152"><ele>170.0</ele><time>2026-04-25T07:27:54.999Z</time></trkpt><trkpt lat="45.87120054876355" lon="12.02344767945969"><ele>170.16666666666666</ele><time>2026-04-25T07:27:55.999Z</time></trkpt><trkpt lat="45.87113263076295" lon="12.023297102685026"><ele>170.33333333333331</ele><time>2026-04-25T07:27:57.999Z</time></trkpt><trkpt lat="45.87109720980601" lon="12.023221216164169"><ele>170.5</ele><time>2026-04-25T07:27:58.999Z</time></trkpt><trkpt lat="45.87106089536071" lon="12.023142438789769"><ele>170.66666666666666</ele><time>2026-04-25T07:27:59.999Z</time></trkpt><trkpt lat="45.87102701849933" lon="12.023063964028564"><ele>170.83333333333334</ele><time>2026-04-25T07:28:00.999Z</time></trkpt><trkpt lat="45.870956415412266" lon="12.02291688112707"><ele>171.0</ele><time>2026-04-25T07:28:02.999Z</time></trkpt><trkpt lat="45.87089157690788" lon="12.022770940323934"><ele>170.8</ele><time>2026-04-25T07:28:04.999Z</time></trkpt><trkpt lat="45.87082338714515" lon="12.022636584102592"><ele>170.60000000000002</ele><time>2026-04-25T07:28:06.999Z</time></trkpt><trkpt lat="45.87077169239283" lon="12.022495576839988"><ele>170.4</ele><time>2026-04-25T07:28:08.999Z</time></trkpt><trkpt lat="45.87072486340832" lon="12.02236256349726"><ele>170.2</ele><time>2026-04-25T07:28:10.999Z</time></trkpt><trkpt lat="45.8707292330413" lon="12.022240730379076"><ele>170.0</ele><time>2026-04-25T07:28:12.998Z</time></trkpt><trkpt lat="45.87085324130527" lon="12.0220112675407"><ele>170.0</ele><time>2026-04-25T07:28:15.998Z</time></trkpt><trkpt lat="45.87091344787346" lon="12.021879649378745"><ele>170.0</ele><time>2026-04-25T07:28:17.998Z</time></trkpt><trkpt lat="45.87097992754859" lon="12.021746272234942"><ele>170.0</ele><time>2026-04-25T07:28:19.998Z</time></trkpt><trkpt lat="45.87103408322357" lon="12.02161521613875"><ele>170.0</ele><time>2026-04-25T07:28:21.998Z</time></trkpt><trkpt lat="45.87109063045205" lon="12.021493705430846"><ele>170.0</ele><time>2026-04-25T07:28:23.998Z</time></trkpt><trkpt lat="45.87114146660382" lon="12.021370642661003"><ele>170.0</ele><time>2026-04-25T07:28:25.998Z</time></trkpt><trkpt lat="45.87118205888883" lon="12.021242494377084"><ele>170.0</ele><time>2026-04-25T07:28:27.998Z</time></trkpt><trkpt lat="45.87123585135764" lon="12.021114565204567"><ele>170.0</ele><time>2026-04-25T07:28:29.998Z</time></trkpt><trkpt lat="45.871277333634225" lon="12.020969237808838"><ele>170.0</ele><time>2026-04-25T07:28:31.998Z</time></trkpt><trkpt lat="45.871329278912135" lon="12.020834598336577"><ele>170.0</ele><time>2026-04-25T07:28:33.998Z</time></trkpt><trkpt lat="45.87136999974788" lon="12.020707692423743"><ele>170.4</ele><time>2026-04-25T07:28:35.998Z</time></trkpt><trkpt lat="45.87141528187662" lon="12.020582353092315"><ele>170.8</ele><time>2026-04-25T07:28:37.998Z</time></trkpt><trkpt lat="45.871457928845736" lon="12.020467028558107"><ele>171.2</ele><time>2026-04-25T07:28:39.998Z</time></trkpt><trkpt lat="45.871504929592305" lon="12.02035211026917"><ele>171.6</ele><time>2026-04-25T07:28:41.998Z</time></trkpt><trkpt lat="45.8715399120121" lon="12.020235004334397"><ele>172.0</ele><time>2026-04-25T07:28:43.998Z</time></trkpt><trkpt lat="45.87158460720431" lon="12.020109146750169"><ele>172.0</ele><time>2026-04-25T07:28:45.998Z</time></trkpt><trkpt lat="45.87162261046503" lon="12.019982953292075"><ele>172.0</ele><time>2026-04-25T07:28:47.998Z</time></trkpt><trkpt lat="45.871664126351234" lon="12.019857699475564"><ele>172.0</ele><time>2026-04-25T07:28:49.998Z</time></trkpt><trkpt lat="45.87169807281649" lon="12.019748655806493"><ele>172.0</ele><time>2026-04-25T07:28:51.998Z</time></trkpt><trkpt lat="45.871737352314625" lon="12.019637436990397"><ele>172.0</ele><time>2026-04-25T07:28:53.998Z</time></trkpt><trkpt lat="45.871768985602486" lon="12.01952790584746"><ele>172.0</ele><time>2026-04-25T07:28:55.998Z</time></trkpt><trkpt lat="45.871805067189705" lon="12.01941840633935"><ele>172.16666666666669</ele><time>2026-04-25T07:28:57.997Z</time></trkpt><trkpt lat="45.871846823267695" lon="12.019316265520013"><ele>172.33333333333334</ele><time>2026-04-25T07:28:59.997Z</time></trkpt><trkpt lat="45.87188532812491" lon="12.019221245218352"><ele>172.5</ele><time>2026-04-25T07:29:01.997Z</time></trkpt><trkpt lat="45.87191854549974" lon="12.019122701603672"><ele>172.66666666666666</ele><time>2026-04-25T07:29:03.997Z</time></trkpt><trkpt lat="45.87195825153553" lon="12.019023294432406"><ele>172.83333333333331</ele><time>2026-04-25T07:29:05.997Z</time></trkpt><trkpt lat="45.87200035486208" lon="12.018921345714958"><ele>173.0</ele><time>2026-04-25T07:29:07.997Z</time></trkpt><trkpt lat="45.87204254117695" lon="12.018827422611272"><ele>173.28571428571428</ele><time>2026-04-25T07:29:09.997Z</time></trkpt><trkpt lat="45.87208314906145" lon="12.018735185766458"><ele>173.57142857142858</ele><time>2026-04-25T07:29:11.997Z</time></trkpt><trkpt lat="45.87212706971536" lon="12.018646986113065"><ele>173.85714285714286</ele><time>2026-04-25T07:29:13.997Z</time></trkpt><trkpt lat="45.87216764995674" lon="12.01857421248082"><ele>174.14285714285714</ele><time>2026-04-25T07:29:15.997Z</time></trkpt><trkpt lat="45.87221065654276" lon="12.018492832038321"><ele>174.42857142857144</ele><time>2026-04-25T07:29:20Z</time></trkpt><trkpt lat="45.87225420654645" lon="12.01841526796871"><ele>174.71428571428572</ele><time>2026-04-25T07:29:23Z</time></trkpt><trkpt lat="45.872297873227794" lon="12.01832538436001"><ele>175.0</ele><time>2026-04-25T07:29:27Z</time></trkpt><trkpt lat="45.87233707490127" lon="12.018230076124508"><ele>175.0</ele><time>2026-04-25T07:29:31Z</time></trkpt><trkpt lat="45.87238712458613" lon="12.018152779212732"><ele>175.0</ele><time>2026-04-25T07:29:35Z</time></trkpt><trkpt lat="45.87243163841183" lon="12.018072651689366"><ele>175.0</ele><time>2026-04-25T07:29:38Z</time></trkpt><trkpt lat="45.87247488674162" lon="12.017986850751766"><ele>175.0</ele><time>2026-04-25T07:29:41Z</time></trkpt><trkpt lat="45.872516885450636" lon="12.017899003104569"><ele>175.0</ele><time>2026-04-25T07:29:44Z</time></trkpt><trkpt lat="45.872562000765654" lon="12.01779494823492"><ele>175.0</ele><time>2026-04-25T07:29:47.999Z</time></trkpt><trkpt lat="45.87261190165793" lon="12.017695472465649"><ele>175.0</ele><time>2026-04-25T07:29:50.999Z</time></trkpt><trkpt lat="45.872653733727624" lon="12.017604987375986"><ele>175.0</ele><time>2026-04-25T07:29:53.999Z</time></trkpt><trkpt lat="45.87267537039188" lon="12.017515303016836"><ele>175.0</ele><time>2026-04-25T07:29:58.999Z</time></trkpt><trkpt lat="45.87268316767747" lon="12.01742101611636"><ele>175.0</ele><time>2026-04-25T07:30:01.999Z</time></trkpt><trkpt lat="45.87265337309018" lon="12.017331189652637"><ele>175.0</ele><time>2026-04-25T07:30:05.999Z</time></trkpt><trkpt lat="45.872595342483876" lon="12.017281294104988"><ele>175.0</ele><time>2026-04-25T07:30:07.999Z</time></trkpt><trkpt lat="45.87252843544791" lon="12.017229855630525"><ele>175.0</ele><time>2026-04-25T07:30:09.999Z</time></trkpt><trkpt lat="45.87246061480135" lon="12.01717478005859"><ele>175.0</ele><time>2026-04-25T07:30:11.999Z</time></trkpt><trkpt lat="45.87238977401168" lon="12.01712345163358"><ele>175.0</ele><time>2026-04-25T07:30:13.999Z</time></trkpt><trkpt lat="45.87231552520768" lon="12.017074325671329"><ele>175.0</ele><time>2026-04-25T07:30:15.999Z</time></trkpt><trkpt lat="45.87223437949003" lon="12.017011957077576"><ele>175.0</ele><time>2026-04-25T07:30:17.999Z</time></trkpt><trkpt lat="45.872151484317776" lon="12.01694449385699"><ele>175.0</ele><time>2026-04-25T07:30:19.999Z</time></trkpt><trkpt lat="45.87206507930752" lon="12.016883700810757"><ele>175.0</ele><time>2026-04-25T07:30:21.999Z</time></trkpt><trkpt lat="45.871974677777445" lon="12.016827067673567"><ele>175.0</ele><time>2026-04-25T07:30:23.999Z</time></trkpt><trkpt lat="45.8718830018945" lon="12.016763030602412"><ele>175.0</ele><time>2026-04-25T07:30:25.999Z</time></trkpt><trkpt lat="45.87178717779296" lon="12.01671002520612"><ele>175.0</ele><time>2026-04-25T07:30:27.999Z</time></trkpt><trkpt lat="45.87169278940397" lon="12.016650395000491"><ele>175.0</ele><time>2026-04-25T07:30:29.998Z</time></trkpt><trkpt lat="45.871605364297125" lon="12.016579656460957"><ele>175.0</ele><time>2026-04-25T07:30:31.998Z</time></trkpt><trkpt lat="45.87152387452607" lon="12.01649422570662"><ele>175.2</ele><time>2026-04-25T07:30:33.998Z</time></trkpt><trkpt lat="45.87145253745397" lon="12.01639382779245"><ele>175.4</ele><time>2026-04-25T07:30:35.998Z</time></trkpt><trkpt lat="45.8713909769706" lon="12.016279264267176"><ele>175.60000000000002</ele><time>2026-04-25T07:30:37.998Z</time></trkpt><trkpt lat="45.87133123313143" lon="12.01616436022257"><ele>175.8</ele><time>2026-04-25T07:30:39.998Z</time></trkpt><trkpt lat="45.87127420243675" lon="12.016044558996821"><ele>176.0</ele><time>2026-04-25T07:30:41.998Z</time></trkpt><trkpt lat="45.87123149730187" lon="12.015906858668457"><ele>175.8</ele><time>2026-04-25T07:30:43.998Z</time></trkpt><trkpt lat="45.871173439445386" lon="12.015785760909063"><ele>175.60000000000002</ele><time>2026-04-25T07:30:45.998Z</time></trkpt><trkpt lat="45.871113325916156" lon="12.015665302358354"><ele>175.4</ele><time>2026-04-25T07:30:47.998Z</time></trkpt><trkpt lat="45.87105268127059" lon="12.015551930232705"><ele>175.2</ele><time>2026-04-25T07:30:49.998Z</time></trkpt><trkpt lat="45.87098623334041" lon="12.015444846525321"><ele>175.0</ele><time>2026-04-25T07:30:51.998Z</time></trkpt><trkpt lat="45.87091222999327" lon="12.015348959262722"><ele>175.0</ele><time>2026-04-25T07:30:53.998Z</time></trkpt><trkpt lat="45.87084024915494" lon="12.01525891512786"><ele>175.0</ele><time>2026-04-25T07:30:55.998Z</time></trkpt><trkpt lat="45.87077910319141" lon="12.015172610816881"><ele>175.0</ele><time>2026-04-25T07:30:57.998Z</time></trkpt><trkpt lat="45.87075675506013" lon="12.01508426414058"><ele>175.0</ele><time>2026-04-25T07:30:59.998Z</time></trkpt><trkpt lat="45.87082147332122" lon="12.015041399756921"><ele>175.0</ele><time>2026-04-25T07:31:00.998Z</time></trkpt><trkpt lat="45.8709046968389" lon="12.014955843043055"><ele>175.0</ele><time>2026-04-25T07:31:02.998Z</time></trkpt><trkpt lat="45.870976978149294" lon="12.014853391386549"><ele>175.6</ele><time>2026-04-25T07:31:04.998Z</time></trkpt><trkpt lat="45.8710690603495" lon="12.014786871665946"><ele>176.2</ele><time>2026-04-25T07:31:06.998Z</time></trkpt><trkpt lat="45.87114522743622" lon="12.014690474179277"><ele>176.8</ele><time>2026-04-25T07:31:08.998Z</time></trkpt><trkpt lat="45.87122400326838" lon="12.014604700442982"><ele>177.4</ele><time>2026-04-25T07:31:10.998Z</time></trkpt><trkpt lat="45.87131813865218" lon="12.014531515599904"><ele>178.0</ele><time>2026-04-25T07:31:12.998Z</time></trkpt><trkpt lat="45.871403977669445" lon="12.014441377224284"><ele>178.0</ele><time>2026-04-25T07:31:14.997Z</time></trkpt><trkpt lat="45.871479796237644" lon="12.014331561878418"><ele>178.0</ele><time>2026-04-25T07:31:16.997Z</time></trkpt><trkpt lat="45.871573143526646" lon="12.014249744113947"><ele>178.0</ele><time>2026-04-25T07:31:18.997Z</time></trkpt><trkpt lat="45.871640948728015" lon="12.014126844015076"><ele>178.0</ele><time>2026-04-25T07:31:20.997Z</time></trkpt><trkpt lat="45.87172404532438" lon="12.014031337270765"><ele>178.0</ele><time>2026-04-25T07:31:22.997Z</time></trkpt><trkpt lat="45.871789835098134" lon="12.013933736736197"><ele>178.0</ele><time>2026-04-25T07:31:24.997Z</time></trkpt><trkpt lat="45.871860221938995" lon="12.013838169867109"><ele>178.0</ele><time>2026-04-25T07:31:27Z</time></trkpt><trkpt lat="45.87192982337232" lon="12.01375148322199"><ele>178.0</ele><time>2026-04-25T07:31:29Z</time></trkpt><trkpt lat="45.87197227577799" lon="12.013642674575774"><ele>178.0</ele><time>2026-04-25T07:31:31Z</time></trkpt><trkpt lat="45.87200184345302" lon="12.013543666650566"><ele>178.0</ele><time>2026-04-25T07:31:33Z</time></trkpt><trkpt lat="45.87202311997236" lon="12.013440445758778"><ele>178.0</ele><time>2026-04-25T07:31:35Z</time></trkpt><trkpt lat="45.871998504554995" lon="12.013317067915901"><ele>178.2</ele><time>2026-04-25T07:31:37Z</time></trkpt><trkpt lat="45.87209874070712" lon="12.013209126440088"><ele>178.4</ele><time>2026-04-25T07:31:40Z</time></trkpt><trkpt lat="45.87216210315857" lon="12.013119389257184"><ele>178.6</ele><time>2026-04-25T07:31:42Z</time></trkpt><trkpt lat="45.87222985030959" lon="12.013027950808285"><ele>178.79999999999998</ele><time>2026-04-25T07:31:44Z</time></trkpt><trkpt lat="45.8723014119974" lon="12.01293591700452"><ele>179.0</ele><time>2026-04-25T07:31:46Z</time></trkpt><trkpt lat="45.8723783441903" lon="12.01284669383888"><ele>179.0</ele><time>2026-04-25T07:31:48Z</time></trkpt><trkpt lat="45.87245889793571" lon="12.01275393128631"><ele>179.0</ele><time>2026-04-25T07:31:50Z</time></trkpt><trkpt lat="45.87253836257052" lon="12.012664323301218"><ele>179.0</ele><time>2026-04-25T07:31:52Z</time></trkpt><trkpt lat="45.87262162293974" lon="12.012569476880932"><ele>179.0</ele><time>2026-04-25T07:31:54Z</time></trkpt><trkpt lat="45.872698811365744" lon="12.012475825836876"><ele>179.0</ele><time>2026-04-25T07:31:56Z</time></trkpt><trkpt lat="45.87277916420229" lon="12.012383302779519"><ele>179.0</ele><time>2026-04-25T07:31:58Z</time></trkpt><trkpt lat="45.87285902648042" lon="12.012304213383835"><ele>179.0</ele><time>2026-04-25T07:32:00Z</time></trkpt><trkpt lat="45.87293685416003" lon="12.012235058919751"><ele>179.0</ele><time>2026-04-25T07:32:01.999Z</time></trkpt><trkpt lat="45.87301043121919" lon="12.01217926074568"><ele>179.0</ele><time>2026-04-25T07:32:03.999Z</time></trkpt><trkpt lat="45.87308223006745" lon="12.012142346091684"><ele>179.0</ele><time>2026-04-25T07:32:05.999Z</time></trkpt><trkpt lat="45.87311400721491" lon="12.011904149326337"><ele>179.0</ele><time>2026-04-25T07:32:08.999Z</time></trkpt><trkpt lat="45.87309567959232" lon="12.011771666451775"><ele>179.0</ele><time>2026-04-25T07:32:10.999Z</time></trkpt><trkpt lat="45.8730653994615" lon="12.011637943132515"><ele>179.0</ele><time>2026-04-25T07:32:12.999Z</time></trkpt><trkpt lat="45.87303279551605" lon="12.011518683355886"><ele>179.0</ele><time>2026-04-25T07:32:14.999Z</time></trkpt><trkpt lat="45.8729810294012" lon="12.011404616806033"><ele>179.0</ele><time>2026-04-25T07:32:16.999Z</time></trkpt><trkpt lat="45.87294590994625" lon="12.011309917565724"><ele>178.79999999999998</ele><time>2026-04-25T07:32:18.999Z</time></trkpt><trkpt lat="45.87303596971229" lon="12.011247551703782"><ele>178.6</ele><time>2026-04-25T07:32:20.999Z</time></trkpt><trkpt lat="45.8730984635599" lon="12.011157300526156"><ele>178.4</ele><time>2026-04-25T07:32:22.999Z</time></trkpt><trkpt lat="45.873168961548714" lon="12.011060394137868"><ele>178.2</ele><time>2026-04-25T07:32:24.999Z</time></trkpt><trkpt lat="45.87323202868697" lon="12.01095006309479"><ele>178.0</ele><time>2026-04-25T07:32:26.999Z</time></trkpt><trkpt lat="45.873312743538314" lon="12.010857654146415"><ele>177.8</ele><time>2026-04-25T07:32:28.999Z</time></trkpt><trkpt lat="45.87338833008586" lon="12.010749578288001"><ele>177.60000000000002</ele><time>2026-04-25T07:32:30.999Z</time></trkpt><trkpt lat="45.873465688868144" lon="12.010640314920284"><ele>177.39999999999998</ele><time>2026-04-25T07:32:32.999Z</time></trkpt><trkpt lat="45.873544767845935" lon="12.010529861945562"><ele>177.2</ele><time>2026-04-25T07:32:34.999Z</time></trkpt><trkpt lat="45.8736239886497" lon="12.010419210806303"><ele>177.0</ele><time>2026-04-25T07:32:36.999Z</time></trkpt><trkpt lat="45.87370108054774" lon="12.010311533213176"><ele>177.0</ele><time>2026-04-25T07:32:38.999Z</time></trkpt><trkpt lat="45.8737816095463" lon="12.01019905489025"><ele>177.0</ele><time>2026-04-25T07:32:40.999Z</time></trkpt><trkpt lat="45.87386042337049" lon="12.010088578854472"><ele>177.0</ele><time>2026-04-25T07:32:42.999Z</time></trkpt><trkpt lat="45.87393890633242" lon="12.009977935178943"><ele>177.0</ele><time>2026-04-25T07:32:44.998Z</time></trkpt><trkpt lat="45.874015618958865" lon="12.009869787223371"><ele>177.0</ele><time>2026-04-25T07:32:46.998Z</time></trkpt><trkpt lat="45.874080228428085" lon="12.009742097331456"><ele>177.39999999999998</ele><time>2026-04-25T07:32:48.998Z</time></trkpt><trkpt lat="45.874147759359076" lon="12.009626628630704"><ele>177.79999999999998</ele><time>2026-04-25T07:32:50.998Z</time></trkpt><trkpt lat="45.87421174319476" lon="12.009505914165532"><ele>178.2</ele><time>2026-04-25T07:32:52.998Z</time></trkpt><trkpt lat="45.87427942755256" lon="12.009383142427142"><ele>178.6</ele><time>2026-04-25T07:32:54.998Z</time></trkpt><trkpt lat="45.874335850717614" lon="12.009255973281611"><ele>179.0</ele><time>2026-04-25T07:32:56.998Z</time></trkpt><trkpt lat="45.87441671119417" lon="12.009153260464883"><ele>179.0</ele><time>2026-04-25T07:32:58.998Z</time></trkpt><trkpt lat="45.87448709500683" lon="12.0090329900609"><ele>179.0</ele><time>2026-04-25T07:33:00.998Z</time></trkpt><trkpt lat="45.874559423967916" lon="12.00891276500998"><ele>179.0</ele><time>2026-04-25T07:33:02.998Z</time></trkpt><trkpt lat="45.874632400092004" lon="12.008791636571416"><ele>179.0</ele><time>2026-04-25T07:33:04.998Z</time></trkpt><trkpt lat="45.87470404380949" lon="12.008672719582973"><ele>179.0</ele><time>2026-04-25T07:33:06.998Z</time></trkpt><trkpt lat="45.87477508547745" lon="12.008555648784204"><ele>179.0</ele><time>2026-04-25T07:33:08.998Z</time></trkpt><trkpt lat="45.8748427486323" lon="12.008445836302503"><ele>179.0</ele><time>2026-04-25T07:33:10.998Z</time></trkpt><trkpt lat="45.87490753810417" lon="12.00834507685942"><ele>179.0</ele><time>2026-04-25T07:33:12.998Z</time></trkpt><trkpt lat="45.874973664389444" lon="12.008260990849132"><ele>179.0</ele><time>2026-04-25T07:33:14.998Z</time></trkpt><trkpt lat="45.87499398648888" lon="12.008144170405947"><ele>179.0</ele><time>2026-04-25T07:33:16.998Z</time></trkpt><trkpt lat="45.87497416807576" lon="12.008052261012535"><ele>179.0</ele><time>2026-04-25T07:33:18.998Z</time></trkpt><trkpt lat="45.87493517819349" lon="12.007952676368085"><ele>179.39999999999998</ele><time>2026-04-25T07:33:20.998Z</time></trkpt><trkpt lat="45.87486581553209" lon="12.007890039433564"><ele>179.8</ele><time>2026-04-25T07:33:22.998Z</time></trkpt><trkpt lat="45.874799001805954" lon="12.007814102140808"><ele>180.2</ele><time>2026-04-25T07:33:24.998Z</time></trkpt><trkpt lat="45.87472907375971" lon="12.007725970355391"><ele>180.60000000000002</ele><time>2026-04-25T07:33:26.998Z</time></trkpt><trkpt lat="45.87464530984348" lon="12.007656645657187"><ele>181.0</ele><time>2026-04-25T07:33:28.997Z</time></trkpt><trkpt lat="45.874582921972596" lon="12.007556753888618"><ele>180.8</ele><time>2026-04-25T07:33:30.997Z</time></trkpt><trkpt lat="45.87451615744269" lon="12.007460041901329"><ele>180.60000000000002</ele><time>2026-04-25T07:33:33Z</time></trkpt><trkpt lat="45.87444718507686" lon="12.007367886344232"><ele>180.4</ele><time>2026-04-25T07:33:35Z</time></trkpt><trkpt lat="45.87437794224274" lon="12.007270730576355"><ele>180.2</ele><time>2026-04-25T07:33:37Z</time></trkpt><trkpt lat="45.87431174409176" lon="12.007168837262439"><ele>180.0</ele><time>2026-04-25T07:33:39Z</time></trkpt><trkpt lat="45.874243306110095" lon="12.00707040529613"><ele>180.4</ele><time>2026-04-25T07:33:41Z</time></trkpt><trkpt lat="45.87417117527874" lon="12.00697754162707"><ele>180.8</ele><time>2026-04-25T07:33:43Z</time></trkpt><trkpt lat="45.87409465382397" lon="12.006889042218974"><ele>181.2</ele><time>2026-04-25T07:33:45Z</time></trkpt><trkpt lat="45.87401846315189" lon="12.006795719499602"><ele>181.6</ele><time>2026-04-25T07:33:47Z</time></trkpt><trkpt lat="45.873940370817834" lon="12.006698757174052"><ele>182.0</ele><time>2026-04-25T07:33:49Z</time></trkpt><trkpt lat="45.87386116993533" lon="12.006597083246339"><ele>182.0</ele><time>2026-04-25T07:33:51Z</time></trkpt><trkpt lat="45.873783723003996" lon="12.006485448259248"><ele>182.0</ele><time>2026-04-25T07:33:53Z</time></trkpt><trkpt lat="45.87371739339684" lon="12.006366587971106"><ele>182.0</ele><time>2026-04-25T07:33:55Z</time></trkpt><trkpt lat="45.87367996235864" lon="12.006221381507704"><ele>182.0</ele><time>2026-04-25T07:33:57Z</time></trkpt><trkpt lat="45.873616131273714" lon="12.006101239824591"><ele>182.0</ele><time>2026-04-25T07:33:59Z</time></trkpt><trkpt lat="45.87354556874018" lon="12.005985478613123"><ele>182.0</ele><time>2026-04-25T07:34:01Z</time></trkpt><trkpt lat="45.87347368973404" lon="12.0058791625182"><ele>182.0</ele><time>2026-04-25T07:34:03Z</time></trkpt><trkpt lat="45.87339852429241" lon="12.005773308862096"><ele>182.0</ele><time>2026-04-25T07:34:05Z</time></trkpt><trkpt lat="45.87332226998971" lon="12.005669375346733"><ele>182.0</ele><time>2026-04-25T07:34:07Z</time></trkpt><trkpt lat="45.87324701193756" lon="12.005566799784148"><ele>182.0</ele><time>2026-04-25T07:34:09Z</time></trkpt><trkpt lat="45.87317104242685" lon="12.00546612493587"><ele>182.2</ele><time>2026-04-25T07:34:11Z</time></trkpt><trkpt lat="45.873090517218834" lon="12.00537485567257"><ele>182.39999999999998</ele><time>2026-04-25T07:34:13Z</time></trkpt><trkpt lat="45.87299670137699" lon="12.005306530981068"><ele>182.60000000000002</ele><time>2026-04-25T07:34:15Z</time></trkpt><trkpt lat="45.87290703001288" lon="12.005258476080883"><ele>182.8</ele><time>2026-04-25T07:34:17Z</time></trkpt><trkpt lat="45.872829331885015" lon="12.005210705332201"><ele>183.0</ele><time>2026-04-25T07:34:18.999Z</time></trkpt><trkpt lat="45.8727640351169" lon="12.005144934619862"><ele>183.0</ele><time>2026-04-25T07:34:21.999Z</time></trkpt><trkpt lat="45.87284496817658" lon="12.0050608549055"><ele>183.0</ele><time>2026-04-25T07:34:24.999Z</time></trkpt><trkpt lat="45.87290910821601" lon="12.005000895044889"><ele>183.0</ele><time>2026-04-25T07:34:26.999Z</time></trkpt><trkpt lat="45.872971788846336" lon="12.00492378258614"><ele>183.0</ele><time>2026-04-25T07:34:28.999Z</time></trkpt><trkpt lat="45.873045257066714" lon="12.00486505583211"><ele>183.0</ele><time>2026-04-25T07:34:30.999Z</time></trkpt><trkpt lat="45.87310576760665" lon="12.004801237246697"><ele>183.0</ele><time>2026-04-25T07:34:32.999Z</time></trkpt><trkpt lat="45.87317128166938" lon="12.004732142963768"><ele>183.0</ele><time>2026-04-25T07:34:34.999Z</time></trkpt><trkpt lat="45.873247180423476" lon="12.004652100455266"><ele>183.0</ele><time>2026-04-25T07:34:36.999Z</time></trkpt><trkpt lat="45.873320468940264" lon="12.004577297203683"><ele>183.0</ele><time>2026-04-25T07:34:38.999Z</time></trkpt><trkpt lat="45.87338935027576" lon="12.00450569694533"><ele>183.0</ele><time>2026-04-25T07:34:40.999Z</time></trkpt><trkpt lat="45.873452385160135" lon="12.004440699966773"><ele>183.0</ele><time>2026-04-25T07:34:42.999Z</time></trkpt><trkpt lat="45.87351013435099" lon="12.004383843820667"><ele>183.0</ele><time>2026-04-25T07:34:44.999Z</time></trkpt><trkpt lat="45.87356803008518" lon="12.004330257726634"><ele>183.0</ele><time>2026-04-25T07:34:46.999Z</time></trkpt><trkpt lat="45.873509607735784" lon="12.004129663764822"><ele>183.0</ele><time>2026-04-25T07:34:47.999Z</time></trkpt><trkpt lat="45.87349953496697" lon="12.003960272816155"><ele>183.0</ele><time>2026-04-25T07:34:49.999Z</time></trkpt><trkpt lat="45.87346593584759" lon="12.003809227544139"><ele>183.0</ele><time>2026-04-25T07:34:51.999Z</time></trkpt><trkpt lat="45.8734268597655" lon="12.003662215489365"><ele>183.0</ele><time>2026-04-25T07:34:53.999Z</time></trkpt><trkpt lat="45.87338873691325" lon="12.003519166809706"><ele>183.0</ele><time>2026-04-25T07:34:55.999Z</time></trkpt><trkpt lat="45.87335239392946" lon="12.00337225436823"><ele>183.0</ele><time>2026-04-25T07:34:57.999Z</time></trkpt><trkpt lat="45.873319673611554" lon="12.003228051348545"><ele>183.0</ele><time>2026-04-25T07:34:59.999Z</time></trkpt><trkpt lat="45.873295280807994" lon="12.003096528164129"><ele>183.0</ele><time>2026-04-25T07:35:01.998Z</time></trkpt><trkpt lat="45.87328383398059" lon="12.002969054440273"><ele>182.16666666666666</ele><time>2026-04-25T07:35:03.998Z</time></trkpt><trkpt lat="45.87328234386494" lon="12.002849238748038"><ele>181.33333333333334</ele><time>2026-04-25T07:35:05.998Z</time></trkpt><trkpt lat="45.873288638370575" lon="12.002737941438316"><ele>180.5</ele><time>2026-04-25T07:35:07.998Z</time></trkpt><trkpt lat="45.87334029868204" lon="12.002674381398968"><ele>179.66666666666669</ele><time>2026-04-25T07:35:09.998Z</time></trkpt><trkpt lat="45.873423835975316" lon="12.0026132132975"><ele>178.83333333333334</ele><time>2026-04-25T07:35:11.998Z</time></trkpt><trkpt lat="45.873526705128974" lon="12.002553512055108"><ele>178.0</ele><time>2026-04-25T07:35:13.998Z</time></trkpt><trkpt lat="45.87358702126201" lon="12.002522700490323"><ele>176.14285714285714</ele><time>2026-04-25T07:35:14.998Z</time></trkpt><trkpt lat="45.873643211960584" lon="12.002467310289369"><ele>174.28571428571428</ele><time>2026-04-25T07:35:15.998Z</time></trkpt><trkpt lat="45.87370727261857" lon="12.002432463235996"><ele>172.42857142857144</ele><time>2026-04-25T07:35:16.998Z</time></trkpt><trkpt lat="45.87377644005386" lon="12.002415888076818"><ele>170.57142857142856</ele><time>2026-04-25T07:35:17.998Z</time></trkpt><trkpt lat="45.873842598993086" lon="12.002375805213731"><ele>168.71428571428572</ele><time>2026-04-25T07:35:18.998Z</time></trkpt><trkpt lat="45.87391541517069" lon="12.002326024777316"><ele>166.85714285714286</ele><time>2026-04-25T07:35:19.998Z</time></trkpt><trkpt lat="45.87398056303911" lon="12.002253212375022"><ele>165.0</ele><time>2026-04-25T07:35:20.998Z</time></trkpt><trkpt lat="45.87405425717042" lon="12.002204989869186"><ele>165.00000000000003</ele><time>2026-04-25T07:35:21.998Z</time></trkpt><trkpt lat="45.8741265430731" lon="12.002147905642541"><ele>165.0</ele><time>2026-04-25T07:35:22.998Z</time></trkpt><trkpt lat="45.87419294187557" lon="12.002093100245384"><ele>165.0</ele><time>2026-04-25T07:35:23.998Z</time></trkpt><trkpt lat="45.874255728419655" lon="12.002037519555552"><ele>165.0</ele><time>2026-04-25T07:35:24.998Z</time></trkpt><trkpt lat="45.874318680987685" lon="12.001989420506918"><ele>165.0</ele><time>2026-04-25T07:35:25.998Z</time></trkpt><trkpt lat="45.87437625762366" lon="12.001936623793446"><ele>165.00000000000003</ele><time>2026-04-25T07:35:26.998Z</time></trkpt><trkpt lat="45.87443522154958" lon="12.001891978600174"><ele>165.0</ele><time>2026-04-25T07:35:27.998Z</time></trkpt><trkpt lat="45.87449858550028" lon="12.001841520756853"><ele>166.0</ele><time>2026-04-25T07:35:28.998Z</time></trkpt><trkpt lat="45.87456077599612" lon="12.001793383924594"><ele>167.0</ele><time>2026-04-25T07:35:29.998Z</time></trkpt><trkpt lat="45.87462408160679" lon="12.001744483421296"><ele>168.0</ele><time>2026-04-25T07:35:30.998Z</time></trkpt><trkpt lat="45.87468862729157" lon="12.001694886650286"><ele>169.0</ele><time>2026-04-25T07:35:31.998Z</time></trkpt><trkpt lat="45.874747609080735" lon="12.001655930039039"><ele>170.0</ele><time>2026-04-25T07:35:32.998Z</time></trkpt><trkpt lat="45.874850964288804" lon="12.001573357627096"><ele>171.0</ele><time>2026-04-25T07:35:34.998Z</time></trkpt><trkpt lat="45.874914021638666" lon="12.00151479141486"><ele>169.20000000000002</ele><time>2026-04-25T07:35:35.998Z</time></trkpt><trkpt lat="45.8749857219997" lon="12.001457373049416"><ele>167.4</ele><time>2026-04-25T07:35:37Z</time></trkpt><trkpt lat="45.87505988594815" lon="12.001395461375754"><ele>165.6</ele><time>2026-04-25T07:35:38Z</time></trkpt><trkpt lat="45.87513456180167" lon="12.001315339286037"><ele>163.8</ele><time>2026-04-25T07:35:39Z</time></trkpt><trkpt lat="45.87522540648093" lon="12.001248885588012"><ele>162.0</ele><time>2026-04-25T07:35:40Z</time></trkpt><trkpt lat="45.87530452401202" lon="12.001158912521081"><ele>162.0</ele><time>2026-04-25T07:35:41Z</time></trkpt><trkpt lat="45.87538061079901" lon="12.0010716750538"><ele>162.0</ele><time>2026-04-25T07:35:42Z</time></trkpt><trkpt lat="45.875457397135484" lon="12.00098389559599"><ele>162.0</ele><time>2026-04-25T07:35:42.999Z</time></trkpt><trkpt lat="45.87553897326687" lon="12.000895219903127"><ele>162.0</ele><time>2026-04-25T07:35:43.999Z</time></trkpt><trkpt lat="45.875627515722186" lon="12.000810773600941"><ele>162.0</ele><time>2026-04-25T07:35:44.999Z</time></trkpt><trkpt lat="45.87571573895985" lon="12.000716587011688"><ele>162.8</ele><time>2026-04-25T07:35:45.999Z</time></trkpt><trkpt lat="45.87581480120074" lon="12.000642008874664"><ele>163.6</ele><time>2026-04-25T07:35:46.999Z</time></trkpt><trkpt lat="45.87591776478249" lon="12.000568893488358"><ele>164.4</ele><time>2026-04-25T07:35:47.999Z</time></trkpt><trkpt lat="45.876012754381826" lon="12.000489031240551"><ele>165.20000000000002</ele><time>2026-04-25T07:35:48.999Z</time></trkpt><trkpt lat="45.87609798438199" lon="12.000410544362042"><ele>166.0</ele><time>2026-04-25T07:35:50Z</time></trkpt><trkpt lat="45.876177085491996" lon="12.000337569516834"><ele>166.0</ele><time>2026-04-25T07:35:50.999Z</time></trkpt><trkpt lat="45.876252880425426" lon="12.000277965291014"><ele>166.0</ele><time>2026-04-25T07:35:51.999Z</time></trkpt><trkpt lat="45.876334826114395" lon="12.000215953727702"><ele>166.0</ele><time>2026-04-25T07:35:52.999Z</time></trkpt><trkpt lat="45.876420962522445" lon="12.000147546709448"><ele>166.0</ele><time>2026-04-25T07:35:53.999Z</time></trkpt><trkpt lat="45.876483978413056" lon="12.00009412791435"><ele>166.0</ele><time>2026-04-25T07:35:54.999Z</time></trkpt><trkpt lat="45.87655423236188" lon="12.000034317852172"><ele>166.0</ele><time>2026-04-25T07:35:55.999Z</time></trkpt><trkpt lat="45.8766251326199" lon="11.999977911092122"><ele>166.0</ele><time>2026-04-25T07:35:56.999Z</time></trkpt><trkpt lat="45.876690137793965" lon="11.99991425143951"><ele>166.0</ele><time>2026-04-25T07:35:57.999Z</time></trkpt><trkpt lat="45.87675839280135" lon="11.999858693031722"><ele>166.0</ele><time>2026-04-25T07:35:58.999Z</time></trkpt><trkpt lat="45.87682689157383" lon="11.999814778806728"><ele>166.0</ele><time>2026-04-25T07:35:59.999Z</time></trkpt><trkpt lat="45.87689243751991" lon="11.999774640512618"><ele>166.0</ele><time>2026-04-25T07:36:00.999Z</time></trkpt><trkpt lat="45.87695534879089" lon="11.999740289762006"><ele>166.0</ele><time>2026-04-25T07:36:01.999Z</time></trkpt><trkpt lat="45.87700713658536" lon="11.9996775120058"><ele>166.0</ele><time>2026-04-25T07:36:02.999Z</time></trkpt><trkpt lat="45.877054775617786" lon="11.999613077992866"><ele>164.8</ele><time>2026-04-25T07:36:03.999Z</time></trkpt><trkpt lat="45.87714951938302" lon="11.999534468001652"><ele>163.60000000000002</ele><time>2026-04-25T07:36:05.999Z</time></trkpt><trkpt lat="45.8772389933514" lon="11.999462179705692"><ele>162.4</ele><time>2026-04-25T07:36:07.999Z</time></trkpt><trkpt lat="45.877316098537385" lon="11.999340273959463"><ele>161.2</ele><time>2026-04-25T07:36:09.999Z</time></trkpt><trkpt lat="45.87739181541365" lon="11.999215688432475"><ele>160.0</ele><time>2026-04-25T07:36:11.999Z</time></trkpt><trkpt lat="45.877452383194125" lon="11.99907140486313"><ele>160.0</ele><time>2026-04-25T07:36:13.999Z</time></trkpt><trkpt lat="45.87747582993894" lon="11.998911995621405"><ele>160.0</ele><time>2026-04-25T07:36:15.999Z</time></trkpt><trkpt lat="45.87752663378126" lon="11.998777434005275"><ele>160.0</ele><time>2026-04-25T07:36:17.999Z</time></trkpt><trkpt lat="45.87756269036591" lon="11.998635643139986"><ele>160.0</ele><time>2026-04-25T07:36:19.999Z</time></trkpt><trkpt lat="45.87760193014362" lon="11.998497091104282"><ele>160.0</ele><time>2026-04-25T07:36:21.999Z</time></trkpt><trkpt lat="45.87765367467145" lon="11.998369001531547"><ele>160.2</ele><time>2026-04-25T07:36:23.999Z</time></trkpt><trkpt lat="45.87769129716163" lon="11.998236823722443"><ele>160.4</ele><time>2026-04-25T07:36:25.999Z</time></trkpt><trkpt lat="45.87772344772728" lon="11.998121842111308"><ele>160.60000000000002</ele><time>2026-04-25T07:36:27.999Z</time></trkpt><trkpt lat="45.87776786015927" lon="11.998019158273133"><ele>160.8</ele><time>2026-04-25T07:36:29.999Z</time></trkpt><trkpt lat="45.877805426939645" lon="11.997897420465996"><ele>161.0</ele><time>2026-04-25T07:36:31.999Z</time></trkpt><trkpt lat="45.87785219872156" lon="11.997763975594768"><ele>161.0</ele><time>2026-04-25T07:36:33.998Z</time></trkpt><trkpt lat="45.87789911184497" lon="11.997637893415583"><ele>161.0</ele><time>2026-04-25T07:36:35.998Z</time></trkpt><trkpt lat="45.877965591615904" lon="11.997536021536659"><ele>161.0</ele><time>2026-04-25T07:36:37.998Z</time></trkpt><trkpt lat="45.878018271931055" lon="11.99740903826674"><ele>161.0</ele><time>2026-04-25T07:36:39.998Z</time></trkpt><trkpt lat="45.878056209042356" lon="11.997294516653367"><ele>161.0</ele><time>2026-04-25T07:36:41.998Z</time></trkpt><trkpt lat="45.87810303695283" lon="11.997182414960562"><ele>160.83333333333331</ele><time>2026-04-25T07:36:43.998Z</time></trkpt><trkpt lat="45.878142577940054" lon="11.997068772452705"><ele>160.66666666666666</ele><time>2026-04-25T07:36:45.998Z</time></trkpt><trkpt lat="45.87818607418666" lon="11.996945268620493"><ele>160.5</ele><time>2026-04-25T07:36:47.998Z</time></trkpt><trkpt lat="45.87822734132077" lon="11.996828161918836"><ele>160.33333333333334</ele><time>2026-04-25T07:36:49.998Z</time></trkpt><trkpt lat="45.878257833279164" lon="11.996741883677638"><ele>160.16666666666669</ele><time>2026-04-25T07:36:52.998Z</time></trkpt><trkpt lat="45.87829316371644" lon="11.996644309441063"><ele>160.0</ele><time>2026-04-25T07:36:56.998Z</time></trkpt><trkpt lat="45.878321350390976" lon="11.996534502708263"><ele>160.0</ele><time>2026-04-25T07:37:00.998Z</time></trkpt><trkpt lat="45.87837164724815" lon="11.996440454353182"><ele>160.0</ele><time>2026-04-25T07:37:02.998Z</time></trkpt><trkpt lat="45.878434536263825" lon="11.996363405616188"><ele>160.0</ele><time>2026-04-25T07:37:04.998Z</time></trkpt><trkpt lat="45.8784813801738" lon="11.996277259528659"><ele>160.0</ele><time>2026-04-25T07:37:06.998Z</time></trkpt><trkpt lat="45.878527277533934" lon="11.996174217977284"><ele>160.0</ele><time>2026-04-25T07:37:08.998Z</time></trkpt><trkpt lat="45.8785511072314" lon="11.996044812393867"><ele>160.0</ele><time>2026-04-25T07:37:10.998Z</time></trkpt><trkpt lat="45.878597320779065" lon="11.995921696756957"><ele>159.5</ele><time>2026-04-25T07:37:12.998Z</time></trkpt><trkpt lat="45.878627383128325" lon="11.9957964289087"><ele>159.0</ele><time>2026-04-25T07:37:14.998Z</time></trkpt><trkpt lat="45.87866882100699" lon="11.995690975169852"><ele>158.5</ele><time>2026-04-25T07:37:16.997Z</time></trkpt><trkpt lat="45.87872760813002" lon="11.995596126165921"><ele>158.0</ele><time>2026-04-25T07:37:18.997Z</time></trkpt><trkpt lat="45.87880293667084" lon="11.9955317293762"><ele>157.5</ele><time>2026-04-25T07:37:20.997Z</time></trkpt><trkpt lat="45.87888642122027" lon="11.995467229476851"><ele>157.0</ele><time>2026-04-25T07:37:22.997Z</time></trkpt><trkpt lat="45.87896205695926" lon="11.995388724819685"><ele>157.0</ele><time>2026-04-25T07:37:24.997Z</time></trkpt><trkpt lat="45.87905352786724" lon="11.995346349052383"><ele>157.0</ele><time>2026-04-25T07:37:26.997Z</time></trkpt><trkpt lat="45.879149428833855" lon="11.995355694486744"><ele>157.0</ele><time>2026-04-25T07:37:28.997Z</time></trkpt><trkpt lat="45.87924173212716" lon="11.995322059086657"><ele>157.0</ele><time>2026-04-25T07:37:30.997Z</time></trkpt><trkpt lat="45.879333362417434" lon="11.995322020866723"><ele>157.0</ele><time>2026-04-25T07:37:32.997Z</time></trkpt><trkpt lat="45.879416606822005" lon="11.995228175765881"><ele>157.0</ele><time>2026-04-25T07:37:34.997Z</time></trkpt><trkpt lat="45.87948097333615" lon="11.995131528706555"><ele>157.0</ele><time>2026-04-25T07:37:36.997Z</time></trkpt><trkpt lat="45.879541545365065" lon="11.995041352581392"><ele>157.0</ele><time>2026-04-25T07:37:38.997Z</time></trkpt><trkpt lat="45.87960245918062" lon="11.994962419541217"><ele>157.0</ele><time>2026-04-25T07:37:40.997Z</time></trkpt><trkpt lat="45.87967645688437" lon="11.994959148317948"><ele>157.0</ele><time>2026-04-25T07:37:43Z</time></trkpt><trkpt lat="45.879742905208374" lon="11.995037385333545"><ele>157.0</ele><time>2026-04-25T07:37:45Z</time></trkpt><trkpt lat="45.87980742426337" lon="11.995099309914815"><ele>156.99999999999997</ele><time>2026-04-25T07:37:47Z</time></trkpt><trkpt lat="45.87985971516305" lon="11.99518284347114"><ele>157.0</ele><time>2026-04-25T07:37:49Z</time></trkpt><trkpt lat="45.8798768886081" lon="11.995293259711904"><ele>157.0</ele><time>2026-04-25T07:37:51Z</time></trkpt><trkpt lat="45.87986984124817" lon="11.995389779627633"><ele>157.0</ele><time>2026-04-25T07:37:54Z</time></trkpt><trkpt lat="45.87988154648924" lon="11.995497013361023"><ele>157.0</ele><time>2026-04-25T07:37:58Z</time></trkpt><trkpt lat="45.879897073302715" lon="11.995595067916357"><ele>156.99999999999997</ele><time>2026-04-25T07:38:03Z</time></trkpt><trkpt lat="45.87990150017387" lon="11.995689411459578"><ele>157.0</ele><time>2026-04-25T07:38:07Z</time></trkpt><trkpt lat="45.87986463944873" lon="11.995797464061303"><ele>157.33333333333334</ele><time>2026-04-25T07:38:10.999Z</time></trkpt><trkpt lat="45.87983222430836" lon="11.995897021284085"><ele>157.66666666666669</ele><time>2026-04-25T07:38:13.999Z</time></trkpt><trkpt lat="45.879849936205346" lon="11.996021034525594"><ele>158.0</ele><time>2026-04-25T07:38:16.999Z</time></trkpt><trkpt lat="45.8799206000433" lon="11.996111149226563"><ele>158.33333333333334</ele><time>2026-04-25T07:38:19.999Z</time></trkpt><trkpt lat="45.879996483407865" lon="11.996192188378583"><ele>158.66666666666666</ele><time>2026-04-25T07:38:22.999Z</time></trkpt><trkpt lat="45.88005645645702" lon="11.996249219613896"><ele>159.0</ele><time>2026-04-25T07:38:24.999Z</time></trkpt><trkpt lat="45.88010879785417" lon="11.996317473889686"><ele>160.0</ele><time>2026-04-25T07:38:26.999Z</time></trkpt><trkpt lat="45.880166846262405" lon="11.996386492853935"><ele>161.0</ele><time>2026-04-25T07:38:28.999Z</time></trkpt><trkpt lat="45.880235591842265" lon="11.996456764483685"><ele>162.0</ele><time>2026-04-25T07:38:30.999Z</time></trkpt><trkpt lat="45.880295305264696" lon="11.996531521769661"><ele>163.0</ele><time>2026-04-25T07:38:32.999Z</time></trkpt><trkpt lat="45.88034683454337" lon="11.996592316145593"><ele>164.0</ele><time>2026-04-25T07:38:34.999Z</time></trkpt><trkpt lat="45.88041480458579" lon="11.996681641133838"><ele>165.0</ele><time>2026-04-25T07:38:37.999Z</time></trkpt><trkpt lat="45.88048407362246" lon="11.996691973442733"><ele>165.00000000000003</ele><time>2026-04-25T07:38:40.999Z</time></trkpt><trkpt lat="45.880548456090814" lon="11.996675657519804"><ele>165.0</ele><time>2026-04-25T07:38:42.999Z</time></trkpt><trkpt lat="45.88060862034861" lon="11.996604347473015"><ele>165.0</ele><time>2026-04-25T07:38:44.999Z</time></trkpt><trkpt lat="45.88065033146446" lon="11.996521092080307"><ele>165.0</ele><time>2026-04-25T07:38:46.999Z</time></trkpt><trkpt lat="45.88069403804765" lon="11.996434652170082"><ele>165.0</ele><time>2026-04-25T07:38:48.999Z</time></trkpt><trkpt lat="45.880741203704765" lon="11.99634448368035"><ele>165.00000000000003</ele><time>2026-04-25T07:38:50.999Z</time></trkpt><trkpt lat="45.880793302068135" lon="11.996265355257423"><ele>165.0</ele><time>2026-04-25T07:38:52.998Z</time></trkpt><trkpt lat="45.880846339941435" lon="11.99619032621215"><ele>165.6</ele><time>2026-04-25T07:38:54.998Z</time></trkpt><trkpt lat="45.88090374197527" lon="11.99611054777037"><ele>166.2</ele><time>2026-04-25T07:38:56.998Z</time></trkpt><trkpt lat="45.88096553084886" lon="11.996020655859489"><ele>166.8</ele><time>2026-04-25T07:38:58.998Z</time></trkpt><trkpt lat="45.88103609616497" lon="11.995906274754509"><ele>167.4</ele><time>2026-04-25T07:39:00.998Z</time></trkpt><trkpt lat="45.8810914766147" lon="11.995797512850825"><ele>168.0</ele><time>2026-04-25T07:39:02.998Z</time></trkpt><trkpt lat="45.88114481324694" lon="11.995686272951883"><ele>170.2</ele><time>2026-04-25T07:39:04.998Z</time></trkpt><trkpt lat="45.881195941504444" lon="11.995575088892751"><ele>172.4</ele><time>2026-04-25T07:39:06.998Z</time></trkpt><trkpt lat="45.88124603336548" lon="11.995466158065154"><ele>174.6</ele><time>2026-04-25T07:39:08.998Z</time></trkpt><trkpt lat="45.88130395743579" lon="11.995343061382203"><ele>176.79999999999998</ele><time>2026-04-25T07:39:10.998Z</time></trkpt><trkpt lat="45.88136325639014" lon="11.99523338239312"><ele>179.0</ele><time>2026-04-25T07:39:12.998Z</time></trkpt><trkpt lat="45.88142398393029" lon="11.995142031252183"><ele>179.0</ele><time>2026-04-25T07:39:14.998Z</time></trkpt><trkpt lat="45.88150256773803" lon="11.995054282372854"><ele>179.0</ele><time>2026-04-25T07:39:16.998Z</time></trkpt><trkpt lat="45.88158596214728" lon="11.994968264682297"><ele>179.0</ele><time>2026-04-25T07:39:18.998Z</time></trkpt><trkpt lat="45.88165574599428" lon="11.994879881603909"><ele>179.0</ele><time>2026-04-25T07:39:20.998Z</time></trkpt><trkpt lat="45.881720363008505" lon="11.994784992832349"><ele>179.0</ele><time>2026-04-25T07:39:22.998Z</time></trkpt><trkpt lat="45.88178733328101" lon="11.994677627667487"><ele>179.0</ele><time>2026-04-25T07:39:24.998Z</time></trkpt><trkpt lat="45.88185160724202" lon="11.994569863022123"><ele>179.0</ele><time>2026-04-25T07:39:26.998Z</time></trkpt><trkpt lat="45.881912605524725" lon="11.99446786232173"><ele>179.0</ele><time>2026-04-25T07:39:28.998Z</time></trkpt><trkpt lat="45.88197131749019" lon="11.994358045574796"><ele>179.0</ele><time>2026-04-25T07:39:30.998Z</time></trkpt><trkpt lat="45.882034925374676" lon="11.994237807945021"><ele>179.0</ele><time>2026-04-25T07:39:32.998Z</time></trkpt><trkpt lat="45.8820963022173" lon="11.994120867919882"><ele>179.0</ele><time>2026-04-25T07:39:34.998Z</time></trkpt><trkpt lat="45.8821519202382" lon="11.994016326342296"><ele>179.0</ele><time>2026-04-25T07:39:36.997Z</time></trkpt><trkpt lat="45.882203649084374" lon="11.993923193498945"><ele>179.0</ele><time>2026-04-25T07:39:38.997Z</time></trkpt><trkpt lat="45.88225387303731" lon="11.993837251982056"><ele>179.0</ele><time>2026-04-25T07:39:40.997Z</time></trkpt><trkpt lat="45.88231109233919" lon="11.993751962481003"><ele>179.0</ele><time>2026-04-25T07:39:42.997Z</time></trkpt><trkpt lat="45.88236961788547" lon="11.993675876153219"><ele>179.0</ele><time>2026-04-25T07:39:44.997Z</time></trkpt><trkpt lat="45.88243105470558" lon="11.993607949341442"><ele>179.0</ele><time>2026-04-25T07:39:46.997Z</time></trkpt><trkpt lat="45.88249360296551" lon="11.993541759758218"><ele>179.0</ele><time>2026-04-25T07:39:49Z</time></trkpt><trkpt lat="45.8825645544262" lon="11.993462645403136"><ele>179.0</ele><time>2026-04-25T07:39:52Z</time></trkpt><trkpt lat="45.882619261427145" lon="11.993397073427174"><ele>179.0</ele><time>2026-04-25T07:39:55Z</time></trkpt><trkpt lat="45.882683088840224" lon="11.993314148360993"><ele>179.0</ele><time>2026-04-25T07:39:58Z</time></trkpt><trkpt lat="45.882730668196174" lon="11.993222671804675"><ele>179.0</ele><time>2026-04-25T07:40:01Z</time></trkpt><trkpt lat="45.88280121203602" lon="11.99315630268422"><ele>179.85714285714286</ele><time>2026-04-25T07:40:05Z</time></trkpt><trkpt lat="45.882850306461364" lon="11.99309069876918"><ele>180.71428571428572</ele><time>2026-04-25T07:40:08Z</time></trkpt><trkpt lat="45.8828981361557" lon="11.993026784888611"><ele>181.57142857142856</ele><time>2026-04-25T07:40:11Z</time></trkpt><trkpt lat="45.88294727943915" lon="11.992961115666668"><ele>182.42857142857144</ele><time>2026-04-25T07:40:14Z</time></trkpt><trkpt lat="45.88300702078781" lon="11.992883043261028"><ele>183.28571428571428</ele><time>2026-04-25T07:40:18Z</time></trkpt><trkpt lat="45.88301921280513" lon="11.992760668625198"><ele>184.14285714285714</ele><time>2026-04-25T07:40:23Z</time></trkpt><trkpt lat="45.88302491465206" lon="11.99265775634168"><ele>185.0</ele><time>2026-04-25T07:40:26Z</time></trkpt><trkpt lat="45.883118010333455" lon="11.99273852377881"><ele>185.0</ele><time>2026-04-25T07:40:27Z</time></trkpt><trkpt lat="45.883064535876365" lon="11.992552650291795"><ele>185.0</ele><time>2026-04-25T07:40:27.999Z</time></trkpt><trkpt lat="45.88309822582521" lon="11.992439349523103"><ele>185.0</ele><time>2026-04-25T07:40:29.999Z</time></trkpt><trkpt lat="45.88314120100677" lon="11.99234701996479"><ele>185.0</ele><time>2026-04-25T07:40:31.999Z</time></trkpt><trkpt lat="45.88319214072233" lon="11.99226897188474"><ele>185.0</ele><time>2026-04-25T07:40:33.999Z</time></trkpt><trkpt lat="45.88322682468257" lon="11.992181764671763"><ele>185.0</ele><time>2026-04-25T07:40:35.999Z</time></trkpt><trkpt lat="45.88326237653055" lon="11.992086749402684"><ele>182.2</ele><time>2026-04-25T07:40:37.999Z</time></trkpt><trkpt lat="45.8832896794159" lon="11.991987848099248"><ele>179.4</ele><time>2026-04-25T07:40:39.999Z</time></trkpt><trkpt lat="45.883306315930035" lon="11.991899918694974"><ele>176.60000000000002</ele><time>2026-04-25T07:40:41.999Z</time></trkpt><trkpt lat="45.8832957786431" lon="11.991771015228442"><ele>173.8</ele><time>2026-04-25T07:40:43.999Z</time></trkpt><trkpt lat="45.88325993037244" lon="11.991605850437338"><ele>171.0</ele><time>2026-04-25T07:40:45.999Z</time></trkpt><trkpt lat="45.883220361816306" lon="11.991467868098209"><ele>169.8</ele><time>2026-04-25T07:40:47.999Z</time></trkpt><trkpt lat="45.88318357147759" lon="11.991378100049937"><ele>168.60000000000002</ele><time>2026-04-25T07:40:50.999Z</time></trkpt><trkpt lat="45.883067949034505" lon="11.991438412787986"><ele>167.4</ele><time>2026-04-25T07:40:51.999Z</time></trkpt><trkpt lat="45.882972701125055" lon="11.991475206015252"><ele>166.2</ele><time>2026-04-25T07:40:53.999Z</time></trkpt><trkpt lat="45.88287638013018" lon="11.991503320352143"><ele>165.0</ele><time>2026-04-25T07:40:55.999Z</time></trkpt><trkpt lat="45.88276759070483" lon="11.99153440774499"><ele>165.0</ele><time>2026-04-25T07:40:57.999Z</time></trkpt><trkpt lat="45.882657699891084" lon="11.991557523100719"><ele>165.0</ele><time>2026-04-25T07:40:59.999Z</time></trkpt><trkpt lat="45.88254886746177" lon="11.991577986246236"><ele>165.0</ele><time>2026-04-25T07:41:01.999Z</time></trkpt><trkpt lat="45.8824578515578" lon="11.991605024893012"><ele>165.0</ele><time>2026-04-25T07:41:03.999Z</time></trkpt><trkpt lat="45.882367447707104" lon="11.991635908642037"><ele>165.0</ele><time>2026-04-25T07:41:05.999Z</time></trkpt><trkpt lat="45.88228777922003" lon="11.991653022100364"><ele>163.5</ele><time>2026-04-25T07:41:07.999Z</time></trkpt><trkpt lat="45.88221581358284" lon="11.99167884872397"><ele>162.0</ele><time>2026-04-25T07:41:09.999Z</time></trkpt><trkpt lat="45.882142374694695" lon="11.991717135878766"><ele>160.5</ele><time>2026-04-25T07:41:11.999Z</time></trkpt><trkpt lat="45.88210164109689" lon="11.991819316006561"><ele>159.0</ele><time>2026-04-25T07:41:13.998Z</time></trkpt><trkpt lat="45.882050340044984" lon="11.991932189830136"><ele>157.5</ele><time>2026-04-25T07:41:15.998Z</time></trkpt><trkpt lat="45.88200017329005" lon="11.992029595591097"><ele>156.0</ele><time>2026-04-25T07:41:17.998Z</time></trkpt><trkpt lat="45.881956429548765" lon="11.992143364989513"><ele>156.0</ele><time>2026-04-25T07:41:19.998Z</time></trkpt><trkpt lat="45.88190434611096" lon="11.992253803671959"><ele>156.0</ele><time>2026-04-25T07:41:21.998Z</time></trkpt><trkpt lat="45.88185629263847" lon="11.992364520273654"><ele>156.0</ele><time>2026-04-25T07:41:23.998Z</time></trkpt><trkpt lat="45.881783363418876" lon="11.992443268310025"><ele>156.0</ele><time>2026-04-25T07:41:25.998Z</time></trkpt><trkpt lat="45.88170611509804" lon="11.992383831462956"><ele>156.0</ele><time>2026-04-25T07:41:27.998Z</time></trkpt><trkpt lat="45.88162824418486" lon="11.992323585393972"><ele>155.2</ele><time>2026-04-25T07:41:29.998Z</time></trkpt><trkpt lat="45.881545016560715" lon="11.99226021289851"><ele>154.39999999999998</ele><time>2026-04-25T07:41:31.998Z</time></trkpt><trkpt lat="45.881466947855046" lon="11.992198396660088"><ele>153.6</ele><time>2026-04-25T07:41:33.998Z</time></trkpt><trkpt lat="45.881392429341524" lon="11.992137931707024"><ele>152.79999999999998</ele><time>2026-04-25T07:41:35.998Z</time></trkpt><trkpt lat="45.88131524615394" lon="11.992072333284712"><ele>152.0</ele><time>2026-04-25T07:41:37.998Z</time></trkpt><trkpt lat="45.88123934971061" lon="11.992000112226005"><ele>152.0</ele><time>2026-04-25T07:41:39.998Z</time></trkpt><trkpt lat="45.88116373049368" lon="11.991925862573362"><ele>152.0</ele><time>2026-04-25T07:41:41.998Z</time></trkpt><trkpt lat="45.8810853013677" lon="11.991852755233362"><ele>152.0</ele><time>2026-04-25T07:41:43.998Z</time></trkpt><trkpt lat="45.88101541834288" lon="11.991791325044415"><ele>152.0</ele><time>2026-04-25T07:41:45.998Z</time></trkpt><trkpt lat="45.880938849820936" lon="11.991724018063154"><ele>152.0</ele><time>2026-04-25T07:41:47.998Z</time></trkpt><trkpt lat="45.88086443697461" lon="11.99165860606063"><ele>152.0</ele><time>2026-04-25T07:41:49.998Z</time></trkpt><trkpt lat="45.880784568731535" lon="11.991591186050842"><ele>151.83333333333331</ele><time>2026-04-25T07:41:51.998Z</time></trkpt><trkpt lat="45.88070814108704" lon="11.991525693141048"><ele>151.66666666666666</ele><time>2026-04-25T07:41:53.998Z</time></trkpt><trkpt lat="45.88063038609572" lon="11.991455239717247"><ele>151.5</ele><time>2026-04-25T07:41:56Z</time></trkpt><trkpt lat="45.88056676836935" lon="11.991388797575793"><ele>151.33333333333334</ele><time>2026-04-25T07:41:58Z</time></trkpt><trkpt lat="45.88053176925827" lon="11.991303648668417"><ele>151.16666666666669</ele><time>2026-04-25T07:42:01Z</time></trkpt><trkpt lat="45.88053977396519" lon="11.991206398572736"><ele>151.0</ele><time>2026-04-25T07:42:04Z</time></trkpt><trkpt lat="45.88055941384458" lon="11.991099804807698"><ele>151.0</ele><time>2026-04-25T07:42:06Z</time></trkpt><trkpt lat="45.88058136687851" lon="11.990992947203083"><ele>151.0</ele><time>2026-04-25T07:42:08Z</time></trkpt><trkpt lat="45.88060405758078" lon="11.990889458174076"><ele>151.0</ele><time>2026-04-25T07:42:10Z</time></trkpt><trkpt lat="45.88062472230826" lon="11.990783086301477"><ele>151.0</ele><time>2026-04-25T07:42:12Z</time></trkpt><trkpt lat="45.88064996202763" lon="11.990665264998986"><ele>151.0</ele><time>2026-04-25T07:42:14Z</time></trkpt><trkpt lat="45.88071202791433" lon="11.990569993305447"><ele>151.0</ele><time>2026-04-25T07:42:16Z</time></trkpt><trkpt lat="45.880734614415466" lon="11.990460082413142"><ele>151.5</ele><time>2026-04-25T07:42:18Z</time></trkpt><trkpt lat="45.88075868538679" lon="11.990352367782119"><ele>152.0</ele><time>2026-04-25T07:42:20Z</time></trkpt><trkpt lat="45.880784943432" lon="11.990246461887226"><ele>152.5</ele><time>2026-04-25T07:42:22Z</time></trkpt><trkpt lat="45.880808744178395" lon="11.990143804792238"><ele>153.0</ele><time>2026-04-25T07:42:24Z</time></trkpt><trkpt lat="45.880832846822486" lon="11.990052326811089"><ele>153.5</ele><time>2026-04-25T07:42:26Z</time></trkpt><trkpt lat="45.88088321687988" lon="11.989948821343322"><ele>154.0</ele><time>2026-04-25T07:42:29Z</time></trkpt><trkpt lat="45.88097880421323" lon="11.989923730870442"><ele>154.5</ele><time>2026-04-25T07:42:32Z</time></trkpt><trkpt lat="45.88106137841806" lon="11.989918760972424"><ele>155.0</ele><time>2026-04-25T07:42:34Z</time></trkpt><trkpt lat="45.88113591439695" lon="11.989868322505822"><ele>155.5</ele><time>2026-04-25T07:42:36Z</time></trkpt><trkpt lat="45.88120079266864" lon="11.989807918579816"><ele>156.0</ele><time>2026-04-25T07:42:38Z</time></trkpt><trkpt lat="45.881243050772206" lon="11.98971646117157"><ele>156.5</ele><time>2026-04-25T07:42:40Z</time></trkpt><trkpt lat="45.88127117285341" lon="11.9896022818301"><ele>157.0</ele><time>2026-04-25T07:42:42Z</time></trkpt><trkpt lat="45.88129308179116" lon="11.989502995122587"><ele>157.0</ele><time>2026-04-25T07:42:43.999Z</time></trkpt><trkpt lat="45.88132544028591" lon="11.989414716827902"><ele>157.0</ele><time>2026-04-25T07:42:45.999Z</time></trkpt><trkpt lat="45.88136126220199" lon="11.989328947647502"><ele>157.0</ele><time>2026-04-25T07:42:47.999Z</time></trkpt><trkpt lat="45.88140438095591" lon="11.98922728099091"><ele>157.0</ele><time>2026-04-25T07:42:49.999Z</time></trkpt><trkpt lat="45.88144616832761" lon="11.98912875354504"><ele>157.0</ele><time>2026-04-25T07:42:51.999Z</time></trkpt><trkpt lat="45.8814904170483" lon="11.989024422562773"><ele>157.0</ele><time>2026-04-25T07:42:53.999Z</time></trkpt><trkpt lat="45.881535144472394" lon="11.98891896290951"><ele>157.0</ele><time>2026-04-25T07:42:55.999Z</time></trkpt><trkpt lat="45.88157941133561" lon="11.988810619239283"><ele>157.0</ele><time>2026-04-25T07:42:57.999Z</time></trkpt><trkpt lat="45.88162069577941" lon="11.9887015163882"><ele>157.0</ele><time>2026-04-25T07:42:59.999Z</time></trkpt><trkpt lat="45.88165024541962" lon="11.988580718843473"><ele>157.0</ele><time>2026-04-25T07:43:01.999Z</time></trkpt><trkpt lat="45.881668306196346" lon="11.98845723158957"><ele>157.0</ele><time>2026-04-25T07:43:03.999Z</time></trkpt><trkpt lat="45.881698248615805" lon="11.98834987742776"><ele>157.0</ele><time>2026-04-25T07:43:05.999Z</time></trkpt><trkpt lat="45.88173739582495" lon="11.988257933759769"><ele>157.0</ele><time>2026-04-25T07:43:07.999Z</time></trkpt><trkpt lat="45.88178038234794" lon="11.988162295371435"><ele>157.0</ele><time>2026-04-25T07:43:09.999Z</time></trkpt><trkpt lat="45.88182452382136" lon="11.988067672330626"><ele>157.0</ele><time>2026-04-25T07:43:11.999Z</time></trkpt><trkpt lat="45.88186943854748" lon="11.987978495002869"><ele>157.0</ele><time>2026-04-25T07:43:13.999Z</time></trkpt><trkpt lat="45.88191860310981" lon="11.987900848229353"><ele>157.0</ele><time>2026-04-25T07:43:15.999Z</time></trkpt><trkpt lat="45.88196821514444" lon="11.987823577664804"><ele>157.0</ele><time>2026-04-25T07:43:17.999Z</time></trkpt><trkpt lat="45.88200809898125" lon="11.987743382243885"><ele>157.0</ele><time>2026-04-25T07:43:19.999Z</time></trkpt><trkpt lat="45.88205029877471" lon="11.987619198734818"><ele>157.0</ele><time>2026-04-25T07:43:21.999Z</time></trkpt><trkpt lat="45.88207592900202" lon="11.987502657545441"><ele>157.0</ele><time>2026-04-25T07:43:23.999Z</time></trkpt><trkpt lat="45.882096716556894" lon="11.987380062886917"><ele>157.0</ele><time>2026-04-25T07:43:25.999Z</time></trkpt><trkpt lat="45.88211694051615" lon="11.987260792154935"><ele>157.0</ele><time>2026-04-25T07:43:27.998Z</time></trkpt><trkpt lat="45.882138564254525" lon="11.987139740514115"><ele>157.0</ele><time>2026-04-25T07:43:29.998Z</time></trkpt><trkpt lat="45.882160874557286" lon="11.987016007779895"><ele>157.0</ele><time>2026-04-25T07:43:31.998Z</time></trkpt><trkpt lat="45.88218363953264" lon="11.986889753379836"><ele>157.0</ele><time>2026-04-25T07:43:33.998Z</time></trkpt><trkpt lat="45.882205175282216" lon="11.986770316330466"><ele>157.0</ele><time>2026-04-25T07:43:35.998Z</time></trkpt><trkpt lat="45.88222890123515" lon="11.986638732377553"><ele>157.0</ele><time>2026-04-25T07:43:37.998Z</time></trkpt><trkpt lat="45.88225083528526" lon="11.986514458698299"><ele>157.0</ele><time>2026-04-25T07:43:39.998Z</time></trkpt><trkpt lat="45.8822738645926" lon="11.986381778813033"><ele>157.0</ele><time>2026-04-25T07:43:41.998Z</time></trkpt><trkpt lat="45.882296274372514" lon="11.986252668244703"><ele>157.0</ele><time>2026-04-25T07:43:43.997Z</time></trkpt><trkpt lat="45.882319706085106" lon="11.986117669923546"><ele>157.0</ele><time>2026-04-25T07:43:45.997Z</time></trkpt><trkpt lat="45.88234174568014" lon="11.985984363977833"><ele>157.0</ele><time>2026-04-25T07:43:47.997Z</time></trkpt><trkpt lat="45.88236274404681" lon="11.985855643676775"><ele>157.0</ele><time>2026-04-25T07:43:49.997Z</time></trkpt><trkpt lat="45.88238285353994" lon="11.985732716473144"><ele>157.0</ele><time>2026-04-25T07:43:51.997Z</time></trkpt><trkpt lat="45.88240305781707" lon="11.985610033230081"><ele>157.0</ele><time>2026-04-25T07:43:53.997Z</time></trkpt><trkpt lat="45.88242160945059" lon="11.985495190515058"><ele>157.0</ele><time>2026-04-25T07:43:55.997Z</time></trkpt><trkpt lat="45.88243987807287" lon="11.985375218137197"><ele>157.0</ele><time>2026-04-25T07:43:57.997Z</time></trkpt><trkpt lat="45.882458639325286" lon="11.985255028835512"><ele>157.0</ele><time>2026-04-25T07:44:00Z</time></trkpt><trkpt lat="45.882478470531865" lon="11.985146384151399"><ele>157.0</ele><time>2026-04-25T07:44:02Z</time></trkpt><trkpt lat="45.88250393060121" lon="11.985039957221488"><ele>157.14285714285714</ele><time>2026-04-25T07:44:04Z</time></trkpt><trkpt lat="45.88253476138972" lon="11.984948136575701"><ele>157.28571428571428</ele><time>2026-04-25T07:44:06Z</time></trkpt><trkpt lat="45.88260901235813" lon="11.984919540034628"><ele>157.42857142857144</ele><time>2026-04-25T07:44:10Z</time></trkpt><trkpt lat="45.88267363579173" lon="11.984921895193901"><ele>157.57142857142856</ele><time>2026-04-25T07:44:12Z</time></trkpt><trkpt lat="45.88274715300955" lon="11.984909731549918"><ele>157.71428571428572</ele><time>2026-04-25T07:44:14Z</time></trkpt><trkpt lat="45.8828289285694" lon="11.984923512970555"><ele>157.85714285714286</ele><time>2026-04-25T07:44:15.999Z</time></trkpt><trkpt lat="45.88290762381405" lon="11.984941738554623"><ele>158.0</ele><time>2026-04-25T07:44:17.999Z</time></trkpt><trkpt lat="45.88298781502841" lon="11.98494271034532"><ele>158.2857142857143</ele><time>2026-04-25T07:44:19.999Z</time></trkpt><trkpt lat="45.88305784459371" lon="11.984958651052423"><ele>158.57142857142858</ele><time>2026-04-25T07:44:21.999Z</time></trkpt><trkpt lat="45.88312278188858" lon="11.984947454196993"><ele>158.85714285714286</ele><time>2026-04-25T07:44:23.999Z</time></trkpt><trkpt lat="45.8831907172571" lon="11.984955575406076"><ele>159.14285714285717</ele><time>2026-04-25T07:44:26.999Z</time></trkpt><trkpt lat="45.88326220532768" lon="11.984952457530152"><ele>159.42857142857144</ele><time>2026-04-25T07:44:30.999Z</time></trkpt><trkpt lat="45.883329307437755" lon="11.984942177830478"><ele>159.71428571428572</ele><time>2026-04-25T07:44:33.999Z</time></trkpt><trkpt lat="45.8833965551355" lon="11.984939102927429"><ele>160.0</ele><time>2026-04-25T07:44:36.999Z</time></trkpt><trkpt lat="45.88347874978718" lon="11.984924748057429"><ele>161.0</ele><time>2026-04-25T07:44:39.999Z</time></trkpt><trkpt lat="45.8835594334109" lon="11.984938084481833"><ele>162.0</ele><time>2026-04-25T07:44:42.999Z</time></trkpt><trkpt lat="45.88364202405234" lon="11.984928198165433"><ele>163.0</ele><time>2026-04-25T07:44:45.999Z</time></trkpt><trkpt lat="45.88372230248822" lon="11.984915394723355"><ele>164.0</ele><time>2026-04-25T07:44:48.999Z</time></trkpt><trkpt lat="45.88380318910345" lon="11.98489641551475"><ele>165.0</ele><time>2026-04-25T07:44:51.999Z</time></trkpt><trkpt lat="45.883886640293575" lon="11.984868077988843"><ele>166.0</ele><time>2026-04-25T07:44:54.999Z</time></trkpt><trkpt lat="45.88396816924842" lon="11.984827719134394"><ele>166.0</ele><time>2026-04-25T07:44:57.999Z</time></trkpt><trkpt lat="45.88404383890424" lon="11.984791030441487"><ele>166.0</ele><time>2026-04-25T07:45:00.998Z</time></trkpt><trkpt lat="45.884125453007805" lon="11.984756598949762"><ele>166.0</ele><time>2026-04-25T07:45:03.998Z</time></trkpt><trkpt lat="45.8842024999654" lon="11.984725260762147"><ele>166.0</ele><time>2026-04-25T07:45:06.998Z</time></trkpt><trkpt lat="45.88428619318165" lon="11.984694345468801"><ele>166.0</ele><time>2026-04-25T07:45:09.998Z</time></trkpt><trkpt lat="45.88436220183157" lon="11.984668213126247"><ele>166.0</ele><time>2026-04-25T07:45:12.998Z</time></trkpt><trkpt lat="45.88444423473523" lon="11.98464566479076"><ele>167.0</ele><time>2026-04-25T07:45:16.998Z</time></trkpt><trkpt lat="45.88451848593979" lon="11.984626935443673"><ele>168.0</ele><time>2026-04-25T07:45:19.998Z</time></trkpt><trkpt lat="45.88458304459268" lon="11.984613321741088"><ele>169.0</ele><time>2026-04-25T07:45:22.998Z</time></trkpt><trkpt lat="45.88466179859449" lon="11.984598904779919"><ele>170.0</ele><time>2026-04-25T07:45:26.998Z</time></trkpt><trkpt lat="45.88473636553718" lon="11.984586778230986"><ele>171.0</ele><time>2026-04-25T07:45:30.998Z</time></trkpt><trkpt lat="45.88480446334547" lon="11.984578597699173"><ele>172.0</ele><time>2026-04-25T07:45:34.998Z</time></trkpt><trkpt lat="45.88486281139652" lon="11.984511556624389"><ele>173.0</ele><time>2026-04-25T07:45:38.998Z</time></trkpt><trkpt lat="45.88493541657508" lon="11.98451521573604"><ele>173.0</ele><time>2026-04-25T07:45:43.997Z</time></trkpt><trkpt lat="45.88500119075513" lon="11.984523183118196"><ele>173.0</ele><time>2026-04-25T07:45:47.997Z</time></trkpt><trkpt lat="45.8850680221482" lon="11.98452300013696"><ele>173.0</ele><time>2026-04-25T07:45:50.997Z</time></trkpt><trkpt lat="45.88513513602276" lon="11.984525976954119"><ele>173.0</ele><time>2026-04-25T07:45:53.997Z</time></trkpt><trkpt lat="45.8852013581958" lon="11.984528263937941"><ele>173.0</ele><time>2026-04-25T07:45:56.997Z</time></trkpt><trkpt lat="45.885272592334644" lon="11.984531694401047"><ele>173.0</ele><time>2026-04-25T07:45:59.997Z</time></trkpt><trkpt lat="45.88534313127031" lon="11.984528393003814"><ele>173.0</ele><time>2026-04-25T07:46:02.997Z</time></trkpt><trkpt lat="45.88541537236211" lon="11.984532930700876"><ele>174.7142857142857</ele><time>2026-04-25T07:46:06Z</time></trkpt><trkpt lat="45.88548376947331" lon="11.984530032054321"><ele>176.42857142857144</ele><time>2026-04-25T07:46:09Z</time></trkpt><trkpt lat="45.885549335851955" lon="11.98451651291808"><ele>178.14285714285714</ele><time>2026-04-25T07:46:12Z</time></trkpt><trkpt lat="45.88561633791418" lon="11.984512190560586"><ele>179.85714285714283</ele><time>2026-04-25T07:46:15Z</time></trkpt><trkpt lat="45.885679599951686" lon="11.984485003871297"><ele>181.57142857142856</ele><time>2026-04-25T07:46:18Z</time></trkpt><trkpt lat="45.885762879444655" lon="11.984452882128847"><ele>183.28571428571428</ele><time>2026-04-25T07:46:22Z</time></trkpt><trkpt lat="45.885824191869595" lon="11.984404730824275"><ele>185.0</ele><time>2026-04-25T07:46:25Z</time></trkpt><trkpt lat="45.88588880972321" lon="11.984333777335301"><ele>185.66666666666666</ele><time>2026-04-25T07:46:28Z</time></trkpt><trkpt lat="45.88593396439934" lon="11.984251631940351"><ele>186.33333333333331</ele><time>2026-04-25T07:46:30Z</time></trkpt><trkpt lat="45.88598580619092" lon="11.984167179930852"><ele>187.0</ele><time>2026-04-25T07:46:32Z</time></trkpt><trkpt lat="45.88601438043849" lon="11.984058738791687"><ele>187.66666666666666</ele><time>2026-04-25T07:46:33.999Z</time></trkpt><trkpt lat="45.886015934273864" lon="11.983928728234915"><ele>188.33333333333334</ele><time>2026-04-25T07:46:35.999Z</time></trkpt><trkpt lat="45.88598305279509" lon="11.983774264124643"><ele>189.0</ele><time>2026-04-25T07:46:37.999Z</time></trkpt><trkpt lat="45.885949032916855" lon="11.98359959055895"><ele>187.14285714285714</ele><time>2026-04-25T07:46:39.999Z</time></trkpt><trkpt lat="45.88591814194731" lon="11.983513896024487"><ele>185.28571428571428</ele><time>2026-04-25T07:46:40.999Z</time></trkpt><trkpt lat="45.885880622579116" lon="11.98343301750965"><ele>183.42857142857144</ele><time>2026-04-25T07:46:41.999Z</time></trkpt><trkpt lat="45.885844464076754" lon="11.983350272829286"><ele>181.57142857142856</ele><time>2026-04-25T07:46:42.999Z</time></trkpt><trkpt lat="45.88580087606793" lon="11.98327329078504"><ele>179.71428571428572</ele><time>2026-04-25T07:46:43.999Z</time></trkpt><trkpt lat="45.88577004997422" lon="11.983179406900344"><ele>177.85714285714286</ele><time>2026-04-25T07:46:44.999Z</time></trkpt><trkpt lat="45.885726904294266" lon="11.983103197041995"><ele>176.0</ele><time>2026-04-25T07:46:45.999Z</time></trkpt><trkpt lat="45.885684889946624" lon="11.98303393961971"><ele>175.60000000000002</ele><time>2026-04-25T07:46:46.999Z</time></trkpt><trkpt lat="45.88560433100446" lon="11.982905695974926"><ele>175.2</ele><time>2026-04-25T07:46:48.999Z</time></trkpt><trkpt lat="45.88552401833704" lon="11.982786894269672"><ele>174.8</ele><time>2026-04-25T07:46:50.999Z</time></trkpt><trkpt lat="45.88543625252067" lon="11.982680978867373"><ele>174.39999999999998</ele><time>2026-04-25T07:46:52.999Z</time></trkpt><trkpt lat="45.88539287326109" lon="11.982612663377138"><ele>174.0</ele><time>2026-04-25T07:46:53.999Z</time></trkpt><trkpt lat="45.88536586592799" lon="11.9825257743826"><ele>174.71428571428572</ele><time>2026-04-25T07:46:54.999Z</time></trkpt><trkpt lat="45.88533046867281" lon="11.982447601169795"><ele>175.42857142857144</ele><time>2026-04-25T07:46:55.999Z</time></trkpt><trkpt lat="45.885286229674435" lon="11.982372203645722"><ele>176.14285714285717</ele><time>2026-04-25T07:46:56.999Z</time></trkpt><trkpt lat="45.88526873039599" lon="11.982268233317837"><ele>176.85714285714286</ele><time>2026-04-25T07:46:57.999Z</time></trkpt><trkpt lat="45.885266883818964" lon="11.982159401141327"><ele>177.57142857142858</ele><time>2026-04-25T07:46:58.999Z</time></trkpt><trkpt lat="45.88527547121255" lon="11.982049735299588"><ele>178.2857142857143</ele><time>2026-04-25T07:46:59.999Z</time></trkpt><trkpt lat="45.88528664022085" lon="11.981946116054402"><ele>179.0</ele><time>2026-04-25T07:47:00.999Z</time></trkpt><trkpt lat="45.88529572424554" lon="11.981844771445651"><ele>179.0</ele><time>2026-04-25T07:47:01.999Z</time></trkpt><trkpt lat="45.885304421582646" lon="11.981743366191985"><ele>179.0</ele><time>2026-04-25T07:47:02.999Z</time></trkpt><trkpt lat="45.88531412283698" lon="11.981641573999042"><ele>179.0</ele><time>2026-04-25T07:47:03.999Z</time></trkpt><trkpt lat="45.885340259291944" lon="11.981553574885785"><ele>179.0</ele><time>2026-04-25T07:47:04.999Z</time></trkpt><trkpt lat="45.88536112313551" lon="11.981391226533589"><ele>179.0</ele><time>2026-04-25T07:47:06.999Z</time></trkpt><trkpt lat="45.885355449282535" lon="11.981222104593613"><ele>179.0</ele><time>2026-04-25T07:47:08.999Z</time></trkpt><trkpt lat="45.88534985466363" lon="11.98104358714781"><ele>179.2857142857143</ele><time>2026-04-25T07:47:10.999Z</time></trkpt><trkpt lat="45.88533207684392" lon="11.980951574417803"><ele>179.57142857142858</ele><time>2026-04-25T07:47:11.999Z</time></trkpt><trkpt lat="45.88531040263047" lon="11.980857240053878"><ele>179.85714285714286</ele><time>2026-04-25T07:47:12.999Z</time></trkpt><trkpt lat="45.88530106371515" lon="11.980750174318716"><ele>180.14285714285717</ele><time>2026-04-25T07:47:13.999Z</time></trkpt><trkpt lat="45.885278266025644" lon="11.980647178626274"><ele>180.42857142857142</ele><time>2026-04-25T07:47:14.999Z</time></trkpt><trkpt lat="45.88525493396131" lon="11.980536287358492"><ele>180.71428571428572</ele><time>2026-04-25T07:47:15.999Z</time></trkpt><trkpt lat="45.885231937122356" lon="11.98042490990883"><ele>181.0</ele><time>2026-04-25T07:47:16.999Z</time></trkpt><trkpt lat="45.88521362751715" lon="11.98031477354184"><ele>181.0</ele><time>2026-04-25T07:47:17.999Z</time></trkpt><trkpt lat="45.88520389973823" lon="11.980198797507546"><ele>181.0</ele><time>2026-04-25T07:47:18.998Z</time></trkpt><trkpt lat="45.88520552436373" lon="11.980080988873457"><ele>181.0</ele><time>2026-04-25T07:47:19.998Z</time></trkpt><trkpt lat="45.88519670893619" lon="11.979957717049896"><ele>181.0</ele><time>2026-04-25T07:47:20.998Z</time></trkpt><trkpt lat="45.88520882506155" lon="11.979837284669737"><ele>181.0</ele><time>2026-04-25T07:47:21.998Z</time></trkpt><trkpt lat="45.88522159707842" lon="11.979716437158206"><ele>181.0</ele><time>2026-04-25T07:47:22.998Z</time></trkpt><trkpt lat="45.88523532087775" lon="11.97959574283468"><ele>179.66666666666669</ele><time>2026-04-25T07:47:23.998Z</time></trkpt><trkpt lat="45.88527194392343" lon="11.979488888317489"><ele>178.33333333333334</ele><time>2026-04-25T07:47:24.998Z</time></trkpt><trkpt lat="45.885297620182726" lon="11.979372984127439"><ele>177.0</ele><time>2026-04-25T07:47:25.998Z</time></trkpt><trkpt lat="45.885321225217844" lon="11.979266428978857"><ele>175.66666666666666</ele><time>2026-04-25T07:47:26.998Z</time></trkpt><trkpt lat="45.885344469448334" lon="11.979161510309357"><ele>174.33333333333331</ele><time>2026-04-25T07:47:27.998Z</time></trkpt><trkpt lat="45.88536345283419" lon="11.97905105845441"><ele>173.0</ele><time>2026-04-25T07:47:28.998Z</time></trkpt><trkpt lat="45.88538222892009" lon="11.978948550042023"><ele>172.0</ele><time>2026-04-25T07:47:29.998Z</time></trkpt><trkpt lat="45.885401549060965" lon="11.978847034482756"><ele>171.0</ele><time>2026-04-25T07:47:30.998Z</time></trkpt><trkpt lat="45.88542098668267" lon="11.978748930318064"><ele>170.0</ele><time>2026-04-25T07:47:31.998Z</time></trkpt><trkpt lat="45.88544216023407" lon="11.978650955526412"><ele>169.0</ele><time>2026-04-25T07:47:32.998Z</time></trkpt><trkpt lat="45.88545425358286" lon="11.9785537281566"><ele>168.0</ele><time>2026-04-25T07:47:33.998Z</time></trkpt><trkpt lat="45.88546916737877" lon="11.978459639484583"><ele>167.0</ele><time>2026-04-25T07:47:34.998Z</time></trkpt><trkpt lat="45.88548641381986" lon="11.9783701142876"><ele>166.0</ele><time>2026-04-25T07:47:35.998Z</time></trkpt><trkpt lat="45.885505823751174" lon="11.978279638920052"><ele>165.28571428571428</ele><time>2026-04-25T07:47:36.998Z</time></trkpt><trkpt lat="45.88554101751442" lon="11.978193521373907"><ele>164.57142857142858</ele><time>2026-04-25T07:47:37.998Z</time></trkpt><trkpt lat="45.88556064936242" lon="11.978102680447206"><ele>163.85714285714286</ele><time>2026-04-25T07:47:38.998Z</time></trkpt><trkpt lat="45.885580130621996" lon="11.97801253634097"><ele>163.14285714285714</ele><time>2026-04-25T07:47:39.998Z</time></trkpt><trkpt lat="45.88559899762064" lon="11.977922460248378"><ele>162.42857142857144</ele><time>2026-04-25T07:47:40.998Z</time></trkpt><trkpt lat="45.885617551637075" lon="11.977831220038873"><ele>161.71428571428572</ele><time>2026-04-25T07:47:41.998Z</time></trkpt><trkpt lat="45.88563592129276" lon="11.977740886661422"><ele>161.0</ele><time>2026-04-25T07:47:42.998Z</time></trkpt><trkpt lat="45.88565179788295" lon="11.977649590629333"><ele>161.0</ele><time>2026-04-25T07:47:43.998Z</time></trkpt><trkpt lat="45.8856595154127" lon="11.977555154132897"><ele>161.0</ele><time>2026-04-25T07:47:44.998Z</time></trkpt><trkpt lat="45.88565600884475" lon="11.977464385841811"><ele>161.0</ele><time>2026-04-25T07:47:45.998Z</time></trkpt><trkpt lat="45.88561924834263" lon="11.977381537890277"><ele>161.0</ele><time>2026-04-25T07:47:46.998Z</time></trkpt><trkpt lat="45.88554913632444" lon="11.977241055560496"><ele>161.0</ele><time>2026-04-25T07:47:48.998Z</time></trkpt><trkpt lat="45.885470057314045" lon="11.977115414095014"><ele>161.0</ele><time>2026-04-25T07:47:50.998Z</time></trkpt><trkpt lat="45.88543078819475" lon="11.976954028257701"><ele>161.0</ele><time>2026-04-25T07:47:52.998Z</time></trkpt><trkpt lat="45.885444841681945" lon="11.976865111488854"><ele>161.0</ele><time>2026-04-25T07:47:53.998Z</time></trkpt><trkpt lat="45.88548161713782" lon="11.976788730328355"><ele>161.0</ele><time>2026-04-25T07:47:54.998Z</time></trkpt><trkpt lat="45.88557107705748" lon="11.976674267868887"><ele>161.0</ele><time>2026-04-25T07:47:56.998Z</time></trkpt><trkpt lat="45.88565804575473" lon="11.976557917490672"><ele>161.0</ele><time>2026-04-25T07:47:58.998Z</time></trkpt><trkpt lat="45.88574424724658" lon="11.976444032505295"><ele>161.0</ele><time>2026-04-25T07:48:00.998Z</time></trkpt><trkpt lat="45.88582595290895" lon="11.976331465685258"><ele>161.0</ele><time>2026-04-25T07:48:02.998Z</time></trkpt><trkpt lat="45.88589912221341" lon="11.9762120216266"><ele>161.0</ele><time>2026-04-25T07:48:04.997Z</time></trkpt><trkpt lat="45.8859683166379" lon="11.976085171625252"><ele>161.0</ele><time>2026-04-25T07:48:06.997Z</time></trkpt><trkpt lat="45.886034168082524" lon="11.975959274174913"><ele>161.0</ele><time>2026-04-25T07:48:08.997Z</time></trkpt><trkpt lat="45.886097247785145" lon="11.975836043895876"><ele>161.0</ele><time>2026-04-25T07:48:11Z</time></trkpt><trkpt lat="45.88616044800885" lon="11.975715239218527"><ele>161.0</ele><time>2026-04-25T07:48:13Z</time></trkpt><trkpt lat="45.88621387106714" lon="11.975583978379959"><ele>161.0</ele><time>2026-04-25T07:48:15Z</time></trkpt><trkpt lat="45.88626749465723" lon="11.975451436823978"><ele>161.0</ele><time>2026-04-25T07:48:17Z</time></trkpt><trkpt lat="45.886321210417705" lon="11.975322345533993"><ele>161.0</ele><time>2026-04-25T07:48:19Z</time></trkpt><trkpt lat="45.88636922193861" lon="11.975189576465544"><ele>161.0</ele><time>2026-04-25T07:48:21Z</time></trkpt><trkpt lat="45.88642113854805" lon="11.975059424090672"><ele>161.0</ele><time>2026-04-25T07:48:23Z</time></trkpt><trkpt lat="45.88647509727701" lon="11.97492940449452"><ele>161.0</ele><time>2026-04-25T07:48:25Z</time></trkpt><trkpt lat="45.88652272439241" lon="11.974796700779246"><ele>161.0</ele><time>2026-04-25T07:48:27Z</time></trkpt><trkpt lat="45.88658292997937" lon="11.974682610186893"><ele>161.0</ele><time>2026-04-25T07:48:29Z</time></trkpt><trkpt lat="45.88661586119355" lon="11.974542117933423"><ele>161.0</ele><time>2026-04-25T07:48:31Z</time></trkpt><trkpt lat="45.88666308108951" lon="11.974408769200833"><ele>161.0</ele><time>2026-04-25T07:48:33Z</time></trkpt><trkpt lat="45.88671330816251" lon="11.974270603454483"><ele>161.0</ele><time>2026-04-25T07:48:35Z</time></trkpt><trkpt lat="45.88676430551855" lon="11.974127749480601"><ele>161.0</ele><time>2026-04-25T07:48:37Z</time></trkpt><trkpt lat="45.88681535903509" lon="11.973979788747599"><ele>161.0</ele><time>2026-04-25T07:48:39Z</time></trkpt><trkpt lat="45.886865138499196" lon="11.973831156337182"><ele>161.0</ele><time>2026-04-25T07:48:41Z</time></trkpt><trkpt lat="45.88691403795166" lon="11.973682799869174"><ele>161.0</ele><time>2026-04-25T07:48:43Z</time></trkpt><trkpt lat="45.886962777915016" lon="11.973534527730285"><ele>161.0</ele><time>2026-04-25T07:48:45Z</time></trkpt><trkpt lat="45.88700984536073" lon="11.973385408594254"><ele>161.0</ele><time>2026-04-25T07:48:47Z</time></trkpt><trkpt lat="45.88705612898154" lon="11.97323535929149"><ele>161.5</ele><time>2026-04-25T07:48:49Z</time></trkpt><trkpt lat="45.88710017393924" lon="11.973086387079388"><ele>162.0</ele><time>2026-04-25T07:48:50.999Z</time></trkpt><trkpt lat="45.88714957513656" lon="11.972940373285505"><ele>162.5</ele><time>2026-04-25T07:48:52.999Z</time></trkpt><trkpt lat="45.887198801846516" lon="11.972792125631626"><ele>163.0</ele><time>2026-04-25T07:48:54.999Z</time></trkpt><trkpt lat="45.88724635391506" lon="11.972643237809653"><ele>163.25</ele><time>2026-04-25T07:48:56.999Z</time></trkpt><trkpt lat="45.887300381665575" lon="11.972501915095647"><ele>163.5</ele><time>2026-04-25T07:48:58.999Z</time></trkpt><trkpt lat="45.887357267884695" lon="11.972363202670511"><ele>163.75</ele><time>2026-04-25T07:49:00.999Z</time></trkpt><trkpt lat="45.88741439871911" lon="11.972221895013975"><ele>164.0</ele><time>2026-04-25T07:49:02.999Z</time></trkpt><trkpt lat="45.88747359924417" lon="11.972081490985557"><ele>164.0</ele><time>2026-04-25T07:49:04.999Z</time></trkpt><trkpt lat="45.88753491490384" lon="11.971946225807269"><ele>164.0</ele><time>2026-04-25T07:49:06.999Z</time></trkpt><trkpt lat="45.88759785582873" lon="11.971812157826012"><ele>164.0</ele><time>2026-04-25T07:49:08.999Z</time></trkpt><trkpt lat="45.88765680970456" lon="11.971673019204188"><ele>164.0</ele><time>2026-04-25T07:49:10.999Z</time></trkpt><trkpt lat="45.88771716549346" lon="11.971533255822393"><ele>163.5</ele><time>2026-04-25T07:49:12.999Z</time></trkpt><trkpt lat="45.88778009569277" lon="11.971396191312563"><ele>163.0</ele><time>2026-04-25T07:49:14.999Z</time></trkpt><trkpt lat="45.88784240026152" lon="11.971259375137183"><ele>162.5</ele><time>2026-04-25T07:49:16.999Z</time></trkpt><trkpt lat="45.88790779348479" lon="11.97112341797317"><ele>162.0</ele><time>2026-04-25T07:49:18.999Z</time></trkpt><trkpt lat="45.88797155655749" lon="11.970987399116177"><ele>162.5</ele><time>2026-04-25T07:49:20.999Z</time></trkpt><trkpt lat="45.88803520143487" lon="11.970852549260897"><ele>163.0</ele><time>2026-04-25T07:49:22.999Z</time></trkpt><trkpt lat="45.88809866685455" lon="11.970715330037578"><ele>163.5</ele><time>2026-04-25T07:49:24.999Z</time></trkpt><trkpt lat="45.88816455662638" lon="11.970578281846763"><ele>164.0</ele><time>2026-04-25T07:49:26.999Z</time></trkpt><trkpt lat="45.88822955191815" lon="11.970439584712413"><ele>164.0</ele><time>2026-04-25T07:49:28.999Z</time></trkpt><trkpt lat="45.888297457632184" lon="11.970301002068014"><ele>164.0</ele><time>2026-04-25T07:49:30.999Z</time></trkpt><trkpt lat="45.88836598215242" lon="11.970167972757842"><ele>164.0</ele><time>2026-04-25T07:49:32.998Z</time></trkpt><trkpt lat="45.88843022959402" lon="11.970029061268237"><ele>164.0</ele><time>2026-04-25T07:49:34.998Z</time></trkpt><trkpt lat="45.88849341035556" lon="11.969888261124527"><ele>164.0</ele><time>2026-04-25T07:49:36.998Z</time></trkpt><trkpt lat="45.88855964930576" lon="11.969750460125757"><ele>164.0</ele><time>2026-04-25T07:49:38.998Z</time></trkpt><trkpt lat="45.8886279044978" lon="11.969618314956083"><ele>164.0</ele><time>2026-04-25T07:49:40.998Z</time></trkpt><trkpt lat="45.888694972133884" lon="11.96948839728775"><ele>164.0</ele><time>2026-04-25T07:49:42.998Z</time></trkpt><trkpt lat="45.88876758535834" lon="11.969364327334205"><ele>164.0</ele><time>2026-04-25T07:49:44.998Z</time></trkpt><trkpt lat="45.888839772964204" lon="11.969238449659539"><ele>164.0</ele><time>2026-04-25T07:49:46.998Z</time></trkpt><trkpt lat="45.88891363557022" lon="11.969111738256665"><ele>164.0</ele><time>2026-04-25T07:49:48.998Z</time></trkpt><trkpt lat="45.88898822771815" lon="11.968983641589961"><ele>164.0</ele><time>2026-04-25T07:49:50.998Z</time></trkpt><trkpt lat="45.88906029833416" lon="11.968857923997628"><ele>164.0</ele><time>2026-04-25T07:49:52.998Z</time></trkpt><trkpt lat="45.88913726852961" lon="11.968729631884083"><ele>164.0</ele><time>2026-04-25T07:49:54.998Z</time></trkpt><trkpt lat="45.8892080526357" lon="11.968597550764654"><ele>164.0</ele><time>2026-04-25T07:49:56.998Z</time></trkpt><trkpt lat="45.88927750175374" lon="11.968462402755087"><ele>164.0</ele><time>2026-04-25T07:49:58.998Z</time></trkpt><trkpt lat="45.88934731702725" lon="11.968337721515267"><ele>163.79999999999998</ele><time>2026-04-25T07:50:00.998Z</time></trkpt><trkpt lat="45.8894155967705" lon="11.968212309058469"><ele>163.6</ele><time>2026-04-25T07:50:02.998Z</time></trkpt><trkpt lat="45.889471166649784" lon="11.968077371558387"><ele>163.4</ele><time>2026-04-25T07:50:04.998Z</time></trkpt><trkpt lat="45.88953207997101" lon="11.967943943892244"><ele>163.2</ele><time>2026-04-25T07:50:06.998Z</time></trkpt><trkpt lat="45.88954491796309" lon="11.967780974300457"><ele>163.0</ele><time>2026-04-25T07:50:08.998Z</time></trkpt><trkpt lat="45.889573361906635" lon="11.967629698158126"><ele>162.8</ele><time>2026-04-25T07:50:10.998Z</time></trkpt><trkpt lat="45.88960849134223" lon="11.96748634418629"><ele>162.60000000000002</ele><time>2026-04-25T07:50:12.998Z</time></trkpt><trkpt lat="45.889653526432085" lon="11.967356407232819"><ele>162.39999999999998</ele><time>2026-04-25T07:50:14.998Z</time></trkpt><trkpt lat="45.889706859150095" lon="11.967229561161824"><ele>162.2</ele><time>2026-04-25T07:50:17Z</time></trkpt><trkpt lat="45.88976021459705" lon="11.967108164511714"><ele>162.0</ele><time>2026-04-25T07:50:19Z</time></trkpt><trkpt lat="45.889806797247175" lon="11.966988008012393"><ele>162.0</ele><time>2026-04-25T07:50:21Z</time></trkpt><trkpt lat="45.88986627270334" lon="11.966895449634167"><ele>162.0</ele><time>2026-04-25T07:50:23Z</time></trkpt><trkpt lat="45.89005181127747" lon="11.967056399644951"><ele>162.0</ele><time>2026-04-25T07:50:28Z</time></trkpt><trkpt lat="45.890122075543715" lon="11.967122819554069"><ele>162.0</ele><time>2026-04-25T07:50:30Z</time></trkpt><trkpt lat="45.89018628623386" lon="11.96719459243456"><ele>162.33333333333334</ele><time>2026-04-25T07:50:32Z</time></trkpt><trkpt lat="45.89025563544775" lon="11.96725832416626"><ele>162.66666666666666</ele><time>2026-04-25T07:50:34Z</time></trkpt><trkpt lat="45.89032052911564" lon="11.967324197347734"><ele>163.0</ele><time>2026-04-25T07:50:36Z</time></trkpt><trkpt lat="45.89038021236038" lon="11.967386401665035"><ele>163.33333333333331</ele><time>2026-04-25T07:50:38Z</time></trkpt><trkpt lat="45.890442183427425" lon="11.967454488860515"><ele>163.66666666666666</ele><time>2026-04-25T07:50:40Z</time></trkpt><trkpt lat="45.89050791198061" lon="11.967512793958445"><ele>164.0</ele><time>2026-04-25T07:50:42Z</time></trkpt><trkpt lat="45.89056482054686" lon="11.967576277266646"><ele>164.33333333333331</ele><time>2026-04-25T07:50:44Z</time></trkpt><trkpt lat="45.89061808922683" lon="11.967639611735592"><ele>164.66666666666666</ele><time>2026-04-25T07:50:46Z</time></trkpt><trkpt lat="45.890672022665676" lon="11.967718072076215"><ele>165.0</ele><time>2026-04-25T07:50:48Z</time></trkpt><trkpt lat="45.89073189532934" lon="11.967798068992211"><ele>165.33333333333334</ele><time>2026-04-25T07:50:50Z</time></trkpt><trkpt lat="45.89079179736286" lon="11.967876670494212"><ele>165.66666666666669</ele><time>2026-04-25T07:50:52Z</time></trkpt><trkpt lat="45.89084713946039" lon="11.967950215040116"><ele>166.0</ele><time>2026-04-25T07:50:54Z</time></trkpt><trkpt lat="45.89089887126113" lon="11.968011811511452"><ele>168.0</ele><time>2026-04-25T07:50:56Z</time></trkpt><trkpt lat="45.89095072077325" lon="11.968093270437327"><ele>170.0</ele><time>2026-04-25T07:50:59Z</time></trkpt><trkpt lat="45.8910104417879" lon="11.968177024104333"><ele>172.0</ele><time>2026-04-25T07:51:03Z</time></trkpt><trkpt lat="45.89106528012798" lon="11.968260546625842"><ele>174.0</ele><time>2026-04-25T07:51:07Z</time></trkpt><trkpt lat="45.89111944907206" lon="11.968336077290086"><ele>176.0</ele><time>2026-04-25T07:51:11.999Z</time></trkpt><trkpt lat="45.891171481377235" lon="11.968417669633817"><ele>178.0</ele><time>2026-04-25T07:51:16.999Z</time></trkpt><trkpt lat="45.891226207131346" lon="11.968494358180491"><ele>178.99999999999997</ele><time>2026-04-25T07:51:21.999Z</time></trkpt><trkpt lat="45.89127221921224" lon="11.968573046436635"><ele>180.0</ele><time>2026-04-25T07:51:26.999Z</time></trkpt><trkpt lat="45.89131997454532" lon="11.968666808914126"><ele>181.0</ele><time>2026-04-25T07:51:31.999Z</time></trkpt><trkpt lat="45.891358069655205" lon="11.968761443789042"><ele>182.0</ele><time>2026-04-25T07:51:37.999Z</time></trkpt><trkpt lat="45.891394866165804" lon="11.968835311452967"><ele>183.0</ele><time>2026-04-25T07:51:42.998Z</time></trkpt><trkpt lat="45.89142689585434" lon="11.968934629266585"><ele>183.99999999999997</ele><time>2026-04-25T07:51:48.998Z</time></trkpt><trkpt lat="45.891451769415504" lon="11.969021606915025"><ele>185.0</ele><time>2026-04-25T07:51:53.997Z</time></trkpt><trkpt lat="45.891475991869186" lon="11.96910627540567"><ele>186.57142857142856</ele><time>2026-04-25T07:51:58.997Z</time></trkpt><trkpt lat="45.891489481700255" lon="11.969206736802514"><ele>188.14285714285714</ele><time>2026-04-25T07:52:04.997Z</time></trkpt><trkpt lat="45.89149847931692" lon="11.969304697280764"><ele>189.71428571428572</ele><time>2026-04-25T07:52:09.997Z</time></trkpt><trkpt lat="45.891499881000684" lon="11.969399602793507"><ele>191.28571428571428</ele><time>2026-04-25T07:52:14.997Z</time></trkpt><trkpt lat="45.89149392688086" lon="11.969496584093811"><ele>192.85714285714286</ele><time>2026-04-25T07:52:19.997Z</time></trkpt><trkpt lat="45.89152358904431" lon="11.969580953631725"><ele>194.42857142857142</ele><time>2026-04-25T07:52:25Z</time></trkpt><trkpt lat="45.891591164505336" lon="11.969564273681229"><ele>196.0</ele><time>2026-04-25T07:52:32Z</time></trkpt><trkpt lat="45.89165695915723" lon="11.969599583783985"><ele>196.0</ele><time>2026-04-25T07:52:37Z</time></trkpt><trkpt lat="45.8917203011651" lon="11.969636109062604"><ele>196.0</ele><time>2026-04-25T07:52:40.999Z</time></trkpt><trkpt lat="45.891783480995905" lon="11.969667086541554"><ele>196.0</ele><time>2026-04-25T07:52:44.999Z</time></trkpt><trkpt lat="45.891855471217966" lon="11.969710735859891"><ele>196.0</ele><time>2026-04-25T07:52:49.999Z</time></trkpt><trkpt lat="45.89192720126217" lon="11.969744203443268"><ele>196.0</ele><time>2026-04-25T07:52:55.999Z</time></trkpt><trkpt lat="45.89200042633867" lon="11.969768638956472"><ele>196.0</ele><time>2026-04-25T07:53:00.999Z</time></trkpt><trkpt lat="45.89207160102347" lon="11.969794163966082"><ele>196.0</ele><time>2026-04-25T07:53:05.999Z</time></trkpt><trkpt lat="45.89214955594745" lon="11.969809658158809"><ele>198.0</ele><time>2026-04-25T07:53:10.999Z</time></trkpt><trkpt lat="45.89222006654808" lon="11.969837400747563"><ele>200.0</ele><time>2026-04-25T07:53:15.999Z</time></trkpt><trkpt lat="45.89229097376943" lon="11.96985295894889"><ele>202.0</ele><time>2026-04-25T07:53:20.999Z</time></trkpt><trkpt lat="45.892362458389" lon="11.969867162151495"><ele>204.0</ele><time>2026-04-25T07:53:25.998Z</time></trkpt><trkpt lat="45.892440239339116" lon="11.969872381499991"><ele>206.0</ele><time>2026-04-25T07:53:30.998Z</time></trkpt><trkpt lat="45.892509843805946" lon="11.969876124863223"><ele>208.0</ele><time>2026-04-25T07:53:35.998Z</time></trkpt><trkpt lat="45.89257411882921" lon="11.969846138587348"><ele>210.0</ele><time>2026-04-25T07:53:43.998Z</time></trkpt><trkpt lat="45.89264434856218" lon="11.969827299318421"><ele>210.71428571428572</ele><time>2026-04-25T07:53:50.998Z</time></trkpt><trkpt lat="45.89271190112627" lon="11.969799886689687"><ele>211.42857142857144</ele><time>2026-04-25T07:53:56.998Z</time></trkpt><trkpt lat="45.89277730631862" lon="11.969768509386535"><ele>212.14285714285714</ele><time>2026-04-25T07:54:02.998Z</time></trkpt><trkpt lat="45.89284219052484" lon="11.969739693645622"><ele>212.85714285714286</ele><time>2026-04-25T07:54:08.997Z</time></trkpt><trkpt lat="45.892904639132595" lon="11.96972371878495"><ele>213.57142857142858</ele><time>2026-04-25T07:54:14.997Z</time></trkpt><trkpt lat="45.892970173275984" lon="11.969718228549754"><ele>214.28571428571428</ele><time>2026-04-25T07:54:19.997Z</time></trkpt><trkpt lat="45.89303546505611" lon="11.969706323335284"><ele>215.0</ele><time>2026-04-25T07:54:24.997Z</time></trkpt><trkpt lat="45.89310692271528" lon="11.969692318298884"><ele>215.0</ele><time>2026-04-25T07:54:31Z</time></trkpt><trkpt lat="45.89318648159089" lon="11.969690617776841"><ele>215.0</ele><time>2026-04-25T07:54:40Z</time></trkpt><trkpt lat="45.89325111138424" lon="11.969673417389982"><ele>215.0</ele><time>2026-04-25T07:54:43Z</time></trkpt><trkpt lat="45.89332095595923" lon="11.969657205266131"><ele>215.0</ele><time>2026-04-25T07:54:46Z</time></trkpt><trkpt lat="45.89339163514705" lon="11.96962428380426"><ele>215.0</ele><time>2026-04-25T07:54:49Z</time></trkpt><trkpt lat="45.89346413543588" lon="11.969595233712736"><ele>215.0</ele><time>2026-04-25T07:54:52Z</time></trkpt><trkpt lat="45.893533405203804" lon="11.96956278184847"><ele>215.0</ele><time>2026-04-25T07:54:55Z</time></trkpt><trkpt lat="45.893585372605585" lon="11.96962590776871"><ele>215.00000000000003</ele><time>2026-04-25T07:54:57.999Z</time></trkpt><trkpt lat="45.89362897166582" lon="11.969747190690203"><ele>215.0</ele><time>2026-04-25T07:55:00.999Z</time></trkpt><trkpt lat="45.89365736468386" lon="11.969834259652535"><ele>215.0</ele><time>2026-04-25T07:55:02.999Z</time></trkpt><trkpt lat="45.893690951124576" lon="11.969920879153172"><ele>215.0</ele><time>2026-04-25T07:55:04.999Z</time></trkpt><trkpt lat="45.89370272182378" lon="11.970031115442826"><ele>215.00000000000003</ele><time>2026-04-25T07:55:06.999Z</time></trkpt><trkpt lat="45.89370973147809" lon="11.97015014996094"><ele>215.0</ele><time>2026-04-25T07:55:08.999Z</time></trkpt><trkpt lat="45.89371338301422" lon="11.970277373358748"><ele>215.0</ele><time>2026-04-25T07:55:10.999Z</time></trkpt><trkpt lat="45.893709985427044" lon="11.970412144602902"><ele>215.0</ele><time>2026-04-25T07:55:12.999Z</time></trkpt><trkpt lat="45.89371296693965" lon="11.970553666631414"><ele>215.0</ele><time>2026-04-25T07:55:14.999Z</time></trkpt><trkpt lat="45.89370603776035" lon="11.970695042364389"><ele>215.0</ele><time>2026-04-25T07:55:16.999Z</time></trkpt><trkpt lat="45.8937097962352" lon="11.970828467529243"><ele>215.0</ele><time>2026-04-25T07:55:18.999Z</time></trkpt><trkpt lat="45.8937074200039" lon="11.970976003259649"><ele>214.6</ele><time>2026-04-25T07:55:20.999Z</time></trkpt><trkpt lat="45.893664672337415" lon="11.971108685505266"><ele>214.2</ele><time>2026-04-25T07:55:22.999Z</time></trkpt><trkpt lat="45.89364917721653" lon="11.971265696370116"><ele>213.8</ele><time>2026-04-25T07:55:24.999Z</time></trkpt><trkpt lat="45.8936475379987" lon="11.97142065632763"><ele>213.4</ele><time>2026-04-25T07:55:26.999Z</time></trkpt><trkpt lat="45.89364796267977" lon="11.971572744171377"><ele>213.0</ele><time>2026-04-25T07:55:28.999Z</time></trkpt><trkpt lat="45.89364896289075" lon="11.971730101752076"><ele>213.0</ele><time>2026-04-25T07:55:30.999Z</time></trkpt><trkpt lat="45.89365001613087" lon="11.971895802071971"><ele>213.0</ele><time>2026-04-25T07:55:32.999Z</time></trkpt><trkpt lat="45.89365126682181" lon="11.972065418134868"><ele>213.0</ele><time>2026-04-25T07:55:34.999Z</time></trkpt><trkpt lat="45.893653694499" lon="11.972234055029107"><ele>213.0</ele><time>2026-04-25T07:55:36.999Z</time></trkpt><trkpt lat="45.893660356241845" lon="11.972404251012005"><ele>213.2</ele><time>2026-04-25T07:55:38.999Z</time></trkpt><trkpt lat="45.89368083862731" lon="11.972575087413723"><ele>213.4</ele><time>2026-04-25T07:55:40.998Z</time></trkpt><trkpt lat="45.893692288882974" lon="11.972747658005824"><ele>213.59999999999997</ele><time>2026-04-25T07:55:42.998Z</time></trkpt><trkpt lat="45.89370118809982" lon="11.972923311675622"><ele>213.79999999999998</ele><time>2026-04-25T07:55:44.998Z</time></trkpt><trkpt lat="45.89370685172371" lon="11.97301396614861"><ele>214.0</ele><time>2026-04-25T07:55:45.998Z</time></trkpt><trkpt lat="45.893711088165034" lon="11.973191725582364"><ele>213.83333333333331</ele><time>2026-04-25T07:55:47.998Z</time></trkpt><trkpt lat="45.893726675567486" lon="11.973369877918325"><ele>213.66666666666666</ele><time>2026-04-25T07:55:49.998Z</time></trkpt><trkpt lat="45.89373214730723" lon="11.973460169415798"><ele>213.5</ele><time>2026-04-25T07:55:50.998Z</time></trkpt><trkpt lat="45.893735299224346" lon="11.973551028402609"><ele>213.33333333333331</ele><time>2026-04-25T07:55:51.998Z</time></trkpt><trkpt lat="45.89374493521368" lon="11.973731829992662"><ele>213.16666666666666</ele><time>2026-04-25T07:55:53.998Z</time></trkpt><trkpt lat="45.89375536637794" lon="11.973822440591167"><ele>213.0</ele><time>2026-04-25T07:55:54.998Z</time></trkpt><trkpt lat="45.89376300577179" lon="11.973914259784031"><ele>212.99999999999997</ele><time>2026-04-25T07:55:55.998Z</time></trkpt><trkpt lat="45.89376871216708" lon="11.974004586923982"><ele>213.0</ele><time>2026-04-25T07:55:56.998Z</time></trkpt><trkpt lat="45.89377183329269" lon="11.974096642453942"><ele>213.0</ele><time>2026-04-25T07:55:57.998Z</time></trkpt><trkpt lat="45.89377319077338" lon="11.974189282323021"><ele>213.0</ele><time>2026-04-25T07:55:58.998Z</time></trkpt><trkpt lat="45.89377357601116" lon="11.974280551801483"><ele>213.0</ele><time>2026-04-25T07:55:59.998Z</time></trkpt><trkpt lat="45.89376974750402" lon="11.974373317157264"><ele>212.99999999999997</ele><time>2026-04-25T07:56:00.998Z</time></trkpt><trkpt lat="45.89375444133232" lon="11.974552671611471"><ele>213.0</ele><time>2026-04-25T07:56:02.998Z</time></trkpt><trkpt lat="45.89372315960923" lon="11.974722922648134"><ele>212.60000000000002</ele><time>2026-04-25T07:56:04.998Z</time></trkpt><trkpt lat="45.89369851258184" lon="11.974895471650257"><ele>212.20000000000002</ele><time>2026-04-25T07:56:06.998Z</time></trkpt><trkpt lat="45.89367091914963" lon="11.974977383861576"><ele>211.8</ele><time>2026-04-25T07:56:07.998Z</time></trkpt><trkpt lat="45.89367790475644" lon="11.975067642915057"><ele>211.4</ele><time>2026-04-25T07:56:08.998Z</time></trkpt><trkpt lat="45.89366002484317" lon="11.975243379179862"><ele>211.0</ele><time>2026-04-25T07:56:10.998Z</time></trkpt><trkpt lat="45.89365131798218" lon="11.975420316992306"><ele>210.8</ele><time>2026-04-25T07:56:12.998Z</time></trkpt><trkpt lat="45.8936462670458" lon="11.975595044115197"><ele>210.60000000000002</ele><time>2026-04-25T07:56:14.998Z</time></trkpt><trkpt lat="45.89364553769987" lon="11.975772015006218"><ele>210.4</ele><time>2026-04-25T07:56:16.998Z</time></trkpt><trkpt lat="45.89365714634691" lon="11.975950102425287"><ele>210.2</ele><time>2026-04-25T07:56:18.998Z</time></trkpt><trkpt lat="45.89364659521843" lon="11.976040834442962"><ele>210.0</ele><time>2026-04-25T07:56:19.998Z</time></trkpt><trkpt lat="45.89366995985671" lon="11.976129235866972"><ele>210.16666666666666</ele><time>2026-04-25T07:56:20.998Z</time></trkpt><trkpt lat="45.89366074501045" lon="11.976221366975155"><ele>210.33333333333331</ele><time>2026-04-25T07:56:21.998Z</time></trkpt><trkpt lat="45.893684422937305" lon="11.97631004202049"><ele>210.5</ele><time>2026-04-25T07:56:22.998Z</time></trkpt><trkpt lat="45.89367468572097" lon="11.976402580159926"><ele>210.66666666666666</ele><time>2026-04-25T07:56:23.997Z</time></trkpt><trkpt lat="45.89368104072556" lon="11.976494186281666"><ele>210.83333333333331</ele><time>2026-04-25T07:56:24.997Z</time></trkpt><trkpt lat="45.89370906379332" lon="11.976672398713482"><ele>211.0</ele><time>2026-04-25T07:56:26.997Z</time></trkpt><trkpt lat="45.893699580142524" lon="11.976767629761271"><ele>211.0</ele><time>2026-04-25T07:56:27.997Z</time></trkpt><trkpt lat="45.89370578207319" lon="11.976858910567792"><ele>211.0</ele><time>2026-04-25T07:56:28.997Z</time></trkpt><trkpt lat="45.89371389659844" lon="11.97695247065431"><ele>211.0</ele><time>2026-04-25T07:56:29.997Z</time></trkpt><trkpt lat="45.8937241765814" lon="11.97704364828249"><ele>211.0</ele><time>2026-04-25T07:56:30.997Z</time></trkpt><trkpt lat="45.893750224100145" lon="11.9772216283479"><ele>211.0</ele><time>2026-04-25T07:56:32.997Z</time></trkpt><trkpt lat="45.89376634431162" lon="11.977310562312196"><ele>211.0</ele><time>2026-04-25T07:56:34Z</time></trkpt><trkpt lat="45.893784902094524" lon="11.977398050353573"><ele>211.0</ele><time>2026-04-25T07:56:35Z</time></trkpt><trkpt lat="45.8938375710672" lon="11.977557363856867"><ele>211.5</ele><time>2026-04-25T07:56:37Z</time></trkpt><trkpt lat="45.8938733949204" lon="11.977724030317555"><ele>212.0</ele><time>2026-04-25T07:56:39Z</time></trkpt><trkpt lat="45.89389468862927" lon="11.977889537926162"><ele>212.5</ele><time>2026-04-25T07:56:41Z</time></trkpt><trkpt lat="45.89394340422772" lon="11.978037740497017"><ele>213.0</ele><time>2026-04-25T07:56:43Z</time></trkpt><trkpt lat="45.893974870771885" lon="11.978187045378458"><ele>213.0</ele><time>2026-04-25T07:56:45Z</time></trkpt><trkpt lat="45.893993365016314" lon="11.978339688093481"><ele>213.0</ele><time>2026-04-25T07:56:47Z</time></trkpt><trkpt lat="45.8940292114525" lon="11.978485122706951"><ele>213.0</ele><time>2026-04-25T07:56:49Z</time></trkpt><trkpt lat="45.89407068122972" lon="11.978617795838863"><ele>213.0</ele><time>2026-04-25T07:56:51Z</time></trkpt><trkpt lat="45.894127681714295" lon="11.97873513408468"><ele>213.0</ele><time>2026-04-25T07:56:53Z</time></trkpt><trkpt lat="45.89416933080622" lon="11.978856782315777"><ele>213.60000000000002</ele><time>2026-04-25T07:56:55Z</time></trkpt><trkpt lat="45.894212681286945" lon="11.97897464810694"><ele>214.20000000000002</ele><time>2026-04-25T07:56:57Z</time></trkpt><trkpt lat="45.894253766895936" lon="11.97908881682347"><ele>214.8</ele><time>2026-04-25T07:56:59Z</time></trkpt><trkpt lat="45.894299323432186" lon="11.979204620411064"><ele>215.4</ele><time>2026-04-25T07:57:01Z</time></trkpt><trkpt lat="45.89435314247058" lon="11.979330244509123"><ele>216.0</ele><time>2026-04-25T07:57:03Z</time></trkpt><trkpt lat="45.89441456557931" lon="11.979461928803346"><ele>216.0</ele><time>2026-04-25T07:57:05Z</time></trkpt><trkpt lat="45.89447837473339" lon="11.979595727839675"><ele>216.00000000000003</ele><time>2026-04-25T07:57:07Z</time></trkpt><trkpt lat="45.89453400662441" lon="11.979753927989375"><ele>216.00000000000003</ele><time>2026-04-25T07:57:09Z</time></trkpt><trkpt lat="45.89455505611962" lon="11.97992990365031"><ele>216.0</ele><time>2026-04-25T07:57:11Z</time></trkpt><trkpt lat="45.89455065356217" lon="11.980021236431877"><ele>216.0</ele><time>2026-04-25T07:57:12Z</time></trkpt><trkpt lat="45.89453279930078" lon="11.980109257336983"><ele>216.0</ele><time>2026-04-25T07:57:13Z</time></trkpt><trkpt lat="45.89450260394557" lon="11.980190683493614"><ele>216.0</ele><time>2026-04-25T07:57:14Z</time></trkpt><trkpt lat="45.89447011932829" lon="11.980268622743054"><ele>216.0</ele><time>2026-04-25T07:57:15Z</time></trkpt><trkpt lat="45.89442241722187" lon="11.980329553108744"><ele>216.0</ele><time>2026-04-25T07:57:16Z</time></trkpt><trkpt lat="45.894365969753785" lon="11.980455505917018"><ele>216.0</ele><time>2026-04-25T07:57:17.999Z</time></trkpt><trkpt lat="45.89430505166207" lon="11.98061399974191"><ele>216.0</ele><time>2026-04-25T07:57:19.999Z</time></trkpt><trkpt lat="45.89426582986765" lon="11.9807761913488"><ele>215.4</ele><time>2026-04-25T07:57:21.999Z</time></trkpt><trkpt lat="45.8942127110866" lon="11.980931747506599"><ele>214.8</ele><time>2026-04-25T07:57:23.999Z</time></trkpt><trkpt lat="45.89416314280268" lon="11.981079127410393"><ele>214.20000000000002</ele><time>2026-04-25T07:57:25.999Z</time></trkpt><trkpt lat="45.89412164872362" lon="11.981213729331806"><ele>213.60000000000002</ele><time>2026-04-25T07:57:27.999Z</time></trkpt><trkpt lat="45.89407456379638" lon="11.981354649486981"><ele>213.0</ele><time>2026-04-25T07:57:29.999Z</time></trkpt><trkpt lat="45.89403109902635" lon="11.981503946870106"><ele>213.0</ele><time>2026-04-25T07:57:31.999Z</time></trkpt><trkpt lat="45.89394968332339" lon="11.981621485695864"><ele>213.0</ele><time>2026-04-25T07:57:33.999Z</time></trkpt><trkpt lat="45.893869114146945" lon="11.98171557779457"><ele>213.0</ele><time>2026-04-25T07:57:35.999Z</time></trkpt><trkpt lat="45.89379847106456" lon="11.981785913292292"><ele>213.0</ele><time>2026-04-25T07:57:37.999Z</time></trkpt><trkpt lat="45.89374151020056" lon="11.981856527940092"><ele>213.0</ele><time>2026-04-25T07:57:39.999Z</time></trkpt><trkpt lat="45.8936630181487" lon="11.981937706430369"><ele>213.33333333333334</ele><time>2026-04-25T07:57:42.999Z</time></trkpt><trkpt lat="45.893602416685475" lon="11.981989506072564"><ele>213.66666666666669</ele><time>2026-04-25T07:57:44.999Z</time></trkpt><trkpt lat="45.89354812165979" lon="11.982068854052416"><ele>214.0</ele><time>2026-04-25T07:57:46.999Z</time></trkpt><trkpt lat="45.89351804323354" lon="11.98217950341498"><ele>214.33333333333334</ele><time>2026-04-25T07:57:48.999Z</time></trkpt><trkpt lat="45.89346324412284" lon="11.98227141756287"><ele>214.66666666666669</ele><time>2026-04-25T07:57:50.999Z</time></trkpt><trkpt lat="45.893438126357076" lon="11.98238674388918"><ele>215.0</ele><time>2026-04-25T07:57:52.999Z</time></trkpt><trkpt lat="45.89339762085893" lon="11.982487610272136"><ele>215.0</ele><time>2026-04-25T07:57:54.999Z</time></trkpt><trkpt lat="45.89335074742324" lon="11.982589559194647"><ele>215.0</ele><time>2026-04-25T07:57:56.999Z</time></trkpt><trkpt lat="45.893311246943085" lon="11.982703409216775"><ele>215.0</ele><time>2026-04-25T07:57:58.999Z</time></trkpt><trkpt lat="45.89326521043177" lon="11.98281498375976"><ele>215.0</ele><time>2026-04-25T07:58:00.999Z</time></trkpt><trkpt lat="45.89321964161015" lon="11.982931358024524"><ele>215.0</ele><time>2026-04-25T07:58:02.998Z</time></trkpt><trkpt lat="45.8931623512753" lon="11.983054039606909"><ele>215.00000000000003</ele><time>2026-04-25T07:58:04.998Z</time></trkpt><trkpt lat="45.89311177548922" lon="11.983174028138672"><ele>215.0</ele><time>2026-04-25T07:58:06.998Z</time></trkpt><trkpt lat="45.89307402397919" lon="11.983265189466652"><ele>215.0</ele><time>2026-04-25T07:58:08.998Z</time></trkpt><trkpt lat="45.893025455114426" lon="11.983340566043335"><ele>215.0</ele><time>2026-04-25T07:58:10.998Z</time></trkpt><trkpt lat="45.89297396312892" lon="11.9834138487327"><ele>215.00000000000003</ele><time>2026-04-25T07:58:12.998Z</time></trkpt><trkpt lat="45.8929241221914" lon="11.98349255295113"><ele>215.0</ele><time>2026-04-25T07:58:14.998Z</time></trkpt><trkpt lat="45.89288834269283" lon="11.983582606974275"><ele>215.16666666666669</ele><time>2026-04-25T07:58:16.998Z</time></trkpt><trkpt lat="45.89286797852509" lon="11.983694572727241"><ele>215.33333333333334</ele><time>2026-04-25T07:58:18.998Z</time></trkpt><trkpt lat="45.8928267368807" lon="11.98378515876432"><ele>215.5</ele><time>2026-04-25T07:58:20.998Z</time></trkpt><trkpt lat="45.89279543903118" lon="11.983900293083677"><ele>215.66666666666669</ele><time>2026-04-25T07:58:22.998Z</time></trkpt><trkpt lat="45.89276805159298" lon="11.984007156619995"><ele>215.83333333333334</ele><time>2026-04-25T07:58:24.998Z</time></trkpt><trkpt lat="45.89275109197319" lon="11.984130255561267"><ele>216.0</ele><time>2026-04-25T07:58:26.998Z</time></trkpt><trkpt lat="45.89272114844763" lon="11.98424141006658"><ele>216.0</ele><time>2026-04-25T07:58:28.998Z</time></trkpt><trkpt lat="45.89269863208092" lon="11.984372698780284"><ele>216.00000000000003</ele><time>2026-04-25T07:58:30.998Z</time></trkpt><trkpt lat="45.89268427600836" lon="11.98451301948316"><ele>216.00000000000003</ele><time>2026-04-25T07:58:32.998Z</time></trkpt><trkpt lat="45.89267932783042" lon="11.984647756343286"><ele>216.0</ele><time>2026-04-25T07:58:34.998Z</time></trkpt><trkpt lat="45.892683762338585" lon="11.984774196177932"><ele>216.0</ele><time>2026-04-25T07:58:36.998Z</time></trkpt><trkpt lat="45.89267028715555" lon="11.984903181322931"><ele>216.20000000000002</ele><time>2026-04-25T07:58:38.998Z</time></trkpt><trkpt lat="45.89264801766096" lon="11.985031898421116"><ele>216.40000000000003</ele><time>2026-04-25T07:58:41Z</time></trkpt><trkpt lat="45.89261663645995" lon="11.985163116768451"><ele>216.6</ele><time>2026-04-25T07:58:43Z</time></trkpt><trkpt lat="45.89258956061803" lon="11.985316544119152"><ele>216.8</ele><time>2026-04-25T07:58:45Z</time></trkpt><trkpt lat="45.89256784431993" lon="11.9854702951907"><ele>217.0</ele><time>2026-04-25T07:58:47Z</time></trkpt><trkpt lat="45.8925545700079" lon="11.985626580807695"><ele>216.0</ele><time>2026-04-25T07:58:49Z</time></trkpt><trkpt lat="45.89254582260733" lon="11.985776598751258"><ele>215.0</ele><time>2026-04-25T07:58:51Z</time></trkpt><trkpt lat="45.892537248162405" lon="11.985923650498282"><ele>214.0</ele><time>2026-04-25T07:58:53Z</time></trkpt><trkpt lat="45.892540587315246" lon="11.986076087997763"><ele>213.0</ele><time>2026-04-25T07:58:55Z</time></trkpt><trkpt lat="45.89252671132351" lon="11.986216318196641"><ele>212.0</ele><time>2026-04-25T07:58:57Z</time></trkpt><trkpt lat="45.892487220512294" lon="11.986371912932851"><ele>212.0</ele><time>2026-04-25T07:58:59Z</time></trkpt><trkpt lat="45.89244676859343" lon="11.986528516923025"><ele>212.0</ele><time>2026-04-25T07:59:01Z</time></trkpt><trkpt lat="45.89239632318203" lon="11.986689821109273"><ele>212.0</ele><time>2026-04-25T07:59:03Z</time></trkpt><trkpt lat="45.892381344985395" lon="11.986778501527818"><ele>212.0</ele><time>2026-04-25T07:59:04Z</time></trkpt><trkpt lat="45.892318926885906" lon="11.986935537676873"><ele>212.0</ele><time>2026-04-25T07:59:06Z</time></trkpt><trkpt lat="45.89228917642681" lon="11.987018077803425"><ele>211.6</ele><time>2026-04-25T07:59:07Z</time></trkpt><trkpt lat="45.89225988414133" lon="11.98709977225374"><ele>211.2</ele><time>2026-04-25T07:59:08Z</time></trkpt><trkpt lat="45.8922038409675" lon="11.987256854767718"><ele>210.8</ele><time>2026-04-25T07:59:10Z</time></trkpt><trkpt lat="45.89213569103945" lon="11.987410778256022"><ele>210.4</ele><time>2026-04-25T07:59:12Z</time></trkpt><trkpt lat="45.892081003910285" lon="11.98757360596147"><ele>210.0</ele><time>2026-04-25T07:59:14Z</time></trkpt><trkpt lat="45.89206975659499" lon="11.98766382272353"><ele>212.0</ele><time>2026-04-25T07:59:15Z</time></trkpt><trkpt lat="45.892011356997735" lon="11.987824329861782"><ele>214.0</ele><time>2026-04-25T07:59:17Z</time></trkpt><trkpt lat="45.891970203583256" lon="11.987977273623413"><ele>216.0</ele><time>2026-04-25T07:59:19Z</time></trkpt><trkpt lat="45.89191818768673" lon="11.988124798164112"><ele>218.0</ele><time>2026-04-25T07:59:21Z</time></trkpt><trkpt lat="45.891858193504035" lon="11.988192800501734"><ele>220.0</ele><time>2026-04-25T07:59:22Z</time></trkpt><trkpt lat="45.891761621390685" lon="11.988314109525385"><ele>218.99999999999997</ele><time>2026-04-25T07:59:24Z</time></trkpt><trkpt lat="45.89170422211924" lon="11.98836973340574"><ele>218.0</ele><time>2026-04-25T07:59:25Z</time></trkpt><trkpt lat="45.89165107302739" lon="11.988424832481938"><ele>217.0</ele><time>2026-04-25T07:59:26Z</time></trkpt><trkpt lat="45.89159731851614" lon="11.988480148657887"><ele>216.0</ele><time>2026-04-25T07:59:27Z</time></trkpt><trkpt lat="45.89154106078551" lon="11.98853337977617"><ele>215.0</ele><time>2026-04-25T07:59:28Z</time></trkpt><trkpt lat="45.89148545484058" lon="11.98859106524364"><ele>213.99999999999997</ele><time>2026-04-25T07:59:29Z</time></trkpt><trkpt lat="45.891433858239" lon="11.988656341737327"><ele>213.0</ele><time>2026-04-25T07:59:30Z</time></trkpt><trkpt lat="45.891380736567214" lon="11.988717833550899"><ele>213.0</ele><time>2026-04-25T07:59:31Z</time></trkpt><trkpt lat="45.89132776664545" lon="11.98877543352268"><ele>213.0</ele><time>2026-04-25T07:59:32Z</time></trkpt><trkpt lat="45.891251466083794" lon="11.988857187380143"><ele>213.0</ele><time>2026-04-25T07:59:34Z</time></trkpt><trkpt lat="45.891187098615625" lon="11.988901426247896"><ele>213.0</ele><time>2026-04-25T07:59:35.999Z</time></trkpt><trkpt lat="45.89111249458433" lon="11.988928349008503"><ele>213.0</ele><time>2026-04-25T07:59:37.999Z</time></trkpt><trkpt lat="45.89107032014423" lon="11.98899563377589"><ele>213.0</ele><time>2026-04-25T07:59:39.999Z</time></trkpt><trkpt lat="45.89112770988957" lon="11.989104469404726"><ele>215.33333333333334</ele><time>2026-04-25T07:59:42.998Z</time></trkpt><trkpt lat="45.891129991776424" lon="11.989254304326867"><ele>217.66666666666669</ele><time>2026-04-25T07:59:45.998Z</time></trkpt><trkpt lat="45.891103603108945" lon="11.989344950493871"><ele>220.0</ele><time>2026-04-25T07:59:47.998Z</time></trkpt><trkpt lat="45.8910675225858" lon="11.989448762265162"><ele>222.33333333333334</ele><time>2026-04-25T07:59:49.998Z</time></trkpt><trkpt lat="45.891047107756705" lon="11.989569024184613"><ele>224.66666666666669</ele><time>2026-04-25T07:59:51.998Z</time></trkpt><trkpt lat="45.89099217667444" lon="11.989659848514334"><ele>227.0</ele><time>2026-04-25T07:59:53.998Z</time></trkpt><trkpt lat="45.8909597320646" lon="11.989770402876081"><ele>227.0</ele><time>2026-04-25T07:59:55.998Z</time></trkpt><trkpt lat="45.8909127015946" lon="11.989846694016041"><ele>227.00000000000003</ele><time>2026-04-25T07:59:57.998Z</time></trkpt><trkpt lat="45.890867273346785" lon="11.989928939225686"><ele>227.0</ele><time>2026-04-25T07:59:59.998Z</time></trkpt><trkpt lat="45.89081648894302" lon="11.990011105028065"><ele>227.0</ele><time>2026-04-25T08:00:02.998Z</time></trkpt><trkpt lat="45.89085649825972" lon="11.989922541318537"><ele>227.00000000000003</ele><time>2026-04-25T08:00:14.998Z</time></trkpt><trkpt lat="45.890904446694854" lon="11.989847550972021"><ele>227.0</ele><time>2026-04-25T08:00:17.998Z</time></trkpt><trkpt lat="45.890954004704255" lon="11.989749096590455"><ele>227.0</ele><time>2026-04-25T08:00:19.997Z</time></trkpt><trkpt lat="45.89100126689245" lon="11.989640979906296"><ele>227.00000000000003</ele><time>2026-04-25T08:00:22.997Z</time></trkpt><trkpt lat="45.89103309834831" lon="11.989560191369396"><ele>227.0</ele><time>2026-04-25T08:00:24.997Z</time></trkpt><trkpt lat="45.89106092664404" lon="11.989474582356209"><ele>227.0</ele><time>2026-04-25T08:00:26.997Z</time></trkpt><trkpt lat="45.89108640159793" lon="11.989364355402344"><ele>227.0</ele><time>2026-04-25T08:00:29.997Z</time></trkpt><trkpt lat="45.89110625047602" lon="11.989277010014094"><ele>227.00000000000003</ele><time>2026-04-25T08:00:31.997Z</time></trkpt><trkpt lat="45.89093967568513" lon="11.989288011895885"><ele>227.0</ele><time>2026-04-25T08:00:39.997Z</time></trkpt><trkpt lat="45.89088057732273" lon="11.989355338597063"><ele>222.6</ele><time>2026-04-25T08:00:41.997Z</time></trkpt><trkpt lat="45.890802696125" lon="11.989409770335948"><ele>218.2</ele><time>2026-04-25T08:00:43.997Z</time></trkpt><trkpt lat="45.89072971728904" lon="11.989485868068192"><ele>213.8</ele><time>2026-04-25T08:00:46Z</time></trkpt><trkpt lat="45.89065051774349" lon="11.989562279570785"><ele>209.4</ele><time>2026-04-25T08:00:48Z</time></trkpt><trkpt lat="45.8905684806674" lon="11.98964995541607"><ele>205.0</ele><time>2026-04-25T08:00:50Z</time></trkpt><trkpt lat="45.890490064303386" lon="11.989739481690137"><ele>205.0</ele><time>2026-04-25T08:00:52Z</time></trkpt><trkpt lat="45.89040255896175" lon="11.989821785463732"><ele>205.0</ele><time>2026-04-25T08:00:54Z</time></trkpt><trkpt lat="45.89032022275629" lon="11.98991328164396"><ele>205.0</ele><time>2026-04-25T08:00:56Z</time></trkpt><trkpt lat="45.89023270912996" lon="11.990009122562844"><ele>205.0</ele><time>2026-04-25T08:00:58Z</time></trkpt><trkpt lat="45.89013902995104" lon="11.990111745772607"><ele>205.0</ele><time>2026-04-25T08:01:00Z</time></trkpt><trkpt lat="45.89005469961653" lon="11.990221351329836"><ele>204.0</ele><time>2026-04-25T08:01:02Z</time></trkpt><trkpt lat="45.889977600062" lon="11.990332906998248"><ele>203.0</ele><time>2026-04-25T08:01:04Z</time></trkpt><trkpt lat="45.88989139044595" lon="11.99043936204299"><ele>202.0</ele><time>2026-04-25T08:01:06Z</time></trkpt><trkpt lat="45.88984401267184" lon="11.990502017700594"><ele>201.0</ele><time>2026-04-25T08:01:06.999Z</time></trkpt><trkpt lat="45.88975722021494" lon="11.990610374805852"><ele>200.0</ele><time>2026-04-25T08:01:08.999Z</time></trkpt><trkpt lat="45.88966652969948" lon="11.990718494775264"><ele>200.0</ele><time>2026-04-25T08:01:10.999Z</time></trkpt><trkpt lat="45.88957959265313" lon="11.990832157309372"><ele>200.0</ele><time>2026-04-25T08:01:12.999Z</time></trkpt><trkpt lat="45.88949560420635" lon="11.99094195731426"><ele>200.0</ele><time>2026-04-25T08:01:14.999Z</time></trkpt><trkpt lat="45.88941070723556" lon="11.991052707524176"><ele>200.0</ele><time>2026-04-25T08:01:16.999Z</time></trkpt><trkpt lat="45.88933321357401" lon="11.991158400936179"><ele>199.2</ele><time>2026-04-25T08:01:18.999Z</time></trkpt><trkpt lat="45.889238632071645" lon="11.991243694131471"><ele>198.4</ele><time>2026-04-25T08:01:20.999Z</time></trkpt><trkpt lat="45.889198312229695" lon="11.991315619313218"><ele>197.60000000000002</ele><time>2026-04-25T08:01:21.999Z</time></trkpt><trkpt lat="45.889100007261746" lon="11.991399220688379"><ele>196.8</ele><time>2026-04-25T08:01:23.999Z</time></trkpt><trkpt lat="45.88901106812659" lon="11.991504089057482"><ele>196.0</ele><time>2026-04-25T08:01:25.999Z</time></trkpt><trkpt lat="45.88892836214619" lon="11.991619967103672"><ele>196.25</ele><time>2026-04-25T08:01:27.999Z</time></trkpt><trkpt lat="45.88886044583982" lon="11.991764891914212"><ele>196.5</ele><time>2026-04-25T08:01:29.999Z</time></trkpt><trkpt lat="45.88879157157401" lon="11.991891625914525"><ele>196.75</ele><time>2026-04-25T08:01:31.999Z</time></trkpt><trkpt lat="45.88872556431373" lon="11.992025172321133"><ele>197.0</ele><time>2026-04-25T08:01:33.999Z</time></trkpt><trkpt lat="45.88866546827205" lon="11.992168150528851"><ele>197.0</ele><time>2026-04-25T08:01:35.999Z</time></trkpt><trkpt lat="45.88861365704221" lon="11.992320371918236"><ele>197.0</ele><time>2026-04-25T08:01:37.999Z</time></trkpt><trkpt lat="45.888548957616294" lon="11.992460930658728"><ele>197.0</ele><time>2026-04-25T08:01:39.999Z</time></trkpt><trkpt lat="45.888511911658874" lon="11.992537497127598"><ele>197.0</ele><time>2026-04-25T08:01:40.999Z</time></trkpt><trkpt lat="45.88845281683848" lon="11.992680123476587"><ele>197.0</ele><time>2026-04-25T08:01:42.999Z</time></trkpt><trkpt lat="45.88840019564425" lon="11.992813899067574"><ele>196.6</ele><time>2026-04-25T08:01:44.999Z</time></trkpt><trkpt lat="45.88834494723124" lon="11.992954799928066"><ele>196.2</ele><time>2026-04-25T08:01:46.999Z</time></trkpt><trkpt lat="45.88828801800959" lon="11.993079840995215"><ele>195.8</ele><time>2026-04-25T08:01:48.998Z</time></trkpt><trkpt lat="45.88822639188948" lon="11.993198345853939"><ele>195.4</ele><time>2026-04-25T08:01:50.998Z</time></trkpt><trkpt lat="45.8881733401405" lon="11.99332715752458"><ele>195.0</ele><time>2026-04-25T08:01:52.998Z</time></trkpt><trkpt lat="45.88811960893004" lon="11.993443581746813"><ele>195.0</ele><time>2026-04-25T08:01:54.998Z</time></trkpt><trkpt lat="45.888073443395015" lon="11.99357407121654"><ele>195.0</ele><time>2026-04-25T08:01:56.998Z</time></trkpt><trkpt lat="45.88801475092984" lon="11.993695557153412"><ele>195.0</ele><time>2026-04-25T08:01:58.998Z</time></trkpt><trkpt lat="45.88796186877513" lon="11.99381281781335"><ele>195.0</ele><time>2026-04-25T08:02:00.998Z</time></trkpt><trkpt lat="45.887901110001216" lon="11.993925102297588"><ele>195.0</ele><time>2026-04-25T08:02:02.998Z</time></trkpt><trkpt lat="45.88783362186038" lon="11.994046707707987"><ele>195.0</ele><time>2026-04-25T08:02:04.998Z</time></trkpt><trkpt lat="45.887768482922525" lon="11.994165334037817"><ele>195.0</ele><time>2026-04-25T08:02:06.998Z</time></trkpt><trkpt lat="45.88772220570314" lon="11.994255829871591"><ele>195.0</ele><time>2026-04-25T08:02:08.998Z</time></trkpt><trkpt lat="45.88767099076979" lon="11.994360428301857"><ele>195.0</ele><time>2026-04-25T08:02:11.998Z</time></trkpt><trkpt lat="45.88760871511799" lon="11.99445288855788"><ele>195.0</ele><time>2026-04-25T08:02:14.998Z</time></trkpt><trkpt lat="45.88756684410107" lon="11.994539204017611"><ele>195.0</ele><time>2026-04-25T08:02:16.998Z</time></trkpt><trkpt lat="45.88750328311559" lon="11.994657678031125"><ele>194.83333333333334</ele><time>2026-04-25T08:02:18.998Z</time></trkpt><trkpt lat="45.88743137243093" lon="11.99478177242845"><ele>194.66666666666669</ele><time>2026-04-25T08:02:20.998Z</time></trkpt><trkpt lat="45.88734882899175" lon="11.994923838417701"><ele>194.5</ele><time>2026-04-25T08:02:22.998Z</time></trkpt><trkpt lat="45.88730567890719" lon="11.994998104025278"><ele>194.33333333333334</ele><time>2026-04-25T08:02:23.998Z</time></trkpt><trkpt lat="45.8872607125502" lon="11.99507774583578"><ele>194.16666666666669</ele><time>2026-04-25T08:02:24.998Z</time></trkpt><trkpt lat="45.887219606728756" lon="11.995153859472273"><ele>194.0</ele><time>2026-04-25T08:02:25.998Z</time></trkpt><trkpt lat="45.88717983309799" lon="11.995228671728933"><ele>193.00000000000003</ele><time>2026-04-25T08:02:26.998Z</time></trkpt><trkpt lat="45.88710030920339" lon="11.995387670367654"><ele>192.0</ele><time>2026-04-25T08:02:28.998Z</time></trkpt><trkpt lat="45.88705960120084" lon="11.995478749829973"><ele>191.0</ele><time>2026-04-25T08:02:29.998Z</time></trkpt><trkpt lat="45.887023128425724" lon="11.995571129933916"><ele>190.0</ele><time>2026-04-25T08:02:30.998Z</time></trkpt><trkpt lat="45.88698845695249" lon="11.99566858041555"><ele>189.0</ele><time>2026-04-25T08:02:31.998Z</time></trkpt><trkpt lat="45.886966757956436" lon="11.995776556604133"><ele>188.0</ele><time>2026-04-25T08:02:32.997Z</time></trkpt><trkpt lat="45.88696336626306" lon="11.995894744852833"><ele>188.0</ele><time>2026-04-25T08:02:33.997Z</time></trkpt><trkpt lat="45.88698567040657" lon="11.995998820353355"><ele>188.0</ele><time>2026-04-25T08:02:34.997Z</time></trkpt><trkpt lat="45.88699402353984" lon="11.99610733590151"><ele>188.0</ele><time>2026-04-25T08:02:35.997Z</time></trkpt><trkpt lat="45.886998532370306" lon="11.996208230847198"><ele>188.0</ele><time>2026-04-25T08:02:36.997Z</time></trkpt><trkpt lat="45.88700564916084" lon="11.996302179730346"><ele>188.0</ele><time>2026-04-25T08:02:37.997Z</time></trkpt><trkpt lat="45.88702087757502" lon="11.99645597982191"><ele>188.0</ele><time>2026-04-25T08:02:39.997Z</time></trkpt><trkpt lat="45.88701396193555" lon="11.996591374326265"><ele>189.0</ele><time>2026-04-25T08:02:41.997Z</time></trkpt><trkpt lat="45.88701230665962" lon="11.996693365911693"><ele>190.0</ele><time>2026-04-25T08:02:43.997Z</time></trkpt><trkpt lat="45.88699140770069" lon="11.996816906088037"><ele>191.0</ele><time>2026-04-25T08:02:46.997Z</time></trkpt><trkpt lat="45.88696119554674" lon="11.996900365049266"><ele>192.0</ele><time>2026-04-25T08:02:49.997Z</time></trkpt><trkpt lat="45.88691934879487" lon="11.996996506791536"><ele>193.0</ele><time>2026-04-25T08:02:54Z</time></trkpt><trkpt lat="45.88688909694704" lon="11.99708527688463"><ele>194.0</ele><time>2026-04-25T08:02:58Z</time></trkpt><trkpt lat="45.88684243237196" lon="11.997161896657413"><ele>195.0</ele><time>2026-04-25T08:03:02Z</time></trkpt><trkpt lat="45.88680040106801" lon="11.997249308282903"><ele>194.71428571428572</ele><time>2026-04-25T08:03:06Z</time></trkpt><trkpt lat="45.886760273006956" lon="11.997319045603835"><ele>194.42857142857142</ele><time>2026-04-25T08:03:09Z</time></trkpt><trkpt lat="45.88672613691201" lon="11.997407048276918"><ele>194.14285714285717</ele><time>2026-04-25T08:03:13Z</time></trkpt><trkpt lat="45.88669311005624" lon="11.997492059014274"><ele>193.85714285714286</ele><time>2026-04-25T08:03:17Z</time></trkpt><trkpt lat="45.886659968099494" lon="11.997572657555487"><ele>193.57142857142858</ele><time>2026-04-25T08:03:21Z</time></trkpt><trkpt lat="45.886624952017335" lon="11.997649164723638"><ele>193.2857142857143</ele><time>2026-04-25T08:03:25Z</time></trkpt><trkpt lat="45.88657937093253" lon="11.99772366538503"><ele>193.0</ele><time>2026-04-25T08:03:29.999Z</time></trkpt><trkpt lat="45.886513166668706" lon="11.997773807719755"><ele>192.99999999999997</ele><time>2026-04-25T08:03:34.999Z</time></trkpt><trkpt lat="45.88648582752266" lon="11.997692301070174"><ele>193.0</ele><time>2026-04-25T08:03:36.999Z</time></trkpt><trkpt lat="45.886435733950236" lon="11.997609309781506"><ele>193.0</ele><time>2026-04-25T08:03:38.999Z</time></trkpt><trkpt lat="45.88638588013104" lon="11.997527776687297"><ele>193.0</ele><time>2026-04-25T08:03:40.999Z</time></trkpt><trkpt lat="45.886324511406784" lon="11.997448672669176"><ele>192.99999999999997</ele><time>2026-04-25T08:03:42.999Z</time></trkpt><trkpt lat="45.88624787917499" lon="11.997374219399715"><ele>193.0</ele><time>2026-04-25T08:03:44.999Z</time></trkpt><trkpt lat="45.886152082420104" lon="11.99733473841251"><ele>192.99999999999997</ele><time>2026-04-25T08:03:46.999Z</time></trkpt><trkpt lat="45.8860457660148" lon="11.99733263000998"><ele>193.0</ele><time>2026-04-25T08:03:48.999Z</time></trkpt><trkpt lat="45.885950700448184" lon="11.997362004789865"><ele>193.0</ele><time>2026-04-25T08:03:50.999Z</time></trkpt><trkpt lat="45.88586161390272" lon="11.997389758189877"><ele>193.0</ele><time>2026-04-25T08:03:52.999Z</time></trkpt><trkpt lat="45.88578042099846" lon="11.997420943111702"><ele>192.99999999999997</ele><time>2026-04-25T08:03:54.999Z</time></trkpt><trkpt lat="45.88572114769032" lon="11.997453095194714"><ele>193.0</ele><time>2026-04-25T08:03:56.999Z</time></trkpt><trkpt lat="45.88583266788234" lon="11.997611803351992"><ele>193.14285714285717</ele><time>2026-04-25T08:04:00.999Z</time></trkpt><trkpt lat="45.885878586343196" lon="11.997684861942952"><ele>193.28571428571428</ele><time>2026-04-25T08:04:03.999Z</time></trkpt><trkpt lat="45.88593751255187" lon="11.997777793276892"><ele>193.42857142857144</ele><time>2026-04-25T08:04:06.999Z</time></trkpt><trkpt lat="45.88598290295998" lon="11.997846584926519"><ele>193.57142857142858</ele><time>2026-04-25T08:04:08.998Z</time></trkpt><trkpt lat="45.88603177521905" lon="11.997919696829591"><ele>193.71428571428572</ele><time>2026-04-25T08:04:10.998Z</time></trkpt><trkpt lat="45.88608296505146" lon="11.998001554271337"><ele>193.85714285714286</ele><time>2026-04-25T08:04:12.998Z</time></trkpt><trkpt lat="45.88613118467476" lon="11.998083328496335"><ele>194.0</ele><time>2026-04-25T08:04:14.998Z</time></trkpt><trkpt lat="45.88618339434614" lon="11.998164856062566"><ele>194.50000000000003</ele><time>2026-04-25T08:04:16.998Z</time></trkpt><trkpt lat="45.88623631972486" lon="11.998249128320582"><ele>195.0</ele><time>2026-04-25T08:04:18.998Z</time></trkpt><trkpt lat="45.886289664416964" lon="11.99833281442145"><ele>195.5</ele><time>2026-04-25T08:04:20.998Z</time></trkpt><trkpt lat="45.886344672269956" lon="11.998416607198893"><ele>196.0</ele><time>2026-04-25T08:04:22.998Z</time></trkpt><trkpt lat="45.88640216489821" lon="11.998506383112252"><ele>196.50000000000003</ele><time>2026-04-25T08:04:24.998Z</time></trkpt><trkpt lat="45.88645969370905" lon="11.998599046196812"><ele>197.0</ele><time>2026-04-25T08:04:26.998Z</time></trkpt><trkpt lat="45.88651646422272" lon="11.998690576659271"><ele>197.33333333333334</ele><time>2026-04-25T08:04:28.998Z</time></trkpt><trkpt lat="45.88657005321678" lon="11.998782562774894"><ele>197.66666666666669</ele><time>2026-04-25T08:04:30.998Z</time></trkpt><trkpt lat="45.886625931120996" lon="11.99887347562848"><ele>198.0</ele><time>2026-04-25T08:04:32.998Z</time></trkpt><trkpt lat="45.88667332887599" lon="11.99896772911784"><ele>198.33333333333331</ele><time>2026-04-25T08:04:34.998Z</time></trkpt><trkpt lat="45.886715084774394" lon="11.999063209272714"><ele>198.66666666666666</ele><time>2026-04-25T08:04:36.998Z</time></trkpt><trkpt lat="45.886748438473575" lon="11.99915529318786"><ele>199.0</ele><time>2026-04-25T08:04:38.998Z</time></trkpt><trkpt lat="45.88677858299122" lon="11.999269012764284"><ele>199.28571428571428</ele><time>2026-04-25T08:04:41.998Z</time></trkpt><trkpt lat="45.88674676170826" lon="11.999359616307645"><ele>199.57142857142856</ele><time>2026-04-25T08:04:44.998Z</time></trkpt><trkpt lat="45.88668048200581" lon="11.999359292417621"><ele>199.85714285714283</ele><time>2026-04-25T08:04:46.998Z</time></trkpt><trkpt lat="45.88662641350383" lon="11.999424687804426"><ele>200.14285714285714</ele><time>2026-04-25T08:04:49.998Z</time></trkpt><trkpt lat="45.88658610048289" lon="11.999496145035327"><ele>200.42857142857144</ele><time>2026-04-25T08:04:52.997Z</time></trkpt><trkpt lat="45.88663632059454" lon="11.999412705312624"><ele>200.7142857142857</ele><time>2026-04-25T08:05:15Z</time></trkpt><trkpt lat="45.886690660990006" lon="11.999346981023999"><ele>201.0</ele><time>2026-04-25T08:05:20Z</time></trkpt><trkpt lat="45.886760016876174" lon="11.999267472019776"><ele>199.66666666666669</ele><time>2026-04-25T08:05:24Z</time></trkpt><trkpt lat="45.88685747798578" lon="11.99917852126758"><ele>198.33333333333334</ele><time>2026-04-25T08:05:28Z</time></trkpt><trkpt lat="45.88695455701888" lon="11.999158328434689"><ele>197.0</ele><time>2026-04-25T08:05:29Z</time></trkpt><trkpt lat="45.88706876399333" lon="11.999497423566346"><ele>197.00000000000003</ele><time>2026-04-25T08:05:30Z</time></trkpt><trkpt lat="45.88710455808804" lon="11.999393707758149"><ele>197.0</ele><time>2026-04-25T08:05:32Z</time></trkpt><trkpt lat="45.88706544669985" lon="11.99931434612188"><ele>197.0</ele><time>2026-04-25T08:05:33Z</time></trkpt><trkpt lat="45.887134887202016" lon="11.999263553482468"><ele>197.0</ele><time>2026-04-25T08:05:36Z</time></trkpt><trkpt lat="45.88720176288253" lon="11.999220240573937"><ele>197.00000000000003</ele><time>2026-04-25T08:05:39Z</time></trkpt><trkpt lat="45.88726962989469" lon="11.999176285702735"><ele>197.0</ele><time>2026-04-25T08:05:41.999Z</time></trkpt><trkpt lat="45.88734698101555" lon="11.999126188301156"><ele>197.0</ele><time>2026-04-25T08:05:44.999Z</time></trkpt><trkpt lat="45.887429354040265" lon="11.999072838449363"><ele>197.0</ele><time>2026-04-25T08:05:47.999Z</time></trkpt><trkpt lat="45.887508306156356" lon="11.999021704139023"><ele>197.0</ele><time>2026-04-25T08:05:50.999Z</time></trkpt><trkpt lat="45.88770591363616" lon="11.999392394837285"><ele>197.71428571428572</ele><time>2026-04-25T08:05:52.999Z</time></trkpt><trkpt lat="45.88778058006051" lon="11.999426374584738"><ele>198.42857142857144</ele><time>2026-04-25T08:05:54.999Z</time></trkpt><trkpt lat="45.887844655322546" lon="11.999369976374906"><ele>199.14285714285714</ele><time>2026-04-25T08:05:56.999Z</time></trkpt><trkpt lat="45.88792336512713" lon="11.999370098729397"><ele>199.85714285714286</ele><time>2026-04-25T08:05:58.999Z</time></trkpt><trkpt lat="45.887989849665956" lon="11.99938589793282"><ele>200.57142857142856</ele><time>2026-04-25T08:06:00.999Z</time></trkpt><trkpt lat="45.88805216475073" lon="11.999415671596742"><ele>201.28571428571428</ele><time>2026-04-25T08:06:02.999Z</time></trkpt><trkpt lat="45.88811015565042" lon="11.999466225380269"><ele>202.0</ele><time>2026-04-25T08:06:04.999Z</time></trkpt><trkpt lat="45.88816243227912" lon="11.99952245047498"><ele>202.0</ele><time>2026-04-25T08:06:06.999Z</time></trkpt><trkpt lat="45.88821231119932" lon="11.999584550025224"><ele>202.0</ele><time>2026-04-25T08:06:08.999Z</time></trkpt><trkpt lat="45.88826268653072" lon="11.999652473699227"><ele>202.0</ele><time>2026-04-25T08:06:10.999Z</time></trkpt><trkpt lat="45.88830951922532" lon="11.99971562063776"><ele>202.0</ele><time>2026-04-25T08:06:12.999Z</time></trkpt><trkpt lat="45.88838204285951" lon="11.999813407998298"><ele>202.0</ele><time>2026-04-25T08:06:15.999Z</time></trkpt><trkpt lat="45.8884336933266" lon="11.999881534404341"><ele>202.0</ele><time>2026-04-25T08:06:17.999Z</time></trkpt><trkpt lat="45.88848796391753" lon="11.999950431566441"><ele>202.0</ele><time>2026-04-25T08:06:19.999Z</time></trkpt><trkpt lat="45.88854482145725" lon="12.000020915934424"><ele>202.33333333333331</ele><time>2026-04-25T08:06:21.999Z</time></trkpt><trkpt lat="45.88859160727242" lon="12.000094863797028"><ele>202.66666666666666</ele><time>2026-04-25T08:06:23.998Z</time></trkpt><trkpt lat="45.88868382875593" lon="12.00013429301769"><ele>203.0</ele><time>2026-04-25T08:06:26.998Z</time></trkpt><trkpt lat="45.888756697941744" lon="12.000185308436903"><ele>203.33333333333331</ele><time>2026-04-25T08:06:28.998Z</time></trkpt><trkpt lat="45.88881676394222" lon="12.000267497338703"><ele>203.66666666666666</ele><time>2026-04-25T08:06:30.998Z</time></trkpt><trkpt lat="45.88887200702589" lon="12.000319605103419"><ele>204.0</ele><time>2026-04-25T08:06:32.998Z</time></trkpt><trkpt lat="45.88893952551836" lon="12.000383691599774"><ele>204.0</ele><time>2026-04-25T08:06:34.998Z</time></trkpt><trkpt lat="45.88900797818985" lon="12.000443425287934"><ele>204.0</ele><time>2026-04-25T08:06:36.998Z</time></trkpt><trkpt lat="45.88908099545808" lon="12.000501675097121"><ele>204.0</ele><time>2026-04-25T08:06:38.998Z</time></trkpt><trkpt lat="45.88915912802919" lon="12.000549371362531"><ele>204.0</ele><time>2026-04-25T08:06:40.998Z</time></trkpt><trkpt lat="45.88923718901962" lon="12.000585902736601"><ele>204.0</ele><time>2026-04-25T08:06:42.998Z</time></trkpt><trkpt lat="45.88932056163592" lon="12.000603249027176"><ele>204.0</ele><time>2026-04-25T08:06:44.998Z</time></trkpt><trkpt lat="45.88940204100813" lon="12.000609952090361"><ele>204.5</ele><time>2026-04-25T08:06:46.998Z</time></trkpt><trkpt lat="45.88948208183522" lon="12.000606222173817"><ele>205.0</ele><time>2026-04-25T08:06:48.998Z</time></trkpt><trkpt lat="45.88956257300146" lon="12.000591449718971"><ele>205.5</ele><time>2026-04-25T08:06:50.998Z</time></trkpt><trkpt lat="45.889644454455684" lon="12.000571784885729"><ele>206.0</ele><time>2026-04-25T08:06:52.998Z</time></trkpt><trkpt lat="45.88971908333401" lon="12.000522493257593"><ele>206.5</ele><time>2026-04-25T08:06:54.998Z</time></trkpt><trkpt lat="45.889802391333234" lon="12.000502755523456"><ele>207.0</ele><time>2026-04-25T08:06:56.998Z</time></trkpt><trkpt lat="45.88988378518988" lon="12.000486877161935"><ele>207.0</ele><time>2026-04-25T08:06:58.998Z</time></trkpt><trkpt lat="45.889967343626175" lon="12.000485246361308"><ele>207.0</ele><time>2026-04-25T08:07:00.998Z</time></trkpt><trkpt lat="45.89005166396873" lon="12.000500313651196"><ele>207.0</ele><time>2026-04-25T08:07:03Z</time></trkpt><trkpt lat="45.89013486105872" lon="12.000516854354771"><ele>207.0</ele><time>2026-04-25T08:07:05Z</time></trkpt><trkpt lat="45.890213644978004" lon="12.000543672215029"><ele>207.0</ele><time>2026-04-25T08:07:07Z</time></trkpt><trkpt lat="45.89029564965221" lon="12.000565520262931"><ele>207.0</ele><time>2026-04-25T08:07:09Z</time></trkpt><trkpt lat="45.890376560852886" lon="12.000594041415521"><ele>207.0</ele><time>2026-04-25T08:07:11Z</time></trkpt><trkpt lat="45.8904590677611" lon="12.000611520059607"><ele>207.0</ele><time>2026-04-25T08:07:13Z</time></trkpt><trkpt lat="45.89053759728742" lon="12.000638675615278"><ele>207.0</ele><time>2026-04-25T08:07:15Z</time></trkpt><trkpt lat="45.89061556030163" lon="12.000668298838578"><ele>207.0</ele><time>2026-04-25T08:07:17Z</time></trkpt><trkpt lat="45.89069226556273" lon="12.000713129825058"><ele>207.0</ele><time>2026-04-25T08:07:19Z</time></trkpt><trkpt lat="45.890754373258794" lon="12.000784374564194"><ele>207.0</ele><time>2026-04-25T08:07:21Z</time></trkpt><trkpt lat="45.8907976677381" lon="12.000859707019146"><ele>207.0</ele><time>2026-04-25T08:07:23Z</time></trkpt><trkpt lat="45.890830949612834" lon="12.000975180070714"><ele>207.0</ele><time>2026-04-25T08:07:26Z</time></trkpt><trkpt lat="45.890849790347225" lon="12.001072081217593"><ele>207.0</ele><time>2026-04-25T08:07:29Z</time></trkpt><trkpt lat="45.890908846139794" lon="12.001109517375715"><ele>207.0</ele><time>2026-04-25T08:07:34Z</time></trkpt><trkpt lat="45.89089920214294" lon="12.000998495212018"><ele>207.0</ele><time>2026-04-25T08:07:37Z</time></trkpt><trkpt lat="45.890867839266285" lon="12.00088145757574"><ele>207.0</ele><time>2026-04-25T08:07:40Z</time></trkpt><trkpt lat="45.89086107439935" lon="12.000783454051776"><ele>206.0</ele><time>2026-04-25T08:07:42.999Z</time></trkpt><trkpt lat="45.89090215356175" lon="12.00065566192122"><ele>205.0</ele><time>2026-04-25T08:07:45.999Z</time></trkpt><trkpt lat="45.89095666354682" lon="12.000547180414957"><ele>204.0</ele><time>2026-04-25T08:07:47.999Z</time></trkpt><trkpt lat="45.8910135372706" lon="12.000429909558495"><ele>203.0</ele><time>2026-04-25T08:07:49.999Z</time></trkpt><trkpt lat="45.89105606036486" lon="12.00027270129208"><ele>202.0</ele><time>2026-04-25T08:07:51.999Z</time></trkpt><trkpt lat="45.89104300777609" lon="12.000126080026831"><ele>202.0</ele><time>2026-04-25T08:07:53.999Z</time></trkpt><trkpt lat="45.89103217285117" lon="12.00001470592401"><ele>202.0</ele><time>2026-04-25T08:07:55.999Z</time></trkpt><trkpt lat="45.891077380465205" lon="11.99992902263492"><ele>202.0</ele><time>2026-04-25T08:07:57.999Z</time></trkpt><trkpt lat="45.89114664584993" lon="11.999898161593267"><ele>202.0</ele><time>2026-04-25T08:07:59.998Z</time></trkpt><trkpt lat="45.89120603849497" lon="11.999848049217514"><ele>202.0</ele><time>2026-04-25T08:08:01.998Z</time></trkpt><trkpt lat="45.89124842086302" lon="11.999776486204778"><ele>202.0</ele><time>2026-04-25T08:08:03.998Z</time></trkpt><trkpt lat="45.89128179874092" lon="11.999682495112202"><ele>202.0</ele><time>2026-04-25T08:08:06.998Z</time></trkpt><trkpt lat="45.8913112309465" lon="11.999586219426744"><ele>202.0</ele><time>2026-04-25T08:08:10.998Z</time></trkpt><trkpt lat="45.89135001555301" lon="11.999490093704953"><ele>202.0</ele><time>2026-04-25T08:08:15.998Z</time></trkpt><trkpt lat="45.89141738291732" lon="11.999479276896066"><ele>202.0</ele><time>2026-04-25T08:08:18.998Z</time></trkpt><trkpt lat="45.89148046136887" lon="11.999476145628387"><ele>202.0</ele><time>2026-04-25T08:08:21.998Z</time></trkpt><trkpt lat="45.89154038903003" lon="11.999511337331036"><ele>202.0</ele><time>2026-04-25T08:08:24.998Z</time></trkpt><trkpt lat="45.89161681207522" lon="11.999519003533937"><ele>202.0</ele><time>2026-04-25T08:08:28.998Z</time></trkpt><trkpt lat="45.89168099623066" lon="11.999541459638348"><ele>202.0</ele><time>2026-04-25T08:08:32.998Z</time></trkpt><trkpt lat="45.89174934867658" lon="11.999534559793396"><ele>202.99999999999997</ele><time>2026-04-25T08:08:36.998Z</time></trkpt><trkpt lat="45.89182147217998" lon="11.999424145077931"><ele>204.0</ele><time>2026-04-25T08:08:40.998Z</time></trkpt><trkpt lat="45.89186474893605" lon="11.999345648618153"><ele>205.0</ele><time>2026-04-25T08:08:43.997Z</time></trkpt><trkpt lat="45.89191229289921" lon="11.999259411953513"><ele>206.0</ele><time>2026-04-25T08:08:46.997Z</time></trkpt><trkpt lat="45.891956665850635" lon="11.999178463516449"><ele>206.99999999999997</ele><time>2026-04-25T08:08:49.997Z</time></trkpt><trkpt lat="45.89200319644216" lon="11.999099027680428"><ele>208.0</ele><time>2026-04-25T08:08:52.997Z</time></trkpt><trkpt lat="45.892048480395935" lon="11.999021719959622"><ele>208.49999999999997</ele><time>2026-04-25T08:08:55.997Z</time></trkpt><trkpt lat="45.892088590017224" lon="11.998950720828498"><ele>209.0</ele><time>2026-04-25T08:08:58.997Z</time></trkpt><trkpt lat="45.89212902399466" lon="11.998873259371498"><ele>209.5</ele><time>2026-04-25T08:09:01.997Z</time></trkpt><trkpt lat="45.892173517964764" lon="11.998772976604187"><ele>210.0</ele><time>2026-04-25T08:09:05.997Z</time></trkpt><trkpt lat="45.89221464044078" lon="11.998669349563992"><ele>210.49999999999997</ele><time>2026-04-25T08:09:10Z</time></trkpt><trkpt lat="45.89225308528765" lon="11.99857247003489"><ele>211.0</ele><time>2026-04-25T08:09:14Z</time></trkpt><trkpt lat="45.89229657899188" lon="11.998472827066607"><ele>211.0</ele><time>2026-04-25T08:09:18Z</time></trkpt><trkpt lat="45.89233510575295" lon="11.998389849733917"><ele>211.0</ele><time>2026-04-25T08:09:21Z</time></trkpt><trkpt lat="45.892373287147024" lon="11.998309569698188"><ele>211.0</ele><time>2026-04-25T08:09:24Z</time></trkpt><trkpt lat="45.89241983733358" lon="11.99822253788507"><ele>211.0</ele><time>2026-04-25T08:09:27Z</time></trkpt><trkpt lat="45.89246874808079" lon="11.998152832836697"><ele>211.0</ele><time>2026-04-25T08:09:30Z</time></trkpt><trkpt lat="45.89252353792593" lon="11.998096977542106"><ele>211.0</ele><time>2026-04-25T08:09:33Z</time></trkpt><trkpt lat="45.89259039914798" lon="11.998048799968888"><ele>211.0</ele><time>2026-04-25T08:09:35.999Z</time></trkpt><trkpt lat="45.89266632991323" lon="11.997988946162813"><ele>213.49999999999997</ele><time>2026-04-25T08:09:38.999Z</time></trkpt><trkpt lat="45.89273278626725" lon="11.997929722897904"><ele>216.0</ele><time>2026-04-25T08:09:41.999Z</time></trkpt><trkpt lat="45.89279824940825" lon="11.997869358815551"><ele>218.5</ele><time>2026-04-25T08:09:44.999Z</time></trkpt><trkpt lat="45.892857358913645" lon="11.997814853528991"><ele>221.0</ele><time>2026-04-25T08:09:47.999Z</time></trkpt><trkpt lat="45.892930253601804" lon="11.997748743735693"><ele>223.49999999999997</ele><time>2026-04-25T08:09:51.999Z</time></trkpt><trkpt lat="45.89298615105566" lon="11.9976988352801"><ele>226.0</ele><time>2026-04-25T08:09:54.999Z</time></trkpt><trkpt lat="45.893059496948425" lon="11.997638525478784"><ele>226.0</ele><time>2026-04-25T08:09:58.999Z</time></trkpt><trkpt lat="45.89313150823723" lon="11.997583682416272"><ele>226.0</ele><time>2026-04-25T08:10:02.999Z</time></trkpt><trkpt lat="45.893201501630095" lon="11.99753342101413"><ele>226.0</ele><time>2026-04-25T08:10:06.999Z</time></trkpt><trkpt lat="45.893268844615626" lon="11.997487239688468"><ele>226.0</ele><time>2026-04-25T08:10:10.999Z</time></trkpt><trkpt lat="45.893328982201" lon="11.997447179071719"><ele>226.0</ele><time>2026-04-25T08:10:14.999Z</time></trkpt><trkpt lat="45.89339602555966" lon="11.997402518199586"><ele>226.0</ele><time>2026-04-25T08:10:18.998Z</time></trkpt><trkpt lat="45.893462804033526" lon="11.997357837509641"><ele>226.0</ele><time>2026-04-25T08:10:22.998Z</time></trkpt><trkpt lat="45.89353905384201" lon="11.997306402706142"><ele>226.42857142857144</ele><time>2026-04-25T08:10:26.998Z</time></trkpt><trkpt lat="45.89359643992084" lon="11.997267692576415"><ele>226.85714285714283</ele><time>2026-04-25T08:10:29.998Z</time></trkpt><trkpt lat="45.89366075872304" lon="11.997226154780122"><ele>227.28571428571428</ele><time>2026-04-25T08:10:32.998Z</time></trkpt><trkpt lat="45.893720304002734" lon="11.997189724439234"><ele>227.71428571428572</ele><time>2026-04-25T08:10:35.998Z</time></trkpt><trkpt lat="45.89378274564738" lon="11.997154632252515"><ele>228.14285714285717</ele><time>2026-04-25T08:10:38.998Z</time></trkpt><trkpt lat="45.89385134529249" lon="11.997123802363392"><ele>228.57142857142856</ele><time>2026-04-25T08:10:41.998Z</time></trkpt><trkpt lat="45.89392569204854" lon="11.99709806768312"><ele>229.0</ele><time>2026-04-25T08:10:44.998Z</time></trkpt><trkpt lat="45.89399978110372" lon="11.997080643267614"><ele>228.99999999999997</ele><time>2026-04-25T08:10:47.998Z</time></trkpt><trkpt lat="45.89408088120045" lon="11.997067923562055"><ele>229.0</ele><time>2026-04-25T08:10:50.998Z</time></trkpt><trkpt lat="45.89415983541295" lon="11.997062369376351"><ele>229.0</ele><time>2026-04-25T08:10:53.998Z</time></trkpt><trkpt lat="45.894248678842665" lon="11.997061006775306"><ele>229.0</ele><time>2026-04-25T08:10:56.998Z</time></trkpt><trkpt lat="45.8943135202923" lon="11.997061629330743"><ele>228.99999999999997</ele><time>2026-04-25T08:10:58.998Z</time></trkpt><trkpt lat="45.89438491193208" lon="11.997061257158633"><ele>229.0</ele><time>2026-04-25T08:11:00.997Z</time></trkpt><trkpt lat="45.894458453252795" lon="11.997058951845796"><ele>229.33333333333331</ele><time>2026-04-25T08:11:02.997Z</time></trkpt><trkpt lat="45.89453570669141" lon="11.99704922483878"><ele>229.66666666666666</ele><time>2026-04-25T08:11:04.997Z</time></trkpt><trkpt lat="45.894612700354955" lon="11.997038068563716"><ele>230.0</ele><time>2026-04-25T08:11:06.997Z</time></trkpt><trkpt lat="45.89468795903827" lon="11.997014258428113"><ele>230.33333333333331</ele><time>2026-04-25T08:11:08.997Z</time></trkpt><trkpt lat="45.894758869765795" lon="11.996962951287966"><ele>230.66666666666666</ele><time>2026-04-25T08:11:10.997Z</time></trkpt><trkpt lat="45.894812439587454" lon="11.996877552869305"><ele>231.0</ele><time>2026-04-25T08:11:12.997Z</time></trkpt><trkpt lat="45.89486306128812" lon="11.996790271979805"><ele>231.0</ele><time>2026-04-25T08:11:15Z</time></trkpt><trkpt lat="45.894909841691984" lon="11.996726756798145"><ele>231.0</ele><time>2026-04-25T08:11:17Z</time></trkpt><trkpt lat="45.894963340851234" lon="11.996667896025716"><ele>231.0</ele><time>2026-04-25T08:11:19Z</time></trkpt><trkpt lat="45.89502659809908" lon="11.996604888318219"><ele>231.0</ele><time>2026-04-25T08:11:21Z</time></trkpt><trkpt lat="45.89508925694992" lon="11.996542476460492"><ele>231.0</ele><time>2026-04-25T08:11:23Z</time></trkpt><trkpt lat="45.89515376005443" lon="11.996479465378249"><ele>231.0</ele><time>2026-04-25T08:11:25Z</time></trkpt><trkpt lat="45.895219612003466" lon="11.996416608883896"><ele>231.0</ele><time>2026-04-25T08:11:27Z</time></trkpt><trkpt lat="45.89529069225191" lon="11.996348762295236"><ele>231.66666666666666</ele><time>2026-04-25T08:11:29Z</time></trkpt><trkpt lat="45.895365144968615" lon="11.996280976550628"><ele>232.33333333333331</ele><time>2026-04-25T08:11:31Z</time></trkpt><trkpt lat="45.8954386009554" lon="11.99620406950274"><ele>233.0</ele><time>2026-04-25T08:11:33Z</time></trkpt><trkpt lat="45.89550632401296" lon="11.996114934770214"><ele>233.66666666666666</ele><time>2026-04-25T08:11:35Z</time></trkpt><trkpt lat="45.89554997659074" lon="11.996013452809198"><ele>234.33333333333331</ele><time>2026-04-25T08:11:37Z</time></trkpt><trkpt lat="45.89559692825496" lon="11.995924891576864"><ele>235.0</ele><time>2026-04-25T08:11:39Z</time></trkpt><trkpt lat="45.89565158264161" lon="11.995843922821434"><ele>234.85714285714283</ele><time>2026-04-25T08:11:41Z</time></trkpt><trkpt lat="45.89570164458595" lon="11.995765057033926"><ele>234.7142857142857</ele><time>2026-04-25T08:11:43Z</time></trkpt><trkpt lat="45.895749963181714" lon="11.995693946659657"><ele>234.57142857142856</ele><time>2026-04-25T08:11:45Z</time></trkpt><trkpt lat="45.895797504681596" lon="11.995626646875948"><ele>234.42857142857144</ele><time>2026-04-25T08:11:47Z</time></trkpt><trkpt lat="45.89585896881223" lon="11.995582470719599"><ele>234.2857142857143</ele><time>2026-04-25T08:11:49Z</time></trkpt><trkpt lat="45.89592143934948" lon="11.995475642312387"><ele>234.14285714285717</ele><time>2026-04-25T08:11:51.999Z</time></trkpt><trkpt lat="45.89597216585455" lon="11.995414935314177"><ele>234.0</ele><time>2026-04-25T08:11:53.999Z</time></trkpt><trkpt lat="45.896022881487" lon="11.995351278048902"><ele>234.0</ele><time>2026-04-25T08:11:55.999Z</time></trkpt><trkpt lat="45.896084630168346" lon="11.995303260470367"><ele>234.0</ele><time>2026-04-25T08:11:57.999Z</time></trkpt><trkpt lat="45.89612550019031" lon="11.995221232609714"><ele>234.0</ele><time>2026-04-25T08:11:59.999Z</time></trkpt><trkpt lat="45.89618892706805" lon="11.995172807210055"><ele>234.0</ele><time>2026-04-25T08:12:01.999Z</time></trkpt><trkpt lat="45.896241295673626" lon="11.995091947808774"><ele>234.0</ele><time>2026-04-25T08:12:03.999Z</time></trkpt><trkpt lat="45.89627982138124" lon="11.994979133396734"><ele>234.0</ele><time>2026-04-25T08:12:05.999Z</time></trkpt><trkpt lat="45.896339733362574" lon="11.994890705039559"><ele>234.16666666666666</ele><time>2026-04-25T08:12:07.999Z</time></trkpt><trkpt lat="45.89638673637581" lon="11.994786334659507"><ele>234.33333333333331</ele><time>2026-04-25T08:12:09.999Z</time></trkpt><trkpt lat="45.89643037860227" lon="11.99468942697756"><ele>234.5</ele><time>2026-04-25T08:12:11.999Z</time></trkpt><trkpt lat="45.896472391040625" lon="11.994596138054213"><ele>234.66666666666666</ele><time>2026-04-25T08:12:13.999Z</time></trkpt><trkpt lat="45.89651433241432" lon="11.994502992145357"><ele>234.83333333333331</ele><time>2026-04-25T08:12:15.999Z</time></trkpt><trkpt lat="45.89655783767315" lon="11.994406354734002"><ele>235.0</ele><time>2026-04-25T08:12:17.999Z</time></trkpt><trkpt lat="45.896600095304294" lon="11.99431248865545"><ele>234.99999999999997</ele><time>2026-04-25T08:12:19.999Z</time></trkpt><trkpt lat="45.89664549346119" lon="11.994211646337801"><ele>235.0</ele><time>2026-04-25T08:12:21.999Z</time></trkpt><trkpt lat="45.896691804260804" lon="11.994108777065293"><ele>235.0</ele><time>2026-04-25T08:12:23.999Z</time></trkpt><trkpt lat="45.89673696499505" lon="11.994008462331546"><ele>235.0</ele><time>2026-04-25T08:12:25.999Z</time></trkpt><trkpt lat="45.896785392454746" lon="11.993900815578877"><ele>234.99999999999997</ele><time>2026-04-25T08:12:27.999Z</time></trkpt><trkpt lat="45.89683363213811" lon="11.993793091201866"><ele>235.0</ele><time>2026-04-25T08:12:29.999Z</time></trkpt><trkpt lat="45.89688285633147" lon="11.993683168259683"><ele>235.2</ele><time>2026-04-25T08:12:31.999Z</time></trkpt><trkpt lat="45.8969319263466" lon="11.993573589609982"><ele>235.4</ele><time>2026-04-25T08:12:33.998Z</time></trkpt><trkpt lat="45.896982996586395" lon="11.993459941752642"><ele>235.60000000000002</ele><time>2026-04-25T08:12:35.998Z</time></trkpt><trkpt lat="45.89703000584285" lon="11.99334933193194"><ele>235.8</ele><time>2026-04-25T08:12:37.998Z</time></trkpt><trkpt lat="45.89706439734342" lon="11.993227163330593"><ele>236.0</ele><time>2026-04-25T08:12:39.998Z</time></trkpt><trkpt lat="45.89711607464832" lon="11.993107259971158"><ele>236.66666666666669</ele><time>2026-04-25T08:12:41.998Z</time></trkpt><trkpt lat="45.89716441983042" lon="11.992999933950044"><ele>237.33333333333334</ele><time>2026-04-25T08:12:43.998Z</time></trkpt><trkpt lat="45.89721639575673" lon="11.99289176261431"><ele>238.0</ele><time>2026-04-25T08:12:45.998Z</time></trkpt><trkpt lat="45.89726691235477" lon="11.99277544497134"><ele>238.66666666666669</ele><time>2026-04-25T08:12:47.998Z</time></trkpt><trkpt lat="45.89731365356392" lon="11.992674143650179"><ele>239.33333333333334</ele><time>2026-04-25T08:12:49.998Z</time></trkpt><trkpt lat="45.89736291889066" lon="11.992581401003859"><ele>240.0</ele><time>2026-04-25T08:12:51.998Z</time></trkpt><trkpt lat="45.897405620771494" lon="11.992488342998515"><ele>240.0</ele><time>2026-04-25T08:12:53.998Z</time></trkpt><trkpt lat="45.897445071019064" lon="11.992414610837482"><ele>240.0</ele><time>2026-04-25T08:12:55.998Z</time></trkpt><trkpt lat="45.89751844856834" lon="11.992386204086346"><ele>240.0</ele><time>2026-04-25T08:12:58.998Z</time></trkpt><trkpt lat="45.89756714601129" lon="11.992491678096734"><ele>240.0</ele><time>2026-04-25T08:13:01.998Z</time></trkpt><trkpt lat="45.89759657633909" lon="11.992579091153644"><ele>240.0</ele><time>2026-04-25T08:13:03.998Z</time></trkpt><trkpt lat="45.89764519125616" lon="11.992651834179158"><ele>240.0</ele><time>2026-04-25T08:13:05.998Z</time></trkpt><trkpt lat="45.89769964830561" lon="11.992728229478853"><ele>240.0</ele><time>2026-04-25T08:13:07.998Z</time></trkpt><trkpt lat="45.897751180536645" lon="11.992813061523421"><ele>240.66666666666666</ele><time>2026-04-25T08:13:09.998Z</time></trkpt><trkpt lat="45.897809114557894" lon="11.99289040615797"><ele>241.33333333333331</ele><time>2026-04-25T08:13:11.998Z</time></trkpt><trkpt lat="45.897870540285204" lon="11.992974508882114"><ele>242.0</ele><time>2026-04-25T08:13:13.998Z</time></trkpt><trkpt lat="45.89793012031831" lon="11.993050269470213"><ele>242.66666666666666</ele><time>2026-04-25T08:13:15.997Z</time></trkpt><trkpt lat="45.89799935252443" lon="11.993121416388316"><ele>243.33333333333331</ele><time>2026-04-25T08:13:17.997Z</time></trkpt><trkpt lat="45.89807004515303" lon="11.99319781119287"><ele>244.0</ele><time>2026-04-25T08:13:20Z</time></trkpt><trkpt lat="45.898141525589985" lon="11.993272159420927"><ele>243.49999999999997</ele><time>2026-04-25T08:13:22Z</time></trkpt><trkpt lat="45.89821401799236" lon="11.993348971285194"><ele>243.0</ele><time>2026-04-25T08:13:24Z</time></trkpt><trkpt lat="45.89827857369967" lon="11.993436447132618"><ele>242.5</ele><time>2026-04-25T08:13:26Z</time></trkpt><trkpt lat="45.898342029778064" lon="11.993520597702302"><ele>242.0</ele><time>2026-04-25T08:13:28Z</time></trkpt><trkpt lat="45.898413995068005" lon="11.993584387741613"><ele>241.49999999999997</ele><time>2026-04-25T08:13:30Z</time></trkpt><trkpt lat="45.89848979417158" lon="11.993641660726144"><ele>241.0</ele><time>2026-04-25T08:13:32Z</time></trkpt><trkpt lat="45.89855486463167" lon="11.993713654401908"><ele>242.16666666666666</ele><time>2026-04-25T08:13:34Z</time></trkpt><trkpt lat="45.89862294988994" lon="11.993787041720093"><ele>243.33333333333331</ele><time>2026-04-25T08:13:36Z</time></trkpt><trkpt lat="45.89868903176824" lon="11.99386473028614"><ele>244.5</ele><time>2026-04-25T08:13:38Z</time></trkpt><trkpt lat="45.898758935997726" lon="11.993928657862401"><ele>245.66666666666669</ele><time>2026-04-25T08:13:40Z</time></trkpt><trkpt lat="45.89882269137155" lon="11.994004312043845"><ele>246.83333333333334</ele><time>2026-04-25T08:13:42Z</time></trkpt><trkpt lat="45.898890638065986" lon="11.994072348538259"><ele>248.0</ele><time>2026-04-25T08:13:44Z</time></trkpt><trkpt lat="45.89895536809664" lon="11.994140934898237"><ele>247.83333333333334</ele><time>2026-04-25T08:13:46Z</time></trkpt><trkpt lat="45.89902149071723" lon="11.994211144787261"><ele>247.66666666666669</ele><time>2026-04-25T08:13:48Z</time></trkpt><trkpt lat="45.8990900821608" lon="11.9942795569245"><ele>247.5</ele><time>2026-04-25T08:13:50Z</time></trkpt><trkpt lat="45.89915416421294" lon="11.994354474563128"><ele>247.33333333333331</ele><time>2026-04-25T08:13:52Z</time></trkpt><trkpt lat="45.899220212092615" lon="11.99442805275358"><ele>247.16666666666666</ele><time>2026-04-25T08:13:54Z</time></trkpt><trkpt lat="45.89928585034538" lon="11.994492170753201"><ele>247.0</ele><time>2026-04-25T08:13:56Z</time></trkpt><trkpt lat="45.89935017676398" lon="11.994553978820525"><ele>248.16666666666666</ele><time>2026-04-25T08:13:58Z</time></trkpt><trkpt lat="45.899421100534845" lon="11.994605431382574"><ele>249.33333333333331</ele><time>2026-04-25T08:14:00Z</time></trkpt><trkpt lat="45.89949023163711" lon="11.994658963028813"><ele>250.5</ele><time>2026-04-25T08:14:02Z</time></trkpt><trkpt lat="45.89956346882527" lon="11.994709861761214"><ele>251.66666666666669</ele><time>2026-04-25T08:14:04Z</time></trkpt><trkpt lat="45.8996300230488" lon="11.994767107369334"><ele>252.83333333333334</ele><time>2026-04-25T08:14:05.999Z</time></trkpt><trkpt lat="45.89969993127241" lon="11.994821308647863"><ele>254.0</ele><time>2026-04-25T08:14:07.999Z</time></trkpt><trkpt lat="45.8997711464156" lon="11.994865872390305"><ele>254.0</ele><time>2026-04-25T08:14:09.999Z</time></trkpt><trkpt lat="45.89984439728754" lon="11.994900571702045"><ele>254.0</ele><time>2026-04-25T08:14:11.999Z</time></trkpt><trkpt lat="45.89991443713838" lon="11.99493344439856"><ele>254.0</ele><time>2026-04-25T08:14:13.999Z</time></trkpt><trkpt lat="45.89998280314305" lon="11.994969176589496"><ele>254.0</ele><time>2026-04-25T08:14:15.999Z</time></trkpt><trkpt lat="45.90004972179182" lon="11.995000938762896"><ele>254.0</ele><time>2026-04-25T08:14:17.999Z</time></trkpt><trkpt lat="45.90011786661659" lon="11.99502972850208"><ele>254.0</ele><time>2026-04-25T08:14:19.999Z</time></trkpt><trkpt lat="45.90018766101569" lon="11.995053777100651"><ele>254.0</ele><time>2026-04-25T08:14:21.999Z</time></trkpt><trkpt lat="45.90025803044049" lon="11.995066878734791"><ele>254.16666666666669</ele><time>2026-04-25T08:14:23.999Z</time></trkpt><trkpt lat="45.900333119521626" lon="11.995075801063656"><ele>254.33333333333334</ele><time>2026-04-25T08:14:25.999Z</time></trkpt><trkpt lat="45.900408423938" lon="11.995083528614744"><ele>254.5</ele><time>2026-04-25T08:14:27.999Z</time></trkpt><trkpt lat="45.90048774480191" lon="11.995089627842146"><ele>254.66666666666669</ele><time>2026-04-25T08:14:29.999Z</time></trkpt><trkpt lat="45.90056814500976" lon="11.995110792580679"><ele>254.83333333333334</ele><time>2026-04-25T08:14:31.999Z</time></trkpt><trkpt lat="45.90064509645742" lon="11.995141542247731"><ele>255.0</ele><time>2026-04-25T08:14:33.999Z</time></trkpt><trkpt lat="45.9007182945236" lon="11.995187617876583"><ele>255.0</ele><time>2026-04-25T08:14:35.999Z</time></trkpt><trkpt lat="45.90079255681681" lon="11.995232267720345"><ele>255.0</ele><time>2026-04-25T08:14:37.999Z</time></trkpt><trkpt lat="45.90086533806142" lon="11.995274712025703"><ele>255.0</ele><time>2026-04-25T08:14:39.999Z</time></trkpt><trkpt lat="45.900938292436514" lon="11.99532136332973"><ele>255.0</ele><time>2026-04-25T08:14:41.999Z</time></trkpt><trkpt lat="45.9010038394692" lon="11.995369538742901"><ele>255.0</ele><time>2026-04-25T08:14:43.999Z</time></trkpt><trkpt lat="45.90105988612728" lon="11.995415612018103"><ele>255.0</ele><time>2026-04-25T08:14:45.999Z</time></trkpt><trkpt lat="45.9011409065536" lon="11.995479098824623"><ele>255.0</ele><time>2026-04-25T08:14:48.998Z</time></trkpt><trkpt lat="45.9012035876435" lon="11.995544188376972"><ele>255.0</ele><time>2026-04-25T08:14:51.998Z</time></trkpt><trkpt lat="45.90123980751468" lon="11.995654972205784"><ele>255.0</ele><time>2026-04-25T08:14:54.998Z</time></trkpt><trkpt lat="45.901220520865344" lon="11.995761255957209"><ele>255.0</ele><time>2026-04-25T08:14:56.998Z</time></trkpt><trkpt lat="45.9011756210946" lon="11.995881721690738"><ele>255.0</ele><time>2026-04-25T08:14:58.998Z</time></trkpt><trkpt lat="45.90112898998483" lon="11.996022260874271"><ele>255.0</ele><time>2026-04-25T08:15:00.998Z</time></trkpt><trkpt lat="45.90106460934274" lon="11.996172100542875"><ele>255.0</ele><time>2026-04-25T08:15:02.998Z</time></trkpt><trkpt lat="45.90100243376677" lon="11.996330059416486"><ele>255.0</ele><time>2026-04-25T08:15:04.998Z</time></trkpt><trkpt lat="45.90097166312306" lon="11.996418820985891"><ele>255.0</ele><time>2026-04-25T08:15:05.998Z</time></trkpt><trkpt lat="45.900939806278295" lon="11.996511286457672"><ele>255.0</ele><time>2026-04-25T08:15:06.998Z</time></trkpt><trkpt lat="45.900904055005604" lon="11.996609158668385"><ele>255.0</ele><time>2026-04-25T08:15:07.998Z</time></trkpt><trkpt lat="45.90086642736988" lon="11.99670682097631"><ele>255.0</ele><time>2026-04-25T08:15:08.998Z</time></trkpt><trkpt lat="45.90082812766013" lon="11.996811205250646"><ele>253.66666666666666</ele><time>2026-04-25T08:15:09.998Z</time></trkpt><trkpt lat="45.90079274448709" lon="11.996917930884642"><ele>252.33333333333331</ele><time>2026-04-25T08:15:10.998Z</time></trkpt><trkpt lat="45.90075256364836" lon="11.997023638326464"><ele>251.0</ele><time>2026-04-25T08:15:11.998Z</time></trkpt><trkpt lat="45.9007148712302" lon="11.997131937356007"><ele>249.66666666666666</ele><time>2026-04-25T08:15:12.998Z</time></trkpt><trkpt lat="45.90067282269472" lon="11.99723859477804"><ele>248.33333333333331</ele><time>2026-04-25T08:15:13.998Z</time></trkpt><trkpt lat="45.90063395723377" lon="11.997344286457626"><ele>247.0</ele><time>2026-04-25T08:15:14.998Z</time></trkpt><trkpt lat="45.900592587939364" lon="11.997442194089027"><ele>246.33333333333331</ele><time>2026-04-25T08:15:15.998Z</time></trkpt><trkpt lat="45.9005536050849" lon="11.997555189040332"><ele>245.66666666666666</ele><time>2026-04-25T08:15:16.998Z</time></trkpt><trkpt lat="45.90052142486452" lon="11.997655785112793"><ele>245.0</ele><time>2026-04-25T08:15:17.998Z</time></trkpt><trkpt lat="45.90048389081277" lon="11.997759341411786"><ele>244.33333333333331</ele><time>2026-04-25T08:15:18.998Z</time></trkpt><trkpt lat="45.90044046475947" lon="11.99786368428847"><ele>243.66666666666666</ele><time>2026-04-25T08:15:19.998Z</time></trkpt><trkpt lat="45.900402366975946" lon="11.99797027327765"><ele>243.0</ele><time>2026-04-25T08:15:20.998Z</time></trkpt><trkpt lat="45.90036413829857" lon="11.998080061364627"><ele>243.0</ele><time>2026-04-25T08:15:21.998Z</time></trkpt><trkpt lat="45.90031413096855" lon="11.998180902760906"><ele>243.0</ele><time>2026-04-25T08:15:22.998Z</time></trkpt><trkpt lat="45.90027602624174" lon="11.998283683931437"><ele>243.0</ele><time>2026-04-25T08:15:23.998Z</time></trkpt><trkpt lat="45.90024108935896" lon="11.998377920316143"><ele>243.0</ele><time>2026-04-25T08:15:24.998Z</time></trkpt><trkpt lat="45.90020417256208" lon="11.998477497016818"><ele>243.0</ele><time>2026-04-25T08:15:26Z</time></trkpt><trkpt lat="45.90017380721747" lon="11.998559402571006"><ele>243.0</ele><time>2026-04-25T08:15:27Z</time></trkpt><trkpt lat="45.900144181317096" lon="11.998639313382698"><ele>243.0</ele><time>2026-04-25T08:15:28Z</time></trkpt><trkpt lat="45.900095077256616" lon="11.998763412346868"><ele>242.8</ele><time>2026-04-25T08:15:30Z</time></trkpt><trkpt lat="45.900217390510136" lon="11.998938862659696"><ele>242.60000000000002</ele><time>2026-04-25T08:15:33Z</time></trkpt><trkpt lat="45.900281867113165" lon="11.998951031657121"><ele>242.39999999999998</ele><time>2026-04-25T08:15:35Z</time></trkpt><trkpt lat="45.90036371989671" lon="11.998972545944335"><ele>242.2</ele><time>2026-04-25T08:15:38Z</time></trkpt><trkpt lat="45.90044702371562" lon="11.99901133547696"><ele>242.0</ele><time>2026-04-25T08:15:40.999Z</time></trkpt><trkpt lat="45.90052966817946" lon="11.999044649310756"><ele>242.00000000000003</ele><time>2026-04-25T08:15:43.999Z</time></trkpt><trkpt lat="45.90060846226455" lon="11.999063553079209"><ele>242.0</ele><time>2026-04-25T08:15:46.999Z</time></trkpt><trkpt lat="45.90068566850445" lon="11.999091699945405"><ele>242.0</ele><time>2026-04-25T08:15:49.999Z</time></trkpt><trkpt lat="45.90076099092413" lon="11.999121671365833"><ele>242.0</ele><time>2026-04-25T08:15:52.999Z</time></trkpt><trkpt lat="45.900838721998554" lon="11.99914633797811"><ele>242.00000000000003</ele><time>2026-04-25T08:15:55.999Z</time></trkpt><trkpt lat="45.90091107519595" lon="11.999182012113565"><ele>242.0</ele><time>2026-04-25T08:15:58.999Z</time></trkpt><trkpt lat="45.900975620832895" lon="11.999205735909207"><ele>243.57142857142856</ele><time>2026-04-25T08:16:01.999Z</time></trkpt><trkpt lat="45.90103896199686" lon="11.999221744456673"><ele>245.1428571428571</ele><time>2026-04-25T08:16:05.999Z</time></trkpt><trkpt lat="45.901103079600624" lon="11.999240247156262"><ele>246.71428571428572</ele><time>2026-04-25T08:16:08.999Z</time></trkpt><trkpt lat="45.9011660718342" lon="11.999265517743252"><ele>248.28571428571428</ele><time>2026-04-25T08:16:11.999Z</time></trkpt><trkpt lat="45.901235940780055" lon="11.999294379805741"><ele>249.85714285714286</ele><time>2026-04-25T08:16:15.999Z</time></trkpt><trkpt lat="45.90130419427761" lon="11.999317441246546"><ele>251.42857142857144</ele><time>2026-04-25T08:16:20.998Z</time></trkpt><trkpt lat="45.901382631383406" lon="11.999329380462681"><ele>253.00000000000003</ele><time>2026-04-25T08:16:42.998Z</time></trkpt><trkpt lat="45.90156161156446" lon="11.999458851267178"><ele>252.99999999999997</ele><time>2026-04-25T08:17:06.997Z</time></trkpt><trkpt lat="45.90154730621868" lon="11.999548017681494"><ele>253.0</ele><time>2026-04-25T08:17:08.997Z</time></trkpt><trkpt lat="45.90153047492324" lon="11.999648644112842"><ele>253.0</ele><time>2026-04-25T08:17:10.997Z</time></trkpt><trkpt lat="45.90151191529288" lon="11.99975944550839"><ele>253.0</ele><time>2026-04-25T08:17:12.997Z</time></trkpt><trkpt lat="45.90149850613488" lon="11.999873946415759"><ele>252.99999999999997</ele><time>2026-04-25T08:17:14.997Z</time></trkpt><trkpt lat="45.90148330645087" lon="11.999993454789845"><ele>253.0</ele><time>2026-04-25T08:17:16.997Z</time></trkpt><trkpt lat="45.901469707458354" lon="12.000116144256584"><ele>253.0</ele><time>2026-04-25T08:17:18.997Z</time></trkpt><trkpt lat="45.901454828173804" lon="12.00024550395644"><ele>253.0</ele><time>2026-04-25T08:17:20.997Z</time></trkpt><trkpt lat="45.90143299593507" lon="12.000375402757536"><ele>253.0</ele><time>2026-04-25T08:17:22.997Z</time></trkpt><trkpt lat="45.9014125390667" lon="12.000509639094838"><ele>253.0</ele><time>2026-04-25T08:17:24.997Z</time></trkpt><trkpt lat="45.901391819353655" lon="12.000650377948102"><ele>253.0</ele><time>2026-04-25T08:17:26.997Z</time></trkpt><trkpt lat="45.901374454851265" lon="12.000800333454116"><ele>253.60000000000002</ele><time>2026-04-25T08:17:28.997Z</time></trkpt><trkpt lat="45.90136012449307" lon="12.000954369034288"><ele>254.20000000000002</ele><time>2026-04-25T08:17:30.997Z</time></trkpt><trkpt lat="45.90134275944071" lon="12.001104412233726"><ele>254.8</ele><time>2026-04-25T08:17:33Z</time></trkpt><trkpt lat="45.9013257576968" lon="12.001249363121211"><ele>255.4</ele><time>2026-04-25T08:17:35Z</time></trkpt><trkpt lat="45.90130364298114" lon="12.00139100069621"><ele>256.0</ele><time>2026-04-25T08:17:37Z</time></trkpt><trkpt lat="45.901262363251824" lon="12.001528054940275"><ele>256.40000000000003</ele><time>2026-04-25T08:17:39Z</time></trkpt><trkpt lat="45.90125134881727" lon="12.001668541178583"><ele>256.8</ele><time>2026-04-25T08:17:41Z</time></trkpt><trkpt lat="45.90126534309031" lon="12.00181307850855"><ele>257.20000000000005</ele><time>2026-04-25T08:17:43Z</time></trkpt><trkpt lat="45.90126603853617" lon="12.001953445787167"><ele>257.6</ele><time>2026-04-25T08:17:45Z</time></trkpt><trkpt lat="45.90126610298747" lon="12.002086816014826"><ele>258.0</ele><time>2026-04-25T08:17:47Z</time></trkpt><trkpt lat="45.90126942598498" lon="12.002217391648559"><ele>258.0</ele><time>2026-04-25T08:17:49Z</time></trkpt><trkpt lat="45.901274811105914" lon="12.00234199484375"><ele>258.0</ele><time>2026-04-25T08:17:51Z</time></trkpt><trkpt lat="45.901279484376296" lon="12.00245696916663"><ele>258.0</ele><time>2026-04-25T08:17:53Z</time></trkpt><trkpt lat="45.90128308542216" lon="12.002559644453516"><ele>258.0</ele><time>2026-04-25T08:17:55Z</time></trkpt><trkpt lat="45.90128553420576" lon="12.002651248500282"><ele>258.0</ele><time>2026-04-25T08:17:56.999Z</time></trkpt><trkpt lat="45.90129087808164" lon="12.002783392613985"><ele>258.0</ele><time>2026-04-25T08:17:59.999Z</time></trkpt><trkpt lat="45.90129551298947" lon="12.002906014866321"><ele>257.85714285714283</ele><time>2026-04-25T08:18:02.999Z</time></trkpt><trkpt lat="45.90130512754975" lon="12.003024147857573"><ele>257.7142857142857</ele><time>2026-04-25T08:18:05.999Z</time></trkpt><trkpt lat="45.90132701834928" lon="12.003133144338957"><ele>257.57142857142856</ele><time>2026-04-25T08:18:08.999Z</time></trkpt><trkpt lat="45.901346896904585" lon="12.003224835643337"><ele>257.42857142857144</ele><time>2026-04-25T08:18:11.999Z</time></trkpt><trkpt lat="45.901369911066354" lon="12.003311298335307"><ele>257.2857142857143</ele><time>2026-04-25T08:18:14.999Z</time></trkpt><trkpt lat="45.90138896813787" lon="12.003401201627502"><ele>257.1428571428571</ele><time>2026-04-25T08:18:17.999Z</time></trkpt><trkpt lat="45.90142394461134" lon="12.003508846529577"><ele>257.0</ele><time>2026-04-25T08:18:21.999Z</time></trkpt><trkpt lat="45.90145735017696" lon="12.003612179388732"><ele>257.5</ele><time>2026-04-25T08:18:25.999Z</time></trkpt><trkpt lat="45.90148586706189" lon="12.003708659213958"><ele>258.0</ele><time>2026-04-25T08:18:29.999Z</time></trkpt><trkpt lat="45.901510593279006" lon="12.003812393253037"><ele>258.5</ele><time>2026-04-25T08:18:33.999Z</time></trkpt><trkpt lat="45.90153717941239" lon="12.003915605904384"><ele>259.0</ele><time>2026-04-25T08:18:37.999Z</time></trkpt><trkpt lat="45.90157360324421" lon="12.004013639043913"><ele>259.5</ele><time>2026-04-25T08:18:41.998Z</time></trkpt><trkpt lat="45.90161077585289" lon="12.004108285672393"><ele>260.0</ele><time>2026-04-25T08:18:45.998Z</time></trkpt><trkpt lat="45.901648785654615" lon="12.004215406028372"><ele>260.42857142857144</ele><time>2026-04-25T08:18:49.998Z</time></trkpt><trkpt lat="45.901673241289814" lon="12.004302487620109"><ele>260.8571428571429</ele><time>2026-04-25T08:18:52.998Z</time></trkpt><trkpt lat="45.90171022057685" lon="12.004408414392618"><ele>261.2857142857143</ele><time>2026-04-25T08:18:56.998Z</time></trkpt><trkpt lat="45.90174046870345" lon="12.004488198404625"><ele>261.7142857142857</ele><time>2026-04-25T08:18:59.998Z</time></trkpt><trkpt lat="45.90177927039095" lon="12.004593653163386"><ele>262.1428571428571</ele><time>2026-04-25T08:19:03.998Z</time></trkpt><trkpt lat="45.90180887876185" lon="12.004675404276794"><ele>262.57142857142856</ele><time>2026-04-25T08:19:06.998Z</time></trkpt><trkpt lat="45.90183921126174" lon="12.004758822281042"><ele>263.0</ele><time>2026-04-25T08:19:09.998Z</time></trkpt><trkpt lat="45.90187115276607" lon="12.004842482291426"><ele>264.1428571428571</ele><time>2026-04-25T08:19:12.998Z</time></trkpt><trkpt lat="45.9019053581242" lon="12.004932601231605"><ele>265.2857142857143</ele><time>2026-04-25T08:19:15.998Z</time></trkpt><trkpt lat="45.90193237612071" lon="12.005030052697675"><ele>266.42857142857144</ele><time>2026-04-25T08:19:18.998Z</time></trkpt><trkpt lat="45.901960391038486" lon="12.005129041792927"><ele>267.57142857142856</ele><time>2026-04-25T08:19:21.998Z</time></trkpt><trkpt lat="45.90197824511818" lon="12.00523055224895"><ele>268.7142857142857</ele><time>2026-04-25T08:19:24.997Z</time></trkpt><trkpt lat="45.90198748536649" lon="12.005338927890334"><ele>269.85714285714283</ele><time>2026-04-25T08:19:27.997Z</time></trkpt><trkpt lat="45.90198648081853" lon="12.005450522497648"><ele>271.0</ele><time>2026-04-25T08:19:30.997Z</time></trkpt><trkpt lat="45.90198320773885" lon="12.005560459546894"><ele>272.5</ele><time>2026-04-25T08:19:33.997Z</time></trkpt><trkpt lat="45.901968476348955" lon="12.005669983822282"><ele>274.0</ele><time>2026-04-25T08:19:37Z</time></trkpt><trkpt lat="45.90195595859767" lon="12.00577912065867"><ele>275.5</ele><time>2026-04-25T08:19:40Z</time></trkpt><trkpt lat="45.90193906320702" lon="12.00589246334083"><ele>277.0</ele><time>2026-04-25T08:19:43Z</time></trkpt><trkpt lat="45.90192871681973" lon="12.006014203807885"><ele>278.5</ele><time>2026-04-25T08:19:46Z</time></trkpt><trkpt lat="45.901923970605445" lon="12.006135277971183"><ele>280.0</ele><time>2026-04-25T08:19:49Z</time></trkpt><trkpt lat="45.90192668970131" lon="12.00626230972636"><ele>280.5</ele><time>2026-04-25T08:19:52Z</time></trkpt><trkpt lat="45.90193816763113" lon="12.006387019230752"><ele>281.0</ele><time>2026-04-25T08:19:55Z</time></trkpt><trkpt lat="45.901960908649556" lon="12.0064968460484"><ele>281.5</ele><time>2026-04-25T08:19:58Z</time></trkpt><trkpt lat="45.90199371025045" lon="12.006589979207595"><ele>282.0</ele><time>2026-04-25T08:20:01Z</time></trkpt><trkpt lat="45.902032730813076" lon="12.006676701927729"><ele>282.5</ele><time>2026-04-25T08:20:04Z</time></trkpt><trkpt lat="45.90208029451938" lon="12.006758495008064"><ele>283.0</ele><time>2026-04-25T08:20:07Z</time></trkpt><trkpt lat="45.90212555969153" lon="12.00684863990139"><ele>283.5</ele><time>2026-04-25T08:20:10Z</time></trkpt><trkpt lat="45.90216769411611" lon="12.00694182136405"><ele>284.0</ele><time>2026-04-25T08:20:12.999Z</time></trkpt><trkpt lat="45.902203047325465" lon="12.007040314591496"><ele>284.5</ele><time>2026-04-25T08:20:15.999Z</time></trkpt><trkpt lat="45.90223231632936" lon="12.007143084018132"><ele>285.0</ele><time>2026-04-25T08:20:18.999Z</time></trkpt><trkpt lat="45.902251889550044" lon="12.007260185111907"><ele>285.5</ele><time>2026-04-25T08:20:21.999Z</time></trkpt><trkpt lat="45.90226230521345" lon="12.007374788493376"><ele>286.0</ele><time>2026-04-25T08:20:24.999Z</time></trkpt><trkpt lat="45.902272947514646" lon="12.007490178948663"><ele>286.3333333333333</ele><time>2026-04-25T08:20:27.999Z</time></trkpt><trkpt lat="45.90228683580011" lon="12.007606268257192"><ele>286.66666666666663</ele><time>2026-04-25T08:20:30.999Z</time></trkpt><trkpt lat="45.902301436297975" lon="12.007723759405975"><ele>287.0</ele><time>2026-04-25T08:20:33.999Z</time></trkpt><trkpt lat="45.90230780766846" lon="12.00784414609949"><ele>287.3333333333333</ele><time>2026-04-25T08:20:36.999Z</time></trkpt><trkpt lat="45.90232136768012" lon="12.007965796523427"><ele>287.6666666666667</ele><time>2026-04-25T08:20:39.999Z</time></trkpt><trkpt lat="45.902329623886594" lon="12.0080840268801"><ele>288.0</ele><time>2026-04-25T08:20:42.999Z</time></trkpt><trkpt lat="45.90233745333375" lon="12.008205247594361"><ele>288.0</ele><time>2026-04-25T08:20:45.999Z</time></trkpt><trkpt lat="45.902345820929966" lon="12.00832005412092"><ele>288.0</ele><time>2026-04-25T08:20:48.999Z</time></trkpt><trkpt lat="45.90235750866902" lon="12.008441806767548"><ele>288.0</ele><time>2026-04-25T08:20:51.999Z</time></trkpt><trkpt lat="45.902368660730914" lon="12.008559801789826"><ele>288.0</ele><time>2026-04-25T08:20:54.998Z</time></trkpt><trkpt lat="45.902381906581084" lon="12.008682755579176"><ele>288.0</ele><time>2026-04-25T08:20:57.998Z</time></trkpt><trkpt lat="45.90238847333331" lon="12.008810884882807"><ele>288.0</ele><time>2026-04-25T08:21:00.998Z</time></trkpt><trkpt lat="45.902392428353394" lon="12.0089398153839"><ele>288.2</ele><time>2026-04-25T08:21:03.998Z</time></trkpt><trkpt lat="45.90238715468864" lon="12.009070121922194"><ele>288.4</ele><time>2026-04-25T08:21:06.998Z</time></trkpt><trkpt lat="45.902370897234334" lon="12.00919756243848"><ele>288.59999999999997</ele><time>2026-04-25T08:21:09.998Z</time></trkpt><trkpt lat="45.902340725284645" lon="12.009318324566916"><ele>288.8</ele><time>2026-04-25T08:21:12.998Z</time></trkpt><trkpt lat="45.90231259731348" lon="12.00944092222537"><ele>289.0</ele><time>2026-04-25T08:21:15.998Z</time></trkpt><trkpt lat="45.90228408500882" lon="12.009567100141561"><ele>289.42857142857144</ele><time>2026-04-25T08:21:18.998Z</time></trkpt><trkpt lat="45.902262683486065" lon="12.009652608020193"><ele>289.85714285714283</ele><time>2026-04-25T08:21:20.998Z</time></trkpt><trkpt lat="45.90223866104067" lon="12.009739196796469"><ele>290.2857142857143</ele><time>2026-04-25T08:21:22.998Z</time></trkpt><trkpt lat="45.90221526362527" lon="12.009831229886897"><ele>290.7142857142857</ele><time>2026-04-25T08:21:24.998Z</time></trkpt><trkpt lat="45.90219308719169" lon="12.009926299081304"><ele>291.14285714285717</ele><time>2026-04-25T08:21:26.998Z</time></trkpt><trkpt lat="45.90217186414828" lon="12.010020109945684"><ele>291.57142857142856</ele><time>2026-04-25T08:21:28.998Z</time></trkpt><trkpt lat="45.90215013946448" lon="12.010110548529564"><ele>292.0</ele><time>2026-04-25T08:21:30.998Z</time></trkpt><trkpt lat="45.90212771610649" lon="12.010201750184473"><ele>292.85714285714283</ele><time>2026-04-25T08:21:32.998Z</time></trkpt><trkpt lat="45.90211018593673" lon="12.010292893179171"><ele>293.7142857142857</ele><time>2026-04-25T08:21:34.998Z</time></trkpt><trkpt lat="45.90208384370908" lon="12.010379086107244"><ele>294.57142857142856</ele><time>2026-04-25T08:21:36.998Z</time></trkpt><trkpt lat="45.90205579026138" lon="12.010469344812673"><ele>295.42857142857144</ele><time>2026-04-25T08:21:38.997Z</time></trkpt><trkpt lat="45.902031233332195" lon="12.010563961334885"><ele>296.2857142857143</ele><time>2026-04-25T08:21:40.997Z</time></trkpt><trkpt lat="45.90200657139378" lon="12.010662978353787"><ele>297.1428571428571</ele><time>2026-04-25T08:21:43Z</time></trkpt><trkpt lat="45.901980460939015" lon="12.010760850702617"><ele>298.0</ele><time>2026-04-25T08:21:45Z</time></trkpt><trkpt lat="45.90195593004637" lon="12.010858635025858"><ele>298.66666666666663</ele><time>2026-04-25T08:21:47Z</time></trkpt><trkpt lat="45.9019328753649" lon="12.010957553719567"><ele>299.3333333333333</ele><time>2026-04-25T08:21:49Z</time></trkpt><trkpt lat="45.90190498287785" lon="12.011059226841647"><ele>300.0</ele><time>2026-04-25T08:21:51Z</time></trkpt><trkpt lat="45.90187638099384" lon="12.011162166607553"><ele>300.6666666666667</ele><time>2026-04-25T08:21:53Z</time></trkpt><trkpt lat="45.90185151511491" lon="12.011264498073784"><ele>301.33333333333337</ele><time>2026-04-25T08:21:55Z</time></trkpt><trkpt lat="45.90182229603434" lon="12.011365261726167"><ele>302.0</ele><time>2026-04-25T08:21:57Z</time></trkpt><trkpt lat="45.901796688563095" lon="12.011469137766928"><ele>302.0</ele><time>2026-04-25T08:21:59Z</time></trkpt><trkpt lat="45.90177315057857" lon="12.01156854061292"><ele>302.0</ele><time>2026-04-25T08:22:01Z</time></trkpt><trkpt lat="45.90175092741406" lon="12.01166373630233"><ele>302.0</ele><time>2026-04-25T08:22:03Z</time></trkpt><trkpt lat="45.901726424611596" lon="12.011769146182594"><ele>302.0</ele><time>2026-04-25T08:22:05Z</time></trkpt><trkpt lat="45.90170213811118" lon="12.01187192606124"><ele>302.0</ele><time>2026-04-25T08:22:07Z</time></trkpt><trkpt lat="45.9016710662003" lon="12.011973611666969"><ele>302.0</ele><time>2026-04-25T08:22:09Z</time></trkpt><trkpt lat="45.90164804038151" lon="12.01207982729603"><ele>301.8571428571429</ele><time>2026-04-25T08:22:11Z</time></trkpt><trkpt lat="45.90161938085797" lon="12.012172090993808"><ele>301.7142857142857</ele><time>2026-04-25T08:22:13Z</time></trkpt><trkpt lat="45.90159344483182" lon="12.012268852651049"><ele>301.57142857142856</ele><time>2026-04-25T08:22:15Z</time></trkpt><trkpt lat="45.90156827980371" lon="12.012366837085741"><ele>301.42857142857144</ele><time>2026-04-25T08:22:17Z</time></trkpt><trkpt lat="45.90154360577094" lon="12.012463850344846"><ele>301.2857142857143</ele><time>2026-04-25T08:22:19Z</time></trkpt><trkpt lat="45.901517165392605" lon="12.012566246062724"><ele>301.14285714285717</ele><time>2026-04-25T08:22:21Z</time></trkpt><trkpt lat="45.90149005221342" lon="12.012666788176553"><ele>301.0</ele><time>2026-04-25T08:22:23Z</time></trkpt><trkpt lat="45.90146055062969" lon="12.012771321696135"><ele>301.66666666666663</ele><time>2026-04-25T08:22:25Z</time></trkpt><trkpt lat="45.90143111089829" lon="12.012879103125586"><ele>302.3333333333333</ele><time>2026-04-25T08:22:27Z</time></trkpt><trkpt lat="45.901404022949315" lon="12.012987968725644"><ele>303.0</ele><time>2026-04-25T08:22:28.999Z</time></trkpt><trkpt lat="45.90137743707971" lon="12.013101044621894"><ele>303.6666666666667</ele><time>2026-04-25T08:22:30.999Z</time></trkpt><trkpt lat="45.90134627533627" lon="12.013212625025478"><ele>304.33333333333337</ele><time>2026-04-25T08:22:32.999Z</time></trkpt><trkpt lat="45.90131835047342" lon="12.013322392335937"><ele>305.0</ele><time>2026-04-25T08:22:34.999Z</time></trkpt><trkpt lat="45.90128689742696" lon="12.013430832614926"><ele>305.33333333333337</ele><time>2026-04-25T08:22:36.999Z</time></trkpt><trkpt lat="45.90125642281214" lon="12.013542628416834"><ele>305.6666666666667</ele><time>2026-04-25T08:22:38.999Z</time></trkpt><trkpt lat="45.9012347549262" lon="12.013653280003782"><ele>306.0</ele><time>2026-04-25T08:22:40.999Z</time></trkpt><trkpt lat="45.90120521476744" lon="12.013765315654602"><ele>306.3333333333333</ele><time>2026-04-25T08:22:42.999Z</time></trkpt><trkpt lat="45.901177378567496" lon="12.013883550025023"><ele>306.66666666666663</ele><time>2026-04-25T08:22:44.999Z</time></trkpt><trkpt lat="45.901144882032796" lon="12.013997397930835"><ele>307.0</ele><time>2026-04-25T08:22:46.999Z</time></trkpt><trkpt lat="45.9011155776075" lon="12.014113084057886"><ele>307.8333333333333</ele><time>2026-04-25T08:22:48.999Z</time></trkpt><trkpt lat="45.90108631467105" lon="12.014232315957571"><ele>308.66666666666663</ele><time>2026-04-25T08:22:50.999Z</time></trkpt><trkpt lat="45.90105696321653" lon="12.014350622198952"><ele>309.5</ele><time>2026-04-25T08:22:52.999Z</time></trkpt><trkpt lat="45.90102537141669" lon="12.014467988881998"><ele>310.3333333333333</ele><time>2026-04-25T08:22:54.999Z</time></trkpt><trkpt lat="45.90099315844502" lon="12.014583545621637"><ele>311.1666666666667</ele><time>2026-04-25T08:22:56.999Z</time></trkpt><trkpt lat="45.900966638368374" lon="12.01470208700559"><ele>312.0</ele><time>2026-04-25T08:22:58.999Z</time></trkpt><trkpt lat="45.90094539450678" lon="12.014818436270357"><ele>312.0</ele><time>2026-04-25T08:23:00.999Z</time></trkpt><trkpt lat="45.900921637239875" lon="12.014936194372245"><ele>312.0</ele><time>2026-04-25T08:23:02.999Z</time></trkpt><trkpt lat="45.90090331715715" lon="12.015053483630027"><ele>312.0</ele><time>2026-04-25T08:23:04.999Z</time></trkpt><trkpt lat="45.900894487053456" lon="12.015166834595789"><ele>312.0</ele><time>2026-04-25T08:23:06.999Z</time></trkpt><trkpt lat="45.900877514529185" lon="12.015277651188859"><ele>312.0</ele><time>2026-04-25T08:23:08.999Z</time></trkpt><trkpt lat="45.90086218667084" lon="12.015392531632715"><ele>312.0</ele><time>2026-04-25T08:23:10.999Z</time></trkpt><trkpt lat="45.90085012633589" lon="12.015508656524805"><ele>311.8333333333333</ele><time>2026-04-25T08:23:12.998Z</time></trkpt><trkpt lat="45.90083146657501" lon="12.01562427392557"><ele>311.6666666666667</ele><time>2026-04-25T08:23:14.998Z</time></trkpt><trkpt lat="45.900812832154415" lon="12.015742340952048"><ele>311.5</ele><time>2026-04-25T08:23:16.998Z</time></trkpt><trkpt lat="45.90079861493055" lon="12.015862644591223"><ele>311.33333333333337</ele><time>2026-04-25T08:23:18.998Z</time></trkpt><trkpt lat="45.900788497770044" lon="12.015978484917916"><ele>311.1666666666667</ele><time>2026-04-25T08:23:20.998Z</time></trkpt><trkpt lat="45.9007735359338" lon="12.01609421783056"><ele>311.0</ele><time>2026-04-25T08:23:22.998Z</time></trkpt><trkpt lat="45.90075505326554" lon="12.016207902297511"><ele>311.0</ele><time>2026-04-25T08:23:24.998Z</time></trkpt><trkpt lat="45.90073948812739" lon="12.016325869075905"><ele>311.0</ele><time>2026-04-25T08:23:26.998Z</time></trkpt><trkpt lat="45.90072724946411" lon="12.016441995239168"><ele>311.0</ele><time>2026-04-25T08:23:28.998Z</time></trkpt><trkpt lat="45.90070951486525" lon="12.016557002787472"><ele>311.0</ele><time>2026-04-25T08:23:30.998Z</time></trkpt><trkpt lat="45.90070088111449" lon="12.016670869628083"><ele>311.0</ele><time>2026-04-25T08:23:32.998Z</time></trkpt><trkpt lat="45.90068630079087" lon="12.01678228339177"><ele>311.0</ele><time>2026-04-25T08:23:34.998Z</time></trkpt><trkpt lat="45.90067117365905" lon="12.016896093669693"><ele>311.83333333333337</ele><time>2026-04-25T08:23:36.997Z</time></trkpt><trkpt lat="45.900658725319495" lon="12.01701000008435"><ele>312.6666666666667</ele><time>2026-04-25T08:23:38.997Z</time></trkpt><trkpt lat="45.90064490898043" lon="12.01712111666742"><ele>313.5</ele><time>2026-04-25T08:23:40.997Z</time></trkpt><trkpt lat="45.900636122751486" lon="12.017227733030426"><ele>314.3333333333333</ele><time>2026-04-25T08:23:42.997Z</time></trkpt><trkpt lat="45.90062392930489" lon="12.017337830240487"><ele>315.16666666666663</ele><time>2026-04-25T08:23:44.997Z</time></trkpt><trkpt lat="45.90061095914623" lon="12.017438688603518"><ele>316.0</ele><time>2026-04-25T08:23:46.997Z</time></trkpt><trkpt lat="45.90061396561631" lon="12.017544258008131"><ele>316.66666666666663</ele><time>2026-04-25T08:23:49Z</time></trkpt><trkpt lat="45.900600411028506" lon="12.017653773449386"><ele>317.3333333333333</ele><time>2026-04-25T08:23:51Z</time></trkpt><trkpt lat="45.90060285947016" lon="12.017765470523015"><ele>318.0</ele><time>2026-04-25T08:23:53Z</time></trkpt><trkpt lat="45.900622706018055" lon="12.017871806597809"><ele>318.6666666666667</ele><time>2026-04-25T08:23:55Z</time></trkpt><trkpt lat="45.900630226269925" lon="12.017985610044935"><ele>319.33333333333337</ele><time>2026-04-25T08:23:57Z</time></trkpt><trkpt lat="45.900637285967484" lon="12.01809854889184"><ele>320.0</ele><time>2026-04-25T08:23:59Z</time></trkpt><trkpt lat="45.9006478127123" lon="12.018207398563034"><ele>320.0</ele><time>2026-04-25T08:24:01Z</time></trkpt><trkpt lat="45.90065690348013" lon="12.018315829843182"><ele>320.0</ele><time>2026-04-25T08:24:03Z</time></trkpt><trkpt lat="45.900663256330795" lon="12.018422096571811"><ele>320.0</ele><time>2026-04-25T08:24:04.999Z</time></trkpt><trkpt lat="45.90067213593874" lon="12.018520763459378"><ele>320.0</ele><time>2026-04-25T08:24:06.999Z</time></trkpt><trkpt lat="45.900666654893065" lon="12.018648190119567"><ele>320.0</ele><time>2026-04-25T08:24:09.999Z</time></trkpt><trkpt lat="45.90060811644878" lon="12.01873620302036"><ele>320.0</ele><time>2026-04-25T08:24:12.999Z</time></trkpt><trkpt lat="45.90053749672502" lon="12.018708671726587"><ele>320.4</ele><time>2026-04-25T08:24:14.999Z</time></trkpt><trkpt lat="45.90045663850508" lon="12.01868313656338"><ele>320.8</ele><time>2026-04-25T08:24:16.999Z</time></trkpt><trkpt lat="45.90036034834224" lon="12.01863647111862"><ele>321.20000000000005</ele><time>2026-04-25T08:24:18.999Z</time></trkpt><trkpt lat="45.90026348636555" lon="12.018568543400486"><ele>321.6</ele><time>2026-04-25T08:24:20.999Z</time></trkpt><trkpt lat="45.900170435741714" lon="12.018489573710701"><ele>322.0</ele><time>2026-04-25T08:24:22.999Z</time></trkpt><trkpt lat="45.900080853655645" lon="12.01843773773931"><ele>321.0</ele><time>2026-04-25T08:24:24.999Z</time></trkpt><trkpt lat="45.90000584978823" lon="12.01840157002802"><ele>320.0</ele><time>2026-04-25T08:24:26.999Z</time></trkpt><trkpt lat="45.89992115140758" lon="12.018379252202466"><ele>319.0</ele><time>2026-04-25T08:24:29.999Z</time></trkpt><trkpt lat="45.899842958050044" lon="12.018404833560433"><ele>318.0</ele><time>2026-04-25T08:24:32.999Z</time></trkpt><trkpt lat="45.89975083978615" lon="12.018457831560783"><ele>317.0</ele><time>2026-04-25T08:24:35.999Z</time></trkpt><trkpt lat="45.89968015306946" lon="12.018430696479331"><ele>316.0</ele><time>2026-04-25T08:24:37.999Z</time></trkpt><trkpt lat="45.89957170868906" lon="12.018546531009713"><ele>316.0</ele><time>2026-04-25T08:24:40.999Z</time></trkpt><trkpt lat="45.89951388403512" lon="12.018625910543896"><ele>316.0</ele><time>2026-04-25T08:24:42.999Z</time></trkpt><trkpt lat="45.89943152638761" lon="12.01867314480221"><ele>316.0</ele><time>2026-04-25T08:24:44.999Z</time></trkpt><trkpt lat="45.899371465422895" lon="12.018822014279735"><ele>316.0</ele><time>2026-04-25T08:24:46.999Z</time></trkpt><trkpt lat="45.899343671453444" lon="12.018916095330447"><ele>316.0</ele><time>2026-04-25T08:24:47.998Z</time></trkpt><trkpt lat="45.899305859138" lon="12.019090097169697"><ele>316.6</ele><time>2026-04-25T08:24:49.998Z</time></trkpt><trkpt lat="45.89926040987805" lon="12.019252366328503"><ele>317.20000000000005</ele><time>2026-04-25T08:24:51.998Z</time></trkpt><trkpt lat="45.89920799061443" lon="12.019390965130235"><ele>317.79999999999995</ele><time>2026-04-25T08:24:53.998Z</time></trkpt><trkpt lat="45.899135306671006" lon="12.019512198800774"><ele>318.4</ele><time>2026-04-25T08:24:55.998Z</time></trkpt><trkpt lat="45.89907131275415" lon="12.01963326624261"><ele>319.0</ele><time>2026-04-25T08:24:57.998Z</time></trkpt><trkpt lat="45.89901709850314" lon="12.019753332230668"><ele>315.5</ele><time>2026-04-25T08:24:59.998Z</time></trkpt><trkpt lat="45.89896572669785" lon="12.019906381071376"><ele>312.0</ele><time>2026-04-25T08:25:01.998Z</time></trkpt><trkpt lat="45.89893613916856" lon="12.020061693600374"><ele>308.5</ele><time>2026-04-25T08:25:03.998Z</time></trkpt><trkpt lat="45.898914679356984" lon="12.020206805565666"><ele>305.0</ele><time>2026-04-25T08:25:05.998Z</time></trkpt><trkpt lat="45.89891761959704" lon="12.02037564810037"><ele>303.4</ele><time>2026-04-25T08:25:07.998Z</time></trkpt><trkpt lat="45.89894598397074" lon="12.020514974572118"><ele>301.8</ele><time>2026-04-25T08:25:09.998Z</time></trkpt><trkpt lat="45.89900561649785" lon="12.02065592467846"><ele>300.2</ele><time>2026-04-25T08:25:11.998Z</time></trkpt><trkpt lat="45.89907367883995" lon="12.020766916410967"><ele>298.6</ele><time>2026-04-25T08:25:13.998Z</time></trkpt><trkpt lat="45.89909504593037" lon="12.020904916685112"><ele>297.0</ele><time>2026-04-25T08:25:15.998Z</time></trkpt><trkpt lat="45.89902371276666" lon="12.021005054289645"><ele>295.1666666666667</ele><time>2026-04-25T08:25:17.998Z</time></trkpt><trkpt lat="45.89893779979372" lon="12.021118298214772"><ele>293.3333333333333</ele><time>2026-04-25T08:25:19.998Z</time></trkpt><trkpt lat="45.89890207163948" lon="12.02119796964268"><ele>291.5</ele><time>2026-04-25T08:25:20.998Z</time></trkpt><trkpt lat="45.898895950699874" lon="12.02130020690534"><ele>289.66666666666663</ele><time>2026-04-25T08:25:21.998Z</time></trkpt><trkpt lat="45.89887242653212" lon="12.021392419235093"><ele>287.8333333333333</ele><time>2026-04-25T08:25:22.998Z</time></trkpt><trkpt lat="45.89885602165579" lon="12.02149354606946"><ele>286.0</ele><time>2026-04-25T08:25:23.998Z</time></trkpt><trkpt lat="45.89885107983191" lon="12.021599636284384"><ele>284.6</ele><time>2026-04-25T08:25:24.998Z</time></trkpt><trkpt lat="45.898844967915366" lon="12.021712249346706"><ele>283.20000000000005</ele><time>2026-04-25T08:25:25.998Z</time></trkpt><trkpt lat="45.89884525226064" lon="12.021837769801856"><ele>281.79999999999995</ele><time>2026-04-25T08:25:26.998Z</time></trkpt><trkpt lat="45.89885956994948" lon="12.021974520777588"><ele>280.4</ele><time>2026-04-25T08:25:27.998Z</time></trkpt><trkpt lat="45.898886661218796" lon="12.022109414141639"><ele>279.0</ele><time>2026-04-25T08:25:28.998Z</time></trkpt><trkpt lat="45.898914767991734" lon="12.022249649710265"><ele>279.0</ele><time>2026-04-25T08:25:29.998Z</time></trkpt><trkpt lat="45.89893087937174" lon="12.022379578574094"><ele>279.0</ele><time>2026-04-25T08:25:30.997Z</time></trkpt><trkpt lat="45.898902506071714" lon="12.022497711391399"><ele>279.0</ele><time>2026-04-25T08:25:31.997Z</time></trkpt><trkpt lat="45.89885920445664" lon="12.022583433974537"><ele>279.0</ele><time>2026-04-25T08:25:33.997Z</time></trkpt><trkpt lat="45.898801172899155" lon="12.022643586277391"><ele>279.0</ele><time>2026-04-25T08:25:37.997Z</time></trkpt><trkpt lat="45.89871771096303" lon="12.022682823463505"><ele>279.0</ele><time>2026-04-25T08:25:40.997Z</time></trkpt><trkpt lat="45.89863990185832" lon="12.022741524403244"><ele>277.6666666666667</ele><time>2026-04-25T08:25:42.997Z</time></trkpt><trkpt lat="45.89856537162019" lon="12.022780585203849"><ele>276.3333333333333</ele><time>2026-04-25T08:25:44.997Z</time></trkpt><trkpt lat="45.8984859634627" lon="12.022776346506204"><ele>275.0</ele><time>2026-04-25T08:25:46.997Z</time></trkpt><trkpt lat="45.89841446777341" lon="12.022791024419323"><ele>273.66666666666663</ele><time>2026-04-25T08:25:48.997Z</time></trkpt><trkpt lat="45.89834166717443" lon="12.022823767630882"><ele>272.3333333333333</ele><time>2026-04-25T08:25:50.997Z</time></trkpt><trkpt lat="45.898246805837594" lon="12.02282226703679"><ele>271.0</ele><time>2026-04-25T08:25:53Z</time></trkpt><trkpt lat="45.89815081616968" lon="12.022799170548408"><ele>269.8333333333333</ele><time>2026-04-25T08:25:55Z</time></trkpt><trkpt lat="45.898058246758175" lon="12.022760612573327"><ele>268.66666666666663</ele><time>2026-04-25T08:25:57Z</time></trkpt><trkpt lat="45.89798053089638" lon="12.022723958630548"><ele>267.5</ele><time>2026-04-25T08:25:59Z</time></trkpt><trkpt lat="45.89789978268701" lon="12.022684966956023"><ele>266.3333333333333</ele><time>2026-04-25T08:26:01Z</time></trkpt><trkpt lat="45.897832967984705" lon="12.02265393500838"><ele>265.1666666666667</ele><time>2026-04-25T08:26:03Z</time></trkpt><trkpt lat="45.89776056836071" lon="12.022620309063681"><ele>264.0</ele><time>2026-04-25T08:26:05Z</time></trkpt><trkpt lat="45.89767381371468" lon="12.02258536786212"><ele>264.0</ele><time>2026-04-25T08:26:08Z</time></trkpt><trkpt lat="45.89761079943197" lon="12.022572421906784"><ele>264.0</ele><time>2026-04-25T08:26:10Z</time></trkpt><trkpt lat="45.897527636677346" lon="12.02256537010476"><ele>264.0</ele><time>2026-04-25T08:26:13Z</time></trkpt><trkpt lat="45.89745490727554" lon="12.022612808094427"><ele>264.0</ele><time>2026-04-25T08:26:16Z</time></trkpt><trkpt lat="45.89738474832141" lon="12.022627267805438"><ele>264.0</ele><time>2026-04-25T08:26:19Z</time></trkpt><trkpt lat="45.89731000321681" lon="12.02259284366262"><ele>264.0</ele><time>2026-04-25T08:26:22.999Z</time></trkpt><trkpt lat="45.89724536960551" lon="12.022561212937338"><ele>264.0</ele><time>2026-04-25T08:26:25.999Z</time></trkpt><trkpt lat="45.89717427785136" lon="12.02253262367676"><ele>263.1428571428571</ele><time>2026-04-25T08:26:28.999Z</time></trkpt><trkpt lat="45.897099589919016" lon="12.022502588432747"><ele>262.2857142857143</ele><time>2026-04-25T08:26:31.999Z</time></trkpt><trkpt lat="45.89703147756248" lon="12.02248213035805"><ele>261.42857142857144</ele><time>2026-04-25T08:26:34.999Z</time></trkpt><trkpt lat="45.896968400565434" lon="12.022472999796078"><ele>260.57142857142856</ele><time>2026-04-25T08:26:37.999Z</time></trkpt><trkpt lat="45.896886584595855" lon="12.022477199750792"><ele>259.7142857142857</ele><time>2026-04-25T08:26:41.999Z</time></trkpt><trkpt lat="45.896819508527635" lon="12.022480884239835"><ele>258.85714285714283</ele><time>2026-04-25T08:26:45.999Z</time></trkpt><trkpt lat="45.896744667089756" lon="12.022505130926772"><ele>258.0</ele><time>2026-04-25T08:26:49.999Z</time></trkpt><trkpt lat="45.89666503673471" lon="12.02251060023527"><ele>258.57142857142856</ele><time>2026-04-25T08:26:53.999Z</time></trkpt><trkpt lat="45.896585325632344" lon="12.022500641219017"><ele>259.1428571428571</ele><time>2026-04-25T08:26:57.999Z</time></trkpt><trkpt lat="45.89652188959181" lon="12.022442020096026"><ele>259.7142857142857</ele><time>2026-04-25T08:27:01.999Z</time></trkpt><trkpt lat="45.89647081372847" lon="12.022385141278864"><ele>260.2857142857143</ele><time>2026-04-25T08:27:04.998Z</time></trkpt><trkpt lat="45.89640411560507" lon="12.022338090662986"><ele>260.8571428571429</ele><time>2026-04-25T08:27:07.998Z</time></trkpt><trkpt lat="45.89634963119727" lon="12.022261704454785"><ele>261.42857142857144</ele><time>2026-04-25T08:27:10.998Z</time></trkpt><trkpt lat="45.896290871538305" lon="12.022201534466435"><ele>262.0</ele><time>2026-04-25T08:27:13.998Z</time></trkpt><trkpt lat="45.896241269300816" lon="12.022119132549493"><ele>262.0</ele><time>2026-04-25T08:27:16.998Z</time></trkpt><trkpt lat="45.89616982885016" lon="12.022043172164366"><ele>262.0</ele><time>2026-04-25T08:27:19.998Z</time></trkpt><trkpt lat="45.89610707025481" lon="12.021985320466742"><ele>262.0</ele><time>2026-04-25T08:27:21.998Z</time></trkpt><trkpt lat="45.89603798105187" lon="12.021921633069184"><ele>262.0</ele><time>2026-04-25T08:27:23.998Z</time></trkpt><trkpt lat="45.89596593337641" lon="12.021855218489522"><ele>262.0</ele><time>2026-04-25T08:27:25.998Z</time></trkpt><trkpt lat="45.89589069855267" lon="12.021785865972527"><ele>262.0</ele><time>2026-04-25T08:27:27.998Z</time></trkpt><trkpt lat="45.89581895760022" lon="12.02171973414663"><ele>262.16666666666663</ele><time>2026-04-25T08:27:29.998Z</time></trkpt><trkpt lat="45.89574799269224" lon="12.021653540563642"><ele>262.3333333333333</ele><time>2026-04-25T08:27:31.998Z</time></trkpt><trkpt lat="45.89567467238891" lon="12.021585000994913"><ele>262.5</ele><time>2026-04-25T08:27:33.998Z</time></trkpt><trkpt lat="45.8955995601008" lon="12.021512591798913"><ele>262.6666666666667</ele><time>2026-04-25T08:27:35.998Z</time></trkpt><trkpt lat="45.895528893284634" lon="12.021442275210967"><ele>262.83333333333337</ele><time>2026-04-25T08:27:37.998Z</time></trkpt><trkpt lat="45.89546191477619" lon="12.021373347617457"><ele>263.0</ele><time>2026-04-25T08:27:39.998Z</time></trkpt><trkpt lat="45.895398734925436" lon="12.021308329278929"><ele>263.0</ele><time>2026-04-25T08:27:41.998Z</time></trkpt><trkpt lat="45.895333305475326" lon="12.021255707157618"><ele>263.0</ele><time>2026-04-25T08:27:43.998Z</time></trkpt><trkpt lat="45.895270485592086" lon="12.021221419606835"><ele>263.0</ele><time>2026-04-25T08:27:45.998Z</time></trkpt><trkpt lat="45.89519282378384" lon="12.021195700743402"><ele>263.0</ele><time>2026-04-25T08:27:47.997Z</time></trkpt><trkpt lat="45.89511136080232" lon="12.021169479823756"><ele>263.0</ele><time>2026-04-25T08:27:49.997Z</time></trkpt><trkpt lat="45.89502725163184" lon="12.021145587066284"><ele>263.0</ele><time>2026-04-25T08:27:51.997Z</time></trkpt><trkpt lat="45.89493498030718" lon="12.021141553054905"><ele>264.0</ele><time>2026-04-25T08:27:53.997Z</time></trkpt><trkpt lat="45.89486613256322" lon="12.021021401823685"><ele>265.0</ele><time>2026-04-25T08:27:55.997Z</time></trkpt><trkpt lat="45.894797561716665" lon="12.020910108153203"><ele>266.0</ele><time>2026-04-25T08:27:57.997Z</time></trkpt><trkpt lat="45.89474356693026" lon="12.020844107235238"><ele>267.0</ele><time>2026-04-25T08:28:00Z</time></trkpt><trkpt lat="45.89470314200819" lon="12.020753097662407"><ele>268.0</ele><time>2026-04-25T08:28:02Z</time></trkpt><trkpt lat="45.894628847996096" lon="12.020608413985935"><ele>268.0</ele><time>2026-04-25T08:28:04Z</time></trkpt><trkpt lat="45.894588584408545" lon="12.020524737137826"><ele>268.0</ele><time>2026-04-25T08:28:05Z</time></trkpt><trkpt lat="45.894563212413985" lon="12.020428359359483"><ele>268.0</ele><time>2026-04-25T08:28:06Z</time></trkpt><trkpt lat="45.89452455003436" lon="12.020346501497821"><ele>268.0</ele><time>2026-04-25T08:28:07Z</time></trkpt><trkpt lat="45.89448814948736" lon="12.020269432523811"><ele>268.0</ele><time>2026-04-25T08:28:08Z</time></trkpt><trkpt lat="45.89445191336305" lon="12.020190383588089"><ele>268.0</ele><time>2026-04-25T08:28:09Z</time></trkpt><trkpt lat="45.89441565388373" lon="12.020109807322358"><ele>268.0</ele><time>2026-04-25T08:28:10Z</time></trkpt><trkpt lat="45.894363169614905" lon="12.020048078862148"><ele>269.4</ele><time>2026-04-25T08:28:11Z</time></trkpt><trkpt lat="45.89432840875914" lon="12.019971083953639"><ele>270.8</ele><time>2026-04-25T08:28:12Z</time></trkpt><trkpt lat="45.894241611033706" lon="12.019847324501638"><ele>272.2</ele><time>2026-04-25T08:28:14Z</time></trkpt><trkpt lat="45.8941579950605" lon="12.019736100581676"><ele>273.6</ele><time>2026-04-25T08:28:16Z</time></trkpt><trkpt lat="45.89407866231663" lon="12.019632885617867"><ele>275.0</ele><time>2026-04-25T08:28:18Z</time></trkpt><trkpt lat="45.894007548778276" lon="12.019554632344205"><ele>275.0</ele><time>2026-04-25T08:28:20Z</time></trkpt><trkpt lat="45.8939115497677" lon="12.01949116666657"><ele>275.0</ele><time>2026-04-25T08:28:22Z</time></trkpt><trkpt lat="45.893792450990986" lon="12.019476463157561"><ele>275.0</ele><time>2026-04-25T08:28:24Z</time></trkpt><trkpt lat="45.893731159037415" lon="12.019514396490337"><ele>275.0</ele><time>2026-04-25T08:28:25Z</time></trkpt><trkpt lat="45.893692032502784" lon="12.019591042800894"><ele>275.0</ele><time>2026-04-25T08:28:26Z</time></trkpt><trkpt lat="45.89362762675203" lon="12.019696928935756"><ele>275.0</ele><time>2026-04-25T08:28:28Z</time></trkpt><trkpt lat="45.89363216273643" lon="12.019847804051505"><ele>275.0</ele><time>2026-04-25T08:28:30Z</time></trkpt><trkpt lat="45.893602218983936" lon="12.019988151170036"><ele>275.0</ele><time>2026-04-25T08:28:32Z</time></trkpt><trkpt lat="45.893543463041766" lon="12.020133633672879"><ele>275.0</ele><time>2026-04-25T08:28:34Z</time></trkpt><trkpt lat="45.89348556965985" lon="12.020246093243179"><ele>275.0</ele><time>2026-04-25T08:28:36Z</time></trkpt><trkpt lat="45.89340745303235" lon="12.0203755542182"><ele>272.5</ele><time>2026-04-25T08:28:37.999Z</time></trkpt><trkpt lat="45.89335927114523" lon="12.020440532111516"><ele>270.0</ele><time>2026-04-25T08:28:38.999Z</time></trkpt><trkpt lat="45.8932617633245" lon="12.020539706227545"><ele>267.5</ele><time>2026-04-25T08:28:40.999Z</time></trkpt><trkpt lat="45.89319791563025" lon="12.020579531728314"><ele>265.0</ele><time>2026-04-25T08:28:41.999Z</time></trkpt><trkpt lat="45.89313325506103" lon="12.020599360760192"><ele>262.5</ele><time>2026-04-25T08:28:42.999Z</time></trkpt><trkpt lat="45.89306843444295" lon="12.020626859995778"><ele>260.0</ele><time>2026-04-25T08:28:43.999Z</time></trkpt><trkpt lat="45.89300934061009" lon="12.020674210275962"><ele>260.0</ele><time>2026-04-25T08:28:44.999Z</time></trkpt><trkpt lat="45.89295055016264" lon="12.020716430664343"><ele>260.0</ele><time>2026-04-25T08:28:45.999Z</time></trkpt><trkpt lat="45.892833737772484" lon="12.020783998931412"><ele>260.0</ele><time>2026-04-25T08:28:47.999Z</time></trkpt><trkpt lat="45.892714015322106" lon="12.020792263053194"><ele>260.0</ele><time>2026-04-25T08:28:49.999Z</time></trkpt><trkpt lat="45.89260750471532" lon="12.020770845411427"><ele>260.0</ele><time>2026-04-25T08:28:51.999Z</time></trkpt><trkpt lat="45.892505641317904" lon="12.020739379353781"><ele>256.0</ele><time>2026-04-25T08:28:53.999Z</time></trkpt><trkpt lat="45.892431596594754" lon="12.020705614672739"><ele>252.0</ele><time>2026-04-25T08:28:55.999Z</time></trkpt><trkpt lat="45.892368372757254" lon="12.020657706746807"><ele>248.0</ele><time>2026-04-25T08:28:57.999Z</time></trkpt><trkpt lat="45.892288843678486" lon="12.020585672068114"><ele>244.0</ele><time>2026-04-25T08:28:59.999Z</time></trkpt><trkpt lat="45.892203995185156" lon="12.020525310081824"><ele>240.00000000000003</ele><time>2026-04-25T08:29:01.999Z</time></trkpt><trkpt lat="45.89211750731603" lon="12.020469719608231"><ele>236.0</ele><time>2026-04-25T08:29:03.999Z</time></trkpt><trkpt lat="45.89203607974375" lon="12.020425709683977"><ele>236.0</ele><time>2026-04-25T08:29:05.999Z</time></trkpt><trkpt lat="45.89195831732504" lon="12.020396214253989"><ele>236.00000000000003</ele><time>2026-04-25T08:29:15.999Z</time></trkpt><trkpt lat="45.891937384362755" lon="12.020295131937834"><ele>236.00000000000003</ele><time>2026-04-25T08:29:17.999Z</time></trkpt><trkpt lat="45.891934261101" lon="12.020164102575272"><ele>236.0</ele><time>2026-04-25T08:29:19.998Z</time></trkpt><trkpt lat="45.89190291589822" lon="12.020014097653855"><ele>236.0</ele><time>2026-04-25T08:29:21.998Z</time></trkpt><trkpt lat="45.891871379535296" lon="12.019849737664922"><ele>239.4</ele><time>2026-04-25T08:29:23.998Z</time></trkpt><trkpt lat="45.8918202601902" lon="12.019690488987584"><ele>242.8</ele><time>2026-04-25T08:29:25.998Z</time></trkpt><trkpt lat="45.891817368161185" lon="12.019597269009521"><ele>246.20000000000002</ele><time>2026-04-25T08:29:26.998Z</time></trkpt><trkpt lat="45.89176802704856" lon="12.019430269029563"><ele>249.60000000000002</ele><time>2026-04-25T08:29:28.998Z</time></trkpt><trkpt lat="45.891748407624426" lon="12.019343151418527"><ele>253.0</ele><time>2026-04-25T08:29:29.998Z</time></trkpt><trkpt lat="45.89171969559693" lon="12.019170291908422"><ele>248.42857142857147</ele><time>2026-04-25T08:29:31.998Z</time></trkpt><trkpt lat="45.89172422858085" lon="12.019078337806436"><ele>243.85714285714286</ele><time>2026-04-25T08:29:32.998Z</time></trkpt><trkpt lat="45.891714809536424" lon="12.018987338516432"><ele>239.2857142857143</ele><time>2026-04-25T08:29:33.998Z</time></trkpt><trkpt lat="45.891692323404634" lon="12.018899641409126"><ele>234.71428571428572</ele><time>2026-04-25T08:29:34.998Z</time></trkpt><trkpt lat="45.891682775937475" lon="12.018808939418806"><ele>230.14285714285717</ele><time>2026-04-25T08:29:35.998Z</time></trkpt><trkpt lat="45.89167578992747" lon="12.018715521057704"><ele>225.57142857142858</ele><time>2026-04-25T08:29:36.998Z</time></trkpt><trkpt lat="45.89166488353585" lon="12.01861947386908"><ele>221.0</ele><time>2026-04-25T08:29:37.998Z</time></trkpt><trkpt lat="45.89165824276113" lon="12.0185186287005"><ele>221.00000000000003</ele><time>2026-04-25T08:29:38.998Z</time></trkpt><trkpt lat="45.89165021226276" lon="12.018414477893181"><ele>221.0</ele><time>2026-04-25T08:29:39.998Z</time></trkpt><trkpt lat="45.89163994250863" lon="12.01830890299742"><ele>221.0</ele><time>2026-04-25T08:29:40.998Z</time></trkpt><trkpt lat="45.891626608551064" lon="12.018200724625993"><ele>221.0</ele><time>2026-04-25T08:29:41.998Z</time></trkpt><trkpt lat="45.89160621423291" lon="12.018091181284696"><ele>221.00000000000003</ele><time>2026-04-25T08:29:42.998Z</time></trkpt><trkpt lat="45.891590518180486" lon="12.017977995623122"><ele>221.0</ele><time>2026-04-25T08:29:43.998Z</time></trkpt><trkpt lat="45.891524361010426" lon="12.017887116860322"><ele>223.00000000000003</ele><time>2026-04-25T08:29:44.998Z</time></trkpt><trkpt lat="45.891476972906965" lon="12.017781003231638"><ele>225.0</ele><time>2026-04-25T08:29:45.998Z</time></trkpt><trkpt lat="45.89141937167144" lon="12.017690257095087"><ele>227.0</ele><time>2026-04-25T08:29:46.998Z</time></trkpt><trkpt lat="45.891362051607906" lon="12.01760497920528"><ele>229.0</ele><time>2026-04-25T08:29:47.998Z</time></trkpt><trkpt lat="45.89129941414013" lon="12.017524830871855"><ele>231.00000000000003</ele><time>2026-04-25T08:29:48.998Z</time></trkpt><trkpt lat="45.89121897662361" lon="12.017475715485006"><ele>233.0</ele><time>2026-04-25T08:29:49.998Z</time></trkpt><trkpt lat="45.891154109137055" lon="12.017400843357358"><ele>231.66666666666669</ele><time>2026-04-25T08:29:50.998Z</time></trkpt><trkpt lat="45.891067911584045" lon="12.017386594005341"><ele>230.33333333333334</ele><time>2026-04-25T08:29:51.998Z</time></trkpt><trkpt lat="45.89099230898618" lon="12.017355498357158"><ele>229.0</ele><time>2026-04-25T08:29:52.998Z</time></trkpt><trkpt lat="45.890919184686375" lon="12.017329403409082"><ele>227.66666666666669</ele><time>2026-04-25T08:29:53.998Z</time></trkpt><trkpt lat="45.8908494770621" lon="12.017308761274704"><ele>226.33333333333334</ele><time>2026-04-25T08:29:54.998Z</time></trkpt><trkpt lat="45.890775374107875" lon="12.0172870688554"><ele>225.0</ele><time>2026-04-25T08:29:55.998Z</time></trkpt><trkpt lat="45.890706382722634" lon="12.017262293901792"><ele>225.0</ele><time>2026-04-25T08:29:56.998Z</time></trkpt><trkpt lat="45.89063316040382" lon="12.017233185374579"><ele>225.0</ele><time>2026-04-25T08:29:57.998Z</time></trkpt><trkpt lat="45.89055429131347" lon="12.017207385734086"><ele>225.0</ele><time>2026-04-25T08:29:58.998Z</time></trkpt><trkpt lat="45.89047123063518" lon="12.017177098835049"><ele>225.0</ele><time>2026-04-25T08:29:59.998Z</time></trkpt><trkpt lat="45.8903886925499" lon="12.017121775476609"><ele>225.0</ele><time>2026-04-25T08:30:00.998Z</time></trkpt><trkpt lat="45.89029676243755" lon="12.017075885170074"><ele>225.0</ele><time>2026-04-25T08:30:01.998Z</time></trkpt><trkpt lat="45.89020935573154" lon="12.017014315840552"><ele>225.0</ele><time>2026-04-25T08:30:02.997Z</time></trkpt><trkpt lat="45.89011901582316" lon="12.016949533604018"><ele>225.0</ele><time>2026-04-25T08:30:03.997Z</time></trkpt><trkpt lat="45.89002616349049" lon="12.016881939186028"><ele>225.0</ele><time>2026-04-25T08:30:05Z</time></trkpt><trkpt lat="45.88992602844007" lon="12.01682738630375"><ele>225.0</ele><time>2026-04-25T08:30:06Z</time></trkpt><trkpt lat="45.88982986505515" lon="12.0167616241383"><ele>225.0</ele><time>2026-04-25T08:30:07Z</time></trkpt><trkpt lat="45.889732089506296" lon="12.01669122696542"><ele>226.8</ele><time>2026-04-25T08:30:08Z</time></trkpt><trkpt lat="45.88963699523156" lon="12.016621997023947"><ele>228.6</ele><time>2026-04-25T08:30:09Z</time></trkpt><trkpt lat="45.88954338430806" lon="12.016552392006474"><ele>230.39999999999998</ele><time>2026-04-25T08:30:10Z</time></trkpt><trkpt lat="45.889450477087195" lon="12.016490184291731"><ele>232.2</ele><time>2026-04-25T08:30:11Z</time></trkpt><trkpt lat="45.88936051671389" lon="12.016430937726634"><ele>234.0</ele><time>2026-04-25T08:30:12Z</time></trkpt><trkpt lat="45.88927289953691" lon="12.016373665349345"><ele>231.16666666666666</ele><time>2026-04-25T08:30:13Z</time></trkpt><trkpt lat="45.889191634790784" lon="12.016315267157667"><ele>228.33333333333331</ele><time>2026-04-25T08:30:14Z</time></trkpt><trkpt lat="45.88911101931196" lon="12.016263536332854"><ele>225.5</ele><time>2026-04-25T08:30:15Z</time></trkpt><trkpt lat="45.88903347799796" lon="12.016212763887797"><ele>222.66666666666666</ele><time>2026-04-25T08:30:16Z</time></trkpt><trkpt lat="45.8889601609647" lon="12.016154808259783"><ele>219.83333333333331</ele><time>2026-04-25T08:30:17Z</time></trkpt><trkpt lat="45.888885879737586" lon="12.01611244178971"><ele>217.0</ele><time>2026-04-25T08:30:18Z</time></trkpt><trkpt lat="45.88881876739352" lon="12.016063748071074"><ele>217.0</ele><time>2026-04-25T08:30:19Z</time></trkpt><trkpt lat="45.88875186826877" lon="12.016018649786785"><ele>217.0</ele><time>2026-04-25T08:30:20Z</time></trkpt><trkpt lat="45.888689112438975" lon="12.015973032553054"><ele>217.0</ele><time>2026-04-25T08:30:21Z</time></trkpt><trkpt lat="45.888628460844615" lon="12.015927298019685"><ele>217.0</ele><time>2026-04-25T08:30:22Z</time></trkpt><trkpt lat="45.888568518463266" lon="12.015884390482055"><ele>217.0</ele><time>2026-04-25T08:30:23Z</time></trkpt><trkpt lat="45.88851099306176" lon="12.015844026349935"><ele>217.0</ele><time>2026-04-25T08:30:24Z</time></trkpt><trkpt lat="45.88845524717379" lon="12.015801716248989"><ele>217.0</ele><time>2026-04-25T08:30:25Z</time></trkpt><trkpt lat="45.888353242066756" lon="12.015719859255462"><ele>217.16666666666666</ele><time>2026-04-25T08:30:27Z</time></trkpt><trkpt lat="45.888270089823" lon="12.015626408007195"><ele>217.33333333333331</ele><time>2026-04-25T08:30:29Z</time></trkpt><trkpt lat="45.888195515187874" lon="12.015537248872336"><ele>217.5</ele><time>2026-04-25T08:30:31Z</time></trkpt><trkpt lat="45.88812832363546" lon="12.015458775586916"><ele>217.66666666666669</ele><time>2026-04-25T08:30:33Z</time></trkpt><trkpt lat="45.88806866530424" lon="12.015389471159017"><ele>217.83333333333334</ele><time>2026-04-25T08:30:35Z</time></trkpt><trkpt lat="45.88801138197362" lon="12.015320511526962"><ele>218.0</ele><time>2026-04-25T08:30:37Z</time></trkpt><trkpt lat="45.887956479302005" lon="12.01525218735412"><ele>218.00000000000003</ele><time>2026-04-25T08:30:39Z</time></trkpt><trkpt lat="45.887905365882716" lon="12.015182979747019"><ele>218.0</ele><time>2026-04-25T08:30:41Z</time></trkpt><trkpt lat="45.8878534300727" lon="12.015119992517608"><ele>218.0</ele><time>2026-04-25T08:30:43Z</time></trkpt><trkpt lat="45.88778479714089" lon="12.015034898787828"><ele>218.0</ele><time>2026-04-25T08:30:46Z</time></trkpt><trkpt lat="45.88772146342447" lon="12.014953584090142"><ele>218.00000000000003</ele><time>2026-04-25T08:30:49Z</time></trkpt><trkpt lat="45.887660602619555" lon="12.014880114276968"><ele>218.0</ele><time>2026-04-25T08:30:52Z</time></trkpt><trkpt lat="45.88760112167598" lon="12.014802077955904"><ele>219.00000000000003</ele><time>2026-04-25T08:30:54.999Z</time></trkpt><trkpt lat="45.88753867818718" lon="12.014729007635939"><ele>220.0</ele><time>2026-04-25T08:30:57.999Z</time></trkpt><trkpt lat="45.887481733713265" lon="12.01465381993809"><ele>221.0</ele><time>2026-04-25T08:31:00.999Z</time></trkpt><trkpt lat="45.887422389925334" lon="12.014587855985203"><ele>222.0</ele><time>2026-04-25T08:31:03.999Z</time></trkpt><trkpt lat="45.887368174473565" lon="12.014513614538188"><ele>223.00000000000003</ele><time>2026-04-25T08:31:06.999Z</time></trkpt><trkpt lat="45.887310641149945" lon="12.014444599081427"><ele>224.0</ele><time>2026-04-25T08:31:09.999Z</time></trkpt><trkpt lat="45.887256980069374" lon="12.014373463679568"><ele>224.0</ele><time>2026-04-25T08:31:12.999Z</time></trkpt><trkpt lat="45.88720359430572" lon="12.014308130961298"><ele>224.0</ele><time>2026-04-25T08:31:15.999Z</time></trkpt><trkpt lat="45.88714736848142" lon="12.014240062709948"><ele>224.0</ele><time>2026-04-25T08:31:18.999Z</time></trkpt><trkpt lat="45.88708864728132" lon="12.014175760945664"><ele>224.0</ele><time>2026-04-25T08:31:21.999Z</time></trkpt><trkpt lat="45.88702269529682" lon="12.01411673748187"><ele>224.0</ele><time>2026-04-25T08:31:24.999Z</time></trkpt><trkpt lat="45.886945557341605" lon="12.014066042516179"><ele>224.0</ele><time>2026-04-25T08:31:27.999Z</time></trkpt><trkpt lat="45.88688554175258" lon="12.014037180918477"><ele>224.0</ele><time>2026-04-25T08:31:29.999Z</time></trkpt><trkpt lat="45.88681924936773" lon="12.014000064294763"><ele>223.6</ele><time>2026-04-25T08:31:31.999Z</time></trkpt><trkpt lat="45.88673531600164" lon="12.013968061973154"><ele>223.2</ele><time>2026-04-25T08:31:33.998Z</time></trkpt><trkpt lat="45.88665608677912" lon="12.01391566756828"><ele>222.79999999999998</ele><time>2026-04-25T08:31:35.998Z</time></trkpt><trkpt lat="45.88656683317415" lon="12.013851995391523"><ele>222.39999999999998</ele><time>2026-04-25T08:31:37.997Z</time></trkpt><trkpt lat="45.886485256579924" lon="12.01376389823506"><ele>222.0</ele><time>2026-04-25T08:31:39.997Z</time></trkpt><trkpt lat="45.88642690059804" lon="12.013619676591398"><ele>222.0</ele><time>2026-04-25T08:31:41.997Z</time></trkpt><trkpt lat="45.886384128674436" lon="12.013457716075294"><ele>222.0</ele><time>2026-04-25T08:31:43.997Z</time></trkpt><trkpt lat="45.8863594632672" lon="12.01337249805959"><ele>222.0</ele><time>2026-04-25T08:31:44.997Z</time></trkpt><trkpt lat="45.88631291633048" lon="12.013209049816634"><ele>222.0</ele><time>2026-04-25T08:31:46.997Z</time></trkpt><trkpt lat="45.88628743951081" lon="12.013125852090132"><ele>222.0</ele><time>2026-04-25T08:31:47.997Z</time></trkpt><trkpt lat="45.88626225380174" lon="12.013040016194978"><ele>222.0</ele><time>2026-04-25T08:31:48.997Z</time></trkpt><trkpt lat="45.88621162980595" lon="12.01287096359168"><ele>222.28571428571428</ele><time>2026-04-25T08:31:50.997Z</time></trkpt><trkpt lat="45.88618256460323" lon="12.012785977353655"><ele>222.57142857142858</ele><time>2026-04-25T08:31:51.997Z</time></trkpt><trkpt lat="45.886146347608694" lon="12.012704064072365"><ele>222.85714285714286</ele><time>2026-04-25T08:31:52.997Z</time></trkpt><trkpt lat="45.88611145798101" lon="12.012616948712752"><ele>223.14285714285714</ele><time>2026-04-25T08:31:53.997Z</time></trkpt><trkpt lat="45.886068901913134" lon="12.012528761147529"><ele>223.42857142857144</ele><time>2026-04-25T08:31:54.997Z</time></trkpt><trkpt lat="45.886019616170685" lon="12.012436509085813"><ele>223.71428571428572</ele><time>2026-04-25T08:31:55.997Z</time></trkpt><trkpt lat="45.88595994223475" lon="12.012347386576659"><ele>224.0</ele><time>2026-04-25T08:31:56.997Z</time></trkpt><trkpt lat="45.88589682245607" lon="12.012259877103611"><ele>221.33333333333334</ele><time>2026-04-25T08:31:57.997Z</time></trkpt><trkpt lat="45.885837152582354" lon="12.012175412336305"><ele>218.66666666666669</ele><time>2026-04-25T08:31:58.997Z</time></trkpt><trkpt lat="45.88578201647211" lon="12.012087651733507"><ele>216.0</ele><time>2026-04-25T08:31:59.997Z</time></trkpt><trkpt lat="45.88573450669195" lon="12.011985510716137"><ele>213.33333333333331</ele><time>2026-04-25T08:32:00.997Z</time></trkpt><trkpt lat="45.88570753316926" lon="12.01186643957844"><ele>210.66666666666666</ele><time>2026-04-25T08:32:01.997Z</time></trkpt><trkpt lat="45.88570546157398" lon="12.011740783880745"><ele>208.0</ele><time>2026-04-25T08:32:02.997Z</time></trkpt><trkpt lat="45.8857371405051" lon="12.011619697737643"><ele>208.33333333333331</ele><time>2026-04-25T08:32:03.997Z</time></trkpt><trkpt lat="45.88578809876852" lon="12.01151427193211"><ele>208.66666666666666</ele><time>2026-04-25T08:32:04.997Z</time></trkpt><trkpt lat="45.88584803435038" lon="12.011419750333744"><ele>209.0</ele><time>2026-04-25T08:32:05.997Z</time></trkpt><trkpt lat="45.885908376683005" lon="12.011324920799174"><ele>209.33333333333331</ele><time>2026-04-25T08:32:06.997Z</time></trkpt><trkpt lat="45.88596584512787" lon="12.01122546406475"><ele>209.66666666666666</ele><time>2026-04-25T08:32:07.997Z</time></trkpt><trkpt lat="45.88602411855668" lon="12.011127816994097"><ele>210.0</ele><time>2026-04-25T08:32:08.997Z</time></trkpt><trkpt lat="45.88607981610595" lon="12.011023690897781"><ele>210.0</ele><time>2026-04-25T08:32:09.997Z</time></trkpt><trkpt lat="45.88613342480064" lon="12.010915634962757"><ele>210.0</ele><time>2026-04-25T08:32:11Z</time></trkpt><trkpt lat="45.88618587386086" lon="12.010808760460328"><ele>210.0</ele><time>2026-04-25T08:32:12Z</time></trkpt><trkpt lat="45.88624160968393" lon="12.01070432111635"><ele>210.0</ele><time>2026-04-25T08:32:13Z</time></trkpt><trkpt lat="45.88629931749205" lon="12.010605787184957"><ele>210.0</ele><time>2026-04-25T08:32:14Z</time></trkpt><trkpt lat="45.886355895122186" lon="12.010504330227528"><ele>208.6</ele><time>2026-04-25T08:32:15Z</time></trkpt><trkpt lat="45.8864126277257" lon="12.010412765221625"><ele>207.2</ele><time>2026-04-25T08:32:16Z</time></trkpt><trkpt lat="45.886461213763276" lon="12.010344803131456"><ele>205.8</ele><time>2026-04-25T08:32:17Z</time></trkpt><trkpt lat="45.886528660830265" lon="12.010205217595566"><ele>204.4</ele><time>2026-04-25T08:32:19Z</time></trkpt><trkpt lat="45.886481779166054" lon="12.010032610094347"><ele>203.0</ele><time>2026-04-25T08:32:21Z</time></trkpt><trkpt lat="45.886424518559686" lon="12.009968567692992"><ele>202.71428571428572</ele><time>2026-04-25T08:32:22Z</time></trkpt><trkpt lat="45.88637059304368" lon="12.009906210224099"><ele>202.42857142857144</ele><time>2026-04-25T08:32:23Z</time></trkpt><trkpt lat="45.88632012668798" lon="12.00983275089775"><ele>202.14285714285714</ele><time>2026-04-25T08:32:24Z</time></trkpt><trkpt lat="45.88627090471937" lon="12.009754340804996"><ele>201.85714285714286</ele><time>2026-04-25T08:32:25Z</time></trkpt><trkpt lat="45.8862210664227" lon="12.00968078424649"><ele>201.57142857142858</ele><time>2026-04-25T08:32:26Z</time></trkpt><trkpt lat="45.88618294547401" lon="12.009584726021016"><ele>201.28571428571428</ele><time>2026-04-25T08:32:27Z</time></trkpt><trkpt lat="45.88612025842811" lon="12.009519402452504"><ele>201.0</ele><time>2026-04-25T08:32:28Z</time></trkpt><trkpt lat="45.88606743932413" lon="12.009439271406093"><ele>201.0</ele><time>2026-04-25T08:32:28.999Z</time></trkpt><trkpt lat="45.88601299214633" lon="12.009358511100839"><ele>201.0</ele><time>2026-04-25T08:32:29.999Z</time></trkpt><trkpt lat="45.88595844975153" lon="12.009275741401646"><ele>201.0</ele><time>2026-04-25T08:32:30.999Z</time></trkpt><trkpt lat="45.88590573565974" lon="12.009192959410482"><ele>201.0</ele><time>2026-04-25T08:32:31.999Z</time></trkpt><trkpt lat="45.885854688539666" lon="12.009105579441501"><ele>201.0</ele><time>2026-04-25T08:32:32.999Z</time></trkpt><trkpt lat="45.88580363138335" lon="12.009021448249381"><ele>201.0</ele><time>2026-04-25T08:32:33.999Z</time></trkpt><trkpt lat="45.88574703073374" lon="12.008938745672118"><ele>200.66666666666666</ele><time>2026-04-25T08:32:34.999Z</time></trkpt><trkpt lat="45.88569003007617" lon="12.0088583509263"><ele>200.33333333333331</ele><time>2026-04-25T08:32:35.999Z</time></trkpt><trkpt lat="45.88563215005488" lon="12.008780175997126"><ele>200.0</ele><time>2026-04-25T08:32:36.999Z</time></trkpt><trkpt lat="45.88557193831089" lon="12.008704694538926"><ele>199.66666666666666</ele><time>2026-04-25T08:32:37.999Z</time></trkpt><trkpt lat="45.885509236644396" lon="12.008637026022155"><ele>199.33333333333331</ele><time>2026-04-25T08:32:38.999Z</time></trkpt><trkpt lat="45.885441765483584" lon="12.00857940471212"><ele>199.0</ele><time>2026-04-25T08:32:39.999Z</time></trkpt><trkpt lat="45.88537379982733" lon="12.00852177012899"><ele>198.99999999999997</ele><time>2026-04-25T08:32:40.999Z</time></trkpt><trkpt lat="45.88530907443219" lon="12.008467721512353"><ele>199.0</ele><time>2026-04-25T08:32:41.999Z</time></trkpt><trkpt lat="45.88524136194416" lon="12.008419334148591"><ele>199.0</ele><time>2026-04-25T08:32:42.999Z</time></trkpt><trkpt lat="45.885173708419394" lon="12.008374364723572"><ele>199.0</ele><time>2026-04-25T08:32:43.999Z</time></trkpt><trkpt lat="45.8851082730267" lon="12.008334921124712"><ele>199.0</ele><time>2026-04-25T08:32:44.999Z</time></trkpt><trkpt lat="45.885046328539374" lon="12.008295609484165"><ele>198.99999999999997</ele><time>2026-04-25T08:32:45.999Z</time></trkpt><trkpt lat="45.88498871098535" lon="12.008251121953526"><ele>199.0</ele><time>2026-04-25T08:32:46.999Z</time></trkpt><trkpt lat="45.88493254403639" lon="12.008207167441336"><ele>199.5</ele><time>2026-04-25T08:32:47.999Z</time></trkpt><trkpt lat="45.884819918723295" lon="12.008141451419947"><ele>200.0</ele><time>2026-04-25T08:32:49.999Z</time></trkpt><trkpt lat="45.884709655260515" lon="12.00808076384628"><ele>200.5</ele><time>2026-04-25T08:32:51.999Z</time></trkpt><trkpt lat="45.88459226389122" lon="12.008066559191434"><ele>201.0</ele><time>2026-04-25T08:32:53.999Z</time></trkpt><trkpt lat="45.88449202638995" lon="12.008097084588972"><ele>201.0</ele><time>2026-04-25T08:32:55.999Z</time></trkpt><trkpt lat="45.88440333417371" lon="12.00809939878703"><ele>201.0</ele><time>2026-04-25T08:32:57.999Z</time></trkpt><trkpt lat="45.88433100481054" lon="12.008114036010625"><ele>201.0</ele><time>2026-04-25T08:32:59.999Z</time></trkpt><trkpt lat="45.8842531465168" lon="12.00811766199661"><ele>201.0</ele><time>2026-04-25T08:33:01.999Z</time></trkpt><trkpt lat="45.88417831296008" lon="12.008118589138393"><ele>201.0</ele><time>2026-04-25T08:33:03.999Z</time></trkpt><trkpt lat="45.88409915785762" lon="12.008117210161714"><ele>201.0</ele><time>2026-04-25T08:33:05.999Z</time></trkpt><trkpt lat="45.88401352369883" lon="12.008116328149189"><ele>200.8</ele><time>2026-04-25T08:33:07.999Z</time></trkpt><trkpt lat="45.8839238619271" lon="12.00816133826204"><ele>200.60000000000002</ele><time>2026-04-25T08:33:09.999Z</time></trkpt><trkpt lat="45.88383069114175" lon="12.008180732727366"><ele>200.4</ele><time>2026-04-25T08:33:11.998Z</time></trkpt><trkpt lat="45.8837371349474" lon="12.008231110633613"><ele>200.2</ele><time>2026-04-25T08:33:13.998Z</time></trkpt><trkpt lat="45.88364450537932" lon="12.008282306188365"><ele>200.0</ele><time>2026-04-25T08:33:15.998Z</time></trkpt><trkpt lat="45.88355911966725" lon="12.008324509694141"><ele>200.16666666666669</ele><time>2026-04-25T08:33:17.998Z</time></trkpt><trkpt lat="45.88348710198161" lon="12.008360762375034"><ele>200.33333333333334</ele><time>2026-04-25T08:33:19.998Z</time></trkpt><trkpt lat="45.883415498519945" lon="12.008351895509227"><ele>200.5</ele><time>2026-04-25T08:33:21.998Z</time></trkpt><trkpt lat="45.8833277892315" lon="12.008366573532241"><ele>200.66666666666669</ele><time>2026-04-25T08:33:24.998Z</time></trkpt><trkpt lat="45.88324950739856" lon="12.008374299616962"><ele>200.83333333333334</ele><time>2026-04-25T08:33:27.998Z</time></trkpt><trkpt lat="45.883178475435514" lon="12.00837958503049"><ele>201.0</ele><time>2026-04-25T08:33:30.998Z</time></trkpt><trkpt lat="45.883095660800805" lon="12.008382867030727"><ele>201.57142857142856</ele><time>2026-04-25T08:33:34.998Z</time></trkpt><trkpt lat="45.88302182558985" lon="12.00838128568796"><ele>202.14285714285717</ele><time>2026-04-25T08:33:38.998Z</time></trkpt><trkpt lat="45.88295357414385" lon="12.008364371298203"><ele>202.71428571428572</ele><time>2026-04-25T08:33:42.998Z</time></trkpt><trkpt lat="45.882889997201644" lon="12.008335815070529"><ele>203.28571428571428</ele><time>2026-04-25T08:33:46.998Z</time></trkpt><trkpt lat="45.882824463977414" lon="12.008280763524292"><ele>203.85714285714283</ele><time>2026-04-25T08:33:51.998Z</time></trkpt><trkpt lat="45.882770498016384" lon="12.008227519462098"><ele>204.42857142857144</ele><time>2026-04-25T08:33:55.997Z</time></trkpt><trkpt lat="45.88272281792554" lon="12.008167735307207"><ele>205.0</ele><time>2026-04-25T08:33:59.997Z</time></trkpt><trkpt lat="45.88266845687744" lon="12.008105829195612"><ele>207.4</ele><time>2026-04-25T08:34:03.997Z</time></trkpt><trkpt lat="45.88256438380871" lon="12.008085167059932"><ele>209.8</ele><time>2026-04-25T08:34:08.997Z</time></trkpt><trkpt lat="45.882529186740875" lon="12.008225335327145"><ele>212.2</ele><time>2026-04-25T08:34:10.997Z</time></trkpt><trkpt lat="45.88246380195603" lon="12.008322069623462"><ele>214.6</ele><time>2026-04-25T08:34:13.997Z</time></trkpt><trkpt lat="45.88241610636341" lon="12.008423746750216"><ele>217.0</ele><time>2026-04-25T08:34:15.997Z</time></trkpt><trkpt lat="45.882379976898065" lon="12.008548581597886"><ele>217.0</ele><time>2026-04-25T08:34:18Z</time></trkpt><trkpt lat="45.88232789268934" lon="12.008680698575837"><ele>217.0</ele><time>2026-04-25T08:34:20Z</time></trkpt><trkpt lat="45.882273539387576" lon="12.00882889703887"><ele>217.0</ele><time>2026-04-25T08:34:22Z</time></trkpt><trkpt lat="45.882231649391706" lon="12.00899236309855"><ele>217.0</ele><time>2026-04-25T08:34:24Z</time></trkpt><trkpt lat="45.88221045060304" lon="12.009078304685522"><ele>217.0</ele><time>2026-04-25T08:34:25Z</time></trkpt><trkpt lat="45.88218723086905" lon="12.009164997285497"><ele>216.14285714285714</ele><time>2026-04-25T08:34:26Z</time></trkpt><trkpt lat="45.88216111567802" lon="12.009251808541741"><ele>215.28571428571428</ele><time>2026-04-25T08:34:27Z</time></trkpt><trkpt lat="45.88213775832574" lon="12.009342861871199"><ele>214.42857142857144</ele><time>2026-04-25T08:34:28Z</time></trkpt><trkpt lat="45.88211567034796" lon="12.00943529520553"><ele>213.57142857142856</ele><time>2026-04-25T08:34:29Z</time></trkpt><trkpt lat="45.8820925449611" lon="12.00952987785897"><ele>212.71428571428572</ele><time>2026-04-25T08:34:30Z</time></trkpt><trkpt lat="45.882073414300415" lon="12.009628637226996"><ele>211.85714285714286</ele><time>2026-04-25T08:34:31Z</time></trkpt><trkpt lat="45.88206335126629" lon="12.009725345474527"><ele>211.0</ele><time>2026-04-25T08:34:32Z</time></trkpt><trkpt lat="45.88206111277661" lon="12.009828766353397"><ele>210.99999999999997</ele><time>2026-04-25T08:34:33Z</time></trkpt><trkpt lat="45.882065731651856" lon="12.0099206651722"><ele>211.0</ele><time>2026-04-25T08:34:34Z</time></trkpt><trkpt lat="45.88207688770952" lon="12.010023050176798"><ele>211.0</ele><time>2026-04-25T08:34:35Z</time></trkpt><trkpt lat="45.882090605356446" lon="12.010120452282708"><ele>211.0</ele><time>2026-04-25T08:34:36Z</time></trkpt><trkpt lat="45.882100741988" lon="12.010209887167324"><ele>210.99999999999997</ele><time>2026-04-25T08:34:37Z</time></trkpt><trkpt lat="45.88210548635346" lon="12.010388429664971"><ele>211.0</ele><time>2026-04-25T08:34:39Z</time></trkpt><trkpt lat="45.88208808995878" lon="12.010530112030473"><ele>211.14285714285714</ele><time>2026-04-25T08:34:41Z</time></trkpt><trkpt lat="45.88205254445779" lon="12.010614525271949"><ele>211.28571428571428</ele><time>2026-04-25T08:34:43Z</time></trkpt><trkpt lat="45.88203650190097" lon="12.0107068491966"><ele>211.42857142857144</ele><time>2026-04-25T08:34:46Z</time></trkpt><trkpt lat="45.88197693237053" lon="12.01078871708602"><ele>211.57142857142856</ele><time>2026-04-25T08:34:49.999Z</time></trkpt><trkpt lat="45.88192561596076" lon="12.0108500227875"><ele>211.7142857142857</ele><time>2026-04-25T08:34:53.999Z</time></trkpt><trkpt lat="45.88187210955619" lon="12.010920212051937"><ele>211.85714285714286</ele><time>2026-04-25T08:34:57.999Z</time></trkpt><trkpt lat="45.88181970125531" lon="12.01099564305854"><ele>212.0</ele><time>2026-04-25T08:35:01.999Z</time></trkpt><trkpt lat="45.88178096316082" lon="12.011094942865705"><ele>213.50000000000003</ele><time>2026-04-25T08:35:05.999Z</time></trkpt><trkpt lat="45.88173595941902" lon="12.011176364456201"><ele>215.0</ele><time>2026-04-25T08:35:09.999Z</time></trkpt><trkpt lat="45.8816803995715" lon="12.011255179771466"><ele>216.5</ele><time>2026-04-25T08:35:13.999Z</time></trkpt><trkpt lat="45.88163298779027" lon="12.011345966577137"><ele>218.0</ele><time>2026-04-25T08:35:17.999Z</time></trkpt><trkpt lat="45.88158770452953" lon="12.011438655935926"><ele>219.50000000000003</ele><time>2026-04-25T08:35:20.999Z</time></trkpt><trkpt lat="45.881515086901565" lon="12.011501702374911"><ele>221.0</ele><time>2026-04-25T08:35:23.999Z</time></trkpt><trkpt lat="45.881472683786846" lon="12.011608849429448"><ele>220.66666666666669</ele><time>2026-04-25T08:35:26.999Z</time></trkpt><trkpt lat="45.88143832859654" lon="12.01170760827461"><ele>220.33333333333334</ele><time>2026-04-25T08:35:29.999Z</time></trkpt><trkpt lat="45.88143614775159" lon="12.011799427264968"><ele>220.0</ele><time>2026-04-25T08:35:31.998Z</time></trkpt><trkpt lat="45.881439791479366" lon="12.011909140516453"><ele>219.66666666666669</ele><time>2026-04-25T08:35:33.998Z</time></trkpt><trkpt lat="45.88145207150553" lon="12.01203984598437"><ele>219.33333333333334</ele><time>2026-04-25T08:35:35.998Z</time></trkpt><trkpt lat="45.88146888172341" lon="12.012176435871117"><ele>219.0</ele><time>2026-04-25T08:35:37.998Z</time></trkpt><trkpt lat="45.88148713617126" lon="12.01232366257921"><ele>219.0</ele><time>2026-04-25T08:35:39.998Z</time></trkpt><trkpt lat="45.881498266820856" lon="12.012483411856014"><ele>219.0</ele><time>2026-04-25T08:35:41.998Z</time></trkpt><trkpt lat="45.881498720947825" lon="12.01265825385429"><ele>219.0</ele><time>2026-04-25T08:35:43.998Z</time></trkpt><trkpt lat="45.88145173166996" lon="12.012815266196627"><ele>219.0</ele><time>2026-04-25T08:35:45.998Z</time></trkpt><trkpt lat="45.88137902097741" lon="12.012964256541002"><ele>218.5</ele><time>2026-04-25T08:35:47.998Z</time></trkpt><trkpt lat="45.881338538796214" lon="12.013039914610202"><ele>218.0</ele><time>2026-04-25T08:35:48.998Z</time></trkpt><trkpt lat="45.881281459779636" lon="12.013107030328904"><ele>217.5</ele><time>2026-04-25T08:35:49.998Z</time></trkpt><trkpt lat="45.881227070021055" lon="12.013191420219137"><ele>217.0</ele><time>2026-04-25T08:35:50.998Z</time></trkpt><trkpt lat="45.88117168771726" lon="12.013268006321871"><ele>216.5</ele><time>2026-04-25T08:35:51.998Z</time></trkpt><trkpt lat="45.88112297486772" lon="12.013358504482975"><ele>216.0</ele><time>2026-04-25T08:35:52.998Z</time></trkpt><trkpt lat="45.88106412637119" lon="12.013427820332787"><ele>215.8</ele><time>2026-04-25T08:35:53.998Z</time></trkpt><trkpt lat="45.88099940809816" lon="12.013462621681606"><ele>215.60000000000002</ele><time>2026-04-25T08:35:54.998Z</time></trkpt><trkpt lat="45.88093626640414" lon="12.013484583196064"><ele>215.4</ele><time>2026-04-25T08:35:55.998Z</time></trkpt><trkpt lat="45.880811396299876" lon="12.01347436914441"><ele>215.2</ele><time>2026-04-25T08:35:57.998Z</time></trkpt><trkpt lat="45.88069786756346" lon="12.013477692814813"><ele>215.0</ele><time>2026-04-25T08:35:59.998Z</time></trkpt><trkpt lat="45.88058443345965" lon="12.01351961977057"><ele>215.4</ele><time>2026-04-25T08:36:01.998Z</time></trkpt><trkpt lat="45.880475416833754" lon="12.013574210074362"><ele>215.8</ele><time>2026-04-25T08:36:03.998Z</time></trkpt><trkpt lat="45.88041689140888" lon="12.013608688113706"><ele>216.2</ele><time>2026-04-25T08:36:04.998Z</time></trkpt><trkpt lat="45.88030640886965" lon="12.01369095733825"><ele>216.6</ele><time>2026-04-25T08:36:06.998Z</time></trkpt><trkpt lat="45.88020682617866" lon="12.013764408297146"><ele>217.0</ele><time>2026-04-25T08:36:08.998Z</time></trkpt><trkpt lat="45.88011245250703" lon="12.013861604086818"><ele>215.75</ele><time>2026-04-25T08:36:10.998Z</time></trkpt><trkpt lat="45.88000390111182" lon="12.013911499248659"><ele>214.5</ele><time>2026-04-25T08:36:12.998Z</time></trkpt><trkpt lat="45.87989265779921" lon="12.013950416100194"><ele>213.25</ele><time>2026-04-25T08:36:14.997Z</time></trkpt><trkpt lat="45.87977849465161" lon="12.01399764300927"><ele>212.0</ele><time>2026-04-25T08:36:16.997Z</time></trkpt><trkpt lat="45.87966523639763" lon="12.01403438620222"><ele>212.0</ele><time>2026-04-25T08:36:18.997Z</time></trkpt><trkpt lat="45.87959872875664" lon="12.013961355360998"><ele>212.0</ele><time>2026-04-25T08:36:19.997Z</time></trkpt><trkpt lat="45.879549671447506" lon="12.01404358447797"><ele>212.0</ele><time>2026-04-25T08:36:20.997Z</time></trkpt><trkpt lat="45.879438331179884" lon="12.014096189218195"><ele>212.0</ele><time>2026-04-25T08:36:23Z</time></trkpt><trkpt lat="45.87933552974763" lon="12.014173398420299"><ele>212.0</ele><time>2026-04-25T08:36:25Z</time></trkpt><trkpt lat="45.87930621853632" lon="12.014335601438626"><ele>212.39999999999998</ele><time>2026-04-25T08:36:27Z</time></trkpt><trkpt lat="45.87927436092326" lon="12.014471116765321"><ele>212.79999999999998</ele><time>2026-04-25T08:36:29Z</time></trkpt><trkpt lat="45.8792549255881" lon="12.014623961662524"><ele>213.2</ele><time>2026-04-25T08:36:31Z</time></trkpt><trkpt lat="45.8792447075187" lon="12.014715347078326"><ele>213.6</ele><time>2026-04-25T08:36:32Z</time></trkpt><trkpt lat="45.8792508246106" lon="12.014861945331283"><ele>214.0</ele><time>2026-04-25T08:36:34Z</time></trkpt><trkpt lat="45.87930190099475" lon="12.014987405830357"><ele>213.6</ele><time>2026-04-25T08:36:36Z</time></trkpt><trkpt lat="45.87936618356451" lon="12.015094210117766"><ele>213.2</ele><time>2026-04-25T08:36:38Z</time></trkpt><trkpt lat="45.87943203123103" lon="12.015214268380564"><ele>212.79999999999998</ele><time>2026-04-25T08:36:40Z</time></trkpt><trkpt lat="45.8795128655403" lon="12.01532711161229"><ele>212.39999999999998</ele><time>2026-04-25T08:36:42Z</time></trkpt><trkpt lat="45.87955818410402" lon="12.015390250664534"><ele>212.0</ele><time>2026-04-25T08:36:43Z</time></trkpt><trkpt lat="45.87964568131915" lon="12.015496316226486"><ele>212.0</ele><time>2026-04-25T08:36:45Z</time></trkpt><trkpt lat="45.87972856453621" lon="12.015608063008395"><ele>212.0</ele><time>2026-04-25T08:36:47Z</time></trkpt><trkpt lat="45.8797929137865" lon="12.01573971984022"><ele>212.0</ele><time>2026-04-25T08:36:49Z</time></trkpt><trkpt lat="45.87979162597865" lon="12.01590304524298"><ele>212.0</ele><time>2026-04-25T08:36:51Z</time></trkpt><trkpt lat="45.87976379266674" lon="12.016045753139718"><ele>212.0</ele><time>2026-04-25T08:36:53Z</time></trkpt><trkpt lat="45.8797202816568" lon="12.016170655642968"><ele>211.75</ele><time>2026-04-25T08:36:55Z</time></trkpt><trkpt lat="45.879659366080766" lon="12.01629707486543"><ele>211.5</ele><time>2026-04-25T08:36:57Z</time></trkpt><trkpt lat="45.87957650877512" lon="12.016397545893337"><ele>211.25</ele><time>2026-04-25T08:36:59Z</time></trkpt><trkpt lat="45.87948205569352" lon="12.016491093058756"><ele>211.0</ele><time>2026-04-25T08:37:01Z</time></trkpt><trkpt lat="45.879370018063966" lon="12.01655786387702"><ele>211.49999999999997</ele><time>2026-04-25T08:37:03Z</time></trkpt><trkpt lat="45.879281426599974" lon="12.01667308378487"><ele>212.0</ele><time>2026-04-25T08:37:05Z</time></trkpt><trkpt lat="45.879226327743034" lon="12.01671762179603"><ele>212.5</ele><time>2026-04-25T08:37:05.999Z</time></trkpt><trkpt lat="45.8791761511102" lon="12.016772258247345"><ele>213.0</ele><time>2026-04-25T08:37:06.999Z</time></trkpt><trkpt lat="45.879081114383375" lon="12.016880342961802"><ele>213.49999999999997</ele><time>2026-04-25T08:37:08.999Z</time></trkpt><trkpt lat="45.879036442456254" lon="12.01694448515211"><ele>214.0</ele><time>2026-04-25T08:37:09.999Z</time></trkpt><trkpt lat="45.878988301208985" lon="12.017009092502429"><ele>212.5</ele><time>2026-04-25T08:37:10.999Z</time></trkpt><trkpt lat="45.878899294913374" lon="12.017129543969588"><ele>211.0</ele><time>2026-04-25T08:37:12.999Z</time></trkpt><trkpt lat="45.878808126132284" lon="12.017248169506022"><ele>209.5</ele><time>2026-04-25T08:37:14.999Z</time></trkpt><trkpt lat="45.87872448257389" lon="12.017376846329917"><ele>208.0</ele><time>2026-04-25T08:37:16.999Z</time></trkpt><trkpt lat="45.87868211357141" lon="12.017521377447798"><ele>208.0</ele><time>2026-04-25T08:37:18.999Z</time></trkpt><trkpt lat="45.87870817746908" lon="12.017676384386927"><ele>208.0</ele><time>2026-04-25T08:37:20.999Z</time></trkpt><trkpt lat="45.878772297203724" lon="12.017791098040894"><ele>208.0</ele><time>2026-04-25T08:37:22.999Z</time></trkpt><trkpt lat="45.87882631344479" lon="12.01790351766266"><ele>208.0</ele><time>2026-04-25T08:37:24.999Z</time></trkpt><trkpt lat="45.8788757582844" lon="12.018016616493952"><ele>208.0</ele><time>2026-04-25T08:37:26.999Z</time></trkpt><trkpt lat="45.87892506067339" lon="12.018121178207577"><ele>208.0</ele><time>2026-04-25T08:37:28.999Z</time></trkpt><trkpt lat="45.87897894378688" lon="12.018230565798229"><ele>208.0</ele><time>2026-04-25T08:37:30.999Z</time></trkpt><trkpt lat="45.87902830922339" lon="12.018357159584165"><ele>208.0</ele><time>2026-04-25T08:37:32.999Z</time></trkpt><trkpt lat="45.879057729314276" lon="12.018500492771556"><ele>208.0</ele><time>2026-04-25T08:37:34.999Z</time></trkpt><trkpt lat="45.87904828330624" lon="12.018638305280144"><ele>208.0</ele><time>2026-04-25T08:37:36.999Z</time></trkpt><trkpt lat="45.878944499053006" lon="12.018713375195134"><ele>207.33333333333331</ele><time>2026-04-25T08:37:38.999Z</time></trkpt><trkpt lat="45.878901006850306" lon="12.018781977423874"><ele>206.66666666666666</ele><time>2026-04-25T08:37:39.999Z</time></trkpt><trkpt lat="45.87882665937325" lon="12.018810615347055"><ele>206.0</ele><time>2026-04-25T08:37:40.999Z</time></trkpt><trkpt lat="45.87870238769386" lon="12.01888204509624"><ele>205.33333333333331</ele><time>2026-04-25T08:37:42.999Z</time></trkpt><trkpt lat="45.87862472379042" lon="12.018920845544825"><ele>204.66666666666666</ele><time>2026-04-25T08:37:43.999Z</time></trkpt><trkpt lat="45.87854353600428" lon="12.018958022374735"><ele>204.0</ele><time>2026-04-25T08:37:44.999Z</time></trkpt><trkpt lat="45.87845579414979" lon="12.018998177001139"><ele>204.0</ele><time>2026-04-25T08:37:45.999Z</time></trkpt><trkpt lat="45.87835460840689" lon="12.019040132693263"><ele>204.0</ele><time>2026-04-25T08:37:46.999Z</time></trkpt><trkpt lat="45.878255762009886" lon="12.019080415651887"><ele>204.0</ele><time>2026-04-25T08:37:47.999Z</time></trkpt><trkpt lat="45.87816401377101" lon="12.019123249766055"><ele>204.0</ele><time>2026-04-25T08:37:48.999Z</time></trkpt><trkpt lat="45.878096218197996" lon="12.019183204066847"><ele>204.0</ele><time>2026-04-25T08:37:49.998Z</time></trkpt><trkpt lat="45.87802642997872" lon="12.019223306442159"><ele>202.83333333333334</ele><time>2026-04-25T08:37:50.998Z</time></trkpt><trkpt lat="45.87795160964612" lon="12.019277182791718"><ele>201.66666666666669</ele><time>2026-04-25T08:37:51.998Z</time></trkpt><trkpt lat="45.877889211208156" lon="12.019350498537682"><ele>200.5</ele><time>2026-04-25T08:37:52.998Z</time></trkpt><trkpt lat="45.87782504115915" lon="12.019417815265776"><ele>199.33333333333334</ele><time>2026-04-25T08:37:53.998Z</time></trkpt><trkpt lat="45.87776584420452" lon="12.019482054238601"><ele>198.16666666666669</ele><time>2026-04-25T08:37:54.998Z</time></trkpt><trkpt lat="45.87770365531371" lon="12.019550554360153"><ele>197.0</ele><time>2026-04-25T08:37:55.998Z</time></trkpt><trkpt lat="45.87762917598278" lon="12.019588715734317"><ele>197.00000000000003</ele><time>2026-04-25T08:37:56.998Z</time></trkpt><trkpt lat="45.87755608112655" lon="12.019634620559629"><ele>197.0</ele><time>2026-04-25T08:37:57.998Z</time></trkpt><trkpt lat="45.877480605281214" lon="12.019677968013387"><ele>197.0</ele><time>2026-04-25T08:37:58.998Z</time></trkpt><trkpt lat="45.87739785450588" lon="12.01971984272776"><ele>197.0</ele><time>2026-04-25T08:37:59.998Z</time></trkpt><trkpt lat="45.87731277889717" lon="12.019756623865343"><ele>197.00000000000003</ele><time>2026-04-25T08:38:00.998Z</time></trkpt><trkpt lat="45.87723202332067" lon="12.01978589239707"><ele>197.0</ele><time>2026-04-25T08:38:01.998Z</time></trkpt><trkpt lat="45.877153957857374" lon="12.01982820298524"><ele>197.00000000000003</ele><time>2026-04-25T08:38:02.998Z</time></trkpt><trkpt lat="45.87706036558692" lon="12.019859987603233"><ele>197.0</ele><time>2026-04-25T08:38:03.998Z</time></trkpt><trkpt lat="45.87697124031681" lon="12.019891266198428"><ele>197.0</ele><time>2026-04-25T08:38:04.998Z</time></trkpt><trkpt lat="45.876889016085954" lon="12.019919828518999"><ele>197.0</ele><time>2026-04-25T08:38:05.998Z</time></trkpt><trkpt lat="45.876805879696235" lon="12.019944306430247"><ele>197.00000000000003</ele><time>2026-04-25T08:38:06.998Z</time></trkpt><trkpt lat="45.876725375104506" lon="12.019969028230545"><ele>197.0</ele><time>2026-04-25T08:38:07.998Z</time></trkpt><trkpt lat="45.87665598501456" lon="12.019937075975674"><ele>196.33333333333334</ele><time>2026-04-25T08:38:08.998Z</time></trkpt><trkpt lat="45.87654540779985" lon="12.019919309897583"><ele>195.66666666666669</ele><time>2026-04-25T08:38:10.998Z</time></trkpt><trkpt lat="45.87647044236393" lon="12.019897426877504"><ele>195.0</ele><time>2026-04-25T08:38:12.998Z</time></trkpt><trkpt lat="45.87640736328514" lon="12.019873165737943"><ele>194.33333333333331</ele><time>2026-04-25T08:38:23.998Z</time></trkpt><trkpt lat="45.876474908368166" lon="12.019899000231158"><ele>193.66666666666666</ele><time>2026-04-25T08:38:31Z</time></trkpt><trkpt lat="45.876552302861185" lon="12.019920582101298"><ele>193.0</ele><time>2026-04-25T08:38:36Z</time></trkpt><trkpt lat="45.87661687280942" lon="12.019930975271498"><ele>192.99999999999997</ele><time>2026-04-25T08:38:39Z</time></trkpt><trkpt lat="45.87668571049617" lon="12.01993958889257"><ele>193.0</ele><time>2026-04-25T08:38:42Z</time></trkpt><trkpt lat="45.87675813493737" lon="12.019943188556342"><ele>193.0</ele><time>2026-04-25T08:38:45Z</time></trkpt><trkpt lat="45.8768219461952" lon="12.019934473982419"><ele>193.0</ele><time>2026-04-25T08:38:48Z</time></trkpt><trkpt lat="45.876891914317596" lon="12.019960790294316"><ele>192.99999999999997</ele><time>2026-04-25T08:38:53Z</time></trkpt><trkpt lat="45.87688874004987" lon="12.02011677735725"><ele>193.0</ele><time>2026-04-25T08:49:08Z</time></trkpt><trkpt lat="45.876888149763516" lon="12.020222094075987"><ele>192.66666666666666</ele><time>2026-04-25T08:49:10Z</time></trkpt><trkpt lat="45.87687220353833" lon="12.020337813950515"><ele>192.33333333333331</ele><time>2026-04-25T08:49:12Z</time></trkpt><trkpt lat="45.87684555760322" lon="12.020465302008487"><ele>192.0</ele><time>2026-04-25T08:49:14Z</time></trkpt><trkpt lat="45.87682415555448" lon="12.020617066038826"><ele>191.66666666666666</ele><time>2026-04-25T08:49:16Z</time></trkpt><trkpt lat="45.876806183159246" lon="12.02070655661497"><ele>191.33333333333331</ele><time>2026-04-25T08:49:17Z</time></trkpt><trkpt lat="45.87678087720751" lon="12.020795747323783"><ele>191.0</ele><time>2026-04-25T08:49:18Z</time></trkpt><trkpt lat="45.87675184007726" lon="12.020876153496287"><ele>190.4</ele><time>2026-04-25T08:49:19Z</time></trkpt><trkpt lat="45.87671593361879" lon="12.020955010490477"><ele>189.8</ele><time>2026-04-25T08:49:20Z</time></trkpt><trkpt lat="45.87664150022933" lon="12.021093720204874"><ele>189.20000000000002</ele><time>2026-04-25T08:49:21.999Z</time></trkpt><trkpt lat="45.87656704410438" lon="12.021215222243242"><ele>188.60000000000002</ele><time>2026-04-25T08:49:23.999Z</time></trkpt><trkpt lat="45.876493910647866" lon="12.021324715002036"><ele>188.0</ele><time>2026-04-25T08:49:25.999Z</time></trkpt><trkpt lat="45.87644883571121" lon="12.021407933385495"><ele>188.0</ele><time>2026-04-25T08:49:27.999Z</time></trkpt><trkpt lat="45.876482281162446" lon="12.021506507826025"><ele>188.0</ele><time>2026-04-25T08:49:31.999Z</time></trkpt><trkpt lat="45.87655409964619" lon="12.02148286376717"><ele>188.0</ele><time>2026-04-25T08:49:34.999Z</time></trkpt><trkpt lat="45.87649131888361" lon="12.021467408734317"><ele>188.0</ele><time>2026-04-25T08:49:44.999Z</time></trkpt><trkpt lat="45.87634350562712" lon="12.021505708218761"><ele>188.0</ele><time>2026-04-25T08:49:51.999Z</time></trkpt><trkpt lat="45.876251100371334" lon="12.021599200833093"><ele>187.2</ele><time>2026-04-25T08:49:54.999Z</time></trkpt><trkpt lat="45.876150559482205" lon="12.021658427807859"><ele>186.4</ele><time>2026-04-25T08:49:56.999Z</time></trkpt><trkpt lat="45.87606291411102" lon="12.02176120176651"><ele>185.6</ele><time>2026-04-25T08:49:58.999Z</time></trkpt><trkpt lat="45.875982256319496" lon="12.02186403216048"><ele>184.79999999999998</ele><time>2026-04-25T08:50:00.999Z</time></trkpt><trkpt lat="45.87593427507475" lon="12.02201307253001"><ele>184.0</ele><time>2026-04-25T08:50:02.999Z</time></trkpt><trkpt lat="45.875965188748395" lon="12.022172510181013"><ele>184.0</ele><time>2026-04-25T08:50:04.999Z</time></trkpt><trkpt lat="45.876076881929826" lon="12.022247867878171"><ele>184.0</ele><time>2026-04-25T08:50:06.998Z</time></trkpt><trkpt lat="45.876188090850015" lon="12.022328960698907"><ele>184.0</ele><time>2026-04-25T08:50:08.998Z</time></trkpt><trkpt lat="45.876234740471126" lon="12.022396050826083"><ele>184.0</ele><time>2026-04-25T08:50:09.998Z</time></trkpt><trkpt lat="45.876289019199426" lon="12.022565587132005"><ele>184.0</ele><time>2026-04-25T08:50:11.998Z</time></trkpt><trkpt lat="45.87629554663151" lon="12.02266616470877"><ele>182.79999999999998</ele><time>2026-04-25T08:50:12.998Z</time></trkpt><trkpt lat="45.876283388060465" lon="12.02276175176927"><ele>181.6</ele><time>2026-04-25T08:50:13.998Z</time></trkpt><trkpt lat="45.876268509511846" lon="12.022943847992064"><ele>180.4</ele><time>2026-04-25T08:50:15.998Z</time></trkpt><trkpt lat="45.8763224673586" lon="12.023088220074852"><ele>179.2</ele><time>2026-04-25T08:50:17.998Z</time></trkpt><trkpt lat="45.87640120765381" lon="12.023202561388944"><ele>178.0</ele><time>2026-04-25T08:50:19.998Z</time></trkpt><trkpt lat="45.87648420678474" lon="12.023295504598611"><ele>177.2</ele><time>2026-04-25T08:50:21.998Z</time></trkpt><trkpt lat="45.87651284993622" lon="12.023416306806661"><ele>176.4</ele><time>2026-04-25T08:50:23.998Z</time></trkpt><trkpt lat="45.876476610533864" lon="12.023563596316336"><ele>175.6</ele><time>2026-04-25T08:50:25.998Z</time></trkpt><trkpt lat="45.876434762913" lon="12.023691379677139"><ele>174.79999999999998</ele><time>2026-04-25T08:50:27.998Z</time></trkpt><trkpt lat="45.87639923544404" lon="12.023816374058503"><ele>174.0</ele><time>2026-04-25T08:50:29.998Z</time></trkpt><trkpt lat="45.876347357325265" lon="12.023932270928533"><ele>174.0</ele><time>2026-04-25T08:50:31.998Z</time></trkpt><trkpt lat="45.87629926722724" lon="12.023996585013451"><ele>174.0</ele><time>2026-04-25T08:50:33.998Z</time></trkpt><trkpt lat="45.87635721332231" lon="12.023902989193587"><ele>174.0</ele><time>2026-04-25T08:50:45.998Z</time></trkpt><trkpt lat="45.87639869456953" lon="12.023800592403758"><ele>174.0</ele><time>2026-04-25T08:50:48.997Z</time></trkpt><trkpt lat="45.87643012709791" lon="12.02366892143234"><ele>174.0</ele><time>2026-04-25T08:50:51.997Z</time></trkpt><trkpt lat="45.87645498164172" lon="12.02354642661478"><ele>174.0</ele><time>2026-04-25T08:50:54.997Z</time></trkpt><trkpt lat="45.87651117237704" lon="12.023461957836826"><ele>174.0</ele><time>2026-04-25T08:50:57.997Z</time></trkpt><trkpt lat="45.876598428057065" lon="12.023482729129856"><ele>174.0</ele><time>2026-04-25T08:50:59.997Z</time></trkpt><trkpt lat="45.876664409677055" lon="12.02358092189192"><ele>174.0</ele><time>2026-04-25T08:51:01.997Z</time></trkpt><trkpt lat="45.87673672068218" lon="12.02365856328613"><ele>174.0</ele><time>2026-04-25T08:51:04Z</time></trkpt><trkpt lat="45.876815702029624" lon="12.023737861269595"><ele>174.0</ele><time>2026-04-25T08:51:06Z</time></trkpt><trkpt lat="45.876888169610076" lon="12.023832114951835"><ele>174.16666666666666</ele><time>2026-04-25T08:51:08Z</time></trkpt><trkpt lat="45.87695800805847" lon="12.023943295471138"><ele>174.33333333333334</ele><time>2026-04-25T08:51:10Z</time></trkpt><trkpt lat="45.877021169044916" lon="12.024042064127869"><ele>174.5</ele><time>2026-04-25T08:51:12Z</time></trkpt><trkpt lat="45.877072830204945" lon="12.024131501130721"><ele>174.66666666666669</ele><time>2026-04-25T08:51:14Z</time></trkpt><trkpt lat="45.8771243029607" lon="12.024231984838153"><ele>174.83333333333334</ele><time>2026-04-25T08:51:16Z</time></trkpt><trkpt lat="45.87716172687628" lon="12.02433075018583"><ele>175.0</ele><time>2026-04-25T08:51:18Z</time></trkpt><trkpt lat="45.87718700138448" lon="12.02442456496619"><ele>174.5</ele><time>2026-04-25T08:51:21Z</time></trkpt><trkpt lat="45.87723705956758" lon="12.024505278514175"><ele>174.0</ele><time>2026-04-25T08:51:24Z</time></trkpt><trkpt lat="45.877276431935016" lon="12.02461031437301"><ele>173.5</ele><time>2026-04-25T08:51:26Z</time></trkpt><trkpt lat="45.8773145694686" lon="12.024710266529247"><ele>173.0</ele><time>2026-04-25T08:51:28Z</time></trkpt><trkpt lat="45.877332379167655" lon="12.024807947451952"><ele>172.5</ele><time>2026-04-25T08:51:31Z</time></trkpt><trkpt lat="45.877311716829276" lon="12.024945062545992"><ele>172.0</ele><time>2026-04-25T08:51:35Z</time></trkpt><trkpt lat="45.877324848456226" lon="12.025044427112002"><ele>171.33333333333334</ele><time>2026-04-25T08:51:39.999Z</time></trkpt><trkpt lat="45.87735791633721" lon="12.02514598550259"><ele>170.66666666666669</ele><time>2026-04-25T08:51:44.999Z</time></trkpt><trkpt lat="45.87741835233776" lon="12.025211249459463"><ele>170.0</ele><time>2026-04-25T08:51:48.999Z</time></trkpt><trkpt lat="45.877470458063435" lon="12.025273531413022"><ele>169.33333333333334</ele><time>2026-04-25T08:51:52.999Z</time></trkpt><trkpt lat="45.87751677722698" lon="12.025356632665634"><ele>168.66666666666666</ele><time>2026-04-25T08:51:56.999Z</time></trkpt><trkpt lat="45.877551941196614" lon="12.02547046519161"><ele>168.0</ele><time>2026-04-25T08:52:00.999Z</time></trkpt><trkpt lat="45.87756606206677" lon="12.025578552318406"><ele>168.0</ele><time>2026-04-25T08:52:04.999Z</time></trkpt><trkpt lat="45.87758581876322" lon="12.0257029183168"><ele>168.0</ele><time>2026-04-25T08:52:08.999Z</time></trkpt><trkpt lat="45.87760112869273" lon="12.025808803671548"><ele>168.0</ele><time>2026-04-25T08:52:11.999Z</time></trkpt><trkpt lat="45.87762954125884" lon="12.02591404275193"><ele>168.0</ele><time>2026-04-25T08:52:15.999Z</time></trkpt><trkpt lat="45.8776614006256" lon="12.025997026721043"><ele>168.0</ele><time>2026-04-25T08:52:19.999Z</time></trkpt><trkpt lat="45.87769932905414" lon="12.02608474693057"><ele>168.0</ele><time>2026-04-25T08:52:23.998Z</time></trkpt><trkpt lat="45.87772920864137" lon="12.02616527154358"><ele>168.0</ele><time>2026-04-25T08:52:27.998Z</time></trkpt><trkpt lat="45.87782593549432" lon="12.0261727352974"><ele>168.0</ele><time>2026-04-25T08:52:29.998Z</time></trkpt><trkpt lat="45.877842688735576" lon="12.026264879364826"><ele>168.0</ele><time>2026-04-25T08:52:34.998Z</time></trkpt><trkpt lat="45.877862109584065" lon="12.026364631489695"><ele>168.0</ele><time>2026-04-25T08:52:40.998Z</time></trkpt><trkpt lat="45.87790899108545" lon="12.026454946346595"><ele>168.0</ele><time>2026-04-25T08:52:44.998Z</time></trkpt><trkpt lat="45.877965672621166" lon="12.026572582976899"><ele>168.0</ele><time>2026-04-25T08:52:47.998Z</time></trkpt><trkpt lat="45.87800599260337" lon="12.026656263167343"><ele>168.0</ele><time>2026-04-25T08:52:49.998Z</time></trkpt><trkpt lat="45.87804979070798" lon="12.026740000118323"><ele>168.0</ele><time>2026-04-25T08:52:51.998Z</time></trkpt><trkpt lat="45.87811445336107" lon="12.026798395439144"><ele>168.0</ele><time>2026-04-25T08:52:53.998Z</time></trkpt><trkpt lat="45.87816032752664" lon="12.026881065343277"><ele>168.0</ele><time>2026-04-25T08:52:56.998Z</time></trkpt><trkpt lat="45.87822959968215" lon="12.026958629013793"><ele>168.0</ele><time>2026-04-25T08:52:59.998Z</time></trkpt><trkpt lat="45.878305188007715" lon="12.02699296948796"><ele>168.0</ele><time>2026-04-25T08:53:01.998Z</time></trkpt><trkpt lat="45.87837541256895" lon="12.027055247776223"><ele>168.0</ele><time>2026-04-25T08:53:03.998Z</time></trkpt><trkpt lat="45.87844673047388" lon="12.027140552852277"><ele>167.8</ele><time>2026-04-25T08:53:05.998Z</time></trkpt><trkpt lat="45.878526700566134" lon="12.027234912299031"><ele>167.60000000000002</ele><time>2026-04-25T08:53:07.997Z</time></trkpt><trkpt lat="45.87861475093736" lon="12.027334041463845"><ele>167.39999999999998</ele><time>2026-04-25T08:53:10Z</time></trkpt><trkpt lat="45.87870593511722" lon="12.027430047100669"><ele>167.2</ele><time>2026-04-25T08:53:12Z</time></trkpt><trkpt lat="45.87879328147591" lon="12.027537216477402"><ele>167.0</ele><time>2026-04-25T08:53:14Z</time></trkpt><trkpt lat="45.87888388021398" lon="12.027649397351347"><ele>167.0</ele><time>2026-04-25T08:53:16Z</time></trkpt><trkpt lat="45.87893500343222" lon="12.027703450926136"><ele>167.0</ele><time>2026-04-25T08:53:17Z</time></trkpt><trkpt lat="45.87898770325891" lon="12.027760692470197"><ele>167.0</ele><time>2026-04-25T08:53:18Z</time></trkpt><trkpt lat="45.879042635385126" lon="12.027816004979535"><ele>167.0</ele><time>2026-04-25T08:53:19Z</time></trkpt><trkpt lat="45.87910334836171" lon="12.027864527513515"><ele>167.0</ele><time>2026-04-25T08:53:20Z</time></trkpt><trkpt lat="45.87917086227656" lon="12.027908286678056"><ele>167.0</ele><time>2026-04-25T08:53:21Z</time></trkpt><trkpt lat="45.879241550105" lon="12.027945349615528"><ele>167.0</ele><time>2026-04-25T08:53:22Z</time></trkpt><trkpt lat="45.879320752656064" lon="12.027963470438875"><ele>167.0</ele><time>2026-04-25T08:53:23Z</time></trkpt><trkpt lat="45.87940191263904" lon="12.027978073705956"><ele>167.0</ele><time>2026-04-25T08:53:24Z</time></trkpt><trkpt lat="45.87948584554318" lon="12.02798475128637"><ele>167.0</ele><time>2026-04-25T08:53:25Z</time></trkpt><trkpt lat="45.87957109140155" lon="12.027997327180227"><ele>167.0</ele><time>2026-04-25T08:53:26Z</time></trkpt><trkpt lat="45.87965669573069" lon="12.028006056622962"><ele>167.0</ele><time>2026-04-25T08:53:27Z</time></trkpt><trkpt lat="45.87974370815865" lon="12.028012967780732"><ele>167.0</ele><time>2026-04-25T08:53:28Z</time></trkpt><trkpt lat="45.879829506077414" lon="12.028016820586817"><ele>167.0</ele><time>2026-04-25T08:53:29Z</time></trkpt><trkpt lat="45.87991422770435" lon="12.028020581575449"><ele>167.0</ele><time>2026-04-25T08:53:30Z</time></trkpt><trkpt lat="45.87999491135654" lon="12.028026006859456"><ele>167.0</ele><time>2026-04-25T08:53:31Z</time></trkpt><trkpt lat="45.88007278106924" lon="12.028031886959738"><ele>167.0</ele><time>2026-04-25T08:53:32Z</time></trkpt><trkpt lat="45.88014836111963" lon="12.0280414684707"><ele>167.0</ele><time>2026-04-25T08:53:33Z</time></trkpt><trkpt lat="45.88022036696261" lon="12.028053422557942"><ele>167.0</ele><time>2026-04-25T08:53:34Z</time></trkpt><trkpt lat="45.88029043077634" lon="12.028058460376545"><ele>167.16666666666666</ele><time>2026-04-25T08:53:35Z</time></trkpt><trkpt lat="45.88035715551228" lon="12.028068729780422"><ele>167.33333333333331</ele><time>2026-04-25T08:53:36Z</time></trkpt><trkpt lat="45.88042142650619" lon="12.028082276551583"><ele>167.5</ele><time>2026-04-25T08:53:37Z</time></trkpt><trkpt lat="45.88048783926496" lon="12.028091011832872"><ele>167.66666666666666</ele><time>2026-04-25T08:53:38Z</time></trkpt><trkpt lat="45.88055283910927" lon="12.028098071879189"><ele>167.83333333333334</ele><time>2026-04-25T08:53:39Z</time></trkpt><trkpt lat="45.88061606741951" lon="12.028104937670502"><ele>168.0</ele><time>2026-04-25T08:53:40Z</time></trkpt><trkpt lat="45.88074225304111" lon="12.028111080332426"><ele>168.0</ele><time>2026-04-25T08:53:42Z</time></trkpt><trkpt lat="45.88080576651007" lon="12.02811457984462"><ele>168.0</ele><time>2026-04-25T08:53:43Z</time></trkpt><trkpt lat="45.88093060784003" lon="12.028120562780108"><ele>168.0</ele><time>2026-04-25T08:53:45Z</time></trkpt><trkpt lat="45.88104777736993" lon="12.028127303866315"><ele>168.0</ele><time>2026-04-25T08:53:47Z</time></trkpt><trkpt lat="45.88115708804363" lon="12.028147454276551"><ele>168.0</ele><time>2026-04-25T08:53:49Z</time></trkpt><trkpt lat="45.8812527221063" lon="12.028171053712606"><ele>167.66666666666666</ele><time>2026-04-25T08:53:51Z</time></trkpt><trkpt lat="45.88133235591656" lon="12.02820060733333"><ele>167.33333333333334</ele><time>2026-04-25T08:53:53Z</time></trkpt><trkpt lat="45.881399648173804" lon="12.028250454387537"><ele>167.0</ele><time>2026-04-25T08:53:55Z</time></trkpt><trkpt lat="45.8814599384004" lon="12.028319169861051"><ele>166.66666666666669</ele><time>2026-04-25T08:53:56.999Z</time></trkpt><trkpt lat="45.881507746603894" lon="12.02841512773636"><ele>166.33333333333334</ele><time>2026-04-25T08:53:58.999Z</time></trkpt><trkpt lat="45.88154457369993" lon="12.028523824909822"><ele>166.0</ele><time>2026-04-25T08:54:00.999Z</time></trkpt><trkpt lat="45.88158850201184" lon="12.02863068102205"><ele>166.0</ele><time>2026-04-25T08:54:02.999Z</time></trkpt><trkpt lat="45.881635876235244" lon="12.028737520686342"><ele>166.0</ele><time>2026-04-25T08:54:04.999Z</time></trkpt><trkpt lat="45.88167983399897" lon="12.028848877021495"><ele>166.0</ele><time>2026-04-25T08:54:06.999Z</time></trkpt><trkpt lat="45.881735557228495" lon="12.02895139474898"><ele>166.0</ele><time>2026-04-25T08:54:08.999Z</time></trkpt><trkpt lat="45.88180334229833" lon="12.029045175500945"><ele>166.0</ele><time>2026-04-25T08:54:10.999Z</time></trkpt><trkpt lat="45.88188727586605" lon="12.029115414939103"><ele>166.75</ele><time>2026-04-25T08:54:12.999Z</time></trkpt><trkpt lat="45.88198496123405" lon="12.029168352736672"><ele>167.5</ele><time>2026-04-25T08:54:14.999Z</time></trkpt><trkpt lat="45.88209033114591" lon="12.029217647767272"><ele>168.25</ele><time>2026-04-25T08:54:16.999Z</time></trkpt><trkpt lat="45.8822059924264" lon="12.0292536700167"><ele>169.0</ele><time>2026-04-25T08:54:18.999Z</time></trkpt><trkpt lat="45.88232350863419" lon="12.029292193103343"><ele>169.0</ele><time>2026-04-25T08:54:20.999Z</time></trkpt><trkpt lat="45.88244119336166" lon="12.029338257561886"><ele>169.0</ele><time>2026-04-25T08:54:22.999Z</time></trkpt><trkpt lat="45.88255910038256" lon="12.029390497773674"><ele>169.0</ele><time>2026-04-25T08:54:24.999Z</time></trkpt><trkpt lat="45.88266497431781" lon="12.029454005482439"><ele>169.0</ele><time>2026-04-25T08:54:26.999Z</time></trkpt><trkpt lat="45.88273014993363" lon="12.02950641213262"><ele>169.0</ele><time>2026-04-25T08:54:27.999Z</time></trkpt><trkpt lat="45.882827243745346" lon="12.029640001345173"><ele>169.0</ele><time>2026-04-25T08:54:29.999Z</time></trkpt><trkpt lat="45.88286753861079" lon="12.029714250847263"><ele>169.0</ele><time>2026-04-25T08:54:30.999Z</time></trkpt><trkpt lat="45.88290614583526" lon="12.02978774101386"><ele>169.0</ele><time>2026-04-25T08:54:31.999Z</time></trkpt><trkpt lat="45.88297861940585" lon="12.029931413738026"><ele>169.0</ele><time>2026-04-25T08:54:33.999Z</time></trkpt><trkpt lat="45.88304641233847" lon="12.030068229191489"><ele>169.0</ele><time>2026-04-25T08:54:35.999Z</time></trkpt><trkpt lat="45.88311500590722" lon="12.03019679140219"><ele>169.2</ele><time>2026-04-25T08:54:37.999Z</time></trkpt><trkpt lat="45.883177967926194" lon="12.030322274480028"><ele>169.39999999999998</ele><time>2026-04-25T08:54:39.998Z</time></trkpt><trkpt lat="45.88324045282985" lon="12.030441860465475"><ele>169.6</ele><time>2026-04-25T08:54:41.998Z</time></trkpt><trkpt lat="45.88329431131197" lon="12.03055993141054"><ele>169.8</ele><time>2026-04-25T08:54:43.998Z</time></trkpt><trkpt lat="45.88334665364396" lon="12.030671979139795"><ele>170.0</ele><time>2026-04-25T08:54:45.998Z</time></trkpt><trkpt lat="45.88339555839087" lon="12.03077637138835"><ele>170.0</ele><time>2026-04-25T08:54:47.998Z</time></trkpt><trkpt lat="45.883444270484844" lon="12.030871898901095"><ele>170.0</ele><time>2026-04-25T08:54:49.998Z</time></trkpt><trkpt lat="45.88349523811237" lon="12.030958162957827"><ele>170.0</ele><time>2026-04-25T08:54:51.998Z</time></trkpt><trkpt lat="45.88354983380372" lon="12.031030979029495"><ele>170.0</ele><time>2026-04-25T08:54:53.998Z</time></trkpt><trkpt lat="45.88361116731947" lon="12.031085415029803"><ele>170.0</ele><time>2026-04-25T08:54:55.998Z</time></trkpt><trkpt lat="45.88367568405275" lon="12.031123612807475"><ele>170.0</ele><time>2026-04-25T08:54:57.998Z</time></trkpt><trkpt lat="45.883740009070955" lon="12.031156661491318"><ele>170.0</ele><time>2026-04-25T08:54:59.998Z</time></trkpt><trkpt lat="45.88380448863823" lon="12.031188149702736"><ele>170.0</ele><time>2026-04-25T08:55:01.998Z</time></trkpt><trkpt lat="45.883869868591304" lon="12.03121027586305"><ele>170.0</ele><time>2026-04-25T08:55:03.998Z</time></trkpt><trkpt lat="45.883933170391394" lon="12.031237802229658"><ele>170.0</ele><time>2026-04-25T08:55:05.998Z</time></trkpt><trkpt lat="45.88399511009778" lon="12.03126124031077"><ele>170.0</ele><time>2026-04-25T08:55:07.998Z</time></trkpt><trkpt lat="45.8840589909982" lon="12.0312796103203"><ele>170.0</ele><time>2026-04-25T08:55:09.998Z</time></trkpt><trkpt lat="45.88412572535188" lon="12.031298203549191"><ele>170.0</ele><time>2026-04-25T08:55:11.998Z</time></trkpt><trkpt lat="45.884194260588565" lon="12.031311760383595"><ele>170.0</ele><time>2026-04-25T08:55:13.998Z</time></trkpt><trkpt lat="45.88426330592415" lon="12.03130794514632"><ele>170.42857142857144</ele><time>2026-04-25T08:55:16.001Z</time></trkpt><trkpt lat="45.884333561175524" lon="12.03130452695565"><ele>170.85714285714283</ele><time>2026-04-25T08:55:18.001Z</time></trkpt><trkpt lat="45.884405370055475" lon="12.031291066969532"><ele>171.28571428571428</ele><time>2026-04-25T08:55:20Z</time></trkpt><trkpt lat="45.88447595142383" lon="12.03127215415068"><ele>171.71428571428572</ele><time>2026-04-25T08:55:22Z</time></trkpt><trkpt lat="45.88454558452048" lon="12.031249832644518"><ele>172.14285714285717</ele><time>2026-04-25T08:55:24Z</time></trkpt><trkpt lat="45.88461560012449" lon="12.031230395474875"><ele>172.57142857142856</ele><time>2026-04-25T08:55:26Z</time></trkpt><trkpt lat="45.88468150136435" lon="12.031197222657644"><ele>173.0</ele><time>2026-04-25T08:55:28Z</time></trkpt><trkpt lat="45.884747887487904" lon="12.031165693552198"><ele>173.0</ele><time>2026-04-25T08:55:29.999Z</time></trkpt><trkpt lat="45.884811386044426" lon="12.031129413554538"><ele>173.0</ele><time>2026-04-25T08:55:31.999Z</time></trkpt><trkpt lat="45.884877797455786" lon="12.031101177641736"><ele>173.0</ele><time>2026-04-25T08:55:33.999Z</time></trkpt><trkpt lat="45.8849458297061" lon="12.031076319763903"><ele>173.0</ele><time>2026-04-25T08:55:35.999Z</time></trkpt><trkpt lat="45.88501621393808" lon="12.031065896736248"><ele>173.0</ele><time>2026-04-25T08:55:37.999Z</time></trkpt><trkpt lat="45.885088541938686" lon="12.03106385911546"><ele>173.0</ele><time>2026-04-25T08:55:39.999Z</time></trkpt><trkpt lat="45.88515976604953" lon="12.031076516294773"><ele>173.0</ele><time>2026-04-25T08:55:41.999Z</time></trkpt><trkpt lat="45.885228600825045" lon="12.031099498501552"><ele>173.66666666666666</ele><time>2026-04-25T08:55:43.999Z</time></trkpt><trkpt lat="45.88529573451733" lon="12.031124079700403"><ele>174.33333333333331</ele><time>2026-04-25T08:55:45.999Z</time></trkpt><trkpt lat="45.88536453672508" lon="12.03115848669258"><ele>175.0</ele><time>2026-04-25T08:55:47.999Z</time></trkpt><trkpt lat="45.8854367531956" lon="12.031191258570663"><ele>175.66666666666666</ele><time>2026-04-25T08:55:49.999Z</time></trkpt><trkpt lat="45.88551383225892" lon="12.031220394272832"><ele>176.33333333333334</ele><time>2026-04-25T08:55:51.999Z</time></trkpt><trkpt lat="45.88559143126901" lon="12.031260060869823"><ele>177.0</ele><time>2026-04-25T08:55:53.999Z</time></trkpt><trkpt lat="45.88567183627521" lon="12.031291434591548"><ele>177.0</ele><time>2026-04-25T08:55:55.999Z</time></trkpt><trkpt lat="45.88575604076907" lon="12.031326044193424"><ele>177.0</ele><time>2026-04-25T08:55:57.999Z</time></trkpt><trkpt lat="45.885843545103086" lon="12.031360236058436"><ele>177.0</ele><time>2026-04-25T08:55:59.999Z</time></trkpt><trkpt lat="45.88593359962129" lon="12.031399124204567"><ele>177.0</ele><time>2026-04-25T08:56:01.999Z</time></trkpt><trkpt lat="45.88602588480191" lon="12.03142321047875"><ele>177.0</ele><time>2026-04-25T08:56:03.999Z</time></trkpt><trkpt lat="45.88611804237761" lon="12.031452678520974"><ele>177.2</ele><time>2026-04-25T08:56:05.999Z</time></trkpt><trkpt lat="45.88621271646569" lon="12.03147947320284"><ele>177.39999999999998</ele><time>2026-04-25T08:56:07.999Z</time></trkpt><trkpt lat="45.88631203176214" lon="12.031498643644126"><ele>177.60000000000002</ele><time>2026-04-25T08:56:09.999Z</time></trkpt><trkpt lat="45.88641169911608" lon="12.031523299805585"><ele>177.8</ele><time>2026-04-25T08:56:11.999Z</time></trkpt><trkpt lat="45.88651264530753" lon="12.0315436152855"><ele>178.0</ele><time>2026-04-25T08:56:13.999Z</time></trkpt><trkpt lat="45.88661226740396" lon="12.031576839951365"><ele>178.0</ele><time>2026-04-25T08:56:15.998Z</time></trkpt><trkpt lat="45.886710539760294" lon="12.031604898111388"><ele>178.0</ele><time>2026-04-25T08:56:17.998Z</time></trkpt><trkpt lat="45.88680812495475" lon="12.031638546013884"><ele>178.0</ele><time>2026-04-25T08:56:19.998Z</time></trkpt><trkpt lat="45.886903880524315" lon="12.031676796097466"><ele>178.0</ele><time>2026-04-25T08:56:21.998Z</time></trkpt><trkpt lat="45.88699951114178" lon="12.03171590275202"><ele>178.0</ele><time>2026-04-25T08:56:23.998Z</time></trkpt><trkpt lat="45.887097928016516" lon="12.031754348682119"><ele>177.8</ele><time>2026-04-25T08:56:25.998Z</time></trkpt><trkpt lat="45.887192808861656" lon="12.031798654480287"><ele>177.60000000000002</ele><time>2026-04-25T08:56:27.998Z</time></trkpt><trkpt lat="45.887291705109874" lon="12.031843545545398"><ele>177.39999999999998</ele><time>2026-04-25T08:56:29.998Z</time></trkpt><trkpt lat="45.88738190008045" lon="12.031905321921853"><ele>177.2</ele><time>2026-04-25T08:56:31.998Z</time></trkpt><trkpt lat="45.887472681539876" lon="12.03195981854262"><ele>177.0</ele><time>2026-04-25T08:56:33.998Z</time></trkpt><trkpt lat="45.88756390155784" lon="12.03201665417818"><ele>176.5</ele><time>2026-04-25T08:56:35.998Z</time></trkpt><trkpt lat="45.88765403798079" lon="12.032076066231026"><ele>176.0</ele><time>2026-04-25T08:56:37.998Z</time></trkpt><trkpt lat="45.887744222533996" lon="12.032135474046362"><ele>175.5</ele><time>2026-04-25T08:56:39.998Z</time></trkpt><trkpt lat="45.88782447114461" lon="12.0321954082848"><ele>175.0</ele><time>2026-04-25T08:56:41.998Z</time></trkpt><trkpt lat="45.88789000041976" lon="12.03224250822844"><ele>174.5</ele><time>2026-04-25T08:56:43.998Z</time></trkpt><trkpt lat="45.88795653841551" lon="12.032299818505441"><ele>174.0</ele><time>2026-04-25T08:56:46.998Z</time></trkpt><trkpt lat="45.88802228110766" lon="12.032349275811795"><ele>174.0</ele><time>2026-04-25T08:56:51.998Z</time></trkpt><trkpt lat="45.88808349106008" lon="12.032416106264803"><ele>174.0</ele><time>2026-04-25T08:57:01.997Z</time></trkpt><trkpt lat="45.888132922555414" lon="12.032485318978848"><ele>174.0</ele><time>2026-04-25T08:57:08.997Z</time></trkpt><trkpt lat="45.888203393108135" lon="12.032488068147346"><ele>174.0</ele><time>2026-04-25T09:01:54Z</time></trkpt><trkpt lat="45.88826148643301" lon="12.032544890976883"><ele>174.0</ele><time>2026-04-25T09:01:59Z</time></trkpt><trkpt lat="45.88831225588022" lon="12.03261376364672"><ele>174.0</ele><time>2026-04-25T09:02:04Z</time></trkpt><trkpt lat="45.8883642072871" lon="12.032693594586437"><ele>174.0</ele><time>2026-04-25T09:02:09Z</time></trkpt><trkpt lat="45.88841614712619" lon="12.03276837911591"><ele>174.42857142857142</ele><time>2026-04-25T09:02:13Z</time></trkpt><trkpt lat="45.8884742471767" lon="12.032858245242462"><ele>174.85714285714286</ele><time>2026-04-25T09:02:17Z</time></trkpt><trkpt lat="45.888523710098745" lon="12.032931607443869"><ele>175.28571428571428</ele><time>2026-04-25T09:02:20Z</time></trkpt><trkpt lat="45.88857667743808" lon="12.032995866243711"><ele>175.71428571428572</ele><time>2026-04-25T09:02:22.999Z</time></trkpt><trkpt lat="45.88862962336268" lon="12.033065379314904"><ele>176.14285714285714</ele><time>2026-04-25T09:02:25.999Z</time></trkpt><trkpt lat="45.888666979114966" lon="12.033162027272432"><ele>176.57142857142858</ele><time>2026-04-25T09:02:28.999Z</time></trkpt><trkpt lat="45.88872072892583" lon="12.033213007853023"><ele>177.0</ele><time>2026-04-25T09:02:34.999Z</time></trkpt><trkpt lat="45.88885112905114" lon="12.033087221924356"><ele>177.0</ele><time>2026-04-25T09:02:36.999Z</time></trkpt><trkpt lat="45.88892572188004" lon="12.033081143856615"><ele>177.0</ele><time>2026-04-25T09:02:39.999Z</time></trkpt><trkpt lat="45.88899384260023" lon="12.033061056071658"><ele>177.0</ele><time>2026-04-25T09:02:42.999Z</time></trkpt><trkpt lat="45.88907932583123" lon="12.033042484548657"><ele>177.0</ele><time>2026-04-25T09:02:46.999Z</time></trkpt><trkpt lat="45.88914542190957" lon="12.033037900306004"><ele>177.0</ele><time>2026-04-25T09:02:49.999Z</time></trkpt><trkpt lat="45.88921341565909" lon="12.03303411626345"><ele>177.0</ele><time>2026-04-25T09:02:53.999Z</time></trkpt><trkpt lat="45.88928600187354" lon="12.033071321555987"><ele>177.0</ele><time>2026-04-25T09:02:57.999Z</time></trkpt><trkpt lat="45.88936393599125" lon="12.033110528410836"><ele>177.14285714285714</ele><time>2026-04-25T09:03:01.999Z</time></trkpt><trkpt lat="45.88942568785535" lon="12.033146363483954"><ele>177.28571428571428</ele><time>2026-04-25T09:03:04.998Z</time></trkpt><trkpt lat="45.88949549266558" lon="12.033201371932172"><ele>177.42857142857142</ele><time>2026-04-25T09:03:07.998Z</time></trkpt><trkpt lat="45.88956588536083" lon="12.0332310121299"><ele>177.57142857142856</ele><time>2026-04-25T09:03:10.998Z</time></trkpt><trkpt lat="45.889642408905985" lon="12.033275904565777"><ele>177.71428571428572</ele><time>2026-04-25T09:03:13.998Z</time></trkpt><trkpt lat="45.88970965632199" lon="12.033311059914258"><ele>177.85714285714283</ele><time>2026-04-25T09:03:16.998Z</time></trkpt><trkpt lat="45.88977696011654" lon="12.033349982459614"><ele>178.0</ele><time>2026-04-25T09:03:19.997Z</time></trkpt><trkpt lat="45.889845692450045" lon="12.033383024882895"><ele>178.99999999999997</ele><time>2026-04-25T09:03:22.997Z</time></trkpt><trkpt lat="45.88991794273576" lon="12.033409863432164"><ele>180.0</ele><time>2026-04-25T09:03:25.997Z</time></trkpt><trkpt lat="45.88998621128445" lon="12.033437365262964"><ele>181.0</ele><time>2026-04-25T09:03:28.997Z</time></trkpt><trkpt lat="45.89004516959697" lon="12.033483068876093"><ele>182.0</ele><time>2026-04-25T09:03:31.997Z</time></trkpt><trkpt lat="45.890107692773064" lon="12.033531727761499"><ele>183.0</ele><time>2026-04-25T09:03:34.997Z</time></trkpt><trkpt lat="45.890177918722095" lon="12.033543945102831"><ele>183.99999999999997</ele><time>2026-04-25T09:03:38Z</time></trkpt><trkpt lat="45.89023502690295" lon="12.033599195032648"><ele>185.0</ele><time>2026-04-25T09:03:42Z</time></trkpt><trkpt lat="45.890305106642955" lon="12.033636326429233"><ele>185.28571428571428</ele><time>2026-04-25T09:03:46Z</time></trkpt><trkpt lat="45.89036504155953" lon="12.033668082594813"><ele>185.57142857142856</ele><time>2026-04-25T09:03:51Z</time></trkpt><trkpt lat="45.89042593858554" lon="12.03369964050844"><ele>185.85714285714283</ele><time>2026-04-25T09:04:20.999Z</time></trkpt><trkpt lat="45.890490764543976" lon="12.033728767164652"><ele>186.14285714285714</ele><time>2026-04-25T09:04:25.999Z</time></trkpt><trkpt lat="45.89055692914911" lon="12.033767407045543"><ele>186.42857142857144</ele><time>2026-04-25T09:06:23.999Z</time></trkpt><trkpt lat="45.89063308202322" lon="12.033806802833563"><ele>186.7142857142857</ele><time>2026-04-25T09:06:27.999Z</time></trkpt><trkpt lat="45.890708793615566" lon="12.033845970326254"><ele>187.0</ele><time>2026-04-25T09:06:31.999Z</time></trkpt><trkpt lat="45.89077836539181" lon="12.03388196154267"><ele>187.0</ele><time>2026-04-25T09:06:35.999Z</time></trkpt><trkpt lat="45.89084029123846" lon="12.03391399731994"><ele>187.0</ele><time>2026-04-25T09:06:38.999Z</time></trkpt><trkpt lat="45.89091001245528" lon="12.033928058517862"><ele>187.0</ele><time>2026-04-25T09:06:41.999Z</time></trkpt><trkpt lat="45.89097736999429" lon="12.03398535071766"><ele>187.0</ele><time>2026-04-25T09:06:44.998Z</time></trkpt><trkpt lat="45.891037540219365" lon="12.03401684963623"><ele>187.0</ele><time>2026-04-25T09:06:46.998Z</time></trkpt><trkpt lat="45.89111725913777" lon="12.0340585822358"><ele>187.0</ele><time>2026-04-25T09:06:49.998Z</time></trkpt><trkpt lat="45.89120804674105" lon="12.034106257724467"><ele>187.83333333333334</ele><time>2026-04-25T09:06:52.998Z</time></trkpt><trkpt lat="45.891303374821646" lon="12.034157292144872"><ele>188.66666666666669</ele><time>2026-04-25T09:06:55.998Z</time></trkpt><trkpt lat="45.89137112925274" lon="12.034193564908266"><ele>189.5</ele><time>2026-04-25T09:06:57.998Z</time></trkpt><trkpt lat="45.89143887717754" lon="12.03421193551473"><ele>190.33333333333334</ele><time>2026-04-25T09:06:59.998Z</time></trkpt><trkpt lat="45.89150222750306" lon="12.034263749128508"><ele>191.16666666666666</ele><time>2026-04-25T09:07:01.998Z</time></trkpt><trkpt lat="45.89156848310416" lon="12.034299219466634"><ele>192.0</ele><time>2026-04-25T09:07:03.998Z</time></trkpt><trkpt lat="45.89163520808807" lon="12.034335034869903"><ele>191.99999999999997</ele><time>2026-04-25T09:07:05.998Z</time></trkpt><trkpt lat="45.89170019997526" lon="12.034370369279717"><ele>192.0</ele><time>2026-04-25T09:07:07.998Z</time></trkpt><trkpt lat="45.89176693791232" lon="12.03438742888956"><ele>192.0</ele><time>2026-04-25T09:07:09.998Z</time></trkpt><trkpt lat="45.891820840962495" lon="12.034435958620133"><ele>192.0</ele><time>2026-04-25T09:07:11.998Z</time></trkpt><trkpt lat="45.89189885589669" lon="12.03447837332218"><ele>192.0</ele><time>2026-04-25T09:07:14.998Z</time></trkpt><trkpt lat="45.89197193283096" lon="12.034518103355884"><ele>191.99999999999997</ele><time>2026-04-25T09:07:17.998Z</time></trkpt><trkpt lat="45.892036116637286" lon="12.034552998459166"><ele>192.0</ele><time>2026-04-25T09:07:20.998Z</time></trkpt><trkpt lat="45.89210250759298" lon="12.03457273161236"><ele>192.99999999999997</ele><time>2026-04-25T09:07:23.998Z</time></trkpt><trkpt lat="45.892169456920996" lon="12.034607195895497"><ele>194.0</ele><time>2026-04-25T09:07:26.998Z</time></trkpt><trkpt lat="45.892230388891775" lon="12.034661802012367"><ele>195.0</ele><time>2026-04-25T09:07:29.998Z</time></trkpt><trkpt lat="45.892292257775864" lon="12.034697488585758"><ele>196.0</ele><time>2026-04-25T09:07:32.997Z</time></trkpt><trkpt lat="45.8923559065944" lon="12.034725256985217"><ele>197.0</ele><time>2026-04-25T09:07:35.997Z</time></trkpt><trkpt lat="45.892423328448174" lon="12.034715310998436"><ele>197.99999999999997</ele><time>2026-04-25T09:07:38.997Z</time></trkpt><trkpt lat="45.89249969064481" lon="12.03473875522313"><ele>199.0</ele><time>2026-04-25T09:07:42.997Z</time></trkpt><trkpt lat="45.89257402252887" lon="12.034741803636159"><ele>199.42857142857142</ele><time>2026-04-25T09:07:46.997Z</time></trkpt><trkpt lat="45.89263750013596" lon="12.034688890199073"><ele>199.85714285714286</ele><time>2026-04-25T09:07:49.999Z</time></trkpt><trkpt lat="45.89270165413665" lon="12.034652024592274"><ele>200.28571428571428</ele><time>2026-04-25T09:08:02.999Z</time></trkpt><trkpt lat="45.892761827427854" lon="12.03461711697245"><ele>200.71428571428572</ele><time>2026-04-25T09:08:05.999Z</time></trkpt><trkpt lat="45.892825740850974" lon="12.034585764905762"><ele>201.14285714285714</ele><time>2026-04-25T09:08:08.999Z</time></trkpt><trkpt lat="45.89288619141033" lon="12.034536649936078"><ele>201.57142857142856</ele><time>2026-04-25T09:08:11.999Z</time></trkpt><trkpt lat="45.89295208948747" lon="12.034508524046904"><ele>202.0</ele><time>2026-04-25T09:08:14.999Z</time></trkpt><trkpt lat="45.89301710453371" lon="12.034482728511186"><ele>201.99999999999997</ele><time>2026-04-25T09:08:17.999Z</time></trkpt><trkpt lat="45.893084639781556" lon="12.034452137465145"><ele>202.0</ele><time>2026-04-25T09:08:20.999Z</time></trkpt><trkpt lat="45.893168059473936" lon="12.034421208354791"><ele>202.0</ele><time>2026-04-25T09:08:23.999Z</time></trkpt><trkpt lat="45.893241565015636" lon="12.0343838946693"><ele>202.0</ele><time>2026-04-25T09:08:25.999Z</time></trkpt><trkpt lat="45.89333257025057" lon="12.034351002880328"><ele>201.99999999999997</ele><time>2026-04-25T09:08:27.999Z</time></trkpt><trkpt lat="45.893425218781594" lon="12.034305641754237"><ele>202.0</ele><time>2026-04-25T09:08:29.999Z</time></trkpt><trkpt lat="45.89353795846894" lon="12.034265348784274"><ele>201.8</ele><time>2026-04-25T09:08:31.999Z</time></trkpt><trkpt lat="45.893646129099764" lon="12.034232843449574"><ele>201.6</ele><time>2026-04-25T09:08:33.999Z</time></trkpt><trkpt lat="45.89373946966151" lon="12.034171310313438"><ele>201.4</ele><time>2026-04-25T09:08:35.999Z</time></trkpt><trkpt lat="45.89384476575795" lon="12.034169938180934"><ele>201.20000000000002</ele><time>2026-04-25T09:08:37.999Z</time></trkpt><trkpt lat="45.89391965142436" lon="12.0341384048884"><ele>201.0</ele><time>2026-04-25T09:08:39.999Z</time></trkpt><trkpt lat="45.89399133436645" lon="12.034108220250472"><ele>201.0</ele><time>2026-04-25T09:08:41.999Z</time></trkpt><trkpt lat="45.894053817694804" lon="12.034057609321826"><ele>201.0</ele><time>2026-04-25T09:08:43.999Z</time></trkpt><trkpt lat="45.89413558956826" lon="12.034045353866109"><ele>201.0</ele><time>2026-04-25T09:08:45.999Z</time></trkpt><trkpt lat="45.894211173875206" lon="12.034011860137305"><ele>201.0</ele><time>2026-04-25T09:08:47.999Z</time></trkpt><trkpt lat="45.8942771788008" lon="12.033982611371083"><ele>201.0</ele><time>2026-04-25T09:08:49.999Z</time></trkpt><trkpt lat="45.89434105715169" lon="12.03395463495433"><ele>201.0</ele><time>2026-04-25T09:08:51.999Z</time></trkpt><trkpt lat="45.89441719791859" lon="12.033901800476148"><ele>200.66666666666666</ele><time>2026-04-25T09:08:54.999Z</time></trkpt><trkpt lat="45.89448830780921" lon="12.033898781603964"><ele>200.33333333333331</ele><time>2026-04-25T09:08:56.999Z</time></trkpt><trkpt lat="45.8945561799162" lon="12.033865648531382"><ele>200.0</ele><time>2026-04-25T09:08:58.998Z</time></trkpt><trkpt lat="45.89463774550069" lon="12.03386825467359"><ele>199.66666666666666</ele><time>2026-04-25T09:09:00.998Z</time></trkpt><trkpt lat="45.89472097612603" lon="12.033859597634246"><ele>199.33333333333331</ele><time>2026-04-25T09:09:02.998Z</time></trkpt><trkpt lat="45.89481280705483" lon="12.033842294533722"><ele>199.0</ele><time>2026-04-25T09:09:04.998Z</time></trkpt><trkpt lat="45.894888633916864" lon="12.033839385678737"><ele>198.99999999999997</ele><time>2026-04-25T09:09:06.998Z</time></trkpt><trkpt lat="45.89495594110744" lon="12.03383491583027"><ele>199.0</ele><time>2026-04-25T09:09:08.998Z</time></trkpt><trkpt lat="45.895019673240064" lon="12.033831566047784"><ele>199.0</ele><time>2026-04-25T09:09:10.998Z</time></trkpt><trkpt lat="45.895098420831324" lon="12.034026233507149"><ele>199.0</ele><time>2026-04-25T09:09:11.998Z</time></trkpt><trkpt lat="45.89517506268027" lon="12.034073539760987"><ele>198.99999999999997</ele><time>2026-04-25T09:09:13.998Z</time></trkpt><trkpt lat="45.89523503576848" lon="12.03412021298465"><ele>199.0</ele><time>2026-04-25T09:09:15.998Z</time></trkpt><trkpt lat="45.89529675827953" lon="12.03414616177976"><ele>198.99999999999997</ele><time>2026-04-25T09:09:18.998Z</time></trkpt><trkpt lat="45.8952278750994" lon="12.034114203776657"><ele>199.0</ele><time>2026-04-25T09:09:35.998Z</time></trkpt><trkpt lat="45.89514860831243" lon="12.034073954393135"><ele>199.0</ele><time>2026-04-25T09:09:39.998Z</time></trkpt><trkpt lat="45.895088997624576" lon="12.034035907139536"><ele>199.0</ele><time>2026-04-25T09:09:42.998Z</time></trkpt><trkpt lat="45.89502101286707" lon="12.03399932985245"><ele>199.0</ele><time>2026-04-25T09:09:45.998Z</time></trkpt><trkpt lat="45.894964059906144" lon="12.033936544020811"><ele>198.99999999999997</ele><time>2026-04-25T09:09:48.997Z</time></trkpt><trkpt lat="45.89490876644682" lon="12.033861494441064"><ele>199.0</ele><time>2026-04-25T09:09:52.997Z</time></trkpt><trkpt lat="45.894918717371056" lon="12.033751698314521"><ele>198.99999999999997</ele><time>2026-04-25T09:09:56.999Z</time></trkpt><trkpt lat="45.89498571358106" lon="12.033725285224829"><ele>199.0</ele><time>2026-04-25T09:09:59.999Z</time></trkpt><trkpt lat="45.89504088158564" lon="12.033611205276765"><ele>199.0</ele><time>2026-04-25T09:10:02.999Z</time></trkpt><trkpt lat="45.89510187361427" lon="12.033510042434164"><ele>199.0</ele><time>2026-04-25T09:10:05.999Z</time></trkpt><trkpt lat="45.89518415541348" lon="12.033443893171244"><ele>198.99999999999997</ele><time>2026-04-25T09:10:09Z</time></trkpt><trkpt lat="45.89525573304042" lon="12.033435358504"><ele>199.0</ele><time>2026-04-25T09:10:11Z</time></trkpt><trkpt lat="45.89532364064664" lon="12.033472607362036"><ele>198.99999999999997</ele><time>2026-04-25T09:10:13Z</time></trkpt><trkpt lat="45.8954043085622" lon="12.033498013638463"><ele>199.0</ele><time>2026-04-25T09:10:15Z</time></trkpt><trkpt lat="45.895473421776835" lon="12.033510639344783"><ele>199.0</ele><time>2026-04-25T09:10:16.999Z</time></trkpt><trkpt lat="45.895557942128974" lon="12.033525557572428"><ele>199.0</ele><time>2026-04-25T09:10:19.999Z</time></trkpt><trkpt lat="45.895647519752195" lon="12.033524361706046"><ele>198.99999999999997</ele><time>2026-04-25T09:10:22.999Z</time></trkpt><trkpt lat="45.89571584521519" lon="12.03352841546612"><ele>199.0</ele><time>2026-04-25T09:10:24.999Z</time></trkpt><trkpt lat="45.895791629741574" lon="12.033536269393563"><ele>198.99999999999997</ele><time>2026-04-25T09:10:26.999Z</time></trkpt><trkpt lat="45.8958734152844" lon="12.033549316499887"><ele>199.0</ele><time>2026-04-25T09:10:28.999Z</time></trkpt><trkpt lat="45.89595636555952" lon="12.033557403096854"><ele>199.0</ele><time>2026-04-25T09:10:30.999Z</time></trkpt><trkpt lat="45.896035807576204" lon="12.033565158194643"><ele>199.0</ele><time>2026-04-25T09:10:32.999Z</time></trkpt><trkpt lat="45.8961172190984" lon="12.033566977358543"><ele>198.99999999999997</ele><time>2026-04-25T09:10:34.999Z</time></trkpt><trkpt lat="45.896195769100906" lon="12.033572197732926"><ele>199.0</ele><time>2026-04-25T09:10:36.999Z</time></trkpt><trkpt lat="45.896278531770996" lon="12.033569252708109"><ele>199.49999999999997</ele><time>2026-04-25T09:10:38.999Z</time></trkpt><trkpt lat="45.89637222572775" lon="12.03358474506408"><ele>200.0</ele><time>2026-04-25T09:10:40.999Z</time></trkpt><trkpt lat="45.896461974583836" lon="12.033568939707799"><ele>200.5</ele><time>2026-04-25T09:10:42.999Z</time></trkpt><trkpt lat="45.89654887930368" lon="12.033544503351859"><ele>201.0</ele><time>2026-04-25T09:10:44.999Z</time></trkpt><trkpt lat="45.89662658454879" lon="12.033515909758165"><ele>201.49999999999997</ele><time>2026-04-25T09:10:46.999Z</time></trkpt><trkpt lat="45.896694680733894" lon="12.033461784742306"><ele>202.0</ele><time>2026-04-25T09:10:48.999Z</time></trkpt><trkpt lat="45.89675649706143" lon="12.033434620260195"><ele>202.99999999999997</ele><time>2026-04-25T09:10:50.999Z</time></trkpt><trkpt lat="45.89684069230623" lon="12.033389646241142"><ele>204.0</ele><time>2026-04-25T09:10:53.999Z</time></trkpt><trkpt lat="45.89692209651204" lon="12.033341201154487"><ele>205.0</ele><time>2026-04-25T09:10:56.999Z</time></trkpt><trkpt lat="45.896996749492175" lon="12.033322240456759"><ele>206.0</ele><time>2026-04-25T09:10:59.999Z</time></trkpt><trkpt lat="45.897060848950886" lon="12.033288119967688"><ele>206.99999999999997</ele><time>2026-04-25T09:11:02.999Z</time></trkpt><trkpt lat="45.897120781963665" lon="12.03325668878048"><ele>208.0</ele><time>2026-04-25T09:11:05.998Z</time></trkpt><trkpt lat="45.89718301694799" lon="12.033224050229494"><ele>208.14285714285714</ele><time>2026-04-25T09:11:08.998Z</time></trkpt><trkpt lat="45.897244246142385" lon="12.03319193918651"><ele>208.2857142857143</ele><time>2026-04-25T09:11:11.998Z</time></trkpt><trkpt lat="45.89730720638008" lon="12.03315892036214"><ele>208.42857142857144</ele><time>2026-04-25T09:11:14.998Z</time></trkpt><trkpt lat="45.897380939125846" lon="12.033120251935348"><ele>208.57142857142856</ele><time>2026-04-25T09:11:18.998Z</time></trkpt><trkpt lat="45.89745338845163" lon="12.033082256625834"><ele>208.71428571428572</ele><time>2026-04-25T09:11:22.997Z</time></trkpt><trkpt lat="45.89752802510423" lon="12.033043633930209"><ele>208.85714285714286</ele><time>2026-04-25T09:11:26.997Z</time></trkpt><trkpt lat="45.89759720863817" lon="12.03300943602326"><ele>209.0</ele><time>2026-04-25T09:11:30.997Z</time></trkpt><trkpt lat="45.89766446969841" lon="12.032976305242634"><ele>211.14285714285714</ele><time>2026-04-25T09:11:34.997Z</time></trkpt><trkpt lat="45.897735377046025" lon="12.032943030759736"><ele>213.28571428571428</ele><time>2026-04-25T09:11:38.997Z</time></trkpt><trkpt lat="45.89779975016302" lon="12.032892504667396"><ele>215.42857142857144</ele><time>2026-04-25T09:11:42.997Z</time></trkpt><trkpt lat="45.897864446246494" lon="12.032866814051246"><ele>217.57142857142856</ele><time>2026-04-25T09:11:46.997Z</time></trkpt><trkpt lat="45.89793351725687" lon="12.032854104457524"><ele>219.71428571428572</ele><time>2026-04-25T09:11:50.997Z</time></trkpt><trkpt lat="45.89799456314259" lon="12.032828215421274"><ele>221.85714285714286</ele><time>2026-04-25T09:11:54.997Z</time></trkpt><trkpt lat="45.898065359234806" lon="12.03279925641165"><ele>224.0</ele><time>2026-04-25T09:11:59.999Z</time></trkpt><trkpt lat="45.89812963859195" lon="12.032772963114"><ele>224.0</ele><time>2026-04-25T09:12:04.999Z</time></trkpt><trkpt lat="45.89819075810926" lon="12.032748650078014"><ele>224.0</ele><time>2026-04-25T09:12:09.999Z</time></trkpt><trkpt lat="45.89826413768455" lon="12.032723358894211"><ele>224.0</ele><time>2026-04-25T09:12:15.999Z</time></trkpt><trkpt lat="45.89832821229405" lon="12.032711269488654"><ele>224.0</ele><time>2026-04-25T09:12:20.999Z</time></trkpt><trkpt lat="45.89839314386927" lon="12.032710104558067"><ele>224.0</ele><time>2026-04-25T09:12:25.999Z</time></trkpt><trkpt lat="45.89845620143942" lon="12.032716273248944"><ele>224.0</ele><time>2026-04-25T09:12:30.999Z</time></trkpt><trkpt lat="45.89852407462813" lon="12.032725322980319"><ele>224.0</ele><time>2026-04-25T09:12:35.999Z</time></trkpt><trkpt lat="45.89859494860245" lon="12.0327304234938"><ele>227.28571428571428</ele><time>2026-04-25T09:12:40.999Z</time></trkpt><trkpt lat="45.898669835198" lon="12.032715922696998"><ele>230.57142857142856</ele><time>2026-04-25T09:12:45.999Z</time></trkpt><trkpt lat="45.89874331493271" lon="12.032678484725823"><ele>233.85714285714286</ele><time>2026-04-25T09:12:50.999Z</time></trkpt><trkpt lat="45.89880478751803" lon="12.032611118145201"><ele>237.14285714285714</ele><time>2026-04-25T09:12:55.999Z</time></trkpt><trkpt lat="45.89884832557395" lon="12.032526718464963"><ele>240.42857142857142</ele><time>2026-04-25T09:13:00.999Z</time></trkpt><trkpt lat="45.898878619875596" lon="12.032435731643513"><ele>243.71428571428572</ele><time>2026-04-25T09:13:05.999Z</time></trkpt><trkpt lat="45.89890503876395" lon="12.032352071823004"><ele>247.0</ele><time>2026-04-25T09:13:10.998Z</time></trkpt><trkpt lat="45.89893765165571" lon="12.032257335789964"><ele>248.16666666666666</ele><time>2026-04-25T09:13:16.998Z</time></trkpt><trkpt lat="45.89892556530175" lon="12.032127721657455"><ele>249.33333333333331</ele><time>2026-04-25T09:13:22.998Z</time></trkpt><trkpt lat="45.898945784806294" lon="12.032017642060095"><ele>250.5</ele><time>2026-04-25T09:13:28.998Z</time></trkpt><trkpt lat="45.89892880942358" lon="12.03191281905267"><ele>251.66666666666669</ele><time>2026-04-25T09:13:32.998Z</time></trkpt><trkpt lat="45.89888009885318" lon="12.031818800880584"><ele>252.83333333333334</ele><time>2026-04-25T09:13:36.998Z</time></trkpt><trkpt lat="45.89885095544381" lon="12.03173648347047"><ele>254.0</ele><time>2026-04-25T09:13:39.998Z</time></trkpt><trkpt lat="45.89883253945904" lon="12.031646676860161"><ele>255.14285714285717</ele><time>2026-04-25T09:13:43.998Z</time></trkpt><trkpt lat="45.89881295671103" lon="12.031559738265917"><ele>256.2857142857143</ele><time>2026-04-25T09:13:47.998Z</time></trkpt><trkpt lat="45.89879583424452" lon="12.031471515936598"><ele>257.42857142857144</ele><time>2026-04-25T09:13:51.998Z</time></trkpt><trkpt lat="45.898784549674865" lon="12.031379343245863"><ele>258.57142857142856</ele><time>2026-04-25T09:13:55.998Z</time></trkpt><trkpt lat="45.8987709551142" lon="12.031280398681824"><ele>259.7142857142857</ele><time>2026-04-25T09:13:59.998Z</time></trkpt><trkpt lat="45.898757601152454" lon="12.031163974832157"><ele>260.8571428571429</ele><time>2026-04-25T09:14:04Z</time></trkpt><trkpt lat="45.89873957697326" lon="12.031063600313475"><ele>262.0</ele><time>2026-04-25T09:14:07Z</time></trkpt><trkpt lat="45.89871841939436" lon="12.030971198754834"><ele>262.0</ele><time>2026-04-25T09:14:10Z</time></trkpt><trkpt lat="45.898689072165226" lon="12.030862041479327"><ele>262.0</ele><time>2026-04-25T09:14:14Z</time></trkpt><trkpt lat="45.898665078862614" lon="12.030763800587978"><ele>262.0</ele><time>2026-04-25T09:14:18Z</time></trkpt><trkpt lat="45.898647586754606" lon="12.03066532287277"><ele>262.0</ele><time>2026-04-25T09:14:22Z</time></trkpt><trkpt lat="45.89864801276915" lon="12.030574569141704"><ele>262.0</ele><time>2026-04-25T09:14:26Z</time></trkpt><trkpt lat="45.89871493123551" lon="12.030584237827192"><ele>262.0</ele><time>2026-04-25T09:14:32Z</time></trkpt><trkpt lat="45.898753127870286" lon="12.030673771461139"><ele>262.0</ele><time>2026-04-25T09:14:35Z</time></trkpt><trkpt lat="45.89879521766418" lon="12.030770459734255"><ele>262.0</ele><time>2026-04-25T09:14:38Z</time></trkpt><trkpt lat="45.89884065212499" lon="12.030870141556685"><ele>262.0</ele><time>2026-04-25T09:14:41Z</time></trkpt><trkpt lat="45.89888167872095" lon="12.030975758156002"><ele>262.0</ele><time>2026-04-25T09:14:44Z</time></trkpt><trkpt lat="45.89892312517181" lon="12.031074719013162"><ele>262.0</ele><time>2026-04-25T09:14:46.999Z</time></trkpt><trkpt lat="45.898962269042016" lon="12.031171831056438"><ele>262.0</ele><time>2026-04-25T09:14:49.999Z</time></trkpt><trkpt lat="45.89901021185688" lon="12.031269192996948"><ele>262.0</ele><time>2026-04-25T09:14:52.999Z</time></trkpt><trkpt lat="45.89905040422153" lon="12.031368581337492"><ele>262.0</ele><time>2026-04-25T09:14:55.999Z</time></trkpt><trkpt lat="45.89909210443436" lon="12.031463698420156"><ele>262.0</ele><time>2026-04-25T09:14:58.999Z</time></trkpt><trkpt lat="45.899132226633284" lon="12.03156076714159"><ele>262.0</ele><time>2026-04-25T09:15:01.999Z</time></trkpt><trkpt lat="45.89916468918245" lon="12.031650906434557"><ele>262.0</ele><time>2026-04-25T09:15:04.999Z</time></trkpt><trkpt lat="45.89919722669598" lon="12.031729058462448"><ele>262.0</ele><time>2026-04-25T09:15:07.999Z</time></trkpt><trkpt lat="45.8992372872063" lon="12.031815061058234"><ele>262.0</ele><time>2026-04-25T09:15:10.999Z</time></trkpt><trkpt lat="45.89927433234688" lon="12.031914058902386"><ele>262.0</ele><time>2026-04-25T09:15:13.999Z</time></trkpt><trkpt lat="45.899312592085714" lon="12.03200281450839"><ele>263.0</ele><time>2026-04-25T09:15:16.999Z</time></trkpt><trkpt lat="45.899354386864346" lon="12.032095193571772"><ele>264.0</ele><time>2026-04-25T09:15:19.999Z</time></trkpt><trkpt lat="45.89940740721398" lon="12.032178053011965"><ele>265.0</ele><time>2026-04-25T09:15:22.999Z</time></trkpt><trkpt lat="45.899453678244996" lon="12.032248400571794"><ele>266.0</ele><time>2026-04-25T09:15:25.999Z</time></trkpt><trkpt lat="45.8994975093678" lon="12.032315868118866"><ele>267.0</ele><time>2026-04-25T09:15:28.999Z</time></trkpt><trkpt lat="45.899560076362754" lon="12.032365719413898"><ele>268.0</ele><time>2026-04-25T09:15:31.999Z</time></trkpt><trkpt lat="45.899614502128195" lon="12.03243435590251"><ele>269.0</ele><time>2026-04-25T09:15:34.999Z</time></trkpt><trkpt lat="45.899675487232976" lon="12.032507685878631"><ele>269.0</ele><time>2026-04-25T09:15:37.999Z</time></trkpt><trkpt lat="45.89973395403156" lon="12.032590023487957"><ele>269.0</ele><time>2026-04-25T09:15:40.998Z</time></trkpt><trkpt lat="45.89979394351663" lon="12.032663741073995"><ele>269.0</ele><time>2026-04-25T09:15:43.998Z</time></trkpt><trkpt lat="45.899855214937105" lon="12.032734196187803"><ele>269.0</ele><time>2026-04-25T09:15:46.998Z</time></trkpt><trkpt lat="45.89990890073421" lon="12.032807024683578"><ele>269.0</ele><time>2026-04-25T09:15:49.998Z</time></trkpt><trkpt lat="45.89997203350506" lon="12.032880129444242"><ele>269.0</ele><time>2026-04-25T09:15:52.998Z</time></trkpt><trkpt lat="45.900030247623945" lon="12.032957032849318"><ele>270.33333333333337</ele><time>2026-04-25T09:15:55.998Z</time></trkpt><trkpt lat="45.90008616654721" lon="12.033033398861159"><ele>271.6666666666667</ele><time>2026-04-25T09:15:58.998Z</time></trkpt><trkpt lat="45.90014199934163" lon="12.033110471872487"><ele>273.0</ele><time>2026-04-25T09:16:01.998Z</time></trkpt><trkpt lat="45.900202416539884" lon="12.033184384325255"><ele>274.3333333333333</ele><time>2026-04-25T09:16:04.998Z</time></trkpt><trkpt lat="45.90026477154866" lon="12.033255750686726"><ele>275.66666666666663</ele><time>2026-04-25T09:16:07.998Z</time></trkpt><trkpt lat="45.90033241222092" lon="12.033326713955182"><ele>277.0</ele><time>2026-04-25T09:16:11Z</time></trkpt><trkpt lat="45.90040637488874" lon="12.033396054145108"><ele>277.0</ele><time>2026-04-25T09:16:14Z</time></trkpt><trkpt lat="45.90048305018108" lon="12.03344799282838"><ele>277.0</ele><time>2026-04-25T09:16:17Z</time></trkpt><trkpt lat="45.90056346765864" lon="12.033502024803973"><ele>277.0</ele><time>2026-04-25T09:16:20Z</time></trkpt><trkpt lat="45.900648753979674" lon="12.033539851987147"><ele>277.0</ele><time>2026-04-25T09:16:23Z</time></trkpt><trkpt lat="45.90073015017936" lon="12.033587651290292"><ele>277.0</ele><time>2026-04-25T09:16:26Z</time></trkpt><trkpt lat="45.900817615030505" lon="12.0336265265588"><ele>277.0</ele><time>2026-04-25T09:16:29Z</time></trkpt><trkpt lat="45.90088914275166" lon="12.03369473219178"><ele>278.5</ele><time>2026-04-25T09:16:32Z</time></trkpt><trkpt lat="45.900969541697016" lon="12.033742593486895"><ele>280.0</ele><time>2026-04-25T09:16:35Z</time></trkpt><trkpt lat="45.901035267509734" lon="12.033807469557894"><ele>281.5</ele><time>2026-04-25T09:16:38Z</time></trkpt><trkpt lat="45.90109782408911" lon="12.0338779375477"><ele>283.0</ele><time>2026-04-25T09:16:41Z</time></trkpt><trkpt lat="45.90116069199337" lon="12.033963589778406"><ele>284.5</ele><time>2026-04-25T09:16:44Z</time></trkpt><trkpt lat="45.901222958545915" lon="12.034051874825547"><ele>286.0</ele><time>2026-04-25T09:16:47Z</time></trkpt><trkpt lat="45.90128405663684" lon="12.034145498856228"><ele>286.0</ele><time>2026-04-25T09:16:50Z</time></trkpt><trkpt lat="45.90134749420313" lon="12.034238887731146"><ele>286.0</ele><time>2026-04-25T09:16:53Z</time></trkpt><trkpt lat="45.90140989196068" lon="12.034337607019625"><ele>286.0</ele><time>2026-04-25T09:16:56Z</time></trkpt><trkpt lat="45.9014754938367" lon="12.034433880744412"><ele>286.0</ele><time>2026-04-25T09:16:59Z</time></trkpt><trkpt lat="45.90152066365016" lon="12.034502872813349"><ele>286.0</ele><time>2026-04-25T09:17:01Z</time></trkpt><trkpt lat="45.90156611255549" lon="12.03457397139032"><ele>286.0</ele><time>2026-04-25T09:17:02.999Z</time></trkpt><trkpt lat="45.901610317124366" lon="12.03464352781065"><ele>286.0</ele><time>2026-04-25T09:17:04.999Z</time></trkpt><trkpt lat="45.90165463148128" lon="12.034722180108934"><ele>286.0</ele><time>2026-04-25T09:17:06.999Z</time></trkpt><trkpt lat="45.90170115948822" lon="12.034806483356805"><ele>286.0</ele><time>2026-04-25T09:17:08.999Z</time></trkpt><trkpt lat="45.9017580600883" lon="12.034905906994679"><ele>286.0</ele><time>2026-04-25T09:17:10.999Z</time></trkpt><trkpt lat="45.90181866017058" lon="12.035025835716787"><ele>286.0</ele><time>2026-04-25T09:17:12.999Z</time></trkpt><trkpt lat="45.90187831892259" lon="12.035158008891617"><ele>286.0</ele><time>2026-04-25T09:17:14.999Z</time></trkpt><trkpt lat="45.90195535632138" lon="12.035299700980646"><ele>286.0</ele><time>2026-04-25T09:17:16.999Z</time></trkpt><trkpt lat="45.902033224502375" lon="12.035426723463749"><ele>286.0</ele><time>2026-04-25T09:17:18.999Z</time></trkpt><trkpt lat="45.902125116066266" lon="12.035545527653701"><ele>286.0</ele><time>2026-04-25T09:17:20.999Z</time></trkpt><trkpt lat="45.90218190002775" lon="12.035600015286573"><ele>286.0</ele><time>2026-04-25T09:17:21.999Z</time></trkpt><trkpt lat="45.902242638032725" lon="12.035641406356477"><ele>286.0</ele><time>2026-04-25T09:17:22.999Z</time></trkpt><trkpt lat="45.90230682409866" lon="12.03567106418057"><ele>286.0</ele><time>2026-04-25T09:17:23.999Z</time></trkpt><trkpt lat="45.902368136420485" lon="12.03569775273133"><ele>286.0</ele><time>2026-04-25T09:17:24.999Z</time></trkpt><trkpt lat="45.90244560395228" lon="12.035761699812463"><ele>286.0</ele><time>2026-04-25T09:17:26.999Z</time></trkpt><trkpt lat="45.90251107360512" lon="12.035780089803374"><ele>286.0</ele><time>2026-04-25T09:17:29.999Z</time></trkpt><trkpt lat="45.90257431127254" lon="12.035813745061535"><ele>286.0</ele><time>2026-04-25T09:17:38.999Z</time></trkpt><trkpt lat="45.90264646481594" lon="12.035782522679291"><ele>286.0</ele><time>2026-04-25T09:17:40.999Z</time></trkpt><trkpt lat="45.90272616765942" lon="12.03577870502394"><ele>286.0</ele><time>2026-04-25T09:17:42.999Z</time></trkpt><trkpt lat="45.90281644450976" lon="12.035762452713483"><ele>284.2</ele><time>2026-04-25T09:17:44.999Z</time></trkpt><trkpt lat="45.902908226253054" lon="12.03571410843818"><ele>282.40000000000003</ele><time>2026-04-25T09:17:46.999Z</time></trkpt><trkpt lat="45.90299751016531" lon="12.035653282967363"><ele>280.6</ele><time>2026-04-25T09:17:48.999Z</time></trkpt><trkpt lat="45.90308619460061" lon="12.035579677919056"><ele>278.8</ele><time>2026-04-25T09:17:50.999Z</time></trkpt><trkpt lat="45.90316439936951" lon="12.03551095501224"><ele>277.0</ele><time>2026-04-25T09:17:52.999Z</time></trkpt><trkpt lat="45.903247585268936" lon="12.035447778468901"><ele>277.0</ele><time>2026-04-25T09:17:54.999Z</time></trkpt><trkpt lat="45.9033355275061" lon="12.035413895205227"><ele>277.0</ele><time>2026-04-25T09:17:56.998Z</time></trkpt><trkpt lat="45.903412749082804" lon="12.035431591725459"><ele>277.0</ele><time>2026-04-25T09:17:58.998Z</time></trkpt><trkpt lat="45.90346940893902" lon="12.035501288840356"><ele>277.0</ele><time>2026-04-25T09:18:00.998Z</time></trkpt><trkpt lat="45.90352977898555" lon="12.03558453891962"><ele>277.0</ele><time>2026-04-25T09:18:03.998Z</time></trkpt><trkpt lat="45.903578943497486" lon="12.0356615381742"><ele>277.0</ele><time>2026-04-25T09:18:07.998Z</time></trkpt><trkpt lat="45.90360630105684" lon="12.035747683430461"><ele>277.0</ele><time>2026-04-25T09:18:11.998Z</time></trkpt><trkpt lat="45.90366557190097" lon="12.035797272127382"><ele>277.0</ele><time>2026-04-25T09:18:16.001Z</time></trkpt><trkpt lat="45.90373460526248" lon="12.035810226358079"><ele>277.0</ele><time>2026-04-25T09:18:21.001Z</time></trkpt><trkpt lat="45.903803997738585" lon="12.035790903408618"><ele>277.0</ele><time>2026-04-25T09:18:27.001Z</time></trkpt><trkpt lat="45.90387526301573" lon="12.035797042970714"><ele>277.0</ele><time>2026-04-25T09:18:34.001Z</time></trkpt><trkpt lat="45.90394039807841" lon="12.035785651006474"><ele>277.0</ele><time>2026-04-25T09:18:40Z</time></trkpt><trkpt lat="45.90399979908183" lon="12.035754579380999"><ele>277.0</ele><time>2026-04-25T09:18:46Z</time></trkpt><trkpt lat="45.90406749441366" lon="12.035784571032798"><ele>277.0</ele><time>2026-04-25T09:18:51.999Z</time></trkpt><trkpt lat="45.90413788920847" lon="12.035804482291283"><ele>277.0</ele><time>2026-04-25T09:18:57.999Z</time></trkpt><trkpt lat="45.904205572531055" lon="12.035814913237253"><ele>277.0</ele><time>2026-04-25T09:19:03.999Z</time></trkpt><trkpt lat="45.90427348766027" lon="12.035814931626103"><ele>277.0</ele><time>2026-04-25T09:19:09.999Z</time></trkpt><trkpt lat="45.90434351527787" lon="12.03582044097519"><ele>277.0</ele><time>2026-04-25T09:19:15.999Z</time></trkpt><trkpt lat="45.904408387191936" lon="12.035829938978265"><ele>277.0</ele><time>2026-04-25T09:19:21.999Z</time></trkpt><trkpt lat="45.90447337815285" lon="12.035814436553476"><ele>277.0</ele><time>2026-04-25T09:19:26.999Z</time></trkpt><trkpt lat="45.904540372661494" lon="12.035802324909039"><ele>279.7142857142857</ele><time>2026-04-25T09:19:31.998Z</time></trkpt><trkpt lat="45.90460956673711" lon="12.035821754977409"><ele>282.4285714285714</ele><time>2026-04-25T09:19:37.998Z</time></trkpt><trkpt lat="45.90467211373649" lon="12.03586097893846"><ele>285.1428571428571</ele><time>2026-04-25T09:19:42.998Z</time></trkpt><trkpt lat="45.90470670116713" lon="12.03593906266259"><ele>287.85714285714283</ele><time>2026-04-25T09:19:47.998Z</time></trkpt><trkpt lat="45.90473330826329" lon="12.036038559153274"><ele>290.57142857142856</ele><time>2026-04-25T09:19:53.998Z</time></trkpt><trkpt lat="45.90476026120018" lon="12.036140731582073"><ele>293.2857142857143</ele><time>2026-04-25T09:19:59.998Z</time></trkpt><trkpt lat="45.90478821447164" lon="12.036234292685982"><ele>296.0</ele><time>2026-04-25T09:20:05.998Z</time></trkpt><trkpt lat="45.904821886967056" lon="12.036315045340688"><ele>296.0</ele><time>2026-04-25T09:20:11.998Z</time></trkpt><trkpt lat="45.904844004376564" lon="12.036401743335478"><ele>296.0</ele><time>2026-04-25T09:20:16.998Z</time></trkpt><trkpt lat="45.90487034241573" lon="12.036496411395603"><ele>296.0</ele><time>2026-04-25T09:20:23Z</time></trkpt><trkpt lat="45.90490463785187" lon="12.036584383178413"><ele>296.0</ele><time>2026-04-25T09:20:29Z</time></trkpt><trkpt lat="45.90493988503783" lon="12.036680819208362"><ele>296.0</ele><time>2026-04-25T09:20:35Z</time></trkpt><trkpt lat="45.90496328565519" lon="12.036765596931778"><ele>296.0</ele><time>2026-04-25T09:20:40Z</time></trkpt><trkpt lat="45.90499462104162" lon="12.03685325223115"><ele>296.0</ele><time>2026-04-25T09:20:45Z</time></trkpt><trkpt lat="45.90502669832332" lon="12.03694938272819"><ele>296.8571428571429</ele><time>2026-04-25T09:20:51Z</time></trkpt><trkpt lat="45.905032959762615" lon="12.03704116340365"><ele>297.7142857142857</ele><time>2026-04-25T09:20:55.999Z</time></trkpt><trkpt lat="45.90504400239249" lon="12.037140614178552"><ele>298.57142857142856</ele><time>2026-04-25T09:21:00.999Z</time></trkpt><trkpt lat="45.90504701163989" lon="12.037238388140246"><ele>299.42857142857144</ele><time>2026-04-25T09:21:05.999Z</time></trkpt><trkpt lat="45.90504880959003" lon="12.037338095472986"><ele>300.2857142857143</ele><time>2026-04-25T09:21:10.999Z</time></trkpt><trkpt lat="45.90505749305469" lon="12.037439206000982"><ele>301.14285714285717</ele><time>2026-04-25T09:21:13.999Z</time></trkpt><trkpt lat="45.90504925472856" lon="12.03753235693902"><ele>302.0</ele><time>2026-04-25T09:21:15.999Z</time></trkpt><trkpt lat="45.90503893621512" lon="12.037643139752412"><ele>302.5</ele><time>2026-04-25T09:21:17.999Z</time></trkpt><trkpt lat="45.905027488888734" lon="12.037751826389261"><ele>303.0</ele><time>2026-04-25T09:21:19.999Z</time></trkpt><trkpt lat="45.90502234506946" lon="12.037864885074292"><ele>303.5</ele><time>2026-04-25T09:21:21.999Z</time></trkpt><trkpt lat="45.90500952003923" lon="12.037979894545838"><ele>304.0</ele><time>2026-04-25T09:21:23.999Z</time></trkpt><trkpt lat="45.904999676481104" lon="12.038088514051367"><ele>304.5</ele><time>2026-04-25T09:21:25.999Z</time></trkpt><trkpt lat="45.9049898185191" lon="12.03819761003156"><ele>305.0</ele><time>2026-04-25T09:21:27.999Z</time></trkpt><trkpt lat="45.90497589310165" lon="12.038296526708164"><ele>305.83333333333337</ele><time>2026-04-25T09:21:29.999Z</time></trkpt><trkpt lat="45.90495529152054" lon="12.03841788014763"><ele>306.6666666666667</ele><time>2026-04-25T09:21:32.999Z</time></trkpt><trkpt lat="45.90494782514574" lon="12.038525574654534"><ele>307.5</ele><time>2026-04-25T09:21:35.999Z</time></trkpt><trkpt lat="45.90494557492451" lon="12.03864082331525"><ele>308.3333333333333</ele><time>2026-04-25T09:21:38.999Z</time></trkpt><trkpt lat="45.90494835928019" lon="12.038746340620285"><ele>309.16666666666663</ele><time>2026-04-25T09:21:41.999Z</time></trkpt><trkpt lat="45.90494836344458" lon="12.038843022827832"><ele>310.0</ele><time>2026-04-25T09:21:44.998Z</time></trkpt><trkpt lat="45.90495388769265" lon="12.038951089692558"><ele>310.0</ele><time>2026-04-25T09:21:48.998Z</time></trkpt><trkpt lat="45.904954396485365" lon="12.039059996842639"><ele>310.0</ele><time>2026-04-25T09:21:52.998Z</time></trkpt><trkpt lat="45.90496328057021" lon="12.039164819666464"><ele>310.0</ele><time>2026-04-25T09:21:56.998Z</time></trkpt><trkpt lat="45.90498411893583" lon="12.039264596152103"><ele>310.0</ele><time>2026-04-25T09:22:00.998Z</time></trkpt><trkpt lat="45.9050044352708" lon="12.039366264621034"><ele>310.0</ele><time>2026-04-25T09:22:04.998Z</time></trkpt><trkpt lat="45.905028197718465" lon="12.039460163205868"><ele>310.0</ele><time>2026-04-25T09:22:08.998Z</time></trkpt><trkpt lat="45.90504460904357" lon="12.039562940829727"><ele>310.0</ele><time>2026-04-25T09:22:12.998Z</time></trkpt><trkpt lat="45.9050601202812" lon="12.03965219980999"><ele>313.8333333333333</ele><time>2026-04-25T09:22:15.998Z</time></trkpt><trkpt lat="45.905084437728156" lon="12.039755892158492"><ele>317.66666666666663</ele><time>2026-04-25T09:22:18.998Z</time></trkpt><trkpt lat="45.90512550276564" lon="12.039869456704968"><ele>321.5</ele><time>2026-04-25T09:22:21.998Z</time></trkpt><trkpt lat="45.90516539671128" lon="12.039988398103171"><ele>325.3333333333333</ele><time>2026-04-25T09:22:24.998Z</time></trkpt><trkpt lat="45.90519420276985" lon="12.040084030614171"><ele>329.1666666666667</ele><time>2026-04-25T09:22:26.998Z</time></trkpt><trkpt lat="45.90522922296686" lon="12.04019099126007"><ele>333.0</ele><time>2026-04-25T09:22:29Z</time></trkpt><trkpt lat="45.90526904691164" lon="12.040313822820034"><ele>333.0</ele><time>2026-04-25T09:22:31Z</time></trkpt><trkpt lat="45.90531184298821" lon="12.040454417934033"><ele>333.0</ele><time>2026-04-25T09:22:33Z</time></trkpt><trkpt lat="45.90535888513377" lon="12.04061107246577"><ele>333.0</ele><time>2026-04-25T09:22:35Z</time></trkpt><trkpt lat="45.9053823616055" lon="12.040696293223252"><ele>333.0</ele><time>2026-04-25T09:22:36Z</time></trkpt><trkpt lat="45.90540648304314" lon="12.040784532173245"><ele>333.0</ele><time>2026-04-25T09:22:37Z</time></trkpt><trkpt lat="45.90542863297687" lon="12.040875831310707"><ele>333.0</ele><time>2026-04-25T09:22:38Z</time></trkpt><trkpt lat="45.90544579536265" lon="12.040975740786276"><ele>332.0</ele><time>2026-04-25T09:22:39Z</time></trkpt><trkpt lat="45.905450800676704" lon="12.041083846461152"><ele>331.0</ele><time>2026-04-25T09:22:40Z</time></trkpt><trkpt lat="45.90544110109176" lon="12.041193946520977"><ele>330.0</ele><time>2026-04-25T09:22:41Z</time></trkpt><trkpt lat="45.905403783454815" lon="12.04129713592228"><ele>329.0</ele><time>2026-04-25T09:22:42Z</time></trkpt><trkpt lat="45.90539348629376" lon="12.041408936640142"><ele>328.0</ele><time>2026-04-25T09:22:43Z</time></trkpt><trkpt lat="45.90533687909763" lon="12.041501197130414"><ele>327.0</ele><time>2026-04-25T09:22:44Z</time></trkpt><trkpt lat="45.905281664106575" lon="12.041594217360071"><ele>327.0</ele><time>2026-04-25T09:22:45Z</time></trkpt><trkpt lat="45.90521951343805" lon="12.041686883974258"><ele>327.0</ele><time>2026-04-25T09:22:46Z</time></trkpt><trkpt lat="45.9051633095299" lon="12.0417915612613"><ele>327.0</ele><time>2026-04-25T09:22:47Z</time></trkpt><trkpt lat="45.905094230995594" lon="12.041880216525236"><ele>327.0</ele><time>2026-04-25T09:22:48Z</time></trkpt><trkpt lat="45.90502487549277" lon="12.041971264998294"><ele>327.0</ele><time>2026-04-25T09:22:49Z</time></trkpt><trkpt lat="45.904956111176084" lon="12.042067653783555"><ele>322.0</ele><time>2026-04-25T09:22:50Z</time></trkpt><trkpt lat="45.904898115963334" lon="12.042172134532693"><ele>317.0</ele><time>2026-04-25T09:22:51Z</time></trkpt><trkpt lat="45.90485358882643" lon="12.04229653961133"><ele>312.0</ele><time>2026-04-25T09:22:52Z</time></trkpt><trkpt lat="45.904830601748785" lon="12.04243011951765"><ele>307.0</ele><time>2026-04-25T09:22:53Z</time></trkpt><trkpt lat="45.90482455267882" lon="12.042567651293377"><ele>302.0</ele><time>2026-04-25T09:22:54Z</time></trkpt><trkpt lat="45.90483140820152" lon="12.042707368847203"><ele>302.0</ele><time>2026-04-25T09:22:55Z</time></trkpt><trkpt lat="45.90484697732133" lon="12.042844990677095"><ele>302.0</ele><time>2026-04-25T09:22:56Z</time></trkpt><trkpt lat="45.90487330201121" lon="12.042978955725413"><ele>302.0</ele><time>2026-04-25T09:22:57Z</time></trkpt><trkpt lat="45.904905812658185" lon="12.04310592006877"><ele>302.0</ele><time>2026-04-25T09:22:58Z</time></trkpt><trkpt lat="45.90494251297972" lon="12.043225950975028"><ele>302.0</ele><time>2026-04-25T09:22:59Z</time></trkpt><trkpt lat="45.90499202901891" lon="12.043333435903483"><ele>301.33333333333337</ele><time>2026-04-25T09:23:00Z</time></trkpt><trkpt lat="45.90504294967863" lon="12.0434369183692"><ele>300.6666666666667</ele><time>2026-04-25T09:23:01Z</time></trkpt><trkpt lat="45.90509201339184" lon="12.043536419348742"><ele>300.0</ele><time>2026-04-25T09:23:02Z</time></trkpt><trkpt lat="45.90514050366344" lon="12.043632842043294"><ele>299.3333333333333</ele><time>2026-04-25T09:23:03Z</time></trkpt><trkpt lat="45.90517788660767" lon="12.04373652437699"><ele>298.66666666666663</ele><time>2026-04-25T09:23:04Z</time></trkpt><trkpt lat="45.90519211131732" lon="12.043852452186513"><ele>298.0</ele><time>2026-04-25T09:23:05Z</time></trkpt><trkpt lat="45.9052152128847" lon="12.043960061730177"><ele>300.42857142857144</ele><time>2026-04-25T09:23:06Z</time></trkpt><trkpt lat="45.90524623880177" lon="12.044061865548578"><ele>302.85714285714283</ele><time>2026-04-25T09:23:07Z</time></trkpt><trkpt lat="45.90525553733828" lon="12.044168327639373"><ele>305.2857142857143</ele><time>2026-04-25T09:23:08Z</time></trkpt><trkpt lat="45.905268613262685" lon="12.0442682524121"><ele>307.7142857142857</ele><time>2026-04-25T09:23:09Z</time></trkpt><trkpt lat="45.90528638167005" lon="12.044362613769382"><ele>310.1428571428571</ele><time>2026-04-25T09:23:10Z</time></trkpt><trkpt lat="45.90530790717387" lon="12.044450808474451"><ele>312.57142857142856</ele><time>2026-04-25T09:23:11Z</time></trkpt><trkpt lat="45.905329790139966" lon="12.044536707064267"><ele>315.0</ele><time>2026-04-25T09:23:12Z</time></trkpt><trkpt lat="45.90535531424544" lon="12.044622111977445"><ele>315.0</ele><time>2026-04-25T09:23:12.999Z</time></trkpt><trkpt lat="45.90541454222966" lon="12.044782429232601"><ele>315.0</ele><time>2026-04-25T09:23:14.999Z</time></trkpt><trkpt lat="45.90544998335658" lon="12.044863023267421"><ele>315.0</ele><time>2026-04-25T09:23:15.999Z</time></trkpt><trkpt lat="45.90546941713859" lon="12.044952711980208"><ele>315.0</ele><time>2026-04-25T09:23:16.999Z</time></trkpt><trkpt lat="45.905517017875894" lon="12.045022454261778"><ele>315.0</ele><time>2026-04-25T09:23:17.999Z</time></trkpt><trkpt lat="45.90554987349617" lon="12.045103942792863"><ele>315.0</ele><time>2026-04-25T09:23:18.999Z</time></trkpt><trkpt lat="45.90558375111297" lon="12.045185058429125"><ele>313.7142857142857</ele><time>2026-04-25T09:23:19.999Z</time></trkpt><trkpt lat="45.90561735212376" lon="12.045264928082613"><ele>312.42857142857144</ele><time>2026-04-25T09:23:20.999Z</time></trkpt><trkpt lat="45.905650840764935" lon="12.045345404577457"><ele>311.1428571428571</ele><time>2026-04-25T09:23:21.999Z</time></trkpt><trkpt lat="45.90568129004051" lon="12.045427046456032"><ele>309.8571428571429</ele><time>2026-04-25T09:23:22.999Z</time></trkpt><trkpt lat="45.90570875536014" lon="12.045513821767521"><ele>308.57142857142856</ele><time>2026-04-25T09:23:23.999Z</time></trkpt><trkpt lat="45.90573384351225" lon="12.045601559976905"><ele>307.2857142857143</ele><time>2026-04-25T09:23:24.999Z</time></trkpt><trkpt lat="45.905752737175526" lon="12.04569244525421"><ele>306.0</ele><time>2026-04-25T09:23:25.999Z</time></trkpt><trkpt lat="45.90576501525807" lon="12.045782002015654"><ele>304.8333333333333</ele><time>2026-04-25T09:23:26.999Z</time></trkpt><trkpt lat="45.905775181163875" lon="12.045876905728466"><ele>303.6666666666667</ele><time>2026-04-25T09:23:27.999Z</time></trkpt><trkpt lat="45.905782613619884" lon="12.045971358995688"><ele>302.5</ele><time>2026-04-25T09:23:28.999Z</time></trkpt><trkpt lat="45.90578839903075" lon="12.046064412294129"><ele>301.33333333333337</ele><time>2026-04-25T09:23:29.999Z</time></trkpt><trkpt lat="45.90579525762362" lon="12.046158036580275"><ele>300.1666666666667</ele><time>2026-04-25T09:23:30.999Z</time></trkpt><trkpt lat="45.90580273837638" lon="12.046250370386122"><ele>299.0</ele><time>2026-04-25T09:23:31.999Z</time></trkpt><trkpt lat="45.90583398258786" lon="12.046421510892108"><ele>299.0</ele><time>2026-04-25T09:23:33.999Z</time></trkpt><trkpt lat="45.905872635411804" lon="12.046585707279537"><ele>299.0</ele><time>2026-04-25T09:23:35.999Z</time></trkpt><trkpt lat="45.90592425286611" lon="12.046736067578765"><ele>299.0</ele><time>2026-04-25T09:23:37.999Z</time></trkpt><trkpt lat="45.905975499404335" lon="12.046879556397375"><ele>299.0</ele><time>2026-04-25T09:23:39.999Z</time></trkpt><trkpt lat="45.90603545346075" lon="12.047011422154503"><ele>302.2</ele><time>2026-04-25T09:23:41.999Z</time></trkpt><trkpt lat="45.906070177263686" lon="12.047157987532161"><ele>305.4</ele><time>2026-04-25T09:23:43.999Z</time></trkpt><trkpt lat="45.90609720652837" lon="12.047311931584389"><ele>308.6</ele><time>2026-04-25T09:23:45.999Z</time></trkpt><trkpt lat="45.9061144283209" lon="12.047467572887605"><ele>311.8</ele><time>2026-04-25T09:23:47.999Z</time></trkpt><trkpt lat="45.90613245776986" lon="12.047618534045716"><ele>315.0</ele><time>2026-04-25T09:23:49.999Z</time></trkpt><trkpt lat="45.90615190840844" lon="12.047767087763503"><ele>315.0</ele><time>2026-04-25T09:23:51.999Z</time></trkpt><trkpt lat="45.90615207352563" lon="12.047924529175326"><ele>315.0</ele><time>2026-04-25T09:23:53.999Z</time></trkpt><trkpt lat="45.90616716562333" lon="12.04808332433565"><ele>315.0</ele><time>2026-04-25T09:23:55.999Z</time></trkpt><trkpt lat="45.90618647330038" lon="12.048243187747339"><ele>315.0</ele><time>2026-04-25T09:23:57.999Z</time></trkpt><trkpt lat="45.90622474373411" lon="12.04838773061537"><ele>315.0</ele><time>2026-04-25T09:23:59.999Z</time></trkpt><trkpt lat="45.90625484961865" lon="12.04852169439949"><ele>314.5</ele><time>2026-04-25T09:24:01.999Z</time></trkpt><trkpt lat="45.90629922383928" lon="12.048638485564393"><ele>314.0</ele><time>2026-04-25T09:24:03.998Z</time></trkpt><trkpt lat="45.906351181288066" lon="12.048738630978626"><ele>313.5</ele><time>2026-04-25T09:24:05.998Z</time></trkpt><trkpt lat="45.90641932920201" lon="12.048819563650863"><ele>313.0</ele><time>2026-04-25T09:24:07.998Z</time></trkpt><trkpt lat="45.90649289425153" lon="12.048883321395941"><ele>312.5</ele><time>2026-04-25T09:24:09.998Z</time></trkpt><trkpt lat="45.90656762854385" lon="12.048927658398561"><ele>312.0</ele><time>2026-04-25T09:24:11.998Z</time></trkpt><trkpt lat="45.90664765970775" lon="12.048953144979576"><ele>312.0</ele><time>2026-04-25T09:24:13.998Z</time></trkpt><trkpt lat="45.90672206955333" lon="12.048975411402516"><ele>312.0</ele><time>2026-04-25T09:24:15.998Z</time></trkpt><trkpt lat="45.906795988496434" lon="12.049004035213153"><ele>312.0</ele><time>2026-04-25T09:24:17.998Z</time></trkpt><trkpt lat="45.90687541121252" lon="12.049034269225015"><ele>312.0</ele><time>2026-04-25T09:24:19.998Z</time></trkpt><trkpt lat="45.906951758982814" lon="12.04905095098283"><ele>312.0</ele><time>2026-04-25T09:24:21.998Z</time></trkpt><trkpt lat="45.90702294331456" lon="12.049076135405402"><ele>312.0</ele><time>2026-04-25T09:24:23.998Z</time></trkpt><trkpt lat="45.907091630987765" lon="12.049099670089074"><ele>311.7142857142857</ele><time>2026-04-25T09:24:25.998Z</time></trkpt><trkpt lat="45.90716141946022" lon="12.049125505240953"><ele>311.4285714285714</ele><time>2026-04-25T09:24:27.998Z</time></trkpt><trkpt lat="45.907233216397316" lon="12.049140298925934"><ele>311.1428571428571</ele><time>2026-04-25T09:24:29.998Z</time></trkpt><trkpt lat="45.90730396558268" lon="12.049157588045265"><ele>310.8571428571429</ele><time>2026-04-25T09:24:31.998Z</time></trkpt><trkpt lat="45.907375002300746" lon="12.049182139248165"><ele>310.57142857142856</ele><time>2026-04-25T09:24:34.001Z</time></trkpt><trkpt lat="45.90744584765453" lon="12.049198088214302"><ele>310.2857142857143</ele><time>2026-04-25T09:24:36.001Z</time></trkpt><trkpt lat="45.90751534013552" lon="12.049220106058488"><ele>310.0</ele><time>2026-04-25T09:24:38.001Z</time></trkpt><trkpt lat="45.907588206662034" lon="12.049251040141552"><ele>312.6</ele><time>2026-04-25T09:24:41.001Z</time></trkpt><trkpt lat="45.90772066325707" lon="12.04934013105867"><ele>315.2</ele><time>2026-04-25T09:24:44.001Z</time></trkpt><trkpt lat="45.90778420247455" lon="12.04940002545098"><ele>317.79999999999995</ele><time>2026-04-25T09:24:46Z</time></trkpt><trkpt lat="45.90785694673006" lon="12.049456656337096"><ele>320.4</ele><time>2026-04-25T09:24:48Z</time></trkpt><trkpt lat="45.90792569630234" lon="12.04951470569672"><ele>323.0</ele><time>2026-04-25T09:24:50Z</time></trkpt><trkpt lat="45.90798827757439" lon="12.049575381554416"><ele>323.0</ele><time>2026-04-25T09:24:52Z</time></trkpt><trkpt lat="45.908058484427094" lon="12.04963249446764"><ele>323.0</ele><time>2026-04-25T09:24:54Z</time></trkpt><trkpt lat="45.908130739955084" lon="12.049707719984266"><ele>323.0</ele><time>2026-04-25T09:24:56Z</time></trkpt><trkpt lat="45.90820056098401" lon="12.049789692532562"><ele>323.0</ele><time>2026-04-25T09:24:58Z</time></trkpt><trkpt lat="45.90826425253652" lon="12.049854612649112"><ele>323.0</ele><time>2026-04-25T09:25:00Z</time></trkpt><trkpt lat="45.908338366268126" lon="12.04993938253669"><ele>323.0</ele><time>2026-04-25T09:25:02Z</time></trkpt><trkpt lat="45.90841411605567" lon="12.050014892546141"><ele>325.0</ele><time>2026-04-25T09:25:04Z</time></trkpt><trkpt lat="45.90847001201562" lon="12.050099120151568"><ele>327.0</ele><time>2026-04-25T09:25:06Z</time></trkpt><trkpt lat="45.90852621647113" lon="12.050208364751423"><ele>329.0</ele><time>2026-04-25T09:25:08Z</time></trkpt><trkpt lat="45.90859423129728" lon="12.05030749540934"><ele>331.0</ele><time>2026-04-25T09:25:10Z</time></trkpt><trkpt lat="45.908652782932336" lon="12.050422515527742"><ele>333.0</ele><time>2026-04-25T09:25:12Z</time></trkpt><trkpt lat="45.908720532374986" lon="12.05053483976489"><ele>333.0</ele><time>2026-04-25T09:25:14Z</time></trkpt><trkpt lat="45.90878110511335" lon="12.050646639397874"><ele>333.0</ele><time>2026-04-25T09:25:16Z</time></trkpt><trkpt lat="45.90885156186355" lon="12.050760026761424"><ele>333.0</ele><time>2026-04-25T09:25:18Z</time></trkpt><trkpt lat="45.90891731879228" lon="12.05088732367087"><ele>333.0</ele><time>2026-04-25T09:25:20Z</time></trkpt><trkpt lat="45.90899021757305" lon="12.050999683659976"><ele>333.0</ele><time>2026-04-25T09:25:22Z</time></trkpt><trkpt lat="45.909065975560665" lon="12.051125517368027"><ele>332.59999999999997</ele><time>2026-04-25T09:25:24Z</time></trkpt><trkpt lat="45.90913869017581" lon="12.051252552507838"><ele>332.2</ele><time>2026-04-25T09:25:26Z</time></trkpt><trkpt lat="45.90921673091395" lon="12.0513843295705"><ele>331.8</ele><time>2026-04-25T09:25:28Z</time></trkpt><trkpt lat="45.90929830657608" lon="12.05151804000855"><ele>331.4</ele><time>2026-04-25T09:25:30Z</time></trkpt><trkpt lat="45.90934638928339" lon="12.051578567846288"><ele>331.0</ele><time>2026-04-25T09:25:31Z</time></trkpt><trkpt lat="45.909390296437394" lon="12.05165134240863"><ele>331.0</ele><time>2026-04-25T09:25:32Z</time></trkpt><trkpt lat="45.90943740046195" lon="12.051724353158317"><ele>331.0</ele><time>2026-04-25T09:25:32.999Z</time></trkpt><trkpt lat="45.9094858500781" lon="12.051796163458157"><ele>331.0</ele><time>2026-04-25T09:25:33.999Z</time></trkpt><trkpt lat="45.90953246439277" lon="12.051870391474147"><ele>331.0</ele><time>2026-04-25T09:25:34.999Z</time></trkpt><trkpt lat="45.90956322943527" lon="12.051964302068392"><ele>331.0</ele><time>2026-04-25T09:25:35.999Z</time></trkpt><trkpt lat="45.90960795650723" lon="12.052050915836784"><ele>331.0</ele><time>2026-04-25T09:25:36.999Z</time></trkpt><trkpt lat="45.909649598916566" lon="12.05213482019001"><ele>331.0</ele><time>2026-04-25T09:25:37.999Z</time></trkpt><trkpt lat="45.90969346828789" lon="12.052226297616045"><ele>331.0</ele><time>2026-04-25T09:25:38.999Z</time></trkpt><trkpt lat="45.90973750994493" lon="12.05231883029662"><ele>331.0</ele><time>2026-04-25T09:25:39.999Z</time></trkpt><trkpt lat="45.90978149645854" lon="12.05241124666047"><ele>331.0</ele><time>2026-04-25T09:25:40.999Z</time></trkpt><trkpt lat="45.90982503491897" lon="12.052504692210682"><ele>331.0</ele><time>2026-04-25T09:25:41.999Z</time></trkpt><trkpt lat="45.90987063771217" lon="12.052600656383639"><ele>331.0</ele><time>2026-04-25T09:25:42.999Z</time></trkpt><trkpt lat="45.9099317380594" lon="12.052677630922592"><ele>331.0</ele><time>2026-04-25T09:25:43.999Z</time></trkpt><trkpt lat="45.90998653722817" lon="12.05276669354019"><ele>331.3333333333333</ele><time>2026-04-25T09:25:44.999Z</time></trkpt><trkpt lat="45.91004754732803" lon="12.052849025405706"><ele>331.66666666666663</ele><time>2026-04-25T09:25:45.999Z</time></trkpt><trkpt lat="45.91009452726341" lon="12.052944369922868"><ele>332.0</ele><time>2026-04-25T09:25:46.999Z</time></trkpt><trkpt lat="45.91015061963459" lon="12.053020854869343"><ele>332.3333333333333</ele><time>2026-04-25T09:25:47.999Z</time></trkpt><trkpt lat="45.9102045070836" lon="12.053093829731706"><ele>332.6666666666667</ele><time>2026-04-25T09:25:48.999Z</time></trkpt><trkpt lat="45.910260605020945" lon="12.053169536508495"><ele>333.0</ele><time>2026-04-25T09:25:49.999Z</time></trkpt><trkpt lat="45.9103149130674" lon="12.053241782225118"><ele>329.42857142857144</ele><time>2026-04-25T09:25:50.999Z</time></trkpt><trkpt lat="45.91037104484928" lon="12.053315180728646"><ele>325.85714285714283</ele><time>2026-04-25T09:25:51.999Z</time></trkpt><trkpt lat="45.91042536804497" lon="12.053382546276247"><ele>322.2857142857143</ele><time>2026-04-25T09:25:52.999Z</time></trkpt><trkpt lat="45.91048270011804" lon="12.053448131129432"><ele>318.7142857142857</ele><time>2026-04-25T09:25:53.999Z</time></trkpt><trkpt lat="45.91054564237469" lon="12.05350552116049"><ele>315.1428571428571</ele><time>2026-04-25T09:25:54.999Z</time></trkpt><trkpt lat="45.91061354982513" lon="12.053545847018095"><ele>311.57142857142856</ele><time>2026-04-25T09:25:55.999Z</time></trkpt><trkpt lat="45.91068912784936" lon="12.05354494678253"><ele>308.0</ele><time>2026-04-25T09:25:56.999Z</time></trkpt><trkpt lat="45.91075336706144" lon="12.053562145054563"><ele>308.0</ele><time>2026-04-25T09:25:57.999Z</time></trkpt><trkpt lat="45.91082057379294" lon="12.053561205882357"><ele>308.0</ele><time>2026-04-25T09:25:58.999Z</time></trkpt><trkpt lat="45.910931558508324" lon="12.053582650305664"><ele>308.0</ele><time>2026-04-25T09:26:00.999Z</time></trkpt><trkpt lat="45.91103374505641" lon="12.053566407517856"><ele>308.0</ele><time>2026-04-25T09:26:02.999Z</time></trkpt><trkpt lat="45.91111707232756" lon="12.053569888731962"><ele>308.0</ele><time>2026-04-25T09:26:04.999Z</time></trkpt><trkpt lat="45.91119533060819" lon="12.053567828032154"><ele>308.0</ele><time>2026-04-25T09:26:06.999Z</time></trkpt><trkpt lat="45.911271423578256" lon="12.053571031945376"><ele>308.7142857142857</ele><time>2026-04-25T09:26:08.999Z</time></trkpt><trkpt lat="45.91134389717213" lon="12.053578214669209"><ele>309.42857142857144</ele><time>2026-04-25T09:26:10.999Z</time></trkpt><trkpt lat="45.911417224989826" lon="12.053569714742322"><ele>310.1428571428571</ele><time>2026-04-25T09:26:12.999Z</time></trkpt><trkpt lat="45.911486563569404" lon="12.053564483389225"><ele>310.8571428571429</ele><time>2026-04-25T09:26:14.999Z</time></trkpt><trkpt lat="45.9115537502045" lon="12.05354473382493"><ele>311.57142857142856</ele><time>2026-04-25T09:26:16.999Z</time></trkpt><trkpt lat="45.911613741811" lon="12.053515675596122"><ele>312.2857142857143</ele><time>2026-04-25T09:26:18.999Z</time></trkpt><trkpt lat="45.91169599595787" lon="12.053470305729892"><ele>313.0</ele><time>2026-04-25T09:26:21.998Z</time></trkpt><trkpt lat="45.91178365070809" lon="12.053421902469568"><ele>313.0</ele><time>2026-04-25T09:26:24.998Z</time></trkpt><trkpt lat="45.91184629328406" lon="12.053330488001487"><ele>313.0</ele><time>2026-04-25T09:26:27.998Z</time></trkpt><trkpt lat="45.91192253998755" lon="12.053268788624406"><ele>313.0</ele><time>2026-04-25T09:26:30.998Z</time></trkpt><trkpt lat="45.91197920309187" lon="12.053177355035416"><ele>313.0</ele><time>2026-04-25T09:26:33.998Z</time></trkpt><trkpt lat="45.91204687467338" lon="12.05311256377861"><ele>313.0</ele><time>2026-04-25T09:26:36.998Z</time></trkpt><trkpt lat="45.912116344631166" lon="12.053067996360097"><ele>313.0</ele><time>2026-04-25T09:26:40Z</time></trkpt><trkpt lat="45.9121891581979" lon="12.053045843020637"><ele>314.85714285714283</ele><time>2026-04-25T09:26:43Z</time></trkpt><trkpt lat="45.91226250842461" lon="12.05305503967156"><ele>316.7142857142857</ele><time>2026-04-25T09:26:46Z</time></trkpt><trkpt lat="45.91233143968557" lon="12.053012579253188"><ele>318.57142857142856</ele><time>2026-04-25T09:26:49Z</time></trkpt><trkpt lat="45.912406573156524" lon="12.052997471022994"><ele>320.42857142857144</ele><time>2026-04-25T09:26:52Z</time></trkpt><trkpt lat="45.91247726165411" lon="12.052985601894173"><ele>322.2857142857143</ele><time>2026-04-25T09:26:55Z</time></trkpt><trkpt lat="45.91254837990279" lon="12.05296873673117"><ele>324.14285714285717</ele><time>2026-04-25T09:26:57.999Z</time></trkpt><trkpt lat="45.91262194659428" lon="12.052953760836923"><ele>326.0</ele><time>2026-04-25T09:27:00.999Z</time></trkpt><trkpt lat="45.912699811343295" lon="12.052935658274201"><ele>326.6666666666667</ele><time>2026-04-25T09:27:03.999Z</time></trkpt><trkpt lat="45.91277854541375" lon="12.05291561142405"><ele>327.33333333333337</ele><time>2026-04-25T09:27:06.999Z</time></trkpt><trkpt lat="45.91285771164208" lon="12.052897140697382"><ele>328.0</ele><time>2026-04-25T09:27:09.999Z</time></trkpt><trkpt lat="45.91293510154457" lon="12.052878176330294"><ele>328.6666666666667</ele><time>2026-04-25T09:27:12.999Z</time></trkpt><trkpt lat="45.9130117863056" lon="12.052861431115584"><ele>329.3333333333333</ele><time>2026-04-25T09:27:15.999Z</time></trkpt><trkpt lat="45.91308625943539" lon="12.052848498160552"><ele>330.0</ele><time>2026-04-25T09:27:18.999Z</time></trkpt><trkpt lat="45.913163152732196" lon="12.052833229874231"><ele>330.0</ele><time>2026-04-25T09:27:21.999Z</time></trkpt><trkpt lat="45.91323995360935" lon="12.052815581454867"><ele>330.0</ele><time>2026-04-25T09:27:24.999Z</time></trkpt><trkpt lat="45.91331646936968" lon="12.052802986325933"><ele>330.0</ele><time>2026-04-25T09:27:27.999Z</time></trkpt><trkpt lat="45.91338880518041" lon="12.052783508500047"><ele>330.0</ele><time>2026-04-25T09:27:30.999Z</time></trkpt><trkpt lat="45.913462115941876" lon="12.052771506706282"><ele>330.0</ele><time>2026-04-25T09:27:33.999Z</time></trkpt><trkpt lat="45.91353370776096" lon="12.052754210039588"><ele>330.0</ele><time>2026-04-25T09:27:36.999Z</time></trkpt><trkpt lat="45.913607607912475" lon="12.052736220012143"><ele>331.8333333333333</ele><time>2026-04-25T09:27:39.999Z</time></trkpt><trkpt lat="45.91368443294371" lon="12.052721450002585"><ele>333.6666666666667</ele><time>2026-04-25T09:27:42.999Z</time></trkpt><trkpt lat="45.91376417074985" lon="12.052712828747868"><ele>335.5</ele><time>2026-04-25T09:27:45.999Z</time></trkpt><trkpt lat="45.91384654081252" lon="12.052729584323956"><ele>337.33333333333337</ele><time>2026-04-25T09:27:48.998Z</time></trkpt><trkpt lat="45.913930745604254" lon="12.052783135989431"><ele>339.1666666666667</ele><time>2026-04-25T09:27:51.998Z</time></trkpt><trkpt lat="45.913979122702926" lon="12.05284390413054"><ele>341.0</ele><time>2026-04-25T09:27:53.998Z</time></trkpt><trkpt lat="45.91402493274757" lon="12.052914108277546"><ele>341.0</ele><time>2026-04-25T09:27:55.998Z</time></trkpt><trkpt lat="45.91408343237078" lon="12.053018002145139"><ele>341.0</ele><time>2026-04-25T09:27:58.998Z</time></trkpt><trkpt lat="45.91413405065849" lon="12.053111521259224"><ele>341.0</ele><time>2026-04-25T09:28:01.998Z</time></trkpt><trkpt lat="45.91418507802374" lon="12.053199896285077"><ele>341.0</ele><time>2026-04-25T09:28:04.998Z</time></trkpt><trkpt lat="45.91423324175789" lon="12.053288590040816"><ele>341.0</ele><time>2026-04-25T09:28:07.998Z</time></trkpt><trkpt lat="45.91428409335975" lon="12.053372793950393"><ele>341.0</ele><time>2026-04-25T09:28:10.998Z</time></trkpt><trkpt lat="45.91433126545201" lon="12.053455145834151"><ele>341.57142857142856</ele><time>2026-04-25T09:28:13.998Z</time></trkpt><trkpt lat="45.91437706315757" lon="12.053539082583299"><ele>342.14285714285717</ele><time>2026-04-25T09:28:16.998Z</time></trkpt><trkpt lat="45.91442074895859" lon="12.05362068574181"><ele>342.7142857142857</ele><time>2026-04-25T09:28:19.998Z</time></trkpt><trkpt lat="45.914464090891855" lon="12.0537056651322"><ele>343.2857142857143</ele><time>2026-04-25T09:28:22.998Z</time></trkpt><trkpt lat="45.914510694204665" lon="12.053784492157563"><ele>343.85714285714283</ele><time>2026-04-25T09:28:25.998Z</time></trkpt><trkpt lat="45.91455265503017" lon="12.053870735433991"><ele>344.42857142857144</ele><time>2026-04-25T09:28:28.998Z</time></trkpt><trkpt lat="45.91459561461252" lon="12.053955326923525"><ele>345.0</ele><time>2026-04-25T09:28:31.998Z</time></trkpt><trkpt lat="45.9146348665461" lon="12.054042805697868"><ele>344.0</ele><time>2026-04-25T09:28:34.998Z</time></trkpt><trkpt lat="45.91466425003853" lon="12.054139299519713"><ele>343.0</ele><time>2026-04-25T09:28:37.997Z</time></trkpt><trkpt lat="45.914690207228915" lon="12.054242844718233"><ele>342.0</ele><time>2026-04-25T09:28:40.997Z</time></trkpt><trkpt lat="45.91471598481192" lon="12.054353411280346"><ele>341.0</ele><time>2026-04-25T09:28:43.997Z</time></trkpt><trkpt lat="45.91473403840756" lon="12.054445462215595"><ele>340.0</ele><time>2026-04-25T09:28:46Z</time></trkpt><trkpt lat="45.914759753370625" lon="12.054537431129207"><ele>339.0</ele><time>2026-04-25T09:28:48Z</time></trkpt><trkpt lat="45.914778107610104" lon="12.054630153701714"><ele>338.0</ele><time>2026-04-25T09:28:50Z</time></trkpt><trkpt lat="45.91479306362524" lon="12.054722830000713"><ele>338.0</ele><time>2026-04-25T09:28:52Z</time></trkpt><trkpt lat="45.91482808234035" lon="12.054835869662266"><ele>338.0</ele><time>2026-04-25T09:28:55Z</time></trkpt><trkpt lat="45.91484822747063" lon="12.054953279838967"><ele>338.0</ele><time>2026-04-25T09:28:58Z</time></trkpt><trkpt lat="45.914876145906135" lon="12.0550655850423"><ele>338.0</ele><time>2026-04-25T09:29:01Z</time></trkpt><trkpt lat="45.914900122288415" lon="12.055173772143133"><ele>338.0</ele><time>2026-04-25T09:29:04Z</time></trkpt><trkpt lat="45.914918428100755" lon="12.055280587148165"><ele>338.0</ele><time>2026-04-25T09:29:07Z</time></trkpt><trkpt lat="45.91494035181373" lon="12.055389842222441"><ele>338.5</ele><time>2026-04-25T09:29:10Z</time></trkpt><trkpt lat="45.91494242914744" lon="12.05549649226014"><ele>339.0</ele><time>2026-04-25T09:29:13Z</time></trkpt><trkpt lat="45.91491598175349" lon="12.055591870564294"><ele>339.5</ele><time>2026-04-25T09:29:15.999Z</time></trkpt><trkpt lat="45.91486014952397" lon="12.055667090821972"><ele>340.0</ele><time>2026-04-25T09:29:18.999Z</time></trkpt><trkpt lat="45.914785010997115" lon="12.055711516768017"><ele>340.5</ele><time>2026-04-25T09:29:21.999Z</time></trkpt><trkpt lat="45.91470566845359" lon="12.055730810571884"><ele>341.0</ele><time>2026-04-25T09:29:24.999Z</time></trkpt><trkpt lat="45.91462634505508" lon="12.05573750201634"><ele>341.0</ele><time>2026-04-25T09:29:27.999Z</time></trkpt><trkpt lat="45.91454800497644" lon="12.055755202679839"><ele>341.0</ele><time>2026-04-25T09:29:30.999Z</time></trkpt><trkpt lat="45.91447316227324" lon="12.055784494021257"><ele>341.0</ele><time>2026-04-25T09:29:33.999Z</time></trkpt><trkpt lat="45.91440101863454" lon="12.055823899964555"><ele>341.0</ele><time>2026-04-25T09:29:36.999Z</time></trkpt><trkpt lat="45.91434208749124" lon="12.05588145097042"><ele>341.0</ele><time>2026-04-25T09:29:39.999Z</time></trkpt><trkpt lat="45.9143089319299" lon="12.055974205861927"><ele>341.0</ele><time>2026-04-25T09:29:42.999Z</time></trkpt><trkpt lat="45.91430271330449" lon="12.056087629321844"><ele>342.1428571428571</ele><time>2026-04-25T09:29:45.999Z</time></trkpt><trkpt lat="45.914326231765635" lon="12.056185935956476"><ele>343.2857142857143</ele><time>2026-04-25T09:29:48.999Z</time></trkpt><trkpt lat="45.91437645078883" lon="12.056264903820702"><ele>344.42857142857144</ele><time>2026-04-25T09:29:51.999Z</time></trkpt><trkpt lat="45.91443260485891" lon="12.056338366471795"><ele>345.57142857142856</ele><time>2026-04-25T09:29:54.999Z</time></trkpt><trkpt lat="45.914499554799576" lon="12.05639615984136"><ele>346.7142857142857</ele><time>2026-04-25T09:29:57.999Z</time></trkpt><trkpt lat="45.91456607650972" lon="12.056456358516813"><ele>347.85714285714283</ele><time>2026-04-25T09:30:00.999Z</time></trkpt><trkpt lat="45.91462507625067" lon="12.056505965993486"><ele>349.0</ele><time>2026-04-25T09:30:03.998Z</time></trkpt><trkpt lat="45.91469074291722" lon="12.056568413256091"><ele>349.4285714285714</ele><time>2026-04-25T09:30:06.998Z</time></trkpt><trkpt lat="45.91475030436723" lon="12.056629254377007"><ele>349.85714285714283</ele><time>2026-04-25T09:30:09.998Z</time></trkpt><trkpt lat="45.91481209703357" lon="12.056693601213434"><ele>350.2857142857143</ele><time>2026-04-25T09:30:12.998Z</time></trkpt><trkpt lat="45.91487107542349" lon="12.056753066280796"><ele>350.71428571428567</ele><time>2026-04-25T09:30:15.998Z</time></trkpt><trkpt lat="45.91493003333589" lon="12.056809090344407"><ele>351.1428571428571</ele><time>2026-04-25T09:30:18.998Z</time></trkpt><trkpt lat="45.91498283840684" lon="12.056875547824179"><ele>351.57142857142856</ele><time>2026-04-25T09:30:21.998Z</time></trkpt><trkpt lat="45.91503301626102" lon="12.056943127774565"><ele>352.0</ele><time>2026-04-25T09:30:24.998Z</time></trkpt><trkpt lat="45.915063987694275" lon="12.057032054692941"><ele>356.14285714285717</ele><time>2026-04-25T09:30:27.998Z</time></trkpt><trkpt lat="45.915092217280296" lon="12.057119634778854"><ele>360.2857142857143</ele><time>2026-04-25T09:30:30.998Z</time></trkpt><trkpt lat="45.915096385131434" lon="12.057214215542434"><ele>364.42857142857144</ele><time>2026-04-25T09:30:33.998Z</time></trkpt><trkpt lat="45.91509645611502" lon="12.057308326563254"><ele>368.57142857142856</ele><time>2026-04-25T09:30:36.998Z</time></trkpt><trkpt lat="45.91509351229721" lon="12.057407537125576"><ele>372.7142857142857</ele><time>2026-04-25T09:30:39.998Z</time></trkpt><trkpt lat="45.91509706631194" lon="12.057527445646244"><ele>376.85714285714283</ele><time>2026-04-25T09:30:43.998Z</time></trkpt><trkpt lat="45.91509316044361" lon="12.057623052191815"><ele>381.0</ele><time>2026-04-25T09:30:46.998Z</time></trkpt><trkpt lat="45.91508971428591" lon="12.057715004481071"><ele>381.0</ele><time>2026-04-25T09:30:50Z</time></trkpt><trkpt lat="45.91509338671736" lon="12.057809229300716"><ele>381.0</ele><time>2026-04-25T09:30:53Z</time></trkpt><trkpt lat="45.91509444392948" lon="12.057906733566407"><ele>381.0</ele><time>2026-04-25T09:30:56Z</time></trkpt><trkpt lat="45.915085156974534" lon="12.05800054442884"><ele>381.0</ele><time>2026-04-25T09:30:59Z</time></trkpt><trkpt lat="45.91508863312525" lon="12.058102058102678"><ele>381.0</ele><time>2026-04-25T09:31:02Z</time></trkpt><trkpt lat="45.9150904166154" lon="12.058202767594112"><ele>381.0</ele><time>2026-04-25T09:31:05Z</time></trkpt><trkpt lat="45.91508533460391" lon="12.058306428220583"><ele>381.0</ele><time>2026-04-25T09:31:08Z</time></trkpt><trkpt lat="45.915077118891176" lon="12.0584028858804"><ele>377.57142857142856</ele><time>2026-04-25T09:31:11Z</time></trkpt><trkpt lat="45.915052265977906" lon="12.058494808463317"><ele>374.14285714285717</ele><time>2026-04-25T09:31:14Z</time></trkpt><trkpt lat="45.91503158130332" lon="12.058583173301253"><ele>370.7142857142857</ele><time>2026-04-25T09:31:17Z</time></trkpt><trkpt lat="45.9149904877727" lon="12.058663247285716"><ele>367.2857142857143</ele><time>2026-04-25T09:31:19.999Z</time></trkpt><trkpt lat="45.914943717974744" lon="12.058737556641018"><ele>363.8571428571429</ele><time>2026-04-25T09:31:22.999Z</time></trkpt><trkpt lat="45.91489389900452" lon="12.05879996736424"><ele>360.42857142857144</ele><time>2026-04-25T09:31:25.999Z</time></trkpt><trkpt lat="45.91484957229532" lon="12.058864790165819"><ele>357.0</ele><time>2026-04-25T09:31:28.999Z</time></trkpt><trkpt lat="45.914809236654" lon="12.058966704384524"><ele>357.0</ele><time>2026-04-25T09:31:32.999Z</time></trkpt><trkpt lat="45.91479282104519" lon="12.059057466388749"><ele>357.0</ele><time>2026-04-25T09:31:35.999Z</time></trkpt><trkpt lat="45.914800996602274" lon="12.059151015458772"><ele>357.0</ele><time>2026-04-25T09:31:38.999Z</time></trkpt><trkpt lat="45.914832125204086" lon="12.05923659382667"><ele>357.0</ele><time>2026-04-25T09:31:41.999Z</time></trkpt><trkpt lat="45.91487843181383" lon="12.059317514696692"><ele>357.0</ele><time>2026-04-25T09:31:44.999Z</time></trkpt><trkpt lat="45.91493799561898" lon="12.059386036033882"><ele>357.0</ele><time>2026-04-25T09:31:47.999Z</time></trkpt><trkpt lat="45.914998082740844" lon="12.059451733797768"><ele>357.0</ele><time>2026-04-25T09:31:50.999Z</time></trkpt><trkpt lat="45.91506575006483" lon="12.059493242635366"><ele>360.8333333333333</ele><time>2026-04-25T09:31:53.999Z</time></trkpt><trkpt lat="45.91513648414897" lon="12.059513900242113"><ele>364.6666666666667</ele><time>2026-04-25T09:31:56.999Z</time></trkpt><trkpt lat="45.91521542811122" lon="12.059506896714455"><ele>368.5</ele><time>2026-04-25T09:31:59.999Z</time></trkpt><trkpt lat="45.9152976196426" lon="12.059493489319761"><ele>372.33333333333337</ele><time>2026-04-25T09:32:02.998Z</time></trkpt><trkpt lat="45.91537363756685" lon="12.05946862111716"><ele>376.1666666666667</ele><time>2026-04-25T09:32:05.998Z</time></trkpt><trkpt lat="45.915449704695135" lon="12.059461061847877"><ele>380.0</ele><time>2026-04-25T09:32:08.998Z</time></trkpt><trkpt lat="45.91552534277298" lon="12.05945845145474"><ele>380.0</ele><time>2026-04-25T09:32:11.998Z</time></trkpt><trkpt lat="45.91560318176977" lon="12.059487138026354"><ele>380.0</ele><time>2026-04-25T09:32:14.998Z</time></trkpt><trkpt lat="45.91567883339078" lon="12.059523495338729"><ele>380.0</ele><time>2026-04-25T09:32:17.998Z</time></trkpt><trkpt lat="45.915753475586286" lon="12.059564446474157"><ele>380.0</ele><time>2026-04-25T09:32:20.998Z</time></trkpt><trkpt lat="45.91582210670612" lon="12.059605185820976"><ele>380.0</ele><time>2026-04-25T09:32:23.998Z</time></trkpt><trkpt lat="45.91589005734554" lon="12.059659307319139"><ele>380.0</ele><time>2026-04-25T09:32:26.998Z</time></trkpt><trkpt lat="45.91595721976169" lon="12.059704561519203"><ele>381.1666666666667</ele><time>2026-04-25T09:32:29.998Z</time></trkpt><trkpt lat="45.91602924004315" lon="12.059742515414044"><ele>382.33333333333337</ele><time>2026-04-25T09:32:32.998Z</time></trkpt><trkpt lat="45.91609796747925" lon="12.05979735579051"><ele>383.5</ele><time>2026-04-25T09:32:35.998Z</time></trkpt><trkpt lat="45.91616571516831" lon="12.05984345605777"><ele>384.6666666666667</ele><time>2026-04-25T09:32:38.998Z</time></trkpt><trkpt lat="45.91623167031404" lon="12.059884805215045"><ele>385.8333333333333</ele><time>2026-04-25T09:32:41.998Z</time></trkpt><trkpt lat="45.91630216638142" lon="12.059931175006064"><ele>387.0</ele><time>2026-04-25T09:32:44.998Z</time></trkpt><trkpt lat="45.91637097202746" lon="12.05997671625722"><ele>387.0</ele><time>2026-04-25T09:32:47.998Z</time></trkpt><trkpt lat="45.916439232716996" lon="12.060027825383589"><ele>387.0</ele><time>2026-04-25T09:32:50.997Z</time></trkpt><trkpt lat="45.91650744641011" lon="12.060071418602055"><ele>387.0</ele><time>2026-04-25T09:32:53.997Z</time></trkpt><trkpt lat="45.916571280051855" lon="12.060117566298773"><ele>387.0</ele><time>2026-04-25T09:32:57Z</time></trkpt><trkpt lat="45.91664124790897" lon="12.060165350620851"><ele>387.0</ele><time>2026-04-25T09:33:00Z</time></trkpt><trkpt lat="45.916701696236665" lon="12.060234806255377"><ele>387.0</ele><time>2026-04-25T09:33:03Z</time></trkpt><trkpt lat="45.916758944115244" lon="12.060308106360804"><ele>392.1666666666667</ele><time>2026-04-25T09:33:06Z</time></trkpt><trkpt lat="45.91679787242" lon="12.06040183740932"><ele>397.33333333333337</ele><time>2026-04-25T09:33:09Z</time></trkpt><trkpt lat="45.91682645758719" lon="12.06049562206233"><ele>402.5</ele><time>2026-04-25T09:33:12Z</time></trkpt><trkpt lat="45.91683876289193" lon="12.060594482076175"><ele>407.6666666666667</ele><time>2026-04-25T09:33:15Z</time></trkpt><trkpt lat="45.916842215240216" lon="12.06070347677427"><ele>412.83333333333337</ele><time>2026-04-25T09:33:18Z</time></trkpt><trkpt lat="45.9168389438738" lon="12.060815260766377"><ele>418.0</ele><time>2026-04-25T09:33:21Z</time></trkpt><trkpt lat="45.91683523315132" lon="12.060929613964465"><ele>418.00000000000006</ele><time>2026-04-25T09:33:24Z</time></trkpt><trkpt lat="45.91682998602061" lon="12.061047166808534"><ele>418.0</ele><time>2026-04-25T09:33:27Z</time></trkpt><trkpt lat="45.916828371893395" lon="12.061158026185407"><ele>418.0</ele><time>2026-04-25T09:33:30Z</time></trkpt><trkpt lat="45.916824357477374" lon="12.061266559833049"><ele>418.0</ele><time>2026-04-25T09:33:33Z</time></trkpt><trkpt lat="45.9168183693118" lon="12.06137878464181"><ele>418.00000000000006</ele><time>2026-04-25T09:33:36Z</time></trkpt><trkpt lat="45.91681152932511" lon="12.061494657622424"><ele>418.0</ele><time>2026-04-25T09:33:39Z</time></trkpt><trkpt lat="45.91680920534561" lon="12.061611682771812"><ele>416.7142857142857</ele><time>2026-04-25T09:33:42Z</time></trkpt><trkpt lat="45.91680452848119" lon="12.061717509915873"><ele>415.42857142857144</ele><time>2026-04-25T09:33:45Z</time></trkpt><trkpt lat="45.916799233340136" lon="12.06182288629027"><ele>414.1428571428571</ele><time>2026-04-25T09:33:47.999Z</time></trkpt><trkpt lat="45.91679976454386" lon="12.061927717210919"><ele>412.8571428571429</ele><time>2026-04-25T09:33:50.999Z</time></trkpt><trkpt lat="45.91679665844049" lon="12.06202875935487"><ele>411.5714285714286</ele><time>2026-04-25T09:33:53.999Z</time></trkpt><trkpt lat="45.91679296282552" lon="12.062133639285515"><ele>410.2857142857143</ele><time>2026-04-25T09:33:56.999Z</time></trkpt><trkpt lat="45.916813087608" lon="12.062236583344678"><ele>409.0</ele><time>2026-04-25T09:33:59.999Z</time></trkpt><trkpt lat="45.91685156369477" lon="12.062324792705285"><ele>409.00000000000006</ele><time>2026-04-25T09:34:02.999Z</time></trkpt><trkpt lat="45.916906349609846" lon="12.062402616135408"><ele>409.0</ele><time>2026-04-25T09:34:05.999Z</time></trkpt><trkpt lat="45.9169782437476" lon="12.062456664643921"><ele>409.0</ele><time>2026-04-25T09:34:08.999Z</time></trkpt><trkpt lat="45.91705722917063" lon="12.062472576165945"><ele>409.0</ele><time>2026-04-25T09:34:11.999Z</time></trkpt><trkpt lat="45.91712690088599" lon="12.062500277955722"><ele>409.00000000000006</ele><time>2026-04-25T09:34:14.999Z</time></trkpt><trkpt lat="45.91719415431416" lon="12.062519095969966"><ele>409.0</ele><time>2026-04-25T09:34:17.999Z</time></trkpt><trkpt lat="45.91726751916666" lon="12.062537014295437"><ele>408.00000000000006</ele><time>2026-04-25T09:35:07.999Z</time></trkpt><trkpt lat="45.917337336520326" lon="12.062550541578604"><ele>407.0</ele><time>2026-04-25T09:35:10.999Z</time></trkpt><trkpt lat="45.91740256741306" lon="12.062558565679016"><ele>406.0</ele><time>2026-04-25T09:35:13.999Z</time></trkpt><trkpt lat="45.91747051751341" lon="12.062565442894561"><ele>405.0</ele><time>2026-04-25T09:35:16.999Z</time></trkpt><trkpt lat="45.917544570815835" lon="12.062552588195864"><ele>404.00000000000006</ele><time>2026-04-25T09:35:19.999Z</time></trkpt><trkpt lat="45.917618041741164" lon="12.062505306640206"><ele>403.0</ele><time>2026-04-25T09:35:22.999Z</time></trkpt><trkpt lat="45.9176909572294" lon="12.062427686671114"><ele>407.5714285714286</ele><time>2026-04-25T09:35:25.999Z</time></trkpt><trkpt lat="45.91774511628472" lon="12.062371110032378"><ele>412.1428571428571</ele><time>2026-04-25T09:35:27.999Z</time></trkpt><trkpt lat="45.91779858329974" lon="12.06231304524464"><ele>416.7142857142857</ele><time>2026-04-25T09:35:29.999Z</time></trkpt><trkpt lat="45.91785497596457" lon="12.06226547124542"><ele>421.28571428571433</ele><time>2026-04-25T09:35:31.999Z</time></trkpt><trkpt lat="45.91791831139679" lon="12.06224099559738"><ele>425.8571428571429</ele><time>2026-04-25T09:35:33.999Z</time></trkpt><trkpt lat="45.91798224745737" lon="12.062233043364387"><ele>430.42857142857144</ele><time>2026-04-25T09:35:35.999Z</time></trkpt><trkpt lat="45.91807094681398" lon="12.062248829295271"><ele>435.0</ele><time>2026-04-25T09:35:38.999Z</time></trkpt><trkpt lat="45.91815603891207" lon="12.062284414728147"><ele>435.0</ele><time>2026-04-25T09:35:41.999Z</time></trkpt><trkpt lat="45.918239353581825" lon="12.062340771383136"><ele>435.0</ele><time>2026-04-25T09:35:44.999Z</time></trkpt><trkpt lat="45.918320955316965" lon="12.062394638250693"><ele>435.0</ele><time>2026-04-25T09:35:47.999Z</time></trkpt><trkpt lat="45.918378808454946" lon="12.062431019589258"><ele>435.0</ele><time>2026-04-25T09:35:49.999Z</time></trkpt><trkpt lat="45.91843667797986" lon="12.062467914714574"><ele>435.0</ele><time>2026-04-25T09:35:51.999Z</time></trkpt><trkpt lat="45.91852407402922" lon="12.06251951128055"><ele>435.0</ele><time>2026-04-25T09:35:54.999Z</time></trkpt><trkpt lat="45.9186098477967" lon="12.062574645449255"><ele>433.5714285714286</ele><time>2026-04-25T09:35:57.999Z</time></trkpt><trkpt lat="45.918697130833756" lon="12.062621331731354"><ele>432.14285714285717</ele><time>2026-04-25T09:36:00.998Z</time></trkpt><trkpt lat="45.918755522138845" lon="12.062656591688098"><ele>430.7142857142857</ele><time>2026-04-25T09:36:02.998Z</time></trkpt><trkpt lat="45.91881554608341" lon="12.06269078869392"><ele>429.28571428571433</ele><time>2026-04-25T09:36:04.998Z</time></trkpt><trkpt lat="45.9188752005373" lon="12.062727419664116"><ele>427.85714285714283</ele><time>2026-04-25T09:36:06.998Z</time></trkpt><trkpt lat="45.918936339342515" lon="12.06276276030897"><ele>426.42857142857144</ele><time>2026-04-25T09:36:08.998Z</time></trkpt><trkpt lat="45.91899681490482" lon="12.06279836150653"><ele>425.0</ele><time>2026-04-25T09:36:10.998Z</time></trkpt><trkpt lat="45.91905640487102" lon="12.062832546727105"><ele>425.0</ele><time>2026-04-25T09:36:12.998Z</time></trkpt><trkpt lat="45.91911437201342" lon="12.062869369254457"><ele>425.0</ele><time>2026-04-25T09:36:14.998Z</time></trkpt><trkpt lat="45.91920090313058" lon="12.062921359067934"><ele>425.0</ele><time>2026-04-25T09:36:17.998Z</time></trkpt><trkpt lat="45.91926011418811" lon="12.062957443623773"><ele>425.0</ele><time>2026-04-25T09:36:19.998Z</time></trkpt><trkpt lat="45.919318352973775" lon="12.06299614814995"><ele>425.0</ele><time>2026-04-25T09:36:21.998Z</time></trkpt><trkpt lat="45.91937934566951" lon="12.063034267914936"><ele>425.0</ele><time>2026-04-25T09:36:23.998Z</time></trkpt><trkpt lat="45.919438884400854" lon="12.063072807355223"><ele>425.0</ele><time>2026-04-25T09:36:25.998Z</time></trkpt><trkpt lat="45.91950069906335" lon="12.063109635660025"><ele>425.66666666666663</ele><time>2026-04-25T09:36:27.998Z</time></trkpt><trkpt lat="45.91956062302787" lon="12.063138416725725"><ele>426.3333333333333</ele><time>2026-04-25T09:36:29.998Z</time></trkpt><trkpt lat="45.91962954143624" lon="12.063156462082475"><ele>427.0</ele><time>2026-04-25T09:36:32.998Z</time></trkpt><trkpt lat="45.91971282126108" lon="12.06314825588659"><ele>427.66666666666663</ele><time>2026-04-25T09:36:35.998Z</time></trkpt><trkpt lat="45.919792868667756" lon="12.063116474050787"><ele>428.3333333333333</ele><time>2026-04-25T09:36:38.998Z</time></trkpt><trkpt lat="45.91987813442959" lon="12.063051173378263"><ele>429.0</ele><time>2026-04-25T09:36:41.998Z</time></trkpt><trkpt lat="45.91994080433905" lon="12.062992417324086"><ele>429.0</ele><time>2026-04-25T09:36:43.998Z</time></trkpt><trkpt lat="45.920001206209506" lon="12.062922746050946"><ele>429.0</ele><time>2026-04-25T09:36:45.998Z</time></trkpt><trkpt lat="45.92006561437477" lon="12.062860090167556"><ele>429.0</ele><time>2026-04-25T09:36:47.998Z</time></trkpt><trkpt lat="45.92013058893051" lon="12.06278300529148"><ele>429.0</ele><time>2026-04-25T09:36:49.997Z</time></trkpt><trkpt lat="45.92019488705716" lon="12.062703290638602"><ele>429.0</ele><time>2026-04-25T09:36:51.997Z</time></trkpt><trkpt lat="45.920269100105116" lon="12.06263316130151"><ele>429.0</ele><time>2026-04-25T09:36:53.997Z</time></trkpt><trkpt lat="45.92033917677081" lon="12.062543093996755"><ele>427.6</ele><time>2026-04-25T09:36:55.997Z</time></trkpt><trkpt lat="45.920408936442236" lon="12.06245051380361"><ele>426.2</ele><time>2026-04-25T09:36:57.997Z</time></trkpt><trkpt lat="45.92047044505562" lon="12.062340888651692"><ele>424.8</ele><time>2026-04-25T09:36:59.997Z</time></trkpt><trkpt lat="45.92052103563507" lon="12.062218352954991"><ele>423.40000000000003</ele><time>2026-04-25T09:37:01.997Z</time></trkpt><trkpt lat="45.92055622392179" lon="12.06208688564218"><ele>422.0</ele><time>2026-04-25T09:37:03.997Z</time></trkpt><trkpt lat="45.92058692246843" lon="12.061950719527642"><ele>422.0</ele><time>2026-04-25T09:37:05.999Z</time></trkpt><trkpt lat="45.920626430944765" lon="12.061817250300859"><ele>422.0</ele><time>2026-04-25T09:37:07.999Z</time></trkpt><trkpt lat="45.92068116589613" lon="12.06169342910994"><ele>422.0</ele><time>2026-04-25T09:37:09.999Z</time></trkpt><trkpt lat="45.92075156756739" lon="12.061581129970582"><ele>422.0</ele><time>2026-04-25T09:37:11.999Z</time></trkpt><trkpt lat="45.92083430316656" lon="12.061492216201456"><ele>422.0</ele><time>2026-04-25T09:37:13.999Z</time></trkpt><trkpt lat="45.920922875293854" lon="12.061413951507994"><ele>427.20000000000005</ele><time>2026-04-25T09:37:15.999Z</time></trkpt><trkpt lat="45.921011910013256" lon="12.061356497286337"><ele>432.4</ele><time>2026-04-25T09:37:18Z</time></trkpt><trkpt lat="45.92109561559996" lon="12.061310115071318"><ele>437.59999999999997</ele><time>2026-04-25T09:37:20Z</time></trkpt><trkpt lat="45.921192475269564" lon="12.061310928847494"><ele>442.79999999999995</ele><time>2026-04-25T09:37:21.999Z</time></trkpt><trkpt lat="45.92127823242838" lon="12.061356782794427"><ele>448.0</ele><time>2026-04-25T09:37:23.999Z</time></trkpt><trkpt lat="45.92134457535682" lon="12.061423322386306"><ele>448.00000000000006</ele><time>2026-04-25T09:37:25.999Z</time></trkpt><trkpt lat="45.92139725759579" lon="12.061501324876795"><ele>448.0</ele><time>2026-04-25T09:37:27.999Z</time></trkpt><trkpt lat="45.92143121622058" lon="12.061600606190563"><ele>448.0</ele><time>2026-04-25T09:37:29.999Z</time></trkpt><trkpt lat="45.921453085061735" lon="12.061706543833912"><ele>448.0</ele><time>2026-04-25T09:37:31.999Z</time></trkpt><trkpt lat="45.92145793379777" lon="12.06181346782376"><ele>448.00000000000006</ele><time>2026-04-25T09:37:33.999Z</time></trkpt><trkpt lat="45.921459563502275" lon="12.061921398245829"><ele>448.0</ele><time>2026-04-25T09:37:35.999Z</time></trkpt><trkpt lat="45.92146607518742" lon="12.062024745875087"><ele>445.33333333333337</ele><time>2026-04-25T09:37:37.999Z</time></trkpt><trkpt lat="45.921480424727676" lon="12.062131208452877"><ele>442.6666666666667</ele><time>2026-04-25T09:37:39.999Z</time></trkpt><trkpt lat="45.92149504106795" lon="12.062240741301919"><ele>440.0</ele><time>2026-04-25T09:37:41.999Z</time></trkpt><trkpt lat="45.92151795233818" lon="12.062356056635831"><ele>437.33333333333337</ele><time>2026-04-25T09:37:43.999Z</time></trkpt><trkpt lat="45.92154452639552" lon="12.06247518633599"><ele>434.6666666666667</ele><time>2026-04-25T09:37:45.999Z</time></trkpt><trkpt lat="45.92156841995095" lon="12.06259683013386"><ele>432.0</ele><time>2026-04-25T09:37:47.999Z</time></trkpt><trkpt lat="45.92159773586" lon="12.062716620393896"><ele>429.3333333333333</ele><time>2026-04-25T09:37:49.999Z</time></trkpt><trkpt lat="45.92162820486622" lon="12.06283635448421"><ele>426.66666666666663</ele><time>2026-04-25T09:37:51.999Z</time></trkpt><trkpt lat="45.921656857101915" lon="12.062957996576321"><ele>424.0</ele><time>2026-04-25T09:37:53.999Z</time></trkpt><trkpt lat="45.92168272866917" lon="12.063084039954186"><ele>421.3333333333333</ele><time>2026-04-25T09:37:55.999Z</time></trkpt><trkpt lat="45.921710074488665" lon="12.06320793438853"><ele>418.66666666666663</ele><time>2026-04-25T09:37:57.999Z</time></trkpt><trkpt lat="45.92174082640784" lon="12.063327209232384"><ele>416.0</ele><time>2026-04-25T09:37:59.999Z</time></trkpt><trkpt lat="45.92178925325574" lon="12.063433776390468"><ele>415.6</ele><time>2026-04-25T09:38:01.999Z</time></trkpt><trkpt lat="45.92186192898238" lon="12.063506223255171"><ele>415.20000000000005</ele><time>2026-04-25T09:38:03.999Z</time></trkpt><trkpt lat="45.92195578844302" lon="12.063531281503314"><ele>414.79999999999995</ele><time>2026-04-25T09:38:05.999Z</time></trkpt><trkpt lat="45.92205507642935" lon="12.063497023343354"><ele>414.4</ele><time>2026-04-25T09:38:07.999Z</time></trkpt><trkpt lat="45.922154774728874" lon="12.063449107216769"><ele>414.0</ele><time>2026-04-25T09:38:09.999Z</time></trkpt><trkpt lat="45.92225008986119" lon="12.063381156712758"><ele>414.0</ele><time>2026-04-25T09:38:11.999Z</time></trkpt><trkpt lat="45.92234365876625" lon="12.063306819985808"><ele>414.0</ele><time>2026-04-25T09:38:13.999Z</time></trkpt><trkpt lat="45.92243547444653" lon="12.063232469463083"><ele>414.0</ele><time>2026-04-25T09:38:15.999Z</time></trkpt><trkpt lat="45.92251408839373" lon="12.06313110572194"><ele>414.0</ele><time>2026-04-25T09:38:17.998Z</time></trkpt><trkpt lat="45.92257577454074" lon="12.063006113587319"><ele>414.0</ele><time>2026-04-25T09:38:19.998Z</time></trkpt><trkpt lat="45.92261850187352" lon="12.062857819106224"><ele>413.4</ele><time>2026-04-25T09:38:21.998Z</time></trkpt><trkpt lat="45.922650573887374" lon="12.062706247825316"><ele>412.79999999999995</ele><time>2026-04-25T09:38:23.998Z</time></trkpt><trkpt lat="45.92269394754517" lon="12.062561039573703"><ele>412.20000000000005</ele><time>2026-04-25T09:38:25.998Z</time></trkpt><trkpt lat="45.92274955520677" lon="12.062438114522882"><ele>411.6</ele><time>2026-04-25T09:38:27.998Z</time></trkpt><trkpt lat="45.92283553260863" lon="12.062353919092173"><ele>411.0</ele><time>2026-04-25T09:38:29.998Z</time></trkpt><trkpt lat="45.922924116215725" lon="12.062297844272436"><ele>414.6666666666667</ele><time>2026-04-25T09:38:31.998Z</time></trkpt><trkpt lat="45.923014864035295" lon="12.062260515705525"><ele>418.33333333333337</ele><time>2026-04-25T09:38:33.998Z</time></trkpt><trkpt lat="45.92310418655116" lon="12.062210384053202"><ele>422.0</ele><time>2026-04-25T09:38:35.998Z</time></trkpt><trkpt lat="45.92320010472455" lon="12.062127348306994"><ele>425.6666666666667</ele><time>2026-04-25T09:38:37.998Z</time></trkpt><trkpt lat="45.923252648790914" lon="12.06207308126743"><ele>429.33333333333337</ele><time>2026-04-25T09:38:38.998Z</time></trkpt><trkpt lat="45.92329814811295" lon="12.06200592036147"><ele>433.0</ele><time>2026-04-25T09:38:39.998Z</time></trkpt><trkpt lat="45.9233454311323" lon="12.061941686649856"><ele>432.50000000000006</ele><time>2026-04-25T09:38:40.998Z</time></trkpt><trkpt lat="45.923402190952245" lon="12.06188021881933"><ele>432.0</ele><time>2026-04-25T09:38:41.998Z</time></trkpt><trkpt lat="45.923460618432195" lon="12.061814329291568"><ele>431.5</ele><time>2026-04-25T09:38:42.998Z</time></trkpt><trkpt lat="45.92351777659678" lon="12.061747468439979"><ele>431.0</ele><time>2026-04-25T09:38:43.998Z</time></trkpt><trkpt lat="45.92357496341509" lon="12.061679320447812"><ele>430.50000000000006</ele><time>2026-04-25T09:38:44.998Z</time></trkpt><trkpt lat="45.923631821837354" lon="12.061606917887019"><ele>430.0</ele><time>2026-04-25T09:38:45.998Z</time></trkpt><trkpt lat="45.92370294213453" lon="12.06155306220408"><ele>430.00000000000006</ele><time>2026-04-25T09:38:46.998Z</time></trkpt><trkpt lat="45.92376242494566" lon="12.061480590302263"><ele>430.0</ele><time>2026-04-25T09:38:47.998Z</time></trkpt><trkpt lat="45.92381319644116" lon="12.061390080970494"><ele>430.0</ele><time>2026-04-25T09:38:48.998Z</time></trkpt><trkpt lat="45.923875676840375" lon="12.061316080167026"><ele>430.0</ele><time>2026-04-25T09:38:49.998Z</time></trkpt><trkpt lat="45.92393770796112" lon="12.06124113515511"><ele>430.00000000000006</ele><time>2026-04-25T09:38:50.998Z</time></trkpt><trkpt lat="45.92400776396192" lon="12.061191576560267"><ele>430.0</ele><time>2026-04-25T09:38:51.998Z</time></trkpt><trkpt lat="45.924065082407544" lon="12.061113194165198"><ele>430.00000000000006</ele><time>2026-04-25T09:38:52.998Z</time></trkpt><trkpt lat="45.924144070543726" lon="12.06107401268604"><ele>430.0</ele><time>2026-04-25T09:38:53.998Z</time></trkpt><trkpt lat="45.924225487157656" lon="12.061071895865252"><ele>430.0</ele><time>2026-04-25T09:38:54.998Z</time></trkpt><trkpt lat="45.92430120321473" lon="12.061124140373186"><ele>430.0</ele><time>2026-04-25T09:38:55.998Z</time></trkpt><trkpt lat="45.92435605066076" lon="12.06122827777733"><ele>430.00000000000006</ele><time>2026-04-25T09:38:56.998Z</time></trkpt><trkpt lat="45.924376585447405" lon="12.061349180773806"><ele>430.0</ele><time>2026-04-25T09:38:57.998Z</time></trkpt><trkpt lat="45.92436304052321" lon="12.061469458537966"><ele>431.1428571428571</ele><time>2026-04-25T09:38:58.998Z</time></trkpt><trkpt lat="45.92433629218661" lon="12.06157319018087"><ele>432.28571428571433</ele><time>2026-04-25T09:38:59.998Z</time></trkpt><trkpt lat="45.92431217900064" lon="12.061677182626132"><ele>433.42857142857144</ele><time>2026-04-25T09:39:00.998Z</time></trkpt><trkpt lat="45.92429572513808" lon="12.061782008720499"><ele>434.57142857142856</ele><time>2026-04-25T09:39:01.998Z</time></trkpt><trkpt lat="45.924282541058886" lon="12.061882401762482"><ele>435.71428571428567</ele><time>2026-04-25T09:39:02.998Z</time></trkpt><trkpt lat="45.924277139597585" lon="12.06198354482706"><ele>436.8571428571429</ele><time>2026-04-25T09:39:03.998Z</time></trkpt><trkpt lat="45.92427703783504" lon="12.06207987750321"><ele>438.0</ele><time>2026-04-25T09:39:04.998Z</time></trkpt><trkpt lat="45.924284135047664" lon="12.062174435861893"><ele>438.0</ele><time>2026-04-25T09:39:05.998Z</time></trkpt><trkpt lat="45.92430761997054" lon="12.062261489866854"><ele>438.0</ele><time>2026-04-25T09:39:06.998Z</time></trkpt><trkpt lat="45.92439289814828" lon="12.062392574014043"><ele>438.0</ele><time>2026-04-25T09:39:08.997Z</time></trkpt><trkpt lat="45.9245088506021" lon="12.062451603914868"><ele>438.0</ele><time>2026-04-25T09:39:11Z</time></trkpt><trkpt lat="45.92457245217763" lon="12.062456203835552"><ele>438.0</ele><time>2026-04-25T09:39:12Z</time></trkpt><trkpt lat="45.924639062588916" lon="12.062461026916314"><ele>438.0</ele><time>2026-04-25T09:39:13Z</time></trkpt><trkpt lat="45.92470620229832" lon="12.062471244277441"><ele>436.7142857142857</ele><time>2026-04-25T09:39:14Z</time></trkpt><trkpt lat="45.924774053176584" lon="12.062479898689121"><ele>435.4285714285714</ele><time>2026-04-25T09:39:15Z</time></trkpt><trkpt lat="45.92484088254654" lon="12.062498512068114"><ele>434.1428571428571</ele><time>2026-04-25T09:39:16Z</time></trkpt><trkpt lat="45.92491086991398" lon="12.062525273155524"><ele>432.8571428571429</ele><time>2026-04-25T09:39:17Z</time></trkpt><trkpt lat="45.92498066583265" lon="12.06256207543895"><ele>431.57142857142856</ele><time>2026-04-25T09:39:18Z</time></trkpt><trkpt lat="45.925048226744366" lon="12.062605064324124"><ele>430.2857142857143</ele><time>2026-04-25T09:39:19Z</time></trkpt><trkpt lat="45.92511833918519" lon="12.062662796145771"><ele>429.0</ele><time>2026-04-25T09:39:20Z</time></trkpt><trkpt lat="45.925181509328375" lon="12.062733248711522"><ele>429.0</ele><time>2026-04-25T09:39:21Z</time></trkpt><trkpt lat="45.92524163330391" lon="12.062814224055058"><ele>429.0</ele><time>2026-04-25T09:39:22Z</time></trkpt><trkpt lat="45.925300207417216" lon="12.06289683893785"><ele>429.0</ele><time>2026-04-25T09:39:23Z</time></trkpt><trkpt lat="45.92536330161046" lon="12.06297374029855"><ele>429.0</ele><time>2026-04-25T09:39:24Z</time></trkpt><trkpt lat="45.92542610120168" lon="12.063049424312437"><ele>429.0</ele><time>2026-04-25T09:39:25Z</time></trkpt><trkpt lat="45.92548991956807" lon="12.063123559708847"><ele>429.0</ele><time>2026-04-25T09:39:26Z</time></trkpt><trkpt lat="45.92556112303297" lon="12.063172966455605"><ele>429.0</ele><time>2026-04-25T09:39:27Z</time></trkpt><trkpt lat="45.92563912559657" lon="12.063194814580216"><ele>429.0</ele><time>2026-04-25T09:39:28Z</time></trkpt><trkpt lat="45.92571602075418" lon="12.063185266637923"><ele>429.0</ele><time>2026-04-25T09:39:29Z</time></trkpt><trkpt lat="45.92579416268855" lon="12.06315452674494"><ele>429.0</ele><time>2026-04-25T09:39:30Z</time></trkpt><trkpt lat="45.92586681323278" lon="12.0631165721078"><ele>429.0</ele><time>2026-04-25T09:39:31Z</time></trkpt><trkpt lat="45.92594100035222" lon="12.06308825265338"><ele>429.0</ele><time>2026-04-25T09:39:32Z</time></trkpt><trkpt lat="45.92602302814822" lon="12.063112347323393"><ele>429.0</ele><time>2026-04-25T09:39:33Z</time></trkpt><trkpt lat="45.926097294999636" lon="12.063198093736379"><ele>429.0</ele><time>2026-04-25T09:39:34Z</time></trkpt><trkpt lat="45.92613477420922" lon="12.063326641945322"><ele>429.0</ele><time>2026-04-25T09:39:35Z</time></trkpt><trkpt lat="45.92613962099936" lon="12.063461636482455"><ele>429.0</ele><time>2026-04-25T09:39:36Z</time></trkpt><trkpt lat="45.92614268642606" lon="12.063587764541813"><ele>429.0</ele><time>2026-04-25T09:39:37Z</time></trkpt><trkpt lat="45.92615813100116" lon="12.063704229152945"><ele>429.0</ele><time>2026-04-25T09:39:38Z</time></trkpt><trkpt lat="45.926175787401206" lon="12.06382447351368"><ele>429.0</ele><time>2026-04-25T09:39:39Z</time></trkpt><trkpt lat="45.9261915199753" lon="12.063945917888752"><ele>429.0</ele><time>2026-04-25T09:39:40Z</time></trkpt><trkpt lat="45.926207538623736" lon="12.064069318365625"><ele>429.0</ele><time>2026-04-25T09:39:41Z</time></trkpt><trkpt lat="45.926225145982144" lon="12.064196219126663"><ele>429.0</ele><time>2026-04-25T09:39:42Z</time></trkpt><trkpt lat="45.92624276039257" lon="12.064326674158503"><ele>429.0</ele><time>2026-04-25T09:39:43Z</time></trkpt><trkpt lat="45.9262599467593" lon="12.064456018247927"><ele>427.4</ele><time>2026-04-25T09:39:44Z</time></trkpt><trkpt lat="45.92627618651619" lon="12.064588475125971"><ele>425.79999999999995</ele><time>2026-04-25T09:39:45Z</time></trkpt><trkpt lat="45.926292325872716" lon="12.064721247368082"><ele>424.20000000000005</ele><time>2026-04-25T09:39:46Z</time></trkpt><trkpt lat="45.926305406405895" lon="12.064856183174351"><ele>422.6</ele><time>2026-04-25T09:39:47Z</time></trkpt><trkpt lat="45.92632823639444" lon="12.064989552871014"><ele>421.0</ele><time>2026-04-25T09:39:48Z</time></trkpt><trkpt lat="45.9263777855505" lon="12.06510726798149"><ele>421.4</ele><time>2026-04-25T09:39:49Z</time></trkpt><trkpt lat="45.92645841423652" lon="12.065186710494393"><ele>421.8</ele><time>2026-04-25T09:39:50Z</time></trkpt><trkpt lat="45.92654346566368" lon="12.065237543454165"><ele>422.2</ele><time>2026-04-25T09:39:51Z</time></trkpt><trkpt lat="45.92663298930424" lon="12.065269070154791"><ele>422.59999999999997</ele><time>2026-04-25T09:39:52Z</time></trkpt><trkpt lat="45.926722315894246" lon="12.065283875980326"><ele>423.0</ele><time>2026-04-25T09:39:53Z</time></trkpt><trkpt lat="45.926809803920484" lon="12.06531171425036"><ele>423.0</ele><time>2026-04-25T09:39:54Z</time></trkpt><trkpt lat="45.92688956793999" lon="12.065379875374141"><ele>423.0</ele><time>2026-04-25T09:39:55Z</time></trkpt><trkpt lat="45.926949853066944" lon="12.065483298961334"><ele>423.0</ele><time>2026-04-25T09:39:55.999Z</time></trkpt><trkpt lat="45.926991553854386" lon="12.065604927028177"><ele>423.0</ele><time>2026-04-25T09:39:56.999Z</time></trkpt><trkpt lat="45.92703468379676" lon="12.065720099536602"><ele>423.0</ele><time>2026-04-25T09:39:57.999Z</time></trkpt><trkpt lat="45.92709455501533" lon="12.065818171702471"><ele>419.4</ele><time>2026-04-25T09:39:58.999Z</time></trkpt><trkpt lat="45.92716700366037" lon="12.06590952733623"><ele>415.79999999999995</ele><time>2026-04-25T09:39:59.999Z</time></trkpt><trkpt lat="45.92723497595438" lon="12.06601866112216"><ele>412.2</ele><time>2026-04-25T09:40:00.999Z</time></trkpt><trkpt lat="45.927314050438135" lon="12.066111846984175"><ele>408.6</ele><time>2026-04-25T09:40:01.999Z</time></trkpt><trkpt lat="45.92739593376006" lon="12.06620512042764"><ele>405.0</ele><time>2026-04-25T09:40:02.999Z</time></trkpt><trkpt lat="45.9274469411816" lon="12.066331099979575"><ele>405.0</ele><time>2026-04-25T09:40:03.999Z</time></trkpt><trkpt lat="45.927471953883405" lon="12.06646895178631"><ele>405.0</ele><time>2026-04-25T09:40:04.999Z</time></trkpt><trkpt lat="45.927484470145664" lon="12.066593532513554"><ele>405.0</ele><time>2026-04-25T09:40:05.999Z</time></trkpt><trkpt lat="45.92739715554289" lon="12.066751427937913"><ele>405.0</ele><time>2026-04-25T09:40:06.999Z</time></trkpt><trkpt lat="45.9273149420123" lon="12.06684913739514"><ele>405.0</ele><time>2026-04-25T09:40:07.999Z</time></trkpt><trkpt lat="45.927234082852955" lon="12.066928542000909"><ele>403.0</ele><time>2026-04-25T09:40:08.999Z</time></trkpt><trkpt lat="45.92716403504944" lon="12.067011281881221"><ele>401.0</ele><time>2026-04-25T09:40:09.999Z</time></trkpt><trkpt lat="45.92710202544788" lon="12.06708835053194"><ele>399.0</ele><time>2026-04-25T09:40:10.999Z</time></trkpt><trkpt lat="45.92704704833857" lon="12.067164625845487"><ele>397.0</ele><time>2026-04-25T09:40:11.999Z</time></trkpt><trkpt lat="45.927001579304395" lon="12.067248484515698"><ele>395.0</ele><time>2026-04-25T09:40:12.999Z</time></trkpt><trkpt lat="45.92697195831208" lon="12.067345622062712"><ele>393.0</ele><time>2026-04-25T09:40:13.999Z</time></trkpt><trkpt lat="45.92696738109057" lon="12.067449042828875"><ele>392.5714285714286</ele><time>2026-04-25T09:40:14.999Z</time></trkpt><trkpt lat="45.92698071068466" lon="12.0675489017322"><ele>392.14285714285717</ele><time>2026-04-25T09:40:15.999Z</time></trkpt><trkpt lat="45.927009241233414" lon="12.067643056176957"><ele>391.7142857142857</ele><time>2026-04-25T09:40:16.999Z</time></trkpt><trkpt lat="45.92704496916574" lon="12.067727391844443"><ele>391.28571428571433</ele><time>2026-04-25T09:40:17.999Z</time></trkpt><trkpt lat="45.92708922513129" lon="12.067800209641653"><ele>390.85714285714283</ele><time>2026-04-25T09:40:18.999Z</time></trkpt><trkpt lat="45.92714865435926" lon="12.067849993950281"><ele>390.42857142857144</ele><time>2026-04-25T09:40:19.999Z</time></trkpt><trkpt lat="45.92721332055368" lon="12.067888661074365"><ele>390.0</ele><time>2026-04-25T09:40:20.999Z</time></trkpt><trkpt lat="45.92727865888451" lon="12.067921715948312"><ele>390.0</ele><time>2026-04-25T09:40:21.999Z</time></trkpt><trkpt lat="45.92734253408541" lon="12.067957491668194"><ele>390.0</ele><time>2026-04-25T09:40:22.999Z</time></trkpt><trkpt lat="45.92740609332547" lon="12.067997314253438"><ele>390.0</ele><time>2026-04-25T09:40:23.999Z</time></trkpt><trkpt lat="45.927466531079666" lon="12.068037125304263"><ele>390.0</ele><time>2026-04-25T09:40:24.999Z</time></trkpt><trkpt lat="45.92758656407" lon="12.06808976167568"><ele>390.0</ele><time>2026-04-25T09:40:26.999Z</time></trkpt><trkpt lat="45.92764952355132" lon="12.068094733223495"><ele>390.0</ele><time>2026-04-25T09:40:27.999Z</time></trkpt><trkpt lat="45.92777575304503" lon="12.06808309469077"><ele>391.6</ele><time>2026-04-25T09:40:29.999Z</time></trkpt><trkpt lat="45.927839481055315" lon="12.068056389813588"><ele>393.2</ele><time>2026-04-25T09:40:30.999Z</time></trkpt><trkpt lat="45.92795175053518" lon="12.067978606594314"><ele>394.79999999999995</ele><time>2026-04-25T09:40:32.999Z</time></trkpt><trkpt lat="45.928050265635235" lon="12.067880902060693"><ele>396.4</ele><time>2026-04-25T09:40:34.999Z</time></trkpt><trkpt lat="45.92816736555048" lon="12.067819839570694"><ele>398.0</ele><time>2026-04-25T09:40:36.999Z</time></trkpt><trkpt lat="45.92828990763143" lon="12.067812950958327"><ele>397.0</ele><time>2026-04-25T09:40:38.999Z</time></trkpt><trkpt lat="45.9283997036887" lon="12.067859567142563"><ele>396.0</ele><time>2026-04-25T09:40:40.999Z</time></trkpt><trkpt lat="45.928484206877016" lon="12.067960007717664"><ele>395.0</ele><time>2026-04-25T09:40:42.999Z</time></trkpt><trkpt lat="45.92855423420512" lon="12.068070448761604"><ele>394.0</ele><time>2026-04-25T09:40:44.999Z</time></trkpt><trkpt lat="45.92862217791294" lon="12.068179747817814"><ele>393.0</ele><time>2026-04-25T09:40:46.998Z</time></trkpt><trkpt lat="45.92868621299176" lon="12.068279494653943"><ele>393.00000000000006</ele><time>2026-04-25T09:40:48.998Z</time></trkpt><trkpt lat="45.928740313340704" lon="12.068374239803997"><ele>393.0</ele><time>2026-04-25T09:40:50.998Z</time></trkpt><trkpt lat="45.92878617442798" lon="12.068465960301914"><ele>393.0</ele><time>2026-04-25T09:40:52.998Z</time></trkpt><trkpt lat="45.92883171761048" lon="12.068542882448945"><ele>393.0</ele><time>2026-04-25T09:40:54.998Z</time></trkpt><trkpt lat="45.928879995789174" lon="12.068613180356525"><ele>393.0</ele><time>2026-04-25T09:40:56.998Z</time></trkpt><trkpt lat="45.928930671469566" lon="12.068687480357697"><ele>393.00000000000006</ele><time>2026-04-25T09:40:58.998Z</time></trkpt><trkpt lat="45.928978974426244" lon="12.068761098289732"><ele>393.0</ele><time>2026-04-25T09:41:00.998Z</time></trkpt><trkpt lat="45.929022454363746" lon="12.068847424995145"><ele>393.0</ele><time>2026-04-25T09:41:02.998Z</time></trkpt><trkpt lat="45.929064870309205" lon="12.068937312186065"><ele>393.0</ele><time>2026-04-25T09:41:04.998Z</time></trkpt><trkpt lat="45.92910708586957" lon="12.06902985921106"><ele>393.0</ele><time>2026-04-25T09:41:06.998Z</time></trkpt><trkpt lat="45.929149551792406" lon="12.069127352975213"><ele>393.0</ele><time>2026-04-25T09:41:08.998Z</time></trkpt><trkpt lat="45.92918808645588" lon="12.069222095163347"><ele>393.0</ele><time>2026-04-25T09:41:10.998Z</time></trkpt><trkpt lat="45.929229612224574" lon="12.069312851449036"><ele>393.0</ele><time>2026-04-25T09:41:12.998Z</time></trkpt><trkpt lat="45.92926904939352" lon="12.06940228580073"><ele>393.28571428571433</ele><time>2026-04-25T09:41:14.998Z</time></trkpt><trkpt lat="45.92930479310054" lon="12.069492743805913"><ele>393.57142857142856</ele><time>2026-04-25T09:41:17.001Z</time></trkpt><trkpt lat="45.92934246880417" lon="12.069578946232179"><ele>393.8571428571429</ele><time>2026-04-25T09:41:19.001Z</time></trkpt><trkpt lat="45.92937606650422" lon="12.069669407994123"><ele>394.14285714285717</ele><time>2026-04-25T09:41:21.001Z</time></trkpt><trkpt lat="45.92941141951336" lon="12.069754025985022"><ele>394.42857142857144</ele><time>2026-04-25T09:41:23.001Z</time></trkpt><trkpt lat="45.92944700665304" lon="12.069838148921718"><ele>394.7142857142857</ele><time>2026-04-25T09:41:25.001Z</time></trkpt><trkpt lat="45.92948017525692" lon="12.069929404404613"><ele>395.0</ele><time>2026-04-25T09:41:27.001Z</time></trkpt><trkpt lat="45.9295147055338" lon="12.07001726465129"><ele>395.0</ele><time>2026-04-25T09:41:29.001Z</time></trkpt><trkpt lat="45.929551417056786" lon="12.070106173949934"><ele>395.0</ele><time>2026-04-25T09:41:31.001Z</time></trkpt><trkpt lat="45.929586179257264" lon="12.070192869690288"><ele>395.0</ele><time>2026-04-25T09:41:33.001Z</time></trkpt><trkpt lat="45.92962086841361" lon="12.070276903724052"><ele>395.0</ele><time>2026-04-25T09:41:35.001Z</time></trkpt><trkpt lat="45.92965631627785" lon="12.070367074686512"><ele>395.0</ele><time>2026-04-25T09:41:37Z</time></trkpt><trkpt lat="45.929687455484505" lon="12.070457378987275"><ele>395.0</ele><time>2026-04-25T09:41:39Z</time></trkpt><trkpt lat="45.92972341874101" lon="12.07054833169794"><ele>395.0</ele><time>2026-04-25T09:41:41Z</time></trkpt><trkpt lat="45.92975849938322" lon="12.07063784403584"><ele>394.99999999999994</ele><time>2026-04-25T09:41:43Z</time></trkpt><trkpt lat="45.92978646495445" lon="12.070726906174581"><ele>395.0</ele><time>2026-04-25T09:41:45Z</time></trkpt><trkpt lat="45.92982297967259" lon="12.070814239811288"><ele>395.0</ele><time>2026-04-25T09:41:47Z</time></trkpt><trkpt lat="45.92985866741108" lon="12.070895484784016"><ele>395.0</ele><time>2026-04-25T09:41:49Z</time></trkpt><trkpt lat="45.92989177851542" lon="12.070976071920365"><ele>394.99999999999994</ele><time>2026-04-25T09:41:51Z</time></trkpt><trkpt lat="45.929937502114846" lon="12.071093023442355"><ele>395.0</ele><time>2026-04-25T09:41:54Z</time></trkpt><trkpt lat="45.92999502426097" lon="12.071198043891897"><ele>394.16666666666663</ele><time>2026-04-25T09:41:57Z</time></trkpt><trkpt lat="45.930042555957414" lon="12.071263336633251"><ele>393.3333333333333</ele><time>2026-04-25T09:41:59Z</time></trkpt><trkpt lat="45.93009127153729" lon="12.071346643807024"><ele>392.5</ele><time>2026-04-25T09:42:01Z</time></trkpt><trkpt lat="45.93017323300709" lon="12.071377634974185"><ele>391.66666666666663</ele><time>2026-04-25T09:42:03Z</time></trkpt><trkpt lat="45.93023224497704" lon="12.0714166749763"><ele>390.8333333333333</ele><time>2026-04-25T09:42:05Z</time></trkpt><trkpt lat="45.9302999026468" lon="12.071471812203546"><ele>390.0</ele><time>2026-04-25T09:42:08Z</time></trkpt><trkpt lat="45.93038290937587" lon="12.071501020811414"><ele>389.25</ele><time>2026-04-25T09:42:48.998Z</time></trkpt><trkpt lat="45.930448029540756" lon="12.071333043351466"><ele>388.5</ele><time>2026-04-25T09:43:08.383Z</time></trkpt><trkpt lat="45.930348204712374" lon="12.071335032729726"><ele>387.75</ele><time>2026-04-25T09:50:04.87Z</time></trkpt><trkpt lat="45.93019797924518" lon="12.071334629899209"><ele>387.0</ele><time>2026-04-25T09:50:10.874Z</time></trkpt><trkpt lat="45.93027398788127" lon="12.071542596338453"><ele>387.0</ele><time>2026-04-25T09:50:24.017Z</time></trkpt><trkpt lat="45.93024464350742" lon="12.071370947157671"><ele>387.0</ele><time>2026-04-25T09:50:35.875Z</time></trkpt><trkpt lat="45.93033913504964" lon="12.071531896272194"><ele>387.0</ele><time>2026-04-25T09:50:42.017Z</time></trkpt><trkpt lat="45.93037618256238" lon="12.071457087845758"><ele>387.0</ele><time>2026-04-25T09:51:10.015Z</time></trkpt><trkpt lat="45.93023334545606" lon="12.071274598613336"><ele>387.0</ele><time>2026-04-25T09:51:28.417Z</time></trkpt><trkpt lat="45.93036662785562" lon="12.071332258386988"><ele>387.0</ele><time>2026-04-25T09:52:36.426Z</time></trkpt><trkpt lat="45.93051125886153" lon="12.071353010843797"><ele>387.0</ele><time>2026-04-25T09:52:45.461Z</time></trkpt><trkpt lat="45.93043779222415" lon="12.07131823869541"><ele>387.0</ele><time>2026-04-25T09:53:08.406Z</time></trkpt><trkpt lat="45.930257364755875" lon="12.071284790854394"><ele>387.0</ele><time>2026-04-25T09:53:20.517Z</time></trkpt><trkpt lat="45.9301717045773" lon="12.07124254814044"><ele>387.0</ele><time>2026-04-25T09:53:22.164Z</time></trkpt><trkpt lat="45.93033358337628" lon="12.071296403726471"><ele>387.0</ele><time>2026-04-25T09:53:28.413Z</time></trkpt><trkpt lat="45.930234165711255" lon="12.071276659602175"><ele>387.0</ele><time>2026-04-25T09:54:12.013Z</time></trkpt><trkpt lat="45.930393514073316" lon="12.071347441185203"><ele>387.0</ele><time>2026-04-25T09:55:06.422Z</time></trkpt><trkpt lat="45.930433323072776" lon="12.071469771215872"><ele>387.0</ele><time>2026-04-25T09:57:52.013Z</time></trkpt><trkpt lat="45.93041954321193" lon="12.071626828328744"><ele>387.0</ele><time>2026-04-25T09:58:29.019Z</time></trkpt><trkpt lat="45.93024530195477" lon="12.071616228561414"><ele>387.0</ele><time>2026-04-25T10:02:29.998Z</time></trkpt><trkpt lat="45.93027402632652" lon="12.071534921887258"><ele>387.0</ele><time>2026-04-25T10:03:13Z</time></trkpt><trkpt lat="45.930260991087216" lon="12.071436730577803"><ele>387.0</ele><time>2026-04-25T10:03:18Z</time></trkpt><trkpt lat="45.930211186912224" lon="12.071353984561208"><ele>387.0</ele><time>2026-04-25T10:03:23Z</time></trkpt><trkpt lat="45.93014940630625" lon="12.071322997856306"><ele>387.0</ele><time>2026-04-25T10:03:27Z</time></trkpt><trkpt lat="45.93008971492096" lon="12.0712782121115"><ele>387.0</ele><time>2026-04-25T10:03:31.999Z</time></trkpt><trkpt lat="45.93004203677872" lon="12.071210385273114"><ele>387.0</ele><time>2026-04-25T10:03:36.999Z</time></trkpt><trkpt lat="45.92998163432627" lon="12.071148966713045"><ele>387.0</ele><time>2026-04-25T10:03:42.999Z</time></trkpt><trkpt lat="45.92990407861441" lon="12.071148929722321"><ele>387.0</ele><time>2026-04-25T10:03:46.999Z</time></trkpt><trkpt lat="45.929858081943166" lon="12.071084893113389"><ele>387.42857142857144</ele><time>2026-04-25T10:03:49.999Z</time></trkpt><trkpt lat="45.92979104091744" lon="12.0710038750669"><ele>387.8571428571429</ele><time>2026-04-25T10:03:52.999Z</time></trkpt><trkpt lat="45.92974503374167" lon="12.070942080650312"><ele>388.2857142857143</ele><time>2026-04-25T10:03:54.999Z</time></trkpt><trkpt lat="45.92970251398826" lon="12.070867870946913"><ele>388.7142857142857</ele><time>2026-04-25T10:03:56.999Z</time></trkpt><trkpt lat="45.929645135934535" lon="12.07081175969025"><ele>389.1428571428571</ele><time>2026-04-25T10:03:59.999Z</time></trkpt><trkpt lat="45.92957836408307" lon="12.070816199999047"><ele>389.57142857142856</ele><time>2026-04-25T10:04:03.999Z</time></trkpt><trkpt lat="45.9295028634379" lon="12.070857909221116"><ele>390.0</ele><time>2026-04-25T10:04:06.999Z</time></trkpt><trkpt lat="45.929438353672005" lon="12.070877936717364"><ele>390.0</ele><time>2026-04-25T10:04:09.999Z</time></trkpt><trkpt lat="45.92937223133487" lon="12.070917835626037"><ele>390.0</ele><time>2026-04-25T10:04:26.998Z</time></trkpt><trkpt lat="45.92931668663179" lon="12.070971243623768"><ele>390.0</ele><time>2026-04-25T10:04:28.998Z</time></trkpt><trkpt lat="45.92926294991628" lon="12.071025934691193"><ele>390.0</ele><time>2026-04-25T10:04:30.998Z</time></trkpt><trkpt lat="45.92920420712523" lon="12.071087560797393"><ele>390.0</ele><time>2026-04-25T10:04:32.998Z</time></trkpt><trkpt lat="45.929147178808826" lon="12.071163114439239"><ele>390.0</ele><time>2026-04-25T10:04:34.998Z</time></trkpt><trkpt lat="45.929081991518075" lon="12.071233512496208"><ele>390.0</ele><time>2026-04-25T10:04:36.998Z</time></trkpt><trkpt lat="45.92901682085426" lon="12.071286313663459"><ele>388.0</ele><time>2026-04-25T10:04:38.998Z</time></trkpt><trkpt lat="45.928951087789784" lon="12.07132135936721"><ele>386.0</ele><time>2026-04-25T10:04:41.998Z</time></trkpt><trkpt lat="45.92888045633476" lon="12.071366581732223"><ele>384.0</ele><time>2026-04-25T10:04:45.998Z</time></trkpt><trkpt lat="45.928810243204374" lon="12.071339853694203"><ele>382.0</ele><time>2026-04-25T10:04:47.998Z</time></trkpt><trkpt lat="45.92872974559912" lon="12.071279962331527"><ele>380.0</ele><time>2026-04-25T10:04:49.998Z</time></trkpt><trkpt lat="45.928646684876796" lon="12.071206837609138"><ele>378.0</ele><time>2026-04-25T10:04:51.998Z</time></trkpt><trkpt lat="45.92854774597108" lon="12.071137626927655"><ele>378.0</ele><time>2026-04-25T10:04:53.998Z</time></trkpt><trkpt lat="45.928436098588065" lon="12.071087626741466"><ele>378.0</ele><time>2026-04-25T10:04:55.998Z</time></trkpt><trkpt lat="45.928331941900375" lon="12.071039807503107"><ele>378.0</ele><time>2026-04-25T10:04:58Z</time></trkpt><trkpt lat="45.9282368731308" lon="12.070974852115272"><ele>378.0</ele><time>2026-04-25T10:05:00Z</time></trkpt><trkpt lat="45.92813906168569" lon="12.07098316642578"><ele>378.0</ele><time>2026-04-25T10:05:02Z</time></trkpt><trkpt lat="45.9280642600108" lon="12.070955596515056"><ele>376.1666666666667</ele><time>2026-04-25T10:05:04Z</time></trkpt><trkpt lat="45.927973868075455" lon="12.070867270748769"><ele>374.3333333333333</ele><time>2026-04-25T10:05:06Z</time></trkpt><trkpt lat="45.92791725101597" lon="12.070785744556197"><ele>372.5</ele><time>2026-04-25T10:05:08Z</time></trkpt><trkpt lat="45.927856011264076" lon="12.070719717260161"><ele>370.66666666666663</ele><time>2026-04-25T10:05:11Z</time></trkpt><trkpt lat="45.9278011721037" lon="12.070660590944561"><ele>368.8333333333333</ele><time>2026-04-25T10:05:13Z</time></trkpt><trkpt lat="45.927740240563764" lon="12.070594290005754"><ele>367.0</ele><time>2026-04-25T10:05:15Z</time></trkpt><trkpt lat="45.92766293720075" lon="12.07050962811068"><ele>367.0</ele><time>2026-04-25T10:05:17Z</time></trkpt><trkpt lat="45.92757845057923" lon="12.070417065234537"><ele>367.0</ele><time>2026-04-25T10:05:19Z</time></trkpt><trkpt lat="45.927491584437746" lon="12.07032327744374"><ele>367.0</ele><time>2026-04-25T10:05:21Z</time></trkpt><trkpt lat="45.92741955707703" lon="12.070245510850338"><ele>367.0</ele><time>2026-04-25T10:05:23Z</time></trkpt><trkpt lat="45.927353353544895" lon="12.070174032116352"><ele>367.0</ele><time>2026-04-25T10:05:25Z</time></trkpt><trkpt lat="45.92729900218942" lon="12.070115349616378"><ele>354.0</ele><time>2026-04-25T10:05:27Z</time></trkpt><trkpt lat="45.92692449283951" lon="12.070611117417801"><ele>354.0</ele><time>2026-04-25T10:05:30Z</time></trkpt><trkpt lat="45.92683554402239" lon="12.070623595761868"><ele>354.0</ele><time>2026-04-25T10:05:32Z</time></trkpt><trkpt lat="45.926765604637296" lon="12.070632289429078"><ele>354.0</ele><time>2026-04-25T10:05:34Z</time></trkpt><trkpt lat="45.92670286552229" lon="12.07072125173936"><ele>354.0</ele><time>2026-04-25T10:05:36Z</time></trkpt><trkpt lat="45.92661541439157" lon="12.070827652298975"><ele>354.0</ele><time>2026-04-25T10:05:38Z</time></trkpt><trkpt lat="45.9265425349703" lon="12.070822735725201"><ele>354.0</ele><time>2026-04-25T10:05:39Z</time></trkpt><trkpt lat="45.926478389944116" lon="12.070776799881958"><ele>352.0</ele><time>2026-04-25T10:05:40Z</time></trkpt><trkpt lat="45.92642169460951" lon="12.070698736629156"><ele>350.0</ele><time>2026-04-25T10:05:41Z</time></trkpt><trkpt lat="45.92637014239985" lon="12.070611009213986"><ele>348.0</ele><time>2026-04-25T10:05:42Z</time></trkpt><trkpt lat="45.926317595894766" lon="12.0705237712567"><ele>346.0</ele><time>2026-04-25T10:05:43Z</time></trkpt><trkpt lat="45.92626395521236" lon="12.070434375638534"><ele>344.0</ele><time>2026-04-25T10:05:43.998Z</time></trkpt><trkpt lat="45.926208207029525" lon="12.070342328929748"><ele>342.0</ele><time>2026-04-25T10:05:44.998Z</time></trkpt><trkpt lat="45.926151844851226" lon="12.070250083636827"><ele>342.0</ele><time>2026-04-25T10:05:45.998Z</time></trkpt><trkpt lat="45.92609297840783" lon="12.070156826551104"><ele>342.0</ele><time>2026-04-25T10:05:46.998Z</time></trkpt><trkpt lat="45.92603308577487" lon="12.070060295340264"><ele>342.0</ele><time>2026-04-25T10:05:47.998Z</time></trkpt><trkpt lat="45.925975311483135" lon="12.069961627013779"><ele>342.0</ele><time>2026-04-25T10:05:48.998Z</time></trkpt><trkpt lat="45.92592188339967" lon="12.069867367303642"><ele>342.0</ele><time>2026-04-25T10:05:49.998Z</time></trkpt><trkpt lat="45.9258655027126" lon="12.069778687750985"><ele>342.0</ele><time>2026-04-25T10:05:50.998Z</time></trkpt><trkpt lat="45.925811773222826" lon="12.069687320483116"><ele>340.3333333333333</ele><time>2026-04-25T10:05:51.998Z</time></trkpt><trkpt lat="45.92575466605404" lon="12.069589412374405"><ele>338.6666666666667</ele><time>2026-04-25T10:05:52.998Z</time></trkpt><trkpt lat="45.92569865350115" lon="12.06949674479859"><ele>337.0</ele><time>2026-04-25T10:05:53.998Z</time></trkpt><trkpt lat="45.925643364740964" lon="12.069413778524899"><ele>335.33333333333337</ele><time>2026-04-25T10:05:54.998Z</time></trkpt><trkpt lat="45.92558071011492" lon="12.069358992039541"><ele>333.6666666666667</ele><time>2026-04-25T10:05:55.998Z</time></trkpt><trkpt lat="45.92550631683055" lon="12.069342480318022"><ele>332.0</ele><time>2026-04-25T10:05:56.998Z</time></trkpt><trkpt lat="45.92542563275295" lon="12.0693437930853"><ele>332.0</ele><time>2026-04-25T10:05:57.998Z</time></trkpt><trkpt lat="45.925352586806724" lon="12.069447546359722"><ele>332.0</ele><time>2026-04-25T10:05:58.998Z</time></trkpt><trkpt lat="45.92527909234845" lon="12.069532865571192"><ele>332.0</ele><time>2026-04-25T10:05:59.998Z</time></trkpt><trkpt lat="45.92524280328309" lon="12.069667264294578"><ele>332.0</ele><time>2026-04-25T10:06:00.998Z</time></trkpt><trkpt lat="45.92518227741749" lon="12.069760530635927"><ele>332.0</ele><time>2026-04-25T10:06:01.998Z</time></trkpt><trkpt lat="45.92513682695146" lon="12.069857553230797"><ele>330.40000000000003</ele><time>2026-04-25T10:06:02.998Z</time></trkpt><trkpt lat="45.92505979717579" lon="12.069893058229892"><ele>328.8</ele><time>2026-04-25T10:06:03.998Z</time></trkpt><trkpt lat="45.92496401380378" lon="12.069868716505924"><ele>327.2</ele><time>2026-04-25T10:06:04.998Z</time></trkpt><trkpt lat="45.92488572641523" lon="12.069778025451885"><ele>325.6</ele><time>2026-04-25T10:06:05.998Z</time></trkpt><trkpt lat="45.92484511380707" lon="12.069642983414472"><ele>324.0</ele><time>2026-04-25T10:06:06.998Z</time></trkpt><trkpt lat="45.924851667177784" lon="12.069488221869385"><ele>324.0</ele><time>2026-04-25T10:06:07.998Z</time></trkpt><trkpt lat="45.92487792117783" lon="12.069344905639516"><ele>324.0</ele><time>2026-04-25T10:06:08.998Z</time></trkpt><trkpt lat="45.924905338363516" lon="12.069209062723763"><ele>324.0</ele><time>2026-04-25T10:06:09.998Z</time></trkpt><trkpt lat="45.92492212614698" lon="12.0690897988123"><ele>324.0</ele><time>2026-04-25T10:06:10.998Z</time></trkpt><trkpt lat="45.92491827205061" lon="12.068985762201663"><ele>324.0</ele><time>2026-04-25T10:06:11.998Z</time></trkpt><trkpt lat="45.924876350888454" lon="12.068895166782115"><ele>324.0</ele><time>2026-04-25T10:06:12.998Z</time></trkpt><trkpt lat="45.92480047114602" lon="12.068842317564755"><ele>327.6</ele><time>2026-04-25T10:06:13.998Z</time></trkpt><trkpt lat="45.92470942560966" lon="12.068832231120277"><ele>331.2</ele><time>2026-04-25T10:06:14.998Z</time></trkpt><trkpt lat="45.924617065710535" lon="12.06887032726463"><ele>334.8</ele><time>2026-04-25T10:06:15.998Z</time></trkpt><trkpt lat="45.92453183802236" lon="12.06893394350636"><ele>338.40000000000003</ele><time>2026-04-25T10:06:16.998Z</time></trkpt><trkpt lat="45.924448553124144" lon="12.06898282064835"><ele>342.0</ele><time>2026-04-25T10:06:17.998Z</time></trkpt><trkpt lat="45.92436617437969" lon="12.069036849008894"><ele>342.0</ele><time>2026-04-25T10:06:18.998Z</time></trkpt><trkpt lat="45.92428701280527" lon="12.069085898225403"><ele>342.0</ele><time>2026-04-25T10:06:19.998Z</time></trkpt><trkpt lat="45.92421537737376" lon="12.069121204317602"><ele>342.0</ele><time>2026-04-25T10:06:20.998Z</time></trkpt><trkpt lat="45.92414458903807" lon="12.069090975238675"><ele>342.0</ele><time>2026-04-25T10:06:21.998Z</time></trkpt><trkpt lat="45.924074304064696" lon="12.069017455873697"><ele>342.0</ele><time>2026-04-25T10:06:22.998Z</time></trkpt><trkpt lat="45.92401802497582" lon="12.068906646048942"><ele>342.0</ele><time>2026-04-25T10:06:23.998Z</time></trkpt><trkpt lat="45.9239817166547" lon="12.068770640762267"><ele>337.6</ele><time>2026-04-25T10:06:24.998Z</time></trkpt><trkpt lat="45.923930845761014" lon="12.068650565497409"><ele>333.20000000000005</ele><time>2026-04-25T10:06:25.998Z</time></trkpt><trkpt lat="45.9238487879298" lon="12.068571184391756"><ele>328.8</ele><time>2026-04-25T10:06:26.998Z</time></trkpt><trkpt lat="45.92374819440557" lon="12.068554473211858"><ele>324.4</ele><time>2026-04-25T10:06:27.998Z</time></trkpt><trkpt lat="45.923645527569796" lon="12.068577308472397"><ele>320.0</ele><time>2026-04-25T10:06:28.998Z</time></trkpt><trkpt lat="45.92356910935518" lon="12.068695785430783"><ele>320.0</ele><time>2026-04-25T10:06:29.998Z</time></trkpt><trkpt lat="45.92350954249371" lon="12.068804477493758"><ele>320.0</ele><time>2026-04-25T10:06:30.998Z</time></trkpt><trkpt lat="45.92343502225688" lon="12.06886707586626"><ele>320.0</ele><time>2026-04-25T10:06:31.998Z</time></trkpt><trkpt lat="45.92336405158227" lon="12.068909038736455"><ele>320.0</ele><time>2026-04-25T10:06:32.998Z</time></trkpt><trkpt lat="45.92327742137319" lon="12.068889297664855"><ele>320.0</ele><time>2026-04-25T10:06:33.998Z</time></trkpt><trkpt lat="45.92321010765089" lon="12.068766699622334"><ele>317.8</ele><time>2026-04-25T10:06:34.998Z</time></trkpt><trkpt lat="45.923124258851026" lon="12.068694430656272"><ele>315.6</ele><time>2026-04-25T10:06:35.997Z</time></trkpt><trkpt lat="45.92302714445917" lon="12.068656958260641"><ele>313.4</ele><time>2026-04-25T10:06:36.997Z</time></trkpt><trkpt lat="45.922922525265044" lon="12.068662099511016"><ele>311.2</ele><time>2026-04-25T10:06:37.997Z</time></trkpt><trkpt lat="45.92282005177745" lon="12.068689332998522"><ele>309.0</ele><time>2026-04-25T10:06:38.997Z</time></trkpt><trkpt lat="45.922722974462154" lon="12.068751342106351"><ele>309.0</ele><time>2026-04-25T10:06:39.997Z</time></trkpt><trkpt lat="45.92262936556822" lon="12.068831496360115"><ele>309.0</ele><time>2026-04-25T10:06:40.997Z</time></trkpt><trkpt lat="45.92252948860343" lon="12.068913214117922"><ele>309.0</ele><time>2026-04-25T10:06:41.997Z</time></trkpt><trkpt lat="45.92241610516886" lon="12.068951802865655"><ele>309.0</ele><time>2026-04-25T10:06:42.997Z</time></trkpt><trkpt lat="45.922304407378405" lon="12.069007466465463"><ele>308.25</ele><time>2026-04-25T10:06:43.997Z</time></trkpt><trkpt lat="45.92219353940549" lon="12.069076508279336"><ele>307.5</ele><time>2026-04-25T10:06:44.997Z</time></trkpt><trkpt lat="45.92208028538857" lon="12.069134163714395"><ele>306.75</ele><time>2026-04-25T10:06:45.997Z</time></trkpt><trkpt lat="45.92196832313588" lon="12.06918821393546"><ele>306.0</ele><time>2026-04-25T10:06:46.997Z</time></trkpt><trkpt lat="45.9218552146677" lon="12.06924126592056"><ele>301.75</ele><time>2026-04-25T10:06:47.997Z</time></trkpt><trkpt lat="45.921739014610885" lon="12.06929268218411"><ele>297.5</ele><time>2026-04-25T10:06:48.997Z</time></trkpt><trkpt lat="45.921618567593924" lon="12.06932915083389"><ele>293.25</ele><time>2026-04-25T10:06:49.997Z</time></trkpt><trkpt lat="45.9214956386407" lon="12.069341319830317"><ele>289.0</ele><time>2026-04-25T10:06:50.997Z</time></trkpt><trkpt lat="45.921369271102634" lon="12.06934526009438"><ele>286.5</ele><time>2026-04-25T10:06:51.997Z</time></trkpt><trkpt lat="45.92124503586354" lon="12.069343343701131"><ele>284.0</ele><time>2026-04-25T10:06:52.997Z</time></trkpt><trkpt lat="45.92111904239855" lon="12.069342765995154"><ele>281.5</ele><time>2026-04-25T10:06:53.997Z</time></trkpt><trkpt lat="45.9209966789699" lon="12.069339335530415"><ele>279.0</ele><time>2026-04-25T10:06:54.997Z</time></trkpt><trkpt lat="45.92087650574778" lon="12.069327296533029"><ele>277.75</ele><time>2026-04-25T10:06:55.997Z</time></trkpt><trkpt lat="45.92075704328817" lon="12.06932327448881"><ele>276.5</ele><time>2026-04-25T10:06:56.997Z</time></trkpt><trkpt lat="45.920640895168134" lon="12.069310773098252"><ele>275.25</ele><time>2026-04-25T10:06:57.997Z</time></trkpt><trkpt lat="45.920527690909395" lon="12.069300347944045"><ele>274.0</ele><time>2026-04-25T10:06:58.997Z</time></trkpt><trkpt lat="45.9204106991467" lon="12.069289559303757"><ele>274.0</ele><time>2026-04-25T10:06:59.997Z</time></trkpt><trkpt lat="45.92029446471458" lon="12.069282980199784"><ele>274.0</ele><time>2026-04-25T10:07:00.997Z</time></trkpt><trkpt lat="45.92018033996275" lon="12.069278382588639"><ele>274.0</ele><time>2026-04-25T10:07:01.997Z</time></trkpt><trkpt lat="45.9200656801069" lon="12.069289624718957"><ele>274.0</ele><time>2026-04-25T10:07:02.999Z</time></trkpt><trkpt lat="45.919954573448045" lon="12.069333769089233"><ele>271.75</ele><time>2026-04-25T10:07:03.999Z</time></trkpt><trkpt lat="45.91985384291683" lon="12.069423702152267"><ele>269.5</ele><time>2026-04-25T10:07:04.999Z</time></trkpt><trkpt lat="45.91976311083222" lon="12.069538144844838"><ele>267.25</ele><time>2026-04-25T10:07:05.999Z</time></trkpt><trkpt lat="45.91966919818321" lon="12.069627787531342"><ele>265.0</ele><time>2026-04-25T10:07:06.999Z</time></trkpt><trkpt lat="45.91959395456464" lon="12.069745579390005"><ele>265.0</ele><time>2026-04-25T10:07:07.999Z</time></trkpt><trkpt lat="45.919508558955755" lon="12.069844299212248"><ele>265.0</ele><time>2026-04-25T10:07:08.999Z</time></trkpt><trkpt lat="45.919415338692836" lon="12.069928167088529"><ele>265.0</ele><time>2026-04-25T10:07:09.999Z</time></trkpt><trkpt lat="45.919330860407044" lon="12.070028702489392"><ele>265.0</ele><time>2026-04-25T10:07:10.999Z</time></trkpt><trkpt lat="45.91925736399935" lon="12.07014860370677"><ele>265.0</ele><time>2026-04-25T10:07:11.999Z</time></trkpt><trkpt lat="45.91917340423147" lon="12.070249569288608"><ele>263.6</ele><time>2026-04-25T10:07:13Z</time></trkpt><trkpt lat="45.919090707622814" lon="12.070352675337315"><ele>262.2</ele><time>2026-04-25T10:07:14Z</time></trkpt><trkpt lat="45.919015790246675" lon="12.07046733384605"><ele>260.8</ele><time>2026-04-25T10:07:15Z</time></trkpt><trkpt lat="45.91893488304707" lon="12.070578453057408"><ele>259.4</ele><time>2026-04-25T10:07:16Z</time></trkpt><trkpt lat="45.91887047371398" lon="12.070706667446979"><ele>258.0</ele><time>2026-04-25T10:07:17Z</time></trkpt><trkpt lat="45.91881120339273" lon="12.070842450940392"><ele>257.75</ele><time>2026-04-25T10:07:18Z</time></trkpt><trkpt lat="45.91875534086271" lon="12.070985603631653"><ele>257.5</ele><time>2026-04-25T10:07:19Z</time></trkpt><trkpt lat="45.91870550410619" lon="12.07113194352859"><ele>257.25</ele><time>2026-04-25T10:07:20Z</time></trkpt><trkpt lat="45.91865682678974" lon="12.071276760669408"><ele>257.0</ele><time>2026-04-25T10:07:20.999Z</time></trkpt><trkpt lat="45.91860900027409" lon="12.071419356407707"><ele>257.0</ele><time>2026-04-25T10:07:21.999Z</time></trkpt><trkpt lat="45.91857382027546" lon="12.071566802443982"><ele>257.0</ele><time>2026-04-25T10:07:22.999Z</time></trkpt><trkpt lat="45.91852748487009" lon="12.071706202018998"><ele>257.0</ele><time>2026-04-25T10:07:23.999Z</time></trkpt><trkpt lat="45.918481572666806" lon="12.071844115776619"><ele>257.0</ele><time>2026-04-25T10:07:24.999Z</time></trkpt><trkpt lat="45.91843456755655" lon="12.071973521862384"><ele>257.0</ele><time>2026-04-25T10:07:25.999Z</time></trkpt><trkpt lat="45.91838426049273" lon="12.072095892943455"><ele>254.8</ele><time>2026-04-25T10:07:26.999Z</time></trkpt><trkpt lat="45.91831983088823" lon="12.072199583459847"><ele>252.6</ele><time>2026-04-25T10:07:27.999Z</time></trkpt><trkpt lat="45.918264146765814" lon="12.072312092271925"><ele>250.40000000000003</ele><time>2026-04-25T10:07:28.999Z</time></trkpt><trkpt lat="45.9182093875866" lon="12.072427235627831"><ele>248.20000000000002</ele><time>2026-04-25T10:07:29.999Z</time></trkpt><trkpt lat="45.918154285562345" lon="12.072543901311805"><ele>246.0</ele><time>2026-04-25T10:07:30.999Z</time></trkpt><trkpt lat="45.9180979201114" lon="12.072650506496663"><ele>245.66666666666666</ele><time>2026-04-25T10:07:31.999Z</time></trkpt><trkpt lat="45.918033481879334" lon="12.072740823026484"><ele>245.33333333333331</ele><time>2026-04-25T10:07:32.999Z</time></trkpt><trkpt lat="45.917971280409965" lon="12.07283017987074"><ele>245.0</ele><time>2026-04-25T10:07:33.999Z</time></trkpt><trkpt lat="45.91790000472386" lon="12.07288528381801"><ele>244.66666666666666</ele><time>2026-04-25T10:07:34.999Z</time></trkpt><trkpt lat="45.9178358950583" lon="12.072929784768757"><ele>244.33333333333331</ele><time>2026-04-25T10:07:35.999Z</time></trkpt><trkpt lat="45.91777755485893" lon="12.072970983247687"><ele>244.0</ele><time>2026-04-25T10:07:36.999Z</time></trkpt><trkpt lat="45.91767650853372" lon="12.073039919448021"><ele>244.0</ele><time>2026-04-25T10:07:38.999Z</time></trkpt><trkpt lat="45.917593821041834" lon="12.073083457606085"><ele>243.99999999999997</ele><time>2026-04-25T10:07:40.999Z</time></trkpt><trkpt lat="45.917626295442275" lon="12.07332809175925"><ele>243.99999999999997</ele><time>2026-04-25T10:07:42.999Z</time></trkpt><trkpt lat="45.91764056166826" lon="12.073462657995401"><ele>244.0</ele><time>2026-04-25T10:07:44.999Z</time></trkpt><trkpt lat="45.917650189468674" lon="12.073581182409221"><ele>244.0</ele><time>2026-04-25T10:07:46.999Z</time></trkpt><trkpt lat="45.917672056809145" lon="12.073669852686738"><ele>244.16666666666666</ele><time>2026-04-25T10:07:48.999Z</time></trkpt><trkpt lat="45.917722116296005" lon="12.073730906484029"><ele>244.33333333333331</ele><time>2026-04-25T10:07:50.999Z</time></trkpt><trkpt lat="45.917765728604664" lon="12.073815243633646"><ele>244.5</ele><time>2026-04-25T10:07:52.999Z</time></trkpt><trkpt lat="45.91782322031158" lon="12.073921165093358"><ele>244.66666666666669</ele><time>2026-04-25T10:07:55.999Z</time></trkpt><trkpt lat="45.917867345126815" lon="12.074002603393089"><ele>244.83333333333334</ele><time>2026-04-25T10:07:57.999Z</time></trkpt><trkpt lat="45.917925885819976" lon="12.074080977871242"><ele>245.0</ele><time>2026-04-25T10:07:59.999Z</time></trkpt><trkpt lat="45.91800052620121" lon="12.074138836324723"><ele>245.00000000000003</ele><time>2026-04-25T10:08:01.999Z</time></trkpt><trkpt lat="45.91807179886947" lon="12.074194198075993"><ele>245.0</ele><time>2026-04-25T10:08:03.999Z</time></trkpt><trkpt lat="45.918147308283245" lon="12.074239247882492"><ele>245.0</ele><time>2026-04-25T10:08:05.999Z</time></trkpt><trkpt lat="45.91821818835923" lon="12.07428840411991"><ele>245.0</ele><time>2026-04-25T10:08:07.999Z</time></trkpt><trkpt lat="45.918287316204264" lon="12.074336345171298"><ele>245.00000000000003</ele><time>2026-04-25T10:08:09.999Z</time></trkpt><trkpt lat="45.918352150927205" lon="12.074382704941652"><ele>245.0</ele><time>2026-04-25T10:08:11.999Z</time></trkpt><trkpt lat="45.91841386619668" lon="12.074427266446904"><ele>246.57142857142856</ele><time>2026-04-25T10:08:13.999Z</time></trkpt><trkpt lat="45.91847343433957" lon="12.074470277583801"><ele>248.14285714285714</ele><time>2026-04-25T10:08:15.999Z</time></trkpt><trkpt lat="45.91854571896116" lon="12.074537083825534"><ele>249.71428571428572</ele><time>2026-04-25T10:08:18.998Z</time></trkpt><trkpt lat="45.9185760763307" lon="12.074617151919579"><ele>251.28571428571428</ele><time>2026-04-25T10:08:21.998Z</time></trkpt><trkpt lat="45.91855878104539" lon="12.074717306741197"><ele>252.85714285714283</ele><time>2026-04-25T10:08:26.998Z</time></trkpt><trkpt lat="45.918514524350776" lon="12.074800985638035"><ele>254.42857142857142</ele><time>2026-04-25T10:08:31.998Z</time></trkpt><trkpt lat="45.91847644639455" lon="12.074875240398727"><ele>256.0</ele><time>2026-04-25T10:08:35.998Z</time></trkpt><trkpt lat="45.91847295140835" lon="12.074982663279776"><ele>256.85714285714283</ele><time>2026-04-25T10:08:39.998Z</time></trkpt><trkpt lat="45.918446320574475" lon="12.075069433660586"><ele>257.71428571428567</ele><time>2026-04-25T10:08:43.998Z</time></trkpt><trkpt lat="45.918418105925156" lon="12.07516096265404"><ele>258.57142857142856</ele><time>2026-04-25T10:08:47.998Z</time></trkpt><trkpt lat="45.918379551943765" lon="12.075265920174092"><ele>259.42857142857144</ele><time>2026-04-25T10:08:51.998Z</time></trkpt><trkpt lat="45.918321008421564" lon="12.075325468967131"><ele>260.28571428571433</ele><time>2026-04-25T10:08:55.998Z</time></trkpt><trkpt lat="45.91825312929516" lon="12.075363427856653"><ele>261.14285714285717</ele><time>2026-04-25T10:08:59.998Z</time></trkpt><trkpt lat="45.91818835098873" lon="12.075419141622529"><ele>262.0</ele><time>2026-04-25T10:09:03.998Z</time></trkpt><trkpt lat="45.91813165725198" lon="12.07550225193034"><ele>261.3333333333333</ele><time>2026-04-25T10:09:07.998Z</time></trkpt><trkpt lat="45.91807992635411" lon="12.075590781277215"><ele>260.66666666666663</ele><time>2026-04-25T10:09:12Z</time></trkpt><trkpt lat="45.91803441879207" lon="12.075680668138274"><ele>260.0</ele><time>2026-04-25T10:09:16Z</time></trkpt><trkpt lat="45.91799255106471" lon="12.075775165484147"><ele>259.3333333333333</ele><time>2026-04-25T10:09:20Z</time></trkpt><trkpt lat="45.9179463914396" lon="12.075870937678614"><ele>258.6666666666667</ele><time>2026-04-25T10:09:24Z</time></trkpt><trkpt lat="45.917908213653185" lon="12.075963074850812"><ele>258.0</ele><time>2026-04-25T10:09:28Z</time></trkpt><trkpt lat="45.91787642530907" lon="12.076061897985648"><ele>258.0</ele><time>2026-04-25T10:09:32Z</time></trkpt><trkpt lat="45.917854266088135" lon="12.076172106323176"><ele>258.0</ele><time>2026-04-25T10:09:36Z</time></trkpt><trkpt lat="45.91783549420527" lon="12.076291601678314"><ele>258.0</ele><time>2026-04-25T10:09:40Z</time></trkpt><trkpt lat="45.917831468206934" lon="12.076382508244347"><ele>258.0</ele><time>2026-04-25T10:09:43Z</time></trkpt><trkpt lat="45.91785953815228" lon="12.076496644757789"><ele>258.0</ele><time>2026-04-25T10:09:47Z</time></trkpt><trkpt lat="45.917926994744356" lon="12.076535585722759"><ele>258.0</ele><time>2026-04-25T10:09:51Z</time></trkpt><trkpt lat="45.91799805337392" lon="12.076517142863676"><ele>257.99999999999994</ele><time>2026-04-25T10:09:54.999Z</time></trkpt><trkpt lat="45.918065464826654" lon="12.076486719541823"><ele>258.0</ele><time>2026-04-25T10:09:59.999Z</time></trkpt><trkpt lat="45.91813422606225" lon="12.076457893994917"><ele>258.0</ele><time>2026-04-25T10:10:04.999Z</time></trkpt><trkpt lat="45.91820061922659" lon="12.076425286068423"><ele>258.0</ele><time>2026-04-25T10:10:09.999Z</time></trkpt><trkpt lat="45.91827279027785" lon="12.07639704956537"><ele>258.0</ele><time>2026-04-25T10:10:14.999Z</time></trkpt><trkpt lat="45.918342681247395" lon="12.07637097065464"><ele>257.99999999999994</ele><time>2026-04-25T10:10:19.999Z</time></trkpt><trkpt lat="45.91841022694283" lon="12.07635094800155"><ele>258.0</ele><time>2026-04-25T10:10:24.999Z</time></trkpt><trkpt lat="45.91848081039297" lon="12.076341986800752"><ele>261.1428571428571</ele><time>2026-04-25T10:10:29.999Z</time></trkpt><trkpt lat="45.91854701584358" lon="12.076330205426089"><ele>264.2857142857143</ele><time>2026-04-25T10:10:34.999Z</time></trkpt><trkpt lat="45.918617011885466" lon="12.076336624073424"><ele>267.42857142857144</ele><time>2026-04-25T10:10:39.999Z</time></trkpt><trkpt lat="45.918681951739096" lon="12.076362189620264"><ele>270.57142857142856</ele><time>2026-04-25T10:10:44.998Z</time></trkpt><trkpt lat="45.9187476072182" lon="12.076399380235339"><ele>273.7142857142857</ele><time>2026-04-25T10:10:49.998Z</time></trkpt><trkpt lat="45.91881568454771" lon="12.076428944453228"><ele>276.85714285714283</ele><time>2026-04-25T10:10:54.998Z</time></trkpt><trkpt lat="45.918884054350414" lon="12.076449737131485"><ele>280.0</ele><time>2026-04-25T10:10:59.998Z</time></trkpt><trkpt lat="45.91895366724509" lon="12.076464924602721"><ele>280.0</ele><time>2026-04-25T10:11:04.998Z</time></trkpt><trkpt lat="45.919026814585116" lon="12.076479497358138"><ele>280.0</ele><time>2026-04-25T10:11:09.998Z</time></trkpt><trkpt lat="45.919095367401894" lon="12.076495302509606"><ele>280.0</ele><time>2026-04-25T10:11:15.001Z</time></trkpt><trkpt lat="45.9191631110678" lon="12.076504581875461"><ele>280.0</ele><time>2026-04-25T10:11:19.001Z</time></trkpt><trkpt lat="45.91922439141428" lon="12.07652547947239"><ele>280.0</ele><time>2026-04-25T10:11:23.001Z</time></trkpt><trkpt lat="45.91928570170795" lon="12.076546301775332"><ele>280.0</ele><time>2026-04-25T10:11:27.001Z</time></trkpt><trkpt lat="45.91934780991832" lon="12.076564355430401"><ele>280.0</ele><time>2026-04-25T10:11:31Z</time></trkpt><trkpt lat="45.91941051806597" lon="12.076596365035357"><ele>281.57142857142856</ele><time>2026-04-25T10:11:35Z</time></trkpt><trkpt lat="45.91947316105744" lon="12.076640891088005"><ele>283.1428571428571</ele><time>2026-04-25T10:11:39Z</time></trkpt><trkpt lat="45.91952490841465" lon="12.076711365934113"><ele>284.7142857142857</ele><time>2026-04-25T10:11:43Z</time></trkpt><trkpt lat="45.919556332508435" lon="12.076799181542018"><ele>286.2857142857143</ele><time>2026-04-25T10:11:47Z</time></trkpt><trkpt lat="45.91957338627473" lon="12.076906112385473"><ele>287.85714285714283</ele><time>2026-04-25T10:11:51Z</time></trkpt><trkpt lat="45.91957601242047" lon="12.077011437500769"><ele>289.42857142857144</ele><time>2026-04-25T10:11:55Z</time></trkpt><trkpt lat="45.91957839760001" lon="12.077123889393002"><ele>291.0</ele><time>2026-04-25T10:11:59Z</time></trkpt><trkpt lat="45.91958442820707" lon="12.077232712046095"><ele>291.0</ele><time>2026-04-25T10:12:03Z</time></trkpt><trkpt lat="45.91958947171318" lon="12.077343150235052"><ele>291.0</ele><time>2026-04-25T10:12:07Z</time></trkpt><trkpt lat="45.91959805499622" lon="12.077432885067521"><ele>291.0</ele><time>2026-04-25T10:12:11Z</time></trkpt><trkpt lat="45.919620061072834" lon="12.077537842948153"><ele>291.0</ele><time>2026-04-25T10:12:14.999Z</time></trkpt><trkpt lat="45.91967464165974" lon="12.077600462061191"><ele>291.0</ele><time>2026-04-25T10:12:19.999Z</time></trkpt><trkpt lat="45.919738754492634" lon="12.07762176457627"><ele>291.0</ele><time>2026-04-25T10:12:32.999Z</time></trkpt><trkpt lat="45.91981258267031" lon="12.077647263789595"><ele>291.0</ele><time>2026-04-25T10:12:36.999Z</time></trkpt><trkpt lat="45.91989171026681" lon="12.07764905682421"><ele>291.42857142857144</ele><time>2026-04-25T10:12:40.999Z</time></trkpt><trkpt lat="45.91996382972155" lon="12.077639518461302"><ele>291.85714285714283</ele><time>2026-04-25T10:12:43.999Z</time></trkpt><trkpt lat="45.920032340775094" lon="12.077650772844594"><ele>292.2857142857143</ele><time>2026-04-25T10:12:46.999Z</time></trkpt><trkpt lat="45.92011141108069" lon="12.077669789687107"><ele>292.7142857142857</ele><time>2026-04-25T10:12:49.999Z</time></trkpt><trkpt lat="45.920178569588394" lon="12.077691943226043"><ele>293.1428571428571</ele><time>2026-04-25T10:12:52.999Z</time></trkpt><trkpt lat="45.920253207259954" lon="12.077701408144554"><ele>293.57142857142856</ele><time>2026-04-25T10:12:56.999Z</time></trkpt><trkpt lat="45.92032712691082" lon="12.077699334647338"><ele>294.0</ele><time>2026-04-25T10:13:00.999Z</time></trkpt><trkpt lat="45.92039727746131" lon="12.077693298688132"><ele>292.8333333333333</ele><time>2026-04-25T10:13:04.998Z</time></trkpt><trkpt lat="45.92045941741434" lon="12.077669394860342"><ele>291.6666666666667</ele><time>2026-04-25T10:13:07.998Z</time></trkpt><trkpt lat="45.920517245725925" lon="12.077604166414359"><ele>290.5</ele><time>2026-04-25T10:13:10.998Z</time></trkpt><trkpt lat="45.92054422312253" lon="12.077502573037963"><ele>289.33333333333337</ele><time>2026-04-25T10:13:13.998Z</time></trkpt><trkpt lat="45.92055784713021" lon="12.077381870681837"><ele>288.1666666666667</ele><time>2026-04-25T10:13:16.998Z</time></trkpt><trkpt lat="45.92056607864299" lon="12.077255035199233"><ele>287.0</ele><time>2026-04-25T10:13:19.998Z</time></trkpt><trkpt lat="45.92056323511018" lon="12.077133871205453"><ele>287.0</ele><time>2026-04-25T10:13:23Z</time></trkpt><trkpt lat="45.92056506760548" lon="12.077005659590355"><ele>287.0</ele><time>2026-04-25T10:13:26Z</time></trkpt><trkpt lat="45.920569024848874" lon="12.076881593965293"><ele>287.0</ele><time>2026-04-25T10:13:29Z</time></trkpt><trkpt lat="45.920614296134936" lon="12.076777128023974"><ele>287.0</ele><time>2026-04-25T10:13:31.999Z</time></trkpt><trkpt lat="45.92068498455133" lon="12.076734559204938"><ele>287.0</ele><time>2026-04-25T10:13:34.999Z</time></trkpt><trkpt lat="45.920754530431324" lon="12.076725003394136"><ele>287.0</ele><time>2026-04-25T10:13:37.999Z</time></trkpt><trkpt lat="45.92082224027958" lon="12.07671560288094"><ele>287.0</ele><time>2026-04-25T10:13:40.999Z</time></trkpt><trkpt lat="45.920888110955836" lon="12.076692544351713"><ele>287.0</ele><time>2026-04-25T10:13:43.999Z</time></trkpt><trkpt lat="45.920960512699786" lon="12.076693759533228"><ele>287.0</ele><time>2026-04-25T10:13:46.999Z</time></trkpt><trkpt lat="45.921028284344665" lon="12.076679453484719"><ele>287.0</ele><time>2026-04-25T10:13:49.999Z</time></trkpt><trkpt lat="45.92109353466659" lon="12.076665800607067"><ele>287.0</ele><time>2026-04-25T10:13:52.999Z</time></trkpt><trkpt lat="45.921169504035014" lon="12.07664956903238"><ele>287.0</ele><time>2026-04-25T10:13:56.999Z</time></trkpt><trkpt lat="45.92124318832106" lon="12.076634908048534"><ele>287.0</ele><time>2026-04-25T10:14:00.999Z</time></trkpt><trkpt lat="45.921315159086724" lon="12.076616977156737"><ele>288.42857142857144</ele><time>2026-04-25T10:14:04.999Z</time></trkpt><trkpt lat="45.92138455629708" lon="12.076602949419089"><ele>289.8571428571429</ele><time>2026-04-25T10:14:08.999Z</time></trkpt><trkpt lat="45.921455126976696" lon="12.076584020762747"><ele>291.2857142857143</ele><time>2026-04-25T10:14:12.999Z</time></trkpt><trkpt lat="45.92152497888259" lon="12.076553571435532"><ele>292.7142857142857</ele><time>2026-04-25T10:14:16.999Z</time></trkpt><trkpt lat="45.92157639012757" lon="12.076497206111235"><ele>294.14285714285717</ele><time>2026-04-25T10:14:19.998Z</time></trkpt><trkpt lat="45.921620623582214" lon="12.076430364884848"><ele>295.57142857142856</ele><time>2026-04-25T10:14:22.998Z</time></trkpt><trkpt lat="45.92166326919567" lon="12.07636054059021"><ele>297.0</ele><time>2026-04-25T10:14:25.998Z</time></trkpt><trkpt lat="45.92170548627457" lon="12.076264291172924"><ele>301.6666666666667</ele><time>2026-04-25T10:14:29.998Z</time></trkpt><trkpt lat="45.92174885703524" lon="12.07617191862051"><ele>306.3333333333333</ele><time>2026-04-25T10:14:33.998Z</time></trkpt><trkpt lat="45.921792995345236" lon="12.076083241872752"><ele>311.0</ele><time>2026-04-25T10:14:37.998Z</time></trkpt><trkpt lat="45.92183394725484" lon="12.075989717682894"><ele>315.66666666666663</ele><time>2026-04-25T10:14:41.998Z</time></trkpt><trkpt lat="45.92187787491916" lon="12.075905955905343"><ele>320.3333333333333</ele><time>2026-04-25T10:14:45.998Z</time></trkpt><trkpt lat="45.921927686415316" lon="12.07582172690434"><ele>325.0</ele><time>2026-04-25T10:14:50.998Z</time></trkpt><trkpt lat="45.92200076085626" lon="12.075783207932881"><ele>325.0</ele><time>2026-04-25T10:14:54.998Z</time></trkpt><trkpt lat="45.92207437365231" lon="12.075741247968601"><ele>325.0</ele><time>2026-04-25T10:14:58.998Z</time></trkpt><trkpt lat="45.92213891363412" lon="12.075731666759324"><ele>325.0</ele><time>2026-04-25T10:15:01.998Z</time></trkpt><trkpt lat="45.922180305621296" lon="12.075826334043008"><ele>325.0</ele><time>2026-04-25T10:15:05.998Z</time></trkpt><trkpt lat="45.92218142824719" lon="12.075924267637514"><ele>325.0</ele><time>2026-04-25T10:15:09.997Z</time></trkpt><trkpt lat="45.922193130839815" lon="12.076018118980782"><ele>325.0</ele><time>2026-04-25T10:15:13.997Z</time></trkpt><trkpt lat="45.922224499896735" lon="12.076103528846557"><ele>325.0</ele><time>2026-04-25T10:15:17.997Z</time></trkpt><trkpt lat="45.922266429881205" lon="12.076171501200013"><ele>325.0</ele><time>2026-04-25T10:15:21.997Z</time></trkpt><trkpt lat="45.922323897398705" lon="12.076230929275106"><ele>325.0</ele><time>2026-04-25T10:15:25.997Z</time></trkpt><trkpt lat="45.92238981743196" lon="12.0762962926487"><ele>325.0</ele><time>2026-04-25T10:15:29.999Z</time></trkpt><trkpt lat="45.92245799959388" lon="12.076361735314086"><ele>325.0</ele><time>2026-04-25T10:15:34Z</time></trkpt><trkpt lat="45.922526200970616" lon="12.076428526113963"><ele>325.0</ele><time>2026-04-25T10:15:38Z</time></trkpt><trkpt lat="45.92259119658489" lon="12.076498711675596"><ele>325.0</ele><time>2026-04-25T10:15:42Z</time></trkpt><trkpt lat="45.92265176461269" lon="12.076572618197693"><ele>330.0</ele><time>2026-04-25T10:15:45.999Z</time></trkpt><trkpt lat="45.92269853241491" lon="12.076667108271566"><ele>335.0</ele><time>2026-04-25T10:15:49.999Z</time></trkpt><trkpt lat="45.922729250576424" lon="12.076777906200899"><ele>340.0</ele><time>2026-04-25T10:15:53.999Z</time></trkpt><trkpt lat="45.922757865049306" lon="12.076889980912437"><ele>345.0</ele><time>2026-04-25T10:15:57.999Z</time></trkpt><trkpt lat="45.922794087456644" lon="12.076997307614022"><ele>350.0</ele><time>2026-04-25T10:16:01.999Z</time></trkpt><trkpt lat="45.92283635327192" lon="12.077093843783658"><ele>355.0</ele><time>2026-04-25T10:16:05.999Z</time></trkpt><trkpt lat="45.922897177031196" lon="12.077175100544071"><ele>355.0</ele><time>2026-04-25T10:16:09.999Z</time></trkpt><trkpt lat="45.92295200461263" lon="12.077247719278862"><ele>355.0</ele><time>2026-04-25T10:16:12.999Z</time></trkpt><trkpt lat="45.923007930840924" lon="12.07733928407225"><ele>355.0</ele><time>2026-04-25T10:16:15.999Z</time></trkpt><trkpt lat="45.923056981730625" lon="12.077432437113242"><ele>355.0</ele><time>2026-04-25T10:16:18.999Z</time></trkpt><trkpt lat="45.92309203257157" lon="12.077522468869097"><ele>355.0</ele><time>2026-04-25T10:16:21.999Z</time></trkpt><trkpt lat="45.92311869017404" lon="12.077618568181347"><ele>355.0</ele><time>2026-04-25T10:16:24.999Z</time></trkpt><trkpt lat="45.9231394103015" lon="12.077729543020409"><ele>352.5</ele><time>2026-04-25T10:16:27.999Z</time></trkpt><trkpt lat="45.923129619376574" lon="12.07783753726043"><ele>350.0</ele><time>2026-04-25T10:16:30.999Z</time></trkpt><trkpt lat="45.923092233400894" lon="12.077943914746736"><ele>347.5</ele><time>2026-04-25T10:16:33.999Z</time></trkpt><trkpt lat="45.92306407847852" lon="12.078045518587203"><ele>345.0</ele><time>2026-04-25T10:16:36.999Z</time></trkpt><trkpt lat="45.923067407675106" lon="12.078158764272114"><ele>342.5</ele><time>2026-04-25T10:16:39.998Z</time></trkpt><trkpt lat="45.923112618159145" lon="12.078250359019444"><ele>340.0</ele><time>2026-04-25T10:16:42.998Z</time></trkpt><trkpt lat="45.92317318751346" lon="12.078338861034414"><ele>338.8571428571429</ele><time>2026-04-25T10:16:45.998Z</time></trkpt><trkpt lat="45.9232202655039" lon="12.078408521795286"><ele>337.71428571428567</ele><time>2026-04-25T10:16:47.998Z</time></trkpt><trkpt lat="45.92325430974202" lon="12.078492207856314"><ele>336.57142857142856</ele><time>2026-04-25T10:16:49.998Z</time></trkpt><trkpt lat="45.923263366312185" lon="12.07859203758045"><ele>335.42857142857144</ele><time>2026-04-25T10:16:51.998Z</time></trkpt><trkpt lat="45.92328426461191" lon="12.078704704738211"><ele>334.28571428571433</ele><time>2026-04-25T10:16:54.998Z</time></trkpt><trkpt lat="45.923341700533356" lon="12.078791106406127"><ele>333.1428571428571</ele><time>2026-04-25T10:16:57.998Z</time></trkpt><trkpt lat="45.92339781156908" lon="12.078838712923632"><ele>332.0</ele><time>2026-04-25T10:16:59.998Z</time></trkpt><trkpt lat="45.923455759786954" lon="12.078893347062163"><ele>335.1666666666667</ele><time>2026-04-25T10:17:01.998Z</time></trkpt><trkpt lat="45.923516908430756" lon="12.078941257346795"><ele>338.33333333333337</ele><time>2026-04-25T10:17:03.998Z</time></trkpt><trkpt lat="45.92357633259875" lon="12.078993163728935"><ele>341.5</ele><time>2026-04-25T10:17:05.998Z</time></trkpt><trkpt lat="45.923632029437925" lon="12.079040891535051"><ele>344.6666666666667</ele><time>2026-04-25T10:17:07.998Z</time></trkpt><trkpt lat="45.92368675406511" lon="12.079089042108984"><ele>347.8333333333333</ele><time>2026-04-25T10:17:09.998Z</time></trkpt><trkpt lat="45.92376012538991" lon="12.079167859150418"><ele>351.0</ele><time>2026-04-25T10:17:12.998Z</time></trkpt><trkpt lat="45.92382829840366" lon="12.079256522068095"><ele>351.0</ele><time>2026-04-25T10:17:15.998Z</time></trkpt><trkpt lat="45.923874322296385" lon="12.079326923348402"><ele>351.0</ele><time>2026-04-25T10:17:17.998Z</time></trkpt><trkpt lat="45.923908283654946" lon="12.07940753898407"><ele>351.0</ele><time>2026-04-25T10:17:19.998Z</time></trkpt><trkpt lat="45.923950288360054" lon="12.079517111723"><ele>351.0</ele><time>2026-04-25T10:17:22.998Z</time></trkpt><trkpt lat="45.92399036594024" lon="12.079625946331483"><ele>351.0</ele><time>2026-04-25T10:17:25.998Z</time></trkpt><trkpt lat="45.923993593788545" lon="12.07974687044304"><ele>351.0</ele><time>2026-04-25T10:17:27.998Z</time></trkpt><trkpt lat="45.92397385184779" lon="12.079868615224377"><ele>349.1666666666667</ele><time>2026-04-25T10:17:29.998Z</time></trkpt><trkpt lat="45.923938797477334" lon="12.079983810426288"><ele>347.3333333333333</ele><time>2026-04-25T10:17:31.997Z</time></trkpt><trkpt lat="45.923885675045554" lon="12.08009163409287"><ele>345.5</ele><time>2026-04-25T10:17:34Z</time></trkpt><trkpt lat="45.92384656399683" lon="12.080194211207578"><ele>343.66666666666663</ele><time>2026-04-25T10:17:36Z</time></trkpt><trkpt lat="45.92388229639038" lon="12.080288229555844"><ele>341.8333333333333</ele><time>2026-04-25T10:17:39Z</time></trkpt><trkpt lat="45.923951194141914" lon="12.080277313707214"><ele>340.0</ele><time>2026-04-25T10:17:42Z</time></trkpt><trkpt lat="45.92400714408812" lon="12.080223256605883"><ele>340.0</ele><time>2026-04-25T10:17:45Z</time></trkpt><trkpt lat="45.92406146685299" lon="12.080163989334377"><ele>340.0</ele><time>2026-04-25T10:17:49Z</time></trkpt><trkpt lat="45.92411571420638" lon="12.080117019645648"><ele>340.0</ele><time>2026-04-25T10:17:54Z</time></trkpt><trkpt lat="45.92416276359437" lon="12.080054753609444"><ele>340.0</ele><time>2026-04-25T10:17:58Z</time></trkpt><trkpt lat="45.92423396335476" lon="12.080022633677189"><ele>340.0</ele><time>2026-04-25T10:18:03Z</time></trkpt><trkpt lat="45.92430024922702" lon="12.08002084208411"><ele>340.0</ele><time>2026-04-25T10:18:08Z</time></trkpt><trkpt lat="45.92436923405476" lon="12.080005097171759"><ele>340.0</ele><time>2026-04-25T10:18:12.999Z</time></trkpt><trkpt lat="45.924441574634415" lon="12.079979404611777"><ele>343.7142857142857</ele><time>2026-04-25T10:18:17.999Z</time></trkpt><trkpt lat="45.92450943832975" lon="12.079957508956609"><ele>347.4285714285714</ele><time>2026-04-25T10:18:22.999Z</time></trkpt><trkpt lat="45.92458274075266" lon="12.079941613763177"><ele>351.1428571428571</ele><time>2026-04-25T10:18:28.999Z</time></trkpt><trkpt lat="45.92465253789769" lon="12.07989913125806"><ele>354.8571428571429</ele><time>2026-04-25T10:18:33.999Z</time></trkpt><trkpt lat="45.92471836958422" lon="12.079856325032601"><ele>358.57142857142856</ele><time>2026-04-25T10:18:38.999Z</time></trkpt><trkpt lat="45.924782087290815" lon="12.07988528049522"><ele>362.2857142857143</ele><time>2026-04-25T10:18:43.999Z</time></trkpt><trkpt lat="45.924829904305895" lon="12.079963434066668"><ele>366.0</ele><time>2026-04-25T10:18:47.999Z</time></trkpt><trkpt lat="45.92486646849873" lon="12.080056500385657"><ele>366.0</ele><time>2026-04-25T10:18:51.999Z</time></trkpt><trkpt lat="45.924912175322646" lon="12.08012182453376"><ele>366.0</ele><time>2026-04-25T10:18:55.999Z</time></trkpt><trkpt lat="45.924962350067226" lon="12.080189857628199"><ele>366.0</ele><time>2026-04-25T10:19:00.998Z</time></trkpt><trkpt lat="45.925039318501476" lon="12.080267720430163"><ele>366.0</ele><time>2026-04-25T10:19:03.998Z</time></trkpt><trkpt lat="45.925114299972016" lon="12.080342463248986"><ele>366.0</ele><time>2026-04-25T10:19:05.998Z</time></trkpt><trkpt lat="45.92516880371536" lon="12.080405081269982"><ele>366.0</ele><time>2026-04-25T10:19:07.998Z</time></trkpt><trkpt lat="45.92521610460127" lon="12.080466154417515"><ele>368.0</ele><time>2026-04-25T10:19:11.998Z</time></trkpt><trkpt lat="45.925262312640385" lon="12.080536995775173"><ele>370.0</ele><time>2026-04-25T10:19:14.998Z</time></trkpt><trkpt lat="45.925328474605095" lon="12.08061796720122"><ele>372.0</ele><time>2026-04-25T10:19:17.998Z</time></trkpt><trkpt lat="45.925399525409865" lon="12.080700138222218"><ele>374.0</ele><time>2026-04-25T10:19:20.998Z</time></trkpt><trkpt lat="45.92546076575916" lon="12.080789880881031"><ele>376.0</ele><time>2026-04-25T10:19:23.998Z</time></trkpt><trkpt lat="45.92552716831785" lon="12.080864458121807"><ele>378.0</ele><time>2026-04-25T10:19:26.998Z</time></trkpt><trkpt lat="45.92560405829791" lon="12.080964238508427"><ele>378.0</ele><time>2026-04-25T10:19:29.998Z</time></trkpt><trkpt lat="45.92565045635242" lon="12.081027140189189"><ele>378.0</ele><time>2026-04-25T10:19:30.998Z</time></trkpt><trkpt lat="45.925702893151836" lon="12.081100054104203"><ele>378.0</ele><time>2026-04-25T10:19:31.998Z</time></trkpt><trkpt lat="45.92575517869917" lon="12.08117429614512"><ele>378.0</ele><time>2026-04-25T10:19:32.998Z</time></trkpt><trkpt lat="45.92580747175547" lon="12.08124476662809"><ele>378.0</ele><time>2026-04-25T10:19:33.998Z</time></trkpt><trkpt lat="45.92586207107274" lon="12.081317763824565"><ele>378.0</ele><time>2026-04-25T10:19:34.998Z</time></trkpt><trkpt lat="45.925921212001725" lon="12.081396631267399"><ele>378.0</ele><time>2026-04-25T10:19:35.998Z</time></trkpt><trkpt lat="45.92598079429487" lon="12.081484236688347"><ele>379.3333333333333</ele><time>2026-04-25T10:19:36.998Z</time></trkpt><trkpt lat="45.92601647548342" lon="12.081593255614392"><ele>380.66666666666663</ele><time>2026-04-25T10:19:37.998Z</time></trkpt><trkpt lat="45.92608247316263" lon="12.081663062157004"><ele>382.0</ele><time>2026-04-25T10:19:39Z</time></trkpt><trkpt lat="45.92612689897099" lon="12.081764976132643"><ele>383.3333333333333</ele><time>2026-04-25T10:19:40Z</time></trkpt><trkpt lat="45.926176830070574" lon="12.081843909740034"><ele>384.66666666666663</ele><time>2026-04-25T10:19:41Z</time></trkpt><trkpt lat="45.92621988547473" lon="12.081921568801054"><ele>386.0</ele><time>2026-04-25T10:19:42Z</time></trkpt><trkpt lat="45.92626683309585" lon="12.08201974387145"><ele>385.99999999999994</ele><time>2026-04-25T10:19:44Z</time></trkpt><trkpt lat="45.92632017431622" lon="12.082114399456874"><ele>386.0</ele><time>2026-04-25T10:19:47Z</time></trkpt><trkpt lat="45.92637766265485" lon="12.082191207831132"><ele>386.0</ele><time>2026-04-25T10:19:50Z</time></trkpt><trkpt lat="45.92646221150606" lon="12.082250888448586"><ele>386.0</ele><time>2026-04-25T10:19:53Z</time></trkpt><trkpt lat="45.92652055061926" lon="12.082333052341818"><ele>385.99999999999994</ele><time>2026-04-25T10:19:55Z</time></trkpt><trkpt lat="45.92659720495806" lon="12.082386137750099"><ele>386.0</ele><time>2026-04-25T10:19:57Z</time></trkpt><trkpt lat="45.926655803450515" lon="12.082472135845036"><ele>387.99999999999994</ele><time>2026-04-25T10:20:00Z</time></trkpt><trkpt lat="45.9267007075773" lon="12.082539362901432"><ele>390.0</ele><time>2026-04-25T10:20:17Z</time></trkpt><trkpt lat="45.92673400943989" lon="12.082627802942982"><ele>392.0</ele><time>2026-04-25T10:20:19Z</time></trkpt><trkpt lat="45.92680037004848" lon="12.082709765809831"><ele>394.0</ele><time>2026-04-25T10:20:21Z</time></trkpt><trkpt lat="45.92685518106075" lon="12.082836802966883"><ele>395.99999999999994</ele><time>2026-04-25T10:20:23Z</time></trkpt><trkpt lat="45.92689367944325" lon="12.082927523700725"><ele>398.0</ele><time>2026-04-25T10:20:25Z</time></trkpt><trkpt lat="45.92694107240499" lon="12.083082051417659"><ele>397.99999999999994</ele><time>2026-04-25T10:20:27Z</time></trkpt><trkpt lat="45.92697983424174" lon="12.083188551788602"><ele>398.0</ele><time>2026-04-25T10:20:29Z</time></trkpt><trkpt lat="45.927029672138076" lon="12.083336915991811"><ele>398.0</ele><time>2026-04-25T10:20:31Z</time></trkpt><trkpt lat="45.92706962885001" lon="12.08343687197434"><ele>398.0</ele><time>2026-04-25T10:20:32Z</time></trkpt><trkpt lat="45.92710159632946" lon="12.08352112003653"><ele>397.99999999999994</ele><time>2026-04-25T10:20:33Z</time></trkpt><trkpt lat="45.92714358113086" lon="12.083632889674236"><ele>398.0</ele><time>2026-04-25T10:20:35Z</time></trkpt><trkpt lat="45.92718453643772" lon="12.083730468381459"><ele>391.25</ele><time>2026-04-25T10:20:36.999Z</time></trkpt><trkpt lat="45.92725795189618" lon="12.083903194866854"><ele>384.5</ele><time>2026-04-25T10:20:38.999Z</time></trkpt><trkpt lat="45.927317006793885" lon="12.084047372537285"><ele>377.75</ele><time>2026-04-25T10:20:40.999Z</time></trkpt><trkpt lat="45.92737814455892" lon="12.084194828640163"><ele>371.0</ele><time>2026-04-25T10:20:42.999Z</time></trkpt><trkpt lat="45.92743750589824" lon="12.084347651269448"><ele>367.6666666666667</ele><time>2026-04-25T10:20:44.999Z</time></trkpt><trkpt lat="45.927505838984494" lon="12.084499460005045"><ele>364.33333333333337</ele><time>2026-04-25T10:20:46.999Z</time></trkpt><trkpt lat="45.92754005523154" lon="12.084585358503773"><ele>361.0</ele><time>2026-04-25T10:20:47.999Z</time></trkpt><trkpt lat="45.92757611486505" lon="12.084668823804689"><ele>357.6666666666667</ele><time>2026-04-25T10:20:48.999Z</time></trkpt><trkpt lat="45.92761681704455" lon="12.08474720557424"><ele>354.3333333333333</ele><time>2026-04-25T10:20:49.999Z</time></trkpt><trkpt lat="45.92764835596184" lon="12.084833569322049"><ele>351.0</ele><time>2026-04-25T10:20:50.999Z</time></trkpt><trkpt lat="45.92770768610075" lon="12.084911818785937"><ele>353.1666666666667</ele><time>2026-04-25T10:20:51.999Z</time></trkpt><trkpt lat="45.927761489943904" lon="12.084988086193322"><ele>355.3333333333333</ele><time>2026-04-25T10:20:52.999Z</time></trkpt><trkpt lat="45.927805408990764" lon="12.085061213364096"><ele>357.5</ele><time>2026-04-25T10:20:53.999Z</time></trkpt><trkpt lat="45.9278431648407" lon="12.085142774096331"><ele>359.66666666666663</ele><time>2026-04-25T10:20:54.999Z</time></trkpt><trkpt lat="45.927918186672734" lon="12.08527837951509"><ele>361.8333333333333</ele><time>2026-04-25T10:20:56.999Z</time></trkpt><trkpt lat="45.92799196256943" lon="12.08539125346039"><ele>364.0</ele><time>2026-04-25T10:20:58.999Z</time></trkpt><trkpt lat="45.92804878957901" lon="12.08550384390103"><ele>364.0</ele><time>2026-04-25T10:21:00.999Z</time></trkpt><trkpt lat="45.928103335099436" lon="12.085600795648862"><ele>364.0</ele><time>2026-04-25T10:21:02.999Z</time></trkpt><trkpt lat="45.92813726096743" lon="12.085697189378756"><ele>364.0</ele><time>2026-04-25T10:21:10.999Z</time></trkpt><trkpt lat="45.92817935460399" lon="12.0857845541199"><ele>364.0</ele><time>2026-04-25T10:21:12.999Z</time></trkpt><trkpt lat="45.92822412986209" lon="12.085887679566149"><ele>364.0</ele><time>2026-04-25T10:21:14.999Z</time></trkpt><trkpt lat="45.92827579037496" lon="12.08598627678546"><ele>364.0</ele><time>2026-04-25T10:21:16.999Z</time></trkpt><trkpt lat="45.928322829994606" lon="12.086121721979058"><ele>363.2</ele><time>2026-04-25T10:21:18.998Z</time></trkpt><trkpt lat="45.928379955700976" lon="12.086277550481359"><ele>362.4</ele><time>2026-04-25T10:21:20.998Z</time></trkpt><trkpt lat="45.928402732193376" lon="12.086362730754328"><ele>361.6</ele><time>2026-04-25T10:21:21.998Z</time></trkpt><trkpt lat="45.92841382958528" lon="12.086537069377586"><ele>360.8</ele><time>2026-04-25T10:21:23.998Z</time></trkpt><trkpt lat="45.92841776539083" lon="12.086709819128462"><ele>360.0</ele><time>2026-04-25T10:21:25.998Z</time></trkpt><trkpt lat="45.92839739316459" lon="12.086805579753975"><ele>355.57142857142856</ele><time>2026-04-25T10:21:26.998Z</time></trkpt><trkpt lat="45.92837488355657" lon="12.086906671674699"><ele>351.14285714285717</ele><time>2026-04-25T10:21:27.998Z</time></trkpt><trkpt lat="45.928349328965474" lon="12.087002435363239"><ele>346.7142857142857</ele><time>2026-04-25T10:21:28.997Z</time></trkpt><trkpt lat="45.928322227554006" lon="12.087105121535318"><ele>342.2857142857143</ele><time>2026-04-25T10:21:29.997Z</time></trkpt><trkpt lat="45.92829453895423" lon="12.08721003255077"><ele>337.8571428571429</ele><time>2026-04-25T10:21:30.997Z</time></trkpt><trkpt lat="45.928269710931794" lon="12.087304104969007"><ele>333.42857142857144</ele><time>2026-04-25T10:21:31.997Z</time></trkpt><trkpt lat="45.92824718566911" lon="12.087404176730063"><ele>329.0</ele><time>2026-04-25T10:21:32.997Z</time></trkpt><trkpt lat="45.92824465200685" lon="12.087504882521412"><ele>327.5</ele><time>2026-04-25T10:21:33.997Z</time></trkpt><trkpt lat="45.9282340775302" lon="12.08759685047609"><ele>326.0</ele><time>2026-04-25T10:21:34.997Z</time></trkpt><trkpt lat="45.928238134104" lon="12.087692677588826"><ele>324.5</ele><time>2026-04-25T10:21:35.997Z</time></trkpt><trkpt lat="45.928286709182096" lon="12.08787023558715"><ele>323.0</ele><time>2026-04-25T10:21:37.997Z</time></trkpt><trkpt lat="45.928325443708644" lon="12.087956276652436"><ele>321.5</ele><time>2026-04-25T10:21:38.997Z</time></trkpt><trkpt lat="45.92837480599904" lon="12.088036398547152"><ele>320.0</ele><time>2026-04-25T10:21:39.997Z</time></trkpt><trkpt lat="45.928419552033716" lon="12.088117205120472"><ele>319.4</ele><time>2026-04-25T10:21:40.997Z</time></trkpt><trkpt lat="45.92845733510062" lon="12.08819406210424"><ele>318.8</ele><time>2026-04-25T10:21:41.997Z</time></trkpt><trkpt lat="45.9285152839894" lon="12.088328328773434"><ele>318.2</ele><time>2026-04-25T10:21:43.997Z</time></trkpt><trkpt lat="45.92860340190952" lon="12.088392922519304"><ele>317.6</ele><time>2026-04-25T10:21:45.999Z</time></trkpt><trkpt lat="45.928703344914744" lon="12.08841994077984"><ele>317.0</ele><time>2026-04-25T10:21:47.999Z</time></trkpt><trkpt lat="45.92880378267724" lon="12.088451577133943"><ele>317.0</ele><time>2026-04-25T10:21:49.999Z</time></trkpt><trkpt lat="45.92893795026407" lon="12.088466002368158"><ele>317.0</ele><time>2026-04-25T10:21:51.999Z</time></trkpt><trkpt lat="45.929008412858835" lon="12.08850380036589"><ele>317.0</ele><time>2026-04-25T10:21:52.999Z</time></trkpt><trkpt lat="45.92907972484102" lon="12.088546655841382"><ele>317.0</ele><time>2026-04-25T10:21:53.999Z</time></trkpt><trkpt lat="45.92912981856029" lon="12.088632644869433"><ele>317.0</ele><time>2026-04-25T10:21:54.999Z</time></trkpt><trkpt lat="45.929179431793365" lon="12.08872130077331"><ele>317.0</ele><time>2026-04-25T10:21:55.999Z</time></trkpt><trkpt lat="45.929228229921186" lon="12.088808623451117"><ele>317.0</ele><time>2026-04-25T10:21:56.999Z</time></trkpt><trkpt lat="45.92926452962473" lon="12.088892061912693"><ele>317.0</ele><time>2026-04-25T10:21:57.999Z</time></trkpt><trkpt lat="45.929246695704265" lon="12.088985409431537"><ele>317.0</ele><time>2026-04-25T10:21:58.999Z</time></trkpt><trkpt lat="45.929256804615676" lon="12.089084312419184"><ele>317.0</ele><time>2026-04-25T10:21:59.999Z</time></trkpt><trkpt lat="45.92927807070561" lon="12.089173182614605"><ele>317.0</ele><time>2026-04-25T10:22:00.999Z</time></trkpt><trkpt lat="45.92933689524429" lon="12.089243195612916"><ele>317.0</ele><time>2026-04-25T10:22:01.999Z</time></trkpt><trkpt lat="45.92939400330904" lon="12.08930063622367"><ele>317.0</ele><time>2026-04-25T10:22:02.999Z</time></trkpt><trkpt lat="45.92945686835959" lon="12.08934863503105"><ele>317.0</ele><time>2026-04-25T10:22:03.999Z</time></trkpt><trkpt lat="45.92950639226442" lon="12.08941953453596"><ele>317.0</ele><time>2026-04-25T10:22:04.999Z</time></trkpt><trkpt lat="45.929571286732035" lon="12.089472254008506"><ele>317.0</ele><time>2026-04-25T10:22:05.999Z</time></trkpt><trkpt lat="45.92961826813875" lon="12.089551103975777"><ele>317.0</ele><time>2026-04-25T10:22:06.999Z</time></trkpt><trkpt lat="45.92966863897292" lon="12.089629951287451"><ele>317.0</ele><time>2026-04-25T10:22:07.999Z</time></trkpt><trkpt lat="45.929713747369085" lon="12.089704448239953"><ele>317.0</ele><time>2026-04-25T10:22:08.999Z</time></trkpt><trkpt lat="45.92977130704477" lon="12.089854062652686"><ele>314.6</ele><time>2026-04-25T10:22:10.999Z</time></trkpt><trkpt lat="45.92983041251887" lon="12.089993835904252"><ele>312.2</ele><time>2026-04-25T10:22:12.999Z</time></trkpt><trkpt lat="45.92990178439853" lon="12.090147241618057"><ele>309.8</ele><time>2026-04-25T10:22:14.999Z</time></trkpt><trkpt lat="45.92996086425717" lon="12.09021429011973"><ele>307.4</ele><time>2026-04-25T10:22:15.999Z</time></trkpt><trkpt lat="45.9300177999758" lon="12.090295889978215"><ele>305.0</ele><time>2026-04-25T10:22:16.999Z</time></trkpt><trkpt lat="45.930082467106104" lon="12.090368477269774"><ele>305.0</ele><time>2026-04-25T10:22:17.999Z</time></trkpt><trkpt lat="45.930151999915594" lon="12.09042978536999"><ele>305.0</ele><time>2026-04-25T10:22:18.999Z</time></trkpt><trkpt lat="45.93021678627918" lon="12.090478985117008"><ele>305.0</ele><time>2026-04-25T10:22:19.999Z</time></trkpt><trkpt lat="45.93028563130496" lon="12.090521429421111"><ele>305.0</ele><time>2026-04-25T10:22:20.999Z</time></trkpt><trkpt lat="45.9303605988563" lon="12.09056426945266"><ele>305.0</ele><time>2026-04-25T10:22:21.999Z</time></trkpt><trkpt lat="45.93042184266565" lon="12.090594308789699"><ele>305.0</ele><time>2026-04-25T10:22:22.999Z</time></trkpt><trkpt lat="45.93054505188588" lon="12.09059366462437"><ele>305.0</ele><time>2026-04-25T10:22:24.999Z</time></trkpt><trkpt lat="45.93061340153043" lon="12.090584641633432"><ele>305.0</ele><time>2026-04-25T10:22:25.999Z</time></trkpt><trkpt lat="45.930743892073195" lon="12.0905868094423"><ele>305.0</ele><time>2026-04-25T10:22:27.999Z</time></trkpt><trkpt lat="45.930799408342224" lon="12.090649610959154"><ele>305.0</ele><time>2026-04-25T10:22:28.999Z</time></trkpt><trkpt lat="45.93085092253149" lon="12.09070884553306"><ele>305.0</ele><time>2026-04-25T10:22:29.999Z</time></trkpt><trkpt lat="45.930904417133796" lon="12.090778122310981"><ele>305.0</ele><time>2026-04-25T10:22:30.999Z</time></trkpt><trkpt lat="45.930960664363" lon="12.090840997157633"><ele>305.0</ele><time>2026-04-25T10:22:31.999Z</time></trkpt><trkpt lat="45.93102448878362" lon="12.09091234228271"><ele>305.0</ele><time>2026-04-25T10:22:32.999Z</time></trkpt><trkpt lat="45.9310861264669" lon="12.090981598605266"><ele>305.0</ele><time>2026-04-25T10:22:33.999Z</time></trkpt><trkpt lat="45.931165446252784" lon="12.091043907782318"><ele>305.0</ele><time>2026-04-25T10:22:34.999Z</time></trkpt><trkpt lat="45.931223744326466" lon="12.091152692362156"><ele>305.0</ele><time>2026-04-25T10:22:35.999Z</time></trkpt><trkpt lat="45.931287027869196" lon="12.091253071513362"><ele>305.0</ele><time>2026-04-25T10:22:36.999Z</time></trkpt><trkpt lat="45.931351605127986" lon="12.091349191364886"><ele>305.0</ele><time>2026-04-25T10:22:37.999Z</time></trkpt><trkpt lat="45.931439855743605" lon="12.091424684893337"><ele>305.0</ele><time>2026-04-25T10:22:38.999Z</time></trkpt><trkpt lat="45.93154019469616" lon="12.09153550323424"><ele>305.0</ele><time>2026-04-25T10:22:39.999Z</time></trkpt><trkpt lat="45.93160022198678" lon="12.091609589734537"><ele>305.0</ele><time>2026-04-25T10:22:40.999Z</time></trkpt><trkpt lat="45.9316759844411" lon="12.091694213678899"><ele>305.0</ele><time>2026-04-25T10:22:41.999Z</time></trkpt><trkpt lat="45.931762230500574" lon="12.091792028962038"><ele>305.25</ele><time>2026-04-25T10:22:42.999Z</time></trkpt><trkpt lat="45.93184270550295" lon="12.091912257479686"><ele>305.5</ele><time>2026-04-25T10:22:43.999Z</time></trkpt><trkpt lat="45.931934842180446" lon="12.092019026278578"><ele>305.75</ele><time>2026-04-25T10:22:44.999Z</time></trkpt><trkpt lat="45.93202753934692" lon="12.09212645994449"><ele>306.0</ele><time>2026-04-25T10:22:45.998Z</time></trkpt><trkpt lat="45.93211667753801" lon="12.092229768827707"><ele>306.0</ele><time>2026-04-25T10:22:46.998Z</time></trkpt><trkpt lat="45.932207709333625" lon="12.09233527232281"><ele>306.0</ele><time>2026-04-25T10:22:47.998Z</time></trkpt><trkpt lat="45.932291909064894" lon="12.092432111651341"><ele>306.0</ele><time>2026-04-25T10:22:48.998Z</time></trkpt><trkpt lat="45.932379098053225" lon="12.092529619260299"><ele>306.0</ele><time>2026-04-25T10:22:49.998Z</time></trkpt><trkpt lat="45.932477061320796" lon="12.092609215696172"><ele>306.0</ele><time>2026-04-25T10:22:50.998Z</time></trkpt><trkpt lat="45.93255707745322" lon="12.09270534640002"><ele>306.8</ele><time>2026-04-25T10:22:51.998Z</time></trkpt><trkpt lat="45.932634006974496" lon="12.092800303980257"><ele>307.6</ele><time>2026-04-25T10:22:52.998Z</time></trkpt><trkpt lat="45.932702988372405" lon="12.092911797356392"><ele>308.4</ele><time>2026-04-25T10:22:53.998Z</time></trkpt><trkpt lat="45.93278042443675" lon="12.092983782483744"><ele>309.2</ele><time>2026-04-25T10:22:54.998Z</time></trkpt><trkpt lat="45.93283846122889" lon="12.09308138034088"><ele>310.0</ele><time>2026-04-25T10:22:55.998Z</time></trkpt><trkpt lat="45.93290608373453" lon="12.093152415236583"><ele>310.0</ele><time>2026-04-25T10:22:56.998Z</time></trkpt><trkpt lat="45.93296871379088" lon="12.093219063855198"><ele>310.0</ele><time>2026-04-25T10:22:57.998Z</time></trkpt><trkpt lat="45.93303828707137" lon="12.093265974000724"><ele>310.0</ele><time>2026-04-25T10:22:58.998Z</time></trkpt><trkpt lat="45.933097203892615" lon="12.093331739798138"><ele>310.0</ele><time>2026-04-25T10:22:59.998Z</time></trkpt><trkpt lat="45.93315118974968" lon="12.09339283272787"><ele>310.0</ele><time>2026-04-25T10:23:00.998Z</time></trkpt><trkpt lat="45.93319144393555" lon="12.093467914472718"><ele>310.0</ele><time>2026-04-25T10:23:01.998Z</time></trkpt><trkpt lat="45.93329462692352" lon="12.093566852958967"><ele>312.2</ele><time>2026-04-25T10:23:03.998Z</time></trkpt><trkpt lat="45.93339701601403" lon="12.093662010824541"><ele>314.4</ele><time>2026-04-25T10:23:05.998Z</time></trkpt><trkpt lat="45.93349196295976" lon="12.093762702584984"><ele>316.6</ele><time>2026-04-25T10:23:07.998Z</time></trkpt><trkpt lat="45.93354261372044" lon="12.093818237070712"><ele>318.8</ele><time>2026-04-25T10:23:08.998Z</time></trkpt><trkpt lat="45.93363483614291" lon="12.093927145077926"><ele>321.0</ele><time>2026-04-25T10:23:10.998Z</time></trkpt><trkpt lat="45.93368585709594" lon="12.0939988030894"><ele>321.0</ele><time>2026-04-25T10:23:11.998Z</time></trkpt><trkpt lat="45.93373552243052" lon="12.094071955834034"><ele>321.0</ele><time>2026-04-25T10:23:12.998Z</time></trkpt><trkpt lat="45.93376330513491" lon="12.094163394960532"><ele>321.0</ele><time>2026-04-25T10:23:13.998Z</time></trkpt><trkpt lat="45.93382432047514" lon="12.09430139151475"><ele>321.0</ele><time>2026-04-25T10:23:15.998Z</time></trkpt><trkpt lat="45.93389013606304" lon="12.094453643235385"><ele>321.0</ele><time>2026-04-25T10:23:17.998Z</time></trkpt><trkpt lat="45.93394380604615" lon="12.094539334273563"><ele>316.5</ele><time>2026-04-25T10:23:18.998Z</time></trkpt><trkpt lat="45.9339820854672" lon="12.094634337257142"><ele>312.0</ele><time>2026-04-25T10:23:19.998Z</time></trkpt><trkpt lat="45.93402566955116" lon="12.094728606441475"><ele>307.5</ele><time>2026-04-25T10:23:20.998Z</time></trkpt><trkpt lat="45.93406578123885" lon="12.0948281684752"><ele>303.0</ele><time>2026-04-25T10:23:21.998Z</time></trkpt><trkpt lat="45.93411479371391" lon="12.094925640427496"><ele>298.5</ele><time>2026-04-25T10:23:22.998Z</time></trkpt><trkpt lat="45.93416406371888" lon="12.095022450488026"><ele>294.0</ele><time>2026-04-25T10:23:23.998Z</time></trkpt><trkpt lat="45.93421837521379" lon="12.095118971503046"><ele>295.0</ele><time>2026-04-25T10:23:24.998Z</time></trkpt><trkpt lat="45.93426507719192" lon="12.095214031783737"><ele>296.0</ele><time>2026-04-25T10:23:25.998Z</time></trkpt><trkpt lat="45.93431197652113" lon="12.095318234995451"><ele>297.0</ele><time>2026-04-25T10:23:26.998Z</time></trkpt><trkpt lat="45.93436052447725" lon="12.09541983169651"><ele>298.0</ele><time>2026-04-25T10:23:27.998Z</time></trkpt><trkpt lat="45.934408108035996" lon="12.095518286308826"><ele>299.0</ele><time>2026-04-25T10:23:28.998Z</time></trkpt><trkpt lat="45.934458781155804" lon="12.095610176743996"><ele>300.0</ele><time>2026-04-25T10:23:29.998Z</time></trkpt><trkpt lat="45.934505665392024" lon="12.095707243031462"><ele>295.85714285714283</ele><time>2026-04-25T10:23:30.998Z</time></trkpt><trkpt lat="45.93454267403866" lon="12.09579640791854"><ele>291.7142857142857</ele><time>2026-04-25T10:23:31.998Z</time></trkpt><trkpt lat="45.934569856435544" lon="12.095884346396764"><ele>287.57142857142856</ele><time>2026-04-25T10:23:32.998Z</time></trkpt><trkpt lat="45.93458085457717" lon="12.095982315281358"><ele>283.42857142857144</ele><time>2026-04-25T10:23:33.998Z</time></trkpt><trkpt lat="45.93457574404896" lon="12.096083397646467"><ele>279.2857142857143</ele><time>2026-04-25T10:23:34.998Z</time></trkpt><trkpt lat="45.93456127810203" lon="12.09618441821421"><ele>275.1428571428571</ele><time>2026-04-25T10:23:35.998Z</time></trkpt><trkpt lat="45.934559121260115" lon="12.09628123785504"><ele>271.0</ele><time>2026-04-25T10:23:36.998Z</time></trkpt><trkpt lat="45.934606257006074" lon="12.096435205551211"><ele>271.0</ele><time>2026-04-25T10:23:38.998Z</time></trkpt><trkpt lat="45.934674863809875" lon="12.096501925250076"><ele>271.0</ele><time>2026-04-25T10:23:39.998Z</time></trkpt><trkpt lat="45.93476365419873" lon="12.096549340643723"><ele>271.0</ele><time>2026-04-25T10:23:40.997Z</time></trkpt><trkpt lat="45.93482951209271" lon="12.09661968180317"><ele>271.0</ele><time>2026-04-25T10:23:41.997Z</time></trkpt><trkpt lat="45.93492158174517" lon="12.096664722505908"><ele>271.0</ele><time>2026-04-25T10:23:42.997Z</time></trkpt><trkpt lat="45.9350042552771" lon="12.096729382422515"><ele>264.2</ele><time>2026-04-25T10:23:43.997Z</time></trkpt><trkpt lat="45.935095789069415" lon="12.096787956167434"><ele>257.40000000000003</ele><time>2026-04-25T10:23:44.997Z</time></trkpt><trkpt lat="45.93519306183454" lon="12.096842476045685"><ele>250.6</ele><time>2026-04-25T10:23:45.997Z</time></trkpt><trkpt lat="45.93528213537236" lon="12.09691228204013"><ele>243.8</ele><time>2026-04-25T10:23:46.997Z</time></trkpt><trkpt lat="45.93537905079568" lon="12.096946654340286"><ele>237.0</ele><time>2026-04-25T10:23:47.997Z</time></trkpt><trkpt lat="45.93546213777747" lon="12.096997995505205"><ele>237.0</ele><time>2026-04-25T10:23:48.997Z</time></trkpt><trkpt lat="45.935538884048626" lon="12.0970239783323"><ele>237.0</ele><time>2026-04-25T10:23:49.997Z</time></trkpt><trkpt lat="45.93560580478674" lon="12.09702622386287"><ele>237.0</ele><time>2026-04-25T10:23:51Z</time></trkpt><trkpt lat="45.93570711544473" lon="12.097021494085581"><ele>237.0</ele><time>2026-04-25T10:23:53Z</time></trkpt><trkpt lat="45.935794953642166" lon="12.097040405484035"><ele>237.0</ele><time>2026-04-25T10:23:55Z</time></trkpt><trkpt lat="45.93586938847406" lon="12.097096296576721"><ele>237.0</ele><time>2026-04-25T10:23:57Z</time></trkpt><trkpt lat="45.935930056436305" lon="12.097156777163823"><ele>236.83333333333334</ele><time>2026-04-25T10:23:59Z</time></trkpt><trkpt lat="45.93598446574867" lon="12.097235288157403"><ele>236.66666666666669</ele><time>2026-04-25T10:24:02Z</time></trkpt><trkpt lat="45.93606750916025" lon="12.097178432213783"><ele>236.5</ele><time>2026-04-25T10:24:05Z</time></trkpt><trkpt lat="45.93613583130657" lon="12.097139636930562"><ele>236.33333333333334</ele><time>2026-04-25T10:24:08Z</time></trkpt><trkpt lat="45.93619818999873" lon="12.097077493819912"><ele>236.16666666666669</ele><time>2026-04-25T10:24:11Z</time></trkpt><trkpt lat="45.936268182562316" lon="12.097034062818432"><ele>236.0</ele><time>2026-04-25T10:24:14Z</time></trkpt><trkpt lat="45.93634001412066" lon="12.096998416304354"><ele>236.00000000000003</ele><time>2026-04-25T10:24:17Z</time></trkpt><trkpt lat="45.936414310164174" lon="12.096966182179887"><ele>236.0</ele><time>2026-04-25T10:24:20Z</time></trkpt><trkpt lat="45.936489761427175" lon="12.096933943582846"><ele>236.0</ele><time>2026-04-25T10:24:22.999Z</time></trkpt><trkpt lat="45.93656892103824" lon="12.096904147056238"><ele>236.0</ele><time>2026-04-25T10:24:25.999Z</time></trkpt><trkpt lat="45.93664626690307" lon="12.09686634501595"><ele>236.00000000000003</ele><time>2026-04-25T10:24:28.999Z</time></trkpt><trkpt lat="45.93672662032667" lon="12.096826721718989"><ele>236.0</ele><time>2026-04-25T10:24:31.999Z</time></trkpt><trkpt lat="45.936802510691905" lon="12.09677095980671"><ele>235.83333333333334</ele><time>2026-04-25T10:24:34.999Z</time></trkpt><trkpt lat="45.936879740802866" lon="12.096708445401838"><ele>235.66666666666669</ele><time>2026-04-25T10:24:37.999Z</time></trkpt><trkpt lat="45.936955965015564" lon="12.096636662525478"><ele>235.5</ele><time>2026-04-25T10:24:40.999Z</time></trkpt><trkpt lat="45.93700528358849" lon="12.096575359437384"><ele>235.33333333333331</ele><time>2026-04-25T10:24:42.999Z</time></trkpt><trkpt lat="45.93707151460745" lon="12.096482429046459"><ele>235.16666666666666</ele><time>2026-04-25T10:24:45.999Z</time></trkpt><trkpt lat="45.93713399441644" lon="12.096394675130199"><ele>235.0</ele><time>2026-04-25T10:24:48.999Z</time></trkpt><trkpt lat="45.93717395228486" lon="12.096296286754203"><ele>235.0</ele><time>2026-04-25T10:24:51.999Z</time></trkpt><trkpt lat="45.937219678648916" lon="12.09621567964181"><ele>234.99999999999997</ele><time>2026-04-25T10:24:55.999Z</time></trkpt><trkpt lat="45.93721974658782" lon="12.096306836815398"><ele>235.0</ele><time>2026-04-25T10:25:01.999Z</time></trkpt><trkpt lat="45.93717923942814" lon="12.096383039092874"><ele>235.0</ele><time>2026-04-25T10:25:04.999Z</time></trkpt><trkpt lat="45.937133377638034" lon="12.096463741785636"><ele>234.99999999999997</ele><time>2026-04-25T10:25:07.999Z</time></trkpt><trkpt lat="45.93707677808673" lon="12.09654912744365"><ele>235.0</ele><time>2026-04-25T10:25:11.999Z</time></trkpt><trkpt lat="45.93701635265666" lon="12.096627777906342"><ele>235.0</ele><time>2026-04-25T10:25:15.998Z</time></trkpt><trkpt lat="45.93695858867439" lon="12.09669205924481"><ele>235.14285714285714</ele><time>2026-04-25T10:25:19.998Z</time></trkpt><trkpt lat="45.936906683847006" lon="12.096745692560836"><ele>235.28571428571428</ele><time>2026-04-25T10:25:23.998Z</time></trkpt><trkpt lat="45.93684916661982" lon="12.096796424869872"><ele>235.42857142857142</ele><time>2026-04-25T10:25:27.998Z</time></trkpt><trkpt lat="45.93679298604673" lon="12.096839488337226"><ele>235.57142857142856</ele><time>2026-04-25T10:25:31.998Z</time></trkpt><trkpt lat="45.93673548087878" lon="12.096879346650638"><ele>235.71428571428572</ele><time>2026-04-25T10:25:35.998Z</time></trkpt><trkpt lat="45.93666986954074" lon="12.096917822738142"><ele>235.85714285714283</ele><time>2026-04-25T10:25:40.998Z</time></trkpt><trkpt lat="45.936604843793766" lon="12.09694966052616"><ele>236.0</ele><time>2026-04-25T10:25:45.998Z</time></trkpt><trkpt lat="45.93653067489493" lon="12.096981187175851"><ele>236.0</ele><time>2026-04-25T10:25:50.998Z</time></trkpt><trkpt lat="45.93658644751968" lon="12.09732744065976"><ele>236.0</ele><time>2026-04-25T10:25:51.998Z</time></trkpt><trkpt lat="45.93652860274861" lon="12.09740307689387"><ele>236.0</ele><time>2026-04-25T10:25:57Z</time></trkpt><trkpt lat="45.93647488175736" lon="12.097450742523101"><ele>236.0</ele><time>2026-04-25T10:26:01Z</time></trkpt><trkpt lat="45.936414827507356" lon="12.097485260660559"><ele>238.0</ele><time>2026-04-25T10:26:05Z</time></trkpt><trkpt lat="45.93634625049547" lon="12.0975398611014"><ele>240.0</ele><time>2026-04-25T10:26:10Z</time></trkpt><trkpt lat="45.93629507787133" lon="12.09760214944308"><ele>242.0</ele><time>2026-04-25T10:26:14Z</time></trkpt><trkpt lat="45.9362497583215" lon="12.09767820975804"><ele>244.0</ele><time>2026-04-25T10:26:18Z</time></trkpt><trkpt lat="45.93620521715381" lon="12.097760227944944"><ele>246.0</ele><time>2026-04-25T10:26:22Z</time></trkpt><trkpt lat="45.93615846288591" lon="12.09783531148733"><ele>248.0</ele><time>2026-04-25T10:26:26Z</time></trkpt><trkpt lat="45.936121229407256" lon="12.097912688823643"><ele>250.0</ele><time>2026-04-25T10:26:30Z</time></trkpt><trkpt lat="45.93610879288459" lon="12.098013689206294"><ele>249.99999999999997</ele><time>2026-04-25T10:26:34Z</time></trkpt><trkpt lat="45.936108852821185" lon="12.098120572620406"><ele>250.0</ele><time>2026-04-25T10:26:38Z</time></trkpt><trkpt lat="45.936113879260745" lon="12.09823371218415"><ele>250.0</ele><time>2026-04-25T10:26:42Z</time></trkpt><trkpt lat="45.93611285530302" lon="12.098346695014968"><ele>250.0</ele><time>2026-04-25T10:26:46Z</time></trkpt><trkpt lat="45.9361046341566" lon="12.09845543494043"><ele>249.99999999999997</ele><time>2026-04-25T10:26:50Z</time></trkpt><trkpt lat="45.936096498402776" lon="12.098559003451888"><ele>250.0</ele><time>2026-04-25T10:26:54Z</time></trkpt><trkpt lat="45.93609294892234" lon="12.098662473533553"><ele>254.42857142857142</ele><time>2026-04-25T10:26:57.999Z</time></trkpt><trkpt lat="45.93610202905997" lon="12.098771338586342"><ele>258.8571428571429</ele><time>2026-04-25T10:27:01.999Z</time></trkpt><trkpt lat="45.93610792902651" lon="12.098879936578488"><ele>263.28571428571433</ele><time>2026-04-25T10:27:05.999Z</time></trkpt><trkpt lat="45.93611077224326" lon="12.098984303406864"><ele>267.7142857142857</ele><time>2026-04-25T10:27:09.999Z</time></trkpt><trkpt lat="45.93611830908523" lon="12.09910126478201"><ele>272.14285714285717</ele><time>2026-04-25T10:27:13.999Z</time></trkpt><trkpt lat="45.93614332968875" lon="12.099198300199745"><ele>276.5714285714286</ele><time>2026-04-25T10:27:17.999Z</time></trkpt><trkpt lat="45.93618078006338" lon="12.099284920507214"><ele>281.0</ele><time>2026-04-25T10:27:21.999Z</time></trkpt><trkpt lat="45.9362297007017" lon="12.09935810827254"><ele>281.00000000000006</ele><time>2026-04-25T10:27:25.999Z</time></trkpt><trkpt lat="45.93627076105086" lon="12.099435152296843"><ele>281.0</ele><time>2026-04-25T10:27:29.999Z</time></trkpt><trkpt lat="45.936311855127386" lon="12.099518965022181"><ele>281.0</ele><time>2026-04-25T10:27:33.999Z</time></trkpt><trkpt lat="45.93635775237232" lon="12.099593748591351"><ele>281.0</ele><time>2026-04-25T10:27:37.999Z</time></trkpt><trkpt lat="45.93640402356987" lon="12.099672539839455"><ele>281.0</ele><time>2026-04-25T10:27:41.999Z</time></trkpt><trkpt lat="45.93644527434492" lon="12.099753012139749"><ele>281.00000000000006</ele><time>2026-04-25T10:27:45.999Z</time></trkpt><trkpt lat="45.936484087926814" lon="12.099835970739962"><ele>281.0</ele><time>2026-04-25T10:27:49.998Z</time></trkpt><trkpt lat="45.93652138794773" lon="12.099925123332492"><ele>281.00000000000006</ele><time>2026-04-25T10:27:53.998Z</time></trkpt><trkpt lat="45.93655415356149" lon="12.10001701160548"><ele>281.0</ele><time>2026-04-25T10:27:57.998Z</time></trkpt><trkpt lat="45.936574512583846" lon="12.100115969442832"><ele>281.0</ele><time>2026-04-25T10:28:01.998Z</time></trkpt><trkpt lat="45.93659306621841" lon="12.100218868651789"><ele>281.0</ele><time>2026-04-25T10:28:06.001Z</time></trkpt><trkpt lat="45.93660767476549" lon="12.100319875913506"><ele>281.0</ele><time>2026-04-25T10:28:10.001Z</time></trkpt><trkpt lat="45.936622780108586" lon="12.100424979093992"><ele>281.00000000000006</ele><time>2026-04-25T10:28:14.001Z</time></trkpt><trkpt lat="45.93664537606197" lon="12.100532766076958"><ele>281.0</ele><time>2026-04-25T10:28:18.001Z</time></trkpt><trkpt lat="45.93666681941366" lon="12.100642622760704"><ele>281.0</ele><time>2026-04-25T10:28:22.001Z</time></trkpt><trkpt lat="45.936706047032565" lon="12.100741991739403"><ele>281.0</ele><time>2026-04-25T10:28:26Z</time></trkpt><trkpt lat="45.936767047946816" lon="12.100811213872053"><ele>281.0</ele><time>2026-04-25T10:28:30Z</time></trkpt><trkpt lat="45.93683381721792" lon="12.100869992843847"><ele>281.0</ele><time>2026-04-25T10:28:34Z</time></trkpt><trkpt lat="45.936902344730676" lon="12.10092766928263"><ele>281.0</ele><time>2026-04-25T10:28:38Z</time></trkpt><trkpt lat="45.93695907734397" lon="12.101015828791617"><ele>281.0</ele><time>2026-04-25T10:28:42Z</time></trkpt><trkpt lat="45.937003544842504" lon="12.101107879230273"><ele>284.00000000000006</ele><time>2026-04-25T10:28:46Z</time></trkpt><trkpt lat="45.93703161506447" lon="12.101215708874559"><ele>287.0</ele><time>2026-04-25T10:28:50Z</time></trkpt><trkpt lat="45.93705958520661" lon="12.101303545607166"><ele>290.0</ele><time>2026-04-25T10:28:53Z</time></trkpt><trkpt lat="45.93708352283076" lon="12.101393330738443"><ele>293.0</ele><time>2026-04-25T10:28:56Z</time></trkpt><trkpt lat="45.93710870713554" lon="12.101480889139582"><ele>296.0</ele><time>2026-04-25T10:28:59Z</time></trkpt><trkpt lat="45.937136502784305" lon="12.101577105951565"><ele>299.00000000000006</ele><time>2026-04-25T10:29:02Z</time></trkpt><trkpt lat="45.93717281694238" lon="12.10167003272646"><ele>302.0</ele><time>2026-04-25T10:29:05Z</time></trkpt><trkpt lat="45.93721208046086" lon="12.101758788981256"><ele>302.0</ele><time>2026-04-25T10:29:07.999Z</time></trkpt><trkpt lat="45.93725776095117" lon="12.101869663132973"><ele>302.0</ele><time>2026-04-25T10:29:10.998Z</time></trkpt><trkpt lat="45.93730359403719" lon="12.101932496802121"><ele>302.0</ele><time>2026-04-25T10:29:12.998Z</time></trkpt><trkpt lat="45.93736606995553" lon="12.101985048826323"><ele>302.0</ele><time>2026-04-25T10:29:14.998Z</time></trkpt><trkpt lat="45.93742397824668" lon="12.102057032602413"><ele>302.0</ele><time>2026-04-25T10:29:16.998Z</time></trkpt><trkpt lat="45.93744945888536" lon="12.10216127145979"><ele>302.0</ele><time>2026-04-25T10:29:18.998Z</time></trkpt><trkpt lat="45.93745077541603" lon="12.102273199267552"><ele>302.0</ele><time>2026-04-25T10:29:20.998Z</time></trkpt><trkpt lat="45.93745689335043" lon="12.102372958449475"><ele>302.0</ele><time>2026-04-25T10:29:22.998Z</time></trkpt><trkpt lat="45.93748545083495" lon="12.102499210851338"><ele>302.0</ele><time>2026-04-25T10:29:25.998Z</time></trkpt><trkpt lat="45.93754609198103" lon="12.102592426181891"><ele>302.0</ele><time>2026-04-25T10:29:28.998Z</time></trkpt><trkpt lat="45.937598818756065" lon="12.102650822256058"><ele>302.0</ele><time>2026-04-25T10:29:30.998Z</time></trkpt><trkpt lat="45.93764805567444" lon="12.10276744253878"><ele>302.0</ele><time>2026-04-25T10:29:33.998Z</time></trkpt><trkpt lat="45.937654849516214" lon="12.102864309264014"><ele>303.8571428571429</ele><time>2026-04-25T10:29:35.998Z</time></trkpt><trkpt lat="45.93766357976928" lon="12.102960074649674"><ele>305.7142857142857</ele><time>2026-04-25T10:29:37.998Z</time></trkpt><trkpt lat="45.93767602323899" lon="12.103049946277414"><ele>307.57142857142856</ele><time>2026-04-25T10:29:39.998Z</time></trkpt><trkpt lat="45.93769199951757" lon="12.103143807548344"><ele>309.42857142857144</ele><time>2026-04-25T10:29:41.998Z</time></trkpt><trkpt lat="45.93772714195157" lon="12.103227759820177"><ele>311.2857142857143</ele><time>2026-04-25T10:29:43.998Z</time></trkpt><trkpt lat="45.93776806554436" lon="12.10330167632548"><ele>313.14285714285717</ele><time>2026-04-25T10:29:45.998Z</time></trkpt><trkpt lat="45.93780486401448" lon="12.103405834516373"><ele>315.0</ele><time>2026-04-25T10:29:47.998Z</time></trkpt><trkpt lat="45.93786524327363" lon="12.103488796518283"><ele>315.0</ele><time>2026-04-25T10:29:49.998Z</time></trkpt><trkpt lat="45.93792503859582" lon="12.103573413858149"><ele>315.0</ele><time>2026-04-25T10:29:51.998Z</time></trkpt><trkpt lat="45.937982491865085" lon="12.103666708207175"><ele>315.0</ele><time>2026-04-25T10:29:53.998Z</time></trkpt><trkpt lat="45.93801051110426" lon="12.10377951504094"><ele>315.0</ele><time>2026-04-25T10:29:55.998Z</time></trkpt><trkpt lat="45.93799447731281" lon="12.103895877950725"><ele>315.0</ele><time>2026-04-25T10:29:57.998Z</time></trkpt><trkpt lat="45.93799848962111" lon="12.104006573979854"><ele>315.0</ele><time>2026-04-25T10:29:59.998Z</time></trkpt><trkpt lat="45.938024276507285" lon="12.104112058082437"><ele>312.6666666666667</ele><time>2026-04-25T10:30:01.997Z</time></trkpt><trkpt lat="45.93807459779431" lon="12.104182732811719"><ele>310.3333333333333</ele><time>2026-04-25T10:30:03.997Z</time></trkpt><trkpt lat="45.93811079082513" lon="12.10425869805162"><ele>308.0</ele><time>2026-04-25T10:30:05.997Z</time></trkpt><trkpt lat="45.93815485997913" lon="12.104376116405573"><ele>305.66666666666663</ele><time>2026-04-25T10:30:09Z</time></trkpt><trkpt lat="45.938189519540835" lon="12.104497490780597"><ele>303.3333333333333</ele><time>2026-04-25T10:30:12Z</time></trkpt><trkpt lat="45.93820945140528" lon="12.10459227333708"><ele>301.0</ele><time>2026-04-25T10:30:14Z</time></trkpt><trkpt lat="45.93822697166727" lon="12.104685245430012"><ele>301.0</ele><time>2026-04-25T10:30:16Z</time></trkpt><trkpt lat="45.93825759488962" lon="12.10477297092657"><ele>301.0</ele><time>2026-04-25T10:30:18Z</time></trkpt><trkpt lat="45.93827875541134" lon="12.10490632547903"><ele>301.0</ele><time>2026-04-25T10:30:21Z</time></trkpt><trkpt lat="45.93830935039076" lon="12.105042278112885"><ele>301.0</ele><time>2026-04-25T10:30:24Z</time></trkpt><trkpt lat="45.93838339443224" lon="12.105090737244852"><ele>301.0</ele><time>2026-04-25T10:30:26Z</time></trkpt><trkpt lat="45.93844297551294" lon="12.10518048050376"><ele>301.0</ele><time>2026-04-25T10:30:28Z</time></trkpt><trkpt lat="45.93845494411653" lon="12.10529473885447"><ele>304.16666666666663</ele><time>2026-04-25T10:30:30Z</time></trkpt><trkpt lat="45.93845775636722" lon="12.10540736618546"><ele>307.3333333333333</ele><time>2026-04-25T10:30:32Z</time></trkpt><trkpt lat="45.93846147369146" lon="12.10550768937979"><ele>310.5</ele><time>2026-04-25T10:30:34Z</time></trkpt><trkpt lat="45.93847317967431" lon="12.105606359889938"><ele>313.6666666666667</ele><time>2026-04-25T10:30:36Z</time></trkpt><trkpt lat="45.93851057333761" lon="12.105700373455758"><ele>316.83333333333337</ele><time>2026-04-25T10:30:38Z</time></trkpt><trkpt lat="45.93856038577348" lon="12.10578589251673"><ele>320.0</ele><time>2026-04-25T10:30:40Z</time></trkpt><trkpt lat="45.93861246620642" lon="12.105884583121327"><ele>320.0</ele><time>2026-04-25T10:30:41.999Z</time></trkpt><trkpt lat="45.93866634222159" lon="12.105995739295068"><ele>320.0</ele><time>2026-04-25T10:30:43.999Z</time></trkpt><trkpt lat="45.938719795761074" lon="12.106106021340771"><ele>320.0</ele><time>2026-04-25T10:30:45.999Z</time></trkpt><trkpt lat="45.93876135116413" lon="12.106224945644227"><ele>320.0</ele><time>2026-04-25T10:30:47.999Z</time></trkpt><trkpt lat="45.93882216032743" lon="12.106350139923924"><ele>320.0</ele><time>2026-04-25T10:30:49.999Z</time></trkpt><trkpt lat="45.93885500567193" lon="12.106476294215017"><ele>320.0</ele><time>2026-04-25T10:30:51.999Z</time></trkpt><trkpt lat="45.938938190464796" lon="12.106559027633862"><ele>320.0</ele><time>2026-04-25T10:30:53.999Z</time></trkpt><trkpt lat="45.93902005899224" lon="12.106670352376664"><ele>320.0</ele><time>2026-04-25T10:30:55.999Z</time></trkpt><trkpt lat="45.939076559324704" lon="12.1067267494548"><ele>320.0</ele><time>2026-04-25T10:30:56.999Z</time></trkpt><trkpt lat="45.93913151951421" lon="12.10678264818142"><ele>320.0</ele><time>2026-04-25T10:30:57.999Z</time></trkpt><trkpt lat="45.93921299227586" lon="12.106869096550861"><ele>319.8</ele><time>2026-04-25T10:30:59.999Z</time></trkpt><trkpt lat="45.939289664352266" lon="12.106983904499277"><ele>319.6</ele><time>2026-04-25T10:31:01.999Z</time></trkpt><trkpt lat="45.9392753623543" lon="12.107126816558505"><ele>319.4</ele><time>2026-04-25T10:31:03.999Z</time></trkpt><trkpt lat="45.939272556582154" lon="12.107228547725773"><ele>319.2</ele><time>2026-04-25T10:31:04.999Z</time></trkpt><trkpt lat="45.93928349069126" lon="12.107418986721639"><ele>319.0</ele><time>2026-04-25T10:31:06.999Z</time></trkpt><trkpt lat="45.93929704335309" lon="12.107516958451866"><ele>319.0</ele><time>2026-04-25T10:31:07.999Z</time></trkpt><trkpt lat="45.93932447824642" lon="12.107656168673923"><ele>319.0</ele><time>2026-04-25T10:31:09.999Z</time></trkpt><trkpt lat="45.93936659565291" lon="12.107754067526727"><ele>319.0</ele><time>2026-04-25T10:31:11.999Z</time></trkpt><trkpt lat="45.93942349180754" lon="12.107867885682683"><ele>319.0</ele><time>2026-04-25T10:31:13.999Z</time></trkpt><trkpt lat="45.93947009853113" lon="12.108013533843142"><ele>319.0</ele><time>2026-04-25T10:31:15.999Z</time></trkpt><trkpt lat="45.93949117571279" lon="12.108196165766083"><ele>315.66666666666663</ele><time>2026-04-25T10:31:17.999Z</time></trkpt><trkpt lat="45.93951932678166" lon="12.108381313247651"><ele>312.3333333333333</ele><time>2026-04-25T10:31:19.999Z</time></trkpt><trkpt lat="45.93954994233819" lon="12.108474633587168"><ele>309.0</ele><time>2026-04-25T10:31:20.999Z</time></trkpt><trkpt lat="45.93955986860476" lon="12.108566269613792"><ele>305.6666666666667</ele><time>2026-04-25T10:31:21.999Z</time></trkpt><trkpt lat="45.93956189918493" lon="12.108664554295563"><ele>302.33333333333337</ele><time>2026-04-25T10:31:22.999Z</time></trkpt><trkpt lat="45.939589521803335" lon="12.108760807368226"><ele>299.0</ele><time>2026-04-25T10:31:23.999Z</time></trkpt><trkpt lat="45.93962896728001" lon="12.108857257586932"><ele>299.0</ele><time>2026-04-25T10:31:24.999Z</time></trkpt><trkpt lat="45.93967456747465" lon="12.10894394019955"><ele>299.0</ele><time>2026-04-25T10:31:25.999Z</time></trkpt><trkpt lat="45.93972413756796" lon="12.109016351771514"><ele>299.0</ele><time>2026-04-25T10:31:26.999Z</time></trkpt><trkpt lat="45.93976713816473" lon="12.109095804799589"><ele>299.0</ele><time>2026-04-25T10:31:27.999Z</time></trkpt><trkpt lat="45.939800442088355" lon="12.109175416429219"><ele>299.0</ele><time>2026-04-25T10:31:28.998Z</time></trkpt><trkpt lat="45.93982130384019" lon="12.1092655503974"><ele>299.0</ele><time>2026-04-25T10:31:29.998Z</time></trkpt><trkpt lat="45.93982592424192" lon="12.109445345709872"><ele>301.1666666666667</ele><time>2026-04-25T10:31:31.998Z</time></trkpt><trkpt lat="45.93983986686947" lon="12.109544940072977"><ele>303.33333333333337</ele><time>2026-04-25T10:31:32.998Z</time></trkpt><trkpt lat="45.93990161224498" lon="12.109622939232208"><ele>305.5</ele><time>2026-04-25T10:31:33.998Z</time></trkpt><trkpt lat="45.939928041921135" lon="12.109725467807783"><ele>307.6666666666667</ele><time>2026-04-25T10:31:34.998Z</time></trkpt><trkpt lat="45.93997108184042" lon="12.109822950032294"><ele>309.8333333333333</ele><time>2026-04-25T10:31:35.998Z</time></trkpt><trkpt lat="45.94001357261277" lon="12.109919188369904"><ele>312.0</ele><time>2026-04-25T10:31:36.998Z</time></trkpt><trkpt lat="45.94005110348504" lon="12.110021010669145"><ele>312.0</ele><time>2026-04-25T10:31:37.998Z</time></trkpt><trkpt lat="45.940056501687096" lon="12.110127192504937"><ele>312.0</ele><time>2026-04-25T10:31:38.998Z</time></trkpt><trkpt lat="45.94005900517085" lon="12.110250038137732"><ele>312.0</ele><time>2026-04-25T10:31:39.998Z</time></trkpt><trkpt lat="45.94006588328701" lon="12.110367539106841"><ele>312.0</ele><time>2026-04-25T10:31:40.998Z</time></trkpt><trkpt lat="45.94007027744569" lon="12.11047803672385"><ele>312.0</ele><time>2026-04-25T10:31:41.998Z</time></trkpt><trkpt lat="45.94006445655358" lon="12.110577708612128"><ele>312.0</ele><time>2026-04-25T10:31:42.998Z</time></trkpt><trkpt lat="45.94007466664477" lon="12.110684754819045"><ele>309.6666666666667</ele><time>2026-04-25T10:31:43.998Z</time></trkpt><trkpt lat="45.940121761473144" lon="12.11077443172464"><ele>307.3333333333333</ele><time>2026-04-25T10:31:44.998Z</time></trkpt><trkpt lat="45.94016312266141" lon="12.110855367171"><ele>305.0</ele><time>2026-04-25T10:31:45.998Z</time></trkpt><trkpt lat="45.940214825362375" lon="12.110929253348575"><ele>302.66666666666663</ele><time>2026-04-25T10:31:46.998Z</time></trkpt><trkpt lat="45.94025120795611" lon="12.111003581252122"><ele>300.3333333333333</ele><time>2026-04-25T10:31:47.998Z</time></trkpt><trkpt lat="45.94030933605637" lon="12.111149961532705"><ele>298.0</ele><time>2026-04-25T10:31:49.998Z</time></trkpt><trkpt lat="45.940379653513574" lon="12.111283443970187"><ele>298.0</ele><time>2026-04-25T10:31:51.998Z</time></trkpt><trkpt lat="45.940426463596275" lon="12.111446960877938"><ele>298.0</ele><time>2026-04-25T10:31:53.998Z</time></trkpt><trkpt lat="45.94044810250838" lon="12.111621202020785"><ele>298.0</ele><time>2026-04-25T10:31:55.998Z</time></trkpt><trkpt lat="45.940479304182574" lon="12.111710424827494"><ele>298.0</ele><time>2026-04-25T10:31:56.998Z</time></trkpt><trkpt lat="45.940536077606296" lon="12.111753638413129"><ele>298.0</ele><time>2026-04-25T10:31:57.998Z</time></trkpt><trkpt lat="45.9405986739621" lon="12.111793949852093"><ele>298.0</ele><time>2026-04-25T10:31:58.998Z</time></trkpt><trkpt lat="45.940664671960455" lon="12.111932257603682"><ele>294.4</ele><time>2026-04-25T10:32:00.998Z</time></trkpt><trkpt lat="45.940664256549304" lon="12.112081759477936"><ele>290.8</ele><time>2026-04-25T10:32:02.998Z</time></trkpt><trkpt lat="45.94069024139387" lon="12.11223072384973"><ele>287.2</ele><time>2026-04-25T10:32:04.998Z</time></trkpt><trkpt lat="45.94073839110575" lon="12.112369241403828"><ele>283.6</ele><time>2026-04-25T10:32:06.998Z</time></trkpt><trkpt lat="45.94080533244848" lon="12.112483515850542"><ele>280.0</ele><time>2026-04-25T10:32:08.998Z</time></trkpt><trkpt lat="45.9408668537022" lon="12.112594265496908"><ele>285.0</ele><time>2026-04-25T10:32:10.998Z</time></trkpt><trkpt lat="45.94092600385048" lon="12.112711095645661"><ele>290.0</ele><time>2026-04-25T10:32:12.998Z</time></trkpt><trkpt lat="45.94098929678088" lon="12.112835004556208"><ele>295.0</ele><time>2026-04-25T10:32:15Z</time></trkpt><trkpt lat="45.941073995494285" lon="12.112955447280758"><ele>300.0</ele><time>2026-04-25T10:32:17Z</time></trkpt><trkpt lat="45.94112358475029" lon="12.113026408630303"><ele>305.0</ele><time>2026-04-25T10:32:18Z</time></trkpt><trkpt lat="45.94117975624392" lon="12.113071492995365"><ele>305.0</ele><time>2026-04-25T10:32:19Z</time></trkpt><trkpt lat="45.94125397809698" lon="12.113099189958467"><ele>305.0</ele><time>2026-04-25T10:32:20Z</time></trkpt><trkpt lat="45.94130616004636" lon="12.113168808046987"><ele>305.0</ele><time>2026-04-25T10:32:21Z</time></trkpt><trkpt lat="45.94133370108564" lon="12.113278957568099"><ele>305.0</ele><time>2026-04-25T10:32:22Z</time></trkpt><trkpt lat="45.94135956245436" lon="12.113371210999256"><ele>305.0</ele><time>2026-04-25T10:32:23Z</time></trkpt><trkpt lat="45.941390484965844" lon="12.113457693622339"><ele>305.0</ele><time>2026-04-25T10:32:24Z</time></trkpt><trkpt lat="45.94143725246531" lon="12.113613153565945"><ele>301.1666666666667</ele><time>2026-04-25T10:32:26Z</time></trkpt><trkpt lat="45.9414574796542" lon="12.113760185286306"><ele>297.33333333333337</ele><time>2026-04-25T10:32:28Z</time></trkpt><trkpt lat="45.94148672903134" lon="12.113889321447006"><ele>293.5</ele><time>2026-04-25T10:32:30Z</time></trkpt><trkpt lat="45.941526686684476" lon="12.113992548037393"><ele>289.6666666666667</ele><time>2026-04-25T10:32:32Z</time></trkpt><trkpt lat="45.941572453584044" lon="12.114071344870624"><ele>285.8333333333333</ele><time>2026-04-25T10:32:34Z</time></trkpt><trkpt lat="45.94162362526445" lon="12.114133511481873"><ele>282.0</ele><time>2026-04-25T10:32:36Z</time></trkpt><trkpt lat="45.94169172277038" lon="12.114206592048077"><ele>287.3333333333333</ele><time>2026-04-25T10:32:39Z</time></trkpt><trkpt lat="45.941764511618985" lon="12.114259899112856"><ele>292.6666666666667</ele><time>2026-04-25T10:32:42Z</time></trkpt><trkpt lat="45.9418338489784" lon="12.114305118420926"><ele>298.0</ele><time>2026-04-25T10:32:45Z</time></trkpt><trkpt lat="45.94191070166963" lon="12.114373433170837"><ele>303.33333333333337</ele><time>2026-04-25T10:32:48Z</time></trkpt><trkpt lat="45.941944519068294" lon="12.114470107344777"><ele>308.6666666666667</ele><time>2026-04-25T10:32:50Z</time></trkpt><trkpt lat="45.94193339178408" lon="12.114590384396138"><ele>314.0</ele><time>2026-04-25T10:32:52Z</time></trkpt><trkpt lat="45.94191639923261" lon="12.114699614894949"><ele>314.0</ele><time>2026-04-25T10:32:54Z</time></trkpt><trkpt lat="45.94189418041961" lon="12.114813530108593"><ele>314.0</ele><time>2026-04-25T10:32:55.999Z</time></trkpt><trkpt lat="45.94187309090541" lon="12.114926242120845"><ele>314.0</ele><time>2026-04-25T10:32:57.999Z</time></trkpt><trkpt lat="45.94187025655911" lon="12.115021977806295"><ele>314.0</ele><time>2026-04-25T10:32:59.999Z</time></trkpt><trkpt lat="45.94187608569795" lon="12.115115381255304"><ele>314.0</ele><time>2026-04-25T10:33:01.999Z</time></trkpt><trkpt lat="45.94190567156439" lon="12.115232244611486"><ele>314.0</ele><time>2026-04-25T10:33:04.999Z</time></trkpt><trkpt lat="45.94194930985359" lon="12.11532389621524"><ele>311.5</ele><time>2026-04-25T10:33:06.999Z</time></trkpt><trkpt lat="45.94202083266431" lon="12.115441584343687"><ele>309.0</ele><time>2026-04-25T10:33:08.999Z</time></trkpt><trkpt lat="45.94207025029086" lon="12.11549980166418"><ele>306.5</ele><time>2026-04-25T10:33:09.999Z</time></trkpt><trkpt lat="45.94215109519113" lon="12.115496596589226"><ele>304.0</ele><time>2026-04-25T10:33:10.999Z</time></trkpt><trkpt lat="45.942208640591154" lon="12.115546580224139"><ele>301.5</ele><time>2026-04-25T10:33:11.999Z</time></trkpt><trkpt lat="45.94227995681831" lon="12.11556279662635"><ele>299.0</ele><time>2026-04-25T10:33:12.999Z</time></trkpt><trkpt lat="45.94233133108183" lon="12.115618805455101"><ele>299.0</ele><time>2026-04-25T10:33:13.999Z</time></trkpt><trkpt lat="45.942350396002254" lon="12.11571578348366"><ele>299.0</ele><time>2026-04-25T10:33:14.999Z</time></trkpt><trkpt lat="45.94236054233273" lon="12.115878664011506"><ele>299.0</ele><time>2026-04-25T10:33:16.999Z</time></trkpt><trkpt lat="45.942391971447854" lon="12.116018238200759"><ele>299.0</ele><time>2026-04-25T10:33:18.999Z</time></trkpt><trkpt lat="45.94241940702714" lon="12.116117769053698"><ele>299.0</ele><time>2026-04-25T10:33:20.999Z</time></trkpt><trkpt lat="45.94245864783903" lon="12.116211655176818"><ele>299.0</ele><time>2026-04-25T10:33:22.999Z</time></trkpt><trkpt lat="45.942510823843236" lon="12.116331302904014"><ele>299.1666666666667</ele><time>2026-04-25T10:33:25.999Z</time></trkpt><trkpt lat="45.94257683981905" lon="12.116449789716446"><ele>299.33333333333337</ele><time>2026-04-25T10:33:27.999Z</time></trkpt><trkpt lat="45.94264651221761" lon="12.116479510286961"><ele>299.5</ele><time>2026-04-25T10:33:28.999Z</time></trkpt><trkpt lat="45.94268725582277" lon="12.116564182112828"><ele>299.6666666666667</ele><time>2026-04-25T10:33:29.999Z</time></trkpt><trkpt lat="45.94277429231339" lon="12.116702488351066"><ele>299.8333333333333</ele><time>2026-04-25T10:33:31.999Z</time></trkpt><trkpt lat="45.942830738640616" lon="12.116751404362505"><ele>300.0</ele><time>2026-04-25T10:33:32.999Z</time></trkpt><trkpt lat="45.942911508426015" lon="12.116893092030235"><ele>300.0</ele><time>2026-04-25T10:33:34.999Z</time></trkpt><trkpt lat="45.94294266417441" lon="12.116979016373044"><ele>300.0</ele><time>2026-04-25T10:33:35.999Z</time></trkpt><trkpt lat="45.94297106317327" lon="12.117110176519565"><ele>300.0</ele><time>2026-04-25T10:33:37.999Z</time></trkpt><trkpt lat="45.94297079830932" lon="12.117245830811859"><ele>300.0</ele><time>2026-04-25T10:33:39.999Z</time></trkpt><trkpt lat="45.94296601356351" lon="12.117337740513475"><ele>300.0</ele><time>2026-04-25T10:33:40.999Z</time></trkpt><trkpt lat="45.94295809005507" lon="12.117435804530981"><ele>300.0</ele><time>2026-04-25T10:33:41.999Z</time></trkpt><trkpt lat="45.942957913731355" lon="12.117542502892219"><ele>296.8333333333333</ele><time>2026-04-25T10:33:42.998Z</time></trkpt><trkpt lat="45.94294813616696" lon="12.11764820919298"><ele>293.6666666666667</ele><time>2026-04-25T10:33:43.998Z</time></trkpt><trkpt lat="45.94294464075906" lon="12.117751420683106"><ele>290.5</ele><time>2026-04-25T10:33:44.998Z</time></trkpt><trkpt lat="45.94294909108259" lon="12.117926425363379"><ele>287.33333333333337</ele><time>2026-04-25T10:33:46.998Z</time></trkpt><trkpt lat="45.94300756155778" lon="12.118051487973334"><ele>284.1666666666667</ele><time>2026-04-25T10:33:48.998Z</time></trkpt><trkpt lat="45.94307374278097" lon="12.118050170766189"><ele>281.0</ele><time>2026-04-25T10:33:49.998Z</time></trkpt><trkpt lat="45.94317524866033" lon="12.118125451753814"><ele>277.83333333333337</ele><time>2026-04-25T10:33:51.998Z</time></trkpt><trkpt lat="45.94325709137866" lon="12.118269344497843"><ele>274.6666666666667</ele><time>2026-04-25T10:33:53.998Z</time></trkpt><trkpt lat="45.943290962360365" lon="12.118355385479408"><ele>271.5</ele><time>2026-04-25T10:33:54.998Z</time></trkpt><trkpt lat="45.943307658739656" lon="12.118443611670655"><ele>268.3333333333333</ele><time>2026-04-25T10:33:55.998Z</time></trkpt><trkpt lat="45.94334621689148" lon="12.118521473152132"><ele>265.16666666666663</ele><time>2026-04-25T10:33:56.998Z</time></trkpt><trkpt lat="45.943379762213304" lon="12.11860817800337"><ele>262.0</ele><time>2026-04-25T10:33:57.998Z</time></trkpt><trkpt lat="45.94342677943948" lon="12.118684201718482"><ele>264.2857142857143</ele><time>2026-04-25T10:33:58.998Z</time></trkpt><trkpt lat="45.94347815724505" lon="12.11875448193902"><ele>266.5714285714286</ele><time>2026-04-25T10:33:59.998Z</time></trkpt><trkpt lat="45.943513124498374" lon="12.118848123647751"><ele>268.8571428571429</ele><time>2026-04-25T10:34:00.998Z</time></trkpt><trkpt lat="45.943554522326984" lon="12.118933219716"><ele>271.14285714285717</ele><time>2026-04-25T10:34:01.998Z</time></trkpt><trkpt lat="45.94358998166057" lon="12.119024338122925"><ele>273.42857142857144</ele><time>2026-04-25T10:34:02.998Z</time></trkpt><trkpt lat="45.94360583199502" lon="12.119125841303434"><ele>275.7142857142857</ele><time>2026-04-25T10:34:03.998Z</time></trkpt><trkpt lat="45.94359071862062" lon="12.119223602607125"><ele>278.0</ele><time>2026-04-25T10:34:04.998Z</time></trkpt><trkpt lat="45.94360988481095" lon="12.119312558272668"><ele>278.0</ele><time>2026-04-25T10:34:05.998Z</time></trkpt><trkpt lat="45.94361666395673" lon="12.119474876340476"><ele>278.0</ele><time>2026-04-25T10:34:07.998Z</time></trkpt><trkpt lat="45.94364652890618" lon="12.119556571721978"><ele>278.0</ele><time>2026-04-25T10:34:08.998Z</time></trkpt><trkpt lat="45.9437031314699" lon="12.119610479089879"><ele>278.0</ele><time>2026-04-25T10:34:09.998Z</time></trkpt><trkpt lat="45.943747756109445" lon="12.119677382425666"><ele>278.0</ele><time>2026-04-25T10:34:10.998Z</time></trkpt><trkpt lat="45.94380162469241" lon="12.119732579494666"><ele>278.0</ele><time>2026-04-25T10:34:11.998Z</time></trkpt><trkpt lat="45.94384358961573" lon="12.11981405586186"><ele>278.0</ele><time>2026-04-25T10:34:12.998Z</time></trkpt><trkpt lat="45.94387861294596" lon="12.119892277485617"><ele>275.7142857142857</ele><time>2026-04-25T10:34:13.998Z</time></trkpt><trkpt lat="45.94391128099101" lon="12.11998060895922"><ele>273.42857142857144</ele><time>2026-04-25T10:34:14.998Z</time></trkpt><trkpt lat="45.94394164512514" lon="12.120077119495749"><ele>271.14285714285717</ele><time>2026-04-25T10:34:15.998Z</time></trkpt><trkpt lat="45.943972374992036" lon="12.120175115036352"><ele>268.8571428571429</ele><time>2026-04-25T10:34:16.998Z</time></trkpt><trkpt lat="45.94400262847849" lon="12.120278626233551"><ele>266.5714285714286</ele><time>2026-04-25T10:34:17.998Z</time></trkpt><trkpt lat="45.9440318174733" lon="12.12038022058583"><ele>264.2857142857143</ele><time>2026-04-25T10:34:18.998Z</time></trkpt><trkpt lat="45.944071406229675" lon="12.120473006449645"><ele>262.0</ele><time>2026-04-25T10:34:20Z</time></trkpt><trkpt lat="45.94408871266399" lon="12.120567851416068"><ele>262.0</ele><time>2026-04-25T10:34:21Z</time></trkpt><trkpt lat="45.94408722597567" lon="12.120660980171273"><ele>262.0</ele><time>2026-04-25T10:34:22Z</time></trkpt><trkpt lat="45.94411276460525" lon="12.12082667709612"><ele>262.0</ele><time>2026-04-25T10:34:24Z</time></trkpt><trkpt lat="45.94406150934745" lon="12.120957287499543"><ele>262.0</ele><time>2026-04-25T10:34:26Z</time></trkpt><trkpt lat="45.94397682182222" lon="12.121080669148938"><ele>262.0</ele><time>2026-04-25T10:34:28Z</time></trkpt><trkpt lat="45.94393334134806" lon="12.121164127620807"><ele>260.0</ele><time>2026-04-25T10:34:29Z</time></trkpt><trkpt lat="45.94388480786524" lon="12.121249441773887"><ele>258.0</ele><time>2026-04-25T10:34:30Z</time></trkpt><trkpt lat="45.9438268191834" lon="12.121321637424433"><ele>256.0</ele><time>2026-04-25T10:34:31Z</time></trkpt><trkpt lat="45.94376459287644" lon="12.121376479718748"><ele>254.0</ele><time>2026-04-25T10:34:32Z</time></trkpt><trkpt lat="45.943654034255296" lon="12.12142062945301"><ele>251.99999999999997</ele><time>2026-04-25T10:34:34Z</time></trkpt><trkpt lat="45.94359163490664" lon="12.121444372096112"><ele>250.0</ele><time>2026-04-25T10:34:35Z</time></trkpt><trkpt lat="45.94353219436734" lon="12.12147628684342"><ele>250.0</ele><time>2026-04-25T10:34:36Z</time></trkpt><trkpt lat="45.94343436182215" lon="12.121554256901128"><ele>250.0</ele><time>2026-04-25T10:34:38Z</time></trkpt><trkpt lat="45.94337903550038" lon="12.121612090603627"><ele>250.0</ele><time>2026-04-25T10:34:39Z</time></trkpt><trkpt lat="45.94327645505087" lon="12.121721727184275"><ele>250.0</ele><time>2026-04-25T10:34:41Z</time></trkpt><trkpt lat="45.94317832786475" lon="12.12182852230912"><ele>250.0</ele><time>2026-04-25T10:34:43Z</time></trkpt><trkpt lat="45.94309696020913" lon="12.121934377782866"><ele>248.2</ele><time>2026-04-25T10:34:45Z</time></trkpt><trkpt lat="45.943018337256014" lon="12.122029230450298"><ele>246.4</ele><time>2026-04-25T10:34:47Z</time></trkpt><trkpt lat="45.94296354839289" lon="12.122132119665059"><ele>244.60000000000002</ele><time>2026-04-25T10:34:49Z</time></trkpt><trkpt lat="45.94298692330386" lon="12.122287017814758"><ele>242.8</ele><time>2026-04-25T10:34:51Z</time></trkpt><trkpt lat="45.94303258221406" lon="12.122404541988"><ele>241.0</ele><time>2026-04-25T10:34:53Z</time></trkpt><trkpt lat="45.94309857397389" lon="12.122518683137152"><ele>239.4</ele><time>2026-04-25T10:34:55Z</time></trkpt><trkpt lat="45.943152804016705" lon="12.122624866976981"><ele>237.8</ele><time>2026-04-25T10:34:57Z</time></trkpt><trkpt lat="45.94320335688499" lon="12.122746203269145"><ele>236.20000000000002</ele><time>2026-04-25T10:34:59Z</time></trkpt><trkpt lat="45.94323204938682" lon="12.122892660738495"><ele>234.60000000000002</ele><time>2026-04-25T10:35:01Z</time></trkpt><trkpt lat="45.943212438154255" lon="12.123061602675463"><ele>233.0</ele><time>2026-04-25T10:35:03Z</time></trkpt><trkpt lat="45.94317606431993" lon="12.12322057766494"><ele>229.4</ele><time>2026-04-25T10:35:05Z</time></trkpt><trkpt lat="45.94313922856449" lon="12.123373576011879"><ele>225.8</ele><time>2026-04-25T10:35:07Z</time></trkpt><trkpt lat="45.9430755245819" lon="12.123487033457742"><ele>222.2</ele><time>2026-04-25T10:35:09Z</time></trkpt><trkpt lat="45.9430202233384" lon="12.123610250868753"><ele>218.6</ele><time>2026-04-25T10:35:10.999Z</time></trkpt><trkpt lat="45.94298041400541" lon="12.123691333941721"><ele>215.0</ele><time>2026-04-25T10:35:12.999Z</time></trkpt><trkpt lat="45.94294247501306" lon="12.12379893945528"><ele>215.0</ele><time>2026-04-25T10:35:14.999Z</time></trkpt><trkpt lat="45.94289491368398" lon="12.123871111982774"><ele>215.0</ele><time>2026-04-25T10:35:15.999Z</time></trkpt><trkpt lat="45.94281777880939" lon="12.124007546110441"><ele>215.0</ele><time>2026-04-25T10:35:17.999Z</time></trkpt><trkpt lat="45.94272333678862" lon="12.12412654116321"><ele>215.0</ele><time>2026-04-25T10:35:19.999Z</time></trkpt><trkpt lat="45.94263901326705" lon="12.124220589350477"><ele>215.0</ele><time>2026-04-25T10:35:21.999Z</time></trkpt><trkpt lat="45.94253720289835" lon="12.124331908372307"><ele>213.6</ele><time>2026-04-25T10:35:23.999Z</time></trkpt><trkpt lat="45.942450226435724" lon="12.124431870893838"><ele>212.2</ele><time>2026-04-25T10:35:25.999Z</time></trkpt><trkpt lat="45.94239652496076" lon="12.124511337694715"><ele>210.8</ele><time>2026-04-25T10:35:26.999Z</time></trkpt><trkpt lat="45.9423476734918" lon="12.12457537616708"><ele>209.4</ele><time>2026-04-25T10:35:27.999Z</time></trkpt><trkpt lat="45.942257820439266" lon="12.12471070198774"><ele>208.0</ele><time>2026-04-25T10:35:29.999Z</time></trkpt><trkpt lat="45.94219457564923" lon="12.124756506284875"><ele>207.99999999999997</ele><time>2026-04-25T10:35:30.999Z</time></trkpt><trkpt lat="45.94214264850104" lon="12.124812322936185"><ele>208.0</ele><time>2026-04-25T10:35:31.999Z</time></trkpt><trkpt lat="45.942056088344586" lon="12.124895642558915"><ele>208.0</ele><time>2026-04-25T10:35:33.999Z</time></trkpt><trkpt lat="45.941994826414934" lon="12.12493539022414"><ele>208.0</ele><time>2026-04-25T10:35:34.999Z</time></trkpt><trkpt lat="45.94190782012575" lon="12.125008705564728"><ele>207.99999999999997</ele><time>2026-04-25T10:35:36.999Z</time></trkpt><trkpt lat="45.941862724790525" lon="12.125104172864631"><ele>208.0</ele><time>2026-04-25T10:35:38.999Z</time></trkpt><trkpt lat="45.94185466888822" lon="12.125236008603542"><ele>204.16666666666666</ele><time>2026-04-25T10:35:40.999Z</time></trkpt><trkpt lat="45.94187955579643" lon="12.12535731416975"><ele>200.33333333333331</ele><time>2026-04-25T10:35:42.999Z</time></trkpt><trkpt lat="45.94189043683111" lon="12.125469955365338"><ele>196.5</ele><time>2026-04-25T10:35:44.999Z</time></trkpt><trkpt lat="45.9419015223541" lon="12.125568867614366"><ele>192.66666666666666</ele><time>2026-04-25T10:35:46.999Z</time></trkpt><trkpt lat="45.94203001504646" lon="12.12555492068573"><ele>188.83333333333331</ele><time>2026-04-25T10:35:49.999Z</time></trkpt><trkpt lat="45.94210633341815" lon="12.125514416755902"><ele>185.0</ele><time>2026-04-25T10:35:52.999Z</time></trkpt><trkpt lat="45.942162689380794" lon="12.125468180670131"><ele>185.0</ele><time>2026-04-25T10:35:54.999Z</time></trkpt><trkpt lat="45.942223815757586" lon="12.125432450176744"><ele>185.0</ele><time>2026-04-25T10:35:56.999Z</time></trkpt><trkpt lat="45.94230442194021" lon="12.125375424905283"><ele>185.0</ele><time>2026-04-25T10:35:59.998Z</time></trkpt><trkpt lat="45.94237270382944" lon="12.12533777587839"><ele>185.0</ele><time>2026-04-25T10:36:01.998Z</time></trkpt><trkpt lat="45.94244878752228" lon="12.125294045180095"><ele>185.0</ele><time>2026-04-25T10:36:03.998Z</time></trkpt><trkpt lat="45.94252724446593" lon="12.125246708474902"><ele>185.0</ele><time>2026-04-25T10:36:05.998Z</time></trkpt><trkpt lat="45.942609784760485" lon="12.125197185100555"><ele>183.4</ele><time>2026-04-25T10:36:07.998Z</time></trkpt><trkpt lat="45.94269411841019" lon="12.125148861881858"><ele>181.8</ele><time>2026-04-25T10:36:09.998Z</time></trkpt><trkpt lat="45.94277627283908" lon="12.12510684029933"><ele>180.2</ele><time>2026-04-25T10:36:11.998Z</time></trkpt><trkpt lat="45.942863930100515" lon="12.125053956256002"><ele>178.6</ele><time>2026-04-25T10:36:13.998Z</time></trkpt><trkpt lat="45.94295543230685" lon="12.125011962450666"><ele>177.0</ele><time>2026-04-25T10:36:15.998Z</time></trkpt><trkpt lat="45.94304565353311" lon="12.12494965465007"><ele>177.0</ele><time>2026-04-25T10:36:17.998Z</time></trkpt><trkpt lat="45.94313706813116" lon="12.124896748119758"><ele>177.0</ele><time>2026-04-25T10:36:19.998Z</time></trkpt><trkpt lat="45.943221711837005" lon="12.124855642531289"><ele>177.0</ele><time>2026-04-25T10:36:21.998Z</time></trkpt><trkpt lat="45.943300134170386" lon="12.124806931840602"><ele>177.0</ele><time>2026-04-25T10:36:23.998Z</time></trkpt><trkpt lat="45.943379712345774" lon="12.124762436642449"><ele>177.0</ele><time>2026-04-25T10:36:26.001Z</time></trkpt><trkpt lat="45.943462690663964" lon="12.124716765782516"><ele>177.0</ele><time>2026-04-25T10:36:28.001Z</time></trkpt><trkpt lat="45.943547457215814" lon="12.124668400741205"><ele>177.6</ele><time>2026-04-25T10:36:30.001Z</time></trkpt><trkpt lat="45.9436315977108" lon="12.124617087344362"><ele>178.2</ele><time>2026-04-25T10:36:32.001Z</time></trkpt><trkpt lat="45.94371597125747" lon="12.12457267861506"><ele>178.8</ele><time>2026-04-25T10:36:34.001Z</time></trkpt><trkpt lat="45.94379732650385" lon="12.124525070783527"><ele>179.4</ele><time>2026-04-25T10:36:36.001Z</time></trkpt><trkpt lat="45.943882778737596" lon="12.124480844674041"><ele>180.0</ele><time>2026-04-25T10:36:38.001Z</time></trkpt><trkpt lat="45.94396705215949" lon="12.12443521880344"><ele>180.0</ele><time>2026-04-25T10:36:40.001Z</time></trkpt><trkpt lat="45.94404750585741" lon="12.124391222039803"><ele>180.0</ele><time>2026-04-25T10:36:42.001Z</time></trkpt><trkpt lat="45.94413608431366" lon="12.12434971573228"><ele>180.0</ele><time>2026-04-25T10:36:44.001Z</time></trkpt><trkpt lat="45.944218882885096" lon="12.124302122314477"><ele>180.0</ele><time>2026-04-25T10:36:46Z</time></trkpt><trkpt lat="45.9443026129449" lon="12.12425283535094"><ele>180.0</ele><time>2026-04-25T10:36:48Z</time></trkpt><trkpt lat="45.94438828257547" lon="12.124205802552458"><ele>179.6</ele><time>2026-04-25T10:36:50Z</time></trkpt><trkpt lat="45.94447023911797" lon="12.124155646483338"><ele>179.2</ele><time>2026-04-25T10:36:52Z</time></trkpt><trkpt lat="45.94455923680216" lon="12.124115752099112"><ele>178.8</ele><time>2026-04-25T10:36:54Z</time></trkpt><trkpt lat="45.94464319217794" lon="12.124063622624748"><ele>178.4</ele><time>2026-04-25T10:36:56Z</time></trkpt><trkpt lat="45.94472880017906" lon="12.124015451660624"><ele>178.0</ele><time>2026-04-25T10:36:57.999Z</time></trkpt><trkpt lat="45.944813463280425" lon="12.123978896662285"><ele>179.66666666666669</ele><time>2026-04-25T10:36:59.999Z</time></trkpt><trkpt lat="45.944897348927235" lon="12.12393762010238"><ele>181.33333333333334</ele><time>2026-04-25T10:37:01.999Z</time></trkpt><trkpt lat="45.944984197802796" lon="12.123900371379031"><ele>183.0</ele><time>2026-04-25T10:37:03.999Z</time></trkpt><trkpt lat="45.9450711429176" lon="12.123861920184423"><ele>184.66666666666666</ele><time>2026-04-25T10:37:05.999Z</time></trkpt><trkpt lat="45.94515606855477" lon="12.123825788134411"><ele>186.33333333333331</ele><time>2026-04-25T10:37:07.999Z</time></trkpt><trkpt lat="45.94524098846358" lon="12.123782486348617"><ele>188.0</ele><time>2026-04-25T10:37:09.999Z</time></trkpt><trkpt lat="45.945329751532505" lon="12.12375129022004"><ele>188.66666666666666</ele><time>2026-04-25T10:37:11.999Z</time></trkpt><trkpt lat="45.94541724553612" lon="12.12372292570253"><ele>189.33333333333331</ele><time>2026-04-25T10:37:13.999Z</time></trkpt><trkpt lat="45.94550931543817" lon="12.12370281607341"><ele>190.0</ele><time>2026-04-25T10:37:15.999Z</time></trkpt><trkpt lat="45.94559697472097" lon="12.123694401921139"><ele>190.66666666666666</ele><time>2026-04-25T10:37:17.999Z</time></trkpt><trkpt lat="45.945682007436865" lon="12.123701158748979"><ele>191.33333333333334</ele><time>2026-04-25T10:37:19.999Z</time></trkpt><trkpt lat="45.94576114057184" lon="12.12373075652375"><ele>192.0</ele><time>2026-04-25T10:37:21.999Z</time></trkpt><trkpt lat="45.94584622506221" lon="12.123729456778468"><ele>190.16666666666666</ele><time>2026-04-25T10:37:23.999Z</time></trkpt><trkpt lat="45.9459201180582" lon="12.123734657966832"><ele>188.33333333333334</ele><time>2026-04-25T10:37:25.999Z</time></trkpt><trkpt lat="45.94599752982868" lon="12.123772917954584"><ele>186.5</ele><time>2026-04-25T10:37:27.999Z</time></trkpt><trkpt lat="45.946077802688016" lon="12.123793613029331"><ele>184.66666666666669</ele><time>2026-04-25T10:37:30.998Z</time></trkpt><trkpt lat="45.94615156971982" lon="12.123819434968508"><ele>182.83333333333334</ele><time>2026-04-25T10:37:33.998Z</time></trkpt><trkpt lat="45.9462188056245" lon="12.123871982331568"><ele>181.0</ele><time>2026-04-25T10:37:36.998Z</time></trkpt><trkpt lat="45.94627327437029" lon="12.123940318883824"><ele>181.0</ele><time>2026-04-25T10:37:41.998Z</time></trkpt><trkpt lat="45.94642767983193" lon="12.123862789729095"><ele>181.0</ele><time>2026-04-25T10:37:45.998Z</time></trkpt><trkpt lat="45.94649080653808" lon="12.123814526324262"><ele>181.0</ele><time>2026-04-25T10:37:47.998Z</time></trkpt><trkpt lat="45.94656273286368" lon="12.1237618449725"><ele>181.0</ele><time>2026-04-25T10:37:49.998Z</time></trkpt><trkpt lat="45.94663327992171" lon="12.123707305849917"><ele>181.0</ele><time>2026-04-25T10:37:51.998Z</time></trkpt><trkpt lat="45.94670729256669" lon="12.123645196930637"><ele>181.20000000000002</ele><time>2026-04-25T10:37:53.998Z</time></trkpt><trkpt lat="45.946787278418505" lon="12.123589724934364"><ele>181.4</ele><time>2026-04-25T10:37:55.998Z</time></trkpt><trkpt lat="45.94686888770518" lon="12.123527846125228"><ele>181.6</ele><time>2026-04-25T10:37:57.998Z</time></trkpt><trkpt lat="45.946948232230206" lon="12.123457825107169"><ele>181.8</ele><time>2026-04-25T10:37:59.998Z</time></trkpt><trkpt lat="45.94703408944167" lon="12.12338955395795"><ele>182.0</ele><time>2026-04-25T10:38:01.998Z</time></trkpt><trkpt lat="45.94712077427622" lon="12.12331732576733"><ele>182.0</ele><time>2026-04-25T10:38:03.998Z</time></trkpt><trkpt lat="45.94720805709758" lon="12.12324620222758"><ele>182.0</ele><time>2026-04-25T10:38:05.998Z</time></trkpt><trkpt lat="45.947295472601795" lon="12.123174796435908"><ele>182.0</ele><time>2026-04-25T10:38:07.998Z</time></trkpt><trkpt lat="45.94738565376738" lon="12.123103182754623"><ele>182.0</ele><time>2026-04-25T10:38:09.998Z</time></trkpt><trkpt lat="45.947478746488386" lon="12.12303590566695"><ele>182.0</ele><time>2026-04-25T10:38:11.998Z</time></trkpt><trkpt lat="45.947577391144364" lon="12.122984197460477"><ele>182.0</ele><time>2026-04-25T10:38:13.998Z</time></trkpt><trkpt lat="45.94768261974778" lon="12.122941070227021"><ele>182.0</ele><time>2026-04-25T10:38:15.998Z</time></trkpt><trkpt lat="45.94779495886647" lon="12.122918281746962"><ele>182.0</ele><time>2026-04-25T10:38:17.997Z</time></trkpt><trkpt lat="45.94791064478353" lon="12.122920470295737"><ele>182.0</ele><time>2026-04-25T10:38:19.997Z</time></trkpt><trkpt lat="45.9480230621137" lon="12.122954205338708"><ele>182.0</ele><time>2026-04-25T10:38:21.997Z</time></trkpt><trkpt lat="45.948136560136064" lon="12.122986127205884"><ele>182.0</ele><time>2026-04-25T10:38:23.997Z</time></trkpt><trkpt lat="45.948252453759885" lon="12.122962975924063"><ele>182.0</ele><time>2026-04-25T10:38:25.997Z</time></trkpt><trkpt lat="45.94833894112198" lon="12.122859927672026"><ele>182.0</ele><time>2026-04-25T10:38:27.997Z</time></trkpt><trkpt lat="45.94842096857432" lon="12.122897762861362"><ele>182.0</ele><time>2026-04-25T10:38:28.997Z</time></trkpt><trkpt lat="45.94853801235042" lon="12.122859276451052"><ele>182.39999999999998</ele><time>2026-04-25T10:38:30.997Z</time></trkpt><trkpt lat="45.94864418617964" lon="12.122797976863968"><ele>182.79999999999998</ele><time>2026-04-25T10:38:33Z</time></trkpt><trkpt lat="45.94871732538671" lon="12.122827119786907"><ele>183.2</ele><time>2026-04-25T10:38:34Z</time></trkpt><trkpt lat="45.94883743268347" lon="12.122822681855654"><ele>183.6</ele><time>2026-04-25T10:38:36Z</time></trkpt><trkpt lat="45.948954362545685" lon="12.122827918025365"><ele>184.0</ele><time>2026-04-25T10:38:38Z</time></trkpt><trkpt lat="45.949070235091526" lon="12.12283003805468"><ele>184.0</ele><time>2026-04-25T10:38:40Z</time></trkpt><trkpt lat="45.94918585718468" lon="12.12284478723246"><ele>184.0</ele><time>2026-04-25T10:38:42Z</time></trkpt><trkpt lat="45.949297709522135" lon="12.122863896449095"><ele>184.0</ele><time>2026-04-25T10:38:44Z</time></trkpt><trkpt lat="45.949409908660485" lon="12.122881653558757"><ele>184.0</ele><time>2026-04-25T10:38:46Z</time></trkpt><trkpt lat="45.949515679704895" lon="12.122896464917705"><ele>184.0</ele><time>2026-04-25T10:38:48Z</time></trkpt><trkpt lat="45.949617408804386" lon="12.122912550365928"><ele>184.6</ele><time>2026-04-25T10:38:50Z</time></trkpt><trkpt lat="45.94971762516279" lon="12.122926218552479"><ele>185.2</ele><time>2026-04-25T10:38:52Z</time></trkpt><trkpt lat="45.94981419521959" lon="12.122938626418993"><ele>185.79999999999998</ele><time>2026-04-25T10:38:54Z</time></trkpt><trkpt lat="45.94991132498835" lon="12.122955218336598"><ele>186.39999999999998</ele><time>2026-04-25T10:38:56Z</time></trkpt><trkpt lat="45.95001021839055" lon="12.122971830315567"><ele>187.0</ele><time>2026-04-25T10:38:58Z</time></trkpt><trkpt lat="45.950108427590905" lon="12.122984664252696"><ele>187.2</ele><time>2026-04-25T10:39:00Z</time></trkpt><trkpt lat="45.95020431467971" lon="12.122999001793778"><ele>187.39999999999998</ele><time>2026-04-25T10:39:01.999Z</time></trkpt><trkpt lat="45.9502978645415" lon="12.123013094791698"><ele>187.60000000000002</ele><time>2026-04-25T10:39:03.999Z</time></trkpt><trkpt lat="45.95039222517927" lon="12.123023805810734"><ele>187.8</ele><time>2026-04-25T10:39:05.999Z</time></trkpt><trkpt lat="45.950477586071194" lon="12.12303757801099"><ele>188.0</ele><time>2026-04-25T10:39:07.999Z</time></trkpt><trkpt lat="45.95055516464282" lon="12.123067418252257"><ele>188.0</ele><time>2026-04-25T10:39:09.999Z</time></trkpt><trkpt lat="45.95059563463076" lon="12.123176184803416"><ele>188.0</ele><time>2026-04-25T10:39:11.999Z</time></trkpt><trkpt lat="45.95055727023746" lon="12.123315045546292"><ele>188.0</ele><time>2026-04-25T10:39:13.999Z</time></trkpt><trkpt lat="45.95055395634728" lon="12.123462459803761"><ele>188.0</ele><time>2026-04-25T10:39:15.999Z</time></trkpt><trkpt lat="45.95057995783864" lon="12.123609840688808"><ele>188.0</ele><time>2026-04-25T10:39:17.999Z</time></trkpt><trkpt lat="45.950606620061755" lon="12.123753422563697"><ele>188.0</ele><time>2026-04-25T10:39:19.999Z</time></trkpt><trkpt lat="45.95063401303221" lon="12.123894896196186"><ele>188.0</ele><time>2026-04-25T10:39:21.999Z</time></trkpt><trkpt lat="45.95066177487021" lon="12.124037929128837"><ele>188.0</ele><time>2026-04-25T10:39:23.999Z</time></trkpt><trkpt lat="45.950701127351756" lon="12.12418429847041"><ele>188.0</ele><time>2026-04-25T10:39:25.999Z</time></trkpt><trkpt lat="45.95075819745675" lon="12.12431758708569"><ele>188.0</ele><time>2026-04-25T10:39:27.999Z</time></trkpt><trkpt lat="45.95083127723858" lon="12.12444350544041"><ele>188.2</ele><time>2026-04-25T10:39:29.999Z</time></trkpt><trkpt lat="45.95090541816597" lon="12.124566700687348"><ele>188.4</ele><time>2026-04-25T10:39:31.999Z</time></trkpt><trkpt lat="45.95097250963935" lon="12.124690673614825"><ele>188.6</ele><time>2026-04-25T10:39:33.999Z</time></trkpt><trkpt lat="45.95101348599911" lon="12.124828896538048"><ele>188.79999999999998</ele><time>2026-04-25T10:39:35.999Z</time></trkpt><trkpt lat="45.95105960197061" lon="12.124969998469014"><ele>189.0</ele><time>2026-04-25T10:39:37.999Z</time></trkpt><trkpt lat="45.951113148369146" lon="12.125117474166554"><ele>189.0</ele><time>2026-04-25T10:39:39.999Z</time></trkpt><trkpt lat="45.95122799088145" lon="12.125163243656319"><ele>189.0</ele><time>2026-04-25T10:39:41.999Z</time></trkpt><trkpt lat="45.951319111127766" lon="12.125171458952291"><ele>189.0</ele><time>2026-04-25T10:39:43.999Z</time></trkpt><trkpt lat="45.95140995660859" lon="12.125204892916988"><ele>189.0</ele><time>2026-04-25T10:39:45.998Z</time></trkpt><trkpt lat="45.95145976058553" lon="12.125329336557508"><ele>189.0</ele><time>2026-04-25T10:39:47.998Z</time></trkpt><trkpt lat="45.95149060022664" lon="12.125446237266049"><ele>189.0</ele><time>2026-04-25T10:39:49.998Z</time></trkpt><trkpt lat="45.95154722098175" lon="12.125544582216863"><ele>189.0</ele><time>2026-04-25T10:39:51.998Z</time></trkpt><trkpt lat="45.951586675020124" lon="12.125655817081988"><ele>189.0</ele><time>2026-04-25T10:39:53.998Z</time></trkpt><trkpt lat="45.9516778895347" lon="12.125721205056221"><ele>189.0</ele><time>2026-04-25T10:39:55.998Z</time></trkpt><trkpt lat="45.95175246456697" lon="12.1257895048261"><ele>189.0</ele><time>2026-04-25T10:39:57.998Z</time></trkpt><trkpt lat="45.95182669543078" lon="12.125857771385585"><ele>189.2</ele><time>2026-04-25T10:39:59.998Z</time></trkpt><trkpt lat="45.95190390249913" lon="12.12592905874419"><ele>189.39999999999998</ele><time>2026-04-25T10:40:01.998Z</time></trkpt><trkpt lat="45.951981643221" lon="12.126004825901795"><ele>189.6</ele><time>2026-04-25T10:40:03.998Z</time></trkpt><trkpt lat="45.95205369459124" lon="12.12608254816337"><ele>189.8</ele><time>2026-04-25T10:40:05.998Z</time></trkpt><trkpt lat="45.95212865992209" lon="12.126154423635208"><ele>190.0</ele><time>2026-04-25T10:40:07.998Z</time></trkpt><trkpt lat="45.9521927683224" lon="12.126245474181076"><ele>190.0</ele><time>2026-04-25T10:40:09.998Z</time></trkpt><trkpt lat="45.95225838812848" lon="12.126331193577071"><ele>190.0</ele><time>2026-04-25T10:40:11.998Z</time></trkpt><trkpt lat="45.95232852109904" lon="12.126407592676204"><ele>190.0</ele><time>2026-04-25T10:40:13.998Z</time></trkpt><trkpt lat="45.9523978339615" lon="12.126486861297591"><ele>190.0</ele><time>2026-04-25T10:40:15.998Z</time></trkpt><trkpt lat="45.9524891457472" lon="12.126515973399048"><ele>190.0</ele><time>2026-04-25T10:40:17.998Z</time></trkpt><trkpt lat="45.95257977215044" lon="12.126520637827745"><ele>190.0</ele><time>2026-04-25T10:40:19.998Z</time></trkpt><trkpt lat="45.952665789267016" lon="12.126497940786923"><ele>190.33333333333334</ele><time>2026-04-25T10:40:21.998Z</time></trkpt><trkpt lat="45.95275024226767" lon="12.126523592708944"><ele>190.66666666666669</ele><time>2026-04-25T10:40:23.998Z</time></trkpt><trkpt lat="45.9528348243826" lon="12.12650693303071"><ele>191.0</ele><time>2026-04-25T10:40:25.998Z</time></trkpt><trkpt lat="45.952913444687596" lon="12.126538880751697"><ele>191.33333333333334</ele><time>2026-04-25T10:40:27.998Z</time></trkpt><trkpt lat="45.95299167181206" lon="12.126549319215222"><ele>191.66666666666666</ele><time>2026-04-25T10:40:29.998Z</time></trkpt><trkpt lat="45.95307083362879" lon="12.126559508956428"><ele>192.0</ele><time>2026-04-25T10:40:31.997Z</time></trkpt><trkpt lat="45.95314674854821" lon="12.126566466246656"><ele>191.99999999999997</ele><time>2026-04-25T10:40:33.997Z</time></trkpt><trkpt lat="45.95322027620746" lon="12.126549335681249"><ele>192.0</ele><time>2026-04-25T10:40:35.997Z</time></trkpt><trkpt lat="45.953288642095345" lon="12.12656015997806"><ele>192.0</ele><time>2026-04-25T10:40:38Z</time></trkpt><trkpt lat="45.95336358710583" lon="12.126565843166615"><ele>192.0</ele><time>2026-04-25T10:40:40Z</time></trkpt><trkpt lat="45.95343911530298" lon="12.126587330412217"><ele>192.0</ele><time>2026-04-25T10:40:42Z</time></trkpt><trkpt lat="45.953513249693806" lon="12.126562282997696"><ele>191.99999999999997</ele><time>2026-04-25T10:40:44Z</time></trkpt><trkpt lat="45.95358525308515" lon="12.126557495094943"><ele>192.0</ele><time>2026-04-25T10:40:46Z</time></trkpt><trkpt lat="45.95364972111305" lon="12.126550187368245"><ele>192.5</ele><time>2026-04-25T10:40:48Z</time></trkpt><trkpt lat="45.95373401065392" lon="12.126524973812684"><ele>193.0</ele><time>2026-04-25T10:40:51Z</time></trkpt><trkpt lat="45.95381967560012" lon="12.126489305916067"><ele>193.5</ele><time>2026-04-25T10:40:54Z</time></trkpt><trkpt lat="45.95389867567635" lon="12.126455580808315"><ele>194.0</ele><time>2026-04-25T10:40:57Z</time></trkpt><trkpt lat="45.953969967380075" lon="12.126427588276549"><ele>194.5</ele><time>2026-04-25T10:41:00Z</time></trkpt><trkpt lat="45.95404062834634" lon="12.12639785480274"><ele>195.0</ele><time>2026-04-25T10:41:03Z</time></trkpt><trkpt lat="45.95411089859423" lon="12.126364790599984"><ele>195.0</ele><time>2026-04-25T10:41:06Z</time></trkpt><trkpt lat="45.95418138567067" lon="12.12631845244531"><ele>195.0</ele><time>2026-04-25T10:41:09Z</time></trkpt><trkpt lat="45.954259460209045" lon="12.126291338816864"><ele>195.0</ele><time>2026-04-25T10:41:12Z</time></trkpt><trkpt lat="45.95431894208432" lon="12.126374944883896"><ele>195.0</ele><time>2026-04-25T10:41:15Z</time></trkpt><trkpt lat="45.954339178847434" lon="12.126487705950387"><ele>195.0</ele><time>2026-04-25T10:41:18Z</time></trkpt><trkpt lat="45.95437356478603" lon="12.126608123549678"><ele>195.0</ele><time>2026-04-25T10:41:20.999Z</time></trkpt><trkpt lat="45.954402674771934" lon="12.12672992469538"><ele>195.57142857142856</ele><time>2026-04-25T10:41:23.999Z</time></trkpt><trkpt lat="45.95444029967519" lon="12.126855693825739"><ele>196.14285714285714</ele><time>2026-04-25T10:41:26.999Z</time></trkpt><trkpt lat="45.954462288810696" lon="12.126941013319152"><ele>196.71428571428572</ele><time>2026-04-25T10:41:28.999Z</time></trkpt><trkpt lat="45.954482159318374" lon="12.127035544442743"><ele>197.28571428571428</ele><time>2026-04-25T10:41:30.999Z</time></trkpt><trkpt lat="45.9545095858979" lon="12.127129022232632"><ele>197.85714285714286</ele><time>2026-04-25T10:41:32.999Z</time></trkpt><trkpt lat="45.954534197187854" lon="12.12722272229583"><ele>198.42857142857142</ele><time>2026-04-25T10:41:34.999Z</time></trkpt><trkpt lat="45.95456055893661" lon="12.12731402691354"><ele>199.0</ele><time>2026-04-25T10:41:36.999Z</time></trkpt><trkpt lat="45.95458397972406" lon="12.127408261994141"><ele>199.42857142857142</ele><time>2026-04-25T10:41:38.999Z</time></trkpt><trkpt lat="45.95460596977957" lon="12.127499032900213"><ele>199.85714285714286</ele><time>2026-04-25T10:41:40.999Z</time></trkpt><trkpt lat="45.95463092235461" lon="12.12758310347639"><ele>200.28571428571428</ele><time>2026-04-25T10:41:42.999Z</time></trkpt><trkpt lat="45.95465191962284" lon="12.127670362698954"><ele>200.71428571428572</ele><time>2026-04-25T10:41:44.999Z</time></trkpt><trkpt lat="45.95467766557457" lon="12.127803389442553"><ele>201.14285714285714</ele><time>2026-04-25T10:41:47.999Z</time></trkpt><trkpt lat="45.954684500386335" lon="12.127899314555771"><ele>201.57142857142856</ele><time>2026-04-25T10:41:49.999Z</time></trkpt><trkpt lat="45.954691351654766" lon="12.127997496421607"><ele>202.0</ele><time>2026-04-25T10:41:51.999Z</time></trkpt><trkpt lat="45.954694236899165" lon="12.128089666455237"><ele>202.0</ele><time>2026-04-25T10:41:53.999Z</time></trkpt><trkpt lat="45.95470209581885" lon="12.128179849841292"><ele>202.0</ele><time>2026-04-25T10:41:55.999Z</time></trkpt><trkpt lat="45.95470985771421" lon="12.12827143591884"><ele>202.0</ele><time>2026-04-25T10:41:57.999Z</time></trkpt><trkpt lat="45.95472427788802" lon="12.128365960724718"><ele>202.0</ele><time>2026-04-25T10:41:59.999Z</time></trkpt><trkpt lat="45.95473868974253" lon="12.12846494402878"><ele>202.0</ele><time>2026-04-25T10:42:01.999Z</time></trkpt><trkpt lat="45.954763172825295" lon="12.128562264825703"><ele>202.0</ele><time>2026-04-25T10:42:03.999Z</time></trkpt><trkpt lat="45.95479676371123" lon="12.128658295527671"><ele>202.0</ele><time>2026-04-25T10:42:05.998Z</time></trkpt><trkpt lat="45.95483346482975" lon="12.128760165029849"><ele>202.33333333333331</ele><time>2026-04-25T10:42:07.998Z</time></trkpt><trkpt lat="45.95487073432031" lon="12.128858584669194"><ele>202.66666666666666</ele><time>2026-04-25T10:42:09.998Z</time></trkpt><trkpt lat="45.95491304221061" lon="12.128959861716643"><ele>203.0</ele><time>2026-04-25T10:42:11.998Z</time></trkpt><trkpt lat="45.954959495643564" lon="12.129059166175487"><ele>203.33333333333331</ele><time>2026-04-25T10:42:13.998Z</time></trkpt><trkpt lat="45.95499731435672" lon="12.129158849379968"><ele>203.66666666666666</ele><time>2026-04-25T10:42:15.998Z</time></trkpt><trkpt lat="45.95503710002237" lon="12.129247655586829"><ele>204.0</ele><time>2026-04-25T10:42:17.998Z</time></trkpt><trkpt lat="45.95507580641176" lon="12.129324117535184"><ele>204.0</ele><time>2026-04-25T10:42:19.998Z</time></trkpt><trkpt lat="45.95512533659509" lon="12.129391228635297"><ele>204.0</ele><time>2026-04-25T10:42:21.998Z</time></trkpt><trkpt lat="45.95517468024804" lon="12.129449091060732"><ele>204.0</ele><time>2026-04-25T10:42:23.998Z</time></trkpt><trkpt lat="45.95521155426289" lon="12.129526977058605"><ele>204.0</ele><time>2026-04-25T10:42:25.998Z</time></trkpt><trkpt lat="45.95524539658285" lon="12.129608164236032"><ele>204.0</ele><time>2026-04-25T10:42:27.998Z</time></trkpt><trkpt lat="45.95528328079488" lon="12.12969059392452"><ele>204.0</ele><time>2026-04-25T10:42:29.998Z</time></trkpt><trkpt lat="45.9553159551536" lon="12.129775994781166"><ele>204.0</ele><time>2026-04-25T10:42:31.998Z</time></trkpt><trkpt lat="45.955344229595" lon="12.129862912997947"><ele>204.0</ele><time>2026-04-25T10:42:33.998Z</time></trkpt><trkpt lat="45.95538125521253" lon="12.129946082841583"><ele>204.0</ele><time>2026-04-25T10:42:35.998Z</time></trkpt><trkpt lat="45.95541093080465" lon="12.130033749756514"><ele>204.0</ele><time>2026-04-25T10:42:37.998Z</time></trkpt><trkpt lat="45.955442902783375" lon="12.130117891824366"><ele>204.0</ele><time>2026-04-25T10:42:39.998Z</time></trkpt><trkpt lat="45.95547414167968" lon="12.130206900354993"><ele>204.0</ele><time>2026-04-25T10:42:41.998Z</time></trkpt><trkpt lat="45.9555077265681" lon="12.130289446344017"><ele>204.0</ele><time>2026-04-25T10:42:44Z</time></trkpt><trkpt lat="45.95553881097316" lon="12.13037272149134"><ele>204.0</ele><time>2026-04-25T10:42:46Z</time></trkpt><trkpt lat="45.95557264747755" lon="12.130462386237662"><ele>204.0</ele><time>2026-04-25T10:42:48Z</time></trkpt><trkpt lat="45.955609772543745" lon="12.130570266623987"><ele>204.0</ele><time>2026-04-25T10:42:50Z</time></trkpt><trkpt lat="45.95563730925219" lon="12.130656829015006"><ele>204.0</ele><time>2026-04-25T10:42:52Z</time></trkpt><trkpt lat="45.95566990165463" lon="12.130756270047184"><ele>204.0</ele><time>2026-04-25T10:42:54Z</time></trkpt><trkpt lat="45.95570011086762" lon="12.130861320712924"><ele>204.0</ele><time>2026-04-25T10:42:56Z</time></trkpt><trkpt lat="45.95573588541432" lon="12.130966820301373"><ele>204.0</ele><time>2026-04-25T10:42:58Z</time></trkpt><trkpt lat="45.955770526302324" lon="12.131068256337446"><ele>204.83333333333334</ele><time>2026-04-25T10:43:00Z</time></trkpt><trkpt lat="45.955792368235024" lon="12.131167989564346"><ele>205.66666666666669</ele><time>2026-04-25T10:43:02Z</time></trkpt><trkpt lat="45.95581626304719" lon="12.13125404125092"><ele>206.5</ele><time>2026-04-25T10:43:04Z</time></trkpt><trkpt lat="45.95584013032516" lon="12.13137449277701"><ele>207.33333333333334</ele><time>2026-04-25T10:43:07Z</time></trkpt><trkpt lat="45.955905506969515" lon="12.131425474574383"><ele>208.16666666666669</ele><time>2026-04-25T10:44:32.998Z</time></trkpt><trkpt lat="45.955957969458154" lon="12.131496515270298"><ele>209.0</ele><time>2026-04-25T10:44:35.998Z</time></trkpt><trkpt lat="45.9560207037892" lon="12.131595422320155"><ele>209.33333333333334</ele><time>2026-04-25T10:44:38.998Z</time></trkpt><trkpt lat="45.95606082009734" lon="12.131674715024097"><ele>209.66666666666669</ele><time>2026-04-25T10:44:40.998Z</time></trkpt><trkpt lat="45.95610191148839" lon="12.131765013669858"><ele>210.0</ele><time>2026-04-25T10:44:42.998Z</time></trkpt><trkpt lat="45.956143841555495" lon="12.131862888296842"><ele>210.33333333333331</ele><time>2026-04-25T10:44:44.998Z</time></trkpt><trkpt lat="45.956188904342646" lon="12.131965667581367"><ele>210.66666666666666</ele><time>2026-04-25T10:44:46.998Z</time></trkpt><trkpt lat="45.956234127251044" lon="12.132071906886793"><ele>211.0</ele><time>2026-04-25T10:44:48.999Z</time></trkpt><trkpt lat="45.956282772966304" lon="12.132173450266622"><ele>210.99999999999997</ele><time>2026-04-25T10:44:50.999Z</time></trkpt><trkpt lat="45.956337829968405" lon="12.132271940500909"><ele>211.0</ele><time>2026-04-25T10:44:52.999Z</time></trkpt><trkpt lat="45.95639765136447" lon="12.132362234254765"><ele>211.0</ele><time>2026-04-25T10:44:54.999Z</time></trkpt><trkpt lat="45.95646476755101" lon="12.132437458654158"><ele>211.0</ele><time>2026-04-25T10:44:56.999Z</time></trkpt><trkpt lat="45.95653542938803" lon="12.13251084689686"><ele>210.99999999999997</ele><time>2026-04-25T10:44:58.999Z</time></trkpt><trkpt lat="45.956588119923325" lon="12.132612872432803"><ele>211.0</ele><time>2026-04-25T10:45:00.999Z</time></trkpt><trkpt lat="45.95664090641077" lon="12.132666621324436"><ele>211.16666666666666</ele><time>2026-04-25T10:45:02.999Z</time></trkpt><trkpt lat="45.95658892924241" lon="12.132613644908217"><ele>211.33333333333331</ele><time>2026-04-25T10:45:08.999Z</time></trkpt><trkpt lat="45.95665856066307" lon="12.132631528859445"><ele>211.5</ele><time>2026-04-25T10:45:28.999Z</time></trkpt><trkpt lat="45.95673500353707" lon="12.132716558195714"><ele>211.66666666666669</ele><time>2026-04-25T10:45:31.999Z</time></trkpt><trkpt lat="45.95679271325686" lon="12.132781629676012"><ele>211.83333333333334</ele><time>2026-04-25T10:45:33.999Z</time></trkpt><trkpt lat="45.95685449204286" lon="12.132852324846404"><ele>212.0</ele><time>2026-04-25T10:45:35.999Z</time></trkpt><trkpt lat="45.956916927083135" lon="12.132924455454223"><ele>212.00000000000003</ele><time>2026-04-25T10:45:37.999Z</time></trkpt><trkpt lat="45.95697822536933" lon="12.133012724731078"><ele>212.0</ele><time>2026-04-25T10:45:39.999Z</time></trkpt><trkpt lat="45.95703463363901" lon="12.13310555026401"><ele>212.0</ele><time>2026-04-25T10:45:41.999Z</time></trkpt><trkpt lat="45.957087350258895" lon="12.13320994379837"><ele>212.0</ele><time>2026-04-25T10:45:43.999Z</time></trkpt><trkpt lat="45.957134431917474" lon="12.13331930068244"><ele>212.00000000000003</ele><time>2026-04-25T10:45:45.999Z</time></trkpt><trkpt lat="45.957179759879864" lon="12.133428803813707"><ele>212.0</ele><time>2026-04-25T10:45:47.998Z</time></trkpt><trkpt lat="45.957229173960314" lon="12.133536359213863"><ele>212.0</ele><time>2026-04-25T10:45:49.998Z</time></trkpt><trkpt lat="45.95727136593642" lon="12.133650547418794"><ele>212.0</ele><time>2026-04-25T10:45:51.998Z</time></trkpt><trkpt lat="45.957315613313185" lon="12.133765979896353"><ele>212.0</ele><time>2026-04-25T10:45:53.998Z</time></trkpt><trkpt lat="45.957359192575765" lon="12.133881718357355"><ele>212.0</ele><time>2026-04-25T10:45:55.998Z</time></trkpt><trkpt lat="45.957400769234184" lon="12.134004242407942"><ele>212.0</ele><time>2026-04-25T10:45:57.998Z</time></trkpt><trkpt lat="45.957435452895375" lon="12.134131868330526"><ele>212.0</ele><time>2026-04-25T10:45:59.998Z</time></trkpt><trkpt lat="45.957465735281275" lon="12.134260092971862"><ele>212.0</ele><time>2026-04-25T10:46:01.998Z</time></trkpt><trkpt lat="45.957500328112154" lon="12.13439601860564"><ele>212.0</ele><time>2026-04-25T10:46:03.998Z</time></trkpt><trkpt lat="45.95753114101174" lon="12.134533554705609"><ele>212.0</ele><time>2026-04-25T10:46:05.998Z</time></trkpt><trkpt lat="45.957561509894624" lon="12.134677460654835"><ele>212.0</ele><time>2026-04-25T10:46:07.998Z</time></trkpt><trkpt lat="45.95758940622176" lon="12.134819150432929"><ele>212.6</ele><time>2026-04-25T10:46:09.998Z</time></trkpt><trkpt lat="45.95761071092622" lon="12.13496499030761"><ele>213.2</ele><time>2026-04-25T10:46:11.998Z</time></trkpt><trkpt lat="45.95763641049931" lon="12.135111378615825"><ele>213.8</ele><time>2026-04-25T10:46:13.998Z</time></trkpt><trkpt lat="45.95766565180901" lon="12.135258656765247"><ele>214.4</ele><time>2026-04-25T10:46:15.998Z</time></trkpt><trkpt lat="45.95769273352541" lon="12.135406777083263"><ele>215.0</ele><time>2026-04-25T10:46:17.998Z</time></trkpt><trkpt lat="45.95772810222348" lon="12.135555273014534"><ele>215.0</ele><time>2026-04-25T10:46:19.998Z</time></trkpt><trkpt lat="45.95777348067989" lon="12.135698562331191"><ele>215.0</ele><time>2026-04-25T10:46:21.998Z</time></trkpt><trkpt lat="45.95783845122905" lon="12.135831854004053"><ele>215.0</ele><time>2026-04-25T10:46:23.998Z</time></trkpt><trkpt lat="45.95790678686025" lon="12.135960673268537"><ele>215.0</ele><time>2026-04-25T10:46:25.998Z</time></trkpt><trkpt lat="45.95795763064528" lon="12.136103282826276"><ele>215.0</ele><time>2026-04-25T10:46:27.998Z</time></trkpt><trkpt lat="45.95798952191274" lon="12.136257657786995"><ele>214.75</ele><time>2026-04-25T10:46:29.998Z</time></trkpt><trkpt lat="45.95803080435391" lon="12.136414958739676"><ele>214.5</ele><time>2026-04-25T10:46:31.998Z</time></trkpt><trkpt lat="45.958111030589166" lon="12.136544724757343"><ele>214.25</ele><time>2026-04-25T10:46:33.997Z</time></trkpt><trkpt lat="45.95817788337743" lon="12.136684095253857"><ele>214.0</ele><time>2026-04-25T10:46:35.997Z</time></trkpt><trkpt lat="45.95822637939179" lon="12.136835973987758"><ele>214.0</ele><time>2026-04-25T10:46:37.997Z</time></trkpt><trkpt lat="45.95827574056738" lon="12.136992701850476"><ele>214.0</ele><time>2026-04-25T10:46:39.997Z</time></trkpt><trkpt lat="45.95833005165898" lon="12.13714667535012"><ele>214.0</ele><time>2026-04-25T10:46:41.997Z</time></trkpt><trkpt lat="45.95838717318288" lon="12.137298607140593"><ele>214.0</ele><time>2026-04-25T10:46:43.997Z</time></trkpt><trkpt lat="45.95844108019613" lon="12.13745475391166"><ele>214.25</ele><time>2026-04-25T10:46:45.997Z</time></trkpt><trkpt lat="45.95849402383707" lon="12.13760950451186"><ele>214.5</ele><time>2026-04-25T10:46:47.997Z</time></trkpt><trkpt lat="45.958545512325394" lon="12.137763079396537"><ele>214.75</ele><time>2026-04-25T10:46:49.997Z</time></trkpt><trkpt lat="45.958598540982486" lon="12.137916240014714"><ele>215.0</ele><time>2026-04-25T10:46:51.997Z</time></trkpt><trkpt lat="45.95865688821408" lon="12.138063290979135"><ele>215.0</ele><time>2026-04-25T10:46:54Z</time></trkpt><trkpt lat="45.95873667753393" lon="12.138191300718814"><ele>215.0</ele><time>2026-04-25T10:46:56Z</time></trkpt><trkpt lat="45.95879249590521" lon="12.138337102457953"><ele>215.0</ele><time>2026-04-25T10:46:58Z</time></trkpt><trkpt lat="45.958860045689825" lon="12.138468113738108"><ele>215.0</ele><time>2026-04-25T10:47:00Z</time></trkpt><trkpt lat="45.95892868995934" lon="12.1385968008546"><ele>215.0</ele><time>2026-04-25T10:47:02Z</time></trkpt><trkpt lat="45.95899775512279" lon="12.138723578701017"><ele>215.0</ele><time>2026-04-25T10:47:04Z</time></trkpt><trkpt lat="45.959074103228744" lon="12.138840659358074"><ele>215.0</ele><time>2026-04-25T10:47:06Z</time></trkpt><trkpt lat="45.95913704982454" lon="12.138968351817729"><ele>215.0</ele><time>2026-04-25T10:47:08Z</time></trkpt><trkpt lat="45.95920617987816" lon="12.139094788406075"><ele>215.0</ele><time>2026-04-25T10:47:10Z</time></trkpt><trkpt lat="45.95927881936104" lon="12.139225878309327"><ele>215.66666666666669</ele><time>2026-04-25T10:47:11.999Z</time></trkpt><trkpt lat="45.9593626418207" lon="12.139360906108354"><ele>216.33333333333334</ele><time>2026-04-25T10:47:13.999Z</time></trkpt><trkpt lat="45.959405981281705" lon="12.13943473771199"><ele>217.0</ele><time>2026-04-25T10:47:14.999Z</time></trkpt><trkpt lat="45.9594535644854" lon="12.139513118347208"><ele>217.66666666666669</ele><time>2026-04-25T10:47:15.999Z</time></trkpt><trkpt lat="45.959505705690965" lon="12.139591028949946"><ele>218.33333333333334</ele><time>2026-04-25T10:47:16.999Z</time></trkpt><trkpt lat="45.95956052296517" lon="12.139678296579694"><ele>219.0</ele><time>2026-04-25T10:47:17.999Z</time></trkpt><trkpt lat="45.95958797123845" lon="12.139793783771212"><ele>218.5</ele><time>2026-04-25T10:47:18.999Z</time></trkpt><trkpt lat="45.95963727276372" lon="12.13989586972378"><ele>218.0</ele><time>2026-04-25T10:47:19.999Z</time></trkpt><trkpt lat="45.959670452465424" lon="12.140009294306285"><ele>217.5</ele><time>2026-04-25T10:47:20.999Z</time></trkpt><trkpt lat="45.95970332953173" lon="12.140121865165197"><ele>217.0</ele><time>2026-04-25T10:47:21.999Z</time></trkpt><trkpt lat="45.95974134994222" lon="12.140221464833383"><ele>216.5</ele><time>2026-04-25T10:47:22.999Z</time></trkpt><trkpt lat="45.959791994745046" lon="12.140313361927316"><ele>216.0</ele><time>2026-04-25T10:47:23.999Z</time></trkpt><trkpt lat="45.959843189516945" lon="12.14039454318693"><ele>216.0</ele><time>2026-04-25T10:47:24.999Z</time></trkpt><trkpt lat="45.95989587765951" lon="12.140470457267885"><ele>216.0</ele><time>2026-04-25T10:47:25.999Z</time></trkpt><trkpt lat="45.95995055404993" lon="12.140539432696098"><ele>216.0</ele><time>2026-04-25T10:47:26.999Z</time></trkpt><trkpt lat="45.96000316554875" lon="12.140608809950795"><ele>216.0</ele><time>2026-04-25T10:47:27.999Z</time></trkpt><trkpt lat="45.96003643137523" lon="12.14069457139537"><ele>216.0</ele><time>2026-04-25T10:47:28.999Z</time></trkpt><trkpt lat="45.960081614402746" lon="12.140765829558868"><ele>216.0</ele><time>2026-04-25T10:47:29.999Z</time></trkpt><trkpt lat="45.96012480085738" lon="12.140833938850527"><ele>216.0</ele><time>2026-04-25T10:47:30.999Z</time></trkpt><trkpt lat="45.96020638926647" lon="12.14095081974555"><ele>216.16666666666666</ele><time>2026-04-25T10:47:32.999Z</time></trkpt><trkpt lat="45.960255974468126" lon="12.141078028747781"><ele>216.33333333333331</ele><time>2026-04-25T10:47:34.999Z</time></trkpt><trkpt lat="45.96029810889092" lon="12.141189898592629"><ele>216.5</ele><time>2026-04-25T10:47:36.999Z</time></trkpt><trkpt lat="45.960335287653606" lon="12.14128527022421"><ele>216.66666666666666</ele><time>2026-04-25T10:47:38.999Z</time></trkpt><trkpt lat="45.96037166344122" lon="12.141369467223276"><ele>216.83333333333331</ele><time>2026-04-25T10:47:40.999Z</time></trkpt><trkpt lat="45.96041048319384" lon="12.14144574947959"><ele>217.0</ele><time>2026-04-25T10:47:42.999Z</time></trkpt><trkpt lat="45.96046760817771" lon="12.141552289470784"><ele>216.99999999999997</ele><time>2026-04-25T10:47:45.999Z</time></trkpt><trkpt lat="45.96052925029157" lon="12.141652383777036"><ele>217.0</ele><time>2026-04-25T10:47:48.999Z</time></trkpt><trkpt lat="45.96059491253596" lon="12.141745708926395"><ele>217.0</ele><time>2026-04-25T10:47:51.999Z</time></trkpt><trkpt lat="45.960655548380174" lon="12.141843182832986"><ele>217.0</ele><time>2026-04-25T10:47:54.999Z</time></trkpt><trkpt lat="45.96069990524241" lon="12.14190790590552"><ele>216.99999999999997</ele><time>2026-04-25T10:47:56.999Z</time></trkpt><trkpt lat="45.96074617375147" lon="12.141979410847213"><ele>217.0</ele><time>2026-04-25T10:47:58.999Z</time></trkpt><trkpt lat="45.96078994322971" lon="12.142056211776001"><ele>216.99999999999997</ele><time>2026-04-25T10:48:00.998Z</time></trkpt><trkpt lat="45.96082178821882" lon="12.142140885324784"><ele>217.0</ele><time>2026-04-25T10:48:02.998Z</time></trkpt><trkpt lat="45.96084973762163" lon="12.142235983053409"><ele>217.0</ele><time>2026-04-25T10:48:04.998Z</time></trkpt><trkpt lat="45.960860380992706" lon="12.14233327087327"><ele>217.0</ele><time>2026-04-25T10:48:06.998Z</time></trkpt><trkpt lat="45.96084141822926" lon="12.14243207311925"><ele>216.99999999999997</ele><time>2026-04-25T10:48:08.998Z</time></trkpt><trkpt lat="45.960807966463115" lon="12.142551999943363"><ele>217.0</ele><time>2026-04-25T10:48:10.998Z</time></trkpt><trkpt lat="45.96080337191419" lon="12.142696948291952"><ele>217.16666666666666</ele><time>2026-04-25T10:48:12.998Z</time></trkpt><trkpt lat="45.96081667491339" lon="12.142862103527946"><ele>217.33333333333331</ele><time>2026-04-25T10:48:14.998Z</time></trkpt><trkpt lat="45.96083312360433" lon="12.143036389781306"><ele>217.5</ele><time>2026-04-25T10:48:16.998Z</time></trkpt><trkpt lat="45.96084720462023" lon="12.14313228585758"><ele>217.66666666666669</ele><time>2026-04-25T10:48:17.998Z</time></trkpt><trkpt lat="45.96085844567844" lon="12.143225701108147"><ele>217.83333333333334</ele><time>2026-04-25T10:48:18.998Z</time></trkpt><trkpt lat="45.96086946642412" lon="12.143328356636298"><ele>218.0</ele><time>2026-04-25T10:48:19.998Z</time></trkpt><trkpt lat="45.96087265162207" lon="12.143424982593292"><ele>218.14285714285714</ele><time>2026-04-25T10:48:20.998Z</time></trkpt><trkpt lat="45.96088140085015" lon="12.143527143853435"><ele>218.28571428571428</ele><time>2026-04-25T10:48:21.998Z</time></trkpt><trkpt lat="45.96089328109201" lon="12.143632633507103"><ele>218.42857142857144</ele><time>2026-04-25T10:48:22.998Z</time></trkpt><trkpt lat="45.96090540770753" lon="12.143737693781958"><ele>218.57142857142856</ele><time>2026-04-25T10:48:23.998Z</time></trkpt><trkpt lat="45.960916834957466" lon="12.143846164794727"><ele>218.7142857142857</ele><time>2026-04-25T10:48:24.998Z</time></trkpt><trkpt lat="45.960935255036595" lon="12.143950940983549"><ele>218.85714285714286</ele><time>2026-04-25T10:48:25.998Z</time></trkpt><trkpt lat="45.96096511747443" lon="12.14405198717051"><ele>219.0</ele><time>2026-04-25T10:48:26.998Z</time></trkpt><trkpt lat="45.96100116559562" lon="12.144147324982432"><ele>219.0</ele><time>2026-04-25T10:48:27.998Z</time></trkpt><trkpt lat="45.96103446900079" lon="12.144244171747916"><ele>219.0</ele><time>2026-04-25T10:48:28.998Z</time></trkpt><trkpt lat="45.96106215246216" lon="12.144342407874205"><ele>219.0</ele><time>2026-04-25T10:48:29.998Z</time></trkpt><trkpt lat="45.96110029834858" lon="12.144433055075506"><ele>219.0</ele><time>2026-04-25T10:48:30.998Z</time></trkpt><trkpt lat="45.96114452799363" lon="12.144515541404893"><ele>219.0</ele><time>2026-04-25T10:48:31.998Z</time></trkpt><trkpt lat="45.961187865783096" lon="12.144599954225656"><ele>219.0</ele><time>2026-04-25T10:48:32.998Z</time></trkpt><trkpt lat="45.96122168641458" lon="12.144687183024482"><ele>219.0</ele><time>2026-04-25T10:48:33.998Z</time></trkpt><trkpt lat="45.961263679900405" lon="12.144763907655758"><ele>219.0</ele><time>2026-04-25T10:48:34.998Z</time></trkpt><trkpt lat="45.96129558512376" lon="12.144842954542172"><ele>218.99999999999997</ele><time>2026-04-25T10:48:35.998Z</time></trkpt><trkpt lat="45.96132990294083" lon="12.144921647045262"><ele>218.99999999999997</ele><time>2026-04-25T10:48:36.998Z</time></trkpt><trkpt lat="45.96139298524784" lon="12.145074565018888"><ele>219.0</ele><time>2026-04-25T10:48:38.998Z</time></trkpt><trkpt lat="45.96143460864149" lon="12.145233775298712"><ele>219.0</ele><time>2026-04-25T10:48:40.998Z</time></trkpt><trkpt lat="45.96146313972114" lon="12.145408559893552"><ele>219.0</ele><time>2026-04-25T10:48:42.998Z</time></trkpt><trkpt lat="45.96147495554213" lon="12.145499097797787"><ele>218.99999999999997</ele><time>2026-04-25T10:48:43.998Z</time></trkpt><trkpt lat="45.961485233091175" lon="12.145593542888166"><ele>218.99999999999997</ele><time>2026-04-25T10:48:44.998Z</time></trkpt><trkpt lat="45.961504665318806" lon="12.145772070681696"><ele>219.0</ele><time>2026-04-25T10:48:46.997Z</time></trkpt><trkpt lat="45.96152201361962" lon="12.145943306289293"><ele>219.0</ele><time>2026-04-25T10:48:48.997Z</time></trkpt><trkpt lat="45.96152860656069" lon="12.146086050538232"><ele>219.0</ele><time>2026-04-25T10:48:50.997Z</time></trkpt><trkpt lat="45.961540079993576" lon="12.146194781037254"><ele>219.0</ele><time>2026-04-25T10:48:52.997Z</time></trkpt><trkpt lat="45.96160730311835" lon="12.146223902165461"><ele>219.0</ele><time>2026-04-25T10:48:56.997Z</time></trkpt><trkpt lat="45.96154720076599" lon="12.146167751104361"><ele>219.0</ele><time>2026-04-25T10:48:59Z</time></trkpt><trkpt lat="45.96154033241418" lon="12.146264744569201"><ele>219.0</ele><time>2026-04-25T10:51:15Z</time></trkpt><trkpt lat="45.961544803680276" lon="12.146364180499967"><ele>219.0</ele><time>2026-04-25T10:51:17Z</time></trkpt><trkpt lat="45.9615490404795" lon="12.146478768637577"><ele>219.0</ele><time>2026-04-25T10:51:19Z</time></trkpt><trkpt lat="45.961563936477845" lon="12.1466036460484"><ele>219.0</ele><time>2026-04-25T10:51:21Z</time></trkpt><trkpt lat="45.961581779750105" lon="12.146745954868377"><ele>218.99999999999997</ele><time>2026-04-25T10:51:23Z</time></trkpt><trkpt lat="45.96160393130447" lon="12.146887207274448"><ele>218.99999999999997</ele><time>2026-04-25T10:51:25Z</time></trkpt><trkpt lat="45.96163203498366" lon="12.147030589958606"><ele>219.0</ele><time>2026-04-25T10:51:27Z</time></trkpt><trkpt lat="45.96166164740571" lon="12.147165636474442"><ele>219.0</ele><time>2026-04-25T10:51:29Z</time></trkpt><trkpt lat="45.96169355602736" lon="12.147294041921024"><ele>219.0</ele><time>2026-04-25T10:51:30Z</time></trkpt><trkpt lat="45.96171100337666" lon="12.147381420153105"><ele>218.99999999999997</ele><time>2026-04-25T10:51:31Z</time></trkpt><trkpt lat="45.961740835961514" lon="12.147549338831448"><ele>218.99999999999997</ele><time>2026-04-25T10:51:33Z</time></trkpt><trkpt lat="45.961770171751255" lon="12.147724246724154"><ele>219.0</ele><time>2026-04-25T10:51:35Z</time></trkpt><trkpt lat="45.96179319593875" lon="12.14790522219243"><ele>219.0</ele><time>2026-04-25T10:51:37Z</time></trkpt><trkpt lat="45.961802731932394" lon="12.147998091068095"><ele>219.0</ele><time>2026-04-25T10:51:38Z</time></trkpt><trkpt lat="45.961814191647264" lon="12.148089009970292"><ele>219.0</ele><time>2026-04-25T10:51:39Z</time></trkpt><trkpt lat="45.961824777698176" lon="12.148178925756353"><ele>219.0</ele><time>2026-04-25T10:51:40Z</time></trkpt><trkpt lat="45.96183797240855" lon="12.14826824186794"><ele>219.0</ele><time>2026-04-25T10:51:41Z</time></trkpt><trkpt lat="45.96185242999218" lon="12.148358687671886"><ele>219.0</ele><time>2026-04-25T10:51:42Z</time></trkpt><trkpt lat="45.961868531732854" lon="12.148448328538016"><ele>219.0</ele><time>2026-04-25T10:51:43Z</time></trkpt><trkpt lat="45.96189050835788" lon="12.148535390537349"><ele>219.0</ele><time>2026-04-25T10:51:44Z</time></trkpt><trkpt lat="45.961918093737175" lon="12.148621344442935"><ele>218.85714285714286</ele><time>2026-04-25T10:51:45Z</time></trkpt><trkpt lat="45.96195253351096" lon="12.148705204063404"><ele>218.7142857142857</ele><time>2026-04-25T10:51:46Z</time></trkpt><trkpt lat="45.961986715047644" lon="12.148789644117704"><ele>218.57142857142856</ele><time>2026-04-25T10:51:47Z</time></trkpt><trkpt lat="45.96202051350666" lon="12.148875717854972"><ele>218.42857142857144</ele><time>2026-04-25T10:51:48Z</time></trkpt><trkpt lat="45.96205470268599" lon="12.148959596510995"><ele>218.28571428571428</ele><time>2026-04-25T10:51:49Z</time></trkpt><trkpt lat="45.962089247504515" lon="12.14904364261423"><ele>218.14285714285714</ele><time>2026-04-25T10:51:50Z</time></trkpt><trkpt lat="45.962117735628404" lon="12.149135922110112"><ele>218.0</ele><time>2026-04-25T10:51:51Z</time></trkpt><trkpt lat="45.9621582701214" lon="12.149219016442206"><ele>218.14285714285714</ele><time>2026-04-25T10:51:52Z</time></trkpt><trkpt lat="45.96220479284796" lon="12.149296851700425"><ele>218.28571428571428</ele><time>2026-04-25T10:51:53Z</time></trkpt><trkpt lat="45.962257505838295" lon="12.149367895928965"><ele>218.42857142857144</ele><time>2026-04-25T10:51:54Z</time></trkpt><trkpt lat="45.9623052944256" lon="12.149439241683485"><ele>218.57142857142856</ele><time>2026-04-25T10:51:54.999Z</time></trkpt><trkpt lat="45.962354790527044" lon="12.149516684912461"><ele>218.7142857142857</ele><time>2026-04-25T10:51:55.999Z</time></trkpt><trkpt lat="45.9624072540045" lon="12.1495889266611"><ele>218.85714285714286</ele><time>2026-04-25T10:51:56.999Z</time></trkpt><trkpt lat="45.962466175256836" lon="12.149651569430137"><ele>219.0</ele><time>2026-04-25T10:51:57.999Z</time></trkpt><trkpt lat="45.962534602101236" lon="12.149687648098219"><ele>219.0</ele><time>2026-04-25T10:51:58.999Z</time></trkpt><trkpt lat="45.96258726902481" lon="12.14976086121181"><ele>219.0</ele><time>2026-04-25T10:51:59.999Z</time></trkpt><trkpt lat="45.96262947145843" lon="12.149854294010625"><ele>219.0</ele><time>2026-04-25T10:52:00.999Z</time></trkpt><trkpt lat="45.96265707046824" lon="12.149959747955233"><ele>219.0</ele><time>2026-04-25T10:52:01.999Z</time></trkpt><trkpt lat="45.96267538183933" lon="12.150066308349347"><ele>219.0</ele><time>2026-04-25T10:52:02.999Z</time></trkpt><trkpt lat="45.9626905564771" lon="12.150172594857604"><ele>219.0</ele><time>2026-04-25T10:52:03.999Z</time></trkpt><trkpt lat="45.96270574315804" lon="12.150278189238868"><ele>218.0</ele><time>2026-04-25T10:52:04.999Z</time></trkpt><trkpt lat="45.96272159921926" lon="12.150383252170808"><ele>217.0</ele><time>2026-04-25T10:52:05.999Z</time></trkpt><trkpt lat="45.962741820587674" lon="12.15048733605837"><ele>216.0</ele><time>2026-04-25T10:52:06.999Z</time></trkpt><trkpt lat="45.96275805439631" lon="12.150590782363636"><ele>215.0</ele><time>2026-04-25T10:52:07.999Z</time></trkpt><trkpt lat="45.962774850849506" lon="12.150688261517615"><ele>214.0</ele><time>2026-04-25T10:52:08.999Z</time></trkpt><trkpt lat="45.962793591545406" lon="12.150790554504825"><ele>213.0</ele><time>2026-04-25T10:52:09.999Z</time></trkpt><trkpt lat="45.9628121778518" lon="12.15088996658127"><ele>212.0</ele><time>2026-04-25T10:52:10.999Z</time></trkpt><trkpt lat="45.96284403995709" lon="12.151027374266805"><ele>212.00000000000003</ele><time>2026-04-25T10:52:12.999Z</time></trkpt><trkpt lat="45.962882587429725" lon="12.151170799400818"><ele>212.0</ele><time>2026-04-25T10:52:13.999Z</time></trkpt><trkpt lat="45.9629128899069" lon="12.151275146960163"><ele>212.0</ele><time>2026-04-25T10:52:14.999Z</time></trkpt><trkpt lat="45.962938251631805" lon="12.151372499134792"><ele>212.0</ele><time>2026-04-25T10:52:15.999Z</time></trkpt><trkpt lat="45.962959192081435" lon="12.151476655776207"><ele>212.00000000000003</ele><time>2026-04-25T10:52:16.999Z</time></trkpt><trkpt lat="45.96298668917853" lon="12.151578037021947"><ele>212.0</ele><time>2026-04-25T10:52:17.999Z</time></trkpt><trkpt lat="45.96300511169585" lon="12.151685772572272"><ele>211.50000000000003</ele><time>2026-04-25T10:52:18.999Z</time></trkpt><trkpt lat="45.96302742281056" lon="12.151791104211055"><ele>211.0</ele><time>2026-04-25T10:52:19.999Z</time></trkpt><trkpt lat="45.963046773921484" lon="12.151900414650665"><ele>210.5</ele><time>2026-04-25T10:52:20.999Z</time></trkpt><trkpt lat="45.96307461494979" lon="12.152012692210484"><ele>210.0</ele><time>2026-04-25T10:52:21.999Z</time></trkpt><trkpt lat="45.96310474779946" lon="12.152111848360402"><ele>209.50000000000003</ele><time>2026-04-25T10:52:22.999Z</time></trkpt><trkpt lat="45.96313737232213" lon="12.152218668048517"><ele>209.0</ele><time>2026-04-25T10:52:23.999Z</time></trkpt><trkpt lat="45.96317147375588" lon="12.152323737127237"><ele>209.16666666666669</ele><time>2026-04-25T10:52:24.999Z</time></trkpt><trkpt lat="45.9632081346769" lon="12.1524219369631"><ele>209.33333333333334</ele><time>2026-04-25T10:52:25.999Z</time></trkpt><trkpt lat="45.963247810824136" lon="12.152525523649146"><ele>209.5</ele><time>2026-04-25T10:52:26.999Z</time></trkpt><trkpt lat="45.96328805426727" lon="12.152624827469245"><ele>209.66666666666669</ele><time>2026-04-25T10:52:27.999Z</time></trkpt><trkpt lat="45.96332365261868" lon="12.15272950411998"><ele>209.83333333333334</ele><time>2026-04-25T10:52:28.999Z</time></trkpt><trkpt lat="45.963364472347756" lon="12.152828605028335"><ele>210.0</ele><time>2026-04-25T10:52:29.999Z</time></trkpt><trkpt lat="45.96340144794393" lon="12.152927307376672"><ele>210.0</ele><time>2026-04-25T10:52:30.999Z</time></trkpt><trkpt lat="45.9634373457028" lon="12.153026985253707"><ele>210.0</ele><time>2026-04-25T10:52:31.999Z</time></trkpt><trkpt lat="45.963478148525724" lon="12.153123916496462"><ele>210.0</ele><time>2026-04-25T10:52:32.999Z</time></trkpt><trkpt lat="45.96352242741216" lon="12.153217468888487"><ele>210.0</ele><time>2026-04-25T10:52:33.999Z</time></trkpt><trkpt lat="45.96356555389285" lon="12.153311163428553"><ele>210.0</ele><time>2026-04-25T10:52:34.999Z</time></trkpt><trkpt lat="45.96360420497655" lon="12.15339760498172"><ele>210.0</ele><time>2026-04-25T10:52:35.999Z</time></trkpt><trkpt lat="45.96364677410306" lon="12.153484592975431"><ele>209.85714285714286</ele><time>2026-04-25T10:52:36.999Z</time></trkpt><trkpt lat="45.963688927043385" lon="12.153567773579228"><ele>209.71428571428572</ele><time>2026-04-25T10:52:37.998Z</time></trkpt><trkpt lat="45.963732983364565" lon="12.153651798700812"><ele>209.57142857142856</ele><time>2026-04-25T10:52:38.998Z</time></trkpt><trkpt lat="45.9637763589992" lon="12.153734855674818"><ele>209.42857142857144</ele><time>2026-04-25T10:52:39.998Z</time></trkpt><trkpt lat="45.9638189566162" lon="12.153819443775507"><ele>209.28571428571428</ele><time>2026-04-25T10:52:40.998Z</time></trkpt><trkpt lat="45.963848384473806" lon="12.153916954972143"><ele>209.14285714285714</ele><time>2026-04-25T10:52:41.997Z</time></trkpt><trkpt lat="45.9638809360806" lon="12.154009141223264"><ele>209.0</ele><time>2026-04-25T10:52:42.997Z</time></trkpt><trkpt lat="45.96390884656764" lon="12.154099838846532"><ele>208.0</ele><time>2026-04-25T10:52:43.997Z</time></trkpt><trkpt lat="45.963934027963646" lon="12.154187269928027"><ele>207.0</ele><time>2026-04-25T10:52:44.997Z</time></trkpt><trkpt lat="45.963962132207904" lon="12.154269189422225"><ele>206.0</ele><time>2026-04-25T10:52:45.997Z</time></trkpt><trkpt lat="45.9640153375785" lon="12.154427013278923"><ele>205.0</ele><time>2026-04-25T10:52:47.997Z</time></trkpt><trkpt lat="45.96409308002671" lon="12.15455950951183"><ele>204.0</ele><time>2026-04-25T10:52:49.997Z</time></trkpt><trkpt lat="45.96417808563529" lon="12.154667053600743"><ele>205.2</ele><time>2026-04-25T10:52:51.997Z</time></trkpt><trkpt lat="45.96426580286418" lon="12.154760840315321"><ele>206.39999999999998</ele><time>2026-04-25T10:52:53.997Z</time></trkpt><trkpt lat="45.9643687760699" lon="12.154827510903035"><ele>207.6</ele><time>2026-04-25T10:52:55.997Z</time></trkpt><trkpt lat="45.96446777643435" lon="12.154875891823988"><ele>208.8</ele><time>2026-04-25T10:52:57.997Z</time></trkpt><trkpt lat="45.964558603499746" lon="12.154924667791336"><ele>210.0</ele><time>2026-04-25T10:52:59.997Z</time></trkpt><trkpt lat="45.96462247378688" lon="12.155009080002213"><ele>210.0</ele><time>2026-04-25T10:53:01.997Z</time></trkpt><trkpt lat="45.96469384029253" lon="12.155093711947455"><ele>210.0</ele><time>2026-04-25T10:53:03.997Z</time></trkpt><trkpt lat="45.964743947499244" lon="12.155205295492749"><ele>210.0</ele><time>2026-04-25T10:53:05.997Z</time></trkpt><trkpt lat="45.96479923427944" lon="12.155307094935061"><ele>210.0</ele><time>2026-04-25T10:53:07.997Z</time></trkpt><trkpt lat="45.964856473494336" lon="12.15540799074661"><ele>210.0</ele><time>2026-04-25T10:53:09.997Z</time></trkpt><trkpt lat="45.96490606810389" lon="12.155521969742326"><ele>210.0</ele><time>2026-04-25T10:53:11.999Z</time></trkpt><trkpt lat="45.964963402995515" lon="12.155623804945064"><ele>210.0</ele><time>2026-04-25T10:53:13.999Z</time></trkpt><trkpt lat="45.96502418076487" lon="12.155720098328203"><ele>210.0</ele><time>2026-04-25T10:53:15.999Z</time></trkpt><trkpt lat="45.96508602781775" lon="12.155822163870395"><ele>210.0</ele><time>2026-04-25T10:53:17.999Z</time></trkpt><trkpt lat="45.96516342929906" lon="12.155897135781009"><ele>210.0</ele><time>2026-04-25T10:53:19.999Z</time></trkpt><trkpt lat="45.96524524598111" lon="12.155961954784383"><ele>210.66666666666666</ele><time>2026-04-25T10:53:21.999Z</time></trkpt><trkpt lat="45.96531929423123" lon="12.156031684285876"><ele>211.33333333333331</ele><time>2026-04-25T10:53:24Z</time></trkpt><trkpt lat="45.96539200698427" lon="12.156103945021927"><ele>212.0</ele><time>2026-04-25T10:53:25.999Z</time></trkpt><trkpt lat="45.96541066522921" lon="12.156218082866504"><ele>212.66666666666666</ele><time>2026-04-25T10:53:27.999Z</time></trkpt><trkpt lat="45.96539196409485" lon="12.156315503066333"><ele>213.33333333333331</ele><time>2026-04-25T10:53:29.999Z</time></trkpt><trkpt lat="45.96537269195541" lon="12.156417080150998"><ele>214.0</ele><time>2026-04-25T10:53:32.999Z</time></trkpt><trkpt lat="45.96536344419795" lon="12.156525478873489"><ele>213.0</ele><time>2026-04-25T10:53:35.999Z</time></trkpt><trkpt lat="45.965360694692045" lon="12.156626523662824"><ele>211.99999999999997</ele><time>2026-04-25T10:53:37.999Z</time></trkpt><trkpt lat="45.96535517072524" lon="12.15678473061249"><ele>211.0</ele><time>2026-04-25T10:53:39.999Z</time></trkpt><trkpt lat="45.965326960769566" lon="12.15694572832117"><ele>210.0</ele><time>2026-04-25T10:53:41.999Z</time></trkpt><trkpt lat="45.96539710827283" lon="12.157025051036248"><ele>209.0</ele><time>2026-04-25T10:53:42.999Z</time></trkpt><trkpt lat="45.96547737836984" lon="12.15714610255545"><ele>209.0</ele><time>2026-04-25T10:53:44.999Z</time></trkpt><trkpt lat="45.965559192994625" lon="12.157246969549075"><ele>209.0</ele><time>2026-04-25T10:53:46.999Z</time></trkpt><trkpt lat="45.96563957600698" lon="12.157346979439147"><ele>209.0</ele><time>2026-04-25T10:53:48.999Z</time></trkpt><trkpt lat="45.96568939039894" lon="12.15748456718436"><ele>209.0</ele><time>2026-04-25T10:53:50.999Z</time></trkpt><trkpt lat="45.96572169387704" lon="12.157636063154131"><ele>209.0</ele><time>2026-04-25T10:53:52.999Z</time></trkpt><trkpt lat="45.965755527173094" lon="12.157784322471045"><ele>209.0</ele><time>2026-04-25T10:53:54.999Z</time></trkpt><trkpt lat="45.96579389450077" lon="12.157926120624527"><ele>209.0</ele><time>2026-04-25T10:53:56.999Z</time></trkpt><trkpt lat="45.965831009653535" lon="12.158067938799267"><ele>209.0</ele><time>2026-04-25T10:53:58.999Z</time></trkpt><trkpt lat="45.96589081206559" lon="12.158192333019363"><ele>209.0</ele><time>2026-04-25T10:54:00.999Z</time></trkpt><trkpt lat="45.96595700664963" lon="12.158309804369342"><ele>209.0</ele><time>2026-04-25T10:54:02.999Z</time></trkpt><trkpt lat="45.96603426187868" lon="12.158410862732245"><ele>209.0</ele><time>2026-04-25T10:54:04.999Z</time></trkpt><trkpt lat="45.96611462881447" lon="12.1585042451816"><ele>209.0</ele><time>2026-04-25T10:54:06.999Z</time></trkpt><trkpt lat="45.96619395058693" lon="12.158597331943096"><ele>209.0</ele><time>2026-04-25T10:54:08.999Z</time></trkpt><trkpt lat="45.96627663929373" lon="12.1586824361242"><ele>209.0</ele><time>2026-04-25T10:54:10.999Z</time></trkpt><trkpt lat="45.96635742030739" lon="12.15876427508677"><ele>209.0</ele><time>2026-04-25T10:54:12.998Z</time></trkpt><trkpt lat="45.96643589664806" lon="12.158850234451636"><ele>209.0</ele><time>2026-04-25T10:54:14.998Z</time></trkpt><trkpt lat="45.96651223171858" lon="12.158941553879075"><ele>209.0</ele><time>2026-04-25T10:54:16.998Z</time></trkpt><trkpt lat="45.96658553066183" lon="12.159033191758907"><ele>209.0</ele><time>2026-04-25T10:54:18.998Z</time></trkpt><trkpt lat="45.9666630743795" lon="12.159128241035758"><ele>209.0</ele><time>2026-04-25T10:54:20.998Z</time></trkpt><trkpt lat="45.96674101025569" lon="12.159211508923491"><ele>209.0</ele><time>2026-04-25T10:54:22.998Z</time></trkpt><trkpt lat="45.966831106400065" lon="12.159286821737847"><ele>208.79999999999998</ele><time>2026-04-25T10:54:24.998Z</time></trkpt><trkpt lat="45.96693399882916" lon="12.159334633941931"><ele>208.6</ele><time>2026-04-25T10:54:26.998Z</time></trkpt><trkpt lat="45.96703084900599" lon="12.15937222919902"><ele>208.4</ele><time>2026-04-25T10:54:28.998Z</time></trkpt><trkpt lat="45.9671287120462" lon="12.15940597360535"><ele>208.2</ele><time>2026-04-25T10:54:30.998Z</time></trkpt><trkpt lat="45.96722513345624" lon="12.159439220917488"><ele>208.0</ele><time>2026-04-25T10:54:32.998Z</time></trkpt><trkpt lat="45.967320567092735" lon="12.159474886493404"><ele>208.0</ele><time>2026-04-25T10:54:34.998Z</time></trkpt><trkpt lat="45.967415824059586" lon="12.159514718335826"><ele>208.0</ele><time>2026-04-25T10:54:36.998Z</time></trkpt><trkpt lat="45.967507640699935" lon="12.15955787572048"><ele>208.0</ele><time>2026-04-25T10:54:38.998Z</time></trkpt><trkpt lat="45.96759887474157" lon="12.159608670112576"><ele>208.0</ele><time>2026-04-25T10:54:40.998Z</time></trkpt><trkpt lat="45.96768334847076" lon="12.159672939933566"><ele>208.0</ele><time>2026-04-25T10:54:42.998Z</time></trkpt><trkpt lat="45.9677602976126" lon="12.159747403250153"><ele>208.16666666666666</ele><time>2026-04-25T10:54:44.998Z</time></trkpt><trkpt lat="45.96783475303733" lon="12.159825314329158"><ele>208.33333333333331</ele><time>2026-04-25T10:54:46.998Z</time></trkpt><trkpt lat="45.96791358137773" lon="12.159869105397657"><ele>208.5</ele><time>2026-04-25T10:54:48.998Z</time></trkpt><trkpt lat="45.967970824466974" lon="12.159914143825915"><ele>208.66666666666669</ele><time>2026-04-25T10:54:50.998Z</time></trkpt><trkpt lat="45.96802558608321" lon="12.159983075593377"><ele>208.83333333333334</ele><time>2026-04-25T10:54:52.998Z</time></trkpt><trkpt lat="45.96810217507653" lon="12.160028551683002"><ele>209.0</ele><time>2026-04-25T10:54:54.998Z</time></trkpt><trkpt lat="45.968176139252286" lon="12.160093110364329"><ele>209.0</ele><time>2026-04-25T10:54:56.998Z</time></trkpt><trkpt lat="45.96825483108095" lon="12.160160297213666"><ele>209.0</ele><time>2026-04-25T10:54:58.998Z</time></trkpt><trkpt lat="45.96832873390388" lon="12.160239775510005"><ele>209.0</ele><time>2026-04-25T10:55:00.997Z</time></trkpt><trkpt lat="45.968401729988805" lon="12.160331528492677"><ele>209.0</ele><time>2026-04-25T10:55:02.997Z</time></trkpt><trkpt lat="45.9684701165952" lon="12.160436516827032"><ele>209.0</ele><time>2026-04-25T10:55:04.997Z</time></trkpt><trkpt lat="45.96853884180197" lon="12.160541955987771"><ele>209.39999999999998</ele><time>2026-04-25T10:55:06.997Z</time></trkpt><trkpt lat="45.968608738158416" lon="12.160644802168983"><ele>209.8</ele><time>2026-04-25T10:55:08.997Z</time></trkpt><trkpt lat="45.96868174200965" lon="12.160749900610405"><ele>210.2</ele><time>2026-04-25T10:55:10.997Z</time></trkpt><trkpt lat="45.96875806264427" lon="12.160852689599265"><ele>210.60000000000002</ele><time>2026-04-25T10:55:12.997Z</time></trkpt><trkpt lat="45.96883694820268" lon="12.160947216456089"><ele>211.0</ele><time>2026-04-25T10:55:14.997Z</time></trkpt><trkpt lat="45.968918242764744" lon="12.161043501342617"><ele>211.0</ele><time>2026-04-25T10:55:17Z</time></trkpt><trkpt lat="45.96899755575996" lon="12.161145731708723"><ele>211.0</ele><time>2026-04-25T10:55:19Z</time></trkpt><trkpt lat="45.96907686632469" lon="12.161250810551039"><ele>211.0</ele><time>2026-04-25T10:55:21Z</time></trkpt><trkpt lat="45.96915570015943" lon="12.161352838752245"><ele>211.0</ele><time>2026-04-25T10:55:23Z</time></trkpt><trkpt lat="45.96923603250616" lon="12.161452319822489"><ele>211.0</ele><time>2026-04-25T10:55:25Z</time></trkpt><trkpt lat="45.96931613121681" lon="12.16154985681571"><ele>212.20000000000002</ele><time>2026-04-25T10:55:27Z</time></trkpt><trkpt lat="45.969399193354946" lon="12.161644953269931"><ele>213.4</ele><time>2026-04-25T10:55:29Z</time></trkpt><trkpt lat="45.969479778864255" lon="12.161743302989736"><ele>214.6</ele><time>2026-04-25T10:55:31Z</time></trkpt><trkpt lat="45.96954210670238" lon="12.161839543463756"><ele>215.8</ele><time>2026-04-25T10:55:33Z</time></trkpt><trkpt lat="45.969552628322795" lon="12.161946670998285"><ele>217.0</ele><time>2026-04-25T10:55:35Z</time></trkpt><trkpt lat="45.96952219549938" lon="12.162055447760629"><ele>217.0</ele><time>2026-04-25T10:55:37Z</time></trkpt><trkpt lat="45.96949168729956" lon="12.162195117837395"><ele>217.0</ele><time>2026-04-25T10:55:39Z</time></trkpt><trkpt lat="45.96950109236189" lon="12.162347135550213"><ele>217.0</ele><time>2026-04-25T10:55:41Z</time></trkpt><trkpt lat="45.969494232484415" lon="12.162496652490502"><ele>217.0</ele><time>2026-04-25T10:55:43Z</time></trkpt><trkpt lat="45.96947642093812" lon="12.162637397190945"><ele>217.0</ele><time>2026-04-25T10:55:45Z</time></trkpt><trkpt lat="45.96944996668316" lon="12.16276416592052"><ele>216.8</ele><time>2026-04-25T10:55:47Z</time></trkpt><trkpt lat="45.96941209015844" lon="12.162881242859017"><ele>216.6</ele><time>2026-04-25T10:55:48.999Z</time></trkpt><trkpt lat="45.96942367885204" lon="12.163012076397884"><ele>216.40000000000003</ele><time>2026-04-25T10:55:50.999Z</time></trkpt><trkpt lat="45.96948832528623" lon="12.163121056384384"><ele>216.20000000000002</ele><time>2026-04-25T10:55:52.999Z</time></trkpt><trkpt lat="45.969543320786855" lon="12.16323437872618"><ele>216.0</ele><time>2026-04-25T10:55:54.999Z</time></trkpt><trkpt lat="45.96959060264217" lon="12.163362598592023"><ele>215.8</ele><time>2026-04-25T10:55:56.999Z</time></trkpt><trkpt lat="45.9696322107067" lon="12.163497378743768"><ele>215.60000000000002</ele><time>2026-04-25T10:55:58.999Z</time></trkpt><trkpt lat="45.96966688287299" lon="12.163639131128754"><ele>215.4</ele><time>2026-04-25T10:56:00.999Z</time></trkpt><trkpt lat="45.96967894440969" lon="12.163792280156592"><ele>215.2</ele><time>2026-04-25T10:56:02.999Z</time></trkpt><trkpt lat="45.96968448072957" lon="12.16394111518105"><ele>215.0</ele><time>2026-04-25T10:56:04.999Z</time></trkpt><trkpt lat="45.96970958376149" lon="12.164087682360291"><ele>214.8</ele><time>2026-04-25T10:56:06.999Z</time></trkpt><trkpt lat="45.969740484482806" lon="12.164234256521965"><ele>214.6</ele><time>2026-04-25T10:56:08.999Z</time></trkpt><trkpt lat="45.96978062978081" lon="12.164367965905601"><ele>214.39999999999998</ele><time>2026-04-25T10:56:10.999Z</time></trkpt><trkpt lat="45.96983105998731" lon="12.164493297132948"><ele>214.2</ele><time>2026-04-25T10:56:12.999Z</time></trkpt><trkpt lat="45.969886871778805" lon="12.16460597373222"><ele>214.0</ele><time>2026-04-25T10:56:14.999Z</time></trkpt><trkpt lat="45.96996711418606" lon="12.164692006212995"><ele>214.49999999999997</ele><time>2026-04-25T10:56:16.999Z</time></trkpt><trkpt lat="45.97006742864815" lon="12.164719627881691"><ele>215.0</ele><time>2026-04-25T10:56:18.999Z</time></trkpt><trkpt lat="45.97015697627585" lon="12.164717166941045"><ele>215.5</ele><time>2026-04-25T10:56:20.999Z</time></trkpt><trkpt lat="45.970225360327355" lon="12.164696235454551"><ele>216.0</ele><time>2026-04-25T10:56:22.999Z</time></trkpt><trkpt lat="45.97031407784857" lon="12.164709500148211"><ele>216.49999999999997</ele><time>2026-04-25T10:56:25.999Z</time></trkpt><trkpt lat="45.970394630634594" lon="12.164737536975798"><ele>217.0</ele><time>2026-04-25T10:56:29.999Z</time></trkpt><trkpt lat="45.97048116935699" lon="12.164732721863803"><ele>216.99999999999997</ele><time>2026-04-25T10:56:32.999Z</time></trkpt><trkpt lat="45.97056917347269" lon="12.164694534569568"><ele>217.0</ele><time>2026-04-25T10:56:35.998Z</time></trkpt><trkpt lat="45.97063528022757" lon="12.16466237274167"><ele>217.0</ele><time>2026-04-25T10:56:37.998Z</time></trkpt><trkpt lat="45.970716769048366" lon="12.164611301732732"><ele>217.0</ele><time>2026-04-25T10:56:40.998Z</time></trkpt><trkpt lat="45.9707926573396" lon="12.164545426619338"><ele>216.99999999999997</ele><time>2026-04-25T10:56:43.998Z</time></trkpt><trkpt lat="45.97087212876662" lon="12.164501470221849"><ele>217.0</ele><time>2026-04-25T10:56:46.998Z</time></trkpt><trkpt lat="45.970954348655056" lon="12.164457569473152"><ele>218.99999999999997</ele><time>2026-04-25T10:56:49.998Z</time></trkpt><trkpt lat="45.97102513618629" lon="12.164403883927488"><ele>221.0</ele><time>2026-04-25T10:56:52.998Z</time></trkpt><trkpt lat="45.971099527359534" lon="12.164356839319531"><ele>223.0</ele><time>2026-04-25T10:56:55.998Z</time></trkpt><trkpt lat="45.97117581147741" lon="12.164339055751725"><ele>225.0</ele><time>2026-04-25T10:56:58.998Z</time></trkpt><trkpt lat="45.97125524985907" lon="12.164330814011048"><ele>226.99999999999997</ele><time>2026-04-25T10:57:02.998Z</time></trkpt><trkpt lat="45.97124313016031" lon="12.164442897700962"><ele>229.0</ele><time>2026-04-25T10:57:06.998Z</time></trkpt><trkpt lat="45.97126884682154" lon="12.16457480645858"><ele>228.99999999999997</ele><time>2026-04-25T10:57:09.998Z</time></trkpt><trkpt lat="45.97128544272965" lon="12.164676723348698"><ele>229.0</ele><time>2026-04-25T10:57:11.998Z</time></trkpt><trkpt lat="45.97130501566494" lon="12.164793228733808"><ele>229.0</ele><time>2026-04-25T10:57:13.998Z</time></trkpt><trkpt lat="45.97132310198861" lon="12.164902290670929"><ele>229.0</ele><time>2026-04-25T10:57:15.998Z</time></trkpt><trkpt lat="45.9713417491298" lon="12.16501621745343"><ele>228.99999999999997</ele><time>2026-04-25T10:57:17.998Z</time></trkpt><trkpt lat="45.97135745389397" lon="12.165143794174629"><ele>229.0</ele><time>2026-04-25T10:57:19.998Z</time></trkpt><trkpt lat="45.97136478758769" lon="12.165273964013531"><ele>229.0</ele><time>2026-04-25T10:57:21.997Z</time></trkpt><trkpt lat="45.97137742380094" lon="12.165411729160285"><ele>228.99999999999997</ele><time>2026-04-25T10:57:24Z</time></trkpt><trkpt lat="45.971389550857545" lon="12.165541914023944"><ele>228.99999999999997</ele><time>2026-04-25T10:57:26Z</time></trkpt><trkpt lat="45.971400692423025" lon="12.165675806124279"><ele>229.0</ele><time>2026-04-25T10:57:28Z</time></trkpt><trkpt lat="45.97141550226227" lon="12.16580547093549"><ele>229.0</ele><time>2026-04-25T10:57:30Z</time></trkpt><trkpt lat="45.97145508551397" lon="12.165940548054012"><ele>228.5</ele><time>2026-04-25T10:57:32Z</time></trkpt><trkpt lat="45.9714901131189" lon="12.166083508091285"><ele>228.0</ele><time>2026-04-25T10:57:34Z</time></trkpt><trkpt lat="45.9715300193887" lon="12.166232753907057"><ele>227.5</ele><time>2026-04-25T10:57:36Z</time></trkpt><trkpt lat="45.97157794373041" lon="12.1663898519592"><ele>227.0</ele><time>2026-04-25T10:57:38Z</time></trkpt><trkpt lat="45.97163082083166" lon="12.166542471514306"><ele>226.5</ele><time>2026-04-25T10:57:40Z</time></trkpt><trkpt lat="45.97167074346212" lon="12.166700804133402"><ele>226.0</ele><time>2026-04-25T10:57:42Z</time></trkpt><trkpt lat="45.971709963315405" lon="12.166863329849434"><ele>225.5</ele><time>2026-04-25T10:57:44Z</time></trkpt><trkpt lat="45.97174059635032" lon="12.16702934346693"><ele>225.0</ele><time>2026-04-25T10:57:46Z</time></trkpt><trkpt lat="45.97175221086956" lon="12.167196616369127"><ele>225.0</ele><time>2026-04-25T10:57:48Z</time></trkpt><trkpt lat="45.97175561301349" lon="12.167359879786426"><ele>225.0</ele><time>2026-04-25T10:57:50Z</time></trkpt><trkpt lat="45.9717335760494" lon="12.167506407569581"><ele>225.0</ele><time>2026-04-25T10:57:52Z</time></trkpt><trkpt lat="45.971678288410644" lon="12.167628028169288"><ele>225.0</ele><time>2026-04-25T10:57:54Z</time></trkpt><trkpt lat="45.97163788646925" lon="12.16771827493766"><ele>225.0</ele><time>2026-04-25T10:57:56Z</time></trkpt><trkpt lat="45.971584860363784" lon="12.167801005829759"><ele>225.0</ele><time>2026-04-25T10:57:59Z</time></trkpt><trkpt lat="45.97153362811245" lon="12.167863708665253"><ele>225.0</ele><time>2026-04-25T10:58:02Z</time></trkpt><trkpt lat="45.97149004246403" lon="12.1679616615801"><ele>225.0</ele><time>2026-04-25T10:58:06Z</time></trkpt><trkpt lat="45.971424586230306" lon="12.167987612673258"><ele>225.0</ele><time>2026-04-25T10:58:07.999Z</time></trkpt><trkpt lat="45.97134307814641" lon="12.168020077221982"><ele>225.0</ele><time>2026-04-25T10:58:09.999Z</time></trkpt><trkpt lat="45.971334405460716" lon="12.168185045720152"><ele>225.0</ele><time>2026-04-25T10:58:11.999Z</time></trkpt><trkpt lat="45.971371443673775" lon="12.168354990491585"><ele>225.16666666666666</ele><time>2026-04-25T10:58:13.999Z</time></trkpt><trkpt lat="45.97138248358113" lon="12.168508611014502"><ele>225.33333333333331</ele><time>2026-04-25T10:58:15.999Z</time></trkpt><trkpt lat="45.97138758451542" lon="12.168641391150633"><ele>225.5</ele><time>2026-04-25T10:58:17.999Z</time></trkpt><trkpt lat="45.971399670596945" lon="12.168759118092348"><ele>225.66666666666666</ele><time>2026-04-25T10:58:19.999Z</time></trkpt><trkpt lat="45.97140981831815" lon="12.168869197499262"><ele>225.83333333333331</ele><time>2026-04-25T10:58:21.999Z</time></trkpt><trkpt lat="45.97142330264841" lon="12.168981100147116"><ele>226.0</ele><time>2026-04-25T10:58:23.999Z</time></trkpt><trkpt lat="45.97143279360368" lon="12.169093370365454"><ele>225.99999999999997</ele><time>2026-04-25T10:58:25.999Z</time></trkpt><trkpt lat="45.971443936697156" lon="12.169211559566133"><ele>226.0</ele><time>2026-04-25T10:58:27.999Z</time></trkpt><trkpt lat="45.97144062651465" lon="12.169323122493088"><ele>226.0</ele><time>2026-04-25T10:58:29.999Z</time></trkpt><trkpt lat="45.971424291786576" lon="12.169440765837559"><ele>226.0</ele><time>2026-04-25T10:58:31.999Z</time></trkpt><trkpt lat="45.971394489265855" lon="12.169552694161501"><ele>225.99999999999997</ele><time>2026-04-25T10:58:33.999Z</time></trkpt><trkpt lat="45.97135016692542" lon="12.169651017315134"><ele>226.0</ele><time>2026-04-25T10:58:35.999Z</time></trkpt><trkpt lat="45.97130306636129" lon="12.16973512761502"><ele>226.0</ele><time>2026-04-25T10:58:37.999Z</time></trkpt><trkpt lat="45.9712576949902" lon="12.169811712313233"><ele>226.0</ele><time>2026-04-25T10:58:39.999Z</time></trkpt><trkpt lat="45.971219975926275" lon="12.16990126609431"><ele>226.0</ele><time>2026-04-25T10:58:41.999Z</time></trkpt><trkpt lat="45.97118868509914" lon="12.169990007846724"><ele>226.0</ele><time>2026-04-25T10:58:43.999Z</time></trkpt><trkpt lat="45.97115658208901" lon="12.170092626790929"><ele>226.0</ele><time>2026-04-25T10:58:45.999Z</time></trkpt><trkpt lat="45.971125339276576" lon="12.170193637112467"><ele>226.0</ele><time>2026-04-25T10:58:47.999Z</time></trkpt><trkpt lat="45.971087829501556" lon="12.170296652245721"><ele>226.0</ele><time>2026-04-25T10:58:49.999Z</time></trkpt><trkpt lat="45.971057557633046" lon="12.170400570912351"><ele>225.66666666666666</ele><time>2026-04-25T10:58:51.999Z</time></trkpt><trkpt lat="45.97102367302596" lon="12.170515525920353"><ele>225.33333333333331</ele><time>2026-04-25T10:58:53.999Z</time></trkpt><trkpt lat="45.97099255757812" lon="12.170630918775215"><ele>225.0</ele><time>2026-04-25T10:58:55.998Z</time></trkpt><trkpt lat="45.97097706077518" lon="12.170753568886711"><ele>224.66666666666669</ele><time>2026-04-25T10:58:57.998Z</time></trkpt><trkpt lat="45.97097145224001" lon="12.17087666545862"><ele>224.33333333333334</ele><time>2026-04-25T10:58:59.998Z</time></trkpt><trkpt lat="45.97097099626661" lon="12.170993965114983"><ele>224.0</ele><time>2026-04-25T10:59:01.998Z</time></trkpt><trkpt lat="45.970989100193584" lon="12.171111080112114"><ele>224.00000000000003</ele><time>2026-04-25T10:59:03.998Z</time></trkpt><trkpt lat="45.97100551676359" lon="12.171229805175768"><ele>224.0</ele><time>2026-04-25T10:59:05.998Z</time></trkpt><trkpt lat="45.971008354445786" lon="12.171351778344576"><ele>224.0</ele><time>2026-04-25T10:59:07.998Z</time></trkpt><trkpt lat="45.97103316236188" lon="12.171467960280069"><ele>224.0</ele><time>2026-04-25T10:59:09.998Z</time></trkpt><trkpt lat="45.971067608132365" lon="12.171589554623287"><ele>224.00000000000003</ele><time>2026-04-25T10:59:11.998Z</time></trkpt><trkpt lat="45.97110462703161" lon="12.171717519594356"><ele>224.0</ele><time>2026-04-25T10:59:13.998Z</time></trkpt><trkpt lat="45.97115325443063" lon="12.17183822663819"><ele>224.2</ele><time>2026-04-25T10:59:15.998Z</time></trkpt><trkpt lat="45.97118393139877" lon="12.17197108356992"><ele>224.39999999999998</ele><time>2026-04-25T10:59:17.998Z</time></trkpt><trkpt lat="45.97120748363771" lon="12.172107906423415"><ele>224.6</ele><time>2026-04-25T10:59:19.998Z</time></trkpt><trkpt lat="45.971211584255784" lon="12.172250511494775"><ele>224.8</ele><time>2026-04-25T10:59:21.998Z</time></trkpt><trkpt lat="45.971205813531476" lon="12.172386357386811"><ele>225.0</ele><time>2026-04-25T10:59:23.998Z</time></trkpt><trkpt lat="45.971180331083104" lon="12.172516289567337"><ele>225.6</ele><time>2026-04-25T10:59:25.998Z</time></trkpt><trkpt lat="45.971146739583034" lon="12.172649319122318"><ele>226.2</ele><time>2026-04-25T10:59:27.998Z</time></trkpt><trkpt lat="45.97111030789569" lon="12.172781111628534"><ele>226.8</ele><time>2026-04-25T10:59:30Z</time></trkpt><trkpt lat="45.9710782948871" lon="12.17291472225208"><ele>227.4</ele><time>2026-04-25T10:59:32Z</time></trkpt><trkpt lat="45.97104959330239" lon="12.17305606969136"><ele>228.0</ele><time>2026-04-25T10:59:34Z</time></trkpt><trkpt lat="45.9710377299429" lon="12.17320581415333"><ele>228.2</ele><time>2026-04-25T10:59:36Z</time></trkpt><trkpt lat="45.97103723879225" lon="12.173358884700946"><ele>228.4</ele><time>2026-04-25T10:59:38Z</time></trkpt><trkpt lat="45.97105206304249" lon="12.173510453238412"><ele>228.59999999999997</ele><time>2026-04-25T10:59:40Z</time></trkpt><trkpt lat="45.97107502015951" lon="12.17366260137771"><ele>228.79999999999998</ele><time>2026-04-25T10:59:42Z</time></trkpt><trkpt lat="45.9710936015948" lon="12.173811833208479"><ele>229.0</ele><time>2026-04-25T10:59:44Z</time></trkpt><trkpt lat="45.97111539302176" lon="12.173965680217743"><ele>228.79999999999998</ele><time>2026-04-25T10:59:46Z</time></trkpt><trkpt lat="45.9711369154559" lon="12.174124839331796"><ele>228.59999999999997</ele><time>2026-04-25T10:59:48Z</time></trkpt><trkpt lat="45.97113608334663" lon="12.174277296521717"><ele>228.4</ele><time>2026-04-25T10:59:50Z</time></trkpt><trkpt lat="45.97113809577912" lon="12.17442551955925"><ele>228.2</ele><time>2026-04-25T10:59:52Z</time></trkpt><trkpt lat="45.97110506659187" lon="12.174562276994704"><ele>228.0</ele><time>2026-04-25T10:59:54Z</time></trkpt><trkpt lat="45.97108363646772" lon="12.174701772989362"><ele>228.0</ele><time>2026-04-25T10:59:56Z</time></trkpt><trkpt lat="45.971063219761994" lon="12.174850211274627"><ele>228.0</ele><time>2026-04-25T10:59:58Z</time></trkpt><trkpt lat="45.971043844073264" lon="12.174994901258565"><ele>228.0</ele><time>2026-04-25T11:00:00Z</time></trkpt><trkpt lat="45.971037763065965" lon="12.175157925285385"><ele>228.0</ele><time>2026-04-25T11:00:02Z</time></trkpt><trkpt lat="45.9710173376811" lon="12.1753161851845"><ele>228.0</ele><time>2026-04-25T11:00:04Z</time></trkpt><trkpt lat="45.9709998001355" lon="12.175461340457305"><ele>228.16666666666666</ele><time>2026-04-25T11:00:06Z</time></trkpt><trkpt lat="45.9709895753133" lon="12.175605582005787"><ele>228.33333333333331</ele><time>2026-04-25T11:00:08Z</time></trkpt><trkpt lat="45.97098733698491" lon="12.175744075859367"><ele>228.5</ele><time>2026-04-25T11:00:10Z</time></trkpt><trkpt lat="45.970992504080755" lon="12.175854937453892"><ele>228.66666666666666</ele><time>2026-04-25T11:00:12Z</time></trkpt><trkpt lat="45.97100073470862" lon="12.175974974801548"><ele>228.83333333333331</ele><time>2026-04-25T11:00:14Z</time></trkpt><trkpt lat="45.97101891500145" lon="12.176081252884146"><ele>229.0</ele><time>2026-04-25T11:00:16Z</time></trkpt><trkpt lat="45.971019215998886" lon="12.17619672110933"><ele>228.99999999999997</ele><time>2026-04-25T11:00:17.999Z</time></trkpt><trkpt lat="45.970976939413866" lon="12.176341753227861"><ele>229.0</ele><time>2026-04-25T11:00:19.999Z</time></trkpt><trkpt lat="45.97098659718916" lon="12.176524678003519"><ele>229.0</ele><time>2026-04-25T11:00:21.999Z</time></trkpt><trkpt lat="45.97097047975079" lon="12.17662494451994"><ele>229.0</ele><time>2026-04-25T11:00:22.999Z</time></trkpt><trkpt lat="45.970968626293086" lon="12.176719217302692"><ele>228.99999999999997</ele><time>2026-04-25T11:00:23.999Z</time></trkpt><trkpt lat="45.970964213147575" lon="12.176812810876907"><ele>229.0</ele><time>2026-04-25T11:00:24.999Z</time></trkpt><trkpt lat="45.97095460538039" lon="12.176904817129381"><ele>229.0</ele><time>2026-04-25T11:00:25.998Z</time></trkpt><trkpt lat="45.97093887354455" lon="12.176996427438814"><ele>229.0</ele><time>2026-04-25T11:00:26.998Z</time></trkpt><trkpt lat="45.97091831796514" lon="12.17708458112637"><ele>229.0</ele><time>2026-04-25T11:00:27.998Z</time></trkpt><trkpt lat="45.9708949363285" lon="12.177172001799397"><ele>229.0</ele><time>2026-04-25T11:00:28.998Z</time></trkpt><trkpt lat="45.97087042177057" lon="12.177259553391313"><ele>229.0</ele><time>2026-04-25T11:00:29.998Z</time></trkpt><trkpt lat="45.97084229248142" lon="12.177343476113103"><ele>229.0</ele><time>2026-04-25T11:00:30.998Z</time></trkpt><trkpt lat="45.97081425355065" lon="12.177430105122145"><ele>229.0</ele><time>2026-04-25T11:00:31.998Z</time></trkpt><trkpt lat="45.970788883593876" lon="12.177524685139618"><ele>229.0</ele><time>2026-04-25T11:00:32.998Z</time></trkpt><trkpt lat="45.97076625160756" lon="12.17761714959418"><ele>229.0</ele><time>2026-04-25T11:00:33.998Z</time></trkpt><trkpt lat="45.97074842287128" lon="12.177710966752397"><ele>229.0</ele><time>2026-04-25T11:00:34.998Z</time></trkpt><trkpt lat="45.97073817860152" lon="12.177811617534182"><ele>229.0</ele><time>2026-04-25T11:00:35.998Z</time></trkpt><trkpt lat="45.97073332826404" lon="12.177910398048986"><ele>229.0</ele><time>2026-04-25T11:00:36.998Z</time></trkpt><trkpt lat="45.97073009279093" lon="12.178002371724643"><ele>229.0</ele><time>2026-04-25T11:00:37.998Z</time></trkpt><trkpt lat="45.97072594563959" lon="12.178098345476029"><ele>229.0</ele><time>2026-04-25T11:00:38.998Z</time></trkpt><trkpt lat="45.970720469568256" lon="12.178195319840716"><ele>228.99999999999997</ele><time>2026-04-25T11:00:39.998Z</time></trkpt><trkpt lat="45.970714248136744" lon="12.178288030813931"><ele>229.0</ele><time>2026-04-25T11:00:40.998Z</time></trkpt><trkpt lat="45.970705425986836" lon="12.178382668948752"><ele>229.0</ele><time>2026-04-25T11:00:41.998Z</time></trkpt><trkpt lat="45.970694724217516" lon="12.178472550730305"><ele>229.0</ele><time>2026-04-25T11:00:42.998Z</time></trkpt><trkpt lat="45.970672056565355" lon="12.178645061280664"><ele>228.99999999999997</ele><time>2026-04-25T11:00:44.998Z</time></trkpt><trkpt lat="45.97065529273375" lon="12.178814213473574"><ele>229.0</ele><time>2026-04-25T11:00:46.998Z</time></trkpt><trkpt lat="45.9706543730217" lon="12.178970910385843"><ele>228.99999999999997</ele><time>2026-04-25T11:00:48.998Z</time></trkpt><trkpt lat="45.97067064446289" lon="12.179104955893877"><ele>229.0</ele><time>2026-04-25T11:00:50.998Z</time></trkpt><trkpt lat="45.97067157556355" lon="12.179225486344272"><ele>229.0</ele><time>2026-04-25T11:00:52.998Z</time></trkpt><trkpt lat="45.97065299914811" lon="12.179328011962118"><ele>229.0</ele><time>2026-04-25T11:00:54.998Z</time></trkpt><trkpt lat="45.970629038510495" lon="12.179449262482986"><ele>228.99999999999997</ele><time>2026-04-25T11:00:56.998Z</time></trkpt><trkpt lat="45.97056548654376" lon="12.179549387307537"><ele>229.0</ele><time>2026-04-25T11:00:58.998Z</time></trkpt><trkpt lat="45.97052267010141" lon="12.179651466396328"><ele>229.0</ele><time>2026-04-25T11:01:00.998Z</time></trkpt><trkpt lat="45.97048543096671" lon="12.179743207351505"><ele>229.0</ele><time>2026-04-25T11:01:02.998Z</time></trkpt><trkpt lat="45.97027090886862" lon="12.179674822156297"><ele>229.0</ele><time>2026-04-25T11:01:04.998Z</time></trkpt><trkpt lat="45.97016269412208" lon="12.179709147071193"><ele>229.0</ele><time>2026-04-25T11:01:06.997Z</time></trkpt><trkpt lat="45.97005409675632" lon="12.179777172916953"><ele>229.0</ele><time>2026-04-25T11:01:08.997Z</time></trkpt><trkpt lat="45.969942978157576" lon="12.17983103554433"><ele>228.99999999999997</ele><time>2026-04-25T11:01:10.997Z</time></trkpt><trkpt lat="45.96983314837627" lon="12.179791590426225"><ele>228.99999999999997</ele><time>2026-04-25T11:01:12.997Z</time></trkpt><trkpt lat="45.969750542350724" lon="12.179872940925474"><ele>229.0</ele><time>2026-04-25T11:01:14.997Z</time></trkpt><trkpt lat="45.96972905570794" lon="12.180019576069176"><ele>229.0</ele><time>2026-04-25T11:01:16.997Z</time></trkpt><trkpt lat="45.96969059955689" lon="12.180155164222203"><ele>229.0</ele><time>2026-04-25T11:01:18.997Z</time></trkpt><trkpt lat="45.9696186228793" lon="12.180261893198097"><ele>228.99999999999997</ele><time>2026-04-25T11:01:20.997Z</time></trkpt><trkpt lat="45.96955533446348" lon="12.180370636437797"><ele>228.99999999999997</ele><time>2026-04-25T11:01:22.997Z</time></trkpt><trkpt lat="45.96952092284119" lon="12.180490992980626"><ele>229.0</ele><time>2026-04-25T11:01:24.997Z</time></trkpt><trkpt lat="45.96949710766024" lon="12.18061815878846"><ele>229.0</ele><time>2026-04-25T11:01:26.997Z</time></trkpt><trkpt lat="45.969470738033316" lon="12.18074443416923"><ele>228.39999999999998</ele><time>2026-04-25T11:01:28.997Z</time></trkpt><trkpt lat="45.969433051883" lon="12.180868949191984"><ele>227.79999999999998</ele><time>2026-04-25T11:01:30.997Z</time></trkpt><trkpt lat="45.96941174537124" lon="12.181009147098855"><ele>227.20000000000002</ele><time>2026-04-25T11:01:32.997Z</time></trkpt><trkpt lat="45.96939871387892" lon="12.18114385224238"><ele>226.60000000000002</ele><time>2026-04-25T11:01:34.999Z</time></trkpt><trkpt lat="45.96939461539135" lon="12.18128168224268"><ele>226.0</ele><time>2026-04-25T11:01:36.999Z</time></trkpt><trkpt lat="45.969389111680016" lon="12.181409960455621"><ele>225.66666666666666</ele><time>2026-04-25T11:01:38.999Z</time></trkpt><trkpt lat="45.96937729524492" lon="12.181556135121424"><ele>225.33333333333331</ele><time>2026-04-25T11:01:40.999Z</time></trkpt><trkpt lat="45.96935811609344" lon="12.181721628628914"><ele>225.0</ele><time>2026-04-25T11:01:42.999Z</time></trkpt><trkpt lat="45.969343890099026" lon="12.181811184706861"><ele>224.66666666666669</ele><time>2026-04-25T11:01:44Z</time></trkpt><trkpt lat="45.96933039079642" lon="12.181905753462628"><ele>224.33333333333334</ele><time>2026-04-25T11:01:45Z</time></trkpt><trkpt lat="45.96931232448711" lon="12.181992631141593"><ele>224.0</ele><time>2026-04-25T11:01:46Z</time></trkpt><trkpt lat="45.969296911485465" lon="12.182089647104277"><ele>224.0</ele><time>2026-04-25T11:01:47Z</time></trkpt><trkpt lat="45.96927806048041" lon="12.182182750768073"><ele>224.0</ele><time>2026-04-25T11:01:48Z</time></trkpt><trkpt lat="45.969262327149615" lon="12.182279809339391"><ele>224.0</ele><time>2026-04-25T11:01:49Z</time></trkpt><trkpt lat="45.969253888005426" lon="12.182373160998528"><ele>224.0</ele><time>2026-04-25T11:01:50Z</time></trkpt><trkpt lat="45.96923508518606" lon="12.18246257150879"><ele>224.0</ele><time>2026-04-25T11:01:51Z</time></trkpt><trkpt lat="45.96922840359147" lon="12.182559263802977"><ele>224.0</ele><time>2026-04-25T11:01:51.999Z</time></trkpt><trkpt lat="45.969219461513596" lon="12.182649166213004"><ele>224.0</ele><time>2026-04-25T11:01:52.999Z</time></trkpt><trkpt lat="45.9692081261296" lon="12.182828478155306"><ele>223.75</ele><time>2026-04-25T11:01:54.999Z</time></trkpt><trkpt lat="45.96920342070569" lon="12.183002658088576"><ele>223.5</ele><time>2026-04-25T11:01:56.999Z</time></trkpt><trkpt lat="45.96920567763435" lon="12.183173989148786"><ele>223.25</ele><time>2026-04-25T11:01:58.999Z</time></trkpt><trkpt lat="45.969209078680635" lon="12.183350441822945"><ele>223.0</ele><time>2026-04-25T11:02:00.999Z</time></trkpt><trkpt lat="45.969211115870664" lon="12.183513435435854"><ele>223.0</ele><time>2026-04-25T11:02:02.999Z</time></trkpt><trkpt lat="45.969218334808204" lon="12.183677433185778"><ele>223.0</ele><time>2026-04-25T11:02:04.999Z</time></trkpt><trkpt lat="45.969220289516805" lon="12.183841619775936"><ele>223.0</ele><time>2026-04-25T11:02:06.999Z</time></trkpt><trkpt lat="45.96924531966147" lon="12.184007155454402"><ele>223.0</ele><time>2026-04-25T11:02:08.999Z</time></trkpt><trkpt lat="45.969264389198074" lon="12.184152685030467"><ele>223.0</ele><time>2026-04-25T11:02:10.999Z</time></trkpt><trkpt lat="45.969255237973876" lon="12.184284642234022"><ele>222.8</ele><time>2026-04-25T11:02:12.999Z</time></trkpt><trkpt lat="45.96925588144315" lon="12.18441671834627"><ele>222.60000000000002</ele><time>2026-04-25T11:02:14.999Z</time></trkpt><trkpt lat="45.96925052035346" lon="12.184553144562631"><ele>222.39999999999998</ele><time>2026-04-25T11:02:16.999Z</time></trkpt><trkpt lat="45.96923915103805" lon="12.184692466377959"><ele>222.2</ele><time>2026-04-25T11:02:18.999Z</time></trkpt><trkpt lat="45.96923293864494" lon="12.184846658208697"><ele>222.0</ele><time>2026-04-25T11:02:20.999Z</time></trkpt><trkpt lat="45.969228485087" lon="12.184994341700365"><ele>221.83333333333334</ele><time>2026-04-25T11:02:22.999Z</time></trkpt><trkpt lat="45.96921490765279" lon="12.185142818335214"><ele>221.66666666666669</ele><time>2026-04-25T11:02:24.999Z</time></trkpt><trkpt lat="45.96921002201714" lon="12.185273881477954"><ele>221.5</ele><time>2026-04-25T11:02:26.999Z</time></trkpt><trkpt lat="45.96922167028771" lon="12.185395674800885"><ele>221.33333333333334</ele><time>2026-04-25T11:02:28.999Z</time></trkpt><trkpt lat="45.96923530927391" lon="12.185494111515188"><ele>221.16666666666669</ele><time>2026-04-25T11:02:30.999Z</time></trkpt><trkpt lat="45.96924822774035" lon="12.185591286249437"><ele>221.0</ele><time>2026-04-25T11:02:32.999Z</time></trkpt><trkpt lat="45.969247779756856" lon="12.185688573519323"><ele>221.50000000000003</ele><time>2026-04-25T11:02:34.999Z</time></trkpt><trkpt lat="45.969248732863385" lon="12.185797655181734"><ele>222.0</ele><time>2026-04-25T11:02:36.999Z</time></trkpt><trkpt lat="45.96924481125055" lon="12.185925932670774"><ele>222.5</ele><time>2026-04-25T11:02:39.999Z</time></trkpt><trkpt lat="45.969230019948576" lon="12.18601978973428"><ele>223.0</ele><time>2026-04-25T11:02:41.999Z</time></trkpt><trkpt lat="45.969205851198595" lon="12.186135831153448"><ele>223.50000000000003</ele><time>2026-04-25T11:02:44.998Z</time></trkpt><trkpt lat="45.96918983818547" lon="12.186228841153923"><ele>224.0</ele><time>2026-04-25T11:02:46.998Z</time></trkpt><trkpt lat="45.96918061717187" lon="12.186348403591834"><ele>224.0</ele><time>2026-04-25T11:02:48.998Z</time></trkpt><trkpt lat="45.96917947891537" lon="12.18646959325414"><ele>223.99999999999997</ele><time>2026-04-25T11:02:50.998Z</time></trkpt><trkpt lat="45.96918739665228" lon="12.18659537692179"><ele>223.99999999999997</ele><time>2026-04-25T11:02:52.998Z</time></trkpt><trkpt lat="45.969206632335265" lon="12.1867408733088"><ele>224.0</ele><time>2026-04-25T11:02:54.998Z</time></trkpt><trkpt lat="45.96922962855744" lon="12.186868350823966"><ele>224.0</ele><time>2026-04-25T11:02:56.998Z</time></trkpt><trkpt lat="45.9692507409826" lon="12.186998237450366"><ele>224.0</ele><time>2026-04-25T11:02:58.998Z</time></trkpt><trkpt lat="45.96926524747807" lon="12.187133966043353"><ele>223.99999999999997</ele><time>2026-04-25T11:03:00.998Z</time></trkpt><trkpt lat="45.969289440138894" lon="12.187275406503057"><ele>223.99999999999997</ele><time>2026-04-25T11:03:02.998Z</time></trkpt><trkpt lat="45.96928780639719" lon="12.187430610409756"><ele>224.0</ele><time>2026-04-25T11:03:04.998Z</time></trkpt><trkpt lat="45.96932313665462" lon="12.187601031183904"><ele>224.0</ele><time>2026-04-25T11:03:06.998Z</time></trkpt><trkpt lat="45.96935001633061" lon="12.187688518542611"><ele>224.00000000000003</ele><time>2026-04-25T11:03:07.998Z</time></trkpt><trkpt lat="45.969379986946095" lon="12.18777795584773"><ele>224.0</ele><time>2026-04-25T11:03:08.998Z</time></trkpt><trkpt lat="45.96940780531277" lon="12.187875869426566"><ele>224.0</ele><time>2026-04-25T11:03:09.998Z</time></trkpt><trkpt lat="45.96943722321448" lon="12.18796795826256"><ele>224.0</ele><time>2026-04-25T11:03:10.998Z</time></trkpt><trkpt lat="45.96947972357144" lon="12.188065185107305"><ele>224.00000000000003</ele><time>2026-04-25T11:03:11.998Z</time></trkpt><trkpt lat="45.96949466550812" lon="12.18823449073439"><ele>224.0</ele><time>2026-04-25T11:03:13.998Z</time></trkpt><trkpt lat="45.969492729501546" lon="12.18838229799038"><ele>224.0</ele><time>2026-04-25T11:03:15.998Z</time></trkpt><trkpt lat="45.96948539046646" lon="12.188516246448797"><ele>223.99999999999997</ele><time>2026-04-25T11:03:17.998Z</time></trkpt><trkpt lat="45.96947083776033" lon="12.188660444284707"><ele>223.99999999999997</ele><time>2026-04-25T11:03:20.998Z</time></trkpt><trkpt lat="45.96949395120104" lon="12.188801256339417"><ele>224.0</ele><time>2026-04-25T11:03:23.998Z</time></trkpt><trkpt lat="45.96951782167522" lon="12.188926654176282"><ele>224.0</ele><time>2026-04-25T11:03:25.998Z</time></trkpt><trkpt lat="45.96958192039575" lon="12.189040911577706"><ele>225.39999999999998</ele><time>2026-04-25T11:03:27.998Z</time></trkpt><trkpt lat="45.96965043448854" lon="12.189126933351604"><ele>226.79999999999998</ele><time>2026-04-25T11:03:29.998Z</time></trkpt><trkpt lat="45.96971805337812" lon="12.189246938153754"><ele>228.20000000000002</ele><time>2026-04-25T11:03:31.998Z</time></trkpt><trkpt lat="45.969739837706655" lon="12.189418224359375"><ele>229.60000000000002</ele><time>2026-04-25T11:03:33.997Z</time></trkpt><trkpt lat="45.969695922596486" lon="12.189536012526169"><ele>231.0</ele><time>2026-04-25T11:03:35.997Z</time></trkpt><trkpt lat="45.96965237144694" lon="12.189618535436543"><ele>231.0</ele><time>2026-04-25T11:03:38.997Z</time></trkpt><trkpt lat="45.96961610353654" lon="12.189745667617588"><ele>231.0</ele><time>2026-04-25T11:03:42Z</time></trkpt><trkpt lat="45.969609451293636" lon="12.189852637319419"><ele>231.0</ele><time>2026-04-25T11:03:44Z</time></trkpt><trkpt lat="45.96960017012632" lon="12.18996366122397"><ele>231.0</ele><time>2026-04-25T11:03:46Z</time></trkpt><trkpt lat="45.96959592936142" lon="12.190077472220702"><ele>231.0</ele><time>2026-04-25T11:03:48Z</time></trkpt><trkpt lat="45.96959125257197" lon="12.190187883988237"><ele>231.0</ele><time>2026-04-25T11:03:50Z</time></trkpt><trkpt lat="45.969577931348475" lon="12.1903006251232"><ele>231.16666666666666</ele><time>2026-04-25T11:03:52Z</time></trkpt><trkpt lat="45.96955130082314" lon="12.190428839448927"><ele>231.33333333333331</ele><time>2026-04-25T11:03:54Z</time></trkpt><trkpt lat="45.96952460559252" lon="12.190563243992985"><ele>231.5</ele><time>2026-04-25T11:03:56Z</time></trkpt><trkpt lat="45.96950049995435" lon="12.190697306310444"><ele>231.66666666666666</ele><time>2026-04-25T11:03:58Z</time></trkpt><trkpt lat="45.96947875144786" lon="12.190824115395973"><ele>231.83333333333331</ele><time>2026-04-25T11:04:00Z</time></trkpt><trkpt lat="45.969455134102425" lon="12.190913724132473"><ele>232.0</ele><time>2026-04-25T11:04:02Z</time></trkpt><trkpt lat="45.969437956821636" lon="12.191020709761087"><ele>232.33333333333331</ele><time>2026-04-25T11:04:05Z</time></trkpt><trkpt lat="45.96943008366627" lon="12.191141375598022"><ele>232.66666666666666</ele><time>2026-04-25T11:04:08Z</time></trkpt><trkpt lat="45.96943079988347" lon="12.191293739752707"><ele>233.0</ele><time>2026-04-25T11:04:11Z</time></trkpt><trkpt lat="45.96944039709299" lon="12.191403141586308"><ele>233.33333333333331</ele><time>2026-04-25T11:04:13Z</time></trkpt><trkpt lat="45.96944170875767" lon="12.191503547735222"><ele>233.66666666666666</ele><time>2026-04-25T11:04:15Z</time></trkpt><trkpt lat="45.96944738697041" lon="12.191609158221189"><ele>234.0</ele><time>2026-04-25T11:04:17Z</time></trkpt><trkpt lat="45.9694699945142" lon="12.191700229898892"><ele>234.2</ele><time>2026-04-25T11:04:19Z</time></trkpt><trkpt lat="45.969487279388844" lon="12.191820118021951"><ele>234.39999999999998</ele><time>2026-04-25T11:04:20.999Z</time></trkpt><trkpt lat="45.96951149744857" lon="12.19194644748251"><ele>234.6</ele><time>2026-04-25T11:04:22.999Z</time></trkpt><trkpt lat="45.96952521240519" lon="12.192088731982091"><ele>234.8</ele><time>2026-04-25T11:04:24.999Z</time></trkpt><trkpt lat="45.96951658329852" lon="12.192232584386948"><ele>235.0</ele><time>2026-04-25T11:04:26.999Z</time></trkpt><trkpt lat="45.969508734571235" lon="12.192383230071991"><ele>235.33333333333331</ele><time>2026-04-25T11:04:28.999Z</time></trkpt><trkpt lat="45.9695192818627" lon="12.192529625832169"><ele>235.66666666666666</ele><time>2026-04-25T11:04:30.999Z</time></trkpt><trkpt lat="45.969517590513796" lon="12.192657420722584"><ele>236.0</ele><time>2026-04-25T11:04:32.999Z</time></trkpt><trkpt lat="45.96951797582938" lon="12.192764836632518"><ele>236.33333333333331</ele><time>2026-04-25T11:04:34.999Z</time></trkpt><trkpt lat="45.969524755125306" lon="12.192858066260875"><ele>236.66666666666666</ele><time>2026-04-25T11:04:36.999Z</time></trkpt><trkpt lat="45.96954713227942" lon="12.192964066082261"><ele>237.0</ele><time>2026-04-25T11:04:39.999Z</time></trkpt><trkpt lat="45.96958075424392" lon="12.19309377418134"><ele>237.5</ele><time>2026-04-25T11:04:42.999Z</time></trkpt><trkpt lat="45.96962497919304" lon="12.193211141400011"><ele>238.0</ele><time>2026-04-25T11:04:45.999Z</time></trkpt><trkpt lat="45.9696618998218" lon="12.193314392637106"><ele>238.5</ele><time>2026-04-25T11:04:48.999Z</time></trkpt><trkpt lat="45.969706727395504" lon="12.193388912439895"><ele>239.0</ele><time>2026-04-25T11:04:51.999Z</time></trkpt><trkpt lat="45.96974707720963" lon="12.193478395315713"><ele>239.5</ele><time>2026-04-25T11:04:55.999Z</time></trkpt><trkpt lat="45.969773479758224" lon="12.19359160922255"><ele>240.0</ele><time>2026-04-25T11:04:59.999Z</time></trkpt><trkpt lat="45.96980570512999" lon="12.193681906963558"><ele>240.0</ele><time>2026-04-25T11:05:02.999Z</time></trkpt><trkpt lat="45.96983300405971" lon="12.193772954709294"><ele>240.0</ele><time>2026-04-25T11:05:05.999Z</time></trkpt><trkpt lat="45.969862621443646" lon="12.193878661559513"><ele>240.0</ele><time>2026-04-25T11:05:08.998Z</time></trkpt><trkpt lat="45.96988514105536" lon="12.193983563857067"><ele>240.0</ele><time>2026-04-25T11:05:11.998Z</time></trkpt><trkpt lat="45.96989937262201" lon="12.194088622415707"><ele>240.0</ele><time>2026-04-25T11:05:14.998Z</time></trkpt><trkpt lat="45.969922582080656" lon="12.194187241159053"><ele>240.0</ele><time>2026-04-25T11:05:17.998Z</time></trkpt><trkpt lat="45.96996914318018" lon="12.19428143496208"><ele>240.14285714285717</ele><time>2026-04-25T11:05:20.998Z</time></trkpt><trkpt lat="45.97001722823905" lon="12.19436914768318"><ele>240.28571428571428</ele><time>2026-04-25T11:05:23.998Z</time></trkpt><trkpt lat="45.9700614944185" lon="12.194450941010075"><ele>240.42857142857144</ele><time>2026-04-25T11:05:26.998Z</time></trkpt><trkpt lat="45.970099957151646" lon="12.194536896834526"><ele>240.57142857142858</ele><time>2026-04-25T11:05:29.998Z</time></trkpt><trkpt lat="45.970133912203146" lon="12.194626466554274"><ele>240.71428571428572</ele><time>2026-04-25T11:05:32.998Z</time></trkpt><trkpt lat="45.970173890720496" lon="12.194727759558667"><ele>240.85714285714286</ele><time>2026-04-25T11:05:36.998Z</time></trkpt><trkpt lat="45.97020217106861" lon="12.194828973399984"><ele>241.0</ele><time>2026-04-25T11:05:40.998Z</time></trkpt><trkpt lat="45.970229676179315" lon="12.194926595504004"><ele>240.99999999999997</ele><time>2026-04-25T11:05:44.998Z</time></trkpt><trkpt lat="45.97025424397837" lon="12.195037124573856"><ele>241.0</ele><time>2026-04-25T11:05:49Z</time></trkpt><trkpt lat="45.97026803988063" lon="12.195159397207446"><ele>241.0</ele><time>2026-04-25T11:05:53Z</time></trkpt><trkpt lat="45.97027954024785" lon="12.195282153890608"><ele>241.0</ele><time>2026-04-25T11:05:56Z</time></trkpt><trkpt lat="45.97028436459154" lon="12.195380019592754"><ele>240.99999999999997</ele><time>2026-04-25T11:05:58Z</time></trkpt><trkpt lat="45.97028486592328" lon="12.195483193624042"><ele>241.0</ele><time>2026-04-25T11:06:00Z</time></trkpt><trkpt lat="45.970284147790245" lon="12.195587522180277"><ele>241.66666666666666</ele><time>2026-04-25T11:06:02Z</time></trkpt><trkpt lat="45.97028379394015" lon="12.19570406958282"><ele>242.33333333333331</ele><time>2026-04-25T11:06:04Z</time></trkpt><trkpt lat="45.97028331081392" lon="12.195834149191422"><ele>243.0</ele><time>2026-04-25T11:06:06Z</time></trkpt><trkpt lat="45.97025907253644" lon="12.195958398854778"><ele>243.66666666666669</ele><time>2026-04-25T11:06:08Z</time></trkpt><trkpt lat="45.97021866142138" lon="12.196041815302829"><ele>244.33333333333334</ele><time>2026-04-25T11:06:10Z</time></trkpt><trkpt lat="45.97016974857474" lon="12.196134827445183"><ele>245.0</ele><time>2026-04-25T11:06:14Z</time></trkpt><trkpt lat="45.97012511203706" lon="12.196227971149325"><ele>245.00000000000003</ele><time>2026-04-25T11:06:18Z</time></trkpt><trkpt lat="45.97007759295622" lon="12.196323463948824"><ele>245.0</ele><time>2026-04-25T11:06:22Z</time></trkpt><trkpt lat="45.97004641696371" lon="12.196423927702355"><ele>245.0</ele><time>2026-04-25T11:06:26Z</time></trkpt><trkpt lat="45.97002748830194" lon="12.196538570308082"><ele>245.0</ele><time>2026-04-25T11:06:30Z</time></trkpt><trkpt lat="45.97003276153624" lon="12.19662932894638"><ele>245.00000000000003</ele><time>2026-04-25T11:06:33Z</time></trkpt><trkpt lat="45.970059562352674" lon="12.196733885831826"><ele>245.0</ele><time>2026-04-25T11:06:37Z</time></trkpt><trkpt lat="45.970085385964666" lon="12.196840054626163"><ele>245.85714285714286</ele><time>2026-04-25T11:06:40.999Z</time></trkpt><trkpt lat="45.97011526936721" lon="12.196946052985789"><ele>246.71428571428572</ele><time>2026-04-25T11:06:44.999Z</time></trkpt><trkpt lat="45.97014187732611" lon="12.197029995334406"><ele>247.57142857142856</ele><time>2026-04-25T11:06:47.999Z</time></trkpt><trkpt lat="45.970176173007005" lon="12.19713149386868"><ele>248.42857142857142</ele><time>2026-04-25T11:06:50.999Z</time></trkpt><trkpt lat="45.970195690215256" lon="12.197220682371656"><ele>249.28571428571428</ele><time>2026-04-25T11:06:52.999Z</time></trkpt><trkpt lat="45.97022990707822" lon="12.197309822056946"><ele>250.1428571428571</ele><time>2026-04-25T11:06:54.999Z</time></trkpt><trkpt lat="45.970259318072124" lon="12.197416969851599"><ele>250.99999999999997</ele><time>2026-04-25T11:06:56.999Z</time></trkpt><trkpt lat="45.97029311698093" lon="12.197516404281826"><ele>251.83333333333334</ele><time>2026-04-25T11:06:58.999Z</time></trkpt><trkpt lat="45.97032807889797" lon="12.197604350558802"><ele>252.66666666666669</ele><time>2026-04-25T11:07:00.999Z</time></trkpt><trkpt lat="45.9703667259004" lon="12.197700206277368"><ele>253.5</ele><time>2026-04-25T11:07:02.999Z</time></trkpt><trkpt lat="45.97043258067988" lon="12.197778272223017"><ele>254.33333333333331</ele><time>2026-04-25T11:07:04.999Z</time></trkpt><trkpt lat="45.97050518755601" lon="12.19781882818476"><ele>255.16666666666666</ele><time>2026-04-25T11:07:06.999Z</time></trkpt><trkpt lat="45.97058475679529" lon="12.197882729910095"><ele>256.0</ele><time>2026-04-25T11:07:08.999Z</time></trkpt><trkpt lat="45.97067826395358" lon="12.197960082154546"><ele>256.0</ele><time>2026-04-25T11:07:10.999Z</time></trkpt><trkpt lat="45.97078653806861" lon="12.198035634454895"><ele>256.0</ele><time>2026-04-25T11:07:12.999Z</time></trkpt><trkpt lat="45.970863134004546" lon="12.198178589309434"><ele>256.0</ele><time>2026-04-25T11:07:14.999Z</time></trkpt><trkpt lat="45.97091881527543" lon="12.198320162620131"><ele>256.0</ele><time>2026-04-25T11:07:16.999Z</time></trkpt><trkpt lat="45.97098133293586" lon="12.198437459665344"><ele>253.8</ele><time>2026-04-25T11:07:18.999Z</time></trkpt><trkpt lat="45.971028698500064" lon="12.19853501232911"><ele>251.60000000000002</ele><time>2026-04-25T11:07:20.999Z</time></trkpt><trkpt lat="45.971091296649895" lon="12.198626866958282"><ele>249.4</ele><time>2026-04-25T11:07:22.999Z</time></trkpt><trkpt lat="45.97118111677073" lon="12.198684129621252"><ele>247.2</ele><time>2026-04-25T11:07:24.999Z</time></trkpt><trkpt lat="45.971292671676245" lon="12.198696967909681"><ele>245.0</ele><time>2026-04-25T11:07:26.998Z</time></trkpt><trkpt lat="45.97136247474079" lon="12.198792675127207"><ele>245.0</ele><time>2026-04-25T11:07:28.998Z</time></trkpt><trkpt lat="45.97141684802825" lon="12.198876008186433"><ele>245.0</ele><time>2026-04-25T11:07:30.998Z</time></trkpt><trkpt lat="45.971470771658794" lon="12.198951102861809"><ele>245.0</ele><time>2026-04-25T11:07:32.998Z</time></trkpt><trkpt lat="45.9715236527008" lon="12.199019651378597"><ele>245.0</ele><time>2026-04-25T11:07:34.998Z</time></trkpt><trkpt lat="45.97166696507512" lon="12.199014560254342"><ele>245.0</ele><time>2026-04-25T11:07:36.998Z</time></trkpt><trkpt lat="45.97170735634555" lon="12.199115441325395"><ele>242.0</ele><time>2026-04-25T11:07:39.998Z</time></trkpt><trkpt lat="45.9717482852103" lon="12.199195928952848"><ele>239.0</ele><time>2026-04-25T11:07:47.998Z</time></trkpt><trkpt lat="45.971799460902716" lon="12.199287974849232"><ele>236.0</ele><time>2026-04-25T11:07:50.998Z</time></trkpt><trkpt lat="45.97187043012396" lon="12.199327120138813"><ele>233.0</ele><time>2026-04-25T11:07:55.001Z</time></trkpt><trkpt lat="45.97199677142767" lon="12.19952075798643"><ele>230.0</ele><time>2026-04-25T11:07:58.001Z</time></trkpt><trkpt lat="45.972031007614795" lon="12.19964232926186"><ele>230.0</ele><time>2026-04-25T11:08:01.001Z</time></trkpt><trkpt lat="45.972058220868085" lon="12.199741983433983"><ele>230.0</ele><time>2026-04-25T11:08:04.001Z</time></trkpt><trkpt lat="45.97190379358185" lon="12.19985578446588"><ele>230.0</ele><time>2026-04-25T11:08:06.001Z</time></trkpt><trkpt lat="45.971937828939296" lon="12.199945506415396"><ele>230.0</ele><time>2026-04-25T11:08:12.001Z</time></trkpt><trkpt lat="45.9719823285295" lon="12.20001636709865"><ele>230.0</ele><time>2026-04-25T11:08:19.999Z</time></trkpt><trkpt lat="45.972018656056534" lon="12.20011870260818"><ele>230.28571428571425</ele><time>2026-04-25T11:08:24.999Z</time></trkpt><trkpt lat="45.97205255190567" lon="12.200202550510236"><ele>230.57142857142856</ele><time>2026-04-25T11:08:28.999Z</time></trkpt><trkpt lat="45.97209286495822" lon="12.200299578354857"><ele>230.85714285714286</ele><time>2026-04-25T11:08:32.999Z</time></trkpt><trkpt lat="45.972135412034916" lon="12.200413990022792"><ele>231.14285714285714</ele><time>2026-04-25T11:08:35.999Z</time></trkpt><trkpt lat="45.97215421898536" lon="12.200525635926056"><ele>231.42857142857144</ele><time>2026-04-25T11:08:38.999Z</time></trkpt><trkpt lat="45.972164631132145" lon="12.20061840460377"><ele>231.71428571428575</ele><time>2026-04-25T11:08:40.999Z</time></trkpt><trkpt lat="45.972205748217256" lon="12.200694706139261"><ele>232.00000000000003</ele><time>2026-04-25T11:08:49.999Z</time></trkpt><trkpt lat="45.97224738684359" lon="12.200775371343783"><ele>232.16666666666666</ele><time>2026-04-25T11:08:57.998Z</time></trkpt><trkpt lat="45.97227067756149" lon="12.200918550548739"><ele>232.33333333333331</ele><time>2026-04-25T11:09:14.998Z</time></trkpt><trkpt lat="45.9722995703718" lon="12.201008215965768"><ele>232.5</ele><time>2026-04-25T11:09:28.998Z</time></trkpt><trkpt lat="45.97237668864229" lon="12.201036332065826"><ele>232.66666666666669</ele><time>2026-04-25T11:09:50.997Z</time></trkpt><trkpt lat="45.97243713620041" lon="12.201115201014344"><ele>232.83333333333334</ele><time>2026-04-25T11:09:59Z</time></trkpt><trkpt lat="45.9725122369711" lon="12.201141762936615"><ele>233.0</ele><time>2026-04-25T11:10:02Z</time></trkpt><trkpt lat="45.97258812467828" lon="12.201094784772371"><ele>231.60000000000002</ele><time>2026-04-25T11:10:04Z</time></trkpt><trkpt lat="45.97268766959339" lon="12.201046160441104"><ele>230.20000000000002</ele><time>2026-04-25T11:10:06Z</time></trkpt><trkpt lat="45.97280326649912" lon="12.200998373211384"><ele>228.8</ele><time>2026-04-25T11:10:08Z</time></trkpt><trkpt lat="45.97292718478969" lon="12.200944260983508"><ele>227.4</ele><time>2026-04-25T11:10:10Z</time></trkpt><trkpt lat="45.97299227716784" lon="12.200916176780266"><ele>226.0</ele><time>2026-04-25T11:10:11Z</time></trkpt><trkpt lat="45.973063274545126" lon="12.200889110406349"><ele>226.0</ele><time>2026-04-25T11:10:12Z</time></trkpt><trkpt lat="45.973131464556204" lon="12.200860207789308"><ele>226.0</ele><time>2026-04-25T11:10:13Z</time></trkpt><trkpt lat="45.9732039606234" lon="12.200830760944562"><ele>226.0</ele><time>2026-04-25T11:10:14Z</time></trkpt><trkpt lat="45.9732723909148" lon="12.20080102498764"><ele>226.0</ele><time>2026-04-25T11:10:15Z</time></trkpt><trkpt lat="45.97334281656984" lon="12.200769031641435"><ele>226.0</ele><time>2026-04-25T11:10:16Z</time></trkpt><trkpt lat="45.97341309881448" lon="12.200740026360485"><ele>226.0</ele><time>2026-04-25T11:10:17Z</time></trkpt><trkpt lat="45.973482258987694" lon="12.200713032808855"><ele>226.0</ele><time>2026-04-25T11:10:18Z</time></trkpt><trkpt lat="45.97355325085013" lon="12.200687651962351"><ele>225.42857142857144</ele><time>2026-04-25T11:10:19Z</time></trkpt><trkpt lat="45.97362251321659" lon="12.200656994739973"><ele>224.85714285714283</ele><time>2026-04-25T11:10:20Z</time></trkpt><trkpt lat="45.9736897701722" lon="12.200628863803928"><ele>224.28571428571428</ele><time>2026-04-25T11:10:21Z</time></trkpt><trkpt lat="45.97375491961331" lon="12.200598769087337"><ele>223.71428571428572</ele><time>2026-04-25T11:10:22Z</time></trkpt><trkpt lat="45.97381436346332" lon="12.200567675212714"><ele>223.14285714285717</ele><time>2026-04-25T11:10:23Z</time></trkpt><trkpt lat="45.973878532130115" lon="12.200538432731081"><ele>222.57142857142856</ele><time>2026-04-25T11:10:24Z</time></trkpt><trkpt lat="45.9739437846308" lon="12.200509474359729"><ele>222.0</ele><time>2026-04-25T11:10:25Z</time></trkpt><trkpt lat="45.97405958478705" lon="12.200453578111077"><ele>222.0</ele><time>2026-04-25T11:10:27Z</time></trkpt><trkpt lat="45.97417439582052" lon="12.200379097267293"><ele>222.0</ele><time>2026-04-25T11:10:29Z</time></trkpt><trkpt lat="45.97429290074637" lon="12.200312352356464"><ele>222.0</ele><time>2026-04-25T11:10:31Z</time></trkpt><trkpt lat="45.974412362741354" lon="12.200286009939687"><ele>222.0</ele><time>2026-04-25T11:10:32.999Z</time></trkpt><trkpt lat="45.97452938102583" lon="12.200239843031508"><ele>222.14285714285714</ele><time>2026-04-25T11:10:34.999Z</time></trkpt><trkpt lat="45.97459180560746" lon="12.200206682650082"><ele>222.2857142857143</ele><time>2026-04-25T11:10:35.999Z</time></trkpt><trkpt lat="45.97465147698867" lon="12.200176588614982"><ele>222.42857142857144</ele><time>2026-04-25T11:10:36.999Z</time></trkpt><trkpt lat="45.97471415727586" lon="12.200149211332553"><ele>222.57142857142856</ele><time>2026-04-25T11:10:37.999Z</time></trkpt><trkpt lat="45.97477285659139" lon="12.200115085715279"><ele>222.71428571428572</ele><time>2026-04-25T11:10:38.999Z</time></trkpt><trkpt lat="45.97483535287234" lon="12.200074680407576"><ele>222.85714285714286</ele><time>2026-04-25T11:10:39.999Z</time></trkpt><trkpt lat="45.97489474757133" lon="12.200029432306017"><ele>223.0</ele><time>2026-04-25T11:10:40.999Z</time></trkpt><trkpt lat="45.9749594727054" lon="12.19999363200824"><ele>222.99999999999997</ele><time>2026-04-25T11:10:41.999Z</time></trkpt><trkpt lat="45.9750239535237" lon="12.19996702195001"><ele>223.0</ele><time>2026-04-25T11:10:42.999Z</time></trkpt><trkpt lat="45.9750882523025" lon="12.199936199744464"><ele>223.0</ele><time>2026-04-25T11:10:43.999Z</time></trkpt><trkpt lat="45.97515099170878" lon="12.199904550491816"><ele>223.0</ele><time>2026-04-25T11:10:44.999Z</time></trkpt><trkpt lat="45.97521233347488" lon="12.199880725591756"><ele>222.99999999999997</ele><time>2026-04-25T11:10:45.999Z</time></trkpt><trkpt lat="45.97527480767629" lon="12.199850265965232"><ele>223.0</ele><time>2026-04-25T11:10:46.999Z</time></trkpt><trkpt lat="45.97538834044309" lon="12.199794726469975"><ele>223.0</ele><time>2026-04-25T11:10:48.999Z</time></trkpt><trkpt lat="45.9755029127132" lon="12.199736182328408"><ele>223.0</ele><time>2026-04-25T11:10:50.999Z</time></trkpt><trkpt lat="45.97560881687209" lon="12.199686487256917"><ele>223.0</ele><time>2026-04-25T11:10:52.999Z</time></trkpt><trkpt lat="45.97571820581396" lon="12.199625255348463"><ele>223.0</ele><time>2026-04-25T11:10:54.999Z</time></trkpt><trkpt lat="45.97581753651408" lon="12.199578001889227"><ele>223.4</ele><time>2026-04-25T11:10:56.999Z</time></trkpt><trkpt lat="45.97591618689999" lon="12.199531965820857"><ele>223.8</ele><time>2026-04-25T11:10:58.999Z</time></trkpt><trkpt lat="45.976015886101756" lon="12.199482341261689"><ele>224.2</ele><time>2026-04-25T11:11:00.999Z</time></trkpt><trkpt lat="45.976113559666906" lon="12.199459930690805"><ele>224.6</ele><time>2026-04-25T11:11:02.999Z</time></trkpt><trkpt lat="45.976190855856906" lon="12.199537187240356"><ele>225.0</ele><time>2026-04-25T11:11:04.999Z</time></trkpt><trkpt lat="45.976227963370846" lon="12.199669203143738"><ele>225.0</ele><time>2026-04-25T11:11:06.999Z</time></trkpt><trkpt lat="45.97626762316673" lon="12.199805603552498"><ele>225.0</ele><time>2026-04-25T11:11:08.999Z</time></trkpt><trkpt lat="45.97630817285109" lon="12.19994956322305"><ele>225.0</ele><time>2026-04-25T11:11:10.999Z</time></trkpt><trkpt lat="45.976331237176964" lon="12.200106262249399"><ele>225.0</ele><time>2026-04-25T11:11:12.999Z</time></trkpt><trkpt lat="45.976372422263125" lon="12.200250159146899"><ele>225.0</ele><time>2026-04-25T11:11:14.999Z</time></trkpt><trkpt lat="45.97641645754432" lon="12.200393945593985"><ele>224.8</ele><time>2026-04-25T11:11:16.998Z</time></trkpt><trkpt lat="45.976462008645456" lon="12.200546196460845"><ele>224.6</ele><time>2026-04-25T11:11:18.998Z</time></trkpt><trkpt lat="45.97651003008084" lon="12.200701952089407"><ele>224.39999999999998</ele><time>2026-04-25T11:11:20.998Z</time></trkpt><trkpt lat="45.976555408487414" lon="12.200840277292743"><ele>224.2</ele><time>2026-04-25T11:11:22.998Z</time></trkpt><trkpt lat="45.97658228488496" lon="12.200974398460922"><ele>224.0</ele><time>2026-04-25T11:11:24.998Z</time></trkpt><trkpt lat="45.97661831233615" lon="12.201103657869155"><ele>224.0</ele><time>2026-04-25T11:11:26.998Z</time></trkpt><trkpt lat="45.976662000292016" lon="12.201242843844403"><ele>223.99999999999997</ele><time>2026-04-25T11:11:28.998Z</time></trkpt><trkpt lat="45.976695307039165" lon="12.201385637158342"><ele>223.99999999999997</ele><time>2026-04-25T11:11:30.998Z</time></trkpt><trkpt lat="45.97674095472698" lon="12.201545625657154"><ele>224.0</ele><time>2026-04-25T11:11:32.998Z</time></trkpt><trkpt lat="45.97677806925538" lon="12.201699154754884"><ele>224.0</ele><time>2026-04-25T11:11:34.998Z</time></trkpt><trkpt lat="45.97682743209244" lon="12.201858163595814"><ele>224.0</ele><time>2026-04-25T11:11:36.998Z</time></trkpt><trkpt lat="45.97687586381017" lon="12.20201192574708"><ele>224.0</ele><time>2026-04-25T11:11:38.998Z</time></trkpt><trkpt lat="45.976920621548146" lon="12.202171684206558"><ele>224.0</ele><time>2026-04-25T11:11:40.998Z</time></trkpt><trkpt lat="45.97696292426445" lon="12.202333605723071"><ele>224.0</ele><time>2026-04-25T11:11:42.998Z</time></trkpt><trkpt lat="45.97700747495993" lon="12.202499210767447"><ele>223.25</ele><time>2026-04-25T11:11:44.998Z</time></trkpt><trkpt lat="45.977049212574485" lon="12.202660359168378"><ele>222.5</ele><time>2026-04-25T11:11:46.998Z</time></trkpt><trkpt lat="45.97710248092952" lon="12.202817674258876"><ele>221.75</ele><time>2026-04-25T11:11:48.998Z</time></trkpt><trkpt lat="45.97715028762491" lon="12.202973623828951"><ele>221.0</ele><time>2026-04-25T11:11:50.998Z</time></trkpt><trkpt lat="45.97719890949067" lon="12.203126618007905"><ele>221.25</ele><time>2026-04-25T11:11:52.998Z</time></trkpt><trkpt lat="45.97724398377155" lon="12.203283897960056"><ele>221.5</ele><time>2026-04-25T11:11:54.998Z</time></trkpt><trkpt lat="45.97729364157313" lon="12.203441011499233"><ele>221.75</ele><time>2026-04-25T11:11:56.998Z</time></trkpt><trkpt lat="45.97733051560393" lon="12.203613863679697"><ele>222.0</ele><time>2026-04-25T11:11:58.998Z</time></trkpt><trkpt lat="45.977365027593514" lon="12.20378119382874"><ele>222.0</ele><time>2026-04-25T11:12:00.997Z</time></trkpt><trkpt lat="45.977421661992274" lon="12.203934243750291"><ele>222.0</ele><time>2026-04-25T11:12:02.997Z</time></trkpt><trkpt lat="45.977450280331006" lon="12.204015348106775"><ele>222.0</ele><time>2026-04-25T11:12:04Z</time></trkpt><trkpt lat="45.97749876134026" lon="12.20418040579101"><ele>222.0</ele><time>2026-04-25T11:12:06Z</time></trkpt><trkpt lat="45.97752372256904" lon="12.204264071606424"><ele>222.0</ele><time>2026-04-25T11:12:07Z</time></trkpt><trkpt lat="45.97757583112314" lon="12.204431250108327"><ele>222.5</ele><time>2026-04-25T11:12:09Z</time></trkpt><trkpt lat="45.977602097586875" lon="12.204517965106225"><ele>223.0</ele><time>2026-04-25T11:12:10Z</time></trkpt><trkpt lat="45.977625839022146" lon="12.204607916564226"><ele>223.5</ele><time>2026-04-25T11:12:11Z</time></trkpt><trkpt lat="45.97764638283954" lon="12.204697809167492"><ele>224.0</ele><time>2026-04-25T11:12:12Z</time></trkpt><trkpt lat="45.97767209705154" lon="12.204787211896793"><ele>224.5</ele><time>2026-04-25T11:12:13Z</time></trkpt><trkpt lat="45.97769604388485" lon="12.20487459685671"><ele>225.0</ele><time>2026-04-25T11:12:14Z</time></trkpt><trkpt lat="45.977750515254684" lon="12.205033990492849"><ele>225.0</ele><time>2026-04-25T11:12:16Z</time></trkpt><trkpt lat="45.977792015664534" lon="12.205202278763966"><ele>225.0</ele><time>2026-04-25T11:12:18Z</time></trkpt><trkpt lat="45.97781244080017" lon="12.20528947163369"><ele>225.0</ele><time>2026-04-25T11:12:19Z</time></trkpt><trkpt lat="45.97783859895492" lon="12.205377126955652"><ele>225.0</ele><time>2026-04-25T11:12:20Z</time></trkpt><trkpt lat="45.97786046639688" lon="12.205462380559148"><ele>225.0</ele><time>2026-04-25T11:12:21Z</time></trkpt><trkpt lat="45.97790657679517" lon="12.205631760200786"><ele>225.0</ele><time>2026-04-25T11:12:23Z</time></trkpt><trkpt lat="45.977927472153766" lon="12.20571960303328"><ele>225.0</ele><time>2026-04-25T11:12:24Z</time></trkpt><trkpt lat="45.97795303250186" lon="12.205807595281327"><ele>225.0</ele><time>2026-04-25T11:12:25Z</time></trkpt><trkpt lat="45.978004141313384" lon="12.205972276004056"><ele>225.0</ele><time>2026-04-25T11:12:27Z</time></trkpt><trkpt lat="45.97802828407532" lon="12.206059975675364"><ele>225.0</ele><time>2026-04-25T11:12:28Z</time></trkpt><trkpt lat="45.97807661444549" lon="12.20622418904015"><ele>225.0</ele><time>2026-04-25T11:12:30Z</time></trkpt><trkpt lat="45.978096324865156" lon="12.206311246849145"><ele>225.0</ele><time>2026-04-25T11:12:31Z</time></trkpt><trkpt lat="45.9781185761535" lon="12.206401784045237"><ele>225.0</ele><time>2026-04-25T11:12:32Z</time></trkpt><trkpt lat="45.97814107853207" lon="12.206489735557419"><ele>225.0</ele><time>2026-04-25T11:12:33Z</time></trkpt><trkpt lat="45.97816406914023" lon="12.206576352859152"><ele>225.0</ele><time>2026-04-25T11:12:34Z</time></trkpt><trkpt lat="45.97818207359949" lon="12.206667020478672"><ele>225.0</ele><time>2026-04-25T11:12:35Z</time></trkpt><trkpt lat="45.97822530797535" lon="12.206840516340563"><ele>225.0</ele><time>2026-04-25T11:12:37Z</time></trkpt><trkpt lat="45.97827607876962" lon="12.207006523992295"><ele>225.0</ele><time>2026-04-25T11:12:39Z</time></trkpt><trkpt lat="45.9783254450635" lon="12.207173556989433"><ele>224.0</ele><time>2026-04-25T11:12:41Z</time></trkpt><trkpt lat="45.9783718254916" lon="12.207342006478779"><ele>223.0</ele><time>2026-04-25T11:12:43Z</time></trkpt><trkpt lat="45.978415639948075" lon="12.207511462623147"><ele>222.0</ele><time>2026-04-25T11:12:44.999Z</time></trkpt><trkpt lat="45.978462561661715" lon="12.207679370632093"><ele>221.0</ele><time>2026-04-25T11:12:46.999Z</time></trkpt><trkpt lat="45.978515791057454" lon="12.207840069512788"><ele>221.0</ele><time>2026-04-25T11:12:48.999Z</time></trkpt><trkpt lat="45.97854125535436" lon="12.207923844416467"><ele>221.00000000000003</ele><time>2026-04-25T11:12:49.999Z</time></trkpt><trkpt lat="45.978589409076534" lon="12.20808409352078"><ele>221.00000000000003</ele><time>2026-04-25T11:12:51.999Z</time></trkpt><trkpt lat="45.978633443080305" lon="12.208247142152787"><ele>221.0</ele><time>2026-04-25T11:12:53.999Z</time></trkpt><trkpt lat="45.97867675958413" lon="12.208414695430546"><ele>221.0</ele><time>2026-04-25T11:12:55.999Z</time></trkpt><trkpt lat="45.97871574978482" lon="12.208575315288293"><ele>221.0</ele><time>2026-04-25T11:12:57.999Z</time></trkpt><trkpt lat="45.97875258064632" lon="12.208740332739321"><ele>221.0</ele><time>2026-04-25T11:12:59.999Z</time></trkpt><trkpt lat="45.97879956811023" lon="12.208898707295171"><ele>221.0</ele><time>2026-04-25T11:13:01.999Z</time></trkpt><trkpt lat="45.97884296926728" lon="12.20906168953657"><ele>221.0</ele><time>2026-04-25T11:13:03.999Z</time></trkpt><trkpt lat="45.97889067310377" lon="12.209219229082114"><ele>221.0</ele><time>2026-04-25T11:13:05.999Z</time></trkpt><trkpt lat="45.978933438389625" lon="12.209381452023374"><ele>221.00000000000003</ele><time>2026-04-25T11:13:07.999Z</time></trkpt><trkpt lat="45.978983794444524" lon="12.209543098080621"><ele>221.00000000000003</ele><time>2026-04-25T11:13:09.999Z</time></trkpt><trkpt lat="45.97902921421936" lon="12.209710675641682"><ele>221.0</ele><time>2026-04-25T11:13:11.999Z</time></trkpt><trkpt lat="45.97905265729793" lon="12.209797899155202"><ele>221.0</ele><time>2026-04-25T11:13:12.999Z</time></trkpt><trkpt lat="45.97910021151161" lon="12.209963113668861"><ele>221.00000000000003</ele><time>2026-04-25T11:13:14.999Z</time></trkpt><trkpt lat="45.979125031796016" lon="12.21004842986455"><ele>221.0</ele><time>2026-04-25T11:13:15.999Z</time></trkpt><trkpt lat="45.979147766986024" lon="12.210133769634616"><ele>221.0</ele><time>2026-04-25T11:13:16.999Z</time></trkpt><trkpt lat="45.97917225629658" lon="12.210217661218296"><ele>221.0</ele><time>2026-04-25T11:13:17.999Z</time></trkpt><trkpt lat="45.97919604220637" lon="12.210304889050212"><ele>221.00000000000003</ele><time>2026-04-25T11:13:18.999Z</time></trkpt><trkpt lat="45.979241670370904" lon="12.210472806364525"><ele>221.0</ele><time>2026-04-25T11:13:20.999Z</time></trkpt><trkpt lat="45.97928647237245" lon="12.210641733295885"><ele>220.60000000000002</ele><time>2026-04-25T11:13:22.999Z</time></trkpt><trkpt lat="45.97931058564726" lon="12.21072660397336"><ele>220.20000000000002</ele><time>2026-04-25T11:13:23.999Z</time></trkpt><trkpt lat="45.979355357698175" lon="12.210897463202352"><ele>219.79999999999998</ele><time>2026-04-25T11:13:25.999Z</time></trkpt><trkpt lat="45.9793806983233" lon="12.210981201030934"><ele>219.39999999999998</ele><time>2026-04-25T11:13:26.999Z</time></trkpt><trkpt lat="45.97942772938245" lon="12.21115088363221"><ele>219.0</ele><time>2026-04-25T11:13:28.998Z</time></trkpt><trkpt lat="45.979473823160724" lon="12.211314175818972"><ele>219.0</ele><time>2026-04-25T11:13:30.998Z</time></trkpt><trkpt lat="45.97949849244644" lon="12.211400540377097"><ele>219.0</ele><time>2026-04-25T11:13:31.998Z</time></trkpt><trkpt lat="45.9795281968219" lon="12.211483209359583"><ele>219.0</ele><time>2026-04-25T11:13:32.998Z</time></trkpt><trkpt lat="45.97957981861812" lon="12.211644908395481"><ele>219.0</ele><time>2026-04-25T11:13:34.998Z</time></trkpt><trkpt lat="45.979601145907424" lon="12.211731326051323"><ele>219.0</ele><time>2026-04-25T11:13:35.998Z</time></trkpt><trkpt lat="45.979646289729644" lon="12.211895352760362"><ele>219.0</ele><time>2026-04-25T11:13:37.998Z</time></trkpt><trkpt lat="45.979690445970405" lon="12.212056946647674"><ele>219.75</ele><time>2026-04-25T11:13:39.998Z</time></trkpt><trkpt lat="45.97973100661124" lon="12.212218952006332"><ele>220.5</ele><time>2026-04-25T11:13:41.998Z</time></trkpt><trkpt lat="45.97977825002175" lon="12.212377800648394"><ele>221.25</ele><time>2026-04-25T11:13:43.998Z</time></trkpt><trkpt lat="45.97982155539011" lon="12.212542750164998"><ele>222.0</ele><time>2026-04-25T11:13:45.998Z</time></trkpt><trkpt lat="45.97986289558691" lon="12.212707893047265"><ele>222.2</ele><time>2026-04-25T11:13:47.998Z</time></trkpt><trkpt lat="45.979892930643615" lon="12.212874142179908"><ele>222.39999999999998</ele><time>2026-04-25T11:13:49.998Z</time></trkpt><trkpt lat="45.979914693404815" lon="12.213033901594274"><ele>222.60000000000002</ele><time>2026-04-25T11:13:51.998Z</time></trkpt><trkpt lat="45.979942213649046" lon="12.213181249883032"><ele>222.8</ele><time>2026-04-25T11:13:53.998Z</time></trkpt><trkpt lat="45.97994152923871" lon="12.213287909053351"><ele>223.0</ele><time>2026-04-25T11:13:55.998Z</time></trkpt><trkpt lat="45.98008774684834" lon="12.213276028469794"><ele>223.4</ele><time>2026-04-25T11:14:00.998Z</time></trkpt><trkpt lat="45.980159125525205" lon="12.213214328662865"><ele>223.8</ele><time>2026-04-25T11:14:02.998Z</time></trkpt><trkpt lat="45.98023795923522" lon="12.213161319528792"><ele>224.2</ele><time>2026-04-25T11:14:04.998Z</time></trkpt><trkpt lat="45.98032302967324" lon="12.213107252161507"><ele>224.6</ele><time>2026-04-25T11:14:06.998Z</time></trkpt><trkpt lat="45.98041169906863" lon="12.21304514330288"><ele>225.0</ele><time>2026-04-25T11:14:09Z</time></trkpt><trkpt lat="45.98050796495338" lon="12.212979016307232"><ele>225.0</ele><time>2026-04-25T11:14:11Z</time></trkpt><trkpt lat="45.98060620779232" lon="12.212910968728831"><ele>225.0</ele><time>2026-04-25T11:14:13Z</time></trkpt><trkpt lat="45.980706420569895" lon="12.212839556630534"><ele>225.0</ele><time>2026-04-25T11:14:15Z</time></trkpt><trkpt lat="45.98080864934368" lon="12.212770798800893"><ele>225.0</ele><time>2026-04-25T11:14:17Z</time></trkpt><trkpt lat="45.98090967529852" lon="12.212696049464622"><ele>225.0</ele><time>2026-04-25T11:14:19Z</time></trkpt><trkpt lat="45.98101370195736" lon="12.212620116343974"><ele>224.75</ele><time>2026-04-25T11:14:21Z</time></trkpt><trkpt lat="45.98111924347786" lon="12.212544232409995"><ele>224.5</ele><time>2026-04-25T11:14:23Z</time></trkpt><trkpt lat="45.98122117393981" lon="12.212468927392626"><ele>224.25</ele><time>2026-04-25T11:14:25Z</time></trkpt><trkpt lat="45.981321810423644" lon="12.212401931720862"><ele>224.0</ele><time>2026-04-25T11:14:27Z</time></trkpt><trkpt lat="45.981420034552784" lon="12.212328467551012"><ele>223.79999999999998</ele><time>2026-04-25T11:14:29Z</time></trkpt><trkpt lat="45.98151653552655" lon="12.212266730877298"><ele>223.59999999999997</ele><time>2026-04-25T11:14:31Z</time></trkpt><trkpt lat="45.98162050434951" lon="12.212248981659169"><ele>223.4</ele><time>2026-04-25T11:14:33Z</time></trkpt><trkpt lat="45.98170323282485" lon="12.212212312945184"><ele>223.2</ele><time>2026-04-25T11:14:35Z</time></trkpt><trkpt lat="45.98178044385169" lon="12.212324399982188"><ele>223.0</ele><time>2026-04-25T11:14:36Z</time></trkpt><trkpt lat="45.981878417467705" lon="12.212425623605265"><ele>223.5</ele><time>2026-04-25T11:14:38Z</time></trkpt><trkpt lat="45.98197680253957" lon="12.21252491183698"><ele>224.0</ele><time>2026-04-25T11:14:40Z</time></trkpt><trkpt lat="45.982072979247555" lon="12.212625062288716"><ele>224.5</ele><time>2026-04-25T11:14:42Z</time></trkpt><trkpt lat="45.98217149451593" lon="12.212727656301821"><ele>225.0</ele><time>2026-04-25T11:14:44Z</time></trkpt><trkpt lat="45.982271350791144" lon="12.212826464258383"><ele>225.0</ele><time>2026-04-25T11:14:46Z</time></trkpt><trkpt lat="45.98237485649476" lon="12.212916260662553"><ele>225.0</ele><time>2026-04-25T11:14:48Z</time></trkpt><trkpt lat="45.98248217849802" lon="12.212994546796342"><ele>225.0</ele><time>2026-04-25T11:14:50Z</time></trkpt><trkpt lat="45.982594878242075" lon="12.213048133037285"><ele>225.0</ele><time>2026-04-25T11:14:52Z</time></trkpt><trkpt lat="45.982709329396485" lon="12.213093884528343"><ele>225.0</ele><time>2026-04-25T11:14:54Z</time></trkpt><trkpt lat="45.98281949542276" lon="12.213146540828104"><ele>225.0</ele><time>2026-04-25T11:14:56Z</time></trkpt><trkpt lat="45.98292860879886" lon="12.213199098574211"><ele>225.0</ele><time>2026-04-25T11:14:57.999Z</time></trkpt><trkpt lat="45.98302100224205" lon="12.213283214278839"><ele>225.0</ele><time>2026-04-25T11:14:59.999Z</time></trkpt><trkpt lat="45.983112900043345" lon="12.213373081009843"><ele>224.75</ele><time>2026-04-25T11:15:01.999Z</time></trkpt><trkpt lat="45.983186442757585" lon="12.21349847446716"><ele>224.5</ele><time>2026-04-25T11:15:03.999Z</time></trkpt><trkpt lat="45.98323843452194" lon="12.213644027051457"><ele>224.25</ele><time>2026-04-25T11:15:05.999Z</time></trkpt><trkpt lat="45.98328377367889" lon="12.213790021359992"><ele>224.0</ele><time>2026-04-25T11:15:07.999Z</time></trkpt><trkpt lat="45.98332695389151" lon="12.213937099383969"><ele>224.6</ele><time>2026-04-25T11:15:09.999Z</time></trkpt><trkpt lat="45.98337164741396" lon="12.214082975169294"><ele>225.2</ele><time>2026-04-25T11:15:11.999Z</time></trkpt><trkpt lat="45.98341826918072" lon="12.214225441994683"><ele>225.79999999999998</ele><time>2026-04-25T11:15:13.999Z</time></trkpt><trkpt lat="45.983467004877866" lon="12.214364742450195"><ele>226.39999999999998</ele><time>2026-04-25T11:15:15.999Z</time></trkpt><trkpt lat="45.98351708686583" lon="12.214503136579696"><ele>227.0</ele><time>2026-04-25T11:15:17.999Z</time></trkpt><trkpt lat="45.9835744110168" lon="12.214633384209634"><ele>227.0</ele><time>2026-04-25T11:15:19.999Z</time></trkpt><trkpt lat="45.983621833621356" lon="12.214769964399256"><ele>227.0</ele><time>2026-04-25T11:15:21.999Z</time></trkpt><trkpt lat="45.98370200692601" lon="12.214845870950834"><ele>227.0</ele><time>2026-04-25T11:15:23.999Z</time></trkpt><trkpt lat="45.983791799490106" lon="12.21490478337594"><ele>227.0</ele><time>2026-04-25T11:15:25.999Z</time></trkpt><trkpt lat="45.98387520162665" lon="12.214970425352282"><ele>227.0</ele><time>2026-04-25T11:15:27.999Z</time></trkpt><trkpt lat="45.98395399593859" lon="12.215036007188418"><ele>226.83333333333334</ele><time>2026-04-25T11:15:29.999Z</time></trkpt><trkpt lat="45.98402252091366" lon="12.215112247902923"><ele>226.66666666666669</ele><time>2026-04-25T11:15:31.999Z</time></trkpt><trkpt lat="45.98408368102773" lon="12.215174029979938"><ele>226.5</ele><time>2026-04-25T11:15:33.999Z</time></trkpt><trkpt lat="45.98416153905797" lon="12.215220878971413"><ele>226.33333333333331</ele><time>2026-04-25T11:15:36.999Z</time></trkpt><trkpt lat="45.98423352319176" lon="12.215274096540371"><ele>226.16666666666666</ele><time>2026-04-25T11:15:39.999Z</time></trkpt><trkpt lat="45.98427785949758" lon="12.215373498322823"><ele>226.0</ele><time>2026-04-25T11:15:41.998Z</time></trkpt><trkpt lat="45.98434794439602" lon="12.215467103007411"><ele>227.0</ele><time>2026-04-25T11:15:43.998Z</time></trkpt><trkpt lat="45.98441029938449" lon="12.215556345046524"><ele>228.00000000000003</ele><time>2026-04-25T11:15:45.998Z</time></trkpt><trkpt lat="45.984466652647654" lon="12.215663457266727"><ele>229.00000000000003</ele><time>2026-04-25T11:15:47.998Z</time></trkpt><trkpt lat="45.984525795251976" lon="12.215772991358394"><ele>230.0</ele><time>2026-04-25T11:15:49.998Z</time></trkpt><trkpt lat="45.98459107434062" lon="12.215879378710568"><ele>231.0</ele><time>2026-04-25T11:15:51.998Z</time></trkpt><trkpt lat="45.98465169477683" lon="12.215982647702337"><ele>231.0</ele><time>2026-04-25T11:15:53.998Z</time></trkpt><trkpt lat="45.98471326278721" lon="12.216077298984224"><ele>231.0</ele><time>2026-04-25T11:15:55.998Z</time></trkpt><trkpt lat="45.984781637142895" lon="12.216152950657104"><ele>231.0</ele><time>2026-04-25T11:15:57.998Z</time></trkpt><trkpt lat="45.98484027744894" lon="12.216211705180692"><ele>231.0</ele><time>2026-04-25T11:15:59.998Z</time></trkpt><trkpt lat="45.984891265337126" lon="12.216277530890196"><ele>231.0</ele><time>2026-04-25T11:16:01.998Z</time></trkpt><trkpt lat="45.98492209783287" lon="12.216384108116484"><ele>231.0</ele><time>2026-04-25T11:16:04.998Z</time></trkpt><trkpt lat="45.9848915644506" lon="12.216479058182674"><ele>230.5</ele><time>2026-04-25T11:16:07.998Z</time></trkpt><trkpt lat="45.98485052616497" lon="12.216618099574621"><ele>230.0</ele><time>2026-04-25T11:16:10.998Z</time></trkpt><trkpt lat="45.984832641492304" lon="12.216724523483267"><ele>229.5</ele><time>2026-04-25T11:16:12.997Z</time></trkpt><trkpt lat="45.984838824283585" lon="12.216817068102177"><ele>229.0</ele><time>2026-04-25T11:16:15Z</time></trkpt><trkpt lat="45.98490117095205" lon="12.216859918916336"><ele>228.5</ele><time>2026-04-25T11:16:17Z</time></trkpt><trkpt lat="45.984972236706824" lon="12.21685375212964"><ele>228.0</ele><time>2026-04-25T11:16:19Z</time></trkpt><trkpt lat="45.98502420166527" lon="12.216912880053833"><ele>228.83333333333334</ele><time>2026-04-25T11:16:21Z</time></trkpt><trkpt lat="45.98502542448632" lon="12.217029738761852"><ele>229.66666666666669</ele><time>2026-04-25T11:16:24Z</time></trkpt><trkpt lat="45.9850754586958" lon="12.217086451159574"><ele>230.5</ele><time>2026-04-25T11:16:26Z</time></trkpt><trkpt lat="45.98513290832842" lon="12.217144530575407"><ele>231.33333333333334</ele><time>2026-04-25T11:16:28Z</time></trkpt><trkpt lat="45.98520258730102" lon="12.217237837463431"><ele>232.16666666666669</ele><time>2026-04-25T11:16:30.999Z</time></trkpt><trkpt lat="45.985244903658305" lon="12.217309464964417"><ele>233.0</ele><time>2026-04-25T11:16:32.999Z</time></trkpt><trkpt lat="45.985288714231956" lon="12.21741854645924"><ele>233.00000000000003</ele><time>2026-04-25T11:16:35.999Z</time></trkpt><trkpt lat="45.985342971848205" lon="12.217499860892534"><ele>233.0</ele><time>2026-04-25T11:16:38.999Z</time></trkpt><trkpt lat="45.98540974220061" lon="12.217569570599615"><ele>233.0</ele><time>2026-04-25T11:16:40.999Z</time></trkpt><trkpt lat="45.98547599608442" lon="12.21764528758381"><ele>233.0</ele><time>2026-04-25T11:16:42.999Z</time></trkpt><trkpt lat="45.9855457382622" lon="12.217718573950304"><ele>233.00000000000003</ele><time>2026-04-25T11:16:44.999Z</time></trkpt><trkpt lat="45.98559425593777" lon="12.217794203053215"><ele>233.0</ele><time>2026-04-25T11:16:46.999Z</time></trkpt><trkpt lat="45.985632292997664" lon="12.217892763045354"><ele>233.0</ele><time>2026-04-25T11:16:48.999Z</time></trkpt><trkpt lat="45.98568515436474" lon="12.218005899422197"><ele>233.0</ele><time>2026-04-25T11:16:50.999Z</time></trkpt><trkpt lat="45.98573362861564" lon="12.218125077118085"><ele>233.0</ele><time>2026-04-25T11:16:52.999Z</time></trkpt><trkpt lat="45.98577706608678" lon="12.21823220733713"><ele>233.0</ele><time>2026-04-25T11:16:54.999Z</time></trkpt><trkpt lat="45.98582050645357" lon="12.218346238368078"><ele>233.0</ele><time>2026-04-25T11:16:56.999Z</time></trkpt><trkpt lat="45.9858638245456" lon="12.218450475911958"><ele>233.66666666666669</ele><time>2026-04-25T11:16:58.999Z</time></trkpt><trkpt lat="45.985916837231294" lon="12.218510379798438"><ele>234.33333333333334</ele><time>2026-04-25T11:17:00.999Z</time></trkpt><trkpt lat="45.98595982302363" lon="12.218615973081878"><ele>235.0</ele><time>2026-04-25T11:17:03.999Z</time></trkpt><trkpt lat="45.986000384434156" lon="12.218708888663445"><ele>235.66666666666669</ele><time>2026-04-25T11:17:06.999Z</time></trkpt><trkpt lat="45.98601066911943" lon="12.218824819527395"><ele>236.33333333333334</ele><time>2026-04-25T11:17:11.999Z</time></trkpt><trkpt lat="45.98606883507617" lon="12.218893382814148"><ele>237.0</ele><time>2026-04-25T11:17:14.998Z</time></trkpt><trkpt lat="45.986061193886876" lon="12.218996067894727"><ele>237.0</ele><time>2026-04-25T11:17:30.998Z</time></trkpt><trkpt lat="45.98605289094871" lon="12.21911343673652"><ele>237.0</ele><time>2026-04-25T11:17:37.998Z</time></trkpt><trkpt lat="45.986090947783026" lon="12.219221398202308"><ele>237.0</ele><time>2026-04-25T11:17:39.998Z</time></trkpt><trkpt lat="45.98613382482389" lon="12.219308531772226"><ele>237.0</ele><time>2026-04-25T11:17:41.998Z</time></trkpt><trkpt lat="45.98616802438351" lon="12.219401549669117"><ele>237.0</ele><time>2026-04-25T11:17:43.998Z</time></trkpt><trkpt lat="45.98619264430925" lon="12.21950528873927"><ele>237.0</ele><time>2026-04-25T11:17:45.998Z</time></trkpt><trkpt lat="45.986158849062136" lon="12.219599908544401"><ele>237.0</ele><time>2026-04-25T11:17:47.998Z</time></trkpt><trkpt lat="45.98613063772103" lon="12.219695572982925"><ele>237.0</ele><time>2026-04-25T11:17:49.998Z</time></trkpt><trkpt lat="45.98609530940079" lon="12.219799550167746"><ele>237.0</ele><time>2026-04-25T11:17:51.998Z</time></trkpt><trkpt lat="45.9860551861468" lon="12.219894404958085"><ele>237.0</ele><time>2026-04-25T11:17:53.998Z</time></trkpt><trkpt lat="45.98601259469107" lon="12.219971572052513"><ele>237.0</ele><time>2026-04-25T11:17:55.998Z</time></trkpt><trkpt lat="45.985977920394454" lon="12.220070305782784"><ele>237.0</ele><time>2026-04-25T11:17:58.997Z</time></trkpt><trkpt lat="45.98597794481415" lon="12.220188837470797"><ele>235.8</ele><time>2026-04-25T11:18:00.997Z</time></trkpt><trkpt lat="45.985972994539516" lon="12.220323286179559"><ele>234.6</ele><time>2026-04-25T11:18:02.997Z</time></trkpt><trkpt lat="45.98593662318772" lon="12.22045113279454"><ele>233.40000000000003</ele><time>2026-04-25T11:18:04.997Z</time></trkpt><trkpt lat="45.985877509522425" lon="12.220564885458359"><ele>232.20000000000002</ele><time>2026-04-25T11:18:06.997Z</time></trkpt><trkpt lat="45.98580428467355" lon="12.220675922312994"><ele>231.0</ele><time>2026-04-25T11:18:08.997Z</time></trkpt><trkpt lat="45.985714710735365" lon="12.22076408478234"><ele>229.4</ele><time>2026-04-25T11:18:10.997Z</time></trkpt><trkpt lat="45.98562709076832" lon="12.220851825942356"><ele>227.8</ele><time>2026-04-25T11:18:12.997Z</time></trkpt><trkpt lat="45.98554829675587" lon="12.220957978084051"><ele>226.20000000000002</ele><time>2026-04-25T11:18:14.997Z</time></trkpt><trkpt lat="45.9854799384177" lon="12.221073526581216"><ele>224.60000000000002</ele><time>2026-04-25T11:18:16.997Z</time></trkpt><trkpt lat="45.98542097124361" lon="12.221184785449323"><ele>223.0</ele><time>2026-04-25T11:18:18.997Z</time></trkpt><trkpt lat="45.985404816462434" lon="12.22132497302043"><ele>223.0</ele><time>2026-04-25T11:18:21Z</time></trkpt><trkpt lat="45.985441934347925" lon="12.221433038756206"><ele>223.0</ele><time>2026-04-25T11:18:23Z</time></trkpt><trkpt lat="45.98550801130779" lon="12.221536954460046"><ele>223.0</ele><time>2026-04-25T11:18:25Z</time></trkpt><trkpt lat="45.985571809249805" lon="12.221647368882474"><ele>223.0</ele><time>2026-04-25T11:18:27Z</time></trkpt><trkpt lat="45.98563815332764" lon="12.221765004591873"><ele>223.0</ele><time>2026-04-25T11:18:29Z</time></trkpt><trkpt lat="45.98570040952055" lon="12.221882086968588"><ele>223.0</ele><time>2026-04-25T11:18:31Z</time></trkpt><trkpt lat="45.98576060266628" lon="12.22200011107427"><ele>223.0</ele><time>2026-04-25T11:18:33Z</time></trkpt><trkpt lat="45.9858255052093" lon="12.222120169196867"><ele>223.0</ele><time>2026-04-25T11:18:35Z</time></trkpt><trkpt lat="45.98589451942734" lon="12.22224074444037"><ele>223.0</ele><time>2026-04-25T11:18:37Z</time></trkpt><trkpt lat="45.985957212977745" lon="12.222375195450518"><ele>223.0</ele><time>2026-04-25T11:18:39Z</time></trkpt><trkpt lat="45.98602574809171" lon="12.222504308815356"><ele>223.0</ele><time>2026-04-25T11:18:41Z</time></trkpt><trkpt lat="45.986095864121616" lon="12.22263907191678"><ele>223.0</ele><time>2026-04-25T11:18:43Z</time></trkpt><trkpt lat="45.986169715914784" lon="12.222763514823434"><ele>223.0</ele><time>2026-04-25T11:18:44.999Z</time></trkpt><trkpt lat="45.98623752857026" lon="12.222874773662467"><ele>223.0</ele><time>2026-04-25T11:18:46.999Z</time></trkpt><trkpt lat="45.98628441826805" lon="12.22293760122024"><ele>223.0</ele><time>2026-04-25T11:18:47.999Z</time></trkpt><trkpt lat="45.986364641450976" lon="12.22306380917619"><ele>223.0</ele><time>2026-04-25T11:18:49.999Z</time></trkpt><trkpt lat="45.98643614537703" lon="12.22319801647036"><ele>223.0</ele><time>2026-04-25T11:18:51.999Z</time></trkpt><trkpt lat="45.986508307449526" lon="12.223336368012554"><ele>223.0</ele><time>2026-04-25T11:18:53.999Z</time></trkpt><trkpt lat="45.986586823402774" lon="12.223471703070707"><ele>223.0</ele><time>2026-04-25T11:18:55.999Z</time></trkpt><trkpt lat="45.98667136267856" lon="12.223607436459101"><ele>223.25</ele><time>2026-04-25T11:18:57.999Z</time></trkpt><trkpt lat="45.98675345745193" lon="12.22373657536089"><ele>223.5</ele><time>2026-04-25T11:18:59.999Z</time></trkpt><trkpt lat="45.986819737244566" lon="12.223878703921594"><ele>223.75</ele><time>2026-04-25T11:19:01.999Z</time></trkpt><trkpt lat="45.98687860276198" lon="12.224016018124676"><ele>224.0</ele><time>2026-04-25T11:19:03.999Z</time></trkpt><trkpt lat="45.98690673695011" lon="12.224179911922867"><ele>223.25</ele><time>2026-04-25T11:19:05.999Z</time></trkpt><trkpt lat="45.986946844895215" lon="12.224341930289567"><ele>222.5</ele><time>2026-04-25T11:19:07.999Z</time></trkpt><trkpt lat="45.98697409086002" lon="12.224507137445853"><ele>221.75</ele><time>2026-04-25T11:19:09.999Z</time></trkpt><trkpt lat="45.98693373719649" lon="12.224662862827646"><ele>221.0</ele><time>2026-04-25T11:19:11.999Z</time></trkpt><trkpt lat="45.98686537691693" lon="12.224805481541791"><ele>221.5</ele><time>2026-04-25T11:19:13.999Z</time></trkpt><trkpt lat="45.9868074178926" lon="12.224951862186552"><ele>222.0</ele><time>2026-04-25T11:19:15.999Z</time></trkpt><trkpt lat="45.98681146379548" lon="12.225114420105074"><ele>222.5</ele><time>2026-04-25T11:19:17.999Z</time></trkpt><trkpt lat="45.986870241561284" lon="12.225266609806912"><ele>223.0</ele><time>2026-04-25T11:19:19.999Z</time></trkpt><trkpt lat="45.986921260547554" lon="12.225431595445706"><ele>223.0</ele><time>2026-04-25T11:19:21.999Z</time></trkpt><trkpt lat="45.986972704024886" lon="12.225595455814918"><ele>223.0</ele><time>2026-04-25T11:19:23.999Z</time></trkpt><trkpt lat="45.986996089299076" lon="12.225679880052112"><ele>223.0</ele><time>2026-04-25T11:19:24.999Z</time></trkpt><trkpt lat="45.98702161298404" lon="12.225765479304323"><ele>223.0</ele><time>2026-04-25T11:19:25.999Z</time></trkpt><trkpt lat="45.987046805917636" lon="12.225849078629286"><ele>223.0</ele><time>2026-04-25T11:19:26.999Z</time></trkpt><trkpt lat="45.9870726193844" lon="12.225933649101432"><ele>223.0</ele><time>2026-04-25T11:19:27.999Z</time></trkpt><trkpt lat="45.98709627012417" lon="12.226018530086058"><ele>223.0</ele><time>2026-04-25T11:19:28.998Z</time></trkpt><trkpt lat="45.987123436002534" lon="12.22610355277037"><ele>223.16666666666666</ele><time>2026-04-25T11:19:29.998Z</time></trkpt><trkpt lat="45.98714831147273" lon="12.226189241194822"><ele>223.33333333333331</ele><time>2026-04-25T11:19:30.998Z</time></trkpt><trkpt lat="45.98717224434275" lon="12.226275494011677"><ele>223.5</ele><time>2026-04-25T11:19:31.998Z</time></trkpt><trkpt lat="45.98720298633008" lon="12.22635594260539"><ele>223.66666666666669</ele><time>2026-04-25T11:19:32.998Z</time></trkpt><trkpt lat="45.98724317544539" lon="12.226426031088636"><ele>223.83333333333334</ele><time>2026-04-25T11:19:33.998Z</time></trkpt><trkpt lat="45.9873433155628" lon="12.226537257900752"><ele>224.0</ele><time>2026-04-25T11:19:35.998Z</time></trkpt><trkpt lat="45.98745820259437" lon="12.226610074188859"><ele>224.0</ele><time>2026-04-25T11:19:37.998Z</time></trkpt><trkpt lat="45.98752058853409" lon="12.226626835506115"><ele>224.0</ele><time>2026-04-25T11:19:38.998Z</time></trkpt><trkpt lat="45.987584317394486" lon="12.226634941641196"><ele>224.0</ele><time>2026-04-25T11:19:39.998Z</time></trkpt><trkpt lat="45.98764862143164" lon="12.22664214708739"><ele>224.0</ele><time>2026-04-25T11:19:40.998Z</time></trkpt><trkpt lat="45.98771219567509" lon="12.226652784670822"><ele>224.0</ele><time>2026-04-25T11:19:41.998Z</time></trkpt><trkpt lat="45.987774633019015" lon="12.226669443670005"><ele>224.0</ele><time>2026-04-25T11:19:42.998Z</time></trkpt><trkpt lat="45.98783603959581" lon="12.226692577167434"><ele>224.0</ele><time>2026-04-25T11:19:43.998Z</time></trkpt><trkpt lat="45.987896252990886" lon="12.226725365793177"><ele>224.0</ele><time>2026-04-25T11:19:44.998Z</time></trkpt><trkpt lat="45.98801316831651" lon="12.226801234460295"><ele>224.0</ele><time>2026-04-25T11:19:46.998Z</time></trkpt><trkpt lat="45.988065987535876" lon="12.226851503819185"><ele>223.99999999999997</ele><time>2026-04-25T11:19:47.998Z</time></trkpt><trkpt lat="45.988166772043904" lon="12.226957615383048"><ele>223.99999999999997</ele><time>2026-04-25T11:19:49.998Z</time></trkpt><trkpt lat="45.9882634289819" lon="12.227068486604846"><ele>224.0</ele><time>2026-04-25T11:19:51.998Z</time></trkpt><trkpt lat="45.98835212800193" lon="12.227193036186607"><ele>224.0</ele><time>2026-04-25T11:19:53.998Z</time></trkpt><trkpt lat="45.98841195321957" lon="12.22733599104022"><ele>225.2</ele><time>2026-04-25T11:19:55.998Z</time></trkpt><trkpt lat="45.988432881670256" lon="12.227482389820013"><ele>226.39999999999998</ele><time>2026-04-25T11:19:57.998Z</time></trkpt><trkpt lat="45.98843765881606" lon="12.227604875223705"><ele>227.6</ele><time>2026-04-25T11:19:59.998Z</time></trkpt><trkpt lat="45.988445227981146" lon="12.22773793249945"><ele>228.8</ele><time>2026-04-25T11:20:01.998Z</time></trkpt><trkpt lat="45.988504892462636" lon="12.22786993487344"><ele>230.0</ele><time>2026-04-25T11:20:03.998Z</time></trkpt><trkpt lat="45.98856816552322" lon="12.227982527916186"><ele>230.0</ele><time>2026-04-25T11:20:05.998Z</time></trkpt><trkpt lat="45.98859310003009" lon="12.228066050508925"><ele>230.0</ele><time>2026-04-25T11:20:06.998Z</time></trkpt><trkpt lat="45.98863110035146" lon="12.228227364150538"><ele>230.0</ele><time>2026-04-25T11:20:08.998Z</time></trkpt><trkpt lat="45.98866904065938" lon="12.228378034310206"><ele>230.0</ele><time>2026-04-25T11:20:10.998Z</time></trkpt><trkpt lat="45.98866892698274" lon="12.228544748789043"><ele>230.0</ele><time>2026-04-25T11:20:12.997Z</time></trkpt><trkpt lat="45.98865970961167" lon="12.228709943348814"><ele>229.5</ele><time>2026-04-25T11:20:14.997Z</time></trkpt><trkpt lat="45.988649251042446" lon="12.228878169480085"><ele>229.0</ele><time>2026-04-25T11:20:16.997Z</time></trkpt><trkpt lat="45.98863184663839" lon="12.229047618767506"><ele>228.5</ele><time>2026-04-25T11:20:18.997Z</time></trkpt><trkpt lat="45.98861438778124" lon="12.229221952578255"><ele>228.0</ele><time>2026-04-25T11:20:20.997Z</time></trkpt><trkpt lat="45.98856757715064" lon="12.229384570946175"><ele>227.0</ele><time>2026-04-25T11:20:22.997Z</time></trkpt><trkpt lat="45.98851247271926" lon="12.229539200623003"><ele>226.0</ele><time>2026-04-25T11:20:24.997Z</time></trkpt><trkpt lat="45.9884721880861" lon="12.229699478894007"><ele>225.0</ele><time>2026-04-25T11:20:27Z</time></trkpt><trkpt lat="45.98850003407601" lon="12.229864461035854"><ele>224.0</ele><time>2026-04-25T11:20:29Z</time></trkpt><trkpt lat="45.98854450294761" lon="12.23002410473122"><ele>223.5</ele><time>2026-04-25T11:20:31Z</time></trkpt><trkpt lat="45.98859009215125" lon="12.230183582174808"><ele>223.0</ele><time>2026-04-25T11:20:33Z</time></trkpt><trkpt lat="45.988632193316576" lon="12.23033673319928"><ele>222.5</ele><time>2026-04-25T11:20:35Z</time></trkpt><trkpt lat="45.98868666284143" lon="12.230493079458286"><ele>222.0</ele><time>2026-04-25T11:20:37Z</time></trkpt><trkpt lat="45.98875367832851" lon="12.23063199666887"><ele>222.39999999999998</ele><time>2026-04-25T11:20:39Z</time></trkpt><trkpt lat="45.9888548895993" lon="12.230698654920916"><ele>222.79999999999998</ele><time>2026-04-25T11:20:41Z</time></trkpt><trkpt lat="45.98896200494082" lon="12.230740649572578"><ele>223.2</ele><time>2026-04-25T11:20:43Z</time></trkpt><trkpt lat="45.98906665356145" lon="12.230791186876866"><ele>223.6</ele><time>2026-04-25T11:20:45Z</time></trkpt><trkpt lat="45.98917300045214" lon="12.230851829797832"><ele>224.0</ele><time>2026-04-25T11:20:47Z</time></trkpt><trkpt lat="45.98926968464985" lon="12.230918324461356"><ele>224.00000000000003</ele><time>2026-04-25T11:20:49Z</time></trkpt><trkpt lat="45.98935217595478" lon="12.230978789362208"><ele>224.0</ele><time>2026-04-25T11:20:51Z</time></trkpt><trkpt lat="45.98933497282817" lon="12.231089968791657"><ele>224.0</ele><time>2026-04-25T11:20:54Z</time></trkpt><trkpt lat="45.98926444869386" lon="12.231121275126663"><ele>224.0</ele><time>2026-04-25T11:20:56Z</time></trkpt><trkpt lat="45.98918674938262" lon="12.231165420181544"><ele>224.00000000000003</ele><time>2026-04-25T11:20:58Z</time></trkpt><trkpt lat="45.98910436484387" lon="12.231216489569544"><ele>224.0</ele><time>2026-04-25T11:21:00Z</time></trkpt><trkpt lat="45.98902249245431" lon="12.231272917779428"><ele>224.0</ele><time>2026-04-25T11:21:01.999Z</time></trkpt><trkpt lat="45.98895271445696" lon="12.231338535104294"><ele>224.0</ele><time>2026-04-25T11:21:03.999Z</time></trkpt><trkpt lat="45.98888916050997" lon="12.23133073929829"><ele>224.0</ele><time>2026-04-25T11:21:18.999Z</time></trkpt><trkpt lat="45.98882053254346" lon="12.23132223192052"><ele>224.0</ele><time>2026-04-25T11:21:27.999Z</time></trkpt><trkpt lat="45.98876155927826" lon="12.231371783356577"><ele>224.0</ele><time>2026-04-25T11:21:34.999Z</time></trkpt><trkpt lat="45.98869918025293" lon="12.231431425716714"><ele>224.0</ele><time>2026-04-25T11:21:37.999Z</time></trkpt><trkpt lat="45.98864499695133" lon="12.231479763936221"><ele>224.0</ele><time>2026-04-25T11:21:39.999Z</time></trkpt><trkpt lat="45.98859622142322" lon="12.231552840544856"><ele>223.79999999999998</ele><time>2026-04-25T11:21:41.999Z</time></trkpt><trkpt lat="45.98858351062878" lon="12.2316716459718"><ele>223.59999999999997</ele><time>2026-04-25T11:21:43.999Z</time></trkpt><trkpt lat="45.98857245205982" lon="12.23179522031284"><ele>223.4</ele><time>2026-04-25T11:21:45.999Z</time></trkpt><trkpt lat="45.98855412302694" lon="12.231937429929841"><ele>223.2</ele><time>2026-04-25T11:21:47.998Z</time></trkpt><trkpt lat="45.988521456803575" lon="12.232067617829912"><ele>223.0</ele><time>2026-04-25T11:21:49.998Z</time></trkpt><trkpt lat="45.98848586650681" lon="12.232198003620354"><ele>223.0</ele><time>2026-04-25T11:21:51.998Z</time></trkpt><trkpt lat="45.98845201879778" lon="12.2323364738228"><ele>223.0</ele><time>2026-04-25T11:21:53.998Z</time></trkpt><trkpt lat="45.9884261599157" lon="12.232472237300728"><ele>223.0</ele><time>2026-04-25T11:21:55.998Z</time></trkpt><trkpt lat="45.98840054643213" lon="12.2326175623056"><ele>223.0</ele><time>2026-04-25T11:21:57.998Z</time></trkpt><trkpt lat="45.98836136794895" lon="12.23276437178577"><ele>223.0</ele><time>2026-04-25T11:21:59.998Z</time></trkpt><trkpt lat="45.9883318101826" lon="12.2329128836"><ele>223.0</ele><time>2026-04-25T11:22:01.998Z</time></trkpt><trkpt lat="45.98829081536896" lon="12.233072710479716"><ele>223.0</ele><time>2026-04-25T11:22:03.998Z</time></trkpt><trkpt lat="45.988244182633444" lon="12.23323266461694"><ele>223.0</ele><time>2026-04-25T11:22:05.998Z</time></trkpt><trkpt lat="45.98819001355458" lon="12.233392159597566"><ele>223.0</ele><time>2026-04-25T11:22:07.998Z</time></trkpt><trkpt lat="45.98812933564861" lon="12.233541867847356"><ele>223.0</ele><time>2026-04-25T11:22:09.998Z</time></trkpt><trkpt lat="45.988053379213696" lon="12.233674744943162"><ele>223.0</ele><time>2026-04-25T11:22:11.998Z</time></trkpt><trkpt lat="45.9879672180998" lon="12.233795585793327"><ele>223.0</ele><time>2026-04-25T11:22:13.998Z</time></trkpt><trkpt lat="45.987878635637124" lon="12.233911610883608"><ele>223.0</ele><time>2026-04-25T11:22:15.998Z</time></trkpt><trkpt lat="45.987793954315734" lon="12.234027631007763"><ele>222.71428571428572</ele><time>2026-04-25T11:22:17.998Z</time></trkpt><trkpt lat="45.98769920610011" lon="12.234142543833576"><ele>222.42857142857142</ele><time>2026-04-25T11:22:19.998Z</time></trkpt><trkpt lat="45.98764798101531" lon="12.234198050327816"><ele>222.14285714285717</ele><time>2026-04-25T11:22:20.998Z</time></trkpt><trkpt lat="45.98759758872753" lon="12.234253103391351"><ele>221.85714285714286</ele><time>2026-04-25T11:22:21.998Z</time></trkpt><trkpt lat="45.98754727962896" lon="12.234311445307792"><ele>221.57142857142858</ele><time>2026-04-25T11:22:22.998Z</time></trkpt><trkpt lat="45.98749433193834" lon="12.234369522279335"><ele>221.2857142857143</ele><time>2026-04-25T11:22:23.998Z</time></trkpt><trkpt lat="45.9874407561865" lon="12.234426185035218"><ele>221.0</ele><time>2026-04-25T11:22:24.998Z</time></trkpt><trkpt lat="45.98738682713837" lon="12.234479287871258"><ele>221.4</ele><time>2026-04-25T11:22:25.998Z</time></trkpt><trkpt lat="45.98733469408346" lon="12.234530104785577"><ele>221.8</ele><time>2026-04-25T11:22:26.998Z</time></trkpt><trkpt lat="45.98724010768105" lon="12.234611287973935"><ele>222.20000000000002</ele><time>2026-04-25T11:22:28.998Z</time></trkpt><trkpt lat="45.98718078787846" lon="12.234671057271493"><ele>222.60000000000002</ele><time>2026-04-25T11:22:29.998Z</time></trkpt><trkpt lat="45.9870997368685" lon="12.234776723651724"><ele>223.0</ele><time>2026-04-25T11:22:32Z</time></trkpt><trkpt lat="45.98706819212869" lon="12.234921375139859"><ele>223.0</ele><time>2026-04-25T11:22:34Z</time></trkpt><trkpt lat="45.98703670968088" lon="12.23506545203951"><ele>223.0</ele><time>2026-04-25T11:22:36Z</time></trkpt><trkpt lat="45.98700537218076" lon="12.235202856124864"><ele>223.0</ele><time>2026-04-25T11:22:38Z</time></trkpt><trkpt lat="45.98700701392887" lon="12.235343227397939"><ele>223.0</ele><time>2026-04-25T11:22:40Z</time></trkpt><trkpt lat="45.98706691356472" lon="12.235487336097561"><ele>223.0</ele><time>2026-04-25T11:22:42Z</time></trkpt><trkpt lat="45.98715278431093" lon="12.23557395879175"><ele>223.0</ele><time>2026-04-25T11:22:44Z</time></trkpt><trkpt lat="45.98724389622646" lon="12.235627313711465"><ele>223.0</ele><time>2026-04-25T11:22:46Z</time></trkpt><trkpt lat="45.987323025368696" lon="12.235696566444794"><ele>223.0</ele><time>2026-04-25T11:22:48Z</time></trkpt><trkpt lat="45.98740055837957" lon="12.235758464073722"><ele>223.0</ele><time>2026-04-25T11:22:50Z</time></trkpt><trkpt lat="45.98744343405442" lon="12.235869338746632"><ele>223.0</ele><time>2026-04-25T11:22:52Z</time></trkpt><trkpt lat="45.98745220245179" lon="12.236000157764899"><ele>222.8</ele><time>2026-04-25T11:22:54Z</time></trkpt><trkpt lat="45.987444147911276" lon="12.236130393898351"><ele>222.60000000000002</ele><time>2026-04-25T11:22:56Z</time></trkpt><trkpt lat="45.98742265081251" lon="12.236254377788597"><ele>222.39999999999998</ele><time>2026-04-25T11:22:58Z</time></trkpt><trkpt lat="45.9873973666884" lon="12.236381218665006"><ele>222.2</ele><time>2026-04-25T11:23:00Z</time></trkpt><trkpt lat="45.9873785956033" lon="12.236523137886474"><ele>222.0</ele><time>2026-04-25T11:23:02Z</time></trkpt><trkpt lat="45.987348681395424" lon="12.236667590442584"><ele>222.39999999999998</ele><time>2026-04-25T11:23:04Z</time></trkpt><trkpt lat="45.987315713089" lon="12.236812516993023"><ele>222.79999999999998</ele><time>2026-04-25T11:23:06Z</time></trkpt><trkpt lat="45.98729932021316" lon="12.236955431335236"><ele>223.2</ele><time>2026-04-25T11:23:08Z</time></trkpt><trkpt lat="45.987304695595235" lon="12.237094804825364"><ele>223.6</ele><time>2026-04-25T11:23:10Z</time></trkpt><trkpt lat="45.987332615014076" lon="12.237241466630005"><ele>224.0</ele><time>2026-04-25T11:23:12Z</time></trkpt><trkpt lat="45.987384553112115" lon="12.237384312026999"><ele>223.6</ele><time>2026-04-25T11:23:14Z</time></trkpt><trkpt lat="45.98744753400633" lon="12.23750123866368"><ele>223.2</ele><time>2026-04-25T11:23:16Z</time></trkpt><trkpt lat="45.98750142336517" lon="12.237571476255198"><ele>222.79999999999998</ele><time>2026-04-25T11:23:18Z</time></trkpt><trkpt lat="45.98756573567806" lon="12.237696621397902"><ele>222.39999999999998</ele><time>2026-04-25T11:23:19.999Z</time></trkpt><trkpt lat="45.98764042664475" lon="12.237796123689263"><ele>222.0</ele><time>2026-04-25T11:23:21.999Z</time></trkpt><trkpt lat="45.987702148975956" lon="12.237839265783085"><ele>222.0</ele><time>2026-04-25T11:23:23.999Z</time></trkpt><trkpt lat="45.9877708348736" lon="12.237832549947811"><ele>222.0</ele><time>2026-04-25T11:23:25.999Z</time></trkpt><trkpt lat="45.987853017021" lon="12.237823770279956"><ele>222.0</ele><time>2026-04-25T11:23:27.999Z</time></trkpt><trkpt lat="45.98793650752477" lon="12.237817350085914"><ele>222.0</ele><time>2026-04-25T11:23:29.999Z</time></trkpt><trkpt lat="45.98803255731974" lon="12.237827145470913"><ele>222.0</ele><time>2026-04-25T11:23:31.999Z</time></trkpt><trkpt lat="45.988127517929755" lon="12.23782154175826"><ele>222.0</ele><time>2026-04-25T11:23:33.999Z</time></trkpt><trkpt lat="45.98822491739763" lon="12.237809955883458"><ele>222.0</ele><time>2026-04-25T11:23:35.999Z</time></trkpt><trkpt lat="45.988317517090174" lon="12.237804646032991"><ele>222.0</ele><time>2026-04-25T11:23:37.999Z</time></trkpt><trkpt lat="45.98841450134114" lon="12.237810262788653"><ele>222.0</ele><time>2026-04-25T11:23:39.999Z</time></trkpt><trkpt lat="45.9885090122423" lon="12.237818700131394"><ele>222.0</ele><time>2026-04-25T11:23:41.999Z</time></trkpt><trkpt lat="45.98860962701701" lon="12.237814452714428"><ele>222.0</ele><time>2026-04-25T11:23:43.999Z</time></trkpt><trkpt lat="45.988717027822055" lon="12.237820725470264"><ele>221.8</ele><time>2026-04-25T11:23:45.999Z</time></trkpt><trkpt lat="45.988824778584366" lon="12.237846174546588"><ele>221.6</ele><time>2026-04-25T11:23:47.999Z</time></trkpt><trkpt lat="45.98892028441296" lon="12.237915866415102"><ele>221.40000000000003</ele><time>2026-04-25T11:23:49.999Z</time></trkpt><trkpt lat="45.98899868025952" lon="12.238003779560515"><ele>221.20000000000002</ele><time>2026-04-25T11:23:51.999Z</time></trkpt><trkpt lat="45.98908732619853" lon="12.238091134586831"><ele>221.0</ele><time>2026-04-25T11:23:53.999Z</time></trkpt><trkpt lat="45.98917679922101" lon="12.23817176935699"><ele>221.0</ele><time>2026-04-25T11:23:55.999Z</time></trkpt><trkpt lat="45.98927502789764" lon="12.238261158859356"><ele>221.0</ele><time>2026-04-25T11:23:57.999Z</time></trkpt><trkpt lat="45.989381063015124" lon="12.238346070846966"><ele>221.0</ele><time>2026-04-25T11:23:59.999Z</time></trkpt><trkpt lat="45.98948366182035" lon="12.238427205926135"><ele>221.0</ele><time>2026-04-25T11:24:01.999Z</time></trkpt><trkpt lat="45.98959092279453" lon="12.23851143614028"><ele>221.0</ele><time>2026-04-25T11:24:03.998Z</time></trkpt><trkpt lat="45.98967902727185" lon="12.238602900433486"><ele>221.00000000000003</ele><time>2026-04-25T11:24:05.997Z</time></trkpt><trkpt lat="45.989741863590616" lon="12.238655599002284"><ele>221.00000000000003</ele><time>2026-04-25T11:24:06.997Z</time></trkpt><trkpt lat="45.98983036719318" lon="12.238779488100397"><ele>221.0</ele><time>2026-04-25T11:24:08.997Z</time></trkpt><trkpt lat="45.989900266866684" lon="12.238912963916164"><ele>221.0</ele><time>2026-04-25T11:24:10.997Z</time></trkpt><trkpt lat="45.98993975759577" lon="12.239048519507309"><ele>221.0</ele><time>2026-04-25T11:24:12.997Z</time></trkpt><trkpt lat="45.98996543937934" lon="12.239181387829692"><ele>221.00000000000003</ele><time>2026-04-25T11:24:14.997Z</time></trkpt><trkpt lat="45.99001725226151" lon="12.239322424896296"><ele>221.00000000000003</ele><time>2026-04-25T11:24:16.997Z</time></trkpt><trkpt lat="45.99007592042792" lon="12.239466510141572"><ele>221.0</ele><time>2026-04-25T11:24:18.997Z</time></trkpt><trkpt lat="45.99010851167223" lon="12.239544336594438"><ele>221.0</ele><time>2026-04-25T11:24:19.997Z</time></trkpt><trkpt lat="45.9901665716662" lon="12.239681109520435"><ele>221.0</ele><time>2026-04-25T11:24:21.997Z</time></trkpt><trkpt lat="45.99021385238521" lon="12.239808379473462"><ele>221.0</ele><time>2026-04-25T11:24:23.997Z</time></trkpt><trkpt lat="45.99023809687916" lon="12.23996661353239"><ele>221.0</ele><time>2026-04-25T11:24:25.997Z</time></trkpt><trkpt lat="45.99022739517784" lon="12.24014296312747"><ele>221.0</ele><time>2026-04-25T11:24:27.997Z</time></trkpt><trkpt lat="45.99022359368268" lon="12.240317947599289"><ele>221.0</ele><time>2026-04-25T11:24:29.997Z</time></trkpt><trkpt lat="45.99023756011384" lon="12.240482553784283"><ele>221.00000000000003</ele><time>2026-04-25T11:24:31.997Z</time></trkpt><trkpt lat="45.99028061301075" lon="12.240622135043857"><ele>221.00000000000003</ele><time>2026-04-25T11:24:33.997Z</time></trkpt><trkpt lat="45.99035635811643" lon="12.240743915485101"><ele>221.0</ele><time>2026-04-25T11:24:35.997Z</time></trkpt><trkpt lat="45.990415187337945" lon="12.240851442351083"><ele>221.0</ele><time>2026-04-25T11:24:37.999Z</time></trkpt><trkpt lat="45.99048654213676" lon="12.240991003443026"><ele>221.0</ele><time>2026-04-25T11:24:39.999Z</time></trkpt><trkpt lat="45.990549372201286" lon="12.241116286436846"><ele>221.00000000000003</ele><time>2026-04-25T11:24:42Z</time></trkpt><trkpt lat="45.990653956112574" lon="12.241211155439428"><ele>221.00000000000003</ele><time>2026-04-25T11:24:43.999Z</time></trkpt><trkpt lat="45.99070684343442" lon="12.241275118491833"><ele>221.0</ele><time>2026-04-25T11:24:45Z</time></trkpt><trkpt lat="45.990790182401355" lon="12.241405354862625"><ele>221.0</ele><time>2026-04-25T11:24:47Z</time></trkpt><trkpt lat="45.99087365674051" lon="12.241542037285491"><ele>221.0</ele><time>2026-04-25T11:24:49Z</time></trkpt><trkpt lat="45.99095434071303" lon="12.241665856991403"><ele>221.0</ele><time>2026-04-25T11:24:51Z</time></trkpt><trkpt lat="45.99103090836488" lon="12.241775032035495"><ele>221.0</ele><time>2026-04-25T11:24:52.999Z</time></trkpt><trkpt lat="45.99111588014204" lon="12.24189325260616"><ele>221.0</ele><time>2026-04-25T11:24:54.999Z</time></trkpt><trkpt lat="45.99120719196448" lon="12.242009730812011"><ele>221.0</ele><time>2026-04-25T11:24:56.999Z</time></trkpt><trkpt lat="45.99129648430621" lon="12.242125853010776"><ele>221.0</ele><time>2026-04-25T11:24:58.999Z</time></trkpt><trkpt lat="45.99137706906664" lon="12.242246858113853"><ele>221.0</ele><time>2026-04-25T11:25:00.999Z</time></trkpt><trkpt lat="45.99145324980275" lon="12.24238264197994"><ele>221.0</ele><time>2026-04-25T11:25:02.999Z</time></trkpt><trkpt lat="45.99153296587769" lon="12.242501497388616"><ele>221.0</ele><time>2026-04-25T11:25:04.999Z</time></trkpt><trkpt lat="45.991648427049945" lon="12.242514520895213"><ele>221.00000000000003</ele><time>2026-04-25T11:25:06.999Z</time></trkpt><trkpt lat="45.99171228547133" lon="12.242520866749283"><ele>221.00000000000003</ele><time>2026-04-25T11:25:07.999Z</time></trkpt><trkpt lat="45.99182109858484" lon="12.242538672635147"><ele>221.0</ele><time>2026-04-25T11:25:09.999Z</time></trkpt><trkpt lat="45.99190379827338" lon="12.242569803827225"><ele>221.0</ele><time>2026-04-25T11:25:11.999Z</time></trkpt><trkpt lat="45.991948261950704" lon="12.242685169543906"><ele>221.0</ele><time>2026-04-25T11:25:13.999Z</time></trkpt><trkpt lat="45.991968226413015" lon="12.242839738537263"><ele>221.00000000000003</ele><time>2026-04-25T11:25:15.999Z</time></trkpt><trkpt lat="45.991984082505915" lon="12.243002307054095"><ele>221.00000000000003</ele><time>2026-04-25T11:25:17.999Z</time></trkpt><trkpt lat="45.99199786768404" lon="12.24315736445687"><ele>221.0</ele><time>2026-04-25T11:25:19.999Z</time></trkpt><trkpt lat="45.991949357307526" lon="12.243290071422392"><ele>221.0</ele><time>2026-04-25T11:25:21.999Z</time></trkpt><trkpt lat="45.99190804124602" lon="12.243395333101525"><ele>221.20000000000002</ele><time>2026-04-25T11:25:23.999Z</time></trkpt><trkpt lat="45.99192538942977" lon="12.243538977764041"><ele>221.40000000000003</ele><time>2026-04-25T11:25:25.999Z</time></trkpt><trkpt lat="45.991961144451956" lon="12.243682051960798"><ele>221.6</ele><time>2026-04-25T11:25:27.999Z</time></trkpt><trkpt lat="45.99199527303765" lon="12.243817089339677"><ele>221.8</ele><time>2026-04-25T11:25:29.999Z</time></trkpt><trkpt lat="45.99205839106352" lon="12.243923844884426"><ele>222.0</ele><time>2026-04-25T11:25:31.999Z</time></trkpt><trkpt lat="45.992144636343625" lon="12.24395323717017"><ele>222.0</ele><time>2026-04-25T11:25:33.999Z</time></trkpt><trkpt lat="45.992214333532864" lon="12.243876175707646"><ele>222.0</ele><time>2026-04-25T11:25:35.999Z</time></trkpt><trkpt lat="45.992267139017954" lon="12.24379501397482"><ele>222.0</ele><time>2026-04-25T11:25:37.999Z</time></trkpt><trkpt lat="45.992317010098596" lon="12.243850922949667"><ele>222.0</ele><time>2026-04-25T11:25:39.998Z</time></trkpt><trkpt lat="45.992366597215344" lon="12.24391394708255"><ele>222.0</ele><time>2026-04-25T11:25:42.998Z</time></trkpt><trkpt lat="45.992434465016814" lon="12.243853329747443"><ele>222.0</ele><time>2026-04-25T11:25:45.998Z</time></trkpt><trkpt lat="45.99249237057815" lon="12.243775445181035"><ele>222.39999999999998</ele><time>2026-04-25T11:25:47.998Z</time></trkpt><trkpt lat="45.99256816211694" lon="12.243806839215281"><ele>222.79999999999998</ele><time>2026-04-25T11:25:49.998Z</time></trkpt><trkpt lat="45.99265166788489" lon="12.243867293501186"><ele>223.2</ele><time>2026-04-25T11:25:51.998Z</time></trkpt><trkpt lat="45.99274508554324" lon="12.243916153733986"><ele>223.6</ele><time>2026-04-25T11:25:53.998Z</time></trkpt><trkpt lat="45.99282072910663" lon="12.243969269049286"><ele>224.0</ele><time>2026-04-25T11:25:55.998Z</time></trkpt><trkpt lat="45.99292737660567" lon="12.244021560181984"><ele>224.6</ele><time>2026-04-25T11:25:57.998Z</time></trkpt><trkpt lat="45.993028263428386" lon="12.244039988929421"><ele>225.2</ele><time>2026-04-25T11:25:59.998Z</time></trkpt><trkpt lat="45.993128950859536" lon="12.244039480543156"><ele>225.79999999999998</ele><time>2026-04-25T11:26:01.998Z</time></trkpt><trkpt lat="45.99322488633664" lon="12.24401716420823"><ele>226.39999999999998</ele><time>2026-04-25T11:26:03.998Z</time></trkpt><trkpt lat="45.99331406179795" lon="12.243978690223441"><ele>227.0</ele><time>2026-04-25T11:26:05.998Z</time></trkpt><trkpt lat="45.993383712568225" lon="12.243990043595957"><ele>227.00000000000003</ele><time>2026-04-25T11:26:07.998Z</time></trkpt><trkpt lat="45.99340523969408" lon="12.244103687211423"><ele>227.0</ele><time>2026-04-25T11:26:09.998Z</time></trkpt><trkpt lat="45.99340489490539" lon="12.244233169851837"><ele>227.0</ele><time>2026-04-25T11:26:11.998Z</time></trkpt><trkpt lat="45.99342821658901" lon="12.244356094731645"><ele>227.0</ele><time>2026-04-25T11:26:13.998Z</time></trkpt><trkpt lat="45.993452597129995" lon="12.244487163250252"><ele>227.00000000000003</ele><time>2026-04-25T11:26:15.998Z</time></trkpt><trkpt lat="45.993476576615166" lon="12.244616075710656"><ele>227.0</ele><time>2026-04-25T11:26:17.998Z</time></trkpt><trkpt lat="45.9935013115572" lon="12.244749049473306"><ele>226.8</ele><time>2026-04-25T11:26:19.998Z</time></trkpt><trkpt lat="45.99354169326925" lon="12.244872941920388"><ele>226.6</ele><time>2026-04-25T11:26:21.998Z</time></trkpt><trkpt lat="45.993570212683004" lon="12.24500339460257"><ele>226.40000000000003</ele><time>2026-04-25T11:26:23.997Z</time></trkpt><trkpt lat="45.99358181280585" lon="12.245134513036264"><ele>226.20000000000002</ele><time>2026-04-25T11:26:25.997Z</time></trkpt><trkpt lat="45.993625618148705" lon="12.245256230171913"><ele>226.0</ele><time>2026-04-25T11:26:27.997Z</time></trkpt><trkpt lat="45.993651323196595" lon="12.245381185146421"><ele>226.0</ele><time>2026-04-25T11:26:29.997Z</time></trkpt><trkpt lat="45.993661433394024" lon="12.245515531941239"><ele>226.00000000000003</ele><time>2026-04-25T11:26:31.997Z</time></trkpt><trkpt lat="45.993681713251625" lon="12.245638234948554"><ele>226.00000000000003</ele><time>2026-04-25T11:26:33.997Z</time></trkpt><trkpt lat="45.99370177885924" lon="12.245768221692183"><ele>226.0</ele><time>2026-04-25T11:26:35.997Z</time></trkpt><trkpt lat="45.99373348731591" lon="12.245890936864798"><ele>226.0</ele><time>2026-04-25T11:26:37.997Z</time></trkpt><trkpt lat="45.99374752455385" lon="12.246023997345379"><ele>225.99999999999997</ele><time>2026-04-25T11:26:39.997Z</time></trkpt><trkpt lat="45.99376316434732" lon="12.246155453362059"><ele>226.0</ele><time>2026-04-25T11:26:41.997Z</time></trkpt><trkpt lat="45.99377828600592" lon="12.246274638843415"><ele>226.0</ele><time>2026-04-25T11:26:44Z</time></trkpt><trkpt lat="45.99378072061498" lon="12.24638798846885"><ele>226.0</ele><time>2026-04-25T11:26:47Z</time></trkpt><trkpt lat="45.99368515812789" lon="12.24647100643623"><ele>225.99999999999997</ele><time>2026-04-25T11:26:52Z</time></trkpt><trkpt lat="45.99360632580762" lon="12.246504550882369"><ele>226.0</ele><time>2026-04-25T11:26:54Z</time></trkpt><trkpt lat="45.993524444323356" lon="12.246537774835613"><ele>226.0</ele><time>2026-04-25T11:26:56Z</time></trkpt><trkpt lat="45.993435755532" lon="12.24658137924201"><ele>226.00000000000003</ele><time>2026-04-25T11:26:58Z</time></trkpt><trkpt lat="45.993342220751" lon="12.246624123388793"><ele>226.00000000000003</ele><time>2026-04-25T11:27:00Z</time></trkpt><trkpt lat="45.99324356197818" lon="12.24667641737118"><ele>226.0</ele><time>2026-04-25T11:27:02Z</time></trkpt><trkpt lat="45.99314350305814" lon="12.246718916409977"><ele>226.0</ele><time>2026-04-25T11:27:04Z</time></trkpt><trkpt lat="45.993044369630006" lon="12.246771323773647"><ele>226.25</ele><time>2026-04-25T11:27:06Z</time></trkpt><trkpt lat="45.99294975000998" lon="12.246793154672153"><ele>226.5</ele><time>2026-04-25T11:27:08Z</time></trkpt><trkpt lat="45.992940585945696" lon="12.247128524316608"><ele>226.75</ele><time>2026-04-25T11:27:12Z</time></trkpt><trkpt lat="45.993018490077766" lon="12.247234521061937"><ele>227.0</ele><time>2026-04-25T11:27:13.999Z</time></trkpt><trkpt lat="45.99308198099189" lon="12.247349441124111"><ele>227.6</ele><time>2026-04-25T11:27:15.999Z</time></trkpt><trkpt lat="45.99313263550565" lon="12.247479211807"><ele>228.2</ele><time>2026-04-25T11:27:17.999Z</time></trkpt><trkpt lat="45.99317028070168" lon="12.24762222096263"><ele>228.8</ele><time>2026-04-25T11:27:19.999Z</time></trkpt><trkpt lat="45.99319714650914" lon="12.24776869604684"><ele>229.4</ele><time>2026-04-25T11:27:21.999Z</time></trkpt><trkpt lat="45.99322274267691" lon="12.247915983086298"><ele>230.0</ele><time>2026-04-25T11:27:23.999Z</time></trkpt><trkpt lat="45.99325295158399" lon="12.248062505259481"><ele>229.8</ele><time>2026-04-25T11:27:25.999Z</time></trkpt><trkpt lat="45.99328881909757" lon="12.248206445050153"><ele>229.6</ele><time>2026-04-25T11:27:27.999Z</time></trkpt><trkpt lat="45.993330891053475" lon="12.248345023511378"><ele>229.39999999999998</ele><time>2026-04-25T11:27:29.999Z</time></trkpt><trkpt lat="45.993386370371645" lon="12.248476559303917"><ele>229.2</ele><time>2026-04-25T11:27:31.999Z</time></trkpt><trkpt lat="45.993445287805464" lon="12.248598123702827"><ele>229.0</ele><time>2026-04-25T11:27:33.999Z</time></trkpt><trkpt lat="45.99350671024645" lon="12.248717908797259"><ele>228.99999999999997</ele><time>2026-04-25T11:27:35.999Z</time></trkpt><trkpt lat="45.99356678268318" lon="12.248828989176015"><ele>229.0</ele><time>2026-04-25T11:27:37.999Z</time></trkpt><trkpt lat="45.993624950148416" lon="12.248929100654607"><ele>229.0</ele><time>2026-04-25T11:27:39.999Z</time></trkpt><trkpt lat="45.993677546767735" lon="12.249023138545683"><ele>229.0</ele><time>2026-04-25T11:27:41.999Z</time></trkpt><trkpt lat="45.99372872914854" lon="12.249113351564665"><ele>228.99999999999997</ele><time>2026-04-25T11:27:43.999Z</time></trkpt><trkpt lat="45.993777965485535" lon="12.249195620929227"><ele>229.0</ele><time>2026-04-25T11:27:45.999Z</time></trkpt><trkpt lat="45.99382396905441" lon="12.249274076057366"><ele>229.16666666666666</ele><time>2026-04-25T11:27:47.999Z</time></trkpt><trkpt lat="45.993867792801694" lon="12.249358016625642"><ele>229.33333333333331</ele><time>2026-04-25T11:27:49.999Z</time></trkpt><trkpt lat="45.993917465374686" lon="12.249431059622925"><ele>229.5</ele><time>2026-04-25T11:27:51.999Z</time></trkpt><trkpt lat="45.99396640324975" lon="12.249491648036754"><ele>229.66666666666669</ele><time>2026-04-25T11:27:53.999Z</time></trkpt><trkpt lat="45.99404595998564" lon="12.249568913684373"><ele>229.83333333333334</ele><time>2026-04-25T11:27:56.999Z</time></trkpt><trkpt lat="45.99411078179814" lon="12.249619105013222"><ele>230.0</ele><time>2026-04-25T11:27:58.998Z</time></trkpt><trkpt lat="45.994180112664274" lon="12.249676010266283"><ele>230.0</ele><time>2026-04-25T11:28:00.998Z</time></trkpt><trkpt lat="45.99425380200867" lon="12.249740884698415"><ele>230.0</ele><time>2026-04-25T11:28:02.998Z</time></trkpt><trkpt lat="45.99433182423397" lon="12.249812782366297"><ele>230.0</ele><time>2026-04-25T11:28:04.998Z</time></trkpt><trkpt lat="45.99441354165324" lon="12.249885892825334"><ele>230.0</ele><time>2026-04-25T11:28:06.998Z</time></trkpt><trkpt lat="45.99449936773706" lon="12.249967782979372"><ele>230.0</ele><time>2026-04-25T11:28:08.998Z</time></trkpt><trkpt lat="45.99458663817289" lon="12.250052308172645"><ele>230.2</ele><time>2026-04-25T11:28:10.998Z</time></trkpt><trkpt lat="45.99467843865458" lon="12.250130830493898"><ele>230.4</ele><time>2026-04-25T11:28:12.998Z</time></trkpt><trkpt lat="45.9947683765799" lon="12.25022770883257"><ele>230.60000000000002</ele><time>2026-04-25T11:28:14.998Z</time></trkpt><trkpt lat="45.99486584409372" lon="12.250309355405184"><ele>230.8</ele><time>2026-04-25T11:28:16.998Z</time></trkpt><trkpt lat="45.994962139301585" lon="12.25039874826146"><ele>231.0</ele><time>2026-04-25T11:28:18.998Z</time></trkpt><trkpt lat="45.99505779085007" lon="12.250481177258889"><ele>231.0</ele><time>2026-04-25T11:28:20.998Z</time></trkpt><trkpt lat="45.99515131544543" lon="12.250577839282773"><ele>231.0</ele><time>2026-04-25T11:28:22.998Z</time></trkpt><trkpt lat="45.995247358256556" lon="12.250681546752364"><ele>231.0</ele><time>2026-04-25T11:28:24.998Z</time></trkpt><trkpt lat="45.9953455919747" lon="12.25078801619539"><ele>231.0</ele><time>2026-04-25T11:28:26.998Z</time></trkpt><trkpt lat="45.99545873566161" lon="12.250862538341718"><ele>231.14285714285714</ele><time>2026-04-25T11:28:28.998Z</time></trkpt><trkpt lat="45.99551835979068" lon="12.250897857056682"><ele>231.28571428571428</ele><time>2026-04-25T11:28:29.998Z</time></trkpt><trkpt lat="45.995578070597965" lon="12.250930821796336"><ele>231.42857142857144</ele><time>2026-04-25T11:28:30.998Z</time></trkpt><trkpt lat="45.995639568042314" lon="12.250963306263566"><ele>231.57142857142858</ele><time>2026-04-25T11:28:31.998Z</time></trkpt><trkpt lat="45.995698337947786" lon="12.251003156875685"><ele>231.71428571428572</ele><time>2026-04-25T11:28:32.998Z</time></trkpt><trkpt lat="45.99575549034899" lon="12.251053789157918"><ele>231.8571428571429</ele><time>2026-04-25T11:28:33.998Z</time></trkpt><trkpt lat="45.99580694701064" lon="12.251112793788371"><ele>232.00000000000003</ele><time>2026-04-25T11:28:34.998Z</time></trkpt><trkpt lat="45.995857453062634" lon="12.251175955089051"><ele>232.00000000000003</ele><time>2026-04-25T11:28:35.998Z</time></trkpt><trkpt lat="45.995908935924525" lon="12.251239100791047"><ele>232.0</ele><time>2026-04-25T11:28:36.998Z</time></trkpt><trkpt lat="45.995959388223575" lon="12.251300794284528"><ele>232.00000000000003</ele><time>2026-04-25T11:28:37.998Z</time></trkpt><trkpt lat="45.996009056935705" lon="12.251358547471241"><ele>232.00000000000003</ele><time>2026-04-25T11:28:38.998Z</time></trkpt><trkpt lat="45.996059733061614" lon="12.251417534894381"><ele>232.0</ele><time>2026-04-25T11:28:39.998Z</time></trkpt><trkpt lat="45.99611133599121" lon="12.251477194699564"><ele>232.00000000000003</ele><time>2026-04-25T11:28:40.998Z</time></trkpt><trkpt lat="45.9961612818276" lon="12.251536335795743"><ele>232.00000000000003</ele><time>2026-04-25T11:28:41.998Z</time></trkpt><trkpt lat="45.99620859915305" lon="12.251596745644605"><ele>232.0</ele><time>2026-04-25T11:28:42.997Z</time></trkpt><trkpt lat="45.9962937606819" lon="12.25172050451755"><ele>232.0</ele><time>2026-04-25T11:28:44.997Z</time></trkpt><trkpt lat="45.996366408609035" lon="12.251845812117244"><ele>232.0</ele><time>2026-04-25T11:28:46.997Z</time></trkpt><trkpt lat="45.99642886088046" lon="12.251961647385894"><ele>232.0</ele><time>2026-04-25T11:28:48.997Z</time></trkpt><trkpt lat="45.99650528451704" lon="12.252075455183007"><ele>232.0</ele><time>2026-04-25T11:28:51Z</time></trkpt><trkpt lat="45.996587492741305" lon="12.252163936116917"><ele>233.5</ele><time>2026-04-25T11:28:53Z</time></trkpt><trkpt lat="45.9966854659101" lon="12.252231154290232"><ele>235.0</ele><time>2026-04-25T11:28:55Z</time></trkpt><trkpt lat="45.99678897102805" lon="12.25229486532667"><ele>236.5</ele><time>2026-04-25T11:28:57Z</time></trkpt><trkpt lat="45.99688628865034" lon="12.252385851840225"><ele>238.0</ele><time>2026-04-25T11:28:59Z</time></trkpt><trkpt lat="45.99697660085151" lon="12.252492810386183"><ele>238.0</ele><time>2026-04-25T11:29:01Z</time></trkpt><trkpt lat="45.997054118453505" lon="12.252617601593801"><ele>238.0</ele><time>2026-04-25T11:29:03Z</time></trkpt><trkpt lat="45.99712217517203" lon="12.252738515693066"><ele>238.0</ele><time>2026-04-25T11:29:05Z</time></trkpt><trkpt lat="45.997186115478115" lon="12.252852181045963"><ele>238.0</ele><time>2026-04-25T11:29:07Z</time></trkpt><trkpt lat="45.997237852520485" lon="12.25297882808722"><ele>238.0</ele><time>2026-04-25T11:29:09Z</time></trkpt><trkpt lat="45.997286946196404" lon="12.253123204908654"><ele>237.75</ele><time>2026-04-25T11:29:11Z</time></trkpt><trkpt lat="45.99733805625666" lon="12.253272847442066"><ele>237.5</ele><time>2026-04-25T11:29:13Z</time></trkpt><trkpt lat="45.997388234646166" lon="12.253430299802956"><ele>237.25</ele><time>2026-04-25T11:29:15Z</time></trkpt><trkpt lat="45.997440176938426" lon="12.253587118841429"><ele>237.0</ele><time>2026-04-25T11:29:17Z</time></trkpt><trkpt lat="45.997491847442944" lon="12.253741763412869"><ele>238.0</ele><time>2026-04-25T11:29:19Z</time></trkpt><trkpt lat="45.9975422821701" lon="12.25389841711443"><ele>239.0</ele><time>2026-04-25T11:29:21Z</time></trkpt><trkpt lat="45.99759778957706" lon="12.254055297543697"><ele>240.0</ele><time>2026-04-25T11:29:23Z</time></trkpt><trkpt lat="45.9976500570796" lon="12.254207662191831"><ele>241.0</ele><time>2026-04-25T11:29:25Z</time></trkpt><trkpt lat="45.997696203229836" lon="12.254367265637907"><ele>241.0</ele><time>2026-04-25T11:29:27Z</time></trkpt><trkpt lat="45.99774391503976" lon="12.254521054147085"><ele>241.0</ele><time>2026-04-25T11:29:29Z</time></trkpt><trkpt lat="45.99779286606275" lon="12.25467873946614"><ele>241.0</ele><time>2026-04-25T11:29:30.999Z</time></trkpt><trkpt lat="45.99783855863038" lon="12.254837557091694"><ele>241.0</ele><time>2026-04-25T11:29:32.999Z</time></trkpt><trkpt lat="45.99788177817476" lon="12.254995357980254"><ele>240.4</ele><time>2026-04-25T11:29:34.999Z</time></trkpt><trkpt lat="45.99792165632039" lon="12.255151307507377"><ele>239.8</ele><time>2026-04-25T11:29:36.999Z</time></trkpt><trkpt lat="45.99796192423332" lon="12.255300187881609"><ele>239.20000000000002</ele><time>2026-04-25T11:29:38.999Z</time></trkpt><trkpt lat="45.99800190051085" lon="12.255435620695811"><ele>238.60000000000002</ele><time>2026-04-25T11:29:40.999Z</time></trkpt><trkpt lat="45.998056863274364" lon="12.255543042740655"><ele>238.0</ele><time>2026-04-25T11:29:42.999Z</time></trkpt><trkpt lat="45.99808427864257" lon="12.255655818357932"><ele>237.8</ele><time>2026-04-25T11:29:44.999Z</time></trkpt><trkpt lat="45.99812602589565" lon="12.255788592394756"><ele>237.60000000000002</ele><time>2026-04-25T11:29:46.999Z</time></trkpt><trkpt lat="45.99817269621425" lon="12.255930988000781"><ele>237.39999999999998</ele><time>2026-04-25T11:29:48.999Z</time></trkpt><trkpt lat="45.99821246543315" lon="12.256001695912246"><ele>237.2</ele><time>2026-04-25T11:29:49.999Z</time></trkpt><trkpt lat="45.998249456234355" lon="12.256172472255438"><ele>237.0</ele><time>2026-04-25T11:29:51.999Z</time></trkpt><trkpt lat="45.998271508432296" lon="12.256264388873086"><ele>236.99999999999997</ele><time>2026-04-25T11:29:52.999Z</time></trkpt><trkpt lat="45.99829027617868" lon="12.256354840249056"><ele>237.0</ele><time>2026-04-25T11:29:53.999Z</time></trkpt><trkpt lat="45.998310661748164" lon="12.256445649604595"><ele>236.99999999999997</ele><time>2026-04-25T11:29:54.999Z</time></trkpt><trkpt lat="45.99833403238255" lon="12.256539361335571"><ele>236.99999999999997</ele><time>2026-04-25T11:29:55.999Z</time></trkpt><trkpt lat="45.998360554565735" lon="12.256632888820924"><ele>237.0</ele><time>2026-04-25T11:29:56.999Z</time></trkpt><trkpt lat="45.99838547792091" lon="12.256727963218129"><ele>236.99999999999997</ele><time>2026-04-25T11:29:57.999Z</time></trkpt><trkpt lat="45.99840941908663" lon="12.256823138192203"><ele>236.99999999999997</ele><time>2026-04-25T11:29:58.999Z</time></trkpt><trkpt lat="45.99843810058044" lon="12.256917832953691"><ele>237.33333333333334</ele><time>2026-04-25T11:29:59.999Z</time></trkpt><trkpt lat="45.99846492204177" lon="12.257009240658615"><ele>237.66666666666669</ele><time>2026-04-25T11:30:00.999Z</time></trkpt><trkpt lat="45.998505532717594" lon="12.257093602939593"><ele>238.0</ele><time>2026-04-25T11:30:01.999Z</time></trkpt><trkpt lat="45.99854365482812" lon="12.257175681002504"><ele>238.33333333333334</ele><time>2026-04-25T11:30:02.999Z</time></trkpt><trkpt lat="45.99858511771426" lon="12.257250475748911"><ele>238.66666666666669</ele><time>2026-04-25T11:30:03.999Z</time></trkpt><trkpt lat="45.99866963460651" lon="12.257399446869718"><ele>239.0</ele><time>2026-04-25T11:30:05.999Z</time></trkpt><trkpt lat="45.998711693746515" lon="12.257471699226267"><ele>239.0</ele><time>2026-04-25T11:30:06.999Z</time></trkpt><trkpt lat="45.998780999019615" lon="12.257606130934619"><ele>239.0</ele><time>2026-04-25T11:30:08.999Z</time></trkpt><trkpt lat="45.998856266631634" lon="12.257746813115903"><ele>239.0</ele><time>2026-04-25T11:30:10.999Z</time></trkpt><trkpt lat="45.99893179706891" lon="12.257883577296345"><ele>239.0</ele><time>2026-04-25T11:30:12.999Z</time></trkpt><trkpt lat="45.99900520285239" lon="12.258015193325742"><ele>238.79999999999998</ele><time>2026-04-25T11:30:14.998Z</time></trkpt><trkpt lat="45.9990790922247" lon="12.25813461486437"><ele>238.59999999999997</ele><time>2026-04-25T11:30:16.998Z</time></trkpt><trkpt lat="45.99914905782003" lon="12.258237699664255"><ele>238.4</ele><time>2026-04-25T11:30:18.998Z</time></trkpt><trkpt lat="45.99919851368887" lon="12.25833907274107"><ele>238.2</ele><time>2026-04-25T11:30:20.998Z</time></trkpt><trkpt lat="45.999253939401335" lon="12.25842913475413"><ele>238.0</ele><time>2026-04-25T11:30:22.998Z</time></trkpt><trkpt lat="45.99931072374585" lon="12.258519968525757"><ele>238.66666666666666</ele><time>2026-04-25T11:30:24.998Z</time></trkpt><trkpt lat="45.99937237894351" lon="12.258605842002568"><ele>239.33333333333331</ele><time>2026-04-25T11:30:26.998Z</time></trkpt><trkpt lat="45.99942870699831" lon="12.258657467200212"><ele>240.0</ele><time>2026-04-25T11:30:28.998Z</time></trkpt><trkpt lat="45.99950085712387" lon="12.258674884304886"><ele>240.66666666666669</ele><time>2026-04-25T11:30:30.998Z</time></trkpt><trkpt lat="45.99957377301667" lon="12.258706402534317"><ele>241.33333333333334</ele><time>2026-04-25T11:30:32.998Z</time></trkpt><trkpt lat="45.99964735325566" lon="12.258769879671021"><ele>242.0</ele><time>2026-04-25T11:30:34.998Z</time></trkpt><trkpt lat="45.99970750250112" lon="12.25887129132413"><ele>240.8</ele><time>2026-04-25T11:30:36.998Z</time></trkpt><trkpt lat="45.99976199426317" lon="12.258975593654881"><ele>239.6</ele><time>2026-04-25T11:30:38.998Z</time></trkpt><trkpt lat="45.99980630794138" lon="12.25907670772818"><ele>238.40000000000003</ele><time>2026-04-25T11:30:40.998Z</time></trkpt><trkpt lat="45.99985502733842" lon="12.259138816497982"><ele>237.20000000000002</ele><time>2026-04-25T11:30:42.998Z</time></trkpt><trkpt lat="45.99977858198289" lon="12.259253604314567"><ele>236.0</ele><time>2026-04-25T11:30:45.998Z</time></trkpt><trkpt lat="45.99969003246787" lon="12.259342958226926"><ele>236.00000000000003</ele><time>2026-04-25T11:30:47.998Z</time></trkpt><trkpt lat="45.99958643884461" lon="12.259443136608628"><ele>236.0</ele><time>2026-04-25T11:30:49.998Z</time></trkpt><trkpt lat="45.99953467535527" lon="12.259508552724201"><ele>236.0</ele><time>2026-04-25T11:30:50.998Z</time></trkpt><trkpt lat="45.9994852597828" lon="12.259588531777483"><ele>236.0</ele><time>2026-04-25T11:30:51.998Z</time></trkpt><trkpt lat="45.99942303617417" lon="12.259661336014709"><ele>236.00000000000003</ele><time>2026-04-25T11:30:52.998Z</time></trkpt><trkpt lat="45.99937182406758" lon="12.259762881117144"><ele>236.0</ele><time>2026-04-25T11:30:53.998Z</time></trkpt><trkpt lat="45.99934077851222" lon="12.259884221597153"><ele>235.50000000000003</ele><time>2026-04-25T11:30:54.998Z</time></trkpt><trkpt lat="45.9992887250028" lon="12.259985513305672"><ele>235.0</ele><time>2026-04-25T11:30:56Z</time></trkpt><trkpt lat="45.999244884410416" lon="12.260093427749366"><ele>234.5</ele><time>2026-04-25T11:30:57Z</time></trkpt><trkpt lat="45.99920076010972" lon="12.260199475255334"><ele>234.0</ele><time>2026-04-25T11:30:58Z</time></trkpt><trkpt lat="45.999157367984346" lon="12.260309062938257"><ele>233.50000000000003</ele><time>2026-04-25T11:30:59Z</time></trkpt><trkpt lat="45.99911975971015" lon="12.260421606255013"><ele>233.0</ele><time>2026-04-25T11:31:00Z</time></trkpt><trkpt lat="45.99908765826641" lon="12.260520340089478"><ele>232.60000000000002</ele><time>2026-04-25T11:31:01Z</time></trkpt><trkpt lat="45.99906284527881" lon="12.260606926741046"><ele>232.20000000000002</ele><time>2026-04-25T11:31:02Z</time></trkpt><trkpt lat="45.99902948772721" lon="12.260750014421243"><ele>231.8</ele><time>2026-04-25T11:31:04Z</time></trkpt><trkpt lat="45.99899160002786" lon="12.260829975886981"><ele>231.4</ele><time>2026-04-25T11:31:06Z</time></trkpt><trkpt lat="45.99894959270486" lon="12.260966607467575"><ele>231.0</ele><time>2026-04-25T11:31:08Z</time></trkpt><trkpt lat="45.999151336904276" lon="12.261308235415438"><ele>231.28571428571428</ele><time>2026-04-25T11:31:11Z</time></trkpt><trkpt lat="45.99917108017777" lon="12.261396249598231"><ele>231.57142857142856</ele><time>2026-04-25T11:31:12Z</time></trkpt><trkpt lat="45.99919118738301" lon="12.261485725543796"><ele>231.85714285714286</ele><time>2026-04-25T11:31:13Z</time></trkpt><trkpt lat="45.999214191808356" lon="12.261575900119556"><ele>232.14285714285714</ele><time>2026-04-25T11:31:14Z</time></trkpt><trkpt lat="45.99923887343572" lon="12.261666574244973"><ele>232.42857142857142</ele><time>2026-04-25T11:31:15Z</time></trkpt><trkpt lat="45.9992593137354" lon="12.261756983957808"><ele>232.71428571428572</ele><time>2026-04-25T11:31:16Z</time></trkpt><trkpt lat="45.999276669978904" lon="12.261849206300877"><ele>233.0</ele><time>2026-04-25T11:31:17Z</time></trkpt><trkpt lat="45.99931257913397" lon="12.262019991166573"><ele>233.4</ele><time>2026-04-25T11:31:19Z</time></trkpt><trkpt lat="45.999353139593744" lon="12.262167272077672"><ele>233.8</ele><time>2026-04-25T11:31:21Z</time></trkpt><trkpt lat="45.99940303607432" lon="12.262321364846926"><ele>234.2</ele><time>2026-04-25T11:31:23Z</time></trkpt><trkpt lat="45.999423714018626" lon="12.262498801750253"><ele>234.6</ele><time>2026-04-25T11:31:25Z</time></trkpt><trkpt lat="45.99941511073852" lon="12.262591353692429"><ele>235.0</ele><time>2026-04-25T11:31:26Z</time></trkpt><trkpt lat="45.999401643169115" lon="12.262683122494641"><ele>234.99999999999997</ele><time>2026-04-25T11:31:27Z</time></trkpt><trkpt lat="45.999377352957964" lon="12.2628628260359"><ele>235.0</ele><time>2026-04-25T11:31:29Z</time></trkpt><trkpt lat="45.99936495152763" lon="12.26295322288525"><ele>235.0</ele><time>2026-04-25T11:31:30Z</time></trkpt><trkpt lat="45.99935347972606" lon="12.263046366909947"><ele>235.0</ele><time>2026-04-25T11:31:31Z</time></trkpt><trkpt lat="45.99934402213121" lon="12.263137536678494"><ele>234.99999999999997</ele><time>2026-04-25T11:31:32Z</time></trkpt><trkpt lat="45.99933628386618" lon="12.263236676764288"><ele>235.0</ele><time>2026-04-25T11:31:33Z</time></trkpt><trkpt lat="45.999322278243206" lon="12.263420456679016"><ele>234.57142857142856</ele><time>2026-04-25T11:31:35Z</time></trkpt><trkpt lat="45.999319417540214" lon="12.263521400338506"><ele>234.1428571428571</ele><time>2026-04-25T11:31:36Z</time></trkpt><trkpt lat="45.99933627213205" lon="12.263622566956636"><ele>233.71428571428572</ele><time>2026-04-25T11:31:37Z</time></trkpt><trkpt lat="45.999360759776486" lon="12.26372099204482"><ele>233.28571428571428</ele><time>2026-04-25T11:31:38Z</time></trkpt><trkpt lat="45.99939465471832" lon="12.263804887221253"><ele>232.85714285714286</ele><time>2026-04-25T11:31:39Z</time></trkpt><trkpt lat="45.999437550752766" lon="12.263897369672417"><ele>232.42857142857144</ele><time>2026-04-25T11:31:40Z</time></trkpt><trkpt lat="45.999476380075606" lon="12.263987746127434"><ele>232.00000000000003</ele><time>2026-04-25T11:31:41Z</time></trkpt><trkpt lat="45.99950467481961" lon="12.264084601735705"><ele>231.28571428571433</ele><time>2026-04-25T11:31:42Z</time></trkpt><trkpt lat="45.99952917766351" lon="12.264186647155666"><ele>230.57142857142858</ele><time>2026-04-25T11:31:43Z</time></trkpt><trkpt lat="45.99955422864749" lon="12.264284049684244"><ele>229.8571428571429</ele><time>2026-04-25T11:31:44Z</time></trkpt><trkpt lat="45.99958605835825" lon="12.264373639695997"><ele>229.14285714285717</ele><time>2026-04-25T11:31:45Z</time></trkpt><trkpt lat="45.999626212065934" lon="12.26446504689294"><ele>228.42857142857144</ele><time>2026-04-25T11:31:46Z</time></trkpt><trkpt lat="45.99967130741956" lon="12.26454612494099"><ele>227.71428571428572</ele><time>2026-04-25T11:31:47Z</time></trkpt><trkpt lat="45.99971615033292" lon="12.264629117557762"><ele>227.0</ele><time>2026-04-25T11:31:48Z</time></trkpt><trkpt lat="45.99976426077604" lon="12.264711967357515"><ele>226.14285714285717</ele><time>2026-04-25T11:31:49Z</time></trkpt><trkpt lat="45.999810560511875" lon="12.264786773153087"><ele>225.2857142857143</ele><time>2026-04-25T11:31:50Z</time></trkpt><trkpt lat="45.99986366601383" lon="12.264860612282918"><ele>224.42857142857144</ele><time>2026-04-25T11:31:50.999Z</time></trkpt><trkpt lat="45.99992042794651" lon="12.26492370183574"><ele>223.57142857142858</ele><time>2026-04-25T11:31:51.999Z</time></trkpt><trkpt lat="45.99998570142564" lon="12.264979888060052"><ele>222.71428571428572</ele><time>2026-04-25T11:31:52.999Z</time></trkpt><trkpt lat="46.00005752625735" lon="12.265027252487364"><ele>221.8571428571429</ele><time>2026-04-25T11:31:53.999Z</time></trkpt><trkpt lat="46.0001257603387" lon="12.265081044318698"><ele>221.0</ele><time>2026-04-25T11:31:54.999Z</time></trkpt><trkpt lat="46.00018191550456" lon="12.26514405587696"><ele>221.00000000000003</ele><time>2026-04-25T11:31:55.999Z</time></trkpt><trkpt lat="46.00023485941149" lon="12.265224026125892"><ele>221.0</ele><time>2026-04-25T11:31:56.999Z</time></trkpt><trkpt lat="46.0002834693877" lon="12.265304781407192"><ele>221.0</ele><time>2026-04-25T11:31:57.999Z</time></trkpt><trkpt lat="46.000332838002414" lon="12.265373019775764"><ele>221.0</ele><time>2026-04-25T11:31:58.998Z</time></trkpt><trkpt lat="46.0003862842064" lon="12.265432297623049"><ele>221.00000000000003</ele><time>2026-04-25T11:31:59.998Z</time></trkpt><trkpt lat="46.00044799817964" lon="12.265565951408878"><ele>221.0</ele><time>2026-04-25T11:32:01.998Z</time></trkpt><trkpt lat="46.00041868997094" lon="12.265723663765025"><ele>221.00000000000003</ele><time>2026-04-25T11:32:03.998Z</time></trkpt><trkpt lat="46.000345966130546" lon="12.265817599825295"><ele>221.0</ele><time>2026-04-25T11:32:05.998Z</time></trkpt><trkpt lat="46.0002905810068" lon="12.26589383245255"><ele>221.0</ele><time>2026-04-25T11:32:07.998Z</time></trkpt><trkpt lat="46.000254515507514" lon="12.266006133122067"><ele>221.0</ele><time>2026-04-25T11:32:10.998Z</time></trkpt><trkpt lat="46.00024250377884" lon="12.266102328505497"><ele>221.00000000000003</ele><time>2026-04-25T11:32:13.998Z</time></trkpt><trkpt lat="46.00022637243403" lon="12.266193358768357"><ele>221.0</ele><time>2026-04-25T11:32:16.998Z</time></trkpt><trkpt lat="46.00020975439007" lon="12.266288187745523"><ele>221.00000000000003</ele><time>2026-04-25T11:32:19.998Z</time></trkpt><trkpt lat="46.00017033004715" lon="12.26636937350975"><ele>221.0</ele><time>2026-04-25T11:32:22.998Z</time></trkpt><trkpt lat="46.000116169907976" lon="12.266460349219383"><ele>221.0</ele><time>2026-04-25T11:32:26.998Z</time></trkpt><trkpt lat="46.000048085001474" lon="12.26650482924745"><ele>221.0</ele><time>2026-04-25T11:32:30.998Z</time></trkpt><trkpt lat="45.999983839903855" lon="12.266577045398273"><ele>221.00000000000003</ele><time>2026-04-25T11:32:34.997Z</time></trkpt><trkpt lat="45.99990782645463" lon="12.266611733239875"><ele>221.0</ele><time>2026-04-25T11:32:38.997Z</time></trkpt><trkpt lat="45.99983154127945" lon="12.266633470060793"><ele>221.50000000000003</ele><time>2026-04-25T11:32:42.997Z</time></trkpt><trkpt lat="45.999750684221176" lon="12.266654759648112"><ele>222.0</ele><time>2026-04-25T11:32:46.997Z</time></trkpt><trkpt lat="45.99968883653524" lon="12.266678371344435"><ele>222.5</ele><time>2026-04-25T11:32:56.997Z</time></trkpt><trkpt lat="45.999627462226854" lon="12.266724574963698"><ele>223.0</ele><time>2026-04-25T11:33:03Z</time></trkpt><trkpt lat="45.99967981253089" lon="12.266816219956713"><ele>223.50000000000003</ele><time>2026-04-25T11:33:09Z</time></trkpt><trkpt lat="45.99974873464768" lon="12.266888751244771"><ele>224.0</ele><time>2026-04-25T11:33:12Z</time></trkpt><trkpt lat="45.99982048519403" lon="12.266880310443883"><ele>224.0</ele><time>2026-04-25T11:33:15Z</time></trkpt><trkpt lat="45.99988080184129" lon="12.266850659151538"><ele>224.0</ele><time>2026-04-25T11:33:18Z</time></trkpt><trkpt lat="45.99994445614953" lon="12.266861234263143"><ele>224.0</ele><time>2026-04-25T11:33:21.999Z</time></trkpt><trkpt lat="46.00000927213929" lon="12.266878575802561"><ele>224.0</ele><time>2026-04-25T11:33:25.999Z</time></trkpt><trkpt lat="46.000096982635256" lon="12.266874916979692"><ele>224.0</ele><time>2026-04-25T11:33:29.999Z</time></trkpt><trkpt lat="46.00018594031166" lon="12.26681833400915"><ele>224.0</ele><time>2026-04-25T11:33:32.999Z</time></trkpt><trkpt lat="46.00024728120134" lon="12.266784080957066"><ele>224.0</ele><time>2026-04-25T11:33:34.999Z</time></trkpt><trkpt lat="46.0003305387801" lon="12.266737021137255"><ele>224.00000000000003</ele><time>2026-04-25T11:33:37.999Z</time></trkpt><trkpt lat="46.00039885880755" lon="12.266706886263792"><ele>224.0</ele><time>2026-04-25T11:33:39.999Z</time></trkpt><trkpt lat="46.000469660622336" lon="12.266708151142055"><ele>224.0</ele><time>2026-04-25T11:33:41.999Z</time></trkpt><trkpt lat="46.00053454548501" lon="12.266731811096673"><ele>224.0</ele><time>2026-04-25T11:33:43.999Z</time></trkpt><trkpt lat="46.0006179276863" lon="12.266782992170993"><ele>224.00000000000003</ele><time>2026-04-25T11:33:45.999Z</time></trkpt><trkpt lat="46.000701852245996" lon="12.266842777212192"><ele>224.0</ele><time>2026-04-25T11:33:47.999Z</time></trkpt><trkpt lat="46.00077808323517" lon="12.266891073108663"><ele>222.6</ele><time>2026-04-25T11:33:49.999Z</time></trkpt><trkpt lat="46.00084365887906" lon="12.266940963246645"><ele>221.2</ele><time>2026-04-25T11:33:51.999Z</time></trkpt><trkpt lat="46.000925329958605" lon="12.267001065058906"><ele>219.79999999999998</ele><time>2026-04-25T11:33:54.999Z</time></trkpt><trkpt lat="46.001015245446844" lon="12.267044467666992"><ele>218.39999999999998</ele><time>2026-04-25T11:33:56.999Z</time></trkpt><trkpt lat="46.001097953919974" lon="12.267074230392062"><ele>217.0</ele><time>2026-04-25T11:33:58.999Z</time></trkpt><trkpt lat="46.001199170117" lon="12.267122516041209"><ele>217.0</ele><time>2026-04-25T11:34:00.999Z</time></trkpt><trkpt lat="46.00128754079937" lon="12.267183302888496"><ele>217.0</ele><time>2026-04-25T11:34:02.999Z</time></trkpt><trkpt lat="46.0013522549112" lon="12.267249218658536"><ele>217.0</ele><time>2026-04-25T11:34:04.998Z</time></trkpt><trkpt lat="46.00144033023861" lon="12.267366488913899"><ele>217.0</ele><time>2026-04-25T11:34:06.998Z</time></trkpt><trkpt lat="46.0015290562096" lon="12.267456368934413"><ele>217.0</ele><time>2026-04-25T11:34:08.998Z</time></trkpt><trkpt lat="46.001609090856626" lon="12.26755427995252"><ele>216.0</ele><time>2026-04-25T11:34:10.998Z</time></trkpt><trkpt lat="46.00168820465089" lon="12.267637683375611"><ele>215.0</ele><time>2026-04-25T11:34:12.998Z</time></trkpt><trkpt lat="46.00174207382152" lon="12.26773436777697"><ele>214.0</ele><time>2026-04-25T11:34:14.998Z</time></trkpt><trkpt lat="46.00180686983832" lon="12.267834749095583"><ele>213.0</ele><time>2026-04-25T11:34:16.998Z</time></trkpt><trkpt lat="46.00184905256729" lon="12.267902692917884"><ele>212.0</ele><time>2026-04-25T11:34:17.998Z</time></trkpt><trkpt lat="46.00196250748808" lon="12.267906195044667"><ele>212.0</ele><time>2026-04-25T11:34:19.998Z</time></trkpt><trkpt lat="46.00208407850815" lon="12.267899920839797"><ele>212.0</ele><time>2026-04-25T11:34:21.998Z</time></trkpt><trkpt lat="46.002205834120986" lon="12.267899313338916"><ele>212.0</ele><time>2026-04-25T11:34:23.998Z</time></trkpt><trkpt lat="46.002305850833466" lon="12.26795322174099"><ele>212.0</ele><time>2026-04-25T11:34:25.998Z</time></trkpt><trkpt lat="46.00239381562835" lon="12.268038460279165"><ele>211.33333333333334</ele><time>2026-04-25T11:34:27.998Z</time></trkpt><trkpt lat="46.00245586880062" lon="12.268130881672255"><ele>210.66666666666669</ele><time>2026-04-25T11:34:29.998Z</time></trkpt><trkpt lat="46.00250203747871" lon="12.268208270395597"><ele>210.0</ele><time>2026-04-25T11:34:31.998Z</time></trkpt><trkpt lat="46.002550739504365" lon="12.268297382104011"><ele>209.33333333333331</ele><time>2026-04-25T11:34:33.998Z</time></trkpt><trkpt lat="46.00260173149356" lon="12.2683949877082"><ele>208.66666666666666</ele><time>2026-04-25T11:34:35.998Z</time></trkpt><trkpt lat="46.0026623780421" lon="12.26848004336024"><ele>208.0</ele><time>2026-04-25T11:34:37.998Z</time></trkpt><trkpt lat="46.00270913320356" lon="12.268557551682076"><ele>207.33333333333331</ele><time>2026-04-25T11:34:39.998Z</time></trkpt><trkpt lat="46.00276030051843" lon="12.268650459497298"><ele>206.66666666666666</ele><time>2026-04-25T11:34:41.998Z</time></trkpt><trkpt lat="46.00281236737292" lon="12.268720091681711"><ele>206.0</ele><time>2026-04-25T11:34:43.998Z</time></trkpt><trkpt lat="46.00285749567985" lon="12.26879149421882"><ele>205.33333333333331</ele><time>2026-04-25T11:34:45.998Z</time></trkpt><trkpt lat="46.00291305968009" lon="12.268868597904097"><ele>204.66666666666666</ele><time>2026-04-25T11:34:47.998Z</time></trkpt><trkpt lat="46.00296310085808" lon="12.268962950223832"><ele>204.0</ele><time>2026-04-25T11:34:49.997Z</time></trkpt><trkpt lat="46.003034169281555" lon="12.269014167398359"><ele>203.2</ele><time>2026-04-25T11:34:51.997Z</time></trkpt><trkpt lat="46.0030697702748" lon="12.269102690677686"><ele>202.39999999999998</ele><time>2026-04-25T11:34:53.997Z</time></trkpt><trkpt lat="46.00313670265222" lon="12.269231119797304"><ele>201.6</ele><time>2026-04-25T11:34:56.997Z</time></trkpt><trkpt lat="46.00318046200085" lon="12.269346856740034"><ele>200.8</ele><time>2026-04-25T11:34:58.997Z</time></trkpt><trkpt lat="46.003231572711044" lon="12.269482256208324"><ele>200.0</ele><time>2026-04-25T11:35:00.997Z</time></trkpt><trkpt lat="46.003292308992144" lon="12.269606516684805"><ele>200.16666666666669</ele><time>2026-04-25T11:35:02.997Z</time></trkpt><trkpt lat="46.00333589925272" lon="12.269682102884728"><ele>200.33333333333334</ele><time>2026-04-25T11:35:03.997Z</time></trkpt><trkpt lat="46.00336612765695" lon="12.269768631014752"><ele>200.5</ele><time>2026-04-25T11:35:04.997Z</time></trkpt><trkpt lat="46.00340731211554" lon="12.269837812010168"><ele>200.66666666666669</ele><time>2026-04-25T11:35:05.997Z</time></trkpt><trkpt lat="46.00345220070341" lon="12.269908275572249"><ele>200.83333333333334</ele><time>2026-04-25T11:35:06.997Z</time></trkpt><trkpt lat="46.00353856980216" lon="12.27003238763851"><ele>201.0</ele><time>2026-04-25T11:35:09Z</time></trkpt><trkpt lat="46.003626753902964" lon="12.27015656951829"><ele>200.66666666666666</ele><time>2026-04-25T11:35:11Z</time></trkpt><trkpt lat="46.00367570100239" lon="12.270225593688773"><ele>200.33333333333331</ele><time>2026-04-25T11:35:12Z</time></trkpt><trkpt lat="46.0037304931862" lon="12.270279548495418"><ele>200.0</ele><time>2026-04-25T11:35:13Z</time></trkpt><trkpt lat="46.00377892540705" lon="12.27033754914602"><ele>199.66666666666666</ele><time>2026-04-25T11:35:14Z</time></trkpt><trkpt lat="46.00382975224292" lon="12.270391248771203"><ele>199.33333333333331</ele><time>2026-04-25T11:35:15Z</time></trkpt><trkpt lat="46.003930980129105" lon="12.270471303740129"><ele>199.0</ele><time>2026-04-25T11:35:17Z</time></trkpt><trkpt lat="46.00400466619813" lon="12.270553459216686"><ele>198.33333333333331</ele><time>2026-04-25T11:35:19Z</time></trkpt><trkpt lat="46.00405140632727" lon="12.27067323597172"><ele>197.66666666666666</ele><time>2026-04-25T11:35:21Z</time></trkpt><trkpt lat="46.00409325739488" lon="12.270782024892407"><ele>197.0</ele><time>2026-04-25T11:35:23Z</time></trkpt><trkpt lat="46.004133245627145" lon="12.270912716460435"><ele>196.33333333333331</ele><time>2026-04-25T11:35:25Z</time></trkpt><trkpt lat="46.00417388952229" lon="12.271017052538276"><ele>195.66666666666666</ele><time>2026-04-25T11:35:27Z</time></trkpt><trkpt lat="46.004254930293655" lon="12.271050549172323"><ele>195.0</ele><time>2026-04-25T11:35:29Z</time></trkpt><trkpt lat="46.0043242267337" lon="12.271052986025124"><ele>194.5</ele><time>2026-04-25T11:35:31Z</time></trkpt><trkpt lat="46.00439796319931" lon="12.2710770854092"><ele>194.0</ele><time>2026-04-25T11:35:33Z</time></trkpt><trkpt lat="46.00447955577901" lon="12.27107846834211"><ele>193.5</ele><time>2026-04-25T11:35:36Z</time></trkpt><trkpt lat="46.00456343496642" lon="12.271079890011194"><ele>193.0</ele><time>2026-04-25T11:35:38Z</time></trkpt><trkpt lat="46.00459377676572" lon="12.270942647931784"><ele>192.5</ele><time>2026-04-25T11:35:39Z</time></trkpt><trkpt lat="46.00466236689622" lon="12.27085773515196"><ele>192.0</ele><time>2026-04-25T11:35:40.999Z</time></trkpt><trkpt lat="46.00472572154926" lon="12.270782259251611"><ele>192.0</ele><time>2026-04-25T11:35:42.999Z</time></trkpt><trkpt lat="46.004803417723934" lon="12.270719650687457"><ele>192.0</ele><time>2026-04-25T11:35:44.999Z</time></trkpt><trkpt lat="46.00489587810829" lon="12.270683541831607"><ele>192.0</ele><time>2026-04-25T11:35:46.999Z</time></trkpt><trkpt lat="46.004989914107725" lon="12.270628532199213"><ele>192.0</ele><time>2026-04-25T11:35:48.999Z</time></trkpt><trkpt lat="46.00508396747099" lon="12.270608823300709"><ele>192.0</ele><time>2026-04-25T11:35:50.999Z</time></trkpt><trkpt lat="46.005176420230754" lon="12.27060405722673"><ele>191.33333333333334</ele><time>2026-04-25T11:35:52.999Z</time></trkpt><trkpt lat="46.00525912436236" lon="12.27062392070739"><ele>190.66666666666666</ele><time>2026-04-25T11:35:54.999Z</time></trkpt><trkpt lat="46.00532806747278" lon="12.270637693747341"><ele>190.0</ele><time>2026-04-25T11:35:56.999Z</time></trkpt><trkpt lat="46.005394128065035" lon="12.270666381464025"><ele>189.33333333333331</ele><time>2026-04-25T11:35:58.999Z</time></trkpt><trkpt lat="46.00547477030505" lon="12.270741833601685"><ele>188.66666666666666</ele><time>2026-04-25T11:36:01.999Z</time></trkpt><trkpt lat="46.00552613027867" lon="12.27079612678269"><ele>188.0</ele><time>2026-04-25T11:36:03.999Z</time></trkpt><trkpt lat="46.00554844516759" lon="12.270963220734265"><ele>188.0</ele><time>2026-04-25T11:36:05.999Z</time></trkpt><trkpt lat="46.005582010138376" lon="12.271082034868002"><ele>188.0</ele><time>2026-04-25T11:36:07.999Z</time></trkpt><trkpt lat="46.00561730409036" lon="12.271198382967837"><ele>188.0</ele><time>2026-04-25T11:36:09.999Z</time></trkpt><trkpt lat="46.00565252648134" lon="12.271307915435365"><ele>188.0</ele><time>2026-04-25T11:36:11.999Z</time></trkpt><trkpt lat="46.00568243695905" lon="12.271401715539577"><ele>188.0</ele><time>2026-04-25T11:36:13.999Z</time></trkpt><trkpt lat="46.00571728970695" lon="12.27148959932398"><ele>188.0</ele><time>2026-04-25T11:36:15.999Z</time></trkpt><trkpt lat="46.005742424004055" lon="12.271579380982413"><ele>187.57142857142856</ele><time>2026-04-25T11:36:17.999Z</time></trkpt><trkpt lat="46.005773926357264" lon="12.2716672376982"><ele>187.14285714285714</ele><time>2026-04-25T11:36:19.999Z</time></trkpt><trkpt lat="46.00578821706624" lon="12.271760603296764"><ele>186.71428571428572</ele><time>2026-04-25T11:36:21.999Z</time></trkpt><trkpt lat="46.0058224037027" lon="12.271848829070393"><ele>186.28571428571428</ele><time>2026-04-25T11:36:23.999Z</time></trkpt><trkpt lat="46.0058801650987" lon="12.271919651123019"><ele>185.85714285714286</ele><time>2026-04-25T11:36:25.998Z</time></trkpt><trkpt lat="46.00591296959883" lon="12.271997505861613"><ele>185.42857142857142</ele><time>2026-04-25T11:36:27.998Z</time></trkpt><trkpt lat="46.00591082529665" lon="12.272092980652431"><ele>185.0</ele><time>2026-04-25T11:36:29.998Z</time></trkpt><trkpt lat="46.005861877361774" lon="12.272195663529567"><ele>185.0</ele><time>2026-04-25T11:36:31.998Z</time></trkpt><trkpt lat="46.00581727961463" lon="12.272316904917206"><ele>185.0</ele><time>2026-04-25T11:36:33.998Z</time></trkpt><trkpt lat="46.00576803109493" lon="12.272452509040855"><ele>185.0</ele><time>2026-04-25T11:36:35.998Z</time></trkpt><trkpt lat="46.00569618195428" lon="12.272591002796501"><ele>185.0</ele><time>2026-04-25T11:36:37.998Z</time></trkpt><trkpt lat="46.00566105010083" lon="12.272668025320543"><ele>185.0</ele><time>2026-04-25T11:36:38.998Z</time></trkpt><trkpt lat="46.00562273157978" lon="12.27274676035031"><ele>184.99999999999997</ele><time>2026-04-25T11:36:39.998Z</time></trkpt><trkpt lat="46.00558329512329" lon="12.272829910524948"><ele>185.0</ele><time>2026-04-25T11:36:40.998Z</time></trkpt><trkpt lat="46.00554128263266" lon="12.272911378133987"><ele>185.0</ele><time>2026-04-25T11:36:41.998Z</time></trkpt><trkpt lat="46.005495706830786" lon="12.2729941718357"><ele>185.0</ele><time>2026-04-25T11:36:42.998Z</time></trkpt><trkpt lat="46.00544775736191" lon="12.273075809776472"><ele>185.0</ele><time>2026-04-25T11:36:43.998Z</time></trkpt><trkpt lat="46.00539880251161" lon="12.273158112090218"><ele>184.99999999999997</ele><time>2026-04-25T11:36:44.998Z</time></trkpt><trkpt lat="46.00535350789895" lon="12.273246748640267"><ele>185.0</ele><time>2026-04-25T11:36:45.998Z</time></trkpt><trkpt lat="46.00530366069097" lon="12.273333828070472"><ele>184.66666666666666</ele><time>2026-04-25T11:36:46.998Z</time></trkpt><trkpt lat="46.00525896792992" lon="12.27342771326884"><ele>184.33333333333331</ele><time>2026-04-25T11:36:47.998Z</time></trkpt><trkpt lat="46.00521087972587" lon="12.27351767006807"><ele>184.0</ele><time>2026-04-25T11:36:48.998Z</time></trkpt><trkpt lat="46.005165108309214" lon="12.273610629207866"><ele>183.66666666666666</ele><time>2026-04-25T11:36:49.998Z</time></trkpt><trkpt lat="46.00512172431891" lon="12.273713289093406"><ele>183.33333333333334</ele><time>2026-04-25T11:36:50.998Z</time></trkpt><trkpt lat="46.00509860372052" lon="12.273830710515975"><ele>183.0</ele><time>2026-04-25T11:36:51.998Z</time></trkpt><trkpt lat="46.00509875276635" lon="12.273956087463379"><ele>182.2</ele><time>2026-04-25T11:36:52.998Z</time></trkpt><trkpt lat="46.00510184827913" lon="12.274088980011305"><ele>181.4</ele><time>2026-04-25T11:36:53.998Z</time></trkpt><trkpt lat="46.00513907073929" lon="12.274213083022019"><ele>180.6</ele><time>2026-04-25T11:36:54.998Z</time></trkpt><trkpt lat="46.00517750058368" lon="12.274335535917317"><ele>179.79999999999998</ele><time>2026-04-25T11:36:55.998Z</time></trkpt><trkpt lat="46.00521729992575" lon="12.274455686174932"><ele>179.0</ele><time>2026-04-25T11:36:56.998Z</time></trkpt><trkpt lat="46.00525678787609" lon="12.274574896350527"><ele>179.0</ele><time>2026-04-25T11:36:57.998Z</time></trkpt><trkpt lat="46.00529640053705" lon="12.274693313136634"><ele>179.0</ele><time>2026-04-25T11:36:58.998Z</time></trkpt><trkpt lat="46.00534854255725" lon="12.274800046374347"><ele>179.0</ele><time>2026-04-25T11:36:59.998Z</time></trkpt><trkpt lat="46.00538206030951" lon="12.27492286421319"><ele>179.0</ele><time>2026-04-25T11:37:00.998Z</time></trkpt><trkpt lat="46.00541806895322" lon="12.275041490816506"><ele>179.0</ele><time>2026-04-25T11:37:01.998Z</time></trkpt><trkpt lat="46.00545650342988" lon="12.275157493012227"><ele>179.0</ele><time>2026-04-25T11:37:02.998Z</time></trkpt><trkpt lat="46.00549620731545" lon="12.275273493725415"><ele>179.0</ele><time>2026-04-25T11:37:03.998Z</time></trkpt><trkpt lat="46.00553448911295" lon="12.2753826544788"><ele>179.0</ele><time>2026-04-25T11:37:04.998Z</time></trkpt><trkpt lat="46.005572269262615" lon="12.275494730034978"><ele>179.0</ele><time>2026-04-25T11:37:05.998Z</time></trkpt><trkpt lat="46.00560735201466" lon="12.275608795928171"><ele>179.0</ele><time>2026-04-25T11:37:06.998Z</time></trkpt><trkpt lat="46.0056447912134" lon="12.275720420769149"><ele>179.0</ele><time>2026-04-25T11:37:07.998Z</time></trkpt><trkpt lat="46.00568251998481" lon="12.275829824903779"><ele>179.0</ele><time>2026-04-25T11:37:08.997Z</time></trkpt><trkpt lat="46.005716798073244" lon="12.275941588512165"><ele>179.0</ele><time>2026-04-25T11:37:09.997Z</time></trkpt><trkpt lat="46.00575288913669" lon="12.276053278696606"><ele>179.0</ele><time>2026-04-25T11:37:10.997Z</time></trkpt><trkpt lat="46.005787259782586" lon="12.276162576455041"><ele>179.0</ele><time>2026-04-25T11:37:11.997Z</time></trkpt><trkpt lat="46.00582090067858" lon="12.276270170348244"><ele>179.0</ele><time>2026-04-25T11:37:12.997Z</time></trkpt><trkpt lat="46.005861612937636" lon="12.27637171228012"><ele>179.0</ele><time>2026-04-25T11:37:14Z</time></trkpt><trkpt lat="46.00590155681449" lon="12.276477419927174"><ele>178.33333333333331</ele><time>2026-04-25T11:37:15Z</time></trkpt><trkpt lat="46.00593670097747" lon="12.276578968511252"><ele>177.66666666666666</ele><time>2026-04-25T11:37:16Z</time></trkpt><trkpt lat="46.00597373239123" lon="12.276679483072044"><ele>177.0</ele><time>2026-04-25T11:37:17Z</time></trkpt><trkpt lat="46.00599385164875" lon="12.276792738129624"><ele>176.33333333333334</ele><time>2026-04-25T11:37:18Z</time></trkpt><trkpt lat="46.00602823274287" lon="12.276895025198138"><ele>175.66666666666669</ele><time>2026-04-25T11:37:19Z</time></trkpt><trkpt lat="46.0060619231549" lon="12.276995257439115"><ele>175.0</ele><time>2026-04-25T11:37:20Z</time></trkpt><trkpt lat="46.006095616513285" lon="12.277095498421179"><ele>175.0</ele><time>2026-04-25T11:37:21Z</time></trkpt><trkpt lat="46.0061301761711" lon="12.277198316745054"><ele>175.0</ele><time>2026-04-25T11:37:22Z</time></trkpt><trkpt lat="46.00616386784524" lon="12.277298552740769"><ele>175.0</ele><time>2026-04-25T11:37:23Z</time></trkpt><trkpt lat="46.00619754973339" lon="12.277398759599375"><ele>175.0</ele><time>2026-04-25T11:37:24Z</time></trkpt><trkpt lat="46.00623154859068" lon="12.277499909480463"><ele>175.0</ele><time>2026-04-25T11:37:25Z</time></trkpt><trkpt lat="46.006266099005316" lon="12.277602700300292"><ele>175.0</ele><time>2026-04-25T11:37:26Z</time></trkpt><trkpt lat="46.00629912679334" lon="12.277700961175828"><ele>174.71428571428572</ele><time>2026-04-25T11:37:27Z</time></trkpt><trkpt lat="46.0063318990935" lon="12.277798461929384"><ele>174.42857142857144</ele><time>2026-04-25T11:37:28Z</time></trkpt><trkpt lat="46.00636400319166" lon="12.27789459930369"><ele>174.14285714285714</ele><time>2026-04-25T11:37:29Z</time></trkpt><trkpt lat="46.00639552270499" lon="12.277989387170116"><ele>173.85714285714286</ele><time>2026-04-25T11:37:30Z</time></trkpt><trkpt lat="46.00642698091433" lon="12.278083990695706"><ele>173.57142857142858</ele><time>2026-04-25T11:37:31Z</time></trkpt><trkpt lat="46.00645790161733" lon="12.278176977790658"><ele>173.28571428571428</ele><time>2026-04-25T11:37:32Z</time></trkpt><trkpt lat="46.00648897360842" lon="12.278270419840533"><ele>173.0</ele><time>2026-04-25T11:37:33Z</time></trkpt><trkpt lat="46.00651959088519" lon="12.278362494452265"><ele>172.7142857142857</ele><time>2026-04-25T11:37:34Z</time></trkpt><trkpt lat="46.006549546403896" lon="12.278452578971757"><ele>172.42857142857144</ele><time>2026-04-25T11:37:35Z</time></trkpt><trkpt lat="46.00658042066056" lon="12.27854486484446"><ele>172.14285714285714</ele><time>2026-04-25T11:37:36Z</time></trkpt><trkpt lat="46.00661114762486" lon="12.278636185877565"><ele>171.85714285714283</ele><time>2026-04-25T11:37:37Z</time></trkpt><trkpt lat="46.00664228054568" lon="12.27872871341691"><ele>171.57142857142856</ele><time>2026-04-25T11:37:38Z</time></trkpt><trkpt lat="46.006672767206275" lon="12.278819320271825"><ele>171.28571428571428</ele><time>2026-04-25T11:37:39Z</time></trkpt><trkpt lat="46.00670303913522" lon="12.278909288928979"><ele>171.0</ele><time>2026-04-25T11:37:40Z</time></trkpt><trkpt lat="46.00673312187827" lon="12.27899869531414"><ele>170.42857142857142</ele><time>2026-04-25T11:37:41Z</time></trkpt><trkpt lat="46.00676215168957" lon="12.279087285053734"><ele>169.85714285714286</ele><time>2026-04-25T11:37:42Z</time></trkpt><trkpt lat="46.00679417393327" lon="12.27917682408381"><ele>169.28571428571428</ele><time>2026-04-25T11:37:43Z</time></trkpt><trkpt lat="46.00683839877882" lon="12.279249149114586"><ele>168.71428571428572</ele><time>2026-04-25T11:37:44Z</time></trkpt><trkpt lat="46.00686191271724" lon="12.279345958450131"><ele>168.14285714285714</ele><time>2026-04-25T11:37:45Z</time></trkpt><trkpt lat="46.0068850900226" lon="12.27944075919062"><ele>167.57142857142856</ele><time>2026-04-25T11:37:46Z</time></trkpt><trkpt lat="46.00690201923931" lon="12.279541732625336"><ele>167.0</ele><time>2026-04-25T11:37:47Z</time></trkpt><trkpt lat="46.00690986964209" lon="12.279642867189375"><ele>167.0</ele><time>2026-04-25T11:37:48Z</time></trkpt><trkpt lat="46.00691097895199" lon="12.279746230015553"><ele>167.0</ele><time>2026-04-25T11:37:49Z</time></trkpt><trkpt lat="46.00691189218322" lon="12.279850036774167"><ele>167.0</ele><time>2026-04-25T11:37:50Z</time></trkpt><trkpt lat="46.00691319460348" lon="12.279954015700778"><ele>167.0</ele><time>2026-04-25T11:37:51Z</time></trkpt><trkpt lat="46.00691738599669" lon="12.28005903782228"><ele>167.0</ele><time>2026-04-25T11:37:52Z</time></trkpt><trkpt lat="46.00692029563219" lon="12.280165870037614"><ele>167.0</ele><time>2026-04-25T11:37:53Z</time></trkpt><trkpt lat="46.006924378852226" lon="12.280273539219229"><ele>167.0</ele><time>2026-04-25T11:37:54Z</time></trkpt><trkpt lat="46.00692920336273" lon="12.280379102055113"><ele>167.14285714285714</ele><time>2026-04-25T11:37:55Z</time></trkpt><trkpt lat="46.00693390962966" lon="12.280488747337182"><ele>167.28571428571428</ele><time>2026-04-25T11:37:56Z</time></trkpt><trkpt lat="46.00693594766767" lon="12.280599481254852"><ele>167.42857142857144</ele><time>2026-04-25T11:37:57Z</time></trkpt><trkpt lat="46.006939812512066" lon="12.28070704428289"><ele>167.57142857142856</ele><time>2026-04-25T11:37:57.999Z</time></trkpt><trkpt lat="46.006943581357724" lon="12.280811875437328"><ele>167.71428571428572</ele><time>2026-04-25T11:37:58.999Z</time></trkpt><trkpt lat="46.00694797842116" lon="12.280917191848781"><ele>167.85714285714286</ele><time>2026-04-25T11:37:59.999Z</time></trkpt><trkpt lat="46.0069509827036" lon="12.28102120185637"><ele>168.0</ele><time>2026-04-25T11:38:00.999Z</time></trkpt><trkpt lat="46.00695377053647" lon="12.281122950362402"><ele>167.71428571428572</ele><time>2026-04-25T11:38:01.999Z</time></trkpt><trkpt lat="46.0069574914199" lon="12.281224636612363"><ele>167.42857142857144</ele><time>2026-04-25T11:38:02.999Z</time></trkpt><trkpt lat="46.006960815589665" lon="12.281326648379574"><ele>167.14285714285714</ele><time>2026-04-25T11:38:03.999Z</time></trkpt><trkpt lat="46.00696220824437" lon="12.281427978513864"><ele>166.85714285714286</ele><time>2026-04-25T11:38:04.999Z</time></trkpt><trkpt lat="46.00696550660328" lon="12.281531546926423"><ele>166.57142857142858</ele><time>2026-04-25T11:38:05.999Z</time></trkpt><trkpt lat="46.00696887148867" lon="12.281636036690145"><ele>166.28571428571428</ele><time>2026-04-25T11:38:06.999Z</time></trkpt><trkpt lat="46.006972732237294" lon="12.281740989578593"><ele>166.0</ele><time>2026-04-25T11:38:07.999Z</time></trkpt><trkpt lat="46.00697557862532" lon="12.28184582045904"><ele>166.0</ele><time>2026-04-25T11:38:08.999Z</time></trkpt><trkpt lat="46.00698097429435" lon="12.28195105163753"><ele>166.0</ele><time>2026-04-25T11:38:09.999Z</time></trkpt><trkpt lat="46.00698491285473" lon="12.282053860631923"><ele>166.0</ele><time>2026-04-25T11:38:10.999Z</time></trkpt><trkpt lat="46.00698652279348" lon="12.28216002123679"><ele>166.0</ele><time>2026-04-25T11:38:11.999Z</time></trkpt><trkpt lat="46.00699045739214" lon="12.282265068890522"><ele>166.0</ele><time>2026-04-25T11:38:12.999Z</time></trkpt><trkpt lat="46.006996400831966" lon="12.282369156205151"><ele>166.0</ele><time>2026-04-25T11:38:13.999Z</time></trkpt><trkpt lat="46.00699805199512" lon="12.282476896102603"><ele>166.0</ele><time>2026-04-25T11:38:14.999Z</time></trkpt><trkpt lat="46.00699938587839" lon="12.282581512324336"><ele>165.66666666666669</ele><time>2026-04-25T11:38:15.999Z</time></trkpt><trkpt lat="46.00700474120915" lon="12.282687010798433"><ele>165.33333333333334</ele><time>2026-04-25T11:38:16.999Z</time></trkpt><trkpt lat="46.00701064623458" lon="12.282793499755996"><ele>165.0</ele><time>2026-04-25T11:38:17.999Z</time></trkpt><trkpt lat="46.00701292730881" lon="12.282900316857074"><ele>164.66666666666666</ele><time>2026-04-25T11:38:18.999Z</time></trkpt><trkpt lat="46.007015765337854" lon="12.283006516458551"><ele>164.33333333333331</ele><time>2026-04-25T11:38:19.999Z</time></trkpt><trkpt lat="46.007017798519826" lon="12.283116776846388"><ele>164.0</ele><time>2026-04-25T11:38:20.999Z</time></trkpt><trkpt lat="46.00701614211828" lon="12.283229777213052"><ele>163.66666666666666</ele><time>2026-04-25T11:38:21.999Z</time></trkpt><trkpt lat="46.00700838137232" lon="12.28334378079182"><ele>163.33333333333331</ele><time>2026-04-25T11:38:22.999Z</time></trkpt><trkpt lat="46.006996021740775" lon="12.283458494020737"><ele>163.0</ele><time>2026-04-25T11:38:23.999Z</time></trkpt><trkpt lat="46.00697679061015" lon="12.283573748419922"><ele>162.66666666666666</ele><time>2026-04-25T11:38:24.999Z</time></trkpt><trkpt lat="46.006949242346856" lon="12.283687559521127"><ele>162.33333333333334</ele><time>2026-04-25T11:38:25.999Z</time></trkpt><trkpt lat="46.006921419735136" lon="12.283803642763898"><ele>162.0</ele><time>2026-04-25T11:38:26.999Z</time></trkpt><trkpt lat="46.006890837296694" lon="12.28391805748424"><ele>161.83333333333334</ele><time>2026-04-25T11:38:27.999Z</time></trkpt><trkpt lat="46.00685537158268" lon="12.284032941652663"><ele>161.66666666666666</ele><time>2026-04-25T11:38:28.999Z</time></trkpt><trkpt lat="46.00681883465293" lon="12.28414499868269"><ele>161.5</ele><time>2026-04-25T11:38:29.999Z</time></trkpt><trkpt lat="46.006787149913265" lon="12.284263191931439"><ele>161.33333333333331</ele><time>2026-04-25T11:38:30.999Z</time></trkpt><trkpt lat="46.006752943125974" lon="12.28438149041656"><ele>161.16666666666666</ele><time>2026-04-25T11:38:31.999Z</time></trkpt><trkpt lat="46.00671167728607" lon="12.284510320200207"><ele>161.0</ele><time>2026-04-25T11:38:32.999Z</time></trkpt><trkpt lat="46.0066798822208" lon="12.284637336045995"><ele>163.20000000000002</ele><time>2026-04-25T11:38:33.999Z</time></trkpt><trkpt lat="46.006644081207014" lon="12.284761846418839"><ele>165.4</ele><time>2026-04-25T11:38:34.999Z</time></trkpt><trkpt lat="46.0066063122958" lon="12.284885414341497"><ele>167.6</ele><time>2026-04-25T11:38:35.999Z</time></trkpt><trkpt lat="46.006567314334276" lon="12.285004949728917"><ele>169.8</ele><time>2026-04-25T11:38:36.999Z</time></trkpt><trkpt lat="46.00653622022229" lon="12.28512342459559"><ele>172.0</ele><time>2026-04-25T11:38:37.999Z</time></trkpt><trkpt lat="46.00650936270186" lon="12.285240242100555"><ele>172.0</ele><time>2026-04-25T11:38:38.999Z</time></trkpt><trkpt lat="46.00648518792188" lon="12.285339678905876"><ele>172.0</ele><time>2026-04-25T11:38:39.999Z</time></trkpt><trkpt lat="46.006467570355255" lon="12.28542707073244"><ele>172.0</ele><time>2026-04-25T11:38:40.999Z</time></trkpt><trkpt lat="46.006434176152105" lon="12.285569800371855"><ele>172.0</ele><time>2026-04-25T11:38:42.998Z</time></trkpt><trkpt lat="46.006387385056456" lon="12.285684394459151"><ele>172.0</ele><time>2026-04-25T11:38:44.998Z</time></trkpt><trkpt lat="46.00626789254488" lon="12.285761512443646"><ele>168.79999999999998</ele><time>2026-04-25T11:38:48.998Z</time></trkpt><trkpt lat="46.0061849627449" lon="12.285788180326913"><ele>165.6</ele><time>2026-04-25T11:38:50.998Z</time></trkpt><trkpt lat="46.006091735535115" lon="12.285821385318327"><ele>162.39999999999998</ele><time>2026-04-25T11:38:52.998Z</time></trkpt><trkpt lat="46.005988838497395" lon="12.28586103552151"><ele>159.2</ele><time>2026-04-25T11:38:54.998Z</time></trkpt><trkpt lat="46.00588184440181" lon="12.285893785736942"><ele>156.0</ele><time>2026-04-25T11:38:56.998Z</time></trkpt><trkpt lat="46.005779270887345" lon="12.285938502475851"><ele>156.0</ele><time>2026-04-25T11:38:58.998Z</time></trkpt><trkpt lat="46.00566914958415" lon="12.285976707001321"><ele>156.0</ele><time>2026-04-25T11:39:00.998Z</time></trkpt><trkpt lat="46.00554867439747" lon="12.28600834280837"><ele>156.0</ele><time>2026-04-25T11:39:02.998Z</time></trkpt><trkpt lat="46.00542406443021" lon="12.286021021986858"><ele>156.0</ele><time>2026-04-25T11:39:04.998Z</time></trkpt><trkpt lat="46.00536006462584" lon="12.286021041538527"><ele>156.0</ele><time>2026-04-25T11:39:05.998Z</time></trkpt><trkpt lat="46.00523616591136" lon="12.286024162600157"><ele>156.0</ele><time>2026-04-25T11:39:07.998Z</time></trkpt><trkpt lat="46.00517111989859" lon="12.28602302246067"><ele>156.0</ele><time>2026-04-25T11:39:08.998Z</time></trkpt><trkpt lat="46.00510459225345" lon="12.286017979306036"><ele>156.0</ele><time>2026-04-25T11:39:09.998Z</time></trkpt><trkpt lat="46.00503993774743" lon="12.286010029793367"><ele>156.0</ele><time>2026-04-25T11:39:10.998Z</time></trkpt><trkpt lat="46.0049737973013" lon="12.28600324833027"><ele>156.0</ele><time>2026-04-25T11:39:11.998Z</time></trkpt><trkpt lat="46.00490635760639" lon="12.285998508004626"><ele>156.0</ele><time>2026-04-25T11:39:12.998Z</time></trkpt><trkpt lat="46.004838318712935" lon="12.2859947579111"><ele>156.0</ele><time>2026-04-25T11:39:13.998Z</time></trkpt><trkpt lat="46.00477020307853" lon="12.285988418575034"><ele>156.16666666666666</ele><time>2026-04-25T11:39:14.998Z</time></trkpt><trkpt lat="46.004641117733065" lon="12.285970002804545"><ele>156.33333333333334</ele><time>2026-04-25T11:39:16.998Z</time></trkpt><trkpt lat="46.004570482484525" lon="12.28596415949487"><ele>156.5</ele><time>2026-04-25T11:39:17.998Z</time></trkpt><trkpt lat="46.00450103554295" lon="12.28595896593358"><ele>156.66666666666669</ele><time>2026-04-25T11:39:18.998Z</time></trkpt><trkpt lat="46.004429974204626" lon="12.285962841763599"><ele>156.83333333333334</ele><time>2026-04-25T11:39:20Z</time></trkpt><trkpt lat="46.00436171971118" lon="12.285964034298525"><ele>157.0</ele><time>2026-04-25T11:39:21Z</time></trkpt><trkpt lat="46.00429211636142" lon="12.285965159845802"><ele>156.99999999999997</ele><time>2026-04-25T11:39:22Z</time></trkpt><trkpt lat="46.0042220791202" lon="12.285969565887383"><ele>157.0</ele><time>2026-04-25T11:39:23Z</time></trkpt><trkpt lat="46.004154677758365" lon="12.28598050314909"><ele>157.0</ele><time>2026-04-25T11:39:24Z</time></trkpt><trkpt lat="46.00408348155568" lon="12.285994500444508"><ele>157.0</ele><time>2026-04-25T11:39:25Z</time></trkpt><trkpt lat="46.0040104112629" lon="12.28601201391831"><ele>157.0</ele><time>2026-04-25T11:39:26Z</time></trkpt><trkpt lat="46.00393889750231" lon="12.286031753182426"><ele>156.99999999999997</ele><time>2026-04-25T11:39:27Z</time></trkpt><trkpt lat="46.003868499220324" lon="12.286059334223252"><ele>157.0</ele><time>2026-04-25T11:39:28Z</time></trkpt><trkpt lat="46.003798247352236" lon="12.2860872892586"><ele>156.99999999999997</ele><time>2026-04-25T11:39:29Z</time></trkpt><trkpt lat="46.003729884211246" lon="12.286125494341764"><ele>157.0</ele><time>2026-04-25T11:39:30Z</time></trkpt><trkpt lat="46.00366286830853" lon="12.286158601020192"><ele>157.0</ele><time>2026-04-25T11:39:31Z</time></trkpt><trkpt lat="46.003589994688426" lon="12.28618541617382"><ele>157.0</ele><time>2026-04-25T11:39:32Z</time></trkpt><trkpt lat="46.00351955637711" lon="12.286219015250321"><ele>157.0</ele><time>2026-04-25T11:39:33Z</time></trkpt><trkpt lat="46.00344878053103" lon="12.286248609665922"><ele>156.99999999999997</ele><time>2026-04-25T11:39:34Z</time></trkpt><trkpt lat="46.003381504671594" lon="12.286281795367277"><ele>157.0</ele><time>2026-04-25T11:39:35Z</time></trkpt><trkpt lat="46.00331207259996" lon="12.286319257749838"><ele>156.99999999999997</ele><time>2026-04-25T11:39:36Z</time></trkpt><trkpt lat="46.00324592935398" lon="12.286357200887618"><ele>157.0</ele><time>2026-04-25T11:39:37Z</time></trkpt><trkpt lat="46.00317930154826" lon="12.286400734700933"><ele>157.0</ele><time>2026-04-25T11:39:38Z</time></trkpt><trkpt lat="46.003120959698286" lon="12.286455890016398"><ele>157.0</ele><time>2026-04-25T11:39:39Z</time></trkpt><trkpt lat="46.003065021360406" lon="12.286519961137913"><ele>157.0</ele><time>2026-04-25T11:39:40Z</time></trkpt><trkpt lat="46.00300768713304" lon="12.286587739151232"><ele>156.99999999999997</ele><time>2026-04-25T11:39:41Z</time></trkpt><trkpt lat="46.00295529827284" lon="12.286661553072701"><ele>157.0</ele><time>2026-04-25T11:39:42Z</time></trkpt><trkpt lat="46.00290508074761" lon="12.286736215599662"><ele>156.57142857142856</ele><time>2026-04-25T11:39:43Z</time></trkpt><trkpt lat="46.00285585978165" lon="12.286816951814261"><ele>156.14285714285714</ele><time>2026-04-25T11:39:44Z</time></trkpt><trkpt lat="46.0028075297394" lon="12.286897296938687"><ele>155.71428571428572</ele><time>2026-04-25T11:39:45Z</time></trkpt><trkpt lat="46.002761646569404" lon="12.286977996267355"><ele>155.28571428571428</ele><time>2026-04-25T11:39:46Z</time></trkpt><trkpt lat="46.00271003609513" lon="12.287061835012066"><ele>154.85714285714286</ele><time>2026-04-25T11:39:47Z</time></trkpt><trkpt lat="46.00266460798157" lon="12.287144099818796"><ele>154.42857142857142</ele><time>2026-04-25T11:39:48Z</time></trkpt><trkpt lat="46.002614372269925" lon="12.287226931394837"><ele>154.0</ele><time>2026-04-25T11:39:49Z</time></trkpt><trkpt lat="46.002566174977524" lon="12.287308216048658"><ele>154.33333333333334</ele><time>2026-04-25T11:39:50Z</time></trkpt><trkpt lat="46.002519874423406" lon="12.28739377888954"><ele>154.66666666666669</ele><time>2026-04-25T11:39:51Z</time></trkpt><trkpt lat="46.00247072061901" lon="12.287478299521144"><ele>155.0</ele><time>2026-04-25T11:39:51.999Z</time></trkpt><trkpt lat="46.002422321479514" lon="12.287564816728986"><ele>155.33333333333334</ele><time>2026-04-25T11:39:52.999Z</time></trkpt><trkpt lat="46.00236999416915" lon="12.287650985228971"><ele>155.66666666666666</ele><time>2026-04-25T11:39:53.999Z</time></trkpt><trkpt lat="46.0023198532818" lon="12.287731639324589"><ele>156.0</ele><time>2026-04-25T11:39:54.999Z</time></trkpt><trkpt lat="46.00227059514408" lon="12.287819830011935"><ele>156.0</ele><time>2026-04-25T11:39:55.999Z</time></trkpt><trkpt lat="46.002221082851214" lon="12.287906385032848"><ele>156.0</ele><time>2026-04-25T11:39:56.999Z</time></trkpt><trkpt lat="46.00216951838434" lon="12.287992677298243"><ele>156.0</ele><time>2026-04-25T11:39:57.999Z</time></trkpt><trkpt lat="46.00211897638101" lon="12.288079592704133"><ele>156.0</ele><time>2026-04-25T11:39:58.999Z</time></trkpt><trkpt lat="46.00206782224904" lon="12.288164008914377"><ele>156.0</ele><time>2026-04-25T11:39:59.999Z</time></trkpt><trkpt lat="46.0020156533475" lon="12.2882473612355"><ele>156.0</ele><time>2026-04-25T11:40:00.999Z</time></trkpt><trkpt lat="46.00196524374844" lon="12.288331994666565"><ele>155.66666666666666</ele><time>2026-04-25T11:40:01.999Z</time></trkpt><trkpt lat="46.00191553655412" lon="12.288417530225301"><ele>155.33333333333334</ele><time>2026-04-25T11:40:02.999Z</time></trkpt><trkpt lat="46.00186797576092" lon="12.288508131179947"><ele>155.0</ele><time>2026-04-25T11:40:03.999Z</time></trkpt><trkpt lat="46.00181948041013" lon="12.288594592605104"><ele>154.66666666666669</ele><time>2026-04-25T11:40:04.999Z</time></trkpt><trkpt lat="46.00177173420915" lon="12.288685747619363"><ele>154.33333333333334</ele><time>2026-04-25T11:40:05.999Z</time></trkpt><trkpt lat="46.00172994523238" lon="12.288770833197331"><ele>154.0</ele><time>2026-04-25T11:40:06.999Z</time></trkpt><trkpt lat="46.00168581829186" lon="12.288848930410802"><ele>154.33333333333334</ele><time>2026-04-25T11:40:07.999Z</time></trkpt><trkpt lat="46.00163910798419" lon="12.288931262629754"><ele>154.66666666666669</ele><time>2026-04-25T11:40:08.999Z</time></trkpt><trkpt lat="46.001587490388" lon="12.289010868342567"><ele>155.0</ele><time>2026-04-25T11:40:09.999Z</time></trkpt><trkpt lat="46.001536573621536" lon="12.289092620932129"><ele>155.33333333333334</ele><time>2026-04-25T11:40:10.999Z</time></trkpt><trkpt lat="46.00147976308913" lon="12.28917621374663"><ele>155.66666666666666</ele><time>2026-04-25T11:40:11.999Z</time></trkpt><trkpt lat="46.00141495607947" lon="12.289255654357252"><ele>156.0</ele><time>2026-04-25T11:40:12.999Z</time></trkpt><trkpt lat="46.00133970370604" lon="12.289320786289421"><ele>156.0</ele><time>2026-04-25T11:40:13.999Z</time></trkpt><trkpt lat="46.001257554263084" lon="12.289370401895052"><ele>156.0</ele><time>2026-04-25T11:40:14.999Z</time></trkpt><trkpt lat="46.00117030992551" lon="12.289405252797614"><ele>156.0</ele><time>2026-04-25T11:40:15.999Z</time></trkpt><trkpt lat="46.00107773840291" lon="12.289427368342395"><ele>156.0</ele><time>2026-04-25T11:40:16.999Z</time></trkpt><trkpt lat="46.000988232381744" lon="12.289454126945248"><ele>156.0</ele><time>2026-04-25T11:40:17.998Z</time></trkpt><trkpt lat="46.000903199405286" lon="12.289490622525744"><ele>155.5</ele><time>2026-04-25T11:40:18.998Z</time></trkpt><trkpt lat="46.00082455455619" lon="12.28953625562696"><ele>155.0</ele><time>2026-04-25T11:40:19.998Z</time></trkpt><trkpt lat="46.00075516339441" lon="12.289582825537213"><ele>154.5</ele><time>2026-04-25T11:40:20.998Z</time></trkpt><trkpt lat="46.000693169573246" lon="12.289632340796917"><ele>154.0</ele><time>2026-04-25T11:40:21.998Z</time></trkpt><trkpt lat="46.00063755263756" lon="12.289678873814541"><ele>153.5</ele><time>2026-04-25T11:40:22.998Z</time></trkpt><trkpt lat="46.00057902225075" lon="12.289723005926595"><ele>153.0</ele><time>2026-04-25T11:40:23.998Z</time></trkpt><trkpt lat="46.00048163727233" lon="12.289805604516944"><ele>151.6</ele><time>2026-04-25T11:40:25.998Z</time></trkpt><trkpt lat="46.00039557793753" lon="12.289884974907618"><ele>150.20000000000002</ele><time>2026-04-25T11:40:27.998Z</time></trkpt><trkpt lat="46.00030653193683" lon="12.289946909542936"><ele>148.8</ele><time>2026-04-25T11:40:29.998Z</time></trkpt><trkpt lat="46.000208233821326" lon="12.290012452140532"><ele>147.4</ele><time>2026-04-25T11:40:31.998Z</time></trkpt><trkpt lat="46.000098026325865" lon="12.290047311136306"><ele>146.0</ele><time>2026-04-25T11:40:33.998Z</time></trkpt><trkpt lat="45.999988344066" lon="12.290044914830185"><ele>146.0</ele><time>2026-04-25T11:40:35.998Z</time></trkpt><trkpt lat="45.99988276062266" lon="12.290021349036627"><ele>146.0</ele><time>2026-04-25T11:40:37.998Z</time></trkpt><trkpt lat="45.99978298322991" lon="12.28997251658069"><ele>146.0</ele><time>2026-04-25T11:40:39.998Z</time></trkpt><trkpt lat="45.999706155015865" lon="12.289947670073735"><ele>146.0</ele><time>2026-04-25T11:40:41.998Z</time></trkpt><trkpt lat="45.99960242954214" lon="12.290106322214921"><ele>146.0</ele><time>2026-04-25T11:40:43.998Z</time></trkpt><trkpt lat="45.99952246140786" lon="12.290184388303116"><ele>146.0</ele><time>2026-04-25T11:40:45.998Z</time></trkpt><trkpt lat="45.99944512348558" lon="12.29026058836024"><ele>146.0</ele><time>2026-04-25T11:40:47.998Z</time></trkpt><trkpt lat="45.99941359313685" lon="12.290387043535064"><ele>146.0</ele><time>2026-04-25T11:40:49.998Z</time></trkpt><trkpt lat="45.999440254900755" lon="12.290502353324877"><ele>146.0</ele><time>2026-04-25T11:40:51.998Z</time></trkpt><trkpt lat="45.999486889117264" lon="12.290592511674836"><ele>146.0</ele><time>2026-04-25T11:40:53.998Z</time></trkpt><trkpt lat="45.999508939541734" lon="12.290680401379172"><ele>146.0</ele><time>2026-04-25T11:40:55.998Z</time></trkpt><trkpt lat="45.99954875900863" lon="12.290785893247092"><ele>147.2</ele><time>2026-04-25T11:40:57.998Z</time></trkpt><trkpt lat="45.99960608226965" lon="12.290887357900033"><ele>148.39999999999998</ele><time>2026-04-25T11:40:59.998Z</time></trkpt><trkpt lat="45.999656388671404" lon="12.291009239271315"><ele>149.6</ele><time>2026-04-25T11:41:01.997Z</time></trkpt><trkpt lat="45.99970722981551" lon="12.29112881900356"><ele>150.79999999999998</ele><time>2026-04-25T11:41:03.997Z</time></trkpt><trkpt lat="45.999745580970526" lon="12.291250017712185"><ele>152.0</ele><time>2026-04-25T11:41:05.997Z</time></trkpt><trkpt lat="45.99976022674604" lon="12.291381859935012"><ele>152.2</ele><time>2026-04-25T11:41:07.997Z</time></trkpt><trkpt lat="45.999728102107056" lon="12.291512780734385"><ele>152.39999999999998</ele><time>2026-04-25T11:41:09.997Z</time></trkpt><trkpt lat="45.99970408293711" lon="12.291644247704017"><ele>152.60000000000002</ele><time>2026-04-25T11:41:11.997Z</time></trkpt><trkpt lat="45.9996940867358" lon="12.291773945975686"><ele>152.8</ele><time>2026-04-25T11:41:13.997Z</time></trkpt><trkpt lat="45.99965499546628" lon="12.291894318759741"><ele>153.0</ele><time>2026-04-25T11:41:15.997Z</time></trkpt><trkpt lat="45.9996265207067" lon="12.292015267710863"><ele>153.0</ele><time>2026-04-25T11:41:17.997Z</time></trkpt><trkpt lat="45.99959823416659" lon="12.292133873372112"><ele>153.0</ele><time>2026-04-25T11:41:19.997Z</time></trkpt><trkpt lat="45.999548722839606" lon="12.292243139422297"><ele>153.0</ele><time>2026-04-25T11:41:21.997Z</time></trkpt><trkpt lat="45.999493363294015" lon="12.29234992394748"><ele>153.0</ele><time>2026-04-25T11:41:23.997Z</time></trkpt><trkpt lat="45.99944849434141" lon="12.292455393748403"><ele>153.0</ele><time>2026-04-25T11:41:26Z</time></trkpt><trkpt lat="45.99940101699884" lon="12.292562424214628"><ele>153.0</ele><time>2026-04-25T11:41:28Z</time></trkpt><trkpt lat="45.99935526952607" lon="12.292666608724051"><ele>153.0</ele><time>2026-04-25T11:41:30Z</time></trkpt><trkpt lat="45.99931246649191" lon="12.292771280343285"><ele>153.0</ele><time>2026-04-25T11:41:32Z</time></trkpt><trkpt lat="45.99926695313839" lon="12.292874420579734"><ele>153.0</ele><time>2026-04-25T11:41:34Z</time></trkpt><trkpt lat="45.999227681794515" lon="12.29298368029895"><ele>153.0</ele><time>2026-04-25T11:41:36Z</time></trkpt><trkpt lat="45.999187067216184" lon="12.293097525043551"><ele>153.0</ele><time>2026-04-25T11:41:38Z</time></trkpt><trkpt lat="45.99915068538395" lon="12.293202949864655"><ele>153.0</ele><time>2026-04-25T11:41:40Z</time></trkpt><trkpt lat="45.999114132959065" lon="12.293302838835325"><ele>152.85714285714286</ele><time>2026-04-25T11:41:42Z</time></trkpt><trkpt lat="45.99909315694376" lon="12.293404967822052"><ele>152.71428571428572</ele><time>2026-04-25T11:41:44Z</time></trkpt><trkpt lat="45.99907326009674" lon="12.293499008943733"><ele>152.57142857142856</ele><time>2026-04-25T11:41:46Z</time></trkpt><trkpt lat="45.99904957638687" lon="12.293588850442772"><ele>152.42857142857144</ele><time>2026-04-25T11:41:48Z</time></trkpt><trkpt lat="45.99903123433421" lon="12.293685011384266"><ele>152.2857142857143</ele><time>2026-04-25T11:41:49.999Z</time></trkpt><trkpt lat="45.99900425248876" lon="12.2937696612854"><ele>152.14285714285714</ele><time>2026-04-25T11:41:51.999Z</time></trkpt><trkpt lat="45.99895793138178" lon="12.293892722999871"><ele>152.0</ele><time>2026-04-25T11:41:54.999Z</time></trkpt><trkpt lat="45.998913772450955" lon="12.293979520697645"><ele>152.0</ele><time>2026-04-25T11:41:56.999Z</time></trkpt><trkpt lat="45.99885591927341" lon="12.29407005220396"><ele>152.0</ele><time>2026-04-25T11:41:58.999Z</time></trkpt><trkpt lat="45.99879524219728" lon="12.294166505716344"><ele>152.0</ele><time>2026-04-25T11:42:00.999Z</time></trkpt><trkpt lat="45.998733072006125" lon="12.294267184707905"><ele>152.0</ele><time>2026-04-25T11:42:02.999Z</time></trkpt><trkpt lat="45.99868956238846" lon="12.294372628750223"><ele>152.0</ele><time>2026-04-25T11:42:04.999Z</time></trkpt><trkpt lat="45.99864959360407" lon="12.294473115230813"><ele>152.0</ele><time>2026-04-25T11:42:06.999Z</time></trkpt><trkpt lat="45.9985237790861" lon="12.294398727268817"><ele>152.0</ele><time>2026-04-25T11:42:10.999Z</time></trkpt><trkpt lat="45.99845430739391" lon="12.294298512812155"><ele>152.0</ele><time>2026-04-25T11:42:12.999Z</time></trkpt><trkpt lat="45.99837799655889" lon="12.294183239039777"><ele>152.0</ele><time>2026-04-25T11:42:14.999Z</time></trkpt><trkpt lat="45.99830201726593" lon="12.294062348169115"><ele>152.0</ele><time>2026-04-25T11:42:16.999Z</time></trkpt><trkpt lat="45.99823424938314" lon="12.293919605030139"><ele>152.0</ele><time>2026-04-25T11:42:18.999Z</time></trkpt><trkpt lat="45.99819152878548" lon="12.293851302241817"><ele>150.85714285714286</ele><time>2026-04-25T11:42:19.999Z</time></trkpt><trkpt lat="45.99814292389985" lon="12.293785286155847"><ele>149.71428571428572</ele><time>2026-04-25T11:42:20.999Z</time></trkpt><trkpt lat="45.99810130038231" lon="12.29371097513801"><ele>148.57142857142858</ele><time>2026-04-25T11:42:21.999Z</time></trkpt><trkpt lat="45.99805440926739" lon="12.293642401651104"><ele>147.42857142857144</ele><time>2026-04-25T11:42:22.999Z</time></trkpt><trkpt lat="45.99800785666865" lon="12.293564024943159"><ele>146.28571428571428</ele><time>2026-04-25T11:42:23.999Z</time></trkpt><trkpt lat="45.99795746536147" lon="12.293490578464812"><ele>145.14285714285717</ele><time>2026-04-25T11:42:24.999Z</time></trkpt><trkpt lat="45.9979050586674" lon="12.293416993121628"><ele>144.0</ele><time>2026-04-25T11:42:25.999Z</time></trkpt><trkpt lat="45.997857585903574" lon="12.293337178424968"><ele>144.00000000000003</ele><time>2026-04-25T11:42:26.999Z</time></trkpt><trkpt lat="45.997806942637574" lon="12.293260011384055"><ele>144.0</ele><time>2026-04-25T11:42:27.999Z</time></trkpt><trkpt lat="45.99775438042103" lon="12.29318273605607"><ele>144.0</ele><time>2026-04-25T11:42:28.999Z</time></trkpt><trkpt lat="45.997703711912926" lon="12.293102790374574"><ele>144.0</ele><time>2026-04-25T11:42:29.999Z</time></trkpt><trkpt lat="45.99765497468225" lon="12.293022545049045"><ele>144.0</ele><time>2026-04-25T11:42:30.999Z</time></trkpt><trkpt lat="45.9976089003711" lon="12.292954152041375"><ele>144.00000000000003</ele><time>2026-04-25T11:42:31.999Z</time></trkpt><trkpt lat="45.997563342884526" lon="12.292875913337602"><ele>144.0</ele><time>2026-04-25T11:42:32.999Z</time></trkpt><trkpt lat="45.99747715179737" lon="12.29275004982201"><ele>143.0</ele><time>2026-04-25T11:42:34.998Z</time></trkpt><trkpt lat="45.99741172989198" lon="12.292637091473615"><ele>142.0</ele><time>2026-04-25T11:42:36.998Z</time></trkpt><trkpt lat="45.99734991997963" lon="12.292562290896385"><ele>141.0</ele><time>2026-04-25T11:42:38.998Z</time></trkpt><trkpt lat="45.99729686496518" lon="12.292495806634541"><ele>140.0</ele><time>2026-04-25T11:42:47.998Z</time></trkpt><trkpt lat="45.99721177471505" lon="12.292594280787666"><ele>139.0</ele><time>2026-04-25T11:42:48.998Z</time></trkpt><trkpt lat="45.99717388535938" lon="12.292700241459622"><ele>138.0</ele><time>2026-04-25T11:42:50.998Z</time></trkpt><trkpt lat="45.99711465818378" lon="12.292781998113842"><ele>138.0</ele><time>2026-04-25T11:42:52.998Z</time></trkpt><trkpt lat="45.99705187264295" lon="12.292868727724738"><ele>138.0</ele><time>2026-04-25T11:42:54.998Z</time></trkpt><trkpt lat="45.996983693839056" lon="12.29296105682037"><ele>138.0</ele><time>2026-04-25T11:42:56.998Z</time></trkpt><trkpt lat="45.996911177841596" lon="12.293059644562142"><ele>138.0</ele><time>2026-04-25T11:42:58.998Z</time></trkpt><trkpt lat="45.99683466479898" lon="12.2931596673141"><ele>138.0</ele><time>2026-04-25T11:43:00.998Z</time></trkpt><trkpt lat="45.9967491670848" lon="12.293261229332847"><ele>138.0</ele><time>2026-04-25T11:43:02.998Z</time></trkpt><trkpt lat="45.99666102079471" lon="12.293363794974049"><ele>138.0</ele><time>2026-04-25T11:43:04.998Z</time></trkpt><trkpt lat="45.99656611192513" lon="12.293463627315772"><ele>138.0</ele><time>2026-04-25T11:43:06.998Z</time></trkpt><trkpt lat="45.996470264702786" lon="12.293561049329574"><ele>138.0</ele><time>2026-04-25T11:43:08.998Z</time></trkpt><trkpt lat="45.996374337865234" lon="12.293658882105277"><ele>138.0</ele><time>2026-04-25T11:43:10.998Z</time></trkpt><trkpt lat="45.99627436746736" lon="12.293747888256064"><ele>138.0</ele><time>2026-04-25T11:43:12.998Z</time></trkpt><trkpt lat="45.996178491844134" lon="12.293838597329225"><ele>138.0</ele><time>2026-04-25T11:43:14.998Z</time></trkpt><trkpt lat="45.99608359978562" lon="12.293925032322708"><ele>138.0</ele><time>2026-04-25T11:43:16.998Z</time></trkpt><trkpt lat="45.995985968159765" lon="12.294013096486246"><ele>138.33333333333334</ele><time>2026-04-25T11:43:18.997Z</time></trkpt><trkpt lat="45.99587861005457" lon="12.29410318288673"><ele>138.66666666666666</ele><time>2026-04-25T11:43:20.997Z</time></trkpt><trkpt lat="45.99582510622004" lon="12.294152922093742"><ele>139.0</ele><time>2026-04-25T11:43:21.997Z</time></trkpt><trkpt lat="45.995769662403454" lon="12.294205244049474"><ele>139.33333333333331</ele><time>2026-04-25T11:43:22.997Z</time></trkpt><trkpt lat="45.99571396002965" lon="12.294255452329297"><ele>139.66666666666666</ele><time>2026-04-25T11:43:23.997Z</time></trkpt><trkpt lat="45.9956576511646" lon="12.29430455968134"><ele>140.0</ele><time>2026-04-25T11:43:24.997Z</time></trkpt><trkpt lat="45.99560216026491" lon="12.2943546987679"><ele>140.14285714285714</ele><time>2026-04-25T11:43:25.997Z</time></trkpt><trkpt lat="45.99554801343149" lon="12.294407523412996"><ele>140.28571428571428</ele><time>2026-04-25T11:43:26.997Z</time></trkpt><trkpt lat="45.9954949365007" lon="12.294462070263798"><ele>140.42857142857144</ele><time>2026-04-25T11:43:27.997Z</time></trkpt><trkpt lat="45.99543765118486" lon="12.294514339525914"><ele>140.57142857142856</ele><time>2026-04-25T11:43:28.997Z</time></trkpt><trkpt lat="45.995378390639445" lon="12.294557917790264"><ele>140.71428571428572</ele><time>2026-04-25T11:43:29.997Z</time></trkpt><trkpt lat="45.99532192929109" lon="12.294605235958132"><ele>140.85714285714286</ele><time>2026-04-25T11:43:30.997Z</time></trkpt><trkpt lat="45.99526415787887" lon="12.294661624775932"><ele>141.0</ele><time>2026-04-25T11:43:32Z</time></trkpt><trkpt lat="45.99520811351713" lon="12.294715806623378"><ele>140.71428571428572</ele><time>2026-04-25T11:43:33Z</time></trkpt><trkpt lat="45.995151658817086" lon="12.29476539515103"><ele>140.42857142857142</ele><time>2026-04-25T11:43:34Z</time></trkpt><trkpt lat="45.995094632996675" lon="12.294816442534533"><ele>140.14285714285714</ele><time>2026-04-25T11:43:35Z</time></trkpt><trkpt lat="45.995037447827755" lon="12.294868750905842"><ele>139.85714285714286</ele><time>2026-04-25T11:43:36Z</time></trkpt><trkpt lat="45.99497821261295" lon="12.294924282168084"><ele>139.57142857142858</ele><time>2026-04-25T11:43:37Z</time></trkpt><trkpt lat="45.99492040813389" lon="12.294975819139108"><ele>139.28571428571428</ele><time>2026-04-25T11:43:38Z</time></trkpt><trkpt lat="45.99486169269898" lon="12.29503288270584"><ele>139.0</ele><time>2026-04-25T11:43:39Z</time></trkpt><trkpt lat="45.99480147425207" lon="12.29508640993304"><ele>139.0</ele><time>2026-04-25T11:43:40Z</time></trkpt><trkpt lat="45.994739262716365" lon="12.295141588053866"><ele>139.0</ele><time>2026-04-25T11:43:41Z</time></trkpt><trkpt lat="45.99468032860241" lon="12.2951966315918"><ele>139.0</ele><time>2026-04-25T11:43:42Z</time></trkpt><trkpt lat="45.994619691933686" lon="12.295251113790101"><ele>139.0</ele><time>2026-04-25T11:43:43Z</time></trkpt><trkpt lat="45.99456064377989" lon="12.295305719629415"><ele>139.0</ele><time>2026-04-25T11:43:44Z</time></trkpt><trkpt lat="45.99450103300055" lon="12.295361618566155"><ele>139.0</ele><time>2026-04-25T11:43:45Z</time></trkpt><trkpt lat="45.994441655024694" lon="12.295411862505272"><ele>139.0</ele><time>2026-04-25T11:43:46Z</time></trkpt><trkpt lat="45.994381960851626" lon="12.29546340095933"><ele>139.0</ele><time>2026-04-25T11:43:47Z</time></trkpt><trkpt lat="45.99432254505101" lon="12.295518015471366"><ele>139.0</ele><time>2026-04-25T11:43:48Z</time></trkpt><trkpt lat="45.99426361634793" lon="12.295572442343795"><ele>139.0</ele><time>2026-04-25T11:43:49Z</time></trkpt><trkpt lat="45.994201485029095" lon="12.295627547807676"><ele>139.0</ele><time>2026-04-25T11:43:50Z</time></trkpt><trkpt lat="45.99413950274235" lon="12.295682011095098"><ele>139.0</ele><time>2026-04-25T11:43:51Z</time></trkpt><trkpt lat="45.994077284041886" lon="12.295740638994168"><ele>139.0</ele><time>2026-04-25T11:43:52Z</time></trkpt><trkpt lat="45.99401367680983" lon="12.295794470504946"><ele>139.0</ele><time>2026-04-25T11:43:53Z</time></trkpt><trkpt lat="45.993949300727465" lon="12.295854220563339"><ele>138.5</ele><time>2026-04-25T11:43:54Z</time></trkpt><trkpt lat="45.99388753075941" lon="12.295913831762817"><ele>138.0</ele><time>2026-04-25T11:43:55Z</time></trkpt><trkpt lat="45.993823877499274" lon="12.295974172230638"><ele>137.5</ele><time>2026-04-25T11:43:56Z</time></trkpt><trkpt lat="45.993758006438675" lon="12.296029751884959"><ele>137.0</ele><time>2026-04-25T11:43:57Z</time></trkpt><trkpt lat="45.99369101664372" lon="12.296085900006856"><ele>136.5</ele><time>2026-04-25T11:43:58Z</time></trkpt><trkpt lat="45.993627250338626" lon="12.2961395929867"><ele>136.0</ele><time>2026-04-25T11:43:59Z</time></trkpt><trkpt lat="45.99356269403543" lon="12.29620032730095"><ele>136.0</ele><time>2026-04-25T11:44:00Z</time></trkpt><trkpt lat="45.9935025609442" lon="12.296262137756855"><ele>136.0</ele><time>2026-04-25T11:44:01Z</time></trkpt><trkpt lat="45.993438409181714" lon="12.296319875257693"><ele>136.0</ele><time>2026-04-25T11:44:02Z</time></trkpt><trkpt lat="45.993374155064274" lon="12.296376069300727"><ele>136.0</ele><time>2026-04-25T11:44:03Z</time></trkpt><trkpt lat="45.9933074190408" lon="12.296434276399374"><ele>136.0</ele><time>2026-04-25T11:44:04Z</time></trkpt><trkpt lat="45.9932436991672" lon="12.296491395434867"><ele>136.0</ele><time>2026-04-25T11:44:05Z</time></trkpt><trkpt lat="45.993177368884574" lon="12.296552572511224"><ele>136.0</ele><time>2026-04-25T11:44:06Z</time></trkpt><trkpt lat="45.99311396094452" lon="12.29661477997848"><ele>136.0</ele><time>2026-04-25T11:44:07Z</time></trkpt><trkpt lat="45.993047468023086" lon="12.296676252939482"><ele>136.0</ele><time>2026-04-25T11:44:08Z</time></trkpt><trkpt lat="45.992983247792274" lon="12.296741537458763"><ele>136.0</ele><time>2026-04-25T11:44:08.999Z</time></trkpt><trkpt lat="45.99291704498662" lon="12.296798054018614"><ele>136.0</ele><time>2026-04-25T11:44:09.999Z</time></trkpt><trkpt lat="45.99285387834532" lon="12.296852810618944"><ele>136.0</ele><time>2026-04-25T11:44:10.999Z</time></trkpt><trkpt lat="45.992788175617584" lon="12.296908580633703"><ele>136.0</ele><time>2026-04-25T11:44:11.999Z</time></trkpt><trkpt lat="45.99272774567652" lon="12.296963568378953"><ele>136.0</ele><time>2026-04-25T11:44:12.999Z</time></trkpt><trkpt lat="45.9926637554364" lon="12.297021289516211"><ele>136.0</ele><time>2026-04-25T11:44:13.999Z</time></trkpt><trkpt lat="45.99259891937172" lon="12.297074520831204"><ele>136.0</ele><time>2026-04-25T11:44:14.999Z</time></trkpt><trkpt lat="45.99253304911998" lon="12.29713290306163"><ele>136.0</ele><time>2026-04-25T11:44:15.999Z</time></trkpt><trkpt lat="45.99246710693492" lon="12.29719269185556"><ele>136.0</ele><time>2026-04-25T11:44:16.999Z</time></trkpt><trkpt lat="45.99240240518751" lon="12.29724721618486"><ele>136.14285714285714</ele><time>2026-04-25T11:44:17.999Z</time></trkpt><trkpt lat="45.99233958077843" lon="12.297302997041713"><ele>136.28571428571428</ele><time>2026-04-25T11:44:18.999Z</time></trkpt><trkpt lat="45.992276036645706" lon="12.297358438257445"><ele>136.42857142857144</ele><time>2026-04-25T11:44:19.999Z</time></trkpt><trkpt lat="45.99221430906749" lon="12.297411971607536"><ele>136.57142857142856</ele><time>2026-04-25T11:44:20.999Z</time></trkpt><trkpt lat="45.992152617052135" lon="12.29746762402258"><ele>136.71428571428572</ele><time>2026-04-25T11:44:21.999Z</time></trkpt><trkpt lat="45.99209419241422" lon="12.297519479413182"><ele>136.85714285714286</ele><time>2026-04-25T11:44:22.999Z</time></trkpt><trkpt lat="45.99202945758141" lon="12.29756644854463"><ele>137.0</ele><time>2026-04-25T11:44:23.999Z</time></trkpt><trkpt lat="45.99196611658626" lon="12.29761117567371"><ele>137.00000000000003</ele><time>2026-04-25T11:44:24.999Z</time></trkpt><trkpt lat="45.99190135006854" lon="12.297657150733679"><ele>137.0</ele><time>2026-04-25T11:44:25.999Z</time></trkpt><trkpt lat="45.99183757420244" lon="12.297699483955439"><ele>137.0</ele><time>2026-04-25T11:44:26.999Z</time></trkpt><trkpt lat="45.9917713606062" lon="12.297736518696759"><ele>137.0</ele><time>2026-04-25T11:44:27.999Z</time></trkpt><trkpt lat="45.99170561777139" lon="12.297776415325396"><ele>137.0</ele><time>2026-04-25T11:44:28.999Z</time></trkpt><trkpt lat="45.991637119482064" lon="12.297807585729213"><ele>137.00000000000003</ele><time>2026-04-25T11:44:29.999Z</time></trkpt><trkpt lat="45.99156780942989" lon="12.297840414017806"><ele>137.0</ele><time>2026-04-25T11:44:30.999Z</time></trkpt><trkpt lat="45.99150011399462" lon="12.297873252345891"><ele>137.14285714285717</ele><time>2026-04-25T11:44:31.999Z</time></trkpt><trkpt lat="45.9914319694041" lon="12.297909491468136"><ele>137.28571428571428</ele><time>2026-04-25T11:44:32.999Z</time></trkpt><trkpt lat="45.991361230479676" lon="12.297941640288103"><ele>137.42857142857144</ele><time>2026-04-25T11:44:33.999Z</time></trkpt><trkpt lat="45.99129028119413" lon="12.297977541156044"><ele>137.57142857142858</ele><time>2026-04-25T11:44:34.999Z</time></trkpt><trkpt lat="45.99122038765908" lon="12.29801434493578"><ele>137.71428571428572</ele><time>2026-04-25T11:44:35.999Z</time></trkpt><trkpt lat="45.9911518532656" lon="12.298048210029911"><ele>137.85714285714286</ele><time>2026-04-25T11:44:36.999Z</time></trkpt><trkpt lat="45.9910808746241" lon="12.298082331608022"><ele>138.0</ele><time>2026-04-25T11:44:37.999Z</time></trkpt><trkpt lat="45.9910117144529" lon="12.298109914770526"><ele>137.57142857142858</ele><time>2026-04-25T11:44:38.999Z</time></trkpt><trkpt lat="45.990942722201616" lon="12.298142008277297"><ele>137.14285714285717</ele><time>2026-04-25T11:44:39.999Z</time></trkpt><trkpt lat="45.990873049674" lon="12.298177389987481"><ele>136.71428571428572</ele><time>2026-04-25T11:44:40.999Z</time></trkpt><trkpt lat="45.99080431590356" lon="12.298207496675039"><ele>136.28571428571428</ele><time>2026-04-25T11:44:41.999Z</time></trkpt><trkpt lat="45.99073863306572" lon="12.29823223068563"><ele>135.85714285714283</ele><time>2026-04-25T11:44:42.999Z</time></trkpt><trkpt lat="45.9906720516347" lon="12.298260131565895"><ele>135.42857142857142</ele><time>2026-04-25T11:44:43.999Z</time></trkpt><trkpt lat="45.990607746464924" lon="12.298290768578667"><ele>135.0</ele><time>2026-04-25T11:44:44.999Z</time></trkpt><trkpt lat="45.99054731614777" lon="12.298318901650276"><ele>134.8</ele><time>2026-04-25T11:44:45.999Z</time></trkpt><trkpt lat="45.990440430337564" lon="12.298366462048751"><ele>134.6</ele><time>2026-04-25T11:44:47.999Z</time></trkpt><trkpt lat="45.99037737413107" lon="12.298396698202147"><ele>134.4</ele><time>2026-04-25T11:44:49.999Z</time></trkpt><trkpt lat="45.990301956092416" lon="12.298422102127084"><ele>134.2</ele><time>2026-04-25T11:44:52.998Z</time></trkpt><trkpt lat="45.99023305613142" lon="12.298384698319312"><ele>134.0</ele><time>2026-04-25T11:44:55.998Z</time></trkpt><trkpt lat="45.990138823209264" lon="12.298234582042623"><ele>134.0</ele><time>2026-04-25T11:44:59.998Z</time></trkpt><trkpt lat="45.99011664824994" lon="12.298133888263846"><ele>134.0</ele><time>2026-04-25T11:45:01.998Z</time></trkpt><trkpt lat="45.99009419098982" lon="12.298031912657816"><ele>134.0</ele><time>2026-04-25T11:45:03.998Z</time></trkpt><trkpt lat="45.990064402799405" lon="12.297896648394477"><ele>134.0</ele><time>2026-04-25T11:45:06.998Z</time></trkpt><trkpt lat="45.99004026774326" lon="12.297782381041259"><ele>134.0</ele><time>2026-04-25T11:45:08.998Z</time></trkpt><trkpt lat="45.99002557516071" lon="12.2976599987793"><ele>134.0</ele><time>2026-04-25T11:45:10.998Z</time></trkpt><trkpt lat="45.99000151201835" lon="12.297542953373929"><ele>134.0</ele><time>2026-04-25T11:45:12.998Z</time></trkpt><trkpt lat="45.98997019241256" lon="12.297425677038465"><ele>134.0</ele><time>2026-04-25T11:45:14.998Z</time></trkpt><trkpt lat="45.989939601585576" lon="12.297310370467788"><ele>134.0</ele><time>2026-04-25T11:45:16.998Z</time></trkpt><trkpt lat="45.98990897836343" lon="12.29719048727244"><ele>134.0</ele><time>2026-04-25T11:45:18.998Z</time></trkpt><trkpt lat="45.98988631579061" lon="12.297072267696327"><ele>134.0</ele><time>2026-04-25T11:45:20.998Z</time></trkpt><trkpt lat="45.98986110825482" lon="12.296951379686297"><ele>134.0</ele><time>2026-04-25T11:45:22.998Z</time></trkpt><trkpt lat="45.9898341149652" lon="12.29683326379068"><ele>134.66666666666666</ele><time>2026-04-25T11:45:24.998Z</time></trkpt><trkpt lat="45.989803657268304" lon="12.296718553907422"><ele>135.33333333333331</ele><time>2026-04-25T11:45:26.998Z</time></trkpt><trkpt lat="45.98977636927372" lon="12.296621222872671"><ele>136.0</ele><time>2026-04-25T11:45:28.998Z</time></trkpt><trkpt lat="45.98974936963016" lon="12.296535639032337"><ele>136.66666666666666</ele><time>2026-04-25T11:45:30.998Z</time></trkpt><trkpt lat="45.98971267561901" lon="12.296446020434614"><ele>137.33333333333334</ele><time>2026-04-25T11:45:34.998Z</time></trkpt><trkpt lat="45.98959896816299" lon="12.296461687930503"><ele>138.0</ele><time>2026-04-25T11:45:38Z</time></trkpt><trkpt lat="45.98951571026976" lon="12.296504603651725"><ele>138.0</ele><time>2026-04-25T11:45:40Z</time></trkpt><trkpt lat="45.98942346121737" lon="12.296547851062053"><ele>138.0</ele><time>2026-04-25T11:45:42Z</time></trkpt><trkpt lat="45.9893261503264" lon="12.296593107691589"><ele>138.0</ele><time>2026-04-25T11:45:44Z</time></trkpt><trkpt lat="45.989224265685706" lon="12.296639644377697"><ele>138.0</ele><time>2026-04-25T11:45:46Z</time></trkpt><trkpt lat="45.98912296064036" lon="12.296696111094437"><ele>138.0</ele><time>2026-04-25T11:45:48Z</time></trkpt><trkpt lat="45.98902612067084" lon="12.296743228928598"><ele>138.0</ele><time>2026-04-25T11:45:50Z</time></trkpt><trkpt lat="45.98893325129323" lon="12.296788520759268"><ele>138.0</ele><time>2026-04-25T11:45:52Z</time></trkpt><trkpt lat="45.98883792423741" lon="12.296823456636169"><ele>138.0</ele><time>2026-04-25T11:45:54Z</time></trkpt><trkpt lat="45.98874858687579" lon="12.296851949525276"><ele>138.0</ele><time>2026-04-25T11:45:56Z</time></trkpt><trkpt lat="45.98866630765314" lon="12.296874105254876"><ele>138.0</ele><time>2026-04-25T11:45:58Z</time></trkpt><trkpt lat="45.98860523132205" lon="12.296899609929277"><ele>138.0</ele><time>2026-04-25T11:46:00Z</time></trkpt><trkpt lat="45.988537993243284" lon="12.296941529583211"><ele>138.0</ele><time>2026-04-25T11:46:02Z</time></trkpt><trkpt lat="45.98846619340121" lon="12.297009980314765"><ele>138.0</ele><time>2026-04-25T11:46:04Z</time></trkpt><trkpt lat="45.98838538870385" lon="12.297047523513205"><ele>138.0</ele><time>2026-04-25T11:46:06Z</time></trkpt><trkpt lat="45.98830332239203" lon="12.297072430514033"><ele>138.0</ele><time>2026-04-25T11:46:08Z</time></trkpt><trkpt lat="45.98822360934915" lon="12.29710778847586"><ele>138.0</ele><time>2026-04-25T11:46:10Z</time></trkpt><trkpt lat="45.98814429048309" lon="12.297142511255643"><ele>138.0</ele><time>2026-04-25T11:46:12Z</time></trkpt><trkpt lat="45.988062126910954" lon="12.297175184778059"><ele>137.83333333333334</ele><time>2026-04-25T11:46:14Z</time></trkpt><trkpt lat="45.987981556653985" lon="12.297209157137274"><ele>137.66666666666666</ele><time>2026-04-25T11:46:16Z</time></trkpt><trkpt lat="45.98789698883206" lon="12.297250148468233"><ele>137.5</ele><time>2026-04-25T11:46:18Z</time></trkpt><trkpt lat="45.98781198685249" lon="12.29728819752305"><ele>137.33333333333331</ele><time>2026-04-25T11:46:20Z</time></trkpt><trkpt lat="45.987724438487774" lon="12.297328299311923"><ele>137.16666666666666</ele><time>2026-04-25T11:46:22Z</time></trkpt><trkpt lat="45.98763880476436" lon="12.297365388636287"><ele>137.0</ele><time>2026-04-25T11:46:23.999Z</time></trkpt><trkpt lat="45.98755577767295" lon="12.297412716935796"><ele>136.5</ele><time>2026-04-25T11:46:25.999Z</time></trkpt><trkpt lat="45.98747418416021" lon="12.297458833769253"><ele>136.0</ele><time>2026-04-25T11:46:27.999Z</time></trkpt><trkpt lat="45.98739557985449" lon="12.297512810082688"><ele>135.5</ele><time>2026-04-25T11:46:29.999Z</time></trkpt><trkpt lat="45.98732151353052" lon="12.297556054716567"><ele>135.0</ele><time>2026-04-25T11:46:31.999Z</time></trkpt><trkpt lat="45.98725338173155" lon="12.297595957219551"><ele>134.5</ele><time>2026-04-25T11:46:33.999Z</time></trkpt><trkpt lat="45.98718636614845" lon="12.297637064400199"><ele>134.0</ele><time>2026-04-25T11:46:35.999Z</time></trkpt><trkpt lat="45.98712352958116" lon="12.297677408564716"><ele>134.0</ele><time>2026-04-25T11:46:37.999Z</time></trkpt><trkpt lat="45.98706207938163" lon="12.2977131545399"><ele>134.0</ele><time>2026-04-25T11:46:39.999Z</time></trkpt><trkpt lat="45.987001494802534" lon="12.297753129241691"><ele>134.0</ele><time>2026-04-25T11:46:41.999Z</time></trkpt><trkpt lat="45.986913979791225" lon="12.297734417546367"><ele>134.0</ele><time>2026-04-25T11:46:44.999Z</time></trkpt><trkpt lat="45.98689709620129" lon="12.297613259373973"><ele>134.0</ele><time>2026-04-25T11:46:46.999Z</time></trkpt><trkpt lat="45.986880404833784" lon="12.297505081329339"><ele>134.0</ele><time>2026-04-25T11:46:48.999Z</time></trkpt><trkpt lat="45.98686230799764" lon="12.29739132444193"><ele>134.0</ele><time>2026-04-25T11:46:50.999Z</time></trkpt><trkpt lat="45.98683815411715" lon="12.29727688041885"><ele>134.0</ele><time>2026-04-25T11:46:52.999Z</time></trkpt><trkpt lat="45.98680926920047" lon="12.297164020951891"><ele>134.0</ele><time>2026-04-25T11:46:54.999Z</time></trkpt><trkpt lat="45.986783377124816" lon="12.29705469792081"><ele>134.0</ele><time>2026-04-25T11:46:56.999Z</time></trkpt><trkpt lat="45.98676080839417" lon="12.296944435738007"><ele>134.0</ele><time>2026-04-25T11:46:58.999Z</time></trkpt><trkpt lat="45.98673952504446" lon="12.296838256022873"><ele>134.0</ele><time>2026-04-25T11:47:00.999Z</time></trkpt><trkpt lat="45.98671773003977" lon="12.29673978471781"><ele>134.28571428571428</ele><time>2026-04-25T11:47:02.999Z</time></trkpt><trkpt lat="45.986700120072314" lon="12.29664522691964"><ele>134.57142857142856</ele><time>2026-04-25T11:47:04.999Z</time></trkpt><trkpt lat="45.98667792165121" lon="12.296559607652755"><ele>134.85714285714283</ele><time>2026-04-25T11:47:06.998Z</time></trkpt><trkpt lat="45.98662547292883" lon="12.296507071589259"><ele>135.14285714285714</ele><time>2026-04-25T11:47:08.998Z</time></trkpt><trkpt lat="45.986553678177515" lon="12.296516528448612"><ele>135.42857142857142</ele><time>2026-04-25T11:47:10.998Z</time></trkpt><trkpt lat="45.98647688432428" lon="12.29653945228706"><ele>135.7142857142857</ele><time>2026-04-25T11:47:12.998Z</time></trkpt><trkpt lat="45.98639083986395" lon="12.296573078664657"><ele>136.0</ele><time>2026-04-25T11:47:14.998Z</time></trkpt><trkpt lat="45.98629916432772" lon="12.296607493391615"><ele>136.2</ele><time>2026-04-25T11:47:16.998Z</time></trkpt><trkpt lat="45.98620550872687" lon="12.2966458820683"><ele>136.39999999999998</ele><time>2026-04-25T11:47:18.998Z</time></trkpt><trkpt lat="45.986113854335905" lon="12.296690476089937"><ele>136.6</ele><time>2026-04-25T11:47:20.998Z</time></trkpt><trkpt lat="45.98602066879776" lon="12.296728959688288"><ele>136.79999999999998</ele><time>2026-04-25T11:47:22.998Z</time></trkpt><trkpt lat="45.985928146129666" lon="12.296769019638344"><ele>137.0</ele><time>2026-04-25T11:47:24.998Z</time></trkpt><trkpt lat="45.98584190951255" lon="12.296810613779952"><ele>137.0</ele><time>2026-04-25T11:47:26.998Z</time></trkpt><trkpt lat="45.98575304658333" lon="12.296843011521338"><ele>137.0</ele><time>2026-04-25T11:47:28.998Z</time></trkpt><trkpt lat="45.985673471114524" lon="12.29691546301603"><ele>137.0</ele><time>2026-04-25T11:47:30.998Z</time></trkpt><trkpt lat="45.985586097751444" lon="12.296940705775885"><ele>137.0</ele><time>2026-04-25T11:47:32.998Z</time></trkpt><trkpt lat="45.985500868456725" lon="12.296981750873028"><ele>137.0</ele><time>2026-04-25T11:47:34.998Z</time></trkpt><trkpt lat="45.98542794160422" lon="12.297019697937454"><ele>137.0</ele><time>2026-04-25T11:47:36.998Z</time></trkpt><trkpt lat="45.98535690654289" lon="12.297048601670573"><ele>137.0</ele><time>2026-04-25T11:47:39.998Z</time></trkpt><trkpt lat="45.98531428588747" lon="12.296878835332251"><ele>137.0</ele><time>2026-04-25T11:47:41.998Z</time></trkpt><trkpt lat="45.98529532190358" lon="12.296759943251933"><ele>137.0</ele><time>2026-04-25T11:47:44.999Z</time></trkpt><trkpt lat="45.98528685684792" lon="12.296643849244937"><ele>137.0</ele><time>2026-04-25T11:47:47.999Z</time></trkpt><trkpt lat="45.98521709565351" lon="12.29659442886245"><ele>137.0</ele><time>2026-04-25T11:47:49.999Z</time></trkpt><trkpt lat="45.98515561694872" lon="12.29651041295403"><ele>137.33333333333331</ele><time>2026-04-25T11:47:52.999Z</time></trkpt><trkpt lat="45.98508183464763" lon="12.29639255086806"><ele>137.66666666666666</ele><time>2026-04-25T11:47:56.999Z</time></trkpt><trkpt lat="45.985054678027566" lon="12.296293326885579"><ele>138.0</ele><time>2026-04-25T11:47:59.999Z</time></trkpt><trkpt lat="45.98503934326821" lon="12.296182665176099"><ele>138.33333333333334</ele><time>2026-04-25T11:48:02.999Z</time></trkpt><trkpt lat="45.98501456221301" lon="12.296078167968854"><ele>138.66666666666669</ele><time>2026-04-25T11:48:05.999Z</time></trkpt><trkpt lat="45.9850227217756" lon="12.295966111662779"><ele>139.0</ele><time>2026-04-25T11:48:09.999Z</time></trkpt><trkpt lat="45.985101776135274" lon="12.295934512139082"><ele>139.0</ele><time>2026-04-25T11:48:12.999Z</time></trkpt><trkpt lat="45.985148386102615" lon="12.295820442338794"><ele>139.0</ele><time>2026-04-25T11:48:15.999Z</time></trkpt><trkpt lat="45.98510005025258" lon="12.295734231537319"><ele>139.0</ele><time>2026-04-25T11:48:17.999Z</time></trkpt><trkpt lat="45.98503934478983" lon="12.29564526690741"><ele>139.0</ele><time>2026-04-25T11:48:21.999Z</time></trkpt><trkpt lat="45.98498599765871" lon="12.295592498219206"><ele>139.0</ele><time>2026-04-25T11:48:25.999Z</time></trkpt><trkpt lat="45.98492715117587" lon="12.295551579770247"><ele>139.0</ele><time>2026-04-25T11:48:29.999Z</time></trkpt><trkpt lat="45.984877619634844" lon="12.295492597255379"><ele>140.42857142857142</ele><time>2026-04-25T11:48:33.999Z</time></trkpt><trkpt lat="45.984860133661485" lon="12.29540073023435"><ele>141.85714285714286</ele><time>2026-04-25T11:48:37.999Z</time></trkpt><trkpt lat="45.98483715725335" lon="12.295310457658683"><ele>143.28571428571428</ele><time>2026-04-25T11:48:48.998Z</time></trkpt><trkpt lat="45.98487707286406" lon="12.295225296286851"><ele>144.71428571428572</ele><time>2026-04-25T11:48:53.998Z</time></trkpt><trkpt lat="45.984923977977815" lon="12.295144794072623"><ele>146.14285714285714</ele><time>2026-04-25T11:48:58.998Z</time></trkpt><trkpt lat="45.98495789833684" lon="12.295065264247361"><ele>147.57142857142856</ele><time>2026-04-25T11:49:03.998Z</time></trkpt><trkpt lat="45.98499991861882" lon="12.29498984661007"><ele>149.0</ele><time>2026-04-25T11:49:09.998Z</time></trkpt><trkpt lat="45.98495800702614" lon="12.295062046217643"><ele>149.0</ele><time>2026-04-25T12:03:32.998Z</time></trkpt><trkpt lat="45.98493404686245" lon="12.295146245295117"><ele>149.0</ele><time>2026-04-25T12:03:42.998Z</time></trkpt><trkpt lat="45.984884031931934" lon="12.29524175691657"><ele>149.0</ele><time>2026-04-25T12:03:46.998Z</time></trkpt><trkpt lat="45.98484853586008" lon="12.295323609705571"><ele>149.0</ele><time>2026-04-25T12:03:50.998Z</time></trkpt><trkpt lat="45.984777169397695" lon="12.295339970555549"><ele>149.0</ele><time>2026-04-25T12:03:53.998Z</time></trkpt><trkpt lat="45.984742894187" lon="12.295261975526218"><ele>149.0</ele><time>2026-04-25T12:03:57.998Z</time></trkpt><trkpt lat="45.98470074566623" lon="12.29517417430991"><ele>149.0</ele><time>2026-04-25T12:04:02.997Z</time></trkpt><trkpt lat="45.98463802311024" lon="12.295104895378811"><ele>149.0</ele><time>2026-04-25T12:04:08.997Z</time></trkpt><trkpt lat="45.984590920502285" lon="12.295037057063764"><ele>149.0</ele><time>2026-04-25T12:04:13.997Z</time></trkpt><trkpt lat="45.98453581105433" lon="12.294990915389114"><ele>149.0</ele><time>2026-04-25T12:04:18.997Z</time></trkpt><trkpt lat="45.98448298968091" lon="12.294940336385213"><ele>149.0</ele><time>2026-04-25T12:04:23.997Z</time></trkpt><trkpt lat="45.98441874815537" lon="12.294878578827948"><ele>149.0</ele><time>2026-04-25T12:04:30Z</time></trkpt><trkpt lat="45.98436454804276" lon="12.294822429613651"><ele>149.0</ele><time>2026-04-25T12:04:35Z</time></trkpt><trkpt lat="45.98430659924842" lon="12.29476237570114"><ele>149.0</ele><time>2026-04-25T12:04:40Z</time></trkpt><trkpt lat="45.984257081302864" lon="12.294703156562978"><ele>151.28571428571428</ele><time>2026-04-25T12:04:45Z</time></trkpt><trkpt lat="45.98421155320246" lon="12.2946320483511"><ele>153.57142857142856</ele><time>2026-04-25T12:04:49.999Z</time></trkpt><trkpt lat="45.984165585303394" lon="12.294561071889964"><ele>155.85714285714286</ele><time>2026-04-25T12:04:54.999Z</time></trkpt><trkpt lat="45.984122031590886" lon="12.294488084124122"><ele>158.14285714285714</ele><time>2026-04-25T12:04:59.999Z</time></trkpt><trkpt lat="45.9840843141454" lon="12.294398291692424"><ele>160.42857142857144</ele><time>2026-04-25T12:05:04.999Z</time></trkpt><trkpt lat="45.98403877410553" lon="12.294319397479274"><ele>162.71428571428572</ele><time>2026-04-25T12:05:09.999Z</time></trkpt><trkpt lat="45.98400162358962" lon="12.29423678964724"><ele>165.0</ele><time>2026-04-25T12:05:14.999Z</time></trkpt><trkpt lat="45.98395502546702" lon="12.294165041478042"><ele>165.00000000000003</ele><time>2026-04-25T12:05:19.999Z</time></trkpt><trkpt lat="45.98393374215638" lon="12.294266024833767"><ele>165.0</ele><time>2026-04-25T12:05:25.999Z</time></trkpt><trkpt lat="45.98395521291839" lon="12.294358905927856"><ele>165.0</ele><time>2026-04-25T12:05:29.999Z</time></trkpt><trkpt lat="45.983990103680355" lon="12.294453981129312"><ele>165.0</ele><time>2026-04-25T12:05:34.998Z</time></trkpt><trkpt lat="45.984015625734806" lon="12.29454484272714"><ele>165.0</ele><time>2026-04-25T12:05:38.998Z</time></trkpt><trkpt lat="45.98405186233659" lon="12.294648784178863"><ele>165.00000000000003</ele><time>2026-04-25T12:05:43.998Z</time></trkpt><trkpt lat="45.98407973041885" lon="12.294742895771158"><ele>165.0</ele><time>2026-04-25T12:05:47.998Z</time></trkpt><trkpt lat="45.984027582463305" lon="12.294794363741127"><ele>165.00000000000003</ele><time>2026-04-25T12:05:52.998Z</time></trkpt><trkpt lat="45.9839926586505" lon="12.294716712402472"><ele>165.0</ele><time>2026-04-25T12:05:56.998Z</time></trkpt><trkpt lat="45.98395621715726" lon="12.29462677898678"><ele>165.0</ele><time>2026-04-25T12:06:01.998Z</time></trkpt><trkpt lat="45.9839120556478" lon="12.294552338251474"><ele>165.0</ele><time>2026-04-25T12:06:05.998Z</time></trkpt><trkpt lat="45.983872236123474" lon="12.294481973921275"><ele>165.0</ele><time>2026-04-25T12:06:09.998Z</time></trkpt><trkpt lat="45.98383195480804" lon="12.294410494766813"><ele>165.00000000000003</ele><time>2026-04-25T12:06:13.998Z</time></trkpt><trkpt lat="45.983784561213874" lon="12.294479736870718"><ele>165.0</ele><time>2026-04-25T12:06:20.997Z</time></trkpt><trkpt lat="45.983836978369794" lon="12.294548637135"><ele>165.00000000000003</ele><time>2026-04-25T12:06:24.997Z</time></trkpt><trkpt lat="45.9838771132531" lon="12.294632444925584"><ele>165.0</ele><time>2026-04-25T12:06:27.997Z</time></trkpt><trkpt lat="45.983926042337224" lon="12.294728817069904"><ele>165.0</ele><time>2026-04-25T12:06:31.997Z</time></trkpt><trkpt lat="45.98393467314938" lon="12.294830249206045"><ele>165.0</ele><time>2026-04-25T12:06:36Z</time></trkpt><trkpt lat="45.98387164225678" lon="12.294815828326707"><ele>165.0</ele><time>2026-04-25T12:06:40Z</time></trkpt><trkpt lat="45.98383510696859" lon="12.29472366052136"><ele>165.00000000000003</ele><time>2026-04-25T12:06:44Z</time></trkpt><trkpt lat="45.98378767803814" lon="12.294659174784265"><ele>165.0</ele><time>2026-04-25T12:06:48Z</time></trkpt><trkpt lat="45.983722230377666" lon="12.294637823778364"><ele>165.00000000000003</ele><time>2026-04-25T12:06:52Z</time></trkpt><trkpt lat="45.98365248202262" lon="12.29465762583311"><ele>165.0</ele><time>2026-04-25T12:06:56Z</time></trkpt><trkpt lat="45.983586229867036" lon="12.29468237504214"><ele>165.0</ele><time>2026-04-25T12:07:00Z</time></trkpt><trkpt lat="45.98352438264377" lon="12.294702526278744"><ele>165.0</ele><time>2026-04-25T12:07:03.999Z</time></trkpt><trkpt lat="45.9834509506867" lon="12.294723782600625"><ele>165.0</ele><time>2026-04-25T12:07:08.999Z</time></trkpt><trkpt lat="45.98338739188493" lon="12.294738065311838"><ele>165.00000000000003</ele><time>2026-04-25T12:07:12.999Z</time></trkpt><trkpt lat="45.983319003416774" lon="12.29476061249145"><ele>165.0</ele><time>2026-04-25T12:07:17.999Z</time></trkpt><trkpt lat="45.983256627800486" lon="12.294773158227107"><ele>166.71428571428572</ele><time>2026-04-25T12:07:22.999Z</time></trkpt><trkpt lat="45.98319167028909" lon="12.294766704470852"><ele>168.42857142857144</ele><time>2026-04-25T12:07:27.999Z</time></trkpt><trkpt lat="45.983117671564024" lon="12.294787701013849"><ele>170.14285714285717</ele><time>2026-04-25T12:07:32.999Z</time></trkpt><trkpt lat="45.98304080238763" lon="12.294782221735632"><ele>171.85714285714286</ele><time>2026-04-25T12:07:37.999Z</time></trkpt><trkpt lat="45.98297181790494" lon="12.294741364590596"><ele>173.57142857142856</ele><time>2026-04-25T12:07:42.999Z</time></trkpt><trkpt lat="45.982915228862694" lon="12.294671019806605"><ele>175.2857142857143</ele><time>2026-04-25T12:07:47.998Z</time></trkpt><trkpt lat="45.982868929161754" lon="12.294602018685119"><ele>177.0</ele><time>2026-04-25T12:07:51.998Z</time></trkpt><trkpt lat="45.98282072631148" lon="12.294537309736135"><ele>179.14285714285714</ele><time>2026-04-25T12:07:55.998Z</time></trkpt><trkpt lat="45.98276660048019" lon="12.294464576575452"><ele>181.28571428571428</ele><time>2026-04-25T12:07:59.998Z</time></trkpt><trkpt lat="45.98272252548462" lon="12.29439793897088"><ele>183.42857142857142</ele><time>2026-04-25T12:08:03.998Z</time></trkpt><trkpt lat="45.98267198633847" lon="12.29433323879594"><ele>185.57142857142856</ele><time>2026-04-25T12:08:08.998Z</time></trkpt><trkpt lat="45.98261696860304" lon="12.294261492854934"><ele>187.71428571428572</ele><time>2026-04-25T12:08:13.998Z</time></trkpt><trkpt lat="45.982561396866465" lon="12.294206411902335"><ele>189.85714285714283</ele><time>2026-04-25T12:08:19.998Z</time></trkpt><trkpt lat="45.98250221162132" lon="12.294170675861663"><ele>192.0</ele><time>2026-04-25T12:08:27.998Z</time></trkpt><trkpt lat="45.98244121738941" lon="12.294138521339432"><ele>192.83333333333334</ele><time>2026-04-25T12:09:15Z</time></trkpt><trkpt lat="45.982385475345374" lon="12.294078153760845"><ele>193.66666666666669</ele><time>2026-04-25T12:09:22.999Z</time></trkpt><trkpt lat="45.98232519483526" lon="12.294025634314968"><ele>194.5</ele><time>2026-04-25T12:09:33.999Z</time></trkpt><trkpt lat="45.982250851838046" lon="12.293955896807901"><ele>195.33333333333334</ele><time>2026-04-25T12:09:50.999Z</time></trkpt><trkpt lat="45.982198650487135" lon="12.293888843308228"><ele>196.16666666666669</ele><time>2026-04-25T12:10:03.999Z</time></trkpt><trkpt lat="45.982137812311386" lon="12.29384393641569"><ele>197.0</ele><time>2026-04-25T12:10:13.998Z</time></trkpt><trkpt lat="45.982068646574746" lon="12.293779997462739"><ele>200.83333333333334</ele><time>2026-04-25T12:22:52.998Z</time></trkpt><trkpt lat="45.98198959168076" lon="12.293791107146063"><ele>204.66666666666669</ele><time>2026-04-25T12:23:06.997Z</time></trkpt><trkpt lat="45.98195236985474" lon="12.293871206527324"><ele>208.5</ele><time>2026-04-25T12:23:23Z</time></trkpt><trkpt lat="45.981884870310516" lon="12.293901951035672"><ele>212.33333333333331</ele><time>2026-04-25T12:23:31Z</time></trkpt><trkpt lat="45.98180473856167" lon="12.293917785506796"><ele>216.16666666666666</ele><time>2026-04-25T12:23:34Z</time></trkpt><trkpt lat="45.981739995452415" lon="12.293868136291609"><ele>220.0</ele><time>2026-04-25T12:23:37Z</time></trkpt><trkpt lat="45.981730877981825" lon="12.293751409244404"><ele>220.0</ele><time>2026-04-25T12:23:39Z</time></trkpt><trkpt lat="45.98170873856327" lon="12.29363463929971"><ele>220.0</ele><time>2026-04-25T12:23:41Z</time></trkpt><trkpt lat="45.981651428079346" lon="12.293534599122575"><ele>220.0</ele><time>2026-04-25T12:23:43Z</time></trkpt><trkpt lat="45.98156602078854" lon="12.29347916393578"><ele>220.0</ele><time>2026-04-25T12:23:45Z</time></trkpt><trkpt lat="45.98149679069011" lon="12.293385414507952"><ele>220.0</ele><time>2026-04-25T12:23:47Z</time></trkpt><trkpt lat="45.98143842987235" lon="12.293265983237188"><ele>218.6</ele><time>2026-04-25T12:23:49Z</time></trkpt><trkpt lat="45.98138514032093" lon="12.29314599535222"><ele>217.2</ele><time>2026-04-25T12:23:51Z</time></trkpt><trkpt lat="45.981336660969305" lon="12.29301760953957"><ele>215.8</ele><time>2026-04-25T12:23:53Z</time></trkpt><trkpt lat="45.98128912272445" lon="12.292896762798648"><ele>214.4</ele><time>2026-04-25T12:23:54.999Z</time></trkpt><trkpt lat="45.981235601710544" lon="12.292778440031876"><ele>213.0</ele><time>2026-04-25T12:23:56.999Z</time></trkpt><trkpt lat="45.98119094198484" lon="12.292651016205271"><ele>211.5</ele><time>2026-04-25T12:23:58.999Z</time></trkpt><trkpt lat="45.981136347837115" lon="12.292528317136684"><ele>210.0</ele><time>2026-04-25T12:24:00.999Z</time></trkpt><trkpt lat="45.981079547615515" lon="12.292416657787593"><ele>208.5</ele><time>2026-04-25T12:24:02.999Z</time></trkpt><trkpt lat="45.98101114922098" lon="12.292330721614888"><ele>207.0</ele><time>2026-04-25T12:24:04.999Z</time></trkpt><trkpt lat="45.980932096139945" lon="12.292320774670953"><ele>205.5</ele><time>2026-04-25T12:24:06.999Z</time></trkpt><trkpt lat="45.9808546082003" lon="12.29234700570549"><ele>204.0</ele><time>2026-04-25T12:24:08.999Z</time></trkpt><trkpt lat="45.98077150523861" lon="12.292386254468294"><ele>204.0</ele><time>2026-04-25T12:24:10.999Z</time></trkpt><trkpt lat="45.98067787151454" lon="12.292417479557411"><ele>204.0</ele><time>2026-04-25T12:24:12.999Z</time></trkpt><trkpt lat="45.9805820245927" lon="12.292422212177907"><ele>204.0</ele><time>2026-04-25T12:24:14.999Z</time></trkpt><trkpt lat="45.98049630419645" lon="12.292494373310154"><ele>204.0</ele><time>2026-04-25T12:24:16.999Z</time></trkpt><trkpt lat="45.9804375302584" lon="12.292577054833584"><ele>204.0</ele><time>2026-04-25T12:24:18.999Z</time></trkpt><trkpt lat="45.98038529493256" lon="12.292644210911527"><ele>204.0</ele><time>2026-04-25T12:24:20.999Z</time></trkpt><trkpt lat="45.98030070587477" lon="12.292599105647145"><ele>204.0</ele><time>2026-04-25T12:24:23.999Z</time></trkpt><trkpt lat="45.980259576135786" lon="12.292490054071118"><ele>204.0</ele><time>2026-04-25T12:24:25.999Z</time></trkpt><trkpt lat="45.98021258155438" lon="12.292357749651996"><ele>204.0</ele><time>2026-04-25T12:24:27.999Z</time></trkpt><trkpt lat="45.98015338033026" lon="12.29223710878748"><ele>204.0</ele><time>2026-04-25T12:24:29.999Z</time></trkpt><trkpt lat="45.980084556266135" lon="12.292141262543092"><ele>204.0</ele><time>2026-04-25T12:24:31.999Z</time></trkpt><trkpt lat="45.97999822579075" lon="12.292044055470345"><ele>205.5</ele><time>2026-04-25T12:24:33.999Z</time></trkpt><trkpt lat="45.97993382560952" lon="12.29201028454184"><ele>207.0</ele><time>2026-04-25T12:24:34.999Z</time></trkpt><trkpt lat="45.97986036601543" lon="12.292002500780441"><ele>208.5</ele><time>2026-04-25T12:24:35.999Z</time></trkpt><trkpt lat="45.97978276042103" lon="12.291982402354812"><ele>210.0</ele><time>2026-04-25T12:24:36.998Z</time></trkpt><trkpt lat="45.97971960745753" lon="12.29195421099838"><ele>211.5</ele><time>2026-04-25T12:24:37.998Z</time></trkpt><trkpt lat="45.97965221434226" lon="12.29196022018492"><ele>213.0</ele><time>2026-04-25T12:24:38.998Z</time></trkpt><trkpt lat="45.97952813874118" lon="12.291988624704942"><ele>213.0</ele><time>2026-04-25T12:24:40.998Z</time></trkpt><trkpt lat="45.97946136395715" lon="12.292034205367344"><ele>213.0</ele><time>2026-04-25T12:24:41.998Z</time></trkpt><trkpt lat="45.97940158389328" lon="12.292068899074314"><ele>213.0</ele><time>2026-04-25T12:24:42.998Z</time></trkpt><trkpt lat="45.979331981983805" lon="12.29208555777269"><ele>213.0</ele><time>2026-04-25T12:24:43.998Z</time></trkpt><trkpt lat="45.9792722958332" lon="12.292130446068912"><ele>213.0</ele><time>2026-04-25T12:24:44.998Z</time></trkpt><trkpt lat="45.979156098826266" lon="12.29211690355434"><ele>213.0</ele><time>2026-04-25T12:24:46.998Z</time></trkpt><trkpt lat="45.97910290806564" lon="12.292067302850514"><ele>209.33333333333334</ele><time>2026-04-25T12:24:47.998Z</time></trkpt><trkpt lat="45.979074084335856" lon="12.291965215881227"><ele>205.66666666666666</ele><time>2026-04-25T12:24:48.998Z</time></trkpt><trkpt lat="45.979056443900824" lon="12.29186900986868"><ele>202.0</ele><time>2026-04-25T12:24:49.998Z</time></trkpt><trkpt lat="45.97902324676639" lon="12.291789066346645"><ele>198.33333333333331</ele><time>2026-04-25T12:24:50.998Z</time></trkpt><trkpt lat="45.97895887091723" lon="12.291668179428079"><ele>194.66666666666666</ele><time>2026-04-25T12:24:52.998Z</time></trkpt><trkpt lat="45.978857255576315" lon="12.29156816210538"><ele>191.0</ele><time>2026-04-25T12:24:54.998Z</time></trkpt><trkpt lat="45.97879494917583" lon="12.29152705681039"><ele>191.0</ele><time>2026-04-25T12:24:55.998Z</time></trkpt><trkpt lat="45.97873022306088" lon="12.291490097235098"><ele>191.0</ele><time>2026-04-25T12:24:56.998Z</time></trkpt><trkpt lat="45.97866585997359" lon="12.291459990699993"><ele>191.0</ele><time>2026-04-25T12:24:57.998Z</time></trkpt><trkpt lat="45.978597582576775" lon="12.291436456277106"><ele>191.0</ele><time>2026-04-25T12:24:58.998Z</time></trkpt><trkpt lat="45.97853139637905" lon="12.291425403311878"><ele>191.0</ele><time>2026-04-25T12:24:59.998Z</time></trkpt><trkpt lat="45.978467370793076" lon="12.291441297195888"><ele>191.0</ele><time>2026-04-25T12:25:00.998Z</time></trkpt><trkpt lat="45.97840278675475" lon="12.291438672015028"><ele>191.0</ele><time>2026-04-25T12:25:01.998Z</time></trkpt><trkpt lat="45.97828399465889" lon="12.291469005918547"><ele>190.20000000000002</ele><time>2026-04-25T12:25:03.998Z</time></trkpt><trkpt lat="45.97817881528414" lon="12.291458862824506"><ele>189.4</ele><time>2026-04-25T12:25:05.998Z</time></trkpt><trkpt lat="45.97807750208021" lon="12.291421704256955"><ele>188.6</ele><time>2026-04-25T12:25:07.998Z</time></trkpt><trkpt lat="45.977996548772055" lon="12.291306183920826"><ele>187.8</ele><time>2026-04-25T12:25:09.998Z</time></trkpt><trkpt lat="45.977893281229896" lon="12.291242227947974"><ele>187.0</ele><time>2026-04-25T12:25:11.998Z</time></trkpt><trkpt lat="45.977808967448944" lon="12.291237963738496"><ele>187.0</ele><time>2026-04-25T12:25:13.998Z</time></trkpt><trkpt lat="45.9777469750723" lon="12.291349642173747"><ele>187.0</ele><time>2026-04-25T12:25:15.998Z</time></trkpt><trkpt lat="45.97769802625755" lon="12.291460124231985"><ele>187.0</ele><time>2026-04-25T12:25:17.998Z</time></trkpt><trkpt lat="45.97764424934973" lon="12.291516246012476"><ele>187.0</ele><time>2026-04-25T12:25:19.998Z</time></trkpt><trkpt lat="45.97774761981967" lon="12.291674202687327"><ele>187.0</ele><time>2026-04-25T12:25:21.997Z</time></trkpt><trkpt lat="45.97782346500332" lon="12.29177263589142"><ele>183.0</ele><time>2026-04-25T12:25:24Z</time></trkpt><trkpt lat="45.97790366144007" lon="12.291886452056001"><ele>179.0</ele><time>2026-04-25T12:25:26Z</time></trkpt><trkpt lat="45.977982428650414" lon="12.292011533008026"><ele>175.0</ele><time>2026-04-25T12:25:28Z</time></trkpt><trkpt lat="45.97805379517029" lon="12.292147778043256"><ele>171.0</ele><time>2026-04-25T12:25:30Z</time></trkpt><trkpt lat="45.97809822805397" lon="12.292217471290579"><ele>167.0</ele><time>2026-04-25T12:25:31Z</time></trkpt><trkpt lat="45.97814198216319" lon="12.292286099901844"><ele>167.28571428571428</ele><time>2026-04-25T12:25:32Z</time></trkpt><trkpt lat="45.97818678823177" lon="12.292354219815271"><ele>167.57142857142858</ele><time>2026-04-25T12:25:33Z</time></trkpt><trkpt lat="45.97823287669443" lon="12.292422382664741"><ele>167.85714285714286</ele><time>2026-04-25T12:25:34Z</time></trkpt><trkpt lat="45.97827964182572" lon="12.292491546246897"><ele>168.14285714285714</ele><time>2026-04-25T12:25:35Z</time></trkpt><trkpt lat="45.97833452312835" lon="12.292540079146981"><ele>168.42857142857142</ele><time>2026-04-25T12:25:36Z</time></trkpt><trkpt lat="45.97837487132632" lon="12.292614907923832"><ele>168.71428571428572</ele><time>2026-04-25T12:25:37Z</time></trkpt><trkpt lat="45.97841915444471" lon="12.292687446881512"><ele>169.0</ele><time>2026-04-25T12:25:38Z</time></trkpt><trkpt lat="45.97846035876204" lon="12.292766893034448"><ele>169.0</ele><time>2026-04-25T12:25:39Z</time></trkpt><trkpt lat="45.97849484172091" lon="12.292848284669635"><ele>169.0</ele><time>2026-04-25T12:25:40Z</time></trkpt><trkpt lat="45.978520816020726" lon="12.292940664829228"><ele>169.0</ele><time>2026-04-25T12:25:41Z</time></trkpt><trkpt lat="45.978547052661575" lon="12.293030011996843"><ele>169.0</ele><time>2026-04-25T12:25:42Z</time></trkpt><trkpt lat="45.978636082208894" lon="12.293082314053942"><ele>169.0</ele><time>2026-04-25T12:25:43Z</time></trkpt><trkpt lat="45.978685159892095" lon="12.29315856174443"><ele>169.0</ele><time>2026-04-25T12:25:44Z</time></trkpt><trkpt lat="45.97873444453025" lon="12.293237652795167"><ele>169.0</ele><time>2026-04-25T12:25:45Z</time></trkpt><trkpt lat="45.978778772046354" lon="12.293321458543561"><ele>166.33333333333334</ele><time>2026-04-25T12:25:46Z</time></trkpt><trkpt lat="45.978832923211044" lon="12.293397958268253"><ele>163.66666666666669</ele><time>2026-04-25T12:25:47Z</time></trkpt><trkpt lat="45.97889707829109" lon="12.29346705361606"><ele>161.0</ele><time>2026-04-25T12:25:48Z</time></trkpt><trkpt lat="45.9789678639933" lon="12.293535604157114"><ele>158.33333333333334</ele><time>2026-04-25T12:25:49Z</time></trkpt><trkpt lat="45.97902305077799" lon="12.293607556856966"><ele>155.66666666666666</ele><time>2026-04-25T12:25:50Z</time></trkpt><trkpt lat="45.97907336153397" lon="12.29368480367012"><ele>153.0</ele><time>2026-04-25T12:25:51Z</time></trkpt><trkpt lat="45.97913054974581" lon="12.293741086471973"><ele>153.0</ele><time>2026-04-25T12:25:52Z</time></trkpt><trkpt lat="45.97918235893032" lon="12.293809615331707"><ele>153.0</ele><time>2026-04-25T12:25:53Z</time></trkpt><trkpt lat="45.97923798144627" lon="12.293881450805525"><ele>153.0</ele><time>2026-04-25T12:25:54Z</time></trkpt><trkpt lat="45.979299427209455" lon="12.29395049231736"><ele>153.0</ele><time>2026-04-25T12:25:55Z</time></trkpt><trkpt lat="45.97935880684438" lon="12.29400972669859"><ele>153.0</ele><time>2026-04-25T12:25:56Z</time></trkpt><trkpt lat="45.97942188765082" lon="12.29407130205283"><ele>153.0</ele><time>2026-04-25T12:25:57Z</time></trkpt><trkpt lat="45.979482796519164" lon="12.294127355065951"><ele>153.0</ele><time>2026-04-25T12:25:58Z</time></trkpt><trkpt lat="45.97953066275444" lon="12.294213531654153"><ele>153.0</ele><time>2026-04-25T12:25:59Z</time></trkpt><trkpt lat="45.979598154723554" lon="12.294265667591217"><ele>153.0</ele><time>2026-04-25T12:26:00Z</time></trkpt><trkpt lat="45.979626195615026" lon="12.29436576202586"><ele>153.0</ele><time>2026-04-25T12:26:01Z</time></trkpt><trkpt lat="45.979671337152425" lon="12.29451760299519"><ele>153.0</ele><time>2026-04-25T12:26:03Z</time></trkpt><trkpt lat="45.97969718600788" lon="12.294688092964911"><ele>153.0</ele><time>2026-04-25T12:26:05Z</time></trkpt><trkpt lat="45.97973068599743" lon="12.294849108518754"><ele>151.6</ele><time>2026-04-25T12:26:07Z</time></trkpt><trkpt lat="45.97974624546766" lon="12.294970534176642"><ele>150.20000000000002</ele><time>2026-04-25T12:26:09Z</time></trkpt><trkpt lat="45.97972907237901" lon="12.295096938020984"><ele>148.8</ele><time>2026-04-25T12:26:10.999Z</time></trkpt><trkpt lat="45.97963384094811" lon="12.295199927498977"><ele>147.4</ele><time>2026-04-25T12:26:12.999Z</time></trkpt><trkpt lat="45.97953786643598" lon="12.295294252876035"><ele>146.0</ele><time>2026-04-25T12:26:14.999Z</time></trkpt><trkpt lat="45.979446898433594" lon="12.295411828245609"><ele>146.0</ele><time>2026-04-25T12:26:16.999Z</time></trkpt><trkpt lat="45.97935003451805" lon="12.295515798653978"><ele>146.0</ele><time>2026-04-25T12:26:18.999Z</time></trkpt><trkpt lat="45.97924193958726" lon="12.295603603668402"><ele>146.0</ele><time>2026-04-25T12:26:20.999Z</time></trkpt><trkpt lat="45.9791389749541" lon="12.295686617360428"><ele>146.0</ele><time>2026-04-25T12:26:22.999Z</time></trkpt><trkpt lat="45.979036298256496" lon="12.295782128974594"><ele>144.8</ele><time>2026-04-25T12:26:24.999Z</time></trkpt><trkpt lat="45.97893397803081" lon="12.295857794189288"><ele>143.6</ele><time>2026-04-25T12:26:26.999Z</time></trkpt><trkpt lat="45.97884646485953" lon="12.295923086557597"><ele>142.4</ele><time>2026-04-25T12:26:28.999Z</time></trkpt><trkpt lat="45.97878969410168" lon="12.296006669464996"><ele>141.2</ele><time>2026-04-25T12:26:30.999Z</time></trkpt><trkpt lat="45.978903546971544" lon="12.296143765342192"><ele>140.0</ele><time>2026-04-25T12:26:32.999Z</time></trkpt><trkpt lat="45.97895661768121" lon="12.296280715201497"><ele>139.5</ele><time>2026-04-25T12:26:34.999Z</time></trkpt><trkpt lat="45.979003649643495" lon="12.296428667539494"><ele>139.0</ele><time>2026-04-25T12:26:36.999Z</time></trkpt><trkpt lat="45.97905738944838" lon="12.296576369103578"><ele>138.5</ele><time>2026-04-25T12:26:38.999Z</time></trkpt><trkpt lat="45.97911420433316" lon="12.296725205919616"><ele>138.0</ele><time>2026-04-25T12:26:40.999Z</time></trkpt><trkpt lat="45.979174084616396" lon="12.29687905810554"><ele>137.83333333333334</ele><time>2026-04-25T12:26:42.999Z</time></trkpt><trkpt lat="45.97923222109096" lon="12.297041892281356"><ele>137.66666666666666</ele><time>2026-04-25T12:26:44.999Z</time></trkpt><trkpt lat="45.979263508448156" lon="12.297124724491288"><ele>137.5</ele><time>2026-04-25T12:26:45.999Z</time></trkpt><trkpt lat="45.979296646010354" lon="12.297204859789751"><ele>137.33333333333331</ele><time>2026-04-25T12:26:46.999Z</time></trkpt><trkpt lat="45.97933252656432" lon="12.29729291006545"><ele>137.16666666666666</ele><time>2026-04-25T12:26:47.999Z</time></trkpt><trkpt lat="45.97936161771683" lon="12.29738304391709"><ele>137.0</ele><time>2026-04-25T12:26:48.999Z</time></trkpt><trkpt lat="45.979398852123644" lon="12.297461239146225"><ele>136.85714285714286</ele><time>2026-04-25T12:26:49.999Z</time></trkpt><trkpt lat="45.97942951163574" lon="12.297542671851646"><ele>136.71428571428572</ele><time>2026-04-25T12:26:50.999Z</time></trkpt><trkpt lat="45.97946083529542" lon="12.297625508618689"><ele>136.57142857142856</ele><time>2026-04-25T12:26:51.999Z</time></trkpt><trkpt lat="45.97949405928624" lon="12.297715552207702"><ele>136.42857142857144</ele><time>2026-04-25T12:26:52.999Z</time></trkpt><trkpt lat="45.979525421997366" lon="12.297814414297424"><ele>136.28571428571428</ele><time>2026-04-25T12:26:53.999Z</time></trkpt><trkpt lat="45.9795467684614" lon="12.297909862186103"><ele>136.14285714285714</ele><time>2026-04-25T12:26:54.998Z</time></trkpt><trkpt lat="45.9795698293443" lon="12.298005594097111"><ele>136.0</ele><time>2026-04-25T12:26:55.998Z</time></trkpt><trkpt lat="45.97960192599149" lon="12.298094640087378"><ele>135.7142857142857</ele><time>2026-04-25T12:26:56.998Z</time></trkpt><trkpt lat="45.97962998891433" lon="12.298188115553094"><ele>135.42857142857142</ele><time>2026-04-25T12:26:57.998Z</time></trkpt><trkpt lat="45.979658902267076" lon="12.298281862493045"><ele>135.14285714285714</ele><time>2026-04-25T12:26:58.998Z</time></trkpt><trkpt lat="45.97968313562164" lon="12.298375465249858"><ele>134.85714285714283</ele><time>2026-04-25T12:26:59.998Z</time></trkpt><trkpt lat="45.97966551911662" lon="12.298487368069543"><ele>134.57142857142856</ele><time>2026-04-25T12:27:00.998Z</time></trkpt><trkpt lat="45.979683934643795" lon="12.298581125720997"><ele>134.28571428571428</ele><time>2026-04-25T12:27:01.998Z</time></trkpt><trkpt lat="45.97970262043268" lon="12.298679508041703"><ele>134.0</ele><time>2026-04-25T12:27:02.998Z</time></trkpt><trkpt lat="45.979718760833904" lon="12.298774104903867"><ele>134.0</ele><time>2026-04-25T12:27:03.998Z</time></trkpt><trkpt lat="45.97973301401799" lon="12.29886830918085"><ele>134.0</ele><time>2026-04-25T12:27:04.998Z</time></trkpt><trkpt lat="45.97974674264383" lon="12.298966294969157"><ele>134.0</ele><time>2026-04-25T12:27:05.998Z</time></trkpt><trkpt lat="45.979758882714926" lon="12.299060496588325"><ele>134.0</ele><time>2026-04-25T12:27:06.998Z</time></trkpt><trkpt lat="45.97977081308804" lon="12.299153672943312"><ele>134.0</ele><time>2026-04-25T12:27:07.998Z</time></trkpt><trkpt lat="45.979779626539155" lon="12.299248371264476"><ele>134.0</ele><time>2026-04-25T12:27:08.998Z</time></trkpt><trkpt lat="45.97978908149795" lon="12.29934100242831"><ele>134.0</ele><time>2026-04-25T12:27:09.998Z</time></trkpt><trkpt lat="45.97979876704317" lon="12.299435892747638"><ele>134.0</ele><time>2026-04-25T12:27:10.998Z</time></trkpt><trkpt lat="45.979808141052764" lon="12.299527730888997"><ele>134.0</ele><time>2026-04-25T12:27:11.998Z</time></trkpt><trkpt lat="45.97981684594577" lon="12.29962090858964"><ele>134.0</ele><time>2026-04-25T12:27:12.998Z</time></trkpt><trkpt lat="45.97982501767539" lon="12.299713478919864"><ele>134.0</ele><time>2026-04-25T12:27:13.998Z</time></trkpt><trkpt lat="45.979831486727946" lon="12.299807341234393"><ele>134.0</ele><time>2026-04-25T12:27:14.997Z</time></trkpt><trkpt lat="45.979844271436335" lon="12.29998568338326"><ele>134.0</ele><time>2026-04-25T12:27:16.997Z</time></trkpt><trkpt lat="45.97987257772392" lon="12.300138532521352"><ele>133.6</ele><time>2026-04-25T12:27:18.997Z</time></trkpt><trkpt lat="45.97986926138681" lon="12.300263869915746"><ele>133.2</ele><time>2026-04-25T12:27:20.997Z</time></trkpt><trkpt lat="45.97977422066956" lon="12.300387850363194"><ele>132.79999999999998</ele><time>2026-04-25T12:27:24.997Z</time></trkpt><trkpt lat="45.97971309994831" lon="12.30044485286347"><ele>132.4</ele><time>2026-04-25T12:27:26.997Z</time></trkpt><trkpt lat="45.97963703136078" lon="12.300501680624802"><ele>132.0</ele><time>2026-04-25T12:27:29Z</time></trkpt><trkpt lat="45.97956021586972" lon="12.300589444242464"><ele>131.6</ele><time>2026-04-25T12:27:31Z</time></trkpt><trkpt lat="45.97947578226759" lon="12.300678542593202"><ele>131.2</ele><time>2026-04-25T12:27:33Z</time></trkpt><trkpt lat="45.97939668966413" lon="12.300786122101927"><ele>130.8</ele><time>2026-04-25T12:27:35Z</time></trkpt><trkpt lat="45.979307613686466" lon="12.300881396243566"><ele>130.4</ele><time>2026-04-25T12:27:37Z</time></trkpt><trkpt lat="45.97921549520333" lon="12.300983420855477"><ele>130.0</ele><time>2026-04-25T12:27:39Z</time></trkpt><trkpt lat="45.979126596349154" lon="12.301093975634622"><ele>130.0</ele><time>2026-04-25T12:27:41Z</time></trkpt><trkpt lat="45.9790361753836" lon="12.301195688764668"><ele>130.0</ele><time>2026-04-25T12:27:43Z</time></trkpt><trkpt lat="45.978950829760834" lon="12.30129945731928"><ele>130.0</ele><time>2026-04-25T12:27:44.999Z</time></trkpt><trkpt lat="45.97886956313118" lon="12.301409300291333"><ele>130.0</ele><time>2026-04-25T12:27:46.999Z</time></trkpt><trkpt lat="45.978789434231246" lon="12.301518331175727"><ele>130.0</ele><time>2026-04-25T12:27:48.999Z</time></trkpt><trkpt lat="45.97871419142873" lon="12.301632585518393"><ele>129.25</ele><time>2026-04-25T12:27:50.999Z</time></trkpt><trkpt lat="45.978650713262674" lon="12.301759007059038"><ele>128.5</ele><time>2026-04-25T12:27:52.999Z</time></trkpt><trkpt lat="45.978590333131656" lon="12.301827719747553"><ele>127.75</ele><time>2026-04-25T12:27:54.999Z</time></trkpt><trkpt lat="45.97870718762977" lon="12.302048230175213"><ele>127.0</ele><time>2026-04-25T12:27:56.999Z</time></trkpt><trkpt lat="45.978795465920186" lon="12.302177500229993"><ele>126.83333333333334</ele><time>2026-04-25T12:27:58.999Z</time></trkpt><trkpt lat="45.978866668055375" lon="12.30232696860408"><ele>126.66666666666667</ele><time>2026-04-25T12:28:00.999Z</time></trkpt><trkpt lat="45.978903857957" lon="12.302402038636904"><ele>126.5</ele><time>2026-04-25T12:28:01.999Z</time></trkpt><trkpt lat="45.97894327249949" lon="12.302475761153357"><ele>126.33333333333334</ele><time>2026-04-25T12:28:02.999Z</time></trkpt><trkpt lat="45.97898614770918" lon="12.302548094959883"><ele>126.16666666666667</ele><time>2026-04-25T12:28:03.999Z</time></trkpt><trkpt lat="45.97902933273301" lon="12.302621362402995"><ele>126.0</ele><time>2026-04-25T12:28:04.999Z</time></trkpt><trkpt lat="45.97907119347977" lon="12.302699137168254"><ele>126.0</ele><time>2026-04-25T12:28:05.999Z</time></trkpt><trkpt lat="45.979111297078845" lon="12.302776570366909"><ele>126.0</ele><time>2026-04-25T12:28:06.999Z</time></trkpt><trkpt lat="45.97915312708617" lon="12.302859106146824"><ele>126.0</ele><time>2026-04-25T12:28:07.999Z</time></trkpt><trkpt lat="45.979194965970386" lon="12.302939601992064"><ele>126.0</ele><time>2026-04-25T12:28:08.999Z</time></trkpt><trkpt lat="45.97923650774388" lon="12.303019282744817"><ele>126.0</ele><time>2026-04-25T12:28:09.999Z</time></trkpt><trkpt lat="45.979274064451566" lon="12.303103413136538"><ele>126.0</ele><time>2026-04-25T12:28:10.999Z</time></trkpt><trkpt lat="45.97930864954811" lon="12.303187914260883"><ele>126.0</ele><time>2026-04-25T12:28:11.999Z</time></trkpt><trkpt lat="45.97934302744656" lon="12.303271724946676"><ele>125.57142857142857</ele><time>2026-04-25T12:28:12.999Z</time></trkpt><trkpt lat="45.97937898022578" lon="12.303352259919258"><ele>125.14285714285714</ele><time>2026-04-25T12:28:13.999Z</time></trkpt><trkpt lat="45.979417513861364" lon="12.303433332145374"><ele>124.71428571428572</ele><time>2026-04-25T12:28:14.999Z</time></trkpt><trkpt lat="45.979452480014494" lon="12.303513401768097"><ele>124.28571428571429</ele><time>2026-04-25T12:28:15.999Z</time></trkpt><trkpt lat="45.97949078854188" lon="12.303591649735269"><ele>123.85714285714286</ele><time>2026-04-25T12:28:16.999Z</time></trkpt><trkpt lat="45.97953189881814" lon="12.303666716664805"><ele>123.42857142857144</ele><time>2026-04-25T12:28:17.999Z</time></trkpt><trkpt lat="45.97955010887612" lon="12.303762912462698"><ele>123.00000000000001</ele><time>2026-04-25T12:28:18.999Z</time></trkpt><trkpt lat="45.97958243473602" lon="12.303843987121448"><ele>123.14285714285717</ele><time>2026-04-25T12:28:19.999Z</time></trkpt><trkpt lat="45.97961512092122" lon="12.303926764147644"><ele>123.28571428571429</ele><time>2026-04-25T12:28:20.999Z</time></trkpt><trkpt lat="45.97964808533117" lon="12.30401024576828"><ele>123.42857142857144</ele><time>2026-04-25T12:28:21.999Z</time></trkpt><trkpt lat="45.97968113733264" lon="12.304093949215629"><ele>123.57142857142858</ele><time>2026-04-25T12:28:22.999Z</time></trkpt><trkpt lat="45.979714834425494" lon="12.304179805703502"><ele>123.71428571428572</ele><time>2026-04-25T12:28:23.999Z</time></trkpt><trkpt lat="45.97974771116787" lon="12.304263775878418"><ele>123.85714285714286</ele><time>2026-04-25T12:28:24.999Z</time></trkpt><trkpt lat="45.97978134400141" lon="12.304349677132148"><ele>124.0</ele><time>2026-04-25T12:28:25.999Z</time></trkpt><trkpt lat="45.97981361225184" lon="12.304432093178947"><ele>124.00000000000001</ele><time>2026-04-25T12:28:26.999Z</time></trkpt><trkpt lat="45.97984555970531" lon="12.304513689835572"><ele>124.0</ele><time>2026-04-25T12:28:27.999Z</time></trkpt><trkpt lat="45.979876617344516" lon="12.304593013806542"><ele>124.0</ele><time>2026-04-25T12:28:28.999Z</time></trkpt><trkpt lat="45.97991048809324" lon="12.304679522761983"><ele>124.0</ele><time>2026-04-25T12:28:29.998Z</time></trkpt><trkpt lat="45.979970138792886" lon="12.304832822174074"><ele>124.00000000000001</ele><time>2026-04-25T12:28:31.998Z</time></trkpt><trkpt lat="45.9800421653549" lon="12.304971329442658"><ele>124.0</ele><time>2026-04-25T12:28:33.998Z</time></trkpt><trkpt lat="45.980090854892325" lon="12.305121478359117"><ele>124.00000000000001</ele><time>2026-04-25T12:28:35.998Z</time></trkpt><trkpt lat="45.980140448783736" lon="12.305248708574565"><ele>124.0</ele><time>2026-04-25T12:28:37.998Z</time></trkpt><trkpt lat="45.980171946375926" lon="12.305352332871514"><ele>124.0</ele><time>2026-04-25T12:28:39.998Z</time></trkpt><trkpt lat="45.98020862929254" lon="12.305446810131121"><ele>124.0</ele><time>2026-04-25T12:28:42.998Z</time></trkpt><trkpt lat="45.98025955223849" lon="12.305549336273353"><ele>124.00000000000001</ele><time>2026-04-25T12:28:53.998Z</time></trkpt><trkpt lat="45.980285087476446" lon="12.305667083398001"><ele>124.0</ele><time>2026-04-25T12:28:56.998Z</time></trkpt><trkpt lat="45.980323771010916" lon="12.305761666242105"><ele>123.6</ele><time>2026-04-25T12:28:58.998Z</time></trkpt><trkpt lat="45.98036720309814" lon="12.305863957350613"><ele>123.2</ele><time>2026-04-25T12:29:00.998Z</time></trkpt><trkpt lat="45.980412999035366" lon="12.305971815789977"><ele>122.79999999999998</ele><time>2026-04-25T12:29:02.998Z</time></trkpt><trkpt lat="45.98046118879422" lon="12.306085312140194"><ele>122.39999999999999</ele><time>2026-04-25T12:29:04.998Z</time></trkpt><trkpt lat="45.98050964284047" lon="12.306199430951464"><ele>122.0</ele><time>2026-04-25T12:29:06.998Z</time></trkpt><trkpt lat="45.98056003419949" lon="12.30631811251713"><ele>121.6</ele><time>2026-04-25T12:29:08.998Z</time></trkpt><trkpt lat="45.980610839798345" lon="12.306437769446141"><ele>121.19999999999999</ele><time>2026-04-25T12:29:10.998Z</time></trkpt><trkpt lat="45.98066264217804" lon="12.306559634238209"><ele>120.8</ele><time>2026-04-25T12:29:12.998Z</time></trkpt><trkpt lat="45.980713486007105" lon="12.306679250644368"><ele>120.4</ele><time>2026-04-25T12:29:14.997Z</time></trkpt><trkpt lat="45.98076375541548" lon="12.306797515543199"><ele>120.0</ele><time>2026-04-25T12:29:16.997Z</time></trkpt><trkpt lat="45.980815123389654" lon="12.306914405303992"><ele>120.0</ele><time>2026-04-25T12:29:18.997Z</time></trkpt><trkpt lat="45.98086451825823" lon="12.307025836923424"><ele>120.0</ele><time>2026-04-25T12:29:20.997Z</time></trkpt><trkpt lat="45.980912792912015" lon="12.307125618420704"><ele>120.0</ele><time>2026-04-25T12:29:22.997Z</time></trkpt><trkpt lat="45.98096009862216" lon="12.307220463921908"><ele>120.0</ele><time>2026-04-25T12:29:24.997Z</time></trkpt><trkpt lat="45.98100618290259" lon="12.307308881315821"><ele>120.0</ele><time>2026-04-25T12:29:26.997Z</time></trkpt><trkpt lat="45.98105572822638" lon="12.307391430111473"><ele>120.0</ele><time>2026-04-25T12:29:28.997Z</time></trkpt><trkpt lat="45.98107100660143" lon="12.307486017069344"><ele>120.0</ele><time>2026-04-25T12:29:30.997Z</time></trkpt><trkpt lat="45.9810142026276" lon="12.30762523205878"><ele>120.0</ele><time>2026-04-25T12:29:33.997Z</time></trkpt><trkpt lat="45.980962060790254" lon="12.307703197743775"><ele>120.0</ele><time>2026-04-25T12:29:36Z</time></trkpt><trkpt lat="45.980904875891426" lon="12.307778984327264"><ele>120.0</ele><time>2026-04-25T12:29:38Z</time></trkpt><trkpt lat="45.98084003294861" lon="12.307855275690525"><ele>120.0</ele><time>2026-04-25T12:29:40Z</time></trkpt><trkpt lat="45.980780563211255" lon="12.307940703327189"><ele>120.0</ele><time>2026-04-25T12:29:42Z</time></trkpt><trkpt lat="45.98070698425684" lon="12.30801111198989"><ele>120.4</ele><time>2026-04-25T12:29:44Z</time></trkpt><trkpt lat="45.980631434390666" lon="12.308080813116215"><ele>120.8</ele><time>2026-04-25T12:29:46Z</time></trkpt><trkpt lat="45.98054947214636" lon="12.308153757026382"><ele>121.19999999999999</ele><time>2026-04-25T12:29:48Z</time></trkpt><trkpt lat="45.9804655256363" lon="12.30823031491046"><ele>121.6</ele><time>2026-04-25T12:29:50Z</time></trkpt><trkpt lat="45.98037731997196" lon="12.308306777562313"><ele>122.0</ele><time>2026-04-25T12:29:52Z</time></trkpt><trkpt lat="45.980287510251635" lon="12.308381253444471"><ele>122.0</ele><time>2026-04-25T12:29:54Z</time></trkpt><trkpt lat="45.980205461720494" lon="12.308458259965334"><ele>121.99999999999999</ele><time>2026-04-25T12:29:56Z</time></trkpt><trkpt lat="45.98011986159542" lon="12.308529922184519"><ele>121.99999999999999</ele><time>2026-04-25T12:29:58Z</time></trkpt><trkpt lat="45.98003642121533" lon="12.308601257974637"><ele>122.0</ele><time>2026-04-25T12:30:00Z</time></trkpt><trkpt lat="45.979959081914" lon="12.308669741850526"><ele>122.0</ele><time>2026-04-25T12:30:01.999Z</time></trkpt><trkpt lat="45.97988734578354" lon="12.308736156468191"><ele>121.66666666666666</ele><time>2026-04-25T12:30:03.999Z</time></trkpt><trkpt lat="45.9798055506536" lon="12.308773854752387"><ele>121.33333333333333</ele><time>2026-04-25T12:30:05.999Z</time></trkpt><trkpt lat="45.97984104412838" lon="12.308960158692408"><ele>121.0</ele><time>2026-04-25T12:30:08.999Z</time></trkpt><trkpt lat="45.979860566204884" lon="12.309073050911262"><ele>120.66666666666666</ele><time>2026-04-25T12:30:11.999Z</time></trkpt><trkpt lat="45.97987791087404" lon="12.30916457903609"><ele>120.33333333333333</ele><time>2026-04-25T12:30:14.999Z</time></trkpt><trkpt lat="45.97987662132566" lon="12.309258751981705"><ele>120.0</ele><time>2026-04-25T12:30:17.999Z</time></trkpt><trkpt lat="45.979871433769425" lon="12.309391598717847"><ele>120.0</ele><time>2026-04-25T12:30:20.999Z</time></trkpt><trkpt lat="45.97978636417854" lon="12.309471041434362"><ele>120.0</ele><time>2026-04-25T12:30:22.999Z</time></trkpt><trkpt lat="45.979717641040445" lon="12.309466279168825"><ele>120.0</ele><time>2026-04-25T12:30:23.999Z</time></trkpt><trkpt lat="45.97964960518664" lon="12.309449321373457"><ele>120.0</ele><time>2026-04-25T12:30:24.999Z</time></trkpt><trkpt lat="45.97958502283772" lon="12.309441936817093"><ele>120.0</ele><time>2026-04-25T12:30:25.999Z</time></trkpt><trkpt lat="45.979520534912176" lon="12.309447982851541"><ele>120.0</ele><time>2026-04-25T12:30:26.999Z</time></trkpt><trkpt lat="45.979455418752046" lon="12.30944796100943"><ele>120.0</ele><time>2026-04-25T12:30:27.999Z</time></trkpt><trkpt lat="45.97934663900549" lon="12.309457152860814"><ele>120.0</ele><time>2026-04-25T12:30:29.999Z</time></trkpt><trkpt lat="45.979236211888555" lon="12.3094910368612"><ele>120.0</ele><time>2026-04-25T12:30:31.999Z</time></trkpt><trkpt lat="45.97915080235526" lon="12.309606085204836"><ele>120.0</ele><time>2026-04-25T12:30:33.999Z</time></trkpt><trkpt lat="45.97909700655289" lon="12.309757319082141"><ele>120.0</ele><time>2026-04-25T12:30:35.999Z</time></trkpt><trkpt lat="45.97904489071356" lon="12.309903870322994"><ele>119.25</ele><time>2026-04-25T12:30:37.999Z</time></trkpt><trkpt lat="45.97897870216978" lon="12.310035734384194"><ele>118.5</ele><time>2026-04-25T12:30:39.999Z</time></trkpt><trkpt lat="45.97888341419127" lon="12.31013239719122"><ele>117.75</ele><time>2026-04-25T12:30:41.999Z</time></trkpt><trkpt lat="45.97876810889016" lon="12.310172653359121"><ele>117.0</ele><time>2026-04-25T12:30:43.999Z</time></trkpt><trkpt lat="45.978649219448776" lon="12.310166590387684"><ele>117.0</ele><time>2026-04-25T12:30:45.998Z</time></trkpt><trkpt lat="45.97852781759197" lon="12.310147043355213"><ele>117.0</ele><time>2026-04-25T12:30:47.998Z</time></trkpt><trkpt lat="45.978410076987196" lon="12.310132397647115"><ele>117.0</ele><time>2026-04-25T12:30:49.998Z</time></trkpt><trkpt lat="45.97829330653022" lon="12.310116251267441"><ele>117.0</ele><time>2026-04-25T12:30:51.998Z</time></trkpt><trkpt lat="45.97817453001329" lon="12.310120506967653"><ele>117.5</ele><time>2026-04-25T12:30:53.998Z</time></trkpt><trkpt lat="45.978059991128006" lon="12.310172277853635"><ele>118.0</ele><time>2026-04-25T12:30:55.998Z</time></trkpt><trkpt lat="45.97795995806217" lon="12.310266324702209"><ele>118.5</ele><time>2026-04-25T12:30:57.998Z</time></trkpt><trkpt lat="45.977859196645824" lon="12.310363160370162"><ele>119.0</ele><time>2026-04-25T12:30:59.998Z</time></trkpt><trkpt lat="45.97776551163418" lon="12.310469606012319"><ele>119.0</ele><time>2026-04-25T12:31:01.998Z</time></trkpt><trkpt lat="45.97767151604881" lon="12.31057077602606"><ele>119.0</ele><time>2026-04-25T12:31:03.998Z</time></trkpt><trkpt lat="45.97757117386143" lon="12.310664607197701"><ele>119.0</ele><time>2026-04-25T12:31:05.998Z</time></trkpt><trkpt lat="45.9774605647183" lon="12.31072605466485"><ele>119.0</ele><time>2026-04-25T12:31:07.998Z</time></trkpt><trkpt lat="45.97733934947984" lon="12.31073170257343"><ele>118.80000000000001</ele><time>2026-04-25T12:31:09.998Z</time></trkpt><trkpt lat="45.97722113147491" lon="12.31069460311506"><ele>118.60000000000001</ele><time>2026-04-25T12:31:11.998Z</time></trkpt><trkpt lat="45.97710551576558" lon="12.310631578657372"><ele>118.4</ele><time>2026-04-25T12:31:13.998Z</time></trkpt><trkpt lat="45.97704571328739" lon="12.310603013692601"><ele>118.2</ele><time>2026-04-25T12:31:14.998Z</time></trkpt><trkpt lat="45.97698615552915" lon="12.310572853247125"><ele>118.0</ele><time>2026-04-25T12:31:15.998Z</time></trkpt><trkpt lat="45.976866666250075" lon="12.31051610468229"><ele>118.0</ele><time>2026-04-25T12:31:17.998Z</time></trkpt><trkpt lat="45.97680422415884" lon="12.310493165345083"><ele>118.0</ele><time>2026-04-25T12:31:18.998Z</time></trkpt><trkpt lat="45.97674003644394" lon="12.310485762304403"><ele>118.0</ele><time>2026-04-25T12:31:19.998Z</time></trkpt><trkpt lat="45.976675115811716" lon="12.310493981545589"><ele>118.0</ele><time>2026-04-25T12:31:20.998Z</time></trkpt><trkpt lat="45.97661240683744" lon="12.310513450840267"><ele>118.0</ele><time>2026-04-25T12:31:21.998Z</time></trkpt><trkpt lat="45.97649034334707" lon="12.310559420467921"><ele>118.0</ele><time>2026-04-25T12:31:23.998Z</time></trkpt><trkpt lat="45.97642911125898" lon="12.310582407000929"><ele>118.0</ele><time>2026-04-25T12:31:24.998Z</time></trkpt><trkpt lat="45.976368055614955" lon="12.310607154138905"><ele>118.0</ele><time>2026-04-25T12:31:25.998Z</time></trkpt><trkpt lat="45.97630679032135" lon="12.310635307042377"><ele>118.0</ele><time>2026-04-25T12:31:26.998Z</time></trkpt><trkpt lat="45.97624640950104" lon="12.31066710535806"><ele>118.0</ele><time>2026-04-25T12:31:27.998Z</time></trkpt><trkpt lat="45.976185600875425" lon="12.310700685336936"><ele>118.0</ele><time>2026-04-25T12:31:28.997Z</time></trkpt><trkpt lat="45.97612513840221" lon="12.310738085825388"><ele>118.0</ele><time>2026-04-25T12:31:29.997Z</time></trkpt><trkpt lat="45.9760638602903" lon="12.31077699117104"><ele>118.0</ele><time>2026-04-25T12:31:30.997Z</time></trkpt><trkpt lat="45.976004889424864" lon="12.31081984942445"><ele>118.0</ele><time>2026-04-25T12:31:31.997Z</time></trkpt><trkpt lat="45.975948360627406" lon="12.31087169360836"><ele>118.0</ele><time>2026-04-25T12:31:32.997Z</time></trkpt><trkpt lat="45.97590001321045" lon="12.3109350453113"><ele>118.0</ele><time>2026-04-25T12:31:33.997Z</time></trkpt><trkpt lat="45.97585943008947" lon="12.311010450842874"><ele>118.0</ele><time>2026-04-25T12:31:34.997Z</time></trkpt><trkpt lat="45.97582582372237" lon="12.311094070337873"><ele>118.0</ele><time>2026-04-25T12:31:35.997Z</time></trkpt><trkpt lat="45.97579522420546" lon="12.311183045867821"><ele>118.0</ele><time>2026-04-25T12:31:36.997Z</time></trkpt><trkpt lat="45.975775604895226" lon="12.31127642790554"><ele>118.0</ele><time>2026-04-25T12:31:37.997Z</time></trkpt><trkpt lat="45.97576412990848" lon="12.311374142033692"><ele>118.0</ele><time>2026-04-25T12:31:38.997Z</time></trkpt><trkpt lat="45.97575638683849" lon="12.311471695332724"><ele>118.0</ele><time>2026-04-25T12:31:40Z</time></trkpt><trkpt lat="45.97574879543451" lon="12.311567515073317"><ele>118.0</ele><time>2026-04-25T12:31:41Z</time></trkpt><trkpt lat="45.97573156092178" lon="12.311663078951604"><ele>118.0</ele><time>2026-04-25T12:31:42Z</time></trkpt><trkpt lat="45.97570344368115" lon="12.311754599142533"><ele>118.0</ele><time>2026-04-25T12:31:43Z</time></trkpt><trkpt lat="45.975664993051616" lon="12.311839098012424"><ele>118.0</ele><time>2026-04-25T12:31:44Z</time></trkpt><trkpt lat="45.975618715126394" lon="12.311918319239318"><ele>118.0</ele><time>2026-04-25T12:31:45Z</time></trkpt><trkpt lat="45.97557112711181" lon="12.311995905006167"><ele>118.0</ele><time>2026-04-25T12:31:46Z</time></trkpt><trkpt lat="45.97552021870309" lon="12.312069369827888"><ele>118.0</ele><time>2026-04-25T12:31:47Z</time></trkpt><trkpt lat="45.975469728359485" lon="12.312141682918297"><ele>118.0</ele><time>2026-04-25T12:31:48Z</time></trkpt><trkpt lat="45.97541608164858" lon="12.312208166235948"><ele>118.0</ele><time>2026-04-25T12:31:49Z</time></trkpt><trkpt lat="45.9753533374066" lon="12.312261064086268"><ele>118.0</ele><time>2026-04-25T12:31:50Z</time></trkpt><trkpt lat="45.9752839440686" lon="12.312293324236704"><ele>118.0</ele><time>2026-04-25T12:31:51Z</time></trkpt><trkpt lat="45.97521180902188" lon="12.31230504768953"><ele>118.0</ele><time>2026-04-25T12:31:52Z</time></trkpt><trkpt lat="45.975138554332894" lon="12.312299423550062"><ele>118.0</ele><time>2026-04-25T12:31:53Z</time></trkpt><trkpt lat="45.97506872069985" lon="12.312297810426413"><ele>118.0</ele><time>2026-04-25T12:31:54Z</time></trkpt><trkpt lat="45.97499825355154" lon="12.312303909081846"><ele>118.0</ele><time>2026-04-25T12:31:55Z</time></trkpt><trkpt lat="45.974927218918324" lon="12.312315083788999"><ele>118.0</ele><time>2026-04-25T12:31:56Z</time></trkpt><trkpt lat="45.974861185287146" lon="12.312348314938141"><ele>118.0</ele><time>2026-04-25T12:31:57Z</time></trkpt><trkpt lat="45.97479993491248" lon="12.312400031471324"><ele>118.0</ele><time>2026-04-25T12:31:58Z</time></trkpt><trkpt lat="45.97474367329551" lon="12.312462697068684"><ele>118.0</ele><time>2026-04-25T12:31:59Z</time></trkpt><trkpt lat="45.97469137705043" lon="12.312531055509806"><ele>118.0</ele><time>2026-04-25T12:32:00Z</time></trkpt><trkpt lat="45.97464117266657" lon="12.31260225553706"><ele>118.0</ele><time>2026-04-25T12:32:01Z</time></trkpt><trkpt lat="45.97459785463114" lon="12.312682068554793"><ele>118.0</ele><time>2026-04-25T12:32:02Z</time></trkpt><trkpt lat="45.97455963698556" lon="12.312767362005275"><ele>118.0</ele><time>2026-04-25T12:32:03Z</time></trkpt><trkpt lat="45.974533026891976" lon="12.312857435189791"><ele>118.0</ele><time>2026-04-25T12:32:04Z</time></trkpt><trkpt lat="45.97453108895874" lon="12.312959585902878"><ele>118.0</ele><time>2026-04-25T12:32:05Z</time></trkpt><trkpt lat="45.97454822327" lon="12.313059907300243"><ele>118.0</ele><time>2026-04-25T12:32:06Z</time></trkpt><trkpt lat="45.97456170734096" lon="12.313156408127538"><ele>118.0</ele><time>2026-04-25T12:32:07Z</time></trkpt><trkpt lat="45.97454577697054" lon="12.313249684070474"><ele>117.85714285714286</ele><time>2026-04-25T12:32:08Z</time></trkpt><trkpt lat="45.974500444934954" lon="12.313330810110225"><ele>117.71428571428572</ele><time>2026-04-25T12:32:09Z</time></trkpt><trkpt lat="45.974448188082405" lon="12.3133966254266"><ele>117.57142857142858</ele><time>2026-04-25T12:32:10Z</time></trkpt><trkpt lat="45.974411377690025" lon="12.313476057000802"><ele>117.42857142857143</ele><time>2026-04-25T12:32:11Z</time></trkpt><trkpt lat="45.97440316881068" lon="12.31357797404318"><ele>117.2857142857143</ele><time>2026-04-25T12:32:12Z</time></trkpt><trkpt lat="45.97441578232509" lon="12.313679862690956"><ele>117.14285714285715</ele><time>2026-04-25T12:32:13Z</time></trkpt><trkpt lat="45.97443608335795" lon="12.313779181200191"><ele>117.0</ele><time>2026-04-25T12:32:14Z</time></trkpt><trkpt lat="45.974461042229706" lon="12.313876119332424"><ele>116.71428571428572</ele><time>2026-04-25T12:32:15Z</time></trkpt><trkpt lat="45.97449084234077" lon="12.313967523134753"><ele>116.42857142857144</ele><time>2026-04-25T12:32:16Z</time></trkpt><trkpt lat="45.97452995358812" lon="12.314051260735393"><ele>116.14285714285714</ele><time>2026-04-25T12:32:17Z</time></trkpt><trkpt lat="45.974564614670435" lon="12.314136678676705"><ele>115.85714285714286</ele><time>2026-04-25T12:32:18Z</time></trkpt><trkpt lat="45.97459835672041" lon="12.31422180657704"><ele>115.57142857142857</ele><time>2026-04-25T12:32:18.999Z</time></trkpt><trkpt lat="45.97463105994362" lon="12.314310228137964"><ele>115.28571428571428</ele><time>2026-04-25T12:32:19.999Z</time></trkpt><trkpt lat="45.97466260484333" lon="12.314394977840506"><ele>114.99999999999999</ele><time>2026-04-25T12:32:20.999Z</time></trkpt><trkpt lat="45.9746945468056" lon="12.314483645757797"><ele>115.00000000000001</ele><time>2026-04-25T12:32:21.999Z</time></trkpt><trkpt lat="45.974725471686774" lon="12.314573321782067"><ele>115.0</ele><time>2026-04-25T12:32:22.999Z</time></trkpt><trkpt lat="45.974784836108185" lon="12.314735225651159"><ele>115.0</ele><time>2026-04-25T12:32:24.999Z</time></trkpt><trkpt lat="45.97481726203009" lon="12.314813739903826"><ele>115.0</ele><time>2026-04-25T12:32:25.999Z</time></trkpt><trkpt lat="45.97483619112597" lon="12.314903891054437"><ele>115.00000000000001</ele><time>2026-04-25T12:32:26.999Z</time></trkpt><trkpt lat="45.9748289493167" lon="12.314998665883767"><ele>115.0</ele><time>2026-04-25T12:32:27.999Z</time></trkpt><trkpt lat="45.97479398976314" lon="12.31508120825156"><ele>114.4</ele><time>2026-04-25T12:32:28.999Z</time></trkpt><trkpt lat="45.974742387986254" lon="12.315145048761329"><ele>113.8</ele><time>2026-04-25T12:32:29.999Z</time></trkpt><trkpt lat="45.974688617149084" lon="12.31519629506823"><ele>113.19999999999999</ele><time>2026-04-25T12:32:30.999Z</time></trkpt><trkpt lat="45.97459692104124" lon="12.315307948011602"><ele>112.6</ele><time>2026-04-25T12:32:32.999Z</time></trkpt><trkpt lat="45.974521712836555" lon="12.315412322708603"><ele>112.0</ele><time>2026-04-25T12:32:34.999Z</time></trkpt><trkpt lat="45.97445235536299" lon="12.31550102978281"><ele>112.00000000000001</ele><time>2026-04-25T12:32:36.999Z</time></trkpt><trkpt lat="45.97437638770191" lon="12.315536432921812"><ele>112.0</ele><time>2026-04-25T12:32:38.999Z</time></trkpt><trkpt lat="45.974302970333234" lon="12.315505032395773"><ele>112.0</ele><time>2026-04-25T12:32:40.999Z</time></trkpt><trkpt lat="45.97426340279953" lon="12.31540083364158"><ele>112.0</ele><time>2026-04-25T12:32:42.999Z</time></trkpt><trkpt lat="45.97420598928131" lon="12.315313754109432"><ele>112.00000000000001</ele><time>2026-04-25T12:32:44.999Z</time></trkpt><trkpt lat="45.97414995270742" lon="12.315215092712327"><ele>112.0</ele><time>2026-04-25T12:32:46.999Z</time></trkpt><trkpt lat="45.974089045555424" lon="12.31512582801019"><ele>112.33333333333334</ele><time>2026-04-25T12:32:48.999Z</time></trkpt><trkpt lat="45.97403227345494" lon="12.315042806435118"><ele>112.66666666666667</ele><time>2026-04-25T12:32:50.999Z</time></trkpt><trkpt lat="45.97394736798501" lon="12.315060225292815"><ele>113.0</ele><time>2026-04-25T12:32:52.999Z</time></trkpt><trkpt lat="45.973867899601515" lon="12.315128666670493"><ele>113.33333333333334</ele><time>2026-04-25T12:32:54.999Z</time></trkpt><trkpt lat="45.97378280402767" lon="12.315186598331959"><ele>113.66666666666667</ele><time>2026-04-25T12:32:56.999Z</time></trkpt><trkpt lat="45.973694052807694" lon="12.315236092719955"><ele>114.0</ele><time>2026-04-25T12:32:58.999Z</time></trkpt><trkpt lat="45.97359912385157" lon="12.31527163403083"><ele>114.0</ele><time>2026-04-25T12:33:00.999Z</time></trkpt><trkpt lat="45.97349609840408" lon="12.315281944167465"><ele>114.0</ele><time>2026-04-25T12:33:02.998Z</time></trkpt><trkpt lat="45.97339524371517" lon="12.315234404980773"><ele>114.0</ele><time>2026-04-25T12:33:04.998Z</time></trkpt><trkpt lat="45.97330872522607" lon="12.315172399750216"><ele>114.0</ele><time>2026-04-25T12:33:06.998Z</time></trkpt><trkpt lat="45.973217393705546" lon="12.315178302442897"><ele>114.0</ele><time>2026-04-25T12:33:08.998Z</time></trkpt><trkpt lat="45.973137918042596" lon="12.315236799071934"><ele>114.0</ele><time>2026-04-25T12:33:10.998Z</time></trkpt><trkpt lat="45.97307100841913" lon="12.31533564737538"><ele>114.0</ele><time>2026-04-25T12:33:12.998Z</time></trkpt><trkpt lat="45.97299545091038" lon="12.315433431810115"><ele>114.0</ele><time>2026-04-25T12:33:14.998Z</time></trkpt><trkpt lat="45.9729130875295" lon="12.315534036375478"><ele>114.0</ele><time>2026-04-25T12:33:16.998Z</time></trkpt><trkpt lat="45.97282361295883" lon="12.315618302237826"><ele>114.0</ele><time>2026-04-25T12:33:18.998Z</time></trkpt><trkpt lat="45.97272982935537" lon="12.315710471898871"><ele>114.0</ele><time>2026-04-25T12:33:20.998Z</time></trkpt><trkpt lat="45.972633043466196" lon="12.3158061354831"><ele>114.0</ele><time>2026-04-25T12:33:22.998Z</time></trkpt><trkpt lat="45.97253766248505" lon="12.315909790547467"><ele>114.0</ele><time>2026-04-25T12:33:24.998Z</time></trkpt><trkpt lat="45.97243785251662" lon="12.316007056967148"><ele>114.0</ele><time>2026-04-25T12:33:26.998Z</time></trkpt><trkpt lat="45.97233622588559" lon="12.316105150092488"><ele>114.0</ele><time>2026-04-25T12:33:28.998Z</time></trkpt><trkpt lat="45.972246695450835" lon="12.316224899962688"><ele>114.0</ele><time>2026-04-25T12:33:30.998Z</time></trkpt><trkpt lat="45.97216616526438" lon="12.316360172159227"><ele>114.0</ele><time>2026-04-25T12:33:32.998Z</time></trkpt><trkpt lat="45.97207894770287" lon="12.316485016845293"><ele>114.0</ele><time>2026-04-25T12:33:34.998Z</time></trkpt><trkpt lat="45.97196435624792" lon="12.316560171971554"><ele>113.33333333333333</ele><time>2026-04-25T12:33:36.998Z</time></trkpt><trkpt lat="45.97184579709947" lon="12.316606687276929"><ele>112.66666666666666</ele><time>2026-04-25T12:33:38.998Z</time></trkpt><trkpt lat="45.97173231168088" lon="12.316672094386863"><ele>112.0</ele><time>2026-04-25T12:33:40.998Z</time></trkpt><trkpt lat="45.971687444814854" lon="12.316737734678902"><ele>111.33333333333333</ele><time>2026-04-25T12:33:41.998Z</time></trkpt><trkpt lat="45.97164571651209" lon="12.316806176315577"><ele>110.66666666666666</ele><time>2026-04-25T12:33:42.998Z</time></trkpt><trkpt lat="45.971614321221104" lon="12.31688744973523"><ele>110.0</ele><time>2026-04-25T12:33:43.998Z</time></trkpt><trkpt lat="45.97158143081076" lon="12.316966152676427"><ele>109.99999999999999</ele><time>2026-04-25T12:33:44.998Z</time></trkpt><trkpt lat="45.97154653997408" lon="12.317043692692698"><ele>110.0</ele><time>2026-04-25T12:33:46Z</time></trkpt><trkpt lat="45.97151175873098" lon="12.317121812702295"><ele>110.0</ele><time>2026-04-25T12:33:47Z</time></trkpt><trkpt lat="45.971474321946744" lon="12.31720012419727"><ele>110.0</ele><time>2026-04-25T12:33:48Z</time></trkpt><trkpt lat="45.971435632189845" lon="12.317274481310067"><ele>110.0</ele><time>2026-04-25T12:33:49Z</time></trkpt><trkpt lat="45.97139538260517" lon="12.317348714665982"><ele>109.99999999999999</ele><time>2026-04-25T12:33:50Z</time></trkpt><trkpt lat="45.9713477681267" lon="12.31741470248076"><ele>110.0</ele><time>2026-04-25T12:33:51Z</time></trkpt><trkpt lat="45.971296121515806" lon="12.317476837337463"><ele>110.28571428571428</ele><time>2026-04-25T12:33:52Z</time></trkpt><trkpt lat="45.97124286889186" lon="12.317534619144483"><ele>110.57142857142857</ele><time>2026-04-25T12:33:53Z</time></trkpt><trkpt lat="45.971187163344865" lon="12.317591503262431"><ele>110.85714285714286</ele><time>2026-04-25T12:33:54Z</time></trkpt><trkpt lat="45.9711332820697" lon="12.31764543212664"><ele>111.14285714285714</ele><time>2026-04-25T12:33:55Z</time></trkpt><trkpt lat="45.97107914880906" lon="12.317700160694606"><ele>111.42857142857143</ele><time>2026-04-25T12:33:56Z</time></trkpt><trkpt lat="45.9710251518571" lon="12.317758379902948"><ele>111.71428571428571</ele><time>2026-04-25T12:33:57Z</time></trkpt><trkpt lat="45.97096983551885" lon="12.317811807136732"><ele>112.0</ele><time>2026-04-25T12:33:58Z</time></trkpt><trkpt lat="45.970911043800164" lon="12.31786081205951"><ele>112.14285714285714</ele><time>2026-04-25T12:33:59Z</time></trkpt><trkpt lat="45.97085514271457" lon="12.317912710592074"><ele>112.28571428571428</ele><time>2026-04-25T12:34:00Z</time></trkpt><trkpt lat="45.97080246057276" lon="12.317971814694372"><ele>112.42857142857143</ele><time>2026-04-25T12:34:01Z</time></trkpt><trkpt lat="45.970748788173424" lon="12.318029310899531"><ele>112.57142857142857</ele><time>2026-04-25T12:34:02Z</time></trkpt><trkpt lat="45.9706937063227" lon="12.31808298416063"><ele>112.71428571428571</ele><time>2026-04-25T12:34:03Z</time></trkpt><trkpt lat="45.97063592168432" lon="12.318133542333367"><ele>112.85714285714286</ele><time>2026-04-25T12:34:04Z</time></trkpt><trkpt lat="45.970576673159435" lon="12.318180213010438"><ele>113.0</ele><time>2026-04-25T12:34:05Z</time></trkpt><trkpt lat="45.97051349765771" lon="12.318221379882981"><ele>112.71428571428572</ele><time>2026-04-25T12:34:06Z</time></trkpt><trkpt lat="45.97044848678358" lon="12.318252680937448"><ele>112.42857142857142</ele><time>2026-04-25T12:34:07Z</time></trkpt><trkpt lat="45.97038838723824" lon="12.318287620407203"><ele>112.14285714285714</ele><time>2026-04-25T12:34:08Z</time></trkpt><trkpt lat="45.97032972570872" lon="12.31833296091371"><ele>111.85714285714286</ele><time>2026-04-25T12:34:09Z</time></trkpt><trkpt lat="45.97027810664241" lon="12.318391426686427"><ele>111.57142857142858</ele><time>2026-04-25T12:34:10Z</time></trkpt><trkpt lat="45.97023345282576" lon="12.318462375523774"><ele>111.28571428571428</ele><time>2026-04-25T12:34:11Z</time></trkpt><trkpt lat="45.9701924815867" lon="12.318539410712448"><ele>111.0</ele><time>2026-04-25T12:34:12Z</time></trkpt><trkpt lat="45.97015064457466" lon="12.318614432214078"><ele>111.0</ele><time>2026-04-25T12:34:13Z</time></trkpt><trkpt lat="45.97010736015488" lon="12.3186831544531"><ele>111.0</ele><time>2026-04-25T12:34:14Z</time></trkpt><trkpt lat="45.97006193973192" lon="12.318754162276003"><ele>111.0</ele><time>2026-04-25T12:34:15Z</time></trkpt><trkpt lat="45.97001586363905" lon="12.318824954737396"><ele>111.0</ele><time>2026-04-25T12:34:16Z</time></trkpt><trkpt lat="45.969968827151256" lon="12.318893334177664"><ele>111.0</ele><time>2026-04-25T12:34:17Z</time></trkpt><trkpt lat="45.969920421477916" lon="12.31896517021935"><ele>111.0</ele><time>2026-04-25T12:34:18Z</time></trkpt><trkpt lat="45.969874362897194" lon="12.319033445953815"><ele>111.0</ele><time>2026-04-25T12:34:19Z</time></trkpt><trkpt lat="45.96982466765935" lon="12.319105093493672"><ele>110.71428571428571</ele><time>2026-04-25T12:34:20Z</time></trkpt><trkpt lat="45.969775907981564" lon="12.3191756758304"><ele>110.42857142857143</ele><time>2026-04-25T12:34:21Z</time></trkpt><trkpt lat="45.969725471395215" lon="12.31924537998527"><ele>110.14285714285714</ele><time>2026-04-25T12:34:22Z</time></trkpt><trkpt lat="45.96967660895069" lon="12.319314949415414"><ele>109.85714285714286</ele><time>2026-04-25T12:34:23Z</time></trkpt><trkpt lat="45.96962877903882" lon="12.319387702514144"><ele>109.57142857142858</ele><time>2026-04-25T12:34:24Z</time></trkpt><trkpt lat="45.96957891988533" lon="12.319459696431716"><ele>109.28571428571429</ele><time>2026-04-25T12:34:25Z</time></trkpt><trkpt lat="45.969525398105716" lon="12.319525887894565"><ele>109.0</ele><time>2026-04-25T12:34:26Z</time></trkpt><trkpt lat="45.969473958885345" lon="12.319594578886072"><ele>109.0</ele><time>2026-04-25T12:34:27Z</time></trkpt><trkpt lat="45.96942476754965" lon="12.319664492114716"><ele>109.0</ele><time>2026-04-25T12:34:28Z</time></trkpt><trkpt lat="45.96937568559482" lon="12.31973561446336"><ele>109.0</ele><time>2026-04-25T12:34:29Z</time></trkpt><trkpt lat="45.96932484302546" lon="12.31980905966018"><ele>109.0</ele><time>2026-04-25T12:34:30Z</time></trkpt><trkpt lat="45.9692739339313" lon="12.319883162280055"><ele>109.0</ele><time>2026-04-25T12:34:31Z</time></trkpt><trkpt lat="45.96922334653797" lon="12.319955679809567"><ele>109.0</ele><time>2026-04-25T12:34:32Z</time></trkpt><trkpt lat="45.96917122078449" lon="12.320029959909792"><ele>109.0</ele><time>2026-04-25T12:34:33Z</time></trkpt><trkpt lat="45.96911902050931" lon="12.320104133896711"><ele>109.14285714285714</ele><time>2026-04-25T12:34:34Z</time></trkpt><trkpt lat="45.969067014564224" lon="12.320178240000999"><ele>109.28571428571429</ele><time>2026-04-25T12:34:34.999Z</time></trkpt><trkpt lat="45.96901383731069" lon="12.320250103188108"><ele>109.42857142857142</ele><time>2026-04-25T12:34:35.999Z</time></trkpt><trkpt lat="45.9689617142251" lon="12.320323303085528"><ele>109.57142857142857</ele><time>2026-04-25T12:34:36.999Z</time></trkpt><trkpt lat="45.96891086316183" lon="12.320399751922617"><ele>109.71428571428571</ele><time>2026-04-25T12:34:37.999Z</time></trkpt><trkpt lat="45.968859908989785" lon="12.32047598381303"><ele>109.85714285714285</ele><time>2026-04-25T12:34:38.999Z</time></trkpt><trkpt lat="45.968807305673145" lon="12.320550804626883"><ele>110.0</ele><time>2026-04-25T12:34:39.999Z</time></trkpt><trkpt lat="45.968754885304556" lon="12.320628431412826"><ele>109.16666666666666</ele><time>2026-04-25T12:34:40.999Z</time></trkpt><trkpt lat="45.96870134572419" lon="12.320702563216344"><ele>108.33333333333333</ele><time>2026-04-25T12:34:41.999Z</time></trkpt><trkpt lat="45.96864837057087" lon="12.320777621194402"><ele>107.5</ele><time>2026-04-25T12:34:42.999Z</time></trkpt><trkpt lat="45.96859606015629" lon="12.32085729222248"><ele>106.66666666666666</ele><time>2026-04-25T12:34:43.999Z</time></trkpt><trkpt lat="45.96854184894285" lon="12.320935590341984"><ele>105.83333333333333</ele><time>2026-04-25T12:34:44.999Z</time></trkpt><trkpt lat="45.96848933543853" lon="12.321011195310806"><ele>105.0</ele><time>2026-04-25T12:34:45.999Z</time></trkpt><trkpt lat="45.96843670541" lon="12.321087334851908"><ele>105.0</ele><time>2026-04-25T12:34:46.999Z</time></trkpt><trkpt lat="45.96838514352366" lon="12.321164952370928"><ele>105.0</ele><time>2026-04-25T12:34:47.999Z</time></trkpt><trkpt lat="45.96833128318745" lon="12.321245796626513"><ele>105.0</ele><time>2026-04-25T12:34:48.999Z</time></trkpt><trkpt lat="45.96827696119325" lon="12.321319218845245"><ele>105.0</ele><time>2026-04-25T12:34:49.999Z</time></trkpt><trkpt lat="45.96822413740886" lon="12.321396780725829"><ele>105.0</ele><time>2026-04-25T12:34:50.999Z</time></trkpt><trkpt lat="45.968167949373964" lon="12.321467420910405"><ele>105.0</ele><time>2026-04-25T12:34:51.999Z</time></trkpt><trkpt lat="45.968113043806916" lon="12.32154442201773"><ele>105.42857142857143</ele><time>2026-04-25T12:34:52.999Z</time></trkpt><trkpt lat="45.96806148258945" lon="12.321623754780788"><ele>105.85714285714286</ele><time>2026-04-25T12:34:53.999Z</time></trkpt><trkpt lat="45.96800964689318" lon="12.321700381610974"><ele>106.28571428571428</ele><time>2026-04-25T12:34:54.999Z</time></trkpt><trkpt lat="45.96795698667294" lon="12.321777649140373"><ele>106.71428571428572</ele><time>2026-04-25T12:34:55.999Z</time></trkpt><trkpt lat="45.96790558871589" lon="12.321853975347022"><ele>107.14285714285714</ele><time>2026-04-25T12:34:56.999Z</time></trkpt><trkpt lat="45.96785306870044" lon="12.321930560522258"><ele>107.57142857142857</ele><time>2026-04-25T12:34:57.999Z</time></trkpt><trkpt lat="45.967800691877684" lon="12.322004507250554"><ele>108.0</ele><time>2026-04-25T12:34:58.999Z</time></trkpt><trkpt lat="45.96774934882602" lon="12.322080884156017"><ele>108.0</ele><time>2026-04-25T12:34:59.999Z</time></trkpt><trkpt lat="45.96769802287382" lon="12.32215306257638"><ele>108.0</ele><time>2026-04-25T12:35:00.999Z</time></trkpt><trkpt lat="45.96764546408517" lon="12.322220657330526"><ele>108.0</ele><time>2026-04-25T12:35:01.999Z</time></trkpt><trkpt lat="45.96759204648842" lon="12.322284214539787"><ele>108.0</ele><time>2026-04-25T12:35:02.999Z</time></trkpt><trkpt lat="45.96753975169913" lon="12.322342926704561"><ele>108.0</ele><time>2026-04-25T12:35:03.999Z</time></trkpt><trkpt lat="45.96748643783362" lon="12.322396383198816"><ele>108.0</ele><time>2026-04-25T12:35:04.999Z</time></trkpt><trkpt lat="45.96743266199633" lon="12.322445762238493"><ele>108.0</ele><time>2026-04-25T12:35:05.999Z</time></trkpt><trkpt lat="45.96732623931275" lon="12.322537297676954"><ele>108.0</ele><time>2026-04-25T12:35:07.998Z</time></trkpt><trkpt lat="45.96721085903127" lon="12.322612599318012"><ele>108.0</ele><time>2026-04-25T12:35:09.998Z</time></trkpt><trkpt lat="45.967152083738526" lon="12.322651663064171"><ele>108.0</ele><time>2026-04-25T12:35:10.998Z</time></trkpt><trkpt lat="45.96709187753196" lon="12.322689907794798"><ele>108.0</ele><time>2026-04-25T12:35:11.998Z</time></trkpt><trkpt lat="45.96703257187047" lon="12.322732158514002"><ele>108.0</ele><time>2026-04-25T12:35:12.998Z</time></trkpt><trkpt lat="45.966972256085555" lon="12.32277565307681"><ele>108.0</ele><time>2026-04-25T12:35:13.998Z</time></trkpt><trkpt lat="45.96691072260453" lon="12.322816312017977"><ele>108.0</ele><time>2026-04-25T12:35:14.998Z</time></trkpt><trkpt lat="45.966847768208524" lon="12.322852513437137"><ele>108.0</ele><time>2026-04-25T12:35:15.998Z</time></trkpt><trkpt lat="45.96678544494825" lon="12.322892421610566"><ele>108.0</ele><time>2026-04-25T12:35:16.998Z</time></trkpt><trkpt lat="45.966725396208446" lon="12.32293586627989"><ele>108.0</ele><time>2026-04-25T12:35:17.997Z</time></trkpt><trkpt lat="45.966663493088504" lon="12.3229792853251"><ele>108.0</ele><time>2026-04-25T12:35:18.997Z</time></trkpt><trkpt lat="45.96660140595821" lon="12.323023624905785"><ele>108.0</ele><time>2026-04-25T12:35:19.997Z</time></trkpt><trkpt lat="45.966539936552" lon="12.323060521073607"><ele>108.0</ele><time>2026-04-25T12:35:20.997Z</time></trkpt><trkpt lat="45.96647838235881" lon="12.32309987284492"><ele>107.83333333333333</ele><time>2026-04-25T12:35:21.997Z</time></trkpt><trkpt lat="45.96641952511958" lon="12.323140158699474"><ele>107.66666666666666</ele><time>2026-04-25T12:35:22.997Z</time></trkpt><trkpt lat="45.96636035955423" lon="12.323177649058723"><ele>107.5</ele><time>2026-04-25T12:35:23.997Z</time></trkpt><trkpt lat="45.96630348386591" lon="12.323221859450873"><ele>107.33333333333333</ele><time>2026-04-25T12:35:24.997Z</time></trkpt><trkpt lat="45.966207629777344" lon="12.323318513060817"><ele>107.16666666666666</ele><time>2026-04-25T12:35:26.997Z</time></trkpt><trkpt lat="45.966129315744816" lon="12.323357991846034"><ele>107.0</ele><time>2026-04-25T12:35:28.997Z</time></trkpt><trkpt lat="45.96606750412026" lon="12.32331344566911"><ele>107.0</ele><time>2026-04-25T12:35:30.997Z</time></trkpt><trkpt lat="45.966005526103544" lon="12.323279962248687"><ele>106.99999999999999</ele><time>2026-04-25T12:35:32.997Z</time></trkpt><trkpt lat="45.965918156529625" lon="12.32324883837711"><ele>106.99999999999999</ele><time>2026-04-25T12:35:34.997Z</time></trkpt><trkpt lat="45.965816064345134" lon="12.323196640281656"><ele>107.0</ele><time>2026-04-25T12:35:36.997Z</time></trkpt><trkpt lat="45.96570158016282" lon="12.323174268962344"><ele>107.0</ele><time>2026-04-25T12:35:38.997Z</time></trkpt><trkpt lat="45.965611634904526" lon="12.323145301383342"><ele>106.6</ele><time>2026-04-25T12:35:40.997Z</time></trkpt><trkpt lat="45.96555023966383" lon="12.323103926625752"><ele>106.19999999999999</ele><time>2026-04-25T12:35:42.997Z</time></trkpt><trkpt lat="45.96552303878855" lon="12.32331510387894"><ele>105.8</ele><time>2026-04-25T12:35:44.997Z</time></trkpt><trkpt lat="45.96553093779651" lon="12.323449301132813"><ele>105.4</ele><time>2026-04-25T12:35:46.997Z</time></trkpt><trkpt lat="45.96553185017103" lon="12.323579418629341"><ele>105.0</ele><time>2026-04-25T12:35:48.997Z</time></trkpt><trkpt lat="45.965510263832165" lon="12.323716935751259"><ele>105.0</ele><time>2026-04-25T12:35:50.999Z</time></trkpt><trkpt lat="45.965471402209715" lon="12.323853296540706"><ele>105.0</ele><time>2026-04-25T12:35:52.999Z</time></trkpt><trkpt lat="45.96542330419801" lon="12.324001493235732"><ele>105.0</ele><time>2026-04-25T12:35:54.999Z</time></trkpt><trkpt lat="45.965365579993815" lon="12.324153398031639"><ele>105.0</ele><time>2026-04-25T12:35:56.999Z</time></trkpt><trkpt lat="45.96532465685599" lon="12.324321320014434"><ele>105.0</ele><time>2026-04-25T12:35:58.999Z</time></trkpt><trkpt lat="45.965291564600165" lon="12.324497065673635"><ele>105.0</ele><time>2026-04-25T12:36:01Z</time></trkpt><trkpt lat="45.96527651781221" lon="12.324587772838663"><ele>105.0</ele><time>2026-04-25T12:36:01.999Z</time></trkpt><trkpt lat="45.96526312207588" lon="12.324766689908735"><ele>105.0</ele><time>2026-04-25T12:36:04Z</time></trkpt><trkpt lat="45.9652408271362" lon="12.324852088168614"><ele>105.0</ele><time>2026-04-25T12:36:04.999Z</time></trkpt><trkpt lat="45.965225884682475" lon="12.324941139472903"><ele>105.0</ele><time>2026-04-25T12:36:05.999Z</time></trkpt><trkpt lat="45.96520787890585" lon="12.325028569130106"><ele>105.0</ele><time>2026-04-25T12:36:06.999Z</time></trkpt><trkpt lat="45.96518586736918" lon="12.325115088515188"><ele>105.0</ele><time>2026-04-25T12:36:07.999Z</time></trkpt><trkpt lat="45.96513610120626" lon="12.32528828936764"><ele>105.0</ele><time>2026-04-25T12:36:09.999Z</time></trkpt><trkpt lat="45.965091719552206" lon="12.325362147295833"><ele>105.0</ele><time>2026-04-25T12:36:10.999Z</time></trkpt><trkpt lat="45.96504371251062" lon="12.325531602886741"><ele>105.0</ele><time>2026-04-25T12:36:12.999Z</time></trkpt><trkpt lat="45.9649789721394" lon="12.325682268734345"><ele>104.6</ele><time>2026-04-25T12:36:14.999Z</time></trkpt><trkpt lat="45.96492053189298" lon="12.32584091963507"><ele>104.2</ele><time>2026-04-25T12:36:16.999Z</time></trkpt><trkpt lat="45.96488977874677" lon="12.325924027157761"><ele>103.80000000000001</ele><time>2026-04-25T12:36:17.999Z</time></trkpt><trkpt lat="45.96485458908105" lon="12.326002157170691"><ele>103.4</ele><time>2026-04-25T12:36:18.999Z</time></trkpt><trkpt lat="45.96479012232201" lon="12.326165782188744"><ele>103.0</ele><time>2026-04-25T12:36:20.999Z</time></trkpt><trkpt lat="45.96473552885079" lon="12.326316147085478"><ele>103.0</ele><time>2026-04-25T12:36:22.999Z</time></trkpt><trkpt lat="45.96466606381333" lon="12.326462010264255"><ele>103.0</ele><time>2026-04-25T12:36:24.999Z</time></trkpt><trkpt lat="45.96461653836698" lon="12.326601964498364"><ele>103.0</ele><time>2026-04-25T12:36:26.999Z</time></trkpt><trkpt lat="45.964605917727404" lon="12.326724142540222"><ele>103.0</ele><time>2026-04-25T12:36:28.999Z</time></trkpt><trkpt lat="45.96457980980789" lon="12.326817449981126"><ele>103.0</ele><time>2026-04-25T12:36:30.999Z</time></trkpt><trkpt lat="45.96467849091562" lon="12.326895527323702"><ele>103.0</ele><time>2026-04-25T12:36:31.999Z</time></trkpt><trkpt lat="45.964722420611025" lon="12.327023721498952"><ele>103.0</ele><time>2026-04-25T12:36:33.999Z</time></trkpt><trkpt lat="45.96477908198247" lon="12.327147223105193"><ele>103.0</ele><time>2026-04-25T12:36:35.999Z</time></trkpt><trkpt lat="45.964841887447605" lon="12.3272726922631"><ele>103.0</ele><time>2026-04-25T12:36:37.999Z</time></trkpt><trkpt lat="45.96491802247679" lon="12.327388454376395"><ele>103.0</ele><time>2026-04-25T12:36:39.999Z</time></trkpt><trkpt lat="45.96496549234313" lon="12.327538286769059"><ele>103.0</ele><time>2026-04-25T12:36:41.999Z</time></trkpt><trkpt lat="45.96498556860445" lon="12.327705794275317"><ele>103.0</ele><time>2026-04-25T12:36:43.999Z</time></trkpt><trkpt lat="45.96502431250961" lon="12.327869137269397"><ele>103.0</ele><time>2026-04-25T12:36:45.999Z</time></trkpt><trkpt lat="45.965076032638855" lon="12.32802447238143"><ele>103.0</ele><time>2026-04-25T12:36:47.999Z</time></trkpt><trkpt lat="45.96513051910026" lon="12.328174194236869"><ele>103.0</ele><time>2026-04-25T12:36:49.998Z</time></trkpt><trkpt lat="45.965183514416395" lon="12.32832772142839"><ele>103.0</ele><time>2026-04-25T12:36:51.998Z</time></trkpt><trkpt lat="45.965233033445564" lon="12.328485164282464"><ele>103.0</ele><time>2026-04-25T12:36:53.998Z</time></trkpt><trkpt lat="45.96527067263147" lon="12.328643392839536"><ele>103.0</ele><time>2026-04-25T12:36:55.998Z</time></trkpt><trkpt lat="45.96529855330124" lon="12.328813954368615"><ele>103.25</ele><time>2026-04-25T12:36:57.998Z</time></trkpt><trkpt lat="45.96532156438875" lon="12.32898533977738"><ele>103.5</ele><time>2026-04-25T12:36:59.998Z</time></trkpt><trkpt lat="45.96534154069016" lon="12.329160494794342"><ele>103.75</ele><time>2026-04-25T12:37:01.998Z</time></trkpt><trkpt lat="45.965354710142385" lon="12.329314857798863"><ele>104.0</ele><time>2026-04-25T12:37:03.998Z</time></trkpt><trkpt lat="45.96531645283988" lon="12.329451643259395"><ele>104.0</ele><time>2026-04-25T12:37:05.998Z</time></trkpt><trkpt lat="45.96527832276638" lon="12.329613813311383"><ele>104.0</ele><time>2026-04-25T12:37:07.998Z</time></trkpt><trkpt lat="45.96523857403258" lon="12.329743737597687"><ele>104.0</ele><time>2026-04-25T12:37:09.998Z</time></trkpt><trkpt lat="45.965201254074614" lon="12.329829112983441"><ele>104.0</ele><time>2026-04-25T12:37:11.998Z</time></trkpt><trkpt lat="45.96527837145808" lon="12.32995470042541"><ele>104.0</ele><time>2026-04-25T12:37:13.998Z</time></trkpt><trkpt lat="45.965354051880595" lon="12.330053391735348"><ele>103.80000000000001</ele><time>2026-04-25T12:37:15.998Z</time></trkpt><trkpt lat="45.96543964226524" lon="12.33015159693591"><ele>103.60000000000001</ele><time>2026-04-25T12:37:17.998Z</time></trkpt><trkpt lat="45.96552394692729" lon="12.330254080648965"><ele>103.4</ele><time>2026-04-25T12:37:19.998Z</time></trkpt><trkpt lat="45.965602549095536" lon="12.330373100574434"><ele>103.2</ele><time>2026-04-25T12:37:21.998Z</time></trkpt><trkpt lat="45.96567805382588" lon="12.330492900462716"><ele>103.0</ele><time>2026-04-25T12:37:23.998Z</time></trkpt><trkpt lat="45.965653193153756" lon="12.330658959332396"><ele>102.71428571428571</ele><time>2026-04-25T12:37:25.998Z</time></trkpt><trkpt lat="45.96560641329588" lon="12.330728045946998"><ele>102.42857142857143</ele><time>2026-04-25T12:37:26.998Z</time></trkpt><trkpt lat="45.96554213167518" lon="12.330763193115045"><ele>102.14285714285714</ele><time>2026-04-25T12:37:27.998Z</time></trkpt><trkpt lat="45.96549905150986" lon="12.330829453373779"><ele>101.85714285714286</ele><time>2026-04-25T12:37:28.998Z</time></trkpt><trkpt lat="45.96546759655261" lon="12.3309104543735"><ele>101.57142857142857</ele><time>2026-04-25T12:37:29.998Z</time></trkpt><trkpt lat="45.965422408795575" lon="12.33097852301111"><ele>101.28571428571428</ele><time>2026-04-25T12:37:30.998Z</time></trkpt><trkpt lat="45.96537650468295" lon="12.331040612004454"><ele>101.0</ele><time>2026-04-25T12:37:31.998Z</time></trkpt><trkpt lat="45.965289933699594" lon="12.331162546452422"><ele>101.0</ele><time>2026-04-25T12:37:33.997Z</time></trkpt><trkpt lat="45.96520608988967" lon="12.33126856430613"><ele>101.0</ele><time>2026-04-25T12:37:35.997Z</time></trkpt><trkpt lat="45.9652368341049" lon="12.331446398449488"><ele>101.0</ele><time>2026-04-25T12:37:37.997Z</time></trkpt><trkpt lat="45.96527966152956" lon="12.331516633143666"><ele>101.0</ele><time>2026-04-25T12:37:38.997Z</time></trkpt><trkpt lat="45.96533019171569" lon="12.331572387409057"><ele>101.0</ele><time>2026-04-25T12:37:39.997Z</time></trkpt><trkpt lat="45.96542399430001" lon="12.331686406487323"><ele>100.99999999999999</ele><time>2026-04-25T12:37:41.997Z</time></trkpt><trkpt lat="45.96546359297388" lon="12.33185553096119"><ele>101.0</ele><time>2026-04-25T12:37:43.997Z</time></trkpt><trkpt lat="45.965421393693454" lon="12.331940784966632"><ele>101.0</ele><time>2026-04-25T12:37:44.997Z</time></trkpt><trkpt lat="45.96538337040407" lon="12.332015080828398"><ele>101.0</ele><time>2026-04-25T12:37:45.997Z</time></trkpt><trkpt lat="45.965362769292895" lon="12.332102542133264"><ele>100.99999999999999</ele><time>2026-04-25T12:37:46.997Z</time></trkpt><trkpt lat="45.96530533670044" lon="12.332255867266875"><ele>101.0</ele><time>2026-04-25T12:37:48.997Z</time></trkpt><trkpt lat="45.965247286304766" lon="12.332400108808887"><ele>100.8</ele><time>2026-04-25T12:37:50.997Z</time></trkpt><trkpt lat="45.96521014655881" lon="12.332500658120177"><ele>100.6</ele><time>2026-04-25T12:37:52.997Z</time></trkpt><trkpt lat="45.96531002506253" lon="12.332588424130275"><ele>100.4</ele><time>2026-04-25T12:37:53.997Z</time></trkpt><trkpt lat="45.96539898425324" lon="12.332674371695656"><ele>100.2</ele><time>2026-04-25T12:37:55.997Z</time></trkpt><trkpt lat="45.96548660596877" lon="12.332800832258199"><ele>100.0</ele><time>2026-04-25T12:37:58Z</time></trkpt><trkpt lat="45.96559611859844" lon="12.332853228020376"><ele>100.0</ele><time>2026-04-25T12:38:00Z</time></trkpt><trkpt lat="45.965717266470485" lon="12.332830964103236"><ele>100.0</ele><time>2026-04-25T12:38:02Z</time></trkpt><trkpt lat="45.965821806652734" lon="12.332811438601343"><ele>100.0</ele><time>2026-04-25T12:38:04Z</time></trkpt><trkpt lat="45.96593043540759" lon="12.332799457470031"><ele>100.0</ele><time>2026-04-25T12:38:06Z</time></trkpt><trkpt lat="45.966004354279086" lon="12.332832656176528"><ele>100.0</ele><time>2026-04-25T12:38:08Z</time></trkpt><trkpt lat="45.96600426924147" lon="12.332975281928528"><ele>100.25</ele><time>2026-04-25T12:38:09Z</time></trkpt><trkpt lat="45.96604738404271" lon="12.333127340288955"><ele>100.5</ele><time>2026-04-25T12:38:11Z</time></trkpt><trkpt lat="45.966100478391084" lon="12.33326967357902"><ele>100.75</ele><time>2026-04-25T12:38:13Z</time></trkpt><trkpt lat="45.96613415254375" lon="12.333431245551962"><ele>101.0</ele><time>2026-04-25T12:38:15Z</time></trkpt><trkpt lat="45.96616392479085" lon="12.333601617389629"><ele>100.99999999999999</ele><time>2026-04-25T12:38:17Z</time></trkpt><trkpt lat="45.96616981497081" lon="12.333695993526085"><ele>101.0</ele><time>2026-04-25T12:38:18Z</time></trkpt><trkpt lat="45.96620994162688" lon="12.333771869808135"><ele>101.0</ele><time>2026-04-25T12:38:19Z</time></trkpt><trkpt lat="45.966216530746244" lon="12.3338641602182"><ele>101.0</ele><time>2026-04-25T12:38:20Z</time></trkpt><trkpt lat="45.966249948578664" lon="12.334036101541848"><ele>100.99999999999999</ele><time>2026-04-25T12:38:22Z</time></trkpt><trkpt lat="45.966244530396786" lon="12.334210604920637"><ele>101.0</ele><time>2026-04-25T12:38:24Z</time></trkpt><trkpt lat="45.96624046641731" lon="12.334384903298638"><ele>100.99999999999999</ele><time>2026-04-25T12:38:25.999Z</time></trkpt><trkpt lat="45.96620470294503" lon="12.334523054426809"><ele>101.0</ele><time>2026-04-25T12:38:27.999Z</time></trkpt><trkpt lat="45.96610939053414" lon="12.334575060473044"><ele>101.0</ele><time>2026-04-25T12:38:28.999Z</time></trkpt><trkpt lat="45.966064545077394" lon="12.33463960247953"><ele>101.0</ele><time>2026-04-25T12:38:29.999Z</time></trkpt><trkpt lat="45.96600540102159" lon="12.33468302088368"><ele>100.99999999999999</ele><time>2026-04-25T12:38:30.999Z</time></trkpt><trkpt lat="45.96595182909497" lon="12.334737586860811"><ele>101.0</ele><time>2026-04-25T12:38:31.999Z</time></trkpt><trkpt lat="45.96589664917094" lon="12.33479265584026"><ele>100.85714285714286</ele><time>2026-04-25T12:38:32.999Z</time></trkpt><trkpt lat="45.96584260724734" lon="12.3348465890845"><ele>100.71428571428571</ele><time>2026-04-25T12:38:33.999Z</time></trkpt><trkpt lat="45.96579010433058" lon="12.334902661122971"><ele>100.57142857142858</ele><time>2026-04-25T12:38:34.999Z</time></trkpt><trkpt lat="45.965738800993044" lon="12.334961392553215"><ele>100.42857142857143</ele><time>2026-04-25T12:38:35.999Z</time></trkpt><trkpt lat="45.9656897325561" lon="12.335021782600647"><ele>100.28571428571429</ele><time>2026-04-25T12:38:36.999Z</time></trkpt><trkpt lat="45.96563991854737" lon="12.335092459411728"><ele>100.14285714285715</ele><time>2026-04-25T12:38:37.999Z</time></trkpt><trkpt lat="45.96560703852439" lon="12.335174238378196"><ele>100.0</ele><time>2026-04-25T12:38:38.999Z</time></trkpt><trkpt lat="45.96556029818421" lon="12.335246184250545"><ele>100.00000000000001</ele><time>2026-04-25T12:38:39.999Z</time></trkpt><trkpt lat="45.96552248028685" lon="12.335325889431706"><ele>100.0</ele><time>2026-04-25T12:38:40.999Z</time></trkpt><trkpt lat="45.965479661957175" lon="12.33540089095144"><ele>100.0</ele><time>2026-04-25T12:38:41.999Z</time></trkpt><trkpt lat="45.96543509312212" lon="12.335480609991592"><ele>100.0</ele><time>2026-04-25T12:38:42.999Z</time></trkpt><trkpt lat="45.96538998367012" lon="12.335556429237847"><ele>100.0</ele><time>2026-04-25T12:38:43.999Z</time></trkpt><trkpt lat="45.9653447665093" lon="12.335634895886674"><ele>100.00000000000001</ele><time>2026-04-25T12:38:44.999Z</time></trkpt><trkpt lat="45.96529689937731" lon="12.335707973622506"><ele>100.0</ele><time>2026-04-25T12:38:45.999Z</time></trkpt><trkpt lat="45.96524118646059" lon="12.335771813509892"><ele>99.85714285714286</ele><time>2026-04-25T12:38:46.999Z</time></trkpt><trkpt lat="45.96519427484451" lon="12.33584588232385"><ele>99.71428571428572</ele><time>2026-04-25T12:38:47.999Z</time></trkpt><trkpt lat="45.965147001595064" lon="12.335919887586984"><ele>99.57142857142858</ele><time>2026-04-25T12:38:48.999Z</time></trkpt><trkpt lat="45.96509855780541" lon="12.335994817967388"><ele>99.42857142857143</ele><time>2026-04-25T12:38:49.999Z</time></trkpt><trkpt lat="45.96505178058016" lon="12.336067170592049"><ele>99.28571428571428</ele><time>2026-04-25T12:38:50.999Z</time></trkpt><trkpt lat="45.96500463641636" lon="12.336140090774842"><ele>99.14285714285715</ele><time>2026-04-25T12:38:51.999Z</time></trkpt><trkpt lat="45.964956828498245" lon="12.336214037618918"><ele>99.0</ele><time>2026-04-25T12:38:52.999Z</time></trkpt><trkpt lat="45.96490877628296" lon="12.336284357991378"><ele>99.0</ele><time>2026-04-25T12:38:53.999Z</time></trkpt><trkpt lat="45.96486188268326" lon="12.33634868352182"><ele>99.0</ele><time>2026-04-25T12:38:54.999Z</time></trkpt><trkpt lat="45.96481166736523" lon="12.336415995195592"><ele>99.0</ele><time>2026-04-25T12:38:55.999Z</time></trkpt><trkpt lat="45.96476041756704" lon="12.336483755337518"><ele>99.0</ele><time>2026-04-25T12:38:56.999Z</time></trkpt><trkpt lat="45.96471236769816" lon="12.336547284675083"><ele>99.0</ele><time>2026-04-25T12:38:57.999Z</time></trkpt><trkpt lat="45.96466250886316" lon="12.336613205769146"><ele>99.0</ele><time>2026-04-25T12:38:58.999Z</time></trkpt><trkpt lat="45.96461413236761" lon="12.336679317415198"><ele>99.0</ele><time>2026-04-25T12:38:59.999Z</time></trkpt><trkpt lat="45.96457499233003" lon="12.336763501305498"><ele>99.0</ele><time>2026-04-25T12:39:00.999Z</time></trkpt><trkpt lat="45.964528192113846" lon="12.336833128115405"><ele>99.0</ele><time>2026-04-25T12:39:01.999Z</time></trkpt><trkpt lat="45.96448571896597" lon="12.336913879341374"><ele>99.0</ele><time>2026-04-25T12:39:02.999Z</time></trkpt><trkpt lat="45.9644382095344" lon="12.336983430171198"><ele>99.0</ele><time>2026-04-25T12:39:03.999Z</time></trkpt><trkpt lat="45.96439913327638" lon="12.337064447674427"><ele>99.0</ele><time>2026-04-25T12:39:04.999Z</time></trkpt><trkpt lat="45.96435381730481" lon="12.337135739401848"><ele>99.0</ele><time>2026-04-25T12:39:05.999Z</time></trkpt><trkpt lat="45.964307706218484" lon="12.337212318820988"><ele>99.0</ele><time>2026-04-25T12:39:06.999Z</time></trkpt><trkpt lat="45.96426550222732" lon="12.337285869752542"><ele>99.0</ele><time>2026-04-25T12:39:07.999Z</time></trkpt><trkpt lat="45.964220962621674" lon="12.337355529500188"><ele>99.0</ele><time>2026-04-25T12:39:08.999Z</time></trkpt><trkpt lat="45.964180553570216" lon="12.337431700998293"><ele>99.0</ele><time>2026-04-25T12:39:09.999Z</time></trkpt><trkpt lat="45.96412466993712" lon="12.33748687402175"><ele>99.0</ele><time>2026-04-25T12:39:10.998Z</time></trkpt><trkpt lat="45.964036729057646" lon="12.337626012157612"><ele>99.0</ele><time>2026-04-25T12:39:12.998Z</time></trkpt><trkpt lat="45.96399112976202" lon="12.337692658260345"><ele>99.0</ele><time>2026-04-25T12:39:13.998Z</time></trkpt><trkpt lat="45.96390104636" lon="12.337821967716192"><ele>98.2</ele><time>2026-04-25T12:39:15.998Z</time></trkpt><trkpt lat="45.9638535228704" lon="12.337888661128007"><ele>97.4</ele><time>2026-04-25T12:39:16.998Z</time></trkpt><trkpt lat="45.96376215841055" lon="12.338014903306272"><ele>96.6</ele><time>2026-04-25T12:39:18.998Z</time></trkpt><trkpt lat="45.96367074309716" lon="12.33814205947489"><ele>95.8</ele><time>2026-04-25T12:39:20.998Z</time></trkpt><trkpt lat="45.96362297863152" lon="12.338211898615214"><ele>95.0</ele><time>2026-04-25T12:39:21.998Z</time></trkpt><trkpt lat="45.96354405070263" lon="12.338345523101701"><ele>95.0</ele><time>2026-04-25T12:39:23.998Z</time></trkpt><trkpt lat="45.96347008183142" lon="12.338486551233744"><ele>95.0</ele><time>2026-04-25T12:39:25.998Z</time></trkpt><trkpt lat="45.96339329548994" lon="12.338636436787183"><ele>95.0</ele><time>2026-04-25T12:39:27.998Z</time></trkpt><trkpt lat="45.9633214778573" lon="12.338781438828944"><ele>95.0</ele><time>2026-04-25T12:39:29.998Z</time></trkpt><trkpt lat="45.963283194043086" lon="12.33885591116365"><ele>95.0</ele><time>2026-04-25T12:39:30.998Z</time></trkpt><trkpt lat="45.96324212710099" lon="12.338935054481905"><ele>95.14285714285714</ele><time>2026-04-25T12:39:31.998Z</time></trkpt><trkpt lat="45.963201202567745" lon="12.33901392335393"><ele>95.28571428571429</ele><time>2026-04-25T12:39:32.998Z</time></trkpt><trkpt lat="45.963159582945224" lon="12.339094164897082"><ele>95.42857142857142</ele><time>2026-04-25T12:39:33.998Z</time></trkpt><trkpt lat="45.963129085216494" lon="12.33918553484022"><ele>95.57142857142857</ele><time>2026-04-25T12:39:34.998Z</time></trkpt><trkpt lat="45.963080887794" lon="12.33925207257696"><ele>95.71428571428571</ele><time>2026-04-25T12:39:35.998Z</time></trkpt><trkpt lat="45.963045743230225" lon="12.339328365888807"><ele>95.85714285714285</ele><time>2026-04-25T12:39:36.998Z</time></trkpt><trkpt lat="45.96301209437305" lon="12.339411091594908"><ele>96.0</ele><time>2026-04-25T12:39:37.998Z</time></trkpt><trkpt lat="45.96299177997563" lon="12.339508047623552"><ele>95.99999999999999</ele><time>2026-04-25T12:39:38.998Z</time></trkpt><trkpt lat="45.962938341089455" lon="12.339575638502911"><ele>96.0</ele><time>2026-04-25T12:39:39.998Z</time></trkpt><trkpt lat="45.9629109907246" lon="12.339663664665931"><ele>96.0</ele><time>2026-04-25T12:39:40.998Z</time></trkpt><trkpt lat="45.96287471424206" lon="12.339741043478037"><ele>96.0</ele><time>2026-04-25T12:39:41.998Z</time></trkpt><trkpt lat="45.9628333558393" lon="12.33981544463257"><ele>96.0</ele><time>2026-04-25T12:39:42.998Z</time></trkpt><trkpt lat="45.962823409850124" lon="12.339921542374924"><ele>95.99999999999999</ele><time>2026-04-25T12:39:43.998Z</time></trkpt><trkpt lat="45.96280824784427" lon="12.34001972267695"><ele>96.0</ele><time>2026-04-25T12:39:44.998Z</time></trkpt><trkpt lat="45.96279786757641" lon="12.340113922142717"><ele>96.0</ele><time>2026-04-25T12:39:45.998Z</time></trkpt><trkpt lat="45.96278502430511" lon="12.340216362674644"><ele>96.0</ele><time>2026-04-25T12:39:46.998Z</time></trkpt><trkpt lat="45.96276926445626" lon="12.340314382257173"><ele>96.0</ele><time>2026-04-25T12:39:47.998Z</time></trkpt><trkpt lat="45.96275388073798" lon="12.340419764093648"><ele>96.0</ele><time>2026-04-25T12:39:48.998Z</time></trkpt><trkpt lat="45.962727508557045" lon="12.34051582858789"><ele>96.0</ele><time>2026-04-25T12:39:49.998Z</time></trkpt><trkpt lat="45.96271317004232" lon="12.340608933364916"><ele>96.0</ele><time>2026-04-25T12:39:50.998Z</time></trkpt><trkpt lat="45.96268651926295" lon="12.340781316966279"><ele>96.0</ele><time>2026-04-25T12:39:52.998Z</time></trkpt><trkpt lat="45.96267206689914" lon="12.34086994093897"><ele>96.0</ele><time>2026-04-25T12:39:53.998Z</time></trkpt><trkpt lat="45.962637533263155" lon="12.341043378997451"><ele>96.0</ele><time>2026-04-25T12:39:55.997Z</time></trkpt><trkpt lat="45.96261719462724" lon="12.341129317515279"><ele>96.0</ele><time>2026-04-25T12:39:56.997Z</time></trkpt><trkpt lat="45.962596894767735" lon="12.341218937452473"><ele>96.0</ele><time>2026-04-25T12:39:57.997Z</time></trkpt><trkpt lat="45.962560237448535" lon="12.341397180403883"><ele>96.0</ele><time>2026-04-25T12:39:59.997Z</time></trkpt><trkpt lat="45.96254755283498" lon="12.341491827771222"><ele>96.0</ele><time>2026-04-25T12:40:00.997Z</time></trkpt><trkpt lat="45.96249179171533" lon="12.341557946880725"><ele>96.0</ele><time>2026-04-25T12:40:02Z</time></trkpt><trkpt lat="45.96245145303308" lon="12.341637184420284"><ele>96.0</ele><time>2026-04-25T12:40:03Z</time></trkpt><trkpt lat="45.96239753946793" lon="12.341692190588514"><ele>96.0</ele><time>2026-04-25T12:40:04Z</time></trkpt><trkpt lat="45.962337870329705" lon="12.341722879760322"><ele>96.0</ele><time>2026-04-25T12:40:05Z</time></trkpt><trkpt lat="45.96222865793825" lon="12.34183048334296"><ele>96.0</ele><time>2026-04-25T12:40:07Z</time></trkpt><trkpt lat="45.962178207310934" lon="12.34189202159338"><ele>96.0</ele><time>2026-04-25T12:40:08Z</time></trkpt><trkpt lat="45.96210302351358" lon="12.342023743757636"><ele>96.0</ele><time>2026-04-25T12:40:10Z</time></trkpt><trkpt lat="45.962035323497275" lon="12.342116071119603"><ele>96.0</ele><time>2026-04-25T12:40:12Z</time></trkpt><trkpt lat="45.9619659296758" lon="12.342167972130968"><ele>96.0</ele><time>2026-04-25T12:40:14Z</time></trkpt><trkpt lat="45.96189820147573" lon="12.34205494390812"><ele>96.0</ele><time>2026-04-25T12:40:16Z</time></trkpt><trkpt lat="45.96181144767669" lon="12.341979800284443"><ele>96.0</ele><time>2026-04-25T12:40:18Z</time></trkpt><trkpt lat="45.961719279925894" lon="12.341896345182336"><ele>96.0</ele><time>2026-04-25T12:40:20Z</time></trkpt><trkpt lat="45.96162308783178" lon="12.341804883155088"><ele>96.0</ele><time>2026-04-25T12:40:22Z</time></trkpt><trkpt lat="45.96154001291938" lon="12.341684470661496"><ele>96.0</ele><time>2026-04-25T12:40:24Z</time></trkpt><trkpt lat="45.96147100060979" lon="12.34153791791427"><ele>95.5</ele><time>2026-04-25T12:40:26Z</time></trkpt><trkpt lat="45.96143755438868" lon="12.341458482236813"><ele>95.0</ele><time>2026-04-25T12:40:27Z</time></trkpt><trkpt lat="45.961373771325384" lon="12.341294699117318"><ele>94.5</ele><time>2026-04-25T12:40:29Z</time></trkpt><trkpt lat="45.96134520447371" lon="12.341210322840967"><ele>94.0</ele><time>2026-04-25T12:40:30Z</time></trkpt><trkpt lat="45.961317627104755" lon="12.341121436983956"><ele>93.5</ele><time>2026-04-25T12:40:31Z</time></trkpt><trkpt lat="45.96128712461583" lon="12.341036929027311"><ele>93.0</ele><time>2026-04-25T12:40:32Z</time></trkpt><trkpt lat="45.96125578268682" lon="12.340955770972222"><ele>93.0</ele><time>2026-04-25T12:40:33Z</time></trkpt><trkpt lat="45.96121883009406" lon="12.340875353457356"><ele>93.0</ele><time>2026-04-25T12:40:34Z</time></trkpt><trkpt lat="45.96118228721014" lon="12.340801522483899"><ele>93.0</ele><time>2026-04-25T12:40:35Z</time></trkpt><trkpt lat="45.96114385859569" lon="12.340727351906628"><ele>93.0</ele><time>2026-04-25T12:40:36Z</time></trkpt><trkpt lat="45.961098990754735" lon="12.340654710235935"><ele>93.0</ele><time>2026-04-25T12:40:37Z</time></trkpt><trkpt lat="45.96100572254799" lon="12.340531937258882"><ele>93.0</ele><time>2026-04-25T12:40:39Z</time></trkpt><trkpt lat="45.96094974619643" lon="12.340482898274908"><ele>93.00000000000001</ele><time>2026-04-25T12:40:40Z</time></trkpt><trkpt lat="45.960894211041584" lon="12.340434867638496"><ele>93.0</ele><time>2026-04-25T12:40:41Z</time></trkpt><trkpt lat="45.9608348031887" lon="12.340398296393568"><ele>93.0</ele><time>2026-04-25T12:40:42Z</time></trkpt><trkpt lat="45.96077147160157" lon="12.340380979302017"><ele>93.0</ele><time>2026-04-25T12:40:43Z</time></trkpt><trkpt lat="45.96070563459891" lon="12.340372014159248"><ele>93.0</ele><time>2026-04-25T12:40:43.999Z</time></trkpt><trkpt lat="45.96064197956962" lon="12.340370268922479"><ele>93.00000000000001</ele><time>2026-04-25T12:40:44.999Z</time></trkpt><trkpt lat="45.960576845867465" lon="12.340368350080327"><ele>93.0</ele><time>2026-04-25T12:40:45.999Z</time></trkpt><trkpt lat="45.9605122349172" lon="12.340360326335665"><ele>93.0</ele><time>2026-04-25T12:40:46.999Z</time></trkpt><trkpt lat="45.960447508487434" lon="12.340349896510002"><ele>93.0</ele><time>2026-04-25T12:40:47.999Z</time></trkpt><trkpt lat="45.9603832208983" lon="12.340339524341713"><ele>93.0</ele><time>2026-04-25T12:40:48.999Z</time></trkpt><trkpt lat="45.960317771079325" lon="12.340330141091652"><ele>93.0</ele><time>2026-04-25T12:40:49.999Z</time></trkpt><trkpt lat="45.960250203237116" lon="12.340317416258092"><ele>93.0</ele><time>2026-04-25T12:40:50.999Z</time></trkpt><trkpt lat="45.96012288403957" lon="12.340268500302587"><ele>93.0</ele><time>2026-04-25T12:40:52.999Z</time></trkpt><trkpt lat="45.96005907565558" lon="12.340238493025973"><ele>93.14285714285715</ele><time>2026-04-25T12:40:53.999Z</time></trkpt><trkpt lat="45.95999546246819" lon="12.340207459999046"><ele>93.28571428571429</ele><time>2026-04-25T12:40:54.999Z</time></trkpt><trkpt lat="45.959931938808424" lon="12.340170419190871"><ele>93.42857142857143</ele><time>2026-04-25T12:40:55.999Z</time></trkpt><trkpt lat="45.95986862198984" lon="12.340141065837495"><ele>93.57142857142858</ele><time>2026-04-25T12:40:56.999Z</time></trkpt><trkpt lat="45.9598022858145" lon="12.340121048952781"><ele>93.71428571428571</ele><time>2026-04-25T12:40:57.999Z</time></trkpt><trkpt lat="45.95973607291147" lon="12.340099284834704"><ele>93.85714285714286</ele><time>2026-04-25T12:40:58.999Z</time></trkpt><trkpt lat="45.95966964369157" lon="12.340073844480747"><ele>94.0</ele><time>2026-04-25T12:40:59.999Z</time></trkpt><trkpt lat="45.959603709797406" lon="12.340046136263851"><ele>94.0</ele><time>2026-04-25T12:41:00.999Z</time></trkpt><trkpt lat="45.95953725020525" lon="12.340022247809527"><ele>94.0</ele><time>2026-04-25T12:41:01.999Z</time></trkpt><trkpt lat="45.95947408856536" lon="12.340002491803657"><ele>94.0</ele><time>2026-04-25T12:41:02.999Z</time></trkpt><trkpt lat="45.959361213902085" lon="12.339960172039127"><ele>94.0</ele><time>2026-04-25T12:41:04.999Z</time></trkpt><trkpt lat="45.95926291960913" lon="12.339906520199351"><ele>94.0</ele><time>2026-04-25T12:41:06.999Z</time></trkpt><trkpt lat="45.959167009521124" lon="12.339834260647098"><ele>94.0</ele><time>2026-04-25T12:41:08.999Z</time></trkpt><trkpt lat="45.959115563190366" lon="12.339766744214648"><ele>94.0</ele><time>2026-04-25T12:41:09.999Z</time></trkpt><trkpt lat="45.95906975517918" lon="12.339695606750867"><ele>94.0</ele><time>2026-04-25T12:41:10.999Z</time></trkpt><trkpt lat="45.95901805976579" lon="12.33962696978227"><ele>94.0</ele><time>2026-04-25T12:41:11.999Z</time></trkpt><trkpt lat="45.958960149742374" lon="12.3395612029916"><ele>94.0</ele><time>2026-04-25T12:41:12.999Z</time></trkpt><trkpt lat="45.95890120158268" lon="12.339501597949374"><ele>94.0</ele><time>2026-04-25T12:41:13.999Z</time></trkpt><trkpt lat="45.95883533341517" lon="12.339455952175815"><ele>94.0</ele><time>2026-04-25T12:41:14.999Z</time></trkpt><trkpt lat="45.958766467526615" lon="12.339429103485417"><ele>94.0</ele><time>2026-04-25T12:41:15.999Z</time></trkpt><trkpt lat="45.95869570120608" lon="12.33942147671497"><ele>94.0</ele><time>2026-04-25T12:41:16.999Z</time></trkpt><trkpt lat="45.958623610936115" lon="12.33942006657656"><ele>94.0</ele><time>2026-04-25T12:41:17.999Z</time></trkpt><trkpt lat="45.958555080794866" lon="12.33943024793617"><ele>94.0</ele><time>2026-04-25T12:41:18.999Z</time></trkpt><trkpt lat="45.958488520972075" lon="12.339439281768856"><ele>94.0</ele><time>2026-04-25T12:41:19.999Z</time></trkpt><trkpt lat="45.95842192228309" lon="12.339448193183125"><ele>94.0</ele><time>2026-04-25T12:41:20.999Z</time></trkpt><trkpt lat="45.95835581202685" lon="12.339455825299597"><ele>94.0</ele><time>2026-04-25T12:41:21.999Z</time></trkpt><trkpt lat="45.95829096451037" lon="12.33946021907078"><ele>94.0</ele><time>2026-04-25T12:41:22.999Z</time></trkpt><trkpt lat="45.958225877602466" lon="12.339461934932114"><ele>94.0</ele><time>2026-04-25T12:41:23.999Z</time></trkpt><trkpt lat="45.95816283661848" lon="12.33946275922538"><ele>94.0</ele><time>2026-04-25T12:41:24.999Z</time></trkpt><trkpt lat="45.9580530080945" lon="12.339460342666705"><ele>94.0</ele><time>2026-04-25T12:41:26.999Z</time></trkpt><trkpt lat="45.95797279240919" lon="12.339447967956943"><ele>94.0</ele><time>2026-04-25T12:41:28.998Z</time></trkpt><trkpt lat="45.95789446146594" lon="12.339418574535502"><ele>94.0</ele><time>2026-04-25T12:41:33.998Z</time></trkpt><trkpt lat="45.957818785266554" lon="12.339436156655088"><ele>94.0</ele><time>2026-04-25T12:41:36.998Z</time></trkpt><trkpt lat="45.95774163812469" lon="12.339447761573771"><ele>94.0</ele><time>2026-04-25T12:41:38.998Z</time></trkpt><trkpt lat="45.95765375263176" lon="12.339469120019258"><ele>94.0</ele><time>2026-04-25T12:41:40.998Z</time></trkpt><trkpt lat="45.95755900524188" lon="12.339438374664498"><ele>94.0</ele><time>2026-04-25T12:41:42.998Z</time></trkpt><trkpt lat="45.95747073861147" lon="12.33935792805649"><ele>94.0</ele><time>2026-04-25T12:41:44.998Z</time></trkpt><trkpt lat="45.95739289702897" lon="12.339260527366497"><ele>94.4</ele><time>2026-04-25T12:41:46.998Z</time></trkpt><trkpt lat="45.957315822604585" lon="12.339156816687451"><ele>94.80000000000001</ele><time>2026-04-25T12:41:48.998Z</time></trkpt><trkpt lat="45.95723743546733" lon="12.339054828087384"><ele>95.19999999999999</ele><time>2026-04-25T12:41:50.998Z</time></trkpt><trkpt lat="45.95715489874041" lon="12.338968727343067"><ele>95.6</ele><time>2026-04-25T12:41:52.998Z</time></trkpt><trkpt lat="45.95707640475239" lon="12.33886955418895"><ele>96.0</ele><time>2026-04-25T12:41:54.998Z</time></trkpt><trkpt lat="45.956994279318096" lon="12.33877638198942"><ele>96.0</ele><time>2026-04-25T12:41:56.998Z</time></trkpt><trkpt lat="45.95691220115896" lon="12.338681422242596"><ele>96.0</ele><time>2026-04-25T12:41:58.998Z</time></trkpt><trkpt lat="45.95683655477826" lon="12.338577923383202"><ele>96.0</ele><time>2026-04-25T12:42:00.998Z</time></trkpt><trkpt lat="45.95675985985741" lon="12.338474192627055"><ele>96.0</ele><time>2026-04-25T12:42:02.998Z</time></trkpt><trkpt lat="45.956680437727" lon="12.338377750171096"><ele>96.0</ele><time>2026-04-25T12:42:04.998Z</time></trkpt><trkpt lat="45.95659741754382" lon="12.338286470267867"><ele>96.0</ele><time>2026-04-25T12:42:06.998Z</time></trkpt><trkpt lat="45.95651214244571" lon="12.338190649181962"><ele>96.0</ele><time>2026-04-25T12:42:09Z</time></trkpt><trkpt lat="45.95643619945467" lon="12.33807042524586"><ele>96.0</ele><time>2026-04-25T12:42:11Z</time></trkpt><trkpt lat="45.956333168357276" lon="12.33800231576579"><ele>96.0</ele><time>2026-04-25T12:42:13Z</time></trkpt><trkpt lat="45.95623167826983" lon="12.337928188904947"><ele>96.0</ele><time>2026-04-25T12:42:15Z</time></trkpt><trkpt lat="45.9561235058118" lon="12.337870499764302"><ele>96.25</ele><time>2026-04-25T12:42:17Z</time></trkpt><trkpt lat="45.95601397761123" lon="12.337808988396757"><ele>96.5</ele><time>2026-04-25T12:42:19Z</time></trkpt><trkpt lat="45.955899648644404" lon="12.337759349516544"><ele>96.75</ele><time>2026-04-25T12:42:21Z</time></trkpt><trkpt lat="45.95578710596149" lon="12.337695388582159"><ele>97.0</ele><time>2026-04-25T12:42:23Z</time></trkpt><trkpt lat="45.955671189635524" lon="12.337638864176261"><ele>97.0</ele><time>2026-04-25T12:42:25Z</time></trkpt><trkpt lat="45.95556459396155" lon="12.337581223618773"><ele>97.0</ele><time>2026-04-25T12:42:27Z</time></trkpt><trkpt lat="45.955471061461196" lon="12.337535065462625"><ele>97.0</ele><time>2026-04-25T12:42:29Z</time></trkpt><trkpt lat="45.95540493637719" lon="12.337508270365282"><ele>97.0</ele><time>2026-04-25T12:42:31Z</time></trkpt><trkpt lat="45.95534221321618" lon="12.337652366733026"><ele>97.0</ele><time>2026-04-25T12:42:35Z</time></trkpt><trkpt lat="45.955313944554405" lon="12.337772642530732"><ele>97.0</ele><time>2026-04-25T12:42:37Z</time></trkpt><trkpt lat="45.95525404920397" lon="12.337892653463895"><ele>97.0</ele><time>2026-04-25T12:42:39Z</time></trkpt><trkpt lat="45.955205437484224" lon="12.338021975595339"><ele>97.0</ele><time>2026-04-25T12:42:41Z</time></trkpt><trkpt lat="45.955151871340085" lon="12.338163241512701"><ele>97.0</ele><time>2026-04-25T12:42:43Z</time></trkpt><trkpt lat="45.95509516224681" lon="12.338308810633107"><ele>97.0</ele><time>2026-04-25T12:42:45Z</time></trkpt><trkpt lat="45.95503444788599" lon="12.338457751989603"><ele>96.83333333333334</ele><time>2026-04-25T12:42:47Z</time></trkpt><trkpt lat="45.95497294510006" lon="12.338608776310794"><ele>96.66666666666667</ele><time>2026-04-25T12:42:49Z</time></trkpt><trkpt lat="45.954940845857706" lon="12.338687598206501"><ele>96.5</ele><time>2026-04-25T12:42:50Z</time></trkpt><trkpt lat="45.95490862209639" lon="12.338768584054819"><ele>96.33333333333334</ele><time>2026-04-25T12:42:51Z</time></trkpt><trkpt lat="45.95489132514862" lon="12.338859777507087"><ele>96.16666666666667</ele><time>2026-04-25T12:42:52Z</time></trkpt><trkpt lat="45.95485999091883" lon="12.338943444759481"><ele>96.0</ele><time>2026-04-25T12:42:53Z</time></trkpt><trkpt lat="45.9548139137975" lon="12.339015174800444"><ele>95.99999999999999</ele><time>2026-04-25T12:42:54Z</time></trkpt><trkpt lat="45.95478308429034" lon="12.339099401892835"><ele>96.0</ele><time>2026-04-25T12:42:55Z</time></trkpt><trkpt lat="45.95475239538142" lon="12.339185256288474"><ele>96.0</ele><time>2026-04-25T12:42:56Z</time></trkpt><trkpt lat="45.9547223329076" lon="12.339271668129594"><ele>96.0</ele><time>2026-04-25T12:42:57Z</time></trkpt><trkpt lat="45.9546935002196" lon="12.33935764900526"><ele>96.0</ele><time>2026-04-25T12:42:58Z</time></trkpt><trkpt lat="45.95466547308237" lon="12.339442943957646"><ele>95.99999999999999</ele><time>2026-04-25T12:42:59Z</time></trkpt><trkpt lat="45.95464991727819" lon="12.339540623759087"><ele>96.0</ele><time>2026-04-25T12:42:59.999Z</time></trkpt><trkpt lat="45.9546185006087" lon="12.33962617925904"><ele>96.0</ele><time>2026-04-25T12:43:00.998Z</time></trkpt><trkpt lat="45.954593768158965" lon="12.339712628038638"><ele>96.0</ele><time>2026-04-25T12:43:01.998Z</time></trkpt><trkpt lat="45.95456360665726" lon="12.339801159802965"><ele>96.0</ele><time>2026-04-25T12:43:02.998Z</time></trkpt><trkpt lat="45.95453095947177" lon="12.339886981568347"><ele>96.0</ele><time>2026-04-25T12:43:03.998Z</time></trkpt><trkpt lat="45.9545074499108" lon="12.339976940843462"><ele>96.0</ele><time>2026-04-25T12:43:04.998Z</time></trkpt><trkpt lat="45.954450275139344" lon="12.340137403410997"><ele>96.0</ele><time>2026-04-25T12:43:06.998Z</time></trkpt><trkpt lat="45.95442147205578" lon="12.340304537091336"><ele>95.19999999999999</ele><time>2026-04-25T12:43:08.998Z</time></trkpt><trkpt lat="45.95442628621436" lon="12.340468183469168"><ele>94.39999999999999</ele><time>2026-04-25T12:43:10.998Z</time></trkpt><trkpt lat="45.95439320525337" lon="12.340606301624998"><ele>93.6</ele><time>2026-04-25T12:43:12.998Z</time></trkpt><trkpt lat="45.95437389656296" lon="12.340726889029314"><ele>92.8</ele><time>2026-04-25T12:43:14.998Z</time></trkpt><trkpt lat="45.954394625757935" lon="12.340857875917855"><ele>92.0</ele><time>2026-04-25T12:43:16.998Z</time></trkpt><trkpt lat="45.95432572687388" lon="12.340968771887459"><ele>91.75</ele><time>2026-04-25T12:43:18.998Z</time></trkpt><trkpt lat="45.954268606879666" lon="12.341095673859888"><ele>91.5</ele><time>2026-04-25T12:43:20.998Z</time></trkpt><trkpt lat="45.95420775100207" lon="12.34123576130344"><ele>91.25</ele><time>2026-04-25T12:43:22.998Z</time></trkpt><trkpt lat="45.95415406890244" lon="12.341388930091284"><ele>91.0</ele><time>2026-04-25T12:43:24.998Z</time></trkpt><trkpt lat="45.95408473164593" lon="12.341528281238045"><ele>91.0</ele><time>2026-04-25T12:43:26.998Z</time></trkpt><trkpt lat="45.95401989406488" lon="12.341672516065824"><ele>91.0</ele><time>2026-04-25T12:43:28.998Z</time></trkpt><trkpt lat="45.954009074341414" lon="12.341833748072744"><ele>91.0</ele><time>2026-04-25T12:43:30.998Z</time></trkpt><trkpt lat="45.954066780565284" lon="12.341964646562051"><ele>91.0</ele><time>2026-04-25T12:43:32.998Z</time></trkpt><trkpt lat="45.95414206342277" lon="12.342085959144084"><ele>91.25</ele><time>2026-04-25T12:43:34.998Z</time></trkpt><trkpt lat="45.95420436061037" lon="12.342225293255702"><ele>91.5</ele><time>2026-04-25T12:43:36.998Z</time></trkpt><trkpt lat="45.954241954878455" lon="12.342379522614626"><ele>91.75</ele><time>2026-04-25T12:43:38.998Z</time></trkpt><trkpt lat="45.95425874752078" lon="12.342516637898507"><ele>92.0</ele><time>2026-04-25T12:43:40.998Z</time></trkpt><trkpt lat="45.954166874598585" lon="12.342639833320119"><ele>92.0</ele><time>2026-04-25T12:43:43.998Z</time></trkpt><trkpt lat="45.95408555835548" lon="12.34265777901161"><ele>92.0</ele><time>2026-04-25T12:43:45.997Z</time></trkpt><trkpt lat="45.95399147286848" lon="12.342682008375805"><ele>92.0</ele><time>2026-04-25T12:43:47.997Z</time></trkpt><trkpt lat="45.95389694770275" lon="12.342700774951496"><ele>92.0</ele><time>2026-04-25T12:43:49.997Z</time></trkpt><trkpt lat="45.95379824294946" lon="12.342718457251966"><ele>92.0</ele><time>2026-04-25T12:43:51.997Z</time></trkpt><trkpt lat="45.95370154799035" lon="12.342735772051645"><ele>92.0</ele><time>2026-04-25T12:43:53.997Z</time></trkpt><trkpt lat="45.95360213045876" lon="12.342757023762152"><ele>92.0</ele><time>2026-04-25T12:43:55.997Z</time></trkpt><trkpt lat="45.95351296807269" lon="12.342776080411683"><ele>92.0</ele><time>2026-04-25T12:43:57.997Z</time></trkpt><trkpt lat="45.95341911650421" lon="12.342796144465497"><ele>92.0</ele><time>2026-04-25T12:43:59.997Z</time></trkpt><trkpt lat="45.95332843881608" lon="12.342813436896714"><ele>92.0</ele><time>2026-04-25T12:44:01.997Z</time></trkpt><trkpt lat="45.953234531440465" lon="12.342830123703145"><ele>92.39999999999999</ele><time>2026-04-25T12:44:03.997Z</time></trkpt><trkpt lat="45.95314194001099" lon="12.342846354123456"><ele>92.8</ele><time>2026-04-25T12:44:05.997Z</time></trkpt><trkpt lat="45.953051298700586" lon="12.342862242702774"><ele>93.2</ele><time>2026-04-25T12:44:07.997Z</time></trkpt><trkpt lat="45.95295849825493" lon="12.342878147462242"><ele>93.6</ele><time>2026-04-25T12:44:09.997Z</time></trkpt><trkpt lat="45.952869657662895" lon="12.342890363452565"><ele>94.0</ele><time>2026-04-25T12:44:11.997Z</time></trkpt><trkpt lat="45.95277994324852" lon="12.342898642321101"><ele>94.0</ele><time>2026-04-25T12:44:14Z</time></trkpt><trkpt lat="45.95271331127056" lon="12.342891767661753"><ele>94.0</ele><time>2026-04-25T12:44:16Z</time></trkpt><trkpt lat="45.95262578862933" lon="12.342864984067427"><ele>94.0</ele><time>2026-04-25T12:44:18Z</time></trkpt><trkpt lat="45.952537661331085" lon="12.342828375291548"><ele>94.0</ele><time>2026-04-25T12:44:20Z</time></trkpt><trkpt lat="45.95244269891499" lon="12.342794533440877"><ele>94.0</ele><time>2026-04-25T12:44:22Z</time></trkpt><trkpt lat="45.952354630301265" lon="12.342765414476416"><ele>94.0</ele><time>2026-04-25T12:44:24Z</time></trkpt><trkpt lat="45.9522688853909" lon="12.342732529046618"><ele>93.80000000000001</ele><time>2026-04-25T12:44:26Z</time></trkpt><trkpt lat="45.95217404171728" lon="12.34270856565701"><ele>93.60000000000001</ele><time>2026-04-25T12:44:28Z</time></trkpt><trkpt lat="45.95208230077141" lon="12.342661907186498"><ele>93.4</ele><time>2026-04-25T12:44:30Z</time></trkpt><trkpt lat="45.95199145697256" lon="12.342608237232081"><ele>93.2</ele><time>2026-04-25T12:44:32Z</time></trkpt><trkpt lat="45.9519002812419" lon="12.342542281073213"><ele>93.0</ele><time>2026-04-25T12:44:34Z</time></trkpt><trkpt lat="45.95181492060871" lon="12.342469229983037"><ele>93.0</ele><time>2026-04-25T12:44:35.999Z</time></trkpt><trkpt lat="45.95172514461044" lon="12.342398718802007"><ele>93.0</ele><time>2026-04-25T12:44:37.999Z</time></trkpt><trkpt lat="45.951656248044465" lon="12.34231457897682"><ele>93.0</ele><time>2026-04-25T12:44:39.999Z</time></trkpt><trkpt lat="45.951577059372674" lon="12.342245248410281"><ele>93.0</ele><time>2026-04-25T12:44:41.999Z</time></trkpt><trkpt lat="45.951492181308126" lon="12.3421759162519"><ele>93.0</ele><time>2026-04-25T12:44:43.999Z</time></trkpt><trkpt lat="45.951410194246215" lon="12.34211144751602"><ele>93.0</ele><time>2026-04-25T12:44:45.999Z</time></trkpt><trkpt lat="45.95132384915582" lon="12.3420435519601"><ele>93.0</ele><time>2026-04-25T12:44:47.999Z</time></trkpt><trkpt lat="45.951233390661926" lon="12.34197272052008"><ele>93.0</ele><time>2026-04-25T12:44:49.999Z</time></trkpt><trkpt lat="45.951150254118545" lon="12.341912136353756"><ele>93.0</ele><time>2026-04-25T12:44:51.999Z</time></trkpt><trkpt lat="45.951067724288414" lon="12.341860419962334"><ele>93.0</ele><time>2026-04-25T12:44:53.999Z</time></trkpt><trkpt lat="45.95098644800212" lon="12.341814221255769"><ele>93.0</ele><time>2026-04-25T12:44:55.999Z</time></trkpt><trkpt lat="45.95090315269738" lon="12.341793175995045"><ele>93.0</ele><time>2026-04-25T12:44:57.999Z</time></trkpt><trkpt lat="45.950831409497034" lon="12.341811184729025"><ele>93.0</ele><time>2026-04-25T12:44:59.999Z</time></trkpt><trkpt lat="45.950745078970705" lon="12.3418202226334"><ele>93.0</ele><time>2026-04-25T12:45:02.999Z</time></trkpt><trkpt lat="45.95067086182381" lon="12.341821219007167"><ele>93.0</ele><time>2026-04-25T12:45:05.999Z</time></trkpt><trkpt lat="45.95059612853912" lon="12.341812049654719"><ele>93.0</ele><time>2026-04-25T12:45:08.999Z</time></trkpt><trkpt lat="45.950510785578054" lon="12.341789505636447"><ele>93.5</ele><time>2026-04-25T12:45:12.999Z</time></trkpt><trkpt lat="45.95042791673569" lon="12.34175761222345"><ele>94.0</ele><time>2026-04-25T12:45:16.999Z</time></trkpt><trkpt lat="45.9503654082271" lon="12.341727090253926"><ele>94.5</ele><time>2026-04-25T12:45:19.999Z</time></trkpt><trkpt lat="45.950301030101535" lon="12.341687040133209"><ele>95.0</ele><time>2026-04-25T12:45:22.998Z</time></trkpt><trkpt lat="45.95022099535359" lon="12.341610328259915"><ele>95.5</ele><time>2026-04-25T12:45:25.998Z</time></trkpt><trkpt lat="45.95014913377346" lon="12.341546408602383"><ele>96.0</ele><time>2026-04-25T12:45:27.998Z</time></trkpt><trkpt lat="45.950070713544655" lon="12.341481601225304"><ele>96.19999999999999</ele><time>2026-04-25T12:45:29.998Z</time></trkpt><trkpt lat="45.94998765536134" lon="12.341420112201996"><ele>96.39999999999999</ele><time>2026-04-25T12:45:31.998Z</time></trkpt><trkpt lat="45.94989560148684" lon="12.341367354442266"><ele>96.6</ele><time>2026-04-25T12:45:33.998Z</time></trkpt><trkpt lat="45.94979984030037" lon="12.341328295860395"><ele>96.8</ele><time>2026-04-25T12:45:35.998Z</time></trkpt><trkpt lat="45.94969877372778" lon="12.341301676899365"><ele>97.0</ele><time>2026-04-25T12:45:37.998Z</time></trkpt><trkpt lat="45.94959565010564" lon="12.341300573206242"><ele>97.0</ele><time>2026-04-25T12:45:39.998Z</time></trkpt><trkpt lat="45.94949765508615" lon="12.341310732643107"><ele>97.0</ele><time>2026-04-25T12:45:41.998Z</time></trkpt><trkpt lat="45.94940116948222" lon="12.341315590906857"><ele>97.0</ele><time>2026-04-25T12:45:43.998Z</time></trkpt><trkpt lat="45.94930773093896" lon="12.341306774779872"><ele>97.0</ele><time>2026-04-25T12:45:45.998Z</time></trkpt><trkpt lat="45.949219112905546" lon="12.341287987876802"><ele>97.0</ele><time>2026-04-25T12:45:47.998Z</time></trkpt><trkpt lat="45.94913268804864" lon="12.341257860310925"><ele>97.50000000000001</ele><time>2026-04-25T12:45:49.998Z</time></trkpt><trkpt lat="45.949049625029446" lon="12.341223588253845"><ele>98.0</ele><time>2026-04-25T12:45:51.998Z</time></trkpt><trkpt lat="45.94897706175211" lon="12.341192048277671"><ele>98.5</ele><time>2026-04-25T12:45:53.998Z</time></trkpt><trkpt lat="45.94890663813375" lon="12.341177703255605"><ele>99.0</ele><time>2026-04-25T12:45:55.998Z</time></trkpt><trkpt lat="45.94884535074024" lon="12.341142278563378"><ele>99.50000000000001</ele><time>2026-04-25T12:45:57.998Z</time></trkpt><trkpt lat="45.948750709358684" lon="12.341100463518167"><ele>100.0</ele><time>2026-04-25T12:46:00.998Z</time></trkpt><trkpt lat="45.94867060445841" lon="12.341047740598224"><ele>100.00000000000001</ele><time>2026-04-25T12:46:02.998Z</time></trkpt><trkpt lat="45.94860205887372" lon="12.34101443657263"><ele>100.0</ele><time>2026-04-25T12:46:04.998Z</time></trkpt><trkpt lat="45.948542170744275" lon="12.341145270143066"><ele>100.0</ele><time>2026-04-25T12:46:05.998Z</time></trkpt><trkpt lat="45.94847328966302" lon="12.34121195822145"><ele>100.0</ele><time>2026-04-25T12:46:07.997Z</time></trkpt><trkpt lat="45.948404812863735" lon="12.341272214422066"><ele>100.00000000000001</ele><time>2026-04-25T12:46:09.997Z</time></trkpt><trkpt lat="45.948340630527035" lon="12.341333791098634"><ele>100.0</ele><time>2026-04-25T12:46:11.997Z</time></trkpt><trkpt lat="45.94827792530106" lon="12.34139809437439"><ele>101.66666666666667</ele><time>2026-04-25T12:46:13.997Z</time></trkpt><trkpt lat="45.948217052156714" lon="12.341455738211616"><ele>103.33333333333334</ele><time>2026-04-25T12:46:15.997Z</time></trkpt><trkpt lat="45.948164786894914" lon="12.341519436795942"><ele>105.0</ele><time>2026-04-25T12:46:17.997Z</time></trkpt><trkpt lat="45.94810865675899" lon="12.341570366742296"><ele>106.66666666666666</ele><time>2026-04-25T12:46:20Z</time></trkpt><trkpt lat="45.948036389978775" lon="12.341647036242678"><ele>108.33333333333333</ele><time>2026-04-25T12:46:23Z</time></trkpt><trkpt lat="45.947967153312696" lon="12.34170879312179"><ele>110.0</ele><time>2026-04-25T12:46:26Z</time></trkpt><trkpt lat="45.947908499478494" lon="12.341767009281925"><ele>109.99999999999999</ele><time>2026-04-25T12:46:29Z</time></trkpt><trkpt lat="45.94785041555189" lon="12.341816939791189"><ele>110.0</ele><time>2026-04-25T12:46:32Z</time></trkpt><trkpt lat="45.94779510632557" lon="12.34186792988301"><ele>110.0</ele><time>2026-04-25T12:46:35Z</time></trkpt><trkpt lat="45.94773670171822" lon="12.341944253890466"><ele>110.0</ele><time>2026-04-25T12:46:39Z</time></trkpt><trkpt lat="45.94767327044039" lon="12.342006327553293"><ele>110.0</ele><time>2026-04-25T12:46:43Z</time></trkpt><trkpt lat="45.94760912014554" lon="12.342071346038992"><ele>109.99999999999999</ele><time>2026-04-25T12:46:47Z</time></trkpt><trkpt lat="45.94754074965541" lon="12.34213500982818"><ele>110.0</ele><time>2026-04-25T12:46:51Z</time></trkpt><trkpt lat="45.94748479027215" lon="12.34218553109787"><ele>110.42857142857142</ele><time>2026-04-25T12:46:53.999Z</time></trkpt><trkpt lat="45.94743014842333" lon="12.342246177863437"><ele>110.85714285714286</ele><time>2026-04-25T12:46:56.999Z</time></trkpt><trkpt lat="45.94735703105925" lon="12.342300448890848"><ele>111.28571428571428</ele><time>2026-04-25T12:46:59.999Z</time></trkpt><trkpt lat="45.94727675287204" lon="12.342363173496565"><ele>111.71428571428571</ele><time>2026-04-25T12:47:02.999Z</time></trkpt><trkpt lat="45.9472182468117" lon="12.342410413665375"><ele>112.14285714285714</ele><time>2026-04-25T12:47:04.999Z</time></trkpt><trkpt lat="45.947156031911085" lon="12.342442052510332"><ele>112.57142857142857</ele><time>2026-04-25T12:47:06.999Z</time></trkpt><trkpt lat="45.94709660729447" lon="12.342477594466212"><ele>113.0</ele><time>2026-04-25T12:47:08.999Z</time></trkpt><trkpt lat="45.94703356466713" lon="12.342504709835397"><ele>113.0</ele><time>2026-04-25T12:47:10.999Z</time></trkpt><trkpt lat="45.94696415511334" lon="12.342531826793236"><ele>113.0</ele><time>2026-04-25T12:47:12.999Z</time></trkpt><trkpt lat="45.94689474020353" lon="12.342514298669753"><ele>113.0</ele><time>2026-04-25T12:47:14.999Z</time></trkpt><trkpt lat="45.94683503502753" lon="12.342478466876257"><ele>113.0</ele><time>2026-04-25T12:47:16.999Z</time></trkpt><trkpt lat="45.94677734693728" lon="12.342440180556133"><ele>113.0</ele><time>2026-04-25T12:47:18.999Z</time></trkpt><trkpt lat="45.94668570838105" lon="12.342400174842677"><ele>113.0</ele><time>2026-04-25T12:47:21.999Z</time></trkpt><trkpt lat="45.94661106846086" lon="12.342384245388818"><ele>113.0</ele><time>2026-04-25T12:47:23.999Z</time></trkpt><trkpt lat="45.94652887076332" lon="12.342355419678587"><ele>113.2</ele><time>2026-04-25T12:47:25.999Z</time></trkpt><trkpt lat="45.94644154811946" lon="12.342303986028961"><ele>113.4</ele><time>2026-04-25T12:47:27.999Z</time></trkpt><trkpt lat="45.946367933837486" lon="12.34220797564125"><ele>113.60000000000001</ele><time>2026-04-25T12:47:29.999Z</time></trkpt><trkpt lat="45.946298343335144" lon="12.342099914764885"><ele>113.80000000000001</ele><time>2026-04-25T12:47:31.999Z</time></trkpt><trkpt lat="45.94621633139642" lon="12.342016439914056"><ele>114.0</ele><time>2026-04-25T12:47:33.999Z</time></trkpt><trkpt lat="45.94612753539721" lon="12.34195380076321"><ele>114.0</ele><time>2026-04-25T12:47:35.999Z</time></trkpt><trkpt lat="45.9460225509613" lon="12.341921665527245"><ele>114.0</ele><time>2026-04-25T12:47:37.999Z</time></trkpt><trkpt lat="45.94591234004614" lon="12.341923983032473"><ele>114.0</ele><time>2026-04-25T12:47:39.998Z</time></trkpt><trkpt lat="45.94580087079948" lon="12.341912678622439"><ele>114.0</ele><time>2026-04-25T12:47:41.998Z</time></trkpt><trkpt lat="45.94568924162079" lon="12.341900160757874"><ele>114.0</ele><time>2026-04-25T12:47:43.998Z</time></trkpt><trkpt lat="45.945578323632226" lon="12.341884582598933"><ele>114.2</ele><time>2026-04-25T12:47:45.998Z</time></trkpt><trkpt lat="45.94546783088431" lon="12.341850840812244"><ele>114.4</ele><time>2026-04-25T12:47:47.998Z</time></trkpt><trkpt lat="45.94535360546661" lon="12.341844892711844"><ele>114.6</ele><time>2026-04-25T12:47:49.998Z</time></trkpt><trkpt lat="45.94524183993597" lon="12.34182348365218"><ele>114.8</ele><time>2026-04-25T12:47:51.998Z</time></trkpt><trkpt lat="45.9451359729617" lon="12.34179116910671"><ele>115.0</ele><time>2026-04-25T12:47:53.998Z</time></trkpt><trkpt lat="45.94503172705967" lon="12.34178265122484"><ele>115.16666666666667</ele><time>2026-04-25T12:47:55.998Z</time></trkpt><trkpt lat="45.944933722978476" lon="12.341768872026488"><ele>115.33333333333334</ele><time>2026-04-25T12:47:57.998Z</time></trkpt><trkpt lat="45.94483688657443" lon="12.34176939148977"><ele>115.5</ele><time>2026-04-25T12:47:59.998Z</time></trkpt><trkpt lat="45.94475252964975" lon="12.341791996118385"><ele>115.66666666666666</ele><time>2026-04-25T12:48:01.998Z</time></trkpt><trkpt lat="45.94467935006447" lon="12.341835892520985"><ele>115.83333333333333</ele><time>2026-04-25T12:48:03.998Z</time></trkpt><trkpt lat="45.94461612111415" lon="12.341881050799806"><ele>116.0</ele><time>2026-04-25T12:48:05.998Z</time></trkpt><trkpt lat="45.94455847705017" lon="12.34192514365288"><ele>115.99999999999999</ele><time>2026-04-25T12:48:07.998Z</time></trkpt><trkpt lat="45.94447870639283" lon="12.341990111362097"><ele>116.0</ele><time>2026-04-25T12:48:10.998Z</time></trkpt><trkpt lat="45.9444234488026" lon="12.342034074816247"><ele>116.0</ele><time>2026-04-25T12:48:12.998Z</time></trkpt><trkpt lat="45.94435618149495" lon="12.342101717595755"><ele>116.0</ele><time>2026-04-25T12:48:15.998Z</time></trkpt><trkpt lat="45.94428587450896" lon="12.3421464600246"><ele>115.99999999999999</ele><time>2026-04-25T12:48:18.998Z</time></trkpt><trkpt lat="45.944214721800904" lon="12.34219835986034"><ele>116.0</ele><time>2026-04-25T12:48:21.998Z</time></trkpt><trkpt lat="45.944142672554385" lon="12.34226912728525"><ele>117.00000000000001</ele><time>2026-04-25T12:48:24.997Z</time></trkpt><trkpt lat="45.944066536888315" lon="12.34233200035739"><ele>118.0</ele><time>2026-04-25T12:48:28Z</time></trkpt><trkpt lat="45.94400979605421" lon="12.342378899130335"><ele>119.00000000000001</ele><time>2026-04-25T12:48:30Z</time></trkpt><trkpt lat="45.94395697956432" lon="12.342431578531736"><ele>120.00000000000001</ele><time>2026-04-25T12:48:32Z</time></trkpt><trkpt lat="45.94390349185858" lon="12.342484214143651"><ele>121.0</ele><time>2026-04-25T12:48:34Z</time></trkpt><trkpt lat="45.943846229421595" lon="12.34253228219981"><ele>122.00000000000001</ele><time>2026-04-25T12:48:36Z</time></trkpt><trkpt lat="45.943785146821575" lon="12.342576830401672"><ele>123.00000000000001</ele><time>2026-04-25T12:48:38Z</time></trkpt><trkpt lat="45.9437261252714" lon="12.342632363407565"><ele>123.0</ele><time>2026-04-25T12:48:40Z</time></trkpt><trkpt lat="45.9436619558096" lon="12.342678289229434"><ele>123.0</ele><time>2026-04-25T12:48:42Z</time></trkpt><trkpt lat="45.943599848666835" lon="12.342726579897212"><ele>123.0</ele><time>2026-04-25T12:48:44Z</time></trkpt><trkpt lat="45.94351497190167" lon="12.342785531044003"><ele>123.0</ele><time>2026-04-25T12:48:47Z</time></trkpt><trkpt lat="45.943459251880626" lon="12.342828929051668"><ele>123.0</ele><time>2026-04-25T12:48:49Z</time></trkpt><trkpt lat="45.94336874513519" lon="12.34286284290017"><ele>123.0</ele><time>2026-04-25T12:48:52Z</time></trkpt><trkpt lat="45.943282724862854" lon="12.342895379689354"><ele>123.5</ele><time>2026-04-25T12:48:55Z</time></trkpt><trkpt lat="45.94320349456177" lon="12.342893699220006"><ele>124.0</ele><time>2026-04-25T12:48:58Z</time></trkpt><trkpt lat="45.943133144681155" lon="12.342830809816752"><ele>124.5</ele><time>2026-04-25T12:49:01Z</time></trkpt><trkpt lat="45.94308564939437" lon="12.342741946882944"><ele>125.0</ele><time>2026-04-25T12:49:04Z</time></trkpt><trkpt lat="45.94304653083632" lon="12.342633708943739"><ele>125.5</ele><time>2026-04-25T12:49:07Z</time></trkpt><trkpt lat="45.94300177056421" lon="12.342569920934574"><ele>126.0</ele><time>2026-04-25T12:49:09Z</time></trkpt><trkpt lat="45.94294671660271" lon="12.34251069449755"><ele>126.0</ele><time>2026-04-25T12:49:10.999Z</time></trkpt><trkpt lat="45.9428803590287" lon="12.342478812015663"><ele>126.0</ele><time>2026-04-25T12:49:12.999Z</time></trkpt><trkpt lat="45.94281521450925" lon="12.342550334074335"><ele>126.0</ele><time>2026-04-25T12:49:14.999Z</time></trkpt><trkpt lat="45.94275491650808" lon="12.342627608466351"><ele>126.0</ele><time>2026-04-25T12:49:16.999Z</time></trkpt><trkpt lat="45.94269080993924" lon="12.34270577157976"><ele>126.0</ele><time>2026-04-25T12:49:18.999Z</time></trkpt><trkpt lat="45.94263030333458" lon="12.342793493964358"><ele>126.0</ele><time>2026-04-25T12:49:20.999Z</time></trkpt><trkpt lat="45.94254935339024" lon="12.34286929569119"><ele>126.6</ele><time>2026-04-25T12:49:22.999Z</time></trkpt><trkpt lat="45.94244828725512" lon="12.34289745525543"><ele>127.19999999999999</ele><time>2026-04-25T12:49:24.999Z</time></trkpt><trkpt lat="45.942361705244586" lon="12.342800227929503"><ele>127.80000000000001</ele><time>2026-04-25T12:49:26.999Z</time></trkpt><trkpt lat="45.942298189270424" lon="12.342686525376172"><ele>128.4</ele><time>2026-04-25T12:49:28.999Z</time></trkpt><trkpt lat="45.94222372899873" lon="12.342578524303972"><ele>129.0</ele><time>2026-04-25T12:49:30.999Z</time></trkpt><trkpt lat="45.942154655384094" lon="12.342465708825141"><ele>129.0</ele><time>2026-04-25T12:49:32.999Z</time></trkpt><trkpt lat="45.94207816848829" lon="12.342357660194068"><ele>129.0</ele><time>2026-04-25T12:49:34.999Z</time></trkpt><trkpt lat="45.94199957818497" lon="12.3422554894516"><ele>129.0</ele><time>2026-04-25T12:49:36.999Z</time></trkpt><trkpt lat="45.941926096205265" lon="12.34213974380606"><ele>129.0</ele><time>2026-04-25T12:49:38.999Z</time></trkpt><trkpt lat="45.94185130544483" lon="12.342029717133027"><ele>129.0</ele><time>2026-04-25T12:49:40.999Z</time></trkpt><trkpt lat="45.94177974937651" lon="12.341905820954933"><ele>128.8</ele><time>2026-04-25T12:49:42.999Z</time></trkpt><trkpt lat="45.94170470792276" lon="12.341788795096994"><ele>128.60000000000002</ele><time>2026-04-25T12:49:44.999Z</time></trkpt><trkpt lat="45.94162484373144" lon="12.341675056463195"><ele>128.4</ele><time>2026-04-25T12:49:46.999Z</time></trkpt><trkpt lat="45.94154901712899" lon="12.341560008520393"><ele>128.20000000000002</ele><time>2026-04-25T12:49:48.999Z</time></trkpt><trkpt lat="45.9414738092406" lon="12.341439728518264"><ele>128.0</ele><time>2026-04-25T12:49:50.999Z</time></trkpt><trkpt lat="45.941394289455886" lon="12.341322100125247"><ele>127.4</ele><time>2026-04-25T12:49:52.999Z</time></trkpt><trkpt lat="45.94131703536249" lon="12.341209560609741"><ele>126.80000000000001</ele><time>2026-04-25T12:49:54.999Z</time></trkpt><trkpt lat="45.941247374373816" lon="12.341099735001068"><ele>126.2</ele><time>2026-04-25T12:49:56.998Z</time></trkpt><trkpt lat="45.94117711373803" lon="12.3409910056981"><ele>125.6</ele><time>2026-04-25T12:49:58.998Z</time></trkpt><trkpt lat="45.94110470001294" lon="12.34088569303039"><ele>125.0</ele><time>2026-04-25T12:50:00.998Z</time></trkpt><trkpt lat="45.94102440922615" lon="12.340780720613743"><ele>125.0</ele><time>2026-04-25T12:50:02.998Z</time></trkpt><trkpt lat="45.94093614841989" lon="12.340683621202832"><ele>125.0</ele><time>2026-04-25T12:50:04.998Z</time></trkpt><trkpt lat="45.94083973979577" lon="12.34060770692544"><ele>125.0</ele><time>2026-04-25T12:50:06.998Z</time></trkpt><trkpt lat="45.940744859149596" lon="12.340534178222295"><ele>125.0</ele><time>2026-04-25T12:50:08.998Z</time></trkpt><trkpt lat="45.94065233720217" lon="12.340453240832275"><ele>125.0</ele><time>2026-04-25T12:50:10.998Z</time></trkpt><trkpt lat="45.94056680293675" lon="12.340360484892859"><ele>125.4</ele><time>2026-04-25T12:50:12.998Z</time></trkpt><trkpt lat="45.94048198070137" lon="12.34028745526132"><ele>125.8</ele><time>2026-04-25T12:50:14.998Z</time></trkpt><trkpt lat="45.94039502950569" lon="12.340215272996256"><ele>126.19999999999999</ele><time>2026-04-25T12:50:16.998Z</time></trkpt><trkpt lat="45.94030321517862" lon="12.340143281129347"><ele>126.6</ele><time>2026-04-25T12:50:18.998Z</time></trkpt><trkpt lat="45.940200302303595" lon="12.34010981823283"><ele>127.0</ele><time>2026-04-25T12:50:20.998Z</time></trkpt><trkpt lat="45.940097655431146" lon="12.340076916849839"><ele>127.19999999999999</ele><time>2026-04-25T12:50:22.998Z</time></trkpt><trkpt lat="45.940002845818626" lon="12.340020404727738"><ele>127.39999999999999</ele><time>2026-04-25T12:50:24.998Z</time></trkpt><trkpt lat="45.939890574677534" lon="12.340048865108185"><ele>127.60000000000001</ele><time>2026-04-25T12:50:26.998Z</time></trkpt><trkpt lat="45.93978775763475" lon="12.340055509227119"><ele>127.80000000000001</ele><time>2026-04-25T12:50:28.998Z</time></trkpt><trkpt lat="45.93968345107749" lon="12.34008251899444"><ele>128.0</ele><time>2026-04-25T12:50:30.998Z</time></trkpt><trkpt lat="45.93958042553106" lon="12.340119934053797"><ele>128.0</ele><time>2026-04-25T12:50:33Z</time></trkpt><trkpt lat="45.93948525498853" lon="12.340175843774686"><ele>128.0</ele><time>2026-04-25T12:50:35Z</time></trkpt><trkpt lat="45.939389714734006" lon="12.340231129928979"><ele>128.0</ele><time>2026-04-25T12:50:37Z</time></trkpt><trkpt lat="45.93929860336286" lon="12.340289047029614"><ele>128.0</ele><time>2026-04-25T12:50:39Z</time></trkpt><trkpt lat="45.939211175292336" lon="12.34034718866296"><ele>128.0</ele><time>2026-04-25T12:50:41Z</time></trkpt><trkpt lat="45.93913441497811" lon="12.340396226736846"><ele>127.99999999999999</ele><time>2026-04-25T12:50:43Z</time></trkpt><trkpt lat="45.93906291695133" lon="12.340453872537402"><ele>128.0</ele><time>2026-04-25T12:50:45Z</time></trkpt><trkpt lat="45.93900898635842" lon="12.340534604143954"><ele>128.0</ele><time>2026-04-25T12:50:47Z</time></trkpt><trkpt lat="45.9389682724008" lon="12.340628542085541"><ele>128.0</ele><time>2026-04-25T12:50:49Z</time></trkpt><trkpt lat="45.938950552560044" lon="12.340745739519013"><ele>127.99999999999999</ele><time>2026-04-25T12:50:51Z</time></trkpt><trkpt lat="45.938934701063694" lon="12.340879702794739"><ele>128.0</ele><time>2026-04-25T12:50:52.999Z</time></trkpt><trkpt lat="45.938914100354076" lon="12.341025201189334"><ele>128.5</ele><time>2026-04-25T12:50:54.999Z</time></trkpt><trkpt lat="45.93887037136296" lon="12.341192693399606"><ele>129.0</ele><time>2026-04-25T12:50:56.999Z</time></trkpt><trkpt lat="45.93887075727408" lon="12.341295446969625"><ele>129.5</ele><time>2026-04-25T12:50:57.999Z</time></trkpt><trkpt lat="45.938838531513696" lon="12.341392721593305"><ele>130.0</ele><time>2026-04-25T12:50:58.999Z</time></trkpt><trkpt lat="45.93883837855387" lon="12.341506971138248"><ele>130.5</ele><time>2026-04-25T12:50:59.999Z</time></trkpt><trkpt lat="45.93880979531058" lon="12.341620774782545"><ele>131.0</ele><time>2026-04-25T12:51:00.999Z</time></trkpt><trkpt lat="45.93879811534116" lon="12.341743968976095"><ele>131.0</ele><time>2026-04-25T12:51:01.999Z</time></trkpt><trkpt lat="45.9387877192788" lon="12.341871264671013"><ele>131.0</ele><time>2026-04-25T12:51:02.999Z</time></trkpt><trkpt lat="45.93877826085548" lon="12.342004443517103"><ele>131.0</ele><time>2026-04-25T12:51:03.999Z</time></trkpt><trkpt lat="45.93876842066038" lon="12.342142998222915"><ele>131.0</ele><time>2026-04-25T12:51:04.999Z</time></trkpt><trkpt lat="45.93875835711497" lon="12.34228469496211"><ele>131.0</ele><time>2026-04-25T12:51:05.999Z</time></trkpt><trkpt lat="45.93874865940246" lon="12.342431125151213"><ele>129.2</ele><time>2026-04-25T12:51:06.999Z</time></trkpt><trkpt lat="45.93873851192603" lon="12.342581282770798"><ele>127.39999999999999</ele><time>2026-04-25T12:51:07.999Z</time></trkpt><trkpt lat="45.938727438190526" lon="12.342733294826234"><ele>125.6</ele><time>2026-04-25T12:51:08.999Z</time></trkpt><trkpt lat="45.938716146617075" lon="12.342887992809391"><ele>123.8</ele><time>2026-04-25T12:51:09.999Z</time></trkpt><trkpt lat="45.938704957357736" lon="12.343041544067638"><ele>122.0</ele><time>2026-04-25T12:51:10.999Z</time></trkpt><trkpt lat="45.93869400279798" lon="12.343193016705149"><ele>121.19999999999999</ele><time>2026-04-25T12:51:11.999Z</time></trkpt><trkpt lat="45.938682595627135" lon="12.343344975508431"><ele>120.39999999999999</ele><time>2026-04-25T12:51:12.999Z</time></trkpt><trkpt lat="45.938669741878385" lon="12.343488230175476"><ele>119.60000000000001</ele><time>2026-04-25T12:51:13.999Z</time></trkpt><trkpt lat="45.93865410089373" lon="12.34362403623614"><ele>118.80000000000001</ele><time>2026-04-25T12:51:14.999Z</time></trkpt><trkpt lat="45.93863168817916" lon="12.343743054985183"><ele>118.0</ele><time>2026-04-25T12:51:15.999Z</time></trkpt><trkpt lat="45.93859873947836" lon="12.34384822500072"><ele>118.00000000000001</ele><time>2026-04-25T12:51:16.999Z</time></trkpt><trkpt lat="45.93855412220612" lon="12.343933466775933"><ele>118.0</ele><time>2026-04-25T12:51:17.999Z</time></trkpt><trkpt lat="45.93850289207707" lon="12.344026543853209"><ele>118.0</ele><time>2026-04-25T12:51:18.999Z</time></trkpt><trkpt lat="45.93845854802567" lon="12.344121429574177"><ele>118.0</ele><time>2026-04-25T12:51:19.999Z</time></trkpt><trkpt lat="45.93841629714502" lon="12.344220241592286"><ele>118.00000000000001</ele><time>2026-04-25T12:51:20.999Z</time></trkpt><trkpt lat="45.93838343256142" lon="12.34433202926683"><ele>118.0</ele><time>2026-04-25T12:51:21.999Z</time></trkpt><trkpt lat="45.93837662247907" lon="12.34446374702668"><ele>118.2</ele><time>2026-04-25T12:51:22.999Z</time></trkpt><trkpt lat="45.9383748473431" lon="12.344590240323372"><ele>118.4</ele><time>2026-04-25T12:51:23.999Z</time></trkpt><trkpt lat="45.938402256569084" lon="12.34471696297395"><ele>118.60000000000001</ele><time>2026-04-25T12:51:24.999Z</time></trkpt><trkpt lat="45.93842234454704" lon="12.344843584145828"><ele>118.80000000000001</ele><time>2026-04-25T12:51:25.999Z</time></trkpt><trkpt lat="45.93845626562933" lon="12.344967621346429"><ele>119.0</ele><time>2026-04-25T12:51:26.999Z</time></trkpt><trkpt lat="45.938484391790446" lon="12.345087570250167"><ele>118.4</ele><time>2026-04-25T12:51:27.999Z</time></trkpt><trkpt lat="45.9385126464014" lon="12.345211868419625"><ele>117.80000000000001</ele><time>2026-04-25T12:51:28.998Z</time></trkpt><trkpt lat="45.938538410007645" lon="12.34533938777601"><ele>117.19999999999999</ele><time>2026-04-25T12:51:29.998Z</time></trkpt><trkpt lat="45.93854779060331" lon="12.345473574844656"><ele>116.6</ele><time>2026-04-25T12:51:30.998Z</time></trkpt><trkpt lat="45.938579331218044" lon="12.345600742658164"><ele>116.0</ele><time>2026-04-25T12:51:31.998Z</time></trkpt><trkpt lat="45.93858005102103" lon="12.345734695199958"><ele>115.8</ele><time>2026-04-25T12:51:32.998Z</time></trkpt><trkpt lat="45.9385440863814" lon="12.345866051210862"><ele>115.6</ele><time>2026-04-25T12:51:33.998Z</time></trkpt><trkpt lat="45.93850827854101" lon="12.345993921624714"><ele>115.4</ele><time>2026-04-25T12:51:34.998Z</time></trkpt><trkpt lat="45.9384692171236" lon="12.34612067700911"><ele>115.2</ele><time>2026-04-25T12:51:35.998Z</time></trkpt><trkpt lat="45.938422959134904" lon="12.346245642508379"><ele>115.0</ele><time>2026-04-25T12:51:36.998Z</time></trkpt><trkpt lat="45.93837431521413" lon="12.34637464796009"><ele>113.8</ele><time>2026-04-25T12:51:37.998Z</time></trkpt><trkpt lat="45.93832488207834" lon="12.346503295144732"><ele>112.6</ele><time>2026-04-25T12:51:38.998Z</time></trkpt><trkpt lat="45.938273627004975" lon="12.346636683965745"><ele>111.4</ele><time>2026-04-25T12:51:39.998Z</time></trkpt><trkpt lat="45.93822218029755" lon="12.346770571182493"><ele>110.2</ele><time>2026-04-25T12:51:40.998Z</time></trkpt><trkpt lat="45.93817114280465" lon="12.346903393591962"><ele>109.0</ele><time>2026-04-25T12:51:41.998Z</time></trkpt><trkpt lat="45.938120290294975" lon="12.347035734651877"><ele>109.0</ele><time>2026-04-25T12:51:42.998Z</time></trkpt><trkpt lat="45.938067844397885" lon="12.347172222707739"><ele>109.0</ele><time>2026-04-25T12:51:43.998Z</time></trkpt><trkpt lat="45.93801500694486" lon="12.347309728367827"><ele>109.0</ele><time>2026-04-25T12:51:44.998Z</time></trkpt><trkpt lat="45.93796366208442" lon="12.347443012334352"><ele>109.0</ele><time>2026-04-25T12:51:45.998Z</time></trkpt><trkpt lat="45.93791105531163" lon="12.347579622005021"><ele>109.0</ele><time>2026-04-25T12:51:46.998Z</time></trkpt><trkpt lat="45.937859267355805" lon="12.347714105301536"><ele>107.83333333333334</ele><time>2026-04-25T12:51:47.998Z</time></trkpt><trkpt lat="45.937809113294236" lon="12.347844345804772"><ele>106.66666666666667</ele><time>2026-04-25T12:51:48.998Z</time></trkpt><trkpt lat="45.93776607681162" lon="12.347956103218499"><ele>105.5</ele><time>2026-04-25T12:51:49.998Z</time></trkpt><trkpt lat="45.937745181155734" lon="12.348046365337975"><ele>104.33333333333334</ele><time>2026-04-25T12:51:50.998Z</time></trkpt><trkpt lat="45.93767003834704" lon="12.348084474684281"><ele>103.16666666666667</ele><time>2026-04-25T12:51:52.998Z</time></trkpt><trkpt lat="45.93758681029112" lon="12.348063062771717"><ele>102.0</ele><time>2026-04-25T12:51:54.998Z</time></trkpt><trkpt lat="45.93748506424451" lon="12.348091383484858"><ele>100.5</ele><time>2026-04-25T12:51:56.998Z</time></trkpt><trkpt lat="45.93735824860597" lon="12.348110943543933"><ele>99.0</ele><time>2026-04-25T12:51:58.998Z</time></trkpt><trkpt lat="45.937294618785394" lon="12.348107192278508"><ele>97.5</ele><time>2026-04-25T12:51:59.998Z</time></trkpt><trkpt lat="45.93722804496591" lon="12.348106709772042"><ele>96.0</ele><time>2026-04-25T12:52:00.998Z</time></trkpt><trkpt lat="45.93716249987967" lon="12.348129857776074"><ele>94.5</ele><time>2026-04-25T12:52:01.998Z</time></trkpt><trkpt lat="45.93709954696834" lon="12.348133707924884"><ele>93.0</ele><time>2026-04-25T12:52:02.998Z</time></trkpt><trkpt lat="45.936977322078725" lon="12.348172066015007"><ele>93.0</ele><time>2026-04-25T12:52:04.998Z</time></trkpt><trkpt lat="45.936867998914884" lon="12.348236846247596"><ele>93.0</ele><time>2026-04-25T12:52:06.998Z</time></trkpt><trkpt lat="45.93678977127302" lon="12.348316713653766"><ele>93.0</ele><time>2026-04-25T12:52:08.998Z</time></trkpt><trkpt lat="45.93674085349967" lon="12.348391375663645"><ele>93.0</ele><time>2026-04-25T12:52:10.998Z</time></trkpt><trkpt lat="45.936622056634036" lon="12.348260702856711"><ele>93.0</ele><time>2026-04-25T12:52:36.997Z</time></trkpt><trkpt lat="45.93655505389478" lon="12.348241433065539"><ele>93.0</ele><time>2026-04-25T12:52:39Z</time></trkpt><trkpt lat="45.93647828192793" lon="12.348185412019799"><ele>93.0</ele><time>2026-04-25T12:52:41Z</time></trkpt><trkpt lat="45.93639502744774" lon="12.34810390837104"><ele>93.0</ele><time>2026-04-25T12:52:43Z</time></trkpt><trkpt lat="45.936291732409494" lon="12.348029301370472"><ele>93.0</ele><time>2026-04-25T12:52:45Z</time></trkpt><trkpt lat="45.936186341529485" lon="12.347938036225983"><ele>93.0</ele><time>2026-04-25T12:52:47Z</time></trkpt><trkpt lat="45.93613112771375" lon="12.347888901738461"><ele>93.00000000000001</ele><time>2026-04-25T12:52:48Z</time></trkpt><trkpt lat="45.93607321294415" lon="12.347838842789292"><ele>93.0</ele><time>2026-04-25T12:52:49Z</time></trkpt><trkpt lat="45.93601014866857" lon="12.347793363253517"><ele>93.0</ele><time>2026-04-25T12:52:50Z</time></trkpt><trkpt lat="45.93594460237806" lon="12.347763096782819"><ele>93.0</ele><time>2026-04-25T12:52:51Z</time></trkpt><trkpt lat="45.93587841100795" lon="12.347742914326826"><ele>93.0</ele><time>2026-04-25T12:52:52Z</time></trkpt><trkpt lat="45.93580770059234" lon="12.34774815830711"><ele>93.00000000000001</ele><time>2026-04-25T12:52:53Z</time></trkpt><trkpt lat="45.935740712072956" lon="12.34773282593155"><ele>93.0</ele><time>2026-04-25T12:52:54Z</time></trkpt><trkpt lat="45.9356759490588" lon="12.347716427622542"><ele>90.80000000000001</ele><time>2026-04-25T12:52:55Z</time></trkpt><trkpt lat="45.93556118554785" lon="12.34765427196632"><ele>88.6</ele><time>2026-04-25T12:52:57Z</time></trkpt><trkpt lat="45.93550579065349" lon="12.347606679255602"><ele>86.4</ele><time>2026-04-25T12:52:58Z</time></trkpt><trkpt lat="45.93540079499619" lon="12.347522872320646"><ele>84.19999999999999</ele><time>2026-04-25T12:53:00Z</time></trkpt><trkpt lat="45.935310560988086" lon="12.347435711811537"><ele>82.0</ele><time>2026-04-25T12:53:01.999Z</time></trkpt><trkpt lat="45.93521855010302" lon="12.347362278463727"><ele>82.0</ele><time>2026-04-25T12:53:03.999Z</time></trkpt><trkpt lat="45.93514177464869" lon="12.34727866020093"><ele>82.0</ele><time>2026-04-25T12:53:05.999Z</time></trkpt><trkpt lat="45.935040271628445" lon="12.34725548474009"><ele>82.0</ele><time>2026-04-25T12:53:07.999Z</time></trkpt><trkpt lat="45.93495178547707" lon="12.347366119161348"><ele>82.0</ele><time>2026-04-25T12:53:09.999Z</time></trkpt><trkpt lat="45.93489859110286" lon="12.347498795713195"><ele>82.0</ele><time>2026-04-25T12:53:11.999Z</time></trkpt><trkpt lat="45.934859320660046" lon="12.34764565398049"><ele>81.6</ele><time>2026-04-25T12:53:13.999Z</time></trkpt><trkpt lat="45.93481615050471" lon="12.347788543008274"><ele>81.19999999999999</ele><time>2026-04-25T12:53:15.999Z</time></trkpt><trkpt lat="45.93477763718878" lon="12.347927632555958"><ele>80.8</ele><time>2026-04-25T12:53:17.999Z</time></trkpt><trkpt lat="45.934738863684466" lon="12.348064024075132"><ele>80.4</ele><time>2026-04-25T12:53:19.999Z</time></trkpt><trkpt lat="45.93469855141604" lon="12.348192007757028"><ele>80.0</ele><time>2026-04-25T12:53:21.999Z</time></trkpt><trkpt lat="45.93466552246571" lon="12.348313065375956"><ele>79.57142857142857</ele><time>2026-04-25T12:53:23.999Z</time></trkpt><trkpt lat="45.934632048491046" lon="12.34842303688936"><ele>79.14285714285714</ele><time>2026-04-25T12:53:25.999Z</time></trkpt><trkpt lat="45.93460121081804" lon="12.34851972117889"><ele>78.71428571428572</ele><time>2026-04-25T12:53:27.999Z</time></trkpt><trkpt lat="45.934573649746646" lon="12.348610468006434"><ele>78.28571428571428</ele><time>2026-04-25T12:53:29.999Z</time></trkpt><trkpt lat="45.93454321549665" lon="12.348698299725628"><ele>77.85714285714286</ele><time>2026-04-25T12:53:31.999Z</time></trkpt><trkpt lat="45.934510559620286" lon="12.348783139552"><ele>77.42857142857143</ele><time>2026-04-25T12:53:33.999Z</time></trkpt><trkpt lat="45.93447366606599" lon="12.348868186431995"><ele>77.0</ele><time>2026-04-25T12:53:35.999Z</time></trkpt><trkpt lat="45.934436983085526" lon="12.348957343044347"><ele>77.0</ele><time>2026-04-25T12:53:37.999Z</time></trkpt><trkpt lat="45.93439008600676" lon="12.34903575293005"><ele>77.0</ele><time>2026-04-25T12:53:39.999Z</time></trkpt><trkpt lat="45.93433778349204" lon="12.349112560563071"><ele>77.0</ele><time>2026-04-25T12:53:41.999Z</time></trkpt><trkpt lat="45.93427995481189" lon="12.349203418429568"><ele>77.0</ele><time>2026-04-25T12:53:43.999Z</time></trkpt><trkpt lat="45.93421232268875" lon="12.349310102733838"><ele>77.0</ele><time>2026-04-25T12:53:45.998Z</time></trkpt><trkpt lat="45.93413702203063" lon="12.349418451896485"><ele>77.0</ele><time>2026-04-25T12:53:47.998Z</time></trkpt><trkpt lat="45.93406026781616" lon="12.349544179806324"><ele>77.0</ele><time>2026-04-25T12:53:49.998Z</time></trkpt><trkpt lat="45.93398254309214" lon="12.349686427182743"><ele>77.0</ele><time>2026-04-25T12:53:51.998Z</time></trkpt><trkpt lat="45.93394397103545" lon="12.349763055400588"><ele>77.0</ele><time>2026-04-25T12:53:52.998Z</time></trkpt><trkpt lat="45.933907192378776" lon="12.349843808325218"><ele>77.0</ele><time>2026-04-25T12:53:53.998Z</time></trkpt><trkpt lat="45.933871095196324" lon="12.34992828408393"><ele>77.0</ele><time>2026-04-25T12:53:54.998Z</time></trkpt><trkpt lat="45.933830010235326" lon="12.350006937465716"><ele>77.0</ele><time>2026-04-25T12:53:55.998Z</time></trkpt><trkpt lat="45.93379198618145" lon="12.35009191751833"><ele>76.4</ele><time>2026-04-25T12:53:56.998Z</time></trkpt><trkpt lat="45.9337580192814" lon="12.35017742042489"><ele>75.80000000000001</ele><time>2026-04-25T12:53:57.998Z</time></trkpt><trkpt lat="45.93372427626197" lon="12.350256185026414"><ele>75.2</ele><time>2026-04-25T12:53:58.998Z</time></trkpt><trkpt lat="45.93366019002929" lon="12.350403965313241"><ele>74.60000000000001</ele><time>2026-04-25T12:54:00.998Z</time></trkpt><trkpt lat="45.93360572210816" lon="12.350540707315854"><ele>74.0</ele><time>2026-04-25T12:54:02.998Z</time></trkpt><trkpt lat="45.9335681977224" lon="12.350653795203785"><ele>73.75</ele><time>2026-04-25T12:54:04.998Z</time></trkpt><trkpt lat="45.933536287726696" lon="12.350735430783732"><ele>73.5</ele><time>2026-04-25T12:54:06.998Z</time></trkpt><trkpt lat="45.9333483803121" lon="12.350578321264264"><ele>73.25</ele><time>2026-04-25T12:55:34.999Z</time></trkpt><trkpt lat="45.93327500860331" lon="12.350520228603136"><ele>73.0</ele><time>2026-04-25T12:55:36.999Z</time></trkpt><trkpt lat="45.93319466906923" lon="12.350448567159058"><ele>73.0</ele><time>2026-04-25T12:55:38.999Z</time></trkpt><trkpt lat="45.93310650847093" lon="12.350381346453155"><ele>73.0</ele><time>2026-04-25T12:55:40.999Z</time></trkpt><trkpt lat="45.93301631489841" lon="12.350300813431305"><ele>73.0</ele><time>2026-04-25T12:55:42.999Z</time></trkpt><trkpt lat="45.93292047455129" lon="12.350220506056921"><ele>73.0</ele><time>2026-04-25T12:55:44.999Z</time></trkpt><trkpt lat="45.93282943806472" lon="12.350122548447036"><ele>73.0</ele><time>2026-04-25T12:55:46.999Z</time></trkpt><trkpt lat="45.93273296797305" lon="12.350042505369874"><ele>73.0</ele><time>2026-04-25T12:55:48.999Z</time></trkpt><trkpt lat="45.932625609671796" lon="12.349971123154875"><ele>73.0</ele><time>2026-04-25T12:55:50.999Z</time></trkpt><trkpt lat="45.93252493897636" lon="12.349892734477345"><ele>73.0</ele><time>2026-04-25T12:55:52.999Z</time></trkpt><trkpt lat="45.9324229845187" lon="12.349805920537873"><ele>73.0</ele><time>2026-04-25T12:55:54.999Z</time></trkpt><trkpt lat="45.93237529160336" lon="12.349746808696432"><ele>73.0</ele><time>2026-04-25T12:55:55.999Z</time></trkpt><trkpt lat="45.932262298794555" lon="12.349673847981922"><ele>72.16666666666666</ele><time>2026-04-25T12:55:57.999Z</time></trkpt><trkpt lat="45.932205525701896" lon="12.349632292332132"><ele>71.33333333333333</ele><time>2026-04-25T12:55:58.999Z</time></trkpt><trkpt lat="45.93210239147161" lon="12.349550690111485"><ele>70.5</ele><time>2026-04-25T12:56:00.999Z</time></trkpt><trkpt lat="45.93204645064108" lon="12.349507431499148"><ele>69.66666666666667</ele><time>2026-04-25T12:56:01.999Z</time></trkpt><trkpt lat="45.931932033698054" lon="12.349476745887593"><ele>68.83333333333334</ele><time>2026-04-25T12:56:03.999Z</time></trkpt><trkpt lat="45.931873613593936" lon="12.349512413228622"><ele>68.0</ele><time>2026-04-25T12:56:04.999Z</time></trkpt><trkpt lat="45.931823658461276" lon="12.349567845021447"><ele>68.0</ele><time>2026-04-25T12:56:05.999Z</time></trkpt><trkpt lat="45.93172422627089" lon="12.349645247257081"><ele>68.0</ele><time>2026-04-25T12:56:07.998Z</time></trkpt><trkpt lat="45.93162084917276" lon="12.349713774696832"><ele>68.0</ele><time>2026-04-25T12:56:09.998Z</time></trkpt><trkpt lat="45.93152341267613" lon="12.349779200204367"><ele>68.0</ele><time>2026-04-25T12:56:11.998Z</time></trkpt><trkpt lat="45.93143131165944" lon="12.349864365288573"><ele>68.0</ele><time>2026-04-25T12:56:13.998Z</time></trkpt><trkpt lat="45.93133910556675" lon="12.349932838726314"><ele>68.4</ele><time>2026-04-25T12:56:15.998Z</time></trkpt><trkpt lat="45.93125530423402" lon="12.35004212231153"><ele>68.8</ele><time>2026-04-25T12:56:17.998Z</time></trkpt><trkpt lat="45.931175738960455" lon="12.350139356051125"><ele>69.2</ele><time>2026-04-25T12:56:19.998Z</time></trkpt><trkpt lat="45.931120431190685" lon="12.350265748449699"><ele>69.6</ele><time>2026-04-25T12:56:21.998Z</time></trkpt><trkpt lat="45.931040692542496" lon="12.350373688142783"><ele>70.0</ele><time>2026-04-25T12:56:23.998Z</time></trkpt><trkpt lat="45.93097263846562" lon="12.350490249077488"><ele>70.0</ele><time>2026-04-25T12:56:25.998Z</time></trkpt><trkpt lat="45.93091802571329" lon="12.35062173629755"><ele>70.0</ele><time>2026-04-25T12:56:27.998Z</time></trkpt><trkpt lat="45.930855715984535" lon="12.350739777697768"><ele>70.0</ele><time>2026-04-25T12:56:29.998Z</time></trkpt><trkpt lat="45.93079387798973" lon="12.350871378714457"><ele>70.0</ele><time>2026-04-25T12:56:31.998Z</time></trkpt><trkpt lat="45.93074714355159" lon="12.351016741794835"><ele>70.0</ele><time>2026-04-25T12:56:33.998Z</time></trkpt><trkpt lat="45.93070818340792" lon="12.351178820783138"><ele>69.4</ele><time>2026-04-25T12:56:35.998Z</time></trkpt><trkpt lat="45.93067399967385" lon="12.351344528982633"><ele>68.8</ele><time>2026-04-25T12:56:37.998Z</time></trkpt><trkpt lat="45.930638312187185" lon="12.351514665947251"><ele>68.2</ele><time>2026-04-25T12:56:39.998Z</time></trkpt><trkpt lat="45.93062241978504" lon="12.351602752633747"><ele>67.6</ele><time>2026-04-25T12:56:40.998Z</time></trkpt><trkpt lat="45.93059619084584" lon="12.351693344577406"><ele>67.0</ele><time>2026-04-25T12:56:41.998Z</time></trkpt><trkpt lat="45.930552614211386" lon="12.35187407332653"><ele>67.0</ele><time>2026-04-25T12:56:43.998Z</time></trkpt><trkpt lat="45.93052969274947" lon="12.351968485884345"><ele>67.0</ele><time>2026-04-25T12:56:44.998Z</time></trkpt><trkpt lat="45.93051823714541" lon="12.352060047333792"><ele>67.0</ele><time>2026-04-25T12:56:45.998Z</time></trkpt><trkpt lat="45.93047330311352" lon="12.352196846437664"><ele>67.0</ele><time>2026-04-25T12:56:47.998Z</time></trkpt><trkpt lat="45.93042987195195" lon="12.352262995027875"><ele>67.0</ele><time>2026-04-25T12:56:51Z</time></trkpt><trkpt lat="45.93039902979309" lon="12.352157873936031"><ele>67.0</ele><time>2026-04-25T12:56:52Z</time></trkpt><trkpt lat="45.930341485086444" lon="12.352087974570303"><ele>67.0</ele><time>2026-04-25T12:56:54Z</time></trkpt><trkpt lat="45.93025393510288" lon="12.3519991353589"><ele>67.0</ele><time>2026-04-25T12:56:56Z</time></trkpt><trkpt lat="45.93016404521095" lon="12.351902207065708"><ele>67.0</ele><time>2026-04-25T12:56:58Z</time></trkpt><trkpt lat="45.93007470942548" lon="12.35178967846782"><ele>67.0</ele><time>2026-04-25T12:57:00Z</time></trkpt><trkpt lat="45.92999965317172" lon="12.351650003131926"><ele>66.4</ele><time>2026-04-25T12:57:02Z</time></trkpt><trkpt lat="45.92992509173985" lon="12.351503553155961"><ele>65.80000000000001</ele><time>2026-04-25T12:57:04Z</time></trkpt><trkpt lat="45.92983408689574" lon="12.351375115206224"><ele>65.2</ele><time>2026-04-25T12:57:06Z</time></trkpt><trkpt lat="45.9297745163623" lon="12.351340127194396"><ele>64.60000000000001</ele><time>2026-04-25T12:57:07Z</time></trkpt><trkpt lat="45.92967988321496" lon="12.351229819825004"><ele>64.0</ele><time>2026-04-25T12:57:09Z</time></trkpt><trkpt lat="45.92957539138895" lon="12.351152287718207"><ele>64.0</ele><time>2026-04-25T12:57:11Z</time></trkpt><trkpt lat="45.92947966003359" lon="12.351081768482965"><ele>64.0</ele><time>2026-04-25T12:57:13Z</time></trkpt><trkpt lat="45.9294061112512" lon="12.35098196921263"><ele>64.0</ele><time>2026-04-25T12:57:15Z</time></trkpt><trkpt lat="45.92934124923989" lon="12.350877503772205"><ele>64.0</ele><time>2026-04-25T12:57:17Z</time></trkpt><trkpt lat="45.92926860884505" lon="12.35079284727457"><ele>64.0</ele><time>2026-04-25T12:57:19Z</time></trkpt><trkpt lat="45.92921310630442" lon="12.350693675190614"><ele>64.16666666666666</ele><time>2026-04-25T12:57:21Z</time></trkpt><trkpt lat="45.92916368186157" lon="12.350585919717286"><ele>64.33333333333333</ele><time>2026-04-25T12:57:23Z</time></trkpt><trkpt lat="45.929105050513975" lon="12.350493720425254"><ele>64.5</ele><time>2026-04-25T12:57:25Z</time></trkpt><trkpt lat="45.929033870447796" lon="12.350416553720423"><ele>64.66666666666667</ele><time>2026-04-25T12:57:27Z</time></trkpt><trkpt lat="45.92897738167946" lon="12.3503223781813"><ele>64.83333333333334</ele><time>2026-04-25T12:57:29Z</time></trkpt><trkpt lat="45.928915329333776" lon="12.35023009725316"><ele>65.0</ele><time>2026-04-25T12:57:31Z</time></trkpt><trkpt lat="45.928851107183334" lon="12.350140267061722"><ele>65.0</ele><time>2026-04-25T12:57:33Z</time></trkpt><trkpt lat="45.92878398670277" lon="12.350049516216671"><ele>65.0</ele><time>2026-04-25T12:57:35Z</time></trkpt><trkpt lat="45.92871448234335" lon="12.349959280852667"><ele>65.0</ele><time>2026-04-25T12:57:37Z</time></trkpt><trkpt lat="45.928643917008" lon="12.349878950452316"><ele>65.0</ele><time>2026-04-25T12:57:38.999Z</time></trkpt><trkpt lat="45.928574033080835" lon="12.349799124548362"><ele>65.0</ele><time>2026-04-25T12:57:40.999Z</time></trkpt><trkpt lat="45.928504848322795" lon="12.349717674555116"><ele>65.16666666666667</ele><time>2026-04-25T12:57:42.999Z</time></trkpt><trkpt lat="45.92843722880171" lon="12.349635007243918"><ele>65.33333333333334</ele><time>2026-04-25T12:57:44.999Z</time></trkpt><trkpt lat="45.92837315960808" lon="12.349552792987533"><ele>65.5</ele><time>2026-04-25T12:57:46.999Z</time></trkpt><trkpt lat="45.92831079322487" lon="12.349472077160625"><ele>65.66666666666667</ele><time>2026-04-25T12:57:48.999Z</time></trkpt><trkpt lat="45.928251034328845" lon="12.34938450418075"><ele>65.83333333333333</ele><time>2026-04-25T12:57:50.999Z</time></trkpt><trkpt lat="45.9281898285075" lon="12.349300350620597"><ele>66.0</ele><time>2026-04-25T12:57:52.999Z</time></trkpt><trkpt lat="45.92813969258766" lon="12.349202661414953"><ele>67.2</ele><time>2026-04-25T12:57:54.999Z</time></trkpt><trkpt lat="45.928067653709164" lon="12.349136477684976"><ele>68.39999999999999</ele><time>2026-04-25T12:57:56.999Z</time></trkpt><trkpt lat="45.92797791096605" lon="12.349102415121408"><ele>69.6</ele><time>2026-04-25T12:57:58.999Z</time></trkpt><trkpt lat="45.927881564759126" lon="12.349125531839283"><ele>70.8</ele><time>2026-04-25T12:58:00.999Z</time></trkpt><trkpt lat="45.927801325607284" lon="12.349220063583843"><ele>72.0</ele><time>2026-04-25T12:58:02.999Z</time></trkpt><trkpt lat="45.92773381364091" lon="12.349328750102629"><ele>72.0</ele><time>2026-04-25T12:58:04.999Z</time></trkpt><trkpt lat="45.92766092230635" lon="12.349447654960603"><ele>72.0</ele><time>2026-04-25T12:58:06.999Z</time></trkpt><trkpt lat="45.927572766666515" lon="12.349559296171769"><ele>72.0</ele><time>2026-04-25T12:58:08.999Z</time></trkpt><trkpt lat="45.927474829186984" lon="12.349642103059969"><ele>72.0</ele><time>2026-04-25T12:58:10.999Z</time></trkpt><trkpt lat="45.92736630515826" lon="12.349705271475488"><ele>71.0</ele><time>2026-04-25T12:58:12.999Z</time></trkpt><trkpt lat="45.927254367336026" lon="12.349749647009356"><ele>70.0</ele><time>2026-04-25T12:58:14.999Z</time></trkpt><trkpt lat="45.92713971190327" lon="12.349774537426267"><ele>69.0</ele><time>2026-04-25T12:58:16.999Z</time></trkpt><trkpt lat="45.927028781355794" lon="12.349779847964893"><ele>68.0</ele><time>2026-04-25T12:58:18.999Z</time></trkpt><trkpt lat="45.92691967165383" lon="12.34975598760816"><ele>68.75</ele><time>2026-04-25T12:58:20.999Z</time></trkpt><trkpt lat="45.92681043782913" lon="12.349699179504444"><ele>69.5</ele><time>2026-04-25T12:58:22.999Z</time></trkpt><trkpt lat="45.92671326573007" lon="12.349626492701612"><ele>70.25</ele><time>2026-04-25T12:58:24.998Z</time></trkpt><trkpt lat="45.92660813305532" lon="12.3495568207979"><ele>71.0</ele><time>2026-04-25T12:58:26.998Z</time></trkpt><trkpt lat="45.92650805746221" lon="12.349486922514078"><ele>71.0</ele><time>2026-04-25T12:58:28.998Z</time></trkpt><trkpt lat="45.92641526793804" lon="12.349405421041052"><ele>71.0</ele><time>2026-04-25T12:58:30.998Z</time></trkpt><trkpt lat="45.92631609567497" lon="12.349356367180127"><ele>71.0</ele><time>2026-04-25T12:58:32.998Z</time></trkpt><trkpt lat="45.926226039984414" lon="12.349315821972235"><ele>71.0</ele><time>2026-04-25T12:58:34.998Z</time></trkpt><trkpt lat="45.926154661549226" lon="12.349268134707236"><ele>71.0</ele><time>2026-04-25T12:58:36.998Z</time></trkpt><trkpt lat="45.92618877135466" lon="12.349094666297852"><ele>71.0</ele><time>2026-04-25T12:58:39.998Z</time></trkpt><trkpt lat="45.92623911267458" lon="12.349002640629093"><ele>71.0</ele><time>2026-04-25T12:58:41.997Z</time></trkpt><trkpt lat="45.92628379349309" lon="12.34890066920404"><ele>71.0</ele><time>2026-04-25T12:58:43.997Z</time></trkpt><trkpt lat="45.926331920924575" lon="12.348801877060309"><ele>71.0</ele><time>2026-04-25T12:58:45.997Z</time></trkpt><trkpt lat="45.92637911138527" lon="12.34869999421814"><ele>71.0</ele><time>2026-04-25T12:58:47.997Z</time></trkpt><trkpt lat="45.92642378072723" lon="12.348597978758235"><ele>71.0</ele><time>2026-04-25T12:58:49.997Z</time></trkpt><trkpt lat="45.92646932757056" lon="12.348495669390271"><ele>71.5</ele><time>2026-04-25T12:58:51.997Z</time></trkpt><trkpt lat="45.92652377666949" lon="12.348407248423438"><ele>72.0</ele><time>2026-04-25T12:58:53.997Z</time></trkpt><trkpt lat="45.92657094732221" lon="12.348303283647512"><ele>72.5</ele><time>2026-04-25T12:58:55.999Z</time></trkpt><trkpt lat="45.92662018154772" lon="12.348204648764302"><ele>73.0</ele><time>2026-04-25T12:58:57.999Z</time></trkpt><trkpt lat="45.92666861558716" lon="12.348101624733133"><ele>73.5</ele><time>2026-04-25T12:58:59.999Z</time></trkpt><trkpt lat="45.92671415378434" lon="12.347999654582114"><ele>74.0</ele><time>2026-04-25T12:59:01.999Z</time></trkpt><trkpt lat="45.92676388252564" lon="12.34789974479411"><ele>74.16666666666667</ele><time>2026-04-25T12:59:03.999Z</time></trkpt><trkpt lat="45.926809116244286" lon="12.347797417917457"><ele>74.33333333333334</ele><time>2026-04-25T12:59:05.999Z</time></trkpt><trkpt lat="45.926853198087514" lon="12.34769704706721"><ele>74.5</ele><time>2026-04-25T12:59:07.999Z</time></trkpt><trkpt lat="45.926892957593914" lon="12.347586946093871"><ele>74.66666666666667</ele><time>2026-04-25T12:59:09.999Z</time></trkpt><trkpt lat="45.92693693683041" lon="12.347482378768529"><ele>74.83333333333333</ele><time>2026-04-25T12:59:11.999Z</time></trkpt><trkpt lat="45.92697258341286" lon="12.347375228774656"><ele>75.0</ele><time>2026-04-25T12:59:13.999Z</time></trkpt><trkpt lat="45.92701107860467" lon="12.347268356525186"><ele>75.5</ele><time>2026-04-25T12:59:15.999Z</time></trkpt><trkpt lat="45.927049635863995" lon="12.347163402358282"><ele>76.0</ele><time>2026-04-25T12:59:17.999Z</time></trkpt><trkpt lat="45.92709072788173" lon="12.34705557630315"><ele>76.5</ele><time>2026-04-25T12:59:19.999Z</time></trkpt><trkpt lat="45.92713125297477" lon="12.346945730785771"><ele>77.0</ele><time>2026-04-25T12:59:21.999Z</time></trkpt><trkpt lat="45.92716809857613" lon="12.346837343295546"><ele>77.5</ele><time>2026-04-25T12:59:23.999Z</time></trkpt><trkpt lat="45.92720466312048" lon="12.34672349017932"><ele>78.0</ele><time>2026-04-25T12:59:25.999Z</time></trkpt><trkpt lat="45.927237923918945" lon="12.346608629726365"><ele>78.0</ele><time>2026-04-25T12:59:27.999Z</time></trkpt><trkpt lat="45.92727344721247" lon="12.346495959705775"><ele>78.0</ele><time>2026-04-25T12:59:29.999Z</time></trkpt><trkpt lat="45.92730587521984" lon="12.34637859686579"><ele>78.0</ele><time>2026-04-25T12:59:31.999Z</time></trkpt><trkpt lat="45.92733739380976" lon="12.34626029454014"><ele>78.0</ele><time>2026-04-25T12:59:33.999Z</time></trkpt><trkpt lat="45.92737370072639" lon="12.346141860723781"><ele>78.0</ele><time>2026-04-25T12:59:35.999Z</time></trkpt><trkpt lat="45.92740588891665" lon="12.346018229962176"><ele>78.0</ele><time>2026-04-25T12:59:37.999Z</time></trkpt><trkpt lat="45.927439162408" lon="12.345896292288716"><ele>78.66666666666667</ele><time>2026-04-25T12:59:39.999Z</time></trkpt><trkpt lat="45.92746921649014" lon="12.34577863832054"><ele>79.33333333333333</ele><time>2026-04-25T12:59:41.999Z</time></trkpt><trkpt lat="45.92749818187816" lon="12.345665633415232"><ele>80.0</ele><time>2026-04-25T12:59:43.999Z</time></trkpt><trkpt lat="45.927494726269686" lon="12.34555653859489"><ele>80.66666666666666</ele><time>2026-04-25T12:59:45.999Z</time></trkpt><trkpt lat="45.927443456901635" lon="12.345478609274434"><ele>81.33333333333333</ele><time>2026-04-25T12:59:47.999Z</time></trkpt><trkpt lat="45.92738234458065" lon="12.3454079180099"><ele>82.0</ele><time>2026-04-25T12:59:49.999Z</time></trkpt><trkpt lat="45.927315275619016" lon="12.345331166614235"><ele>82.33333333333333</ele><time>2026-04-25T12:59:51.999Z</time></trkpt><trkpt lat="45.927244806259424" lon="12.345244596757388"><ele>82.66666666666666</ele><time>2026-04-25T12:59:53.998Z</time></trkpt><trkpt lat="45.92716757466218" lon="12.345169691712162"><ele>83.0</ele><time>2026-04-25T12:59:55.998Z</time></trkpt><trkpt lat="45.92709937142935" lon="12.345084146878838"><ele>83.33333333333333</ele><time>2026-04-25T12:59:57.998Z</time></trkpt><trkpt lat="45.927040041254934" lon="12.344964793092178"><ele>83.66666666666667</ele><time>2026-04-25T12:59:59.998Z</time></trkpt><trkpt lat="45.92700991422032" lon="12.344885313247575"><ele>84.0</ele><time>2026-04-25T13:00:00.998Z</time></trkpt><trkpt lat="45.926942373442834" lon="12.344731364512437"><ele>84.28571428571429</ele><time>2026-04-25T13:00:02.998Z</time></trkpt><trkpt lat="45.92690690017546" lon="12.34464759615255"><ele>84.57142857142857</ele><time>2026-04-25T13:00:03.998Z</time></trkpt><trkpt lat="45.92686205144031" lon="12.344572549262557"><ele>84.85714285714286</ele><time>2026-04-25T13:00:04.998Z</time></trkpt><trkpt lat="45.92681512862508" lon="12.344495055845611"><ele>85.14285714285714</ele><time>2026-04-25T13:00:05.998Z</time></trkpt><trkpt lat="45.926762644028344" lon="12.344417998951489"><ele>85.42857142857143</ele><time>2026-04-25T13:00:06.998Z</time></trkpt><trkpt lat="45.92670948648071" lon="12.344336519444603"><ele>85.71428571428572</ele><time>2026-04-25T13:00:07.998Z</time></trkpt><trkpt lat="45.92665202342127" lon="12.344251882210028"><ele>86.0</ele><time>2026-04-25T13:00:08.998Z</time></trkpt><trkpt lat="45.92659695746223" lon="12.344170964145714"><ele>85.0</ele><time>2026-04-25T13:00:09.998Z</time></trkpt><trkpt lat="45.9265426250076" lon="12.34408321047349"><ele>84.0</ele><time>2026-04-25T13:00:10.998Z</time></trkpt><trkpt lat="45.9264866049266" lon="12.343994553239527"><ele>83.0</ele><time>2026-04-25T13:00:11.998Z</time></trkpt><trkpt lat="45.926433723809225" lon="12.343903286774083"><ele>82.0</ele><time>2026-04-25T13:00:12.998Z</time></trkpt><trkpt lat="45.92638040459597" lon="12.343812502077833"><ele>81.0</ele><time>2026-04-25T13:00:13.998Z</time></trkpt><trkpt lat="45.92633003788631" lon="12.34371932537001"><ele>80.0</ele><time>2026-04-25T13:00:14.998Z</time></trkpt><trkpt lat="45.92627887405294" lon="12.343632475488747"><ele>80.0</ele><time>2026-04-25T13:00:15.998Z</time></trkpt><trkpt lat="45.92622843787094" lon="12.343541504136272"><ele>80.0</ele><time>2026-04-25T13:00:16.998Z</time></trkpt><trkpt lat="45.926189150692956" lon="12.343444033134881"><ele>80.0</ele><time>2026-04-25T13:00:17.998Z</time></trkpt><trkpt lat="45.926142736703824" lon="12.34336016753448"><ele>80.0</ele><time>2026-04-25T13:00:18.998Z</time></trkpt><trkpt lat="45.92609442110463" lon="12.343279278256125"><ele>80.0</ele><time>2026-04-25T13:00:19.998Z</time></trkpt><trkpt lat="45.92604443916294" lon="12.343195599103886"><ele>80.0</ele><time>2026-04-25T13:00:20.998Z</time></trkpt><trkpt lat="45.925992304300074" lon="12.343109339371555"><ele>80.14285714285714</ele><time>2026-04-25T13:00:21.998Z</time></trkpt><trkpt lat="45.92594150677795" lon="12.343029677349586"><ele>80.28571428571429</ele><time>2026-04-25T13:00:22.998Z</time></trkpt><trkpt lat="45.92587948688949" lon="12.342963702037958"><ele>80.42857142857143</ele><time>2026-04-25T13:00:23.998Z</time></trkpt><trkpt lat="45.92582767240967" lon="12.342884736761576"><ele>80.57142857142857</ele><time>2026-04-25T13:00:24.998Z</time></trkpt><trkpt lat="45.925792359549185" lon="12.342790774377317"><ele>80.71428571428571</ele><time>2026-04-25T13:00:25.998Z</time></trkpt><trkpt lat="45.92573427871386" lon="12.342725233456159"><ele>80.85714285714286</ele><time>2026-04-25T13:00:26.998Z</time></trkpt><trkpt lat="45.92569466301393" lon="12.342646879759734"><ele>81.0</ele><time>2026-04-25T13:00:27.998Z</time></trkpt><trkpt lat="45.92565464367459" lon="12.342568694678006"><ele>79.71428571428572</ele><time>2026-04-25T13:00:28.998Z</time></trkpt><trkpt lat="45.925616107450885" lon="12.342485009970318"><ele>78.42857142857143</ele><time>2026-04-25T13:00:29.998Z</time></trkpt><trkpt lat="45.92558177486272" lon="12.342404276866233"><ele>77.14285714285714</ele><time>2026-04-25T13:00:30.998Z</time></trkpt><trkpt lat="45.92554842525602" lon="12.342318513933902"><ele>75.85714285714286</ele><time>2026-04-25T13:00:31.998Z</time></trkpt><trkpt lat="45.925518530462874" lon="12.342233502676633"><ele>74.57142857142857</ele><time>2026-04-25T13:00:32.998Z</time></trkpt><trkpt lat="45.925486059368794" lon="12.342148570931272"><ele>73.28571428571429</ele><time>2026-04-25T13:00:33.998Z</time></trkpt><trkpt lat="45.925460739750356" lon="12.34206126779118"><ele>72.0</ele><time>2026-04-25T13:00:34.998Z</time></trkpt><trkpt lat="45.925415359253016" lon="12.341902765782482"><ele>72.0</ele><time>2026-04-25T13:00:36.998Z</time></trkpt><trkpt lat="45.925372637239875" lon="12.341750937919134"><ele>72.0</ele><time>2026-04-25T13:00:38.998Z</time></trkpt><trkpt lat="45.925345286072584" lon="12.34159582247232"><ele>72.0</ele><time>2026-04-25T13:00:40.997Z</time></trkpt><trkpt lat="45.92532988025367" lon="12.341434991971315"><ele>72.0</ele><time>2026-04-25T13:00:42.997Z</time></trkpt><trkpt lat="45.92530022467658" lon="12.34128291766159"><ele>72.0</ele><time>2026-04-25T13:00:44.997Z</time></trkpt><trkpt lat="45.92528136796523" lon="12.341122032053644"><ele>72.2</ele><time>2026-04-25T13:00:46.997Z</time></trkpt><trkpt lat="45.92525939235027" lon="12.340974915699338"><ele>72.4</ele><time>2026-04-25T13:00:48.997Z</time></trkpt><trkpt lat="45.92523600295033" lon="12.340837596713408"><ele>72.6</ele><time>2026-04-25T13:00:50.997Z</time></trkpt><trkpt lat="45.925215312660065" lon="12.340703263746361"><ele>72.8</ele><time>2026-04-25T13:00:52.997Z</time></trkpt><trkpt lat="45.925204124998494" lon="12.340575841768581"><ele>73.0</ele><time>2026-04-25T13:00:54.997Z</time></trkpt><trkpt lat="45.925181491905875" lon="12.340472025372087"><ele>72.83333333333333</ele><time>2026-04-25T13:00:56.997Z</time></trkpt><trkpt lat="45.92515768223835" lon="12.340369703164894"><ele>72.66666666666666</ele><time>2026-04-25T13:00:58.997Z</time></trkpt><trkpt lat="45.925151588071635" lon="12.340264156658177"><ele>72.5</ele><time>2026-04-25T13:01:02Z</time></trkpt><trkpt lat="45.92506167957003" lon="12.340274386787273"><ele>72.33333333333333</ele><time>2026-04-25T13:01:03Z</time></trkpt><trkpt lat="45.924976779974784" lon="12.340283096176947"><ele>72.16666666666667</ele><time>2026-04-25T13:01:05Z</time></trkpt><trkpt lat="45.924877986426104" lon="12.34027331071403"><ele>72.0</ele><time>2026-04-25T13:01:07Z</time></trkpt><trkpt lat="45.924771232281834" lon="12.34021831632805"><ele>72.0</ele><time>2026-04-25T13:01:09Z</time></trkpt><trkpt lat="45.92467304463385" lon="12.340124368005634"><ele>72.0</ele><time>2026-04-25T13:01:11Z</time></trkpt><trkpt lat="45.92458734755963" lon="12.34000212413934"><ele>72.0</ele><time>2026-04-25T13:01:13Z</time></trkpt><trkpt lat="45.92450596160383" lon="12.339882149013736"><ele>72.0</ele><time>2026-04-25T13:01:15Z</time></trkpt><trkpt lat="45.924419627944935" lon="12.339780743363534"><ele>72.16666666666667</ele><time>2026-04-25T13:01:17Z</time></trkpt><trkpt lat="45.92433324353868" lon="12.339690387253695"><ele>72.33333333333333</ele><time>2026-04-25T13:01:19Z</time></trkpt><trkpt lat="45.924259165315284" lon="12.339605856477984"><ele>72.5</ele><time>2026-04-25T13:01:21Z</time></trkpt><trkpt lat="45.92419288426991" lon="12.339558962444057"><ele>72.66666666666666</ele><time>2026-04-25T13:01:23Z</time></trkpt><trkpt lat="45.92411377072249" lon="12.339507576160864"><ele>72.83333333333333</ele><time>2026-04-25T13:01:26Z</time></trkpt><trkpt lat="45.92405379261693" lon="12.339470542013364"><ele>73.0</ele><time>2026-04-25T13:01:28.999Z</time></trkpt><trkpt lat="45.9239837836316" lon="12.339426043463053"><ele>73.0</ele><time>2026-04-25T13:01:32.999Z</time></trkpt><trkpt lat="45.92391543810744" lon="12.339374784405342"><ele>73.0</ele><time>2026-04-25T13:01:36.999Z</time></trkpt><trkpt lat="45.92385814803634" lon="12.339321999703845"><ele>73.0</ele><time>2026-04-25T13:01:40.999Z</time></trkpt><trkpt lat="45.92378806160265" lon="12.33927409776181"><ele>73.0</ele><time>2026-04-25T13:01:44.999Z</time></trkpt><trkpt lat="45.92373731725" lon="12.339205079194835"><ele>73.0</ele><time>2026-04-25T13:01:48.999Z</time></trkpt><trkpt lat="45.92368988253584" lon="12.339128195578104"><ele>73.0</ele><time>2026-04-25T13:01:52.999Z</time></trkpt><trkpt lat="45.92363698043717" lon="12.339061472693615"><ele>73.0</ele><time>2026-04-25T13:01:56.999Z</time></trkpt><trkpt lat="45.92358517825021" lon="12.338990192829748"><ele>73.0</ele><time>2026-04-25T13:02:00.999Z</time></trkpt><trkpt lat="45.923531857847436" lon="12.338926060205845"><ele>73.0</ele><time>2026-04-25T13:02:04.999Z</time></trkpt><trkpt lat="45.92347450017202" lon="12.338848497869815"><ele>73.0</ele><time>2026-04-25T13:02:09.999Z</time></trkpt><trkpt lat="45.92341110190592" lon="12.338791596035856"><ele>73.0</ele><time>2026-04-25T13:02:14.998Z</time></trkpt><trkpt lat="45.92334740575034" lon="12.338750985451325"><ele>73.0</ele><time>2026-04-25T13:02:19.998Z</time></trkpt><trkpt lat="45.92327981592049" lon="12.338712033509914"><ele>73.0</ele><time>2026-04-25T13:02:24.998Z</time></trkpt><trkpt lat="45.923210847105395" lon="12.338720133641381"><ele>73.0</ele><time>2026-04-25T13:02:29.998Z</time></trkpt><trkpt lat="45.92314889512315" lon="12.338766437208037"><ele>74.71428571428571</ele><time>2026-04-25T13:02:34.998Z</time></trkpt><trkpt lat="45.92309130168368" lon="12.338820676411284"><ele>76.42857142857143</ele><time>2026-04-25T13:02:39.998Z</time></trkpt><trkpt lat="45.923032728393224" lon="12.33888311321843"><ele>78.14285714285714</ele><time>2026-04-25T13:02:45.998Z</time></trkpt><trkpt lat="45.92297435817521" lon="12.338947139925276"><ele>79.85714285714286</ele><time>2026-04-25T13:02:51.998Z</time></trkpt><trkpt lat="45.92291403628278" lon="12.339013307250712"><ele>81.57142857142857</ele><time>2026-04-25T13:02:57.998Z</time></trkpt><trkpt lat="45.922854486716275" lon="12.339087233931055"><ele>83.28571428571429</ele><time>2026-04-25T13:03:04.997Z</time></trkpt><trkpt lat="45.9228063086001" lon="12.339146526580954"><ele>85.0</ele><time>2026-04-25T13:03:10Z</time></trkpt><trkpt lat="45.92278483208182" lon="12.339236605737813"><ele>85.0</ele><time>2026-04-25T13:03:14Z</time></trkpt><trkpt lat="45.922725442006815" lon="12.339276094029906"><ele>85.0</ele><time>2026-04-25T13:03:19Z</time></trkpt><trkpt lat="45.922661855214166" lon="12.339289971065883"><ele>85.0</ele><time>2026-04-25T13:03:24Z</time></trkpt><trkpt lat="45.922593574922274" lon="12.339299490439807"><ele>85.0</ele><time>2026-04-25T13:03:29Z</time></trkpt><trkpt lat="45.92252484260116" lon="12.33929467780602"><ele>85.0</ele><time>2026-04-25T13:03:34Z</time></trkpt><trkpt lat="45.92245899240561" lon="12.33928407813938"><ele>85.0</ele><time>2026-04-25T13:03:39Z</time></trkpt><trkpt lat="45.92238475006281" lon="12.339252603316046"><ele>85.0</ele><time>2026-04-25T13:03:44Z</time></trkpt><trkpt lat="45.92231883381715" lon="12.339227448081447"><ele>88.33333333333333</ele><time>2026-04-25T13:03:48Z</time></trkpt><trkpt lat="45.922238626234" lon="12.339244717247935"><ele>91.66666666666666</ele><time>2026-04-25T13:03:51.999Z</time></trkpt><trkpt lat="45.92221847640862" lon="12.339365411083525"><ele>95.0</ele><time>2026-04-25T13:03:55.999Z</time></trkpt><trkpt lat="45.922237157422316" lon="12.339469787389685"><ele>98.33333333333333</ele><time>2026-04-25T13:03:58.999Z</time></trkpt><trkpt lat="45.922236865000045" lon="12.339581958619455"><ele>101.66666666666667</ele><time>2026-04-25T13:04:01.999Z</time></trkpt><trkpt lat="45.922231612077624" lon="12.339694424028059"><ele>105.0</ele><time>2026-04-25T13:04:04.999Z</time></trkpt><trkpt lat="45.922214527258696" lon="12.339800528477921"><ele>105.0</ele><time>2026-04-25T13:04:07.999Z</time></trkpt><trkpt lat="45.92218752969649" lon="12.33990364001216"><ele>105.0</ele><time>2026-04-25T13:04:10.999Z</time></trkpt><trkpt lat="45.92215689557193" lon="12.340003904626643"><ele>105.0</ele><time>2026-04-25T13:04:13.999Z</time></trkpt><trkpt lat="45.922133087900875" lon="12.340108023169847"><ele>105.0</ele><time>2026-04-25T13:04:16.999Z</time></trkpt><trkpt lat="45.9221053707253" lon="12.340210427560372"><ele>105.0</ele><time>2026-04-25T13:04:19.999Z</time></trkpt><trkpt lat="45.92208014979023" lon="12.340322820083337"><ele>105.0</ele><time>2026-04-25T13:04:22.999Z</time></trkpt><trkpt lat="45.922049999360006" lon="12.3404549143954"><ele>105.0</ele><time>2026-04-25T13:04:25.999Z</time></trkpt><trkpt lat="45.92202780359705" lon="12.340566679768541"><ele>105.0</ele><time>2026-04-25T13:04:27.999Z</time></trkpt><trkpt lat="45.922000817898464" lon="12.34069708598053"><ele>105.0</ele><time>2026-04-25T13:04:29.999Z</time></trkpt><trkpt lat="45.92197473987347" lon="12.340850732949852"><ele>105.0</ele><time>2026-04-25T13:04:31.999Z</time></trkpt><trkpt lat="45.92195082185238" lon="12.341020342581707"><ele>105.0</ele><time>2026-04-25T13:04:33.999Z</time></trkpt><trkpt lat="45.92194172286569" lon="12.341113669497991"><ele>105.0</ele><time>2026-04-25T13:04:34.999Z</time></trkpt><trkpt lat="45.921939645857755" lon="12.341208277362808"><ele>105.0</ele><time>2026-04-25T13:04:35.998Z</time></trkpt><trkpt lat="45.92193617458242" lon="12.341306298350794"><ele>105.0</ele><time>2026-04-25T13:04:36.998Z</time></trkpt><trkpt lat="45.92192753192256" lon="12.341405081362058"><ele>105.0</ele><time>2026-04-25T13:04:37.998Z</time></trkpt><trkpt lat="45.92191955015872" lon="12.341502323856417"><ele>105.0</ele><time>2026-04-25T13:04:38.998Z</time></trkpt><trkpt lat="45.921908906911774" lon="12.341602889753418"><ele>105.0</ele><time>2026-04-25T13:04:39.998Z</time></trkpt><trkpt lat="45.921890207758814" lon="12.341701888976353"><ele>105.0</ele><time>2026-04-25T13:04:40.998Z</time></trkpt><trkpt lat="45.92186833359573" lon="12.341802067778588"><ele>103.28571428571429</ele><time>2026-04-25T13:04:41.998Z</time></trkpt><trkpt lat="45.92184556998766" lon="12.341901971989346"><ele>101.57142857142857</ele><time>2026-04-25T13:04:42.998Z</time></trkpt><trkpt lat="45.92182697778744" lon="12.342007420387745"><ele>99.85714285714286</ele><time>2026-04-25T13:04:43.998Z</time></trkpt><trkpt lat="45.92178233017478" lon="12.34209981794362"><ele>98.14285714285714</ele><time>2026-04-25T13:04:44.998Z</time></trkpt><trkpt lat="45.9217644087943" lon="12.342201275015285"><ele>96.42857142857143</ele><time>2026-04-25T13:04:45.998Z</time></trkpt><trkpt lat="45.92174767208013" lon="12.342297017982055"><ele>94.71428571428572</ele><time>2026-04-25T13:04:46.998Z</time></trkpt><trkpt lat="45.921741164182976" lon="12.342405878610576"><ele>93.0</ele><time>2026-04-25T13:04:47.998Z</time></trkpt><trkpt lat="45.92175423006299" lon="12.342530124647968"><ele>92.33333333333333</ele><time>2026-04-25T13:04:48.998Z</time></trkpt><trkpt lat="45.921779865995106" lon="12.342644922987837"><ele>91.66666666666667</ele><time>2026-04-25T13:04:49.998Z</time></trkpt><trkpt lat="45.921806625767665" lon="12.342758060370526"><ele>91.0</ele><time>2026-04-25T13:04:50.998Z</time></trkpt><trkpt lat="45.92183143609727" lon="12.34287584048736"><ele>90.33333333333334</ele><time>2026-04-25T13:04:51.998Z</time></trkpt><trkpt lat="45.92185439263766" lon="12.343003618512576"><ele>89.66666666666667</ele><time>2026-04-25T13:04:52.998Z</time></trkpt><trkpt lat="45.92186586315333" lon="12.343143175606619"><ele>89.0</ele><time>2026-04-25T13:04:53.998Z</time></trkpt><trkpt lat="45.92186281136" lon="12.343283415866054"><ele>88.0</ele><time>2026-04-25T13:04:54.998Z</time></trkpt><trkpt lat="45.921854664653345" lon="12.34342694181633"><ele>87.0</ele><time>2026-04-25T13:04:55.998Z</time></trkpt><trkpt lat="45.921839749705654" lon="12.343564692812723"><ele>86.0</ele><time>2026-04-25T13:04:56.998Z</time></trkpt><trkpt lat="45.921820429736655" lon="12.3436964638232"><ele>85.0</ele><time>2026-04-25T13:04:57.998Z</time></trkpt><trkpt lat="45.92179786862301" lon="12.343828074800513"><ele>84.0</ele><time>2026-04-25T13:04:58.998Z</time></trkpt><trkpt lat="45.92177479267603" lon="12.343954309338894"><ele>83.5</ele><time>2026-04-25T13:04:59.998Z</time></trkpt><trkpt lat="45.921752544297334" lon="12.344076370421517"><ele>83.0</ele><time>2026-04-25T13:05:00.998Z</time></trkpt><trkpt lat="45.921730571708466" lon="12.34419691825261"><ele>82.5</ele><time>2026-04-25T13:05:01.998Z</time></trkpt><trkpt lat="45.92170969627355" lon="12.34431325604416"><ele>82.0</ele><time>2026-04-25T13:05:02.998Z</time></trkpt><trkpt lat="45.92168973421613" lon="12.34442670678536"><ele>81.5</ele><time>2026-04-25T13:05:03.998Z</time></trkpt><trkpt lat="45.92166960544099" lon="12.344541108448"><ele>81.0</ele><time>2026-04-25T13:05:04.998Z</time></trkpt><trkpt lat="45.921650692984066" lon="12.34465485921761"><ele>82.83333333333333</ele><time>2026-04-25T13:05:05.998Z</time></trkpt><trkpt lat="45.92163426571849" lon="12.344769435919217"><ele>84.66666666666667</ele><time>2026-04-25T13:05:06.998Z</time></trkpt><trkpt lat="45.92162494432796" lon="12.344886528457735"><ele>86.5</ele><time>2026-04-25T13:05:07.998Z</time></trkpt><trkpt lat="45.921635007504" lon="12.345010778196261"><ele>88.33333333333334</ele><time>2026-04-25T13:05:08.998Z</time></trkpt><trkpt lat="45.92165008276344" lon="12.34513149095185"><ele>90.16666666666667</ele><time>2026-04-25T13:05:09.998Z</time></trkpt><trkpt lat="45.92166610561914" lon="12.345256918960466"><ele>92.0</ele><time>2026-04-25T13:05:10.998Z</time></trkpt><trkpt lat="45.921683005498764" lon="12.345389212847635"><ele>92.0</ele><time>2026-04-25T13:05:11.998Z</time></trkpt><trkpt lat="45.92170070867554" lon="12.34552779467578"><ele>92.0</ele><time>2026-04-25T13:05:12.998Z</time></trkpt><trkpt lat="45.9217177791287" lon="12.345664218679467"><ele>92.0</ele><time>2026-04-25T13:05:14Z</time></trkpt><trkpt lat="45.92173533199032" lon="12.345806360231286"><ele>92.0</ele><time>2026-04-25T13:05:15Z</time></trkpt><trkpt lat="45.92175268509239" lon="12.345953891225607"><ele>92.0</ele><time>2026-04-25T13:05:16Z</time></trkpt><trkpt lat="45.92176321255275" lon="12.346100180404113"><ele>90.19999999999999</ele><time>2026-04-25T13:05:17Z</time></trkpt><trkpt lat="45.9217625357562" lon="12.34624225089583"><ele>88.4</ele><time>2026-04-25T13:05:18Z</time></trkpt><trkpt lat="45.92175957557032" lon="12.346391512639647"><ele>86.6</ele><time>2026-04-25T13:05:19Z</time></trkpt><trkpt lat="45.921755303482776" lon="12.346540959547127"><ele>84.80000000000001</ele><time>2026-04-25T13:05:20Z</time></trkpt><trkpt lat="45.9217560603908" lon="12.34668513417391"><ele>83.0</ele><time>2026-04-25T13:05:21Z</time></trkpt><trkpt lat="45.921763459049075" lon="12.346831822995334"><ele>82.0</ele><time>2026-04-25T13:05:22Z</time></trkpt><trkpt lat="45.92176612035253" lon="12.346952828471343"><ele>81.0</ele><time>2026-04-25T13:05:23Z</time></trkpt><trkpt lat="45.92175962259116" lon="12.347070975469148"><ele>80.0</ele><time>2026-04-25T13:05:24Z</time></trkpt><trkpt lat="45.92172900085991" lon="12.34717443456404"><ele>79.0</ele><time>2026-04-25T13:05:25Z</time></trkpt><trkpt lat="45.92168174221111" lon="12.347267394316717"><ele>78.0</ele><time>2026-04-25T13:05:26Z</time></trkpt><trkpt lat="45.9216330993879" lon="12.347374646913549"><ele>77.0</ele><time>2026-04-25T13:05:27Z</time></trkpt><trkpt lat="45.92157778799914" lon="12.347474543246438"><ele>75.2</ele><time>2026-04-25T13:05:28Z</time></trkpt><trkpt lat="45.92151031983906" lon="12.347568454580657"><ele>73.4</ele><time>2026-04-25T13:05:29Z</time></trkpt><trkpt lat="45.92143416096176" lon="12.34766748269851"><ele>71.6</ele><time>2026-04-25T13:05:30Z</time></trkpt><trkpt lat="45.92135538347702" lon="12.347763048608595"><ele>69.8</ele><time>2026-04-25T13:05:31Z</time></trkpt><trkpt lat="45.921278258171924" lon="12.347856764043033"><ele>68.0</ele><time>2026-04-25T13:05:32Z</time></trkpt><trkpt lat="45.92120612256038" lon="12.347954269616197"><ele>66.4</ele><time>2026-04-25T13:05:33Z</time></trkpt><trkpt lat="45.92113887708076" lon="12.34807366817441"><ele>64.8</ele><time>2026-04-25T13:05:34Z</time></trkpt><trkpt lat="45.921080511644654" lon="12.348207158198411"><ele>63.2</ele><time>2026-04-25T13:05:35Z</time></trkpt><trkpt lat="45.9210330195913" lon="12.348352003215341"><ele>61.6</ele><time>2026-04-25T13:05:36Z</time></trkpt><trkpt lat="45.920988463308426" lon="12.34849098460906"><ele>60.0</ele><time>2026-04-25T13:05:37Z</time></trkpt><trkpt lat="45.9209628083055" lon="12.348648707978741"><ele>60.0</ele><time>2026-04-25T13:05:38Z</time></trkpt><trkpt lat="45.92095203580083" lon="12.348803316542778"><ele>60.0</ele><time>2026-04-25T13:05:39Z</time></trkpt><trkpt lat="45.92095665215532" lon="12.348951591736435"><ele>60.0</ele><time>2026-04-25T13:05:40Z</time></trkpt><trkpt lat="45.92097287461298" lon="12.34908621951194"><ele>60.0</ele><time>2026-04-25T13:05:41Z</time></trkpt><trkpt lat="45.92099064958414" lon="12.34921628733926"><ele>60.0</ele><time>2026-04-25T13:05:43Z</time></trkpt><trkpt lat="45.92097531673379" lon="12.349104088851709"><ele>60.0</ele><time>2026-04-25T13:05:49Z</time></trkpt><trkpt lat="45.92096168309112" lon="12.349004325369132"><ele>60.0</ele><time>2026-04-25T13:05:51Z</time></trkpt><trkpt lat="45.92095413695834" lon="12.348876854602999"><ele>60.0</ele><time>2026-04-25T13:05:53Z</time></trkpt><trkpt lat="45.92095432653932" lon="12.348750943920937"><ele>60.0</ele><time>2026-04-25T13:05:55Z</time></trkpt><trkpt lat="45.92096772223344" lon="12.348619763120638"><ele>60.0</ele><time>2026-04-25T13:05:57Z</time></trkpt><trkpt lat="45.92099043925274" lon="12.348500441152789"><ele>60.0</ele><time>2026-04-25T13:05:59Z</time></trkpt><trkpt lat="45.92099980855403" lon="12.348408387493308"><ele>60.0</ele><time>2026-04-25T13:06:01Z</time></trkpt><trkpt lat="45.92089983349136" lon="12.348283013827077"><ele>60.0</ele><time>2026-04-25T13:06:04Z</time></trkpt><trkpt lat="45.92082970497687" lon="12.348180001225515"><ele>60.0</ele><time>2026-04-25T13:06:06Z</time></trkpt><trkpt lat="45.92075619608016" lon="12.348093203355448"><ele>60.0</ele><time>2026-04-25T13:06:07.999Z</time></trkpt><trkpt lat="45.920675137932484" lon="12.348022847684307"><ele>60.0</ele><time>2026-04-25T13:06:09.999Z</time></trkpt><trkpt lat="45.92060726296125" lon="12.347936688982315"><ele>60.8</ele><time>2026-04-25T13:06:11.999Z</time></trkpt><trkpt lat="45.92053807324953" lon="12.347847577617095"><ele>61.6</ele><time>2026-04-25T13:06:13.999Z</time></trkpt><trkpt lat="45.92045994875299" lon="12.347755843783332"><ele>62.400000000000006</ele><time>2026-04-25T13:06:15.999Z</time></trkpt><trkpt lat="45.92038013732558" lon="12.347659715139857"><ele>63.2</ele><time>2026-04-25T13:06:17.999Z</time></trkpt><trkpt lat="45.92029879289635" lon="12.347562363755216"><ele>64.0</ele><time>2026-04-25T13:06:19.999Z</time></trkpt><trkpt lat="45.9202166956186" lon="12.347466199967906"><ele>64.0</ele><time>2026-04-25T13:06:21.999Z</time></trkpt><trkpt lat="45.92013849640703" lon="12.34737030525314"><ele>64.0</ele><time>2026-04-25T13:06:23.999Z</time></trkpt><trkpt lat="45.9200661790687" lon="12.347263660178387"><ele>64.0</ele><time>2026-04-25T13:06:25.999Z</time></trkpt><trkpt lat="45.92002383464927" lon="12.347145544921581"><ele>64.0</ele><time>2026-04-25T13:06:27.999Z</time></trkpt><trkpt lat="45.91998736718388" lon="12.34702642983499"><ele>64.0</ele><time>2026-04-25T13:06:29.999Z</time></trkpt><trkpt lat="45.91996029754979" lon="12.346926456679878"><ele>63.99999999999999</ele><time>2026-04-25T13:06:31.999Z</time></trkpt><trkpt lat="45.91993052436202" lon="12.34684248284687"><ele>64.0</ele><time>2026-04-25T13:06:33.998Z</time></trkpt><trkpt lat="45.919892031367496" lon="12.346722820814955"><ele>64.0</ele><time>2026-04-25T13:06:36.998Z</time></trkpt><trkpt lat="45.919852327813736" lon="12.346611811187305"><ele>64.0</ele><time>2026-04-25T13:06:39.998Z</time></trkpt><trkpt lat="45.91980629469316" lon="12.346518429354614"><ele>63.99999999999999</ele><time>2026-04-25T13:06:42.998Z</time></trkpt><trkpt lat="45.919744938955425" lon="12.34642405765357"><ele>64.0</ele><time>2026-04-25T13:06:45.998Z</time></trkpt><trkpt lat="45.91969726858852" lon="12.34635491721641"><ele>64.60000000000001</ele><time>2026-04-25T13:06:47.998Z</time></trkpt><trkpt lat="45.91964247019127" lon="12.34626881229358"><ele>65.2</ele><time>2026-04-25T13:06:49.998Z</time></trkpt><trkpt lat="45.919580312494766" lon="12.346172574545793"><ele>65.80000000000001</ele><time>2026-04-25T13:06:51.998Z</time></trkpt><trkpt lat="45.91951721516747" lon="12.34606570020426"><ele>66.4</ele><time>2026-04-25T13:06:53.998Z</time></trkpt><trkpt lat="45.91945624265373" lon="12.34595387833391"><ele>67.0</ele><time>2026-04-25T13:06:55.997Z</time></trkpt><trkpt lat="45.91938561090175" lon="12.345844769024634"><ele>67.0</ele><time>2026-04-25T13:06:57.997Z</time></trkpt><trkpt lat="45.91931611079419" lon="12.345726976615733"><ele>67.0</ele><time>2026-04-25T13:06:59.997Z</time></trkpt><trkpt lat="45.91925105457091" lon="12.345602348744746"><ele>67.0</ele><time>2026-04-25T13:07:01.997Z</time></trkpt><trkpt lat="45.91918161695269" lon="12.34548073421977"><ele>67.0</ele><time>2026-04-25T13:07:03.997Z</time></trkpt><trkpt lat="45.919113373489694" lon="12.34536469472733"><ele>67.0</ele><time>2026-04-25T13:07:05.997Z</time></trkpt><trkpt lat="45.91904442344059" lon="12.34525032182634"><ele>66.83333333333333</ele><time>2026-04-25T13:07:07.997Z</time></trkpt><trkpt lat="45.91897760404767" lon="12.345137833661784"><ele>66.66666666666666</ele><time>2026-04-25T13:07:09.997Z</time></trkpt><trkpt lat="45.91892460413339" lon="12.345026456984552"><ele>66.5</ele><time>2026-04-25T13:07:11.997Z</time></trkpt><trkpt lat="45.91888901616982" lon="12.34491472086216"><ele>66.33333333333333</ele><time>2026-04-25T13:07:13.997Z</time></trkpt><trkpt lat="45.9188638089515" lon="12.344806789307269"><ele>66.16666666666667</ele><time>2026-04-25T13:07:15.997Z</time></trkpt><trkpt lat="45.918843864939454" lon="12.344711976847508"><ele>66.0</ele><time>2026-04-25T13:07:17.997Z</time></trkpt><trkpt lat="45.91882422622963" lon="12.344622051166553"><ele>66.0</ele><time>2026-04-25T13:07:20Z</time></trkpt><trkpt lat="45.91879337264689" lon="12.344532882436376"><ele>66.0</ele><time>2026-04-25T13:07:22Z</time></trkpt><trkpt lat="45.9187507018627" lon="12.34445221651102"><ele>66.0</ele><time>2026-04-25T13:07:24Z</time></trkpt><trkpt lat="45.918702546419574" lon="12.34437024666996"><ele>66.0</ele><time>2026-04-25T13:07:26Z</time></trkpt><trkpt lat="45.918650372546594" lon="12.34429030116286"><ele>66.0</ele><time>2026-04-25T13:07:28Z</time></trkpt><trkpt lat="45.91859588287786" lon="12.34421048358589"><ele>66.0</ele><time>2026-04-25T13:07:30Z</time></trkpt><trkpt lat="45.91854300374752" lon="12.344121789855208"><ele>66.0</ele><time>2026-04-25T13:07:32Z</time></trkpt><trkpt lat="45.91848345293434" lon="12.344038241144125"><ele>66.0</ele><time>2026-04-25T13:07:34Z</time></trkpt><trkpt lat="45.91841809870645" lon="12.343949315922256"><ele>66.0</ele><time>2026-04-25T13:07:36Z</time></trkpt><trkpt lat="45.91834403328844" lon="12.343854043747116"><ele>66.0</ele><time>2026-04-25T13:07:38Z</time></trkpt><trkpt lat="45.9182598423501" lon="12.343747315021515"><ele>66.0</ele><time>2026-04-25T13:07:40Z</time></trkpt><trkpt lat="45.91816470675372" lon="12.34363214700085"><ele>65.8</ele><time>2026-04-25T13:07:41.999Z</time></trkpt><trkpt lat="45.91808205072792" lon="12.34349947686059"><ele>65.6</ele><time>2026-04-25T13:07:43.999Z</time></trkpt><trkpt lat="45.918021251940104" lon="12.343377908720331"><ele>65.4</ele><time>2026-04-25T13:07:45.999Z</time></trkpt><trkpt lat="45.91797092685594" lon="12.343267184165919"><ele>65.2</ele><time>2026-04-25T13:07:47.999Z</time></trkpt><trkpt lat="45.91794783668172" lon="12.343169291850888"><ele>65.0</ele><time>2026-04-25T13:07:49.999Z</time></trkpt><trkpt lat="45.9178306032273" lon="12.343227511086836"><ele>65.0</ele><time>2026-04-25T13:07:50.999Z</time></trkpt><trkpt lat="45.917723418985354" lon="12.34324326504749"><ele>65.0</ele><time>2026-04-25T13:07:52.999Z</time></trkpt><trkpt lat="45.91761362019578" lon="12.34325923428506"><ele>65.0</ele><time>2026-04-25T13:07:54.999Z</time></trkpt><trkpt lat="45.91750003563278" lon="12.343275283322978"><ele>65.0</ele><time>2026-04-25T13:07:56.999Z</time></trkpt><trkpt lat="45.917382451597106" lon="12.343301072775496"><ele>64.8</ele><time>2026-04-25T13:07:58.999Z</time></trkpt><trkpt lat="45.91726523841472" lon="12.343345671292228"><ele>64.6</ele><time>2026-04-25T13:08:00.999Z</time></trkpt><trkpt lat="45.91714812387505" lon="12.343408249006625"><ele>64.4</ele><time>2026-04-25T13:08:02.999Z</time></trkpt><trkpt lat="45.91708962182826" lon="12.343445199941815"><ele>64.2</ele><time>2026-04-25T13:08:03.999Z</time></trkpt><trkpt lat="45.91696809504642" lon="12.343491937891601"><ele>64.0</ele><time>2026-04-25T13:08:05.999Z</time></trkpt><trkpt lat="45.91691319338131" lon="12.34354164039974"><ele>64.0</ele><time>2026-04-25T13:08:06.999Z</time></trkpt><trkpt lat="45.916850278943336" lon="12.343566099623574"><ele>63.99999999999999</ele><time>2026-04-25T13:08:07.999Z</time></trkpt><trkpt lat="45.91678834102893" lon="12.343592843519348"><ele>64.0</ele><time>2026-04-25T13:08:08.999Z</time></trkpt><trkpt lat="45.91672622672888" lon="12.343619183156676"><ele>64.0</ele><time>2026-04-25T13:08:09.999Z</time></trkpt><trkpt lat="45.91666337721405" lon="12.34364536425901"><ele>63.99999999999999</ele><time>2026-04-25T13:08:10.999Z</time></trkpt><trkpt lat="45.91660166517422" lon="12.343667262017911"><ele>64.0</ele><time>2026-04-25T13:08:11.999Z</time></trkpt><trkpt lat="45.91653900370409" lon="12.34368702176921"><ele>64.0</ele><time>2026-04-25T13:08:12.999Z</time></trkpt><trkpt lat="45.916416617110904" lon="12.343719291137965"><ele>63.800000000000004</ele><time>2026-04-25T13:08:14.999Z</time></trkpt><trkpt lat="45.916296752924815" lon="12.343745577177048"><ele>63.60000000000001</ele><time>2026-04-25T13:08:16.999Z</time></trkpt><trkpt lat="45.9161804549647" lon="12.343737557254494"><ele>63.4</ele><time>2026-04-25T13:08:18.999Z</time></trkpt><trkpt lat="45.916068395873154" lon="12.343781237887912"><ele>63.2</ele><time>2026-04-25T13:08:20.999Z</time></trkpt><trkpt lat="45.915992527884505" lon="12.343749360247104"><ele>63.0</ele><time>2026-04-25T13:08:22.999Z</time></trkpt><trkpt lat="45.91600116347327" lon="12.34360039814824"><ele>63.0</ele><time>2026-04-25T13:08:23.999Z</time></trkpt><trkpt lat="45.91599994337649" lon="12.343453821998128"><ele>63.0</ele><time>2026-04-25T13:08:25.999Z</time></trkpt><trkpt lat="45.91600930481855" lon="12.343308342458398"><ele>63.0</ele><time>2026-04-25T13:08:27.998Z</time></trkpt><trkpt lat="45.916022221661144" lon="12.343166728812172"><ele>63.0</ele><time>2026-04-25T13:08:29.998Z</time></trkpt><trkpt lat="45.91603601788787" lon="12.343031608711335"><ele>63.0</ele><time>2026-04-25T13:08:31.998Z</time></trkpt><trkpt lat="45.916057369667" lon="12.342904052186732"><ele>63.166666666666664</ele><time>2026-04-25T13:08:33.998Z</time></trkpt><trkpt lat="45.91605844270739" lon="12.34279579522997"><ele>63.33333333333333</ele><time>2026-04-25T13:08:35.998Z</time></trkpt><trkpt lat="45.9161261435987" lon="12.342695315392255"><ele>63.5</ele><time>2026-04-25T13:08:37.998Z</time></trkpt><trkpt lat="45.91617715556017" lon="12.342602786295068"><ele>63.666666666666664</ele><time>2026-04-25T13:08:39.998Z</time></trkpt><trkpt lat="45.916228117397125" lon="12.342504993553643"><ele>63.83333333333333</ele><time>2026-04-25T13:08:41.998Z</time></trkpt><trkpt lat="45.91626855536527" lon="12.34239739351586"><ele>64.0</ele><time>2026-04-25T13:08:43.998Z</time></trkpt><trkpt lat="45.91631094638315" lon="12.342291322982444"><ele>64.66666666666666</ele><time>2026-04-25T13:08:45.998Z</time></trkpt><trkpt lat="45.91635316823649" lon="12.342181978372617"><ele>65.33333333333333</ele><time>2026-04-25T13:08:47.998Z</time></trkpt><trkpt lat="45.91639813292413" lon="12.342074481744062"><ele>66.0</ele><time>2026-04-25T13:08:49.998Z</time></trkpt><trkpt lat="45.91644368404761" lon="12.341973798357008"><ele>66.66666666666667</ele><time>2026-04-25T13:08:51.998Z</time></trkpt><trkpt lat="45.91649371904126" lon="12.341883107394949"><ele>67.33333333333334</ele><time>2026-04-25T13:08:53.998Z</time></trkpt><trkpt lat="45.91654336186018" lon="12.3418038754486"><ele>68.0</ele><time>2026-04-25T13:08:55.998Z</time></trkpt><trkpt lat="45.916587275720616" lon="12.341720949499734"><ele>68.0</ele><time>2026-04-25T13:08:57.998Z</time></trkpt><trkpt lat="45.91665705243946" lon="12.341659387099494"><ele>68.0</ele><time>2026-04-25T13:09:00.998Z</time></trkpt><trkpt lat="45.91661882644873" lon="12.34148344336116"><ele>68.0</ele><time>2026-04-25T13:09:02.998Z</time></trkpt><trkpt lat="45.91657593227057" lon="12.341386955086508"><ele>68.0</ele><time>2026-04-25T13:09:05.998Z</time></trkpt><trkpt lat="45.916561428326894" lon="12.341288391407256"><ele>68.0</ele><time>2026-04-25T13:09:08.998Z</time></trkpt><trkpt lat="45.91655601025433" lon="12.341197868275561"><ele>68.0</ele><time>2026-04-25T13:09:11.998Z</time></trkpt><trkpt lat="45.91655951110704" lon="12.341103804777251"><ele>68.71428571428571</ele><time>2026-04-25T13:09:14.997Z</time></trkpt><trkpt lat="45.916559508848664" lon="12.34100586885695"><ele>69.42857142857143</ele><time>2026-04-25T13:09:17.997Z</time></trkpt><trkpt lat="45.916556222106344" lon="12.340904849168414"><ele>70.14285714285714</ele><time>2026-04-25T13:09:20.997Z</time></trkpt><trkpt lat="45.916554504003166" lon="12.340799678812228"><ele>70.85714285714286</ele><time>2026-04-25T13:09:23.997Z</time></trkpt><trkpt lat="45.916557939173614" lon="12.34068772890736"><ele>71.57142857142857</ele><time>2026-04-25T13:09:27Z</time></trkpt><trkpt lat="45.91656757252862" lon="12.340574642706141"><ele>72.28571428571428</ele><time>2026-04-25T13:09:30Z</time></trkpt><trkpt lat="45.916588119975" lon="12.340463016523652"><ele>73.0</ele><time>2026-04-25T13:09:33Z</time></trkpt><trkpt lat="45.91662566057788" lon="12.340358689847067"><ele>73.16666666666666</ele><time>2026-04-25T13:09:36Z</time></trkpt><trkpt lat="45.91666949841482" lon="12.340259270912552"><ele>73.33333333333333</ele><time>2026-04-25T13:09:39Z</time></trkpt><trkpt lat="45.91672010728679" lon="12.340162942444485"><ele>73.5</ele><time>2026-04-25T13:09:42Z</time></trkpt><trkpt lat="45.91677461023298" lon="12.340069010114778"><ele>73.66666666666667</ele><time>2026-04-25T13:09:45Z</time></trkpt><trkpt lat="45.91682453957069" lon="12.33996818555003"><ele>73.83333333333334</ele><time>2026-04-25T13:09:48Z</time></trkpt><trkpt lat="45.916867588906136" lon="12.33986024469552"><ele>74.0</ele><time>2026-04-25T13:09:51Z</time></trkpt><trkpt lat="45.91690158380354" lon="12.339749195108853"><ele>73.83333333333334</ele><time>2026-04-25T13:09:54Z</time></trkpt><trkpt lat="45.91692474662519" lon="12.339634938813344"><ele>73.66666666666667</ele><time>2026-04-25T13:09:57Z</time></trkpt><trkpt lat="45.916947925110264" lon="12.339521753718314"><ele>73.5</ele><time>2026-04-25T13:09:59.999Z</time></trkpt><trkpt lat="45.91696879948463" lon="12.339402592268142"><ele>73.33333333333333</ele><time>2026-04-25T13:10:02.999Z</time></trkpt><trkpt lat="45.91698787175623" lon="12.339281072648301"><ele>73.16666666666666</ele><time>2026-04-25T13:10:05.999Z</time></trkpt><trkpt lat="45.91700579909973" lon="12.339158440248294"><ele>73.0</ele><time>2026-04-25T13:10:08.999Z</time></trkpt><trkpt lat="45.91702491953077" lon="12.33903850542375"><ele>73.0</ele><time>2026-04-25T13:10:11.999Z</time></trkpt><trkpt lat="45.91705047595448" lon="12.338916550836432"><ele>73.0</ele><time>2026-04-25T13:10:14.999Z</time></trkpt><trkpt lat="45.917069465646314" lon="12.338826028326427"><ele>73.0</ele><time>2026-04-25T13:10:16.999Z</time></trkpt><trkpt lat="45.917099277688834" lon="12.338738405953995"><ele>73.0</ele><time>2026-04-25T13:10:18.999Z</time></trkpt><trkpt lat="45.91713188759914" lon="12.338643507092813"><ele>73.0</ele><time>2026-04-25T13:10:20.999Z</time></trkpt><trkpt lat="45.91716027283133" lon="12.338541343346712"><ele>73.0</ele><time>2026-04-25T13:10:22.999Z</time></trkpt><trkpt lat="45.917197692110406" lon="12.3384417285505"><ele>73.83333333333333</ele><time>2026-04-25T13:10:24.999Z</time></trkpt><trkpt lat="45.91722927485851" lon="12.33833602307141"><ele>74.66666666666666</ele><time>2026-04-25T13:10:26.999Z</time></trkpt><trkpt lat="45.91725944784272" lon="12.33822719826979"><ele>75.5</ele><time>2026-04-25T13:10:28.999Z</time></trkpt><trkpt lat="45.9172895499086" lon="12.33811571934096"><ele>76.33333333333333</ele><time>2026-04-25T13:10:30.999Z</time></trkpt><trkpt lat="45.91731385041198" lon="12.337997832286636"><ele>77.16666666666667</ele><time>2026-04-25T13:10:32.999Z</time></trkpt><trkpt lat="45.91732966743032" lon="12.337871477682118"><ele>78.0</ele><time>2026-04-25T13:10:34.999Z</time></trkpt><trkpt lat="45.917335845998934" lon="12.337743048943071"><ele>78.4</ele><time>2026-04-25T13:10:36.999Z</time></trkpt><trkpt lat="45.91733228687952" lon="12.337609111654226"><ele>78.8</ele><time>2026-04-25T13:10:38.999Z</time></trkpt><trkpt lat="45.91729759699814" lon="12.337485200287622"><ele>79.2</ele><time>2026-04-25T13:10:40.999Z</time></trkpt><trkpt lat="45.91722098194238" lon="12.337387626432369"><ele>79.6</ele><time>2026-04-25T13:10:42.999Z</time></trkpt><trkpt lat="45.91713445494075" lon="12.337319106633394"><ele>80.0</ele><time>2026-04-25T13:10:44.998Z</time></trkpt><trkpt lat="45.91705781687424" lon="12.337236265687293"><ele>80.4</ele><time>2026-04-25T13:10:46.998Z</time></trkpt><trkpt lat="45.9170102459001" lon="12.337111992797446"><ele>80.8</ele><time>2026-04-25T13:10:48.998Z</time></trkpt><trkpt lat="45.91702118289721" lon="12.336967164300336"><ele>81.19999999999999</ele><time>2026-04-25T13:10:50.998Z</time></trkpt><trkpt lat="45.91706677134013" lon="12.3368362538546"><ele>81.6</ele><time>2026-04-25T13:10:52.998Z</time></trkpt><trkpt lat="45.91711324457619" lon="12.336705966258657"><ele>82.0</ele><time>2026-04-25T13:10:54.998Z</time></trkpt><trkpt lat="45.917161731156895" lon="12.336575821701302"><ele>82.0</ele><time>2026-04-25T13:10:56.998Z</time></trkpt><trkpt lat="45.91720801276782" lon="12.336442684064584"><ele>82.0</ele><time>2026-04-25T13:10:58.998Z</time></trkpt><trkpt lat="45.91726035580912" lon="12.336319688633216"><ele>82.0</ele><time>2026-04-25T13:11:00.998Z</time></trkpt><trkpt lat="45.917310799320525" lon="12.336198509118585"><ele>82.0</ele><time>2026-04-25T13:11:02.998Z</time></trkpt><trkpt lat="45.917349421208804" lon="12.336077083554661"><ele>82.0</ele><time>2026-04-25T13:11:04.998Z</time></trkpt><trkpt lat="45.91739872321872" lon="12.335972009735322"><ele>82.57142857142857</ele><time>2026-04-25T13:11:06.998Z</time></trkpt><trkpt lat="45.91744105016175" lon="12.335875235930313"><ele>83.14285714285714</ele><time>2026-04-25T13:11:08.998Z</time></trkpt><trkpt lat="45.91748468090818" lon="12.33579325906306"><ele>83.71428571428572</ele><time>2026-04-25T13:11:10.998Z</time></trkpt><trkpt lat="45.917533794055934" lon="12.335731247845892"><ele>84.28571428571428</ele><time>2026-04-25T13:11:12.998Z</time></trkpt><trkpt lat="45.91758399615243" lon="12.335673745274327"><ele>84.85714285714286</ele><time>2026-04-25T13:11:14.998Z</time></trkpt><trkpt lat="45.91765034460133" lon="12.33560489842073"><ele>85.42857142857143</ele><time>2026-04-25T13:11:17.998Z</time></trkpt><trkpt lat="45.91772011404537" lon="12.335541606325442"><ele>86.0</ele><time>2026-04-25T13:11:20.998Z</time></trkpt><trkpt lat="45.91778605163009" lon="12.335479518756141"><ele>87.14285714285715</ele><time>2026-04-25T13:11:24.998Z</time></trkpt><trkpt lat="45.91784236935776" lon="12.335433131737906"><ele>88.28571428571429</ele><time>2026-04-25T13:11:27.998Z</time></trkpt><trkpt lat="45.91789839166603" lon="12.335386582882137"><ele>89.42857142857143</ele><time>2026-04-25T13:11:30.997Z</time></trkpt><trkpt lat="45.91795689768062" lon="12.335340651222607"><ele>90.57142857142858</ele><time>2026-04-25T13:11:34Z</time></trkpt><trkpt lat="45.91801337772724" lon="12.335281105363892"><ele>91.71428571428571</ele><time>2026-04-25T13:11:37Z</time></trkpt><trkpt lat="45.91806768191854" lon="12.335221546972654"><ele>92.85714285714286</ele><time>2026-04-25T13:11:40Z</time></trkpt><trkpt lat="45.91812114690817" lon="12.335160828373665"><ele>94.0</ele><time>2026-04-25T13:11:43Z</time></trkpt><trkpt lat="45.91817344912025" lon="12.335096055787155"><ele>94.0</ele><time>2026-04-25T13:11:46Z</time></trkpt><trkpt lat="45.91822108128116" lon="12.335029259836038"><ele>94.0</ele><time>2026-04-25T13:11:49Z</time></trkpt><trkpt lat="45.918266857495084" lon="12.3349620115712"><ele>94.0</ele><time>2026-04-25T13:11:52Z</time></trkpt><trkpt lat="45.91831496612415" lon="12.334896500296878"><ele>94.0</ele><time>2026-04-25T13:11:55Z</time></trkpt><trkpt lat="45.91835847557809" lon="12.334814898325767"><ele>94.0</ele><time>2026-04-25T13:11:58Z</time></trkpt><trkpt lat="45.918391804599956" lon="12.334709431254655"><ele>94.0</ele><time>2026-04-25T13:12:01Z</time></trkpt><trkpt lat="45.91840578564604" lon="12.33458880879145"><ele>94.0</ele><time>2026-04-25T13:12:04Z</time></trkpt><trkpt lat="45.91840800361172" lon="12.33446094834181"><ele>94.4</ele><time>2026-04-25T13:12:07Z</time></trkpt><trkpt lat="45.91840762270897" lon="12.334328769444634"><ele>94.80000000000001</ele><time>2026-04-25T13:12:10Z</time></trkpt><trkpt lat="45.91839952505314" lon="12.334197565721816"><ele>95.19999999999999</ele><time>2026-04-25T13:12:13Z</time></trkpt><trkpt lat="45.91838416745112" lon="12.334071878225219"><ele>95.6</ele><time>2026-04-25T13:12:16Z</time></trkpt><trkpt lat="45.91835361021923" lon="12.33395170657699"><ele>96.0</ele><time>2026-04-25T13:12:18.999Z</time></trkpt><trkpt lat="45.918314174409474" lon="12.333834010583793"><ele>96.57142857142857</ele><time>2026-04-25T13:12:21.999Z</time></trkpt><trkpt lat="45.918279823392794" lon="12.333757288802365"><ele>97.14285714285714</ele><time>2026-04-25T13:12:23.999Z</time></trkpt><trkpt lat="45.918244766475766" lon="12.333681509904775"><ele>97.71428571428572</ele><time>2026-04-25T13:12:25.999Z</time></trkpt><trkpt lat="45.91821506547571" lon="12.333601045436467"><ele>98.28571428571428</ele><time>2026-04-25T13:12:27.999Z</time></trkpt><trkpt lat="45.91818297060701" lon="12.333520577921302"><ele>98.85714285714286</ele><time>2026-04-25T13:12:29.999Z</time></trkpt><trkpt lat="45.918138225969194" lon="12.333408721676939"><ele>99.42857142857143</ele><time>2026-04-25T13:12:32.999Z</time></trkpt><trkpt lat="45.918094941612466" lon="12.333314361868963"><ele>100.0</ele><time>2026-04-25T13:12:35.999Z</time></trkpt><trkpt lat="45.91800640945453" lon="12.333331363378084"><ele>100.0</ele><time>2026-04-25T13:12:38.999Z</time></trkpt><trkpt lat="45.9179076833724" lon="12.333366353055276"><ele>100.0</ele><time>2026-04-25T13:12:40.999Z</time></trkpt><trkpt lat="45.91779938488002" lon="12.33338046383106"><ele>100.0</ele><time>2026-04-25T13:12:42.999Z</time></trkpt><trkpt lat="45.91768765173381" lon="12.33334908658556"><ele>100.0</ele><time>2026-04-25T13:12:44.999Z</time></trkpt><trkpt lat="45.917575755923906" lon="12.33330188812413"><ele>100.0</ele><time>2026-04-25T13:12:46.999Z</time></trkpt><trkpt lat="45.917459430081315" lon="12.33325930962435"><ele>99.25</ele><time>2026-04-25T13:12:48.999Z</time></trkpt><trkpt lat="45.917342187887456" lon="12.333232990211346"><ele>98.5</ele><time>2026-04-25T13:12:50.999Z</time></trkpt><trkpt lat="45.917218799985086" lon="12.333223464763599"><ele>97.75</ele><time>2026-04-25T13:12:52.999Z</time></trkpt><trkpt lat="45.917086533251755" lon="12.333202169921343"><ele>97.0</ele><time>2026-04-25T13:12:54.999Z</time></trkpt><trkpt lat="45.91696854023924" lon="12.333259529081632"><ele>97.0</ele><time>2026-04-25T13:12:56.999Z</time></trkpt><trkpt lat="45.916910684063744" lon="12.33330071348373"><ele>97.0</ele><time>2026-04-25T13:12:57.999Z</time></trkpt><trkpt lat="45.91679738885711" lon="12.333371866440455"><ele>97.0</ele><time>2026-04-25T13:12:59.999Z</time></trkpt><trkpt lat="45.916695193538466" lon="12.333448823109492"><ele>97.0</ele><time>2026-04-25T13:13:01.999Z</time></trkpt><trkpt lat="45.91660656972235" lon="12.333512453714132"><ele>97.0</ele><time>2026-04-25T13:13:03.998Z</time></trkpt><trkpt lat="45.91653495363545" lon="12.333552984208003"><ele>96.50000000000001</ele><time>2026-04-25T13:13:05.998Z</time></trkpt><trkpt lat="45.91645483630107" lon="12.333528343313656"><ele>96.0</ele><time>2026-04-25T13:13:07.998Z</time></trkpt><trkpt lat="45.916361718859164" lon="12.33353610424648"><ele>95.5</ele><time>2026-04-25T13:13:09.998Z</time></trkpt><trkpt lat="45.91626601765186" lon="12.33355823878293"><ele>95.0</ele><time>2026-04-25T13:13:11.998Z</time></trkpt><trkpt lat="45.91616275424474" lon="12.3335920546208"><ele>94.5</ele><time>2026-04-25T13:13:13.998Z</time></trkpt><trkpt lat="45.91609461356711" lon="12.333614775807657"><ele>94.0</ele><time>2026-04-25T13:13:14.998Z</time></trkpt><trkpt lat="45.91601907207183" lon="12.333627433547775"><ele>94.0</ele><time>2026-04-25T13:13:15.998Z</time></trkpt><trkpt lat="45.91594794513074" lon="12.333623316216151"><ele>94.0</ele><time>2026-04-25T13:13:16.998Z</time></trkpt><trkpt lat="45.91587422659169" lon="12.333639270406394"><ele>94.0</ele><time>2026-04-25T13:13:17.998Z</time></trkpt><trkpt lat="45.91580218197073" lon="12.333655209455765"><ele>94.0</ele><time>2026-04-25T13:13:18.998Z</time></trkpt><trkpt lat="45.91572408499924" lon="12.33367256838987"><ele>94.0</ele><time>2026-04-25T13:13:19.998Z</time></trkpt><trkpt lat="45.91564549274746" lon="12.333690037414227"><ele>94.0</ele><time>2026-04-25T13:13:20.998Z</time></trkpt><trkpt lat="45.91556143828862" lon="12.333708720540491"><ele>93.5</ele><time>2026-04-25T13:13:21.998Z</time></trkpt><trkpt lat="45.91547575423487" lon="12.333727765877988"><ele>93.0</ele><time>2026-04-25T13:13:22.998Z</time></trkpt><trkpt lat="45.915396740131165" lon="12.333743293636598"><ele>92.5</ele><time>2026-04-25T13:13:23.998Z</time></trkpt><trkpt lat="45.91531935989403" lon="12.333756115553465"><ele>92.0</ele><time>2026-04-25T13:13:24.998Z</time></trkpt><trkpt lat="45.915243169288004" lon="12.33376856384133"><ele>91.5</ele><time>2026-04-25T13:13:25.998Z</time></trkpt><trkpt lat="45.91515705066462" lon="12.333782924098683"><ele>91.0</ele><time>2026-04-25T13:13:26.998Z</time></trkpt><trkpt lat="45.91507068693709" lon="12.33379866485013"><ele>90.33333333333333</ele><time>2026-04-25T13:13:27.998Z</time></trkpt><trkpt lat="45.91498392608228" lon="12.333823814932805"><ele>89.66666666666666</ele><time>2026-04-25T13:13:28.998Z</time></trkpt><trkpt lat="45.91489617571873" lon="12.333863928710347"><ele>89.0</ele><time>2026-04-25T13:13:29.998Z</time></trkpt><trkpt lat="45.914819359295414" lon="12.33392734021689"><ele>88.33333333333333</ele><time>2026-04-25T13:13:30.998Z</time></trkpt><trkpt lat="45.9147395977324" lon="12.333981658435619"><ele>87.66666666666667</ele><time>2026-04-25T13:13:31.998Z</time></trkpt><trkpt lat="45.91466636392264" lon="12.33405001807262"><ele>87.0</ele><time>2026-04-25T13:13:32.998Z</time></trkpt><trkpt lat="45.91457930178482" lon="12.334105065374883"><ele>86.0</ele><time>2026-04-25T13:13:33.998Z</time></trkpt><trkpt lat="45.9145009722485" lon="12.334177411226614"><ele>85.0</ele><time>2026-04-25T13:13:34.998Z</time></trkpt><trkpt lat="45.914421831408205" lon="12.334256904911316"><ele>84.0</ele><time>2026-04-25T13:13:35.998Z</time></trkpt><trkpt lat="45.914346754093614" lon="12.334334167998406"><ele>83.0</ele><time>2026-04-25T13:13:36.998Z</time></trkpt><trkpt lat="45.91426553942513" lon="12.334417747120126"><ele>82.0</ele><time>2026-04-25T13:13:38Z</time></trkpt><trkpt lat="45.914184015722284" lon="12.334498515628558"><ele>81.6</ele><time>2026-04-25T13:13:39Z</time></trkpt><trkpt lat="45.914100292252904" lon="12.33458029927054"><ele>81.19999999999999</ele><time>2026-04-25T13:13:40Z</time></trkpt><trkpt lat="45.91401663414839" lon="12.334662019115454"><ele>80.8</ele><time>2026-04-25T13:13:41Z</time></trkpt><trkpt lat="45.9139336256924" lon="12.334742097469583"><ele>80.4</ele><time>2026-04-25T13:13:42Z</time></trkpt><trkpt lat="45.91385150983474" lon="12.334821108114745"><ele>80.0</ele><time>2026-04-25T13:13:43Z</time></trkpt><trkpt lat="45.91376913397791" lon="12.334900368913525"><ele>79.0</ele><time>2026-04-25T13:13:44Z</time></trkpt><trkpt lat="45.91368781696105" lon="12.334978610917197"><ele>78.0</ele><time>2026-04-25T13:13:45Z</time></trkpt><trkpt lat="45.91360430591184" lon="12.335057003199955"><ele>77.0</ele><time>2026-04-25T13:13:46Z</time></trkpt><trkpt lat="45.913532180488204" lon="12.335148775391241"><ele>76.0</ele><time>2026-04-25T13:13:47Z</time></trkpt><trkpt lat="45.91345548834943" lon="12.33521524251435"><ele>75.0</ele><time>2026-04-25T13:13:48Z</time></trkpt><trkpt lat="45.9133858975269" lon="12.33527897799152"><ele>74.83333333333333</ele><time>2026-04-25T13:13:49Z</time></trkpt><trkpt lat="45.91332068313847" lon="12.33533894636894"><ele>74.66666666666667</ele><time>2026-04-25T13:13:50Z</time></trkpt><trkpt lat="45.91325756599933" lon="12.335396242402254"><ele>74.5</ele><time>2026-04-25T13:13:51Z</time></trkpt><trkpt lat="45.91320391015927" lon="12.33544682192758"><ele>74.33333333333334</ele><time>2026-04-25T13:13:52Z</time></trkpt><trkpt lat="45.913104717275765" lon="12.335493037010918"><ele>74.16666666666667</ele><time>2026-04-25T13:13:54Z</time></trkpt><trkpt lat="45.91302524419257" lon="12.335410242028004"><ele>74.0</ele><time>2026-04-25T13:13:56Z</time></trkpt><trkpt lat="45.912981921597854" lon="12.33527786096824"><ele>74.0</ele><time>2026-04-25T13:13:58Z</time></trkpt><trkpt lat="45.912935826608276" lon="12.335165221665571"><ele>74.0</ele><time>2026-04-25T13:14:00Z</time></trkpt><trkpt lat="45.91290191493889" lon="12.335062994334065"><ele>74.0</ele><time>2026-04-25T13:14:01Z</time></trkpt><trkpt lat="45.91285110236129" lon="12.334946118059621"><ele>74.0</ele><time>2026-04-25T13:14:03Z</time></trkpt><trkpt lat="45.912805815689865" lon="12.334852407556443"><ele>74.0</ele><time>2026-04-25T13:14:05Z</time></trkpt><trkpt lat="45.91271690881567" lon="12.334768706663509"><ele>74.0</ele><time>2026-04-25T13:14:08Z</time></trkpt><trkpt lat="45.91263678200749" lon="12.334743533110933"><ele>74.0</ele><time>2026-04-25T13:14:10Z</time></trkpt><trkpt lat="45.91256031982295" lon="12.334728331099921"><ele>74.0</ele><time>2026-04-25T13:14:12Z</time></trkpt><trkpt lat="45.912475470865004" lon="12.334719246762901"><ele>74.0</ele><time>2026-04-25T13:14:14Z</time></trkpt><trkpt lat="45.91239952796459" lon="12.334700946055948"><ele>74.0</ele><time>2026-04-25T13:14:16Z</time></trkpt><trkpt lat="45.91232546025164" lon="12.334676448320154"><ele>74.0</ele><time>2026-04-25T13:14:18Z</time></trkpt><trkpt lat="45.91225282606822" lon="12.334652718681136"><ele>74.66666666666667</ele><time>2026-04-25T13:14:20Z</time></trkpt><trkpt lat="45.91218282172022" lon="12.334636354208287"><ele>75.33333333333334</ele><time>2026-04-25T13:14:22Z</time></trkpt><trkpt lat="45.91210587959896" lon="12.334621699254164"><ele>76.0</ele><time>2026-04-25T13:14:23.999Z</time></trkpt><trkpt lat="45.91202448666598" lon="12.334609982696065"><ele>76.66666666666667</ele><time>2026-04-25T13:14:25.999Z</time></trkpt><trkpt lat="45.91192545404185" lon="12.33463661432477"><ele>77.33333333333333</ele><time>2026-04-25T13:14:27.999Z</time></trkpt><trkpt lat="45.91183397611863" lon="12.334708847022204"><ele>78.0</ele><time>2026-04-25T13:14:29.999Z</time></trkpt><trkpt lat="45.91173168282255" lon="12.33480103548658"><ele>76.75</ele><time>2026-04-25T13:14:31.998Z</time></trkpt><trkpt lat="45.91167883976669" lon="12.334852620428713"><ele>75.5</ele><time>2026-04-25T13:14:32.998Z</time></trkpt><trkpt lat="45.911627214822495" lon="12.33490633482552"><ele>74.25</ele><time>2026-04-25T13:14:33.998Z</time></trkpt><trkpt lat="45.91157661542918" lon="12.334960253146322"><ele>73.0</ele><time>2026-04-25T13:14:34.998Z</time></trkpt><trkpt lat="45.91152692206256" lon="12.335016925574584"><ele>71.75</ele><time>2026-04-25T13:14:35.998Z</time></trkpt><trkpt lat="45.91147750988603" lon="12.335075013304474"><ele>70.5</ele><time>2026-04-25T13:14:36.998Z</time></trkpt><trkpt lat="45.91142874211165" lon="12.335134764532857"><ele>69.25</ele><time>2026-04-25T13:14:37.998Z</time></trkpt><trkpt lat="45.911381893304984" lon="12.335197083646475"><ele>68.0</ele><time>2026-04-25T13:14:38.998Z</time></trkpt><trkpt lat="45.911336434610355" lon="12.335262519265992"><ele>68.0</ele><time>2026-04-25T13:14:39.998Z</time></trkpt><trkpt lat="45.91129066818779" lon="12.3353283180124"><ele>68.0</ele><time>2026-04-25T13:14:40.998Z</time></trkpt><trkpt lat="45.91124735526555" lon="12.335397180996493"><ele>68.0</ele><time>2026-04-25T13:14:41.998Z</time></trkpt><trkpt lat="45.911200537997466" lon="12.335464442890224"><ele>68.0</ele><time>2026-04-25T13:14:42.998Z</time></trkpt><trkpt lat="45.91110633455024" lon="12.335586850015412"><ele>68.0</ele><time>2026-04-25T13:14:44.998Z</time></trkpt><trkpt lat="45.91100435943006" lon="12.335691097152582"><ele>68.0</ele><time>2026-04-25T13:14:46.998Z</time></trkpt><trkpt lat="45.910898982147664" lon="12.33578577323516"><ele>67.5</ele><time>2026-04-25T13:14:48.998Z</time></trkpt><trkpt lat="45.910846324735495" lon="12.33583545724586"><ele>67.0</ele><time>2026-04-25T13:14:49.998Z</time></trkpt><trkpt lat="45.9107944099389" lon="12.33588934368437"><ele>66.5</ele><time>2026-04-25T13:14:50.998Z</time></trkpt><trkpt lat="45.91074397408802" lon="12.335946843094831"><ele>66.0</ele><time>2026-04-25T13:14:51.998Z</time></trkpt><trkpt lat="45.91064747567973" lon="12.33606324455419"><ele>65.5</ele><time>2026-04-25T13:14:53.998Z</time></trkpt><trkpt lat="45.91055707612322" lon="12.33617999676364"><ele>65.0</ele><time>2026-04-25T13:14:55.998Z</time></trkpt><trkpt lat="45.91047516902731" lon="12.336296892017891"><ele>65.0</ele><time>2026-04-25T13:14:57.998Z</time></trkpt><trkpt lat="45.91040265440582" lon="12.336410123780682"><ele>65.0</ele><time>2026-04-25T13:14:59.998Z</time></trkpt><trkpt lat="45.91034585653557" lon="12.33650444457486"><ele>65.0</ele><time>2026-04-25T13:15:01.998Z</time></trkpt><trkpt lat="45.91029071281874" lon="12.336555272733033"><ele>65.0</ele><time>2026-04-25T13:15:03.998Z</time></trkpt><trkpt lat="45.91020890266529" lon="12.33647930408418"><ele>65.0</ele><time>2026-04-25T13:15:05.998Z</time></trkpt><trkpt lat="45.91013147176049" lon="12.336407870481985"><ele>65.0</ele><time>2026-04-25T13:15:07.998Z</time></trkpt><trkpt lat="45.91004930023327" lon="12.33634398974767"><ele>65.0</ele><time>2026-04-25T13:15:09.998Z</time></trkpt><trkpt lat="45.90996794907343" lon="12.336270610795422"><ele>65.0</ele><time>2026-04-25T13:15:11.998Z</time></trkpt><trkpt lat="45.90989267102041" lon="12.336178193021091"><ele>65.0</ele><time>2026-04-25T13:15:13.998Z</time></trkpt><trkpt lat="45.90982398083554" lon="12.336073921213519"><ele>65.0</ele><time>2026-04-25T13:15:15.998Z</time></trkpt><trkpt lat="45.90975255500109" lon="12.335971910887757"><ele>65.0</ele><time>2026-04-25T13:15:17.997Z</time></trkpt><trkpt lat="45.90967959023072" lon="12.335867035917808"><ele>65.0</ele><time>2026-04-25T13:15:19.997Z</time></trkpt><trkpt lat="45.90960375819476" lon="12.335759349315488"><ele>65.0</ele><time>2026-04-25T13:15:21.997Z</time></trkpt><trkpt lat="45.909530873674335" lon="12.335641648378616"><ele>65.0</ele><time>2026-04-25T13:15:23.997Z</time></trkpt><trkpt lat="45.90944950947912" lon="12.33552577916466"><ele>65.0</ele><time>2026-04-25T13:15:25.997Z</time></trkpt><trkpt lat="45.909377242716836" lon="12.3353934633932"><ele>65.0</ele><time>2026-04-25T13:15:27.997Z</time></trkpt><trkpt lat="45.90932956938199" lon="12.33523568120213"><ele>65.0</ele><time>2026-04-25T13:15:29.997Z</time></trkpt><trkpt lat="45.9092941163791" lon="12.335074005865424"><ele>65.0</ele><time>2026-04-25T13:15:31.997Z</time></trkpt><trkpt lat="45.909257543336714" lon="12.33491260735034"><ele>65.0</ele><time>2026-04-25T13:15:33.997Z</time></trkpt><trkpt lat="45.909216032327755" lon="12.334757897322469"><ele>65.0</ele><time>2026-04-25T13:15:35.997Z</time></trkpt><trkpt lat="45.90916156167448" lon="12.334614958349496"><ele>64.5</ele><time>2026-04-25T13:15:37.997Z</time></trkpt><trkpt lat="45.90909456443663" lon="12.334482287674948"><ele>64.0</ele><time>2026-04-25T13:15:39.997Z</time></trkpt><trkpt lat="45.90902483367208" lon="12.334352910103952"><ele>63.5</ele><time>2026-04-25T13:15:41.997Z</time></trkpt><trkpt lat="45.90895510141084" lon="12.334222047696816"><ele>63.0</ele><time>2026-04-25T13:15:44Z</time></trkpt><trkpt lat="45.90888186261627" lon="12.334087937618989"><ele>63.0</ele><time>2026-04-25T13:15:46Z</time></trkpt><trkpt lat="45.90880828019584" lon="12.333955113097712"><ele>63.0</ele><time>2026-04-25T13:15:48Z</time></trkpt><trkpt lat="45.908734471556436" lon="12.333821314533974"><ele>63.0</ele><time>2026-04-25T13:15:50Z</time></trkpt><trkpt lat="45.9086591588195" lon="12.33368773648498"><ele>63.0</ele><time>2026-04-25T13:15:52Z</time></trkpt><trkpt lat="45.90858463928371" lon="12.333554776696323"><ele>63.0</ele><time>2026-04-25T13:15:54Z</time></trkpt><trkpt lat="45.90851495840262" lon="12.33341565971251"><ele>63.0</ele><time>2026-04-25T13:15:56Z</time></trkpt><trkpt lat="45.908450559336195" lon="12.333269327175422"><ele>63.0</ele><time>2026-04-25T13:15:58Z</time></trkpt><trkpt lat="45.90836443279584" lon="12.333148674185992"><ele>63.0</ele><time>2026-04-25T13:16:00Z</time></trkpt><trkpt lat="45.90832447478828" lon="12.333076031467328"><ele>63.0</ele><time>2026-04-25T13:16:01Z</time></trkpt><trkpt lat="45.908270440568046" lon="12.333025377772152"><ele>63.0</ele><time>2026-04-25T13:16:02Z</time></trkpt><trkpt lat="45.90815977277069" lon="12.3329374077449"><ele>63.0</ele><time>2026-04-25T13:16:04Z</time></trkpt><trkpt lat="45.90804959236652" lon="12.33286017766603"><ele>63.0</ele><time>2026-04-25T13:16:05.999Z</time></trkpt><trkpt lat="45.907929916468184" lon="12.332805085605665"><ele>63.0</ele><time>2026-04-25T13:16:07.999Z</time></trkpt><trkpt lat="45.90781752619099" lon="12.332731877399054"><ele>63.0</ele><time>2026-04-25T13:16:09.999Z</time></trkpt><trkpt lat="45.90770534655494" lon="12.332660637610587"><ele>63.0</ele><time>2026-04-25T13:16:11.999Z</time></trkpt><trkpt lat="45.90759482937315" lon="12.332587060951987"><ele>63.0</ele><time>2026-04-25T13:16:13.999Z</time></trkpt><trkpt lat="45.90754104939121" lon="12.332536920669133"><ele>63.0</ele><time>2026-04-25T13:16:14.999Z</time></trkpt><trkpt lat="45.907488443051264" lon="12.332485619801213"><ele>63.0</ele><time>2026-04-25T13:16:15.999Z</time></trkpt><trkpt lat="45.9074369401968" lon="12.33243180321709"><ele>63.0</ele><time>2026-04-25T13:16:16.999Z</time></trkpt><trkpt lat="45.9073418677596" lon="12.332310865782674"><ele>63.285714285714285</ele><time>2026-04-25T13:16:18.999Z</time></trkpt><trkpt lat="45.90729459694093" lon="12.332250012623"><ele>63.57142857142857</ele><time>2026-04-25T13:16:19.999Z</time></trkpt><trkpt lat="45.907246207629704" lon="12.33218637068509"><ele>63.85714285714286</ele><time>2026-04-25T13:16:20.999Z</time></trkpt><trkpt lat="45.90716511875237" lon="12.332048730567527"><ele>64.14285714285714</ele><time>2026-04-25T13:16:22.999Z</time></trkpt><trkpt lat="45.90712377204002" lon="12.331977161026352"><ele>64.42857142857143</ele><time>2026-04-25T13:16:23.999Z</time></trkpt><trkpt lat="45.90708206893923" lon="12.331906172064372"><ele>64.71428571428572</ele><time>2026-04-25T13:16:24.999Z</time></trkpt><trkpt lat="45.90703923578519" lon="12.33183879773697"><ele>65.0</ele><time>2026-04-25T13:16:25.999Z</time></trkpt><trkpt lat="45.9070062014415" lon="12.331760473663014"><ele>65.00000000000001</ele><time>2026-04-25T13:16:26.999Z</time></trkpt><trkpt lat="45.90694304143424" lon="12.331730790368423"><ele>65.0</ele><time>2026-04-25T13:16:27.999Z</time></trkpt><trkpt lat="45.906893543812046" lon="12.331673966845138"><ele>65.0</ele><time>2026-04-25T13:16:28.999Z</time></trkpt><trkpt lat="45.90682528949513" lon="12.331660415999739"><ele>65.0</ele><time>2026-04-25T13:16:29.999Z</time></trkpt><trkpt lat="45.90675474389835" lon="12.331685991699509"><ele>65.0</ele><time>2026-04-25T13:16:30.999Z</time></trkpt><trkpt lat="45.906697861580895" lon="12.331746899476267"><ele>65.00000000000001</ele><time>2026-04-25T13:16:31.999Z</time></trkpt><trkpt lat="45.90664934528412" lon="12.33180591426"><ele>65.0</ele><time>2026-04-25T13:16:32.999Z</time></trkpt><trkpt lat="45.90655834775653" lon="12.331904409848615"><ele>65.0</ele><time>2026-04-25T13:16:34.999Z</time></trkpt><trkpt lat="45.906442537448285" lon="12.331859974199855"><ele>65.0</ele><time>2026-04-25T13:16:36.999Z</time></trkpt><trkpt lat="45.906351305824316" lon="12.33174709329268"><ele>65.0</ele><time>2026-04-25T13:16:38.999Z</time></trkpt><trkpt lat="45.90626558431704" lon="12.331621314201923"><ele>65.0</ele><time>2026-04-25T13:16:40.999Z</time></trkpt><trkpt lat="45.906184675083516" lon="12.33148976436506"><ele>65.2</ele><time>2026-04-25T13:16:42.999Z</time></trkpt><trkpt lat="45.90610296654793" lon="12.331369011867036"><ele>65.4</ele><time>2026-04-25T13:16:44.999Z</time></trkpt><trkpt lat="45.90602433814163" lon="12.331255407761187"><ele>65.6</ele><time>2026-04-25T13:16:46.999Z</time></trkpt><trkpt lat="45.90594348687491" lon="12.331155517541633"><ele>65.8</ele><time>2026-04-25T13:16:48.999Z</time></trkpt><trkpt lat="45.90586560441093" lon="12.331082471349157"><ele>66.0</ele><time>2026-04-25T13:16:50.999Z</time></trkpt><trkpt lat="45.905771328082594" lon="12.3310531582654"><ele>66.0</ele><time>2026-04-25T13:16:52.998Z</time></trkpt><trkpt lat="45.905678373635666" lon="12.33118539674408"><ele>66.0</ele><time>2026-04-25T13:16:54.998Z</time></trkpt><trkpt lat="45.9055906419004" lon="12.331301262304237"><ele>66.0</ele><time>2026-04-25T13:16:56.998Z</time></trkpt><trkpt lat="45.905502799701566" lon="12.331417273748627"><ele>66.0</ele><time>2026-04-25T13:16:58.998Z</time></trkpt><trkpt lat="45.90540940858185" lon="12.331539045563142"><ele>65.85714285714286</ele><time>2026-04-25T13:17:00.998Z</time></trkpt><trkpt lat="45.9053618788062" lon="12.331600478606935"><ele>65.71428571428572</ele><time>2026-04-25T13:17:01.998Z</time></trkpt><trkpt lat="45.905310900327315" lon="12.331666369157238"><ele>65.57142857142858</ele><time>2026-04-25T13:17:02.998Z</time></trkpt><trkpt lat="45.90526190542154" lon="12.331729342978072"><ele>65.42857142857143</ele><time>2026-04-25T13:17:03.998Z</time></trkpt><trkpt lat="45.905213584401324" lon="12.331791164173532"><ele>65.28571428571429</ele><time>2026-04-25T13:17:04.998Z</time></trkpt><trkpt lat="45.9051619527529" lon="12.331857220938726"><ele>65.14285714285715</ele><time>2026-04-25T13:17:05.998Z</time></trkpt><trkpt lat="45.90510990238506" lon="12.331923813406377"><ele>65.0</ele><time>2026-04-25T13:17:06.998Z</time></trkpt><trkpt lat="45.905056661162774" lon="12.331992133032752"><ele>64.85714285714286</ele><time>2026-04-25T13:17:07.998Z</time></trkpt><trkpt lat="45.90500739217631" lon="12.332056086737815"><ele>64.71428571428572</ele><time>2026-04-25T13:17:08.998Z</time></trkpt><trkpt lat="45.90495789516412" lon="12.33212033643035"><ele>64.57142857142857</ele><time>2026-04-25T13:17:09.998Z</time></trkpt><trkpt lat="45.90490956326043" lon="12.332183073749267"><ele>64.42857142857143</ele><time>2026-04-25T13:17:10.998Z</time></trkpt><trkpt lat="45.904860732134345" lon="12.332242468376938"><ele>64.28571428571428</ele><time>2026-04-25T13:17:11.998Z</time></trkpt><trkpt lat="45.90480941162909" lon="12.332300229583758"><ele>64.14285714285714</ele><time>2026-04-25T13:17:12.998Z</time></trkpt><trkpt lat="45.904758469717" lon="12.332357564682836"><ele>64.0</ele><time>2026-04-25T13:17:13.998Z</time></trkpt><trkpt lat="45.90470758788057" lon="12.33241228861611"><ele>63.6</ele><time>2026-04-25T13:17:14.998Z</time></trkpt><trkpt lat="45.904607205194715" lon="12.332519412731543"><ele>63.2</ele><time>2026-04-25T13:17:16.998Z</time></trkpt><trkpt lat="45.904510382120804" lon="12.332624577839873"><ele>62.800000000000004</ele><time>2026-04-25T13:17:18.998Z</time></trkpt><trkpt lat="45.90442487090946" lon="12.332726511375386"><ele>62.400000000000006</ele><time>2026-04-25T13:17:20.998Z</time></trkpt><trkpt lat="45.9043714275285" lon="12.332818327454557"><ele>62.0</ele><time>2026-04-25T13:17:22.998Z</time></trkpt><trkpt lat="45.90430661047004" lon="12.332810920804844"><ele>61.75</ele><time>2026-04-25T13:17:24.998Z</time></trkpt><trkpt lat="45.90420935804486" lon="12.332612039056352"><ele>61.5</ele><time>2026-04-25T13:17:29.998Z</time></trkpt><trkpt lat="45.90414005532642" lon="12.332512919620305"><ele>61.25</ele><time>2026-04-25T13:17:31.998Z</time></trkpt><trkpt lat="45.904066361149304" lon="12.332407519352618"><ele>61.0</ele><time>2026-04-25T13:17:33.998Z</time></trkpt><trkpt lat="45.903992451556775" lon="12.332301216558452"><ele>60.8</ele><time>2026-04-25T13:17:35.998Z</time></trkpt><trkpt lat="45.9039287271645" lon="12.332178483633262"><ele>60.599999999999994</ele><time>2026-04-25T13:17:37.997Z</time></trkpt><trkpt lat="45.90385029466495" lon="12.33206697633291"><ele>60.4</ele><time>2026-04-25T13:17:39.997Z</time></trkpt><trkpt lat="45.9037708901074" lon="12.33195211267291"><ele>60.2</ele><time>2026-04-25T13:17:41.997Z</time></trkpt><trkpt lat="45.903690342160374" lon="12.331835075628733"><ele>60.0</ele><time>2026-04-25T13:17:43.997Z</time></trkpt><trkpt lat="45.903609246990094" lon="12.331718378136367"><ele>60.0</ele><time>2026-04-25T13:17:45.997Z</time></trkpt><trkpt lat="45.903517696312996" lon="12.331615985949046"><ele>60.0</ele><time>2026-04-25T13:17:47.997Z</time></trkpt><trkpt lat="45.903442135771094" lon="12.331508337402534"><ele>60.0</ele><time>2026-04-25T13:17:50Z</time></trkpt><trkpt lat="45.903366671860205" lon="12.331400573086066"><ele>60.0</ele><time>2026-04-25T13:17:52Z</time></trkpt><trkpt lat="45.90329268427519" lon="12.331295381453256"><ele>60.0</ele><time>2026-04-25T13:17:54Z</time></trkpt><trkpt lat="45.903221754282306" lon="12.331196572365474"><ele>60.8</ele><time>2026-04-25T13:17:56Z</time></trkpt><trkpt lat="45.90313706056706" lon="12.331122517386826"><ele>61.6</ele><time>2026-04-25T13:17:58Z</time></trkpt><trkpt lat="45.903059284464526" lon="12.33099996693778"><ele>62.400000000000006</ele><time>2026-04-25T13:18:00Z</time></trkpt><trkpt lat="45.90297894383202" lon="12.330883269476914"><ele>63.2</ele><time>2026-04-25T13:18:02Z</time></trkpt><trkpt lat="45.90289273338291" lon="12.330764723033882"><ele>64.0</ele><time>2026-04-25T13:18:04Z</time></trkpt><trkpt lat="45.90280753794512" lon="12.330641706599158"><ele>63.75</ele><time>2026-04-25T13:18:06Z</time></trkpt><trkpt lat="45.902722343288524" lon="12.330517240129492"><ele>63.5</ele><time>2026-04-25T13:18:08Z</time></trkpt><trkpt lat="45.90263756189769" lon="12.330398900347683"><ele>63.25</ele><time>2026-04-25T13:18:10Z</time></trkpt><trkpt lat="45.90255731529217" lon="12.330284198507734"><ele>63.0</ele><time>2026-04-25T13:18:12Z</time></trkpt><trkpt lat="45.90247555180492" lon="12.33016690717958"><ele>62.599999999999994</ele><time>2026-04-25T13:18:14Z</time></trkpt><trkpt lat="45.90239299670694" lon="12.330061015048877"><ele>62.199999999999996</ele><time>2026-04-25T13:18:16Z</time></trkpt><trkpt lat="45.9023139430149" lon="12.329958094066434"><ele>61.8</ele><time>2026-04-25T13:18:18Z</time></trkpt><trkpt lat="45.90223967557448" lon="12.329856888144093"><ele>61.4</ele><time>2026-04-25T13:18:20Z</time></trkpt><trkpt lat="45.90216966484906" lon="12.329753443784126"><ele>61.0</ele><time>2026-04-25T13:18:22Z</time></trkpt><trkpt lat="45.90210972703934" lon="12.329667390413622"><ele>60.99999999999999</ele><time>2026-04-25T13:18:24Z</time></trkpt><trkpt lat="45.90205055383573" lon="12.329593780074024"><ele>61.0</ele><time>2026-04-25T13:18:26.999Z</time></trkpt><trkpt lat="45.901990982215736" lon="12.329523305323018"><ele>61.0</ele><time>2026-04-25T13:19:53.998Z</time></trkpt><trkpt lat="45.901916639573116" lon="12.329421666484109"><ele>61.0</ele><time>2026-04-25T13:19:57Z</time></trkpt><trkpt lat="45.90185763505497" lon="12.3293471131625"><ele>60.99999999999999</ele><time>2026-04-25T13:19:59Z</time></trkpt><trkpt lat="45.901802412804535" lon="12.32926093225588"><ele>61.0</ele><time>2026-04-25T13:20:01Z</time></trkpt><trkpt lat="45.901742447420716" lon="12.329192341008204"><ele>60.8</ele><time>2026-04-25T13:20:03Z</time></trkpt><trkpt lat="45.90168138938864" lon="12.329103576337527"><ele>60.599999999999994</ele><time>2026-04-25T13:20:05Z</time></trkpt><trkpt lat="45.901608439497316" lon="12.329021729557931"><ele>60.4</ele><time>2026-04-25T13:20:07Z</time></trkpt><trkpt lat="45.9015354928077" lon="12.328927786559657"><ele>60.2</ele><time>2026-04-25T13:20:09Z</time></trkpt><trkpt lat="45.9014655153142" lon="12.328824595747571"><ele>60.0</ele><time>2026-04-25T13:20:11Z</time></trkpt><trkpt lat="45.901395029903924" lon="12.328718211602256"><ele>60.0</ele><time>2026-04-25T13:20:13Z</time></trkpt><trkpt lat="45.901326099918045" lon="12.328613673921206"><ele>60.0</ele><time>2026-04-25T13:20:15Z</time></trkpt><trkpt lat="45.90125006613127" lon="12.328512357338962"><ele>60.0</ele><time>2026-04-25T13:20:17Z</time></trkpt><trkpt lat="45.901174886666624" lon="12.328416971732604"><ele>60.0</ele><time>2026-04-25T13:20:19Z</time></trkpt><trkpt lat="45.901099577794916" lon="12.328324457107522"><ele>60.0</ele><time>2026-04-25T13:20:21Z</time></trkpt><trkpt lat="45.90104856439688" lon="12.328218198936735"><ele>60.0</ele><time>2026-04-25T13:20:23Z</time></trkpt><trkpt lat="45.90109564343792" lon="12.328098069289327"><ele>60.0</ele><time>2026-04-25T13:20:25Z</time></trkpt><trkpt lat="45.90115823547944" lon="12.328076508791176"><ele>60.0</ele><time>2026-04-25T13:20:26Z</time></trkpt><trkpt lat="45.901222200575035" lon="12.328070374362511"><ele>60.0</ele><time>2026-04-25T13:20:27Z</time></trkpt><trkpt lat="45.901286203271376" lon="12.328066517825384"><ele>60.0</ele><time>2026-04-25T13:20:28Z</time></trkpt><trkpt lat="45.90140867979522" lon="12.328044349270192"><ele>60.0</ele><time>2026-04-25T13:20:30Z</time></trkpt><trkpt lat="45.90153327143155" lon="12.328035414069621"><ele>60.5</ele><time>2026-04-25T13:20:32Z</time></trkpt><trkpt lat="45.90165654392213" lon="12.328010635377014"><ele>61.0</ele><time>2026-04-25T13:20:34Z</time></trkpt><trkpt lat="45.90178115122141" lon="12.32799297810968"><ele>61.5</ele><time>2026-04-25T13:20:36Z</time></trkpt><trkpt lat="45.90190372954587" lon="12.327973539576762"><ele>62.0</ele><time>2026-04-25T13:20:38Z</time></trkpt><trkpt lat="45.90202348314408" lon="12.327946107153188"><ele>62.0</ele><time>2026-04-25T13:20:40Z</time></trkpt><trkpt lat="45.90213767066334" lon="12.327905854314004"><ele>62.0</ele><time>2026-04-25T13:20:42Z</time></trkpt><trkpt lat="45.90223657046668" lon="12.327816312195345"><ele>62.0</ele><time>2026-04-25T13:20:43.999Z</time></trkpt><trkpt lat="45.90230407674361" lon="12.327684034106388"><ele>62.0</ele><time>2026-04-25T13:20:45.999Z</time></trkpt><trkpt lat="45.902357658574815" lon="12.327536835618258"><ele>62.0</ele><time>2026-04-25T13:20:47.999Z</time></trkpt><trkpt lat="45.90239910835157" lon="12.327385730189883"><ele>62.0</ele><time>2026-04-25T13:20:49.999Z</time></trkpt><trkpt lat="45.902434424581976" lon="12.32723359256904"><ele>62.0</ele><time>2026-04-25T13:20:51.999Z</time></trkpt><trkpt lat="45.90245141318706" lon="12.327077861071535"><ele>62.0</ele><time>2026-04-25T13:20:53.999Z</time></trkpt><trkpt lat="45.90244849370178" lon="12.326920405086053"><ele>62.0</ele><time>2026-04-25T13:20:55.999Z</time></trkpt><trkpt lat="45.902439816983474" lon="12.3267621084694"><ele>63.2</ele><time>2026-04-25T13:20:57.999Z</time></trkpt><trkpt lat="45.902428418652015" lon="12.32660165501488"><ele>64.4</ele><time>2026-04-25T13:20:59.999Z</time></trkpt><trkpt lat="45.90241656221055" lon="12.326444378518437"><ele>65.6</ele><time>2026-04-25T13:21:01.999Z</time></trkpt><trkpt lat="45.90240876836823" lon="12.326288739632394"><ele>66.8</ele><time>2026-04-25T13:21:03.999Z</time></trkpt><trkpt lat="45.90240327733467" lon="12.326148452355831"><ele>68.0</ele><time>2026-04-25T13:21:05.999Z</time></trkpt><trkpt lat="45.9024218389331" lon="12.326005358789578"><ele>68.0</ele><time>2026-04-25T13:21:07.999Z</time></trkpt><trkpt lat="45.90243497813038" lon="12.325897256616516"><ele>68.0</ele><time>2026-04-25T13:21:09.999Z</time></trkpt><trkpt lat="45.90254146690454" lon="12.325861354000134"><ele>68.0</ele><time>2026-04-25T13:21:10.999Z</time></trkpt><trkpt lat="45.90262532146941" lon="12.325773685124684"><ele>68.0</ele><time>2026-04-25T13:21:12.999Z</time></trkpt><trkpt lat="45.902703203504956" lon="12.325680118159713"><ele>68.0</ele><time>2026-04-25T13:21:14.999Z</time></trkpt><trkpt lat="45.90278256295543" lon="12.325592606505781"><ele>67.2</ele><time>2026-04-25T13:21:16.999Z</time></trkpt><trkpt lat="45.902862922747985" lon="12.325507504615173"><ele>66.4</ele><time>2026-04-25T13:21:18.999Z</time></trkpt><trkpt lat="45.90294306709844" lon="12.325431462140523"><ele>65.60000000000001</ele><time>2026-04-25T13:21:20.999Z</time></trkpt><trkpt lat="45.90302115219828" lon="12.325346463468437"><ele>64.8</ele><time>2026-04-25T13:21:22.999Z</time></trkpt><trkpt lat="45.90309738836021" lon="12.325266875858231"><ele>64.0</ele><time>2026-04-25T13:21:24.999Z</time></trkpt><trkpt lat="45.90317360871259" lon="12.325185386509705"><ele>64.0</ele><time>2026-04-25T13:21:26.999Z</time></trkpt><trkpt lat="45.90324755513819" lon="12.325098302992185"><ele>64.0</ele><time>2026-04-25T13:21:28.999Z</time></trkpt><trkpt lat="45.90331878514777" lon="12.325017840451919"><ele>64.0</ele><time>2026-04-25T13:21:30.998Z</time></trkpt><trkpt lat="45.903398556403125" lon="12.32494147278394"><ele>64.0</ele><time>2026-04-25T13:21:32.998Z</time></trkpt><trkpt lat="45.9034739599559" lon="12.324863035511225"><ele>64.0</ele><time>2026-04-25T13:21:34.998Z</time></trkpt><trkpt lat="45.903546178334864" lon="12.324776555580296"><ele>64.60000000000001</ele><time>2026-04-25T13:21:36.998Z</time></trkpt><trkpt lat="45.903635006361405" lon="12.324708327255198"><ele>65.2</ele><time>2026-04-25T13:21:38.998Z</time></trkpt><trkpt lat="45.90371505974664" lon="12.324624251976775"><ele>65.80000000000001</ele><time>2026-04-25T13:21:40.998Z</time></trkpt><trkpt lat="45.903789381181866" lon="12.324522246553032"><ele>66.4</ele><time>2026-04-25T13:21:42.998Z</time></trkpt><trkpt lat="45.90386926898999" lon="12.324440357040295"><ele>67.0</ele><time>2026-04-25T13:21:44.998Z</time></trkpt><trkpt lat="45.903947763716026" lon="12.32435864434687"><ele>67.0</ele><time>2026-04-25T13:21:46.998Z</time></trkpt><trkpt lat="45.9040252324734" lon="12.324270262725777"><ele>67.0</ele><time>2026-04-25T13:21:48.998Z</time></trkpt><trkpt lat="45.90410195826362" lon="12.324188374986948"><ele>67.0</ele><time>2026-04-25T13:21:50.998Z</time></trkpt><trkpt lat="45.904180127396344" lon="12.324103450549135"><ele>67.0</ele><time>2026-04-25T13:21:52.998Z</time></trkpt><trkpt lat="45.904266669419" lon="12.324040389326521"><ele>67.0</ele><time>2026-04-25T13:21:54.998Z</time></trkpt><trkpt lat="45.90434319863288" lon="12.323959054262533"><ele>67.6</ele><time>2026-04-25T13:21:56.998Z</time></trkpt><trkpt lat="45.90442025686233" lon="12.323877118774003"><ele>68.2</ele><time>2026-04-25T13:21:58.998Z</time></trkpt><trkpt lat="45.90448635008241" lon="12.323777909843972"><ele>68.8</ele><time>2026-04-25T13:22:00.998Z</time></trkpt><trkpt lat="45.90456300054402" lon="12.323698079018149"><ele>69.4</ele><time>2026-04-25T13:22:02.999Z</time></trkpt><trkpt lat="45.90464115071088" lon="12.323629395478193"><ele>70.0</ele><time>2026-04-25T13:22:04.999Z</time></trkpt><trkpt lat="45.90471352930487" lon="12.323546246181438"><ele>70.0</ele><time>2026-04-25T13:22:06.999Z</time></trkpt><trkpt lat="45.904794444719094" lon="12.323478422404607"><ele>70.0</ele><time>2026-04-25T13:22:08.999Z</time></trkpt><trkpt lat="45.90487062445827" lon="12.323396184562167"><ele>70.0</ele><time>2026-04-25T13:22:10.999Z</time></trkpt><trkpt lat="45.904950232471656" lon="12.323310337717581"><ele>70.0</ele><time>2026-04-25T13:22:12.998Z</time></trkpt><trkpt lat="45.90502351448595" lon="12.323209531462204"><ele>70.0</ele><time>2026-04-25T13:22:14.998Z</time></trkpt><trkpt lat="45.905080340421236" lon="12.323087950762263"><ele>69.8</ele><time>2026-04-25T13:22:16.998Z</time></trkpt><trkpt lat="45.90513045387147" lon="12.322964927151789"><ele>69.6</ele><time>2026-04-25T13:22:18.998Z</time></trkpt><trkpt lat="45.905181858465376" lon="12.32283773531813"><ele>69.4</ele><time>2026-04-25T13:22:20.998Z</time></trkpt><trkpt lat="45.905231558877844" lon="12.322714464826763"><ele>69.2</ele><time>2026-04-25T13:22:22.998Z</time></trkpt><trkpt lat="45.90527800051823" lon="12.32258853812692"><ele>69.0</ele><time>2026-04-25T13:22:24.998Z</time></trkpt><trkpt lat="45.90532768636759" lon="12.32246470562351"><ele>69.0</ele><time>2026-04-25T13:22:26.998Z</time></trkpt><trkpt lat="45.905381336260426" lon="12.322343933033562"><ele>69.0</ele><time>2026-04-25T13:22:28.998Z</time></trkpt><trkpt lat="45.90544315398696" lon="12.322221894314985"><ele>69.0</ele><time>2026-04-25T13:22:30.998Z</time></trkpt><trkpt lat="45.905509864121655" lon="12.322105370799958"><ele>69.0</ele><time>2026-04-25T13:22:32.998Z</time></trkpt><trkpt lat="45.90557824859567" lon="12.321983184320212"><ele>69.0</ele><time>2026-04-25T13:22:34.998Z</time></trkpt><trkpt lat="45.905646118130264" lon="12.32185579817479"><ele>69.0</ele><time>2026-04-25T13:22:36.998Z</time></trkpt><trkpt lat="45.9057089297247" lon="12.321718524787357"><ele>69.0</ele><time>2026-04-25T13:22:38.998Z</time></trkpt><trkpt lat="45.90575688720169" lon="12.321559664734517"><ele>69.0</ele><time>2026-04-25T13:22:40.998Z</time></trkpt><trkpt lat="45.90578782700418" lon="12.321398996250533"><ele>69.0</ele><time>2026-04-25T13:22:42.998Z</time></trkpt><trkpt lat="45.905807963182994" lon="12.321233564289441"><ele>69.0</ele><time>2026-04-25T13:22:44.998Z</time></trkpt><trkpt lat="45.90582642406437" lon="12.321079800339888"><ele>69.0</ele><time>2026-04-25T13:22:46.998Z</time></trkpt><trkpt lat="45.905843744798936" lon="12.320937973547048"><ele>69.0</ele><time>2026-04-25T13:22:48.998Z</time></trkpt><trkpt lat="45.905864612411214" lon="12.320812353555787"><ele>69.0</ele><time>2026-04-25T13:22:50.998Z</time></trkpt><trkpt lat="45.90588855020663" lon="12.320697122882361"><ele>69.0</ele><time>2026-04-25T13:22:52.998Z</time></trkpt><trkpt lat="45.90591619997636" lon="12.320602984000569"><ele>69.66666666666667</ele><time>2026-04-25T13:22:54.998Z</time></trkpt><trkpt lat="45.905981844959754" lon="12.320527304205697"><ele>70.33333333333333</ele><time>2026-04-25T13:22:57.998Z</time></trkpt><trkpt lat="45.90605220282586" lon="12.3205073917195"><ele>71.0</ele><time>2026-04-25T13:23:00.998Z</time></trkpt><trkpt lat="45.906135014941405" lon="12.320513265872835"><ele>71.66666666666666</ele><time>2026-04-25T13:23:03.998Z</time></trkpt><trkpt lat="45.9061993211295" lon="12.320460054556042"><ele>72.33333333333333</ele><time>2026-04-25T13:23:05.998Z</time></trkpt><trkpt lat="45.90627701836931" lon="12.32043495805983"><ele>73.0</ele><time>2026-04-25T13:23:07.998Z</time></trkpt><trkpt lat="45.906364502643804" lon="12.320370639006123"><ele>73.0</ele><time>2026-04-25T13:23:09.998Z</time></trkpt><trkpt lat="45.90645135110472" lon="12.320284195272551"><ele>73.0</ele><time>2026-04-25T13:23:11.998Z</time></trkpt><trkpt lat="45.906529206039366" lon="12.320173558164802"><ele>73.0</ele><time>2026-04-25T13:23:13.998Z</time></trkpt><trkpt lat="45.90660917009187" lon="12.320064538302232"><ele>73.0</ele><time>2026-04-25T13:23:15.998Z</time></trkpt><trkpt lat="45.906713904521446" lon="12.320041000048645"><ele>73.0</ele><time>2026-04-25T13:23:17.998Z</time></trkpt><trkpt lat="45.90676190243412" lon="12.3201014180085"><ele>72.5</ele><time>2026-04-25T13:23:18.998Z</time></trkpt><trkpt lat="45.9068271221335" lon="12.320242268894283"><ele>72.0</ele><time>2026-04-25T13:23:20.998Z</time></trkpt><trkpt lat="45.90690009354546" lon="12.320363935434726"><ele>71.5</ele><time>2026-04-25T13:23:22.998Z</time></trkpt><trkpt lat="45.906974424642" lon="12.320486284519848"><ele>71.0</ele><time>2026-04-25T13:23:24.998Z</time></trkpt><trkpt lat="45.907053256188256" lon="12.320606032847675"><ele>71.0</ele><time>2026-04-25T13:23:26.997Z</time></trkpt><trkpt lat="45.9071550891405" lon="12.320674885261539"><ele>71.0</ele><time>2026-04-25T13:23:28.997Z</time></trkpt><trkpt lat="45.9072733583897" lon="12.320658007382514"><ele>71.0</ele><time>2026-04-25T13:23:30.997Z</time></trkpt><trkpt lat="45.907376860486714" lon="12.320590160777297"><ele>71.0</ele><time>2026-04-25T13:23:32.997Z</time></trkpt><trkpt lat="45.90748022587507" lon="12.320534929478594"><ele>70.0</ele><time>2026-04-25T13:23:34.997Z</time></trkpt><trkpt lat="45.90758520180908" lon="12.320481425043766"><ele>69.0</ele><time>2026-04-25T13:23:36.997Z</time></trkpt><trkpt lat="45.90769052740378" lon="12.320419418531277"><ele>68.0</ele><time>2026-04-25T13:23:38.997Z</time></trkpt><trkpt lat="45.90779717312523" lon="12.320365341340509"><ele>67.0</ele><time>2026-04-25T13:23:40.997Z</time></trkpt><trkpt lat="45.907902994911176" lon="12.320307701396297"><ele>67.0</ele><time>2026-04-25T13:23:42.997Z</time></trkpt><trkpt lat="45.90801061449548" lon="12.320250994988859"><ele>67.0</ele><time>2026-04-25T13:23:44.997Z</time></trkpt><trkpt lat="45.9081144676326" lon="12.320196402219766"><ele>67.0</ele><time>2026-04-25T13:23:46.997Z</time></trkpt><trkpt lat="45.908215464101744" lon="12.320139020900605"><ele>67.0</ele><time>2026-04-25T13:23:48.997Z</time></trkpt><trkpt lat="45.90831761519454" lon="12.320139088543364"><ele>67.0</ele><time>2026-04-25T13:23:50.997Z</time></trkpt><trkpt lat="45.908385544771896" lon="12.320243149848647"><ele>67.0</ele><time>2026-04-25T13:23:52.997Z</time></trkpt><trkpt lat="45.908392406136294" lon="12.320388329084178"><ele>67.0</ele><time>2026-04-25T13:23:54.997Z</time></trkpt><trkpt lat="45.90839873441165" lon="12.320522878313106"><ele>67.0</ele><time>2026-04-25T13:23:56.997Z</time></trkpt><trkpt lat="45.90841451977194" lon="12.320653087070863"><ele>67.0</ele><time>2026-04-25T13:23:58.997Z</time></trkpt><trkpt lat="45.90842434087337" lon="12.320751031089177"><ele>67.0</ele><time>2026-04-25T13:24:00.997Z</time></trkpt><trkpt lat="45.90857790101827" lon="12.320700203018667"><ele>67.33333333333333</ele><time>2026-04-25T13:24:02.997Z</time></trkpt><trkpt lat="45.90865730877597" lon="12.320642877091094"><ele>67.66666666666666</ele><time>2026-04-25T13:24:04.997Z</time></trkpt><trkpt lat="45.908738880154374" lon="12.320629379891065"><ele>68.0</ele><time>2026-04-25T13:24:06.997Z</time></trkpt><trkpt lat="45.908808975720845" lon="12.320596515936654"><ele>68.33333333333333</ele><time>2026-04-25T13:24:08.998Z</time></trkpt><trkpt lat="45.90886863840896" lon="12.320545877341058"><ele>68.66666666666667</ele><time>2026-04-25T13:24:10.998Z</time></trkpt><trkpt lat="45.90893043088669" lon="12.320517947007973"><ele>69.0</ele><time>2026-04-25T13:24:12.998Z</time></trkpt><trkpt lat="45.909009686613615" lon="12.320489292305039"><ele>69.16666666666667</ele><time>2026-04-25T13:24:15.998Z</time></trkpt><trkpt lat="45.90909266439706" lon="12.3204582417674"><ele>69.33333333333333</ele><time>2026-04-25T13:24:33.999Z</time></trkpt><trkpt lat="45.90917188903188" lon="12.320395507984166"><ele>69.5</ele><time>2026-04-25T13:24:36.999Z</time></trkpt><trkpt lat="45.90923830542991" lon="12.320366607424274"><ele>69.66666666666666</ele><time>2026-04-25T13:24:38.998Z</time></trkpt><trkpt lat="45.90931937102422" lon="12.320328386743446"><ele>69.83333333333333</ele><time>2026-04-25T13:24:40.998Z</time></trkpt><trkpt lat="45.909403370865874" lon="12.32028628828735"><ele>70.0</ele><time>2026-04-25T13:24:42.998Z</time></trkpt><trkpt lat="45.909488772814555" lon="12.320248201095836"><ele>70.0</ele><time>2026-04-25T13:24:44.998Z</time></trkpt><trkpt lat="45.90957617054061" lon="12.320202476275815"><ele>70.0</ele><time>2026-04-25T13:24:46.998Z</time></trkpt><trkpt lat="45.90966329341079" lon="12.320166108869573"><ele>70.0</ele><time>2026-04-25T13:24:48.998Z</time></trkpt><trkpt lat="45.90975244045558" lon="12.32013189329425"><ele>70.0</ele><time>2026-04-25T13:24:50.998Z</time></trkpt><trkpt lat="45.909839863535225" lon="12.320084406964748"><ele>70.0</ele><time>2026-04-25T13:24:52.998Z</time></trkpt><trkpt lat="45.909928457662225" lon="12.32003668998086"><ele>70.0</ele><time>2026-04-25T13:24:54.998Z</time></trkpt><trkpt lat="45.91002655064053" lon="12.319996827759505"><ele>70.0</ele><time>2026-04-25T13:24:56.998Z</time></trkpt><trkpt lat="45.91012177167853" lon="12.319949543197774"><ele>70.0</ele><time>2026-04-25T13:24:58.998Z</time></trkpt><trkpt lat="45.91021896449819" lon="12.319907759169"><ele>70.0</ele><time>2026-04-25T13:25:00.998Z</time></trkpt><trkpt lat="45.91031805733376" lon="12.319867996125884"><ele>70.0</ele><time>2026-04-25T13:25:02.998Z</time></trkpt><trkpt lat="45.91041641362813" lon="12.319834496352499"><ele>70.2</ele><time>2026-04-25T13:25:04.998Z</time></trkpt><trkpt lat="45.91051618664013" lon="12.319797082832585"><ele>70.4</ele><time>2026-04-25T13:25:06.998Z</time></trkpt><trkpt lat="45.910614537504905" lon="12.319752712528793"><ele>70.6</ele><time>2026-04-25T13:25:08.998Z</time></trkpt><trkpt lat="45.910708551595796" lon="12.319682425107407"><ele>70.8</ele><time>2026-04-25T13:25:10.998Z</time></trkpt><trkpt lat="45.910717270137994" lon="12.319575288134738"><ele>71.0</ele><time>2026-04-25T13:25:11.998Z</time></trkpt><trkpt lat="45.910722634529606" lon="12.319414869427204"><ele>71.0</ele><time>2026-04-25T13:25:13.998Z</time></trkpt><trkpt lat="45.91071354453429" lon="12.319257588783639"><ele>71.0</ele><time>2026-04-25T13:25:15.998Z</time></trkpt><trkpt lat="45.91069321296077" lon="12.319103175622345"><ele>71.0</ele><time>2026-04-25T13:25:17.998Z</time></trkpt><trkpt lat="45.91065975982664" lon="12.318952898343687"><ele>71.0</ele><time>2026-04-25T13:25:19.998Z</time></trkpt><trkpt lat="45.910620742193956" lon="12.318798762599318"><ele>71.0</ele><time>2026-04-25T13:25:21.998Z</time></trkpt><trkpt lat="45.91057798391071" lon="12.318644540229325"><ele>71.0</ele><time>2026-04-25T13:25:23.998Z</time></trkpt><trkpt lat="45.91054176982021" lon="12.31849666700541"><ele>71.0</ele><time>2026-04-25T13:25:25.998Z</time></trkpt><trkpt lat="45.910541944052426" lon="12.318340899518148"><ele>71.0</ele><time>2026-04-25T13:25:27.998Z</time></trkpt><trkpt lat="45.910540291934446" lon="12.31817091719263"><ele>71.0</ele><time>2026-04-25T13:25:29.998Z</time></trkpt><trkpt lat="45.91052738758543" lon="12.317998755464018"><ele>71.25</ele><time>2026-04-25T13:25:31.998Z</time></trkpt><trkpt lat="45.91050082925321" lon="12.317832302371428"><ele>71.5</ele><time>2026-04-25T13:25:33.998Z</time></trkpt><trkpt lat="45.91046515413811" lon="12.317671429926266"><ele>71.75</ele><time>2026-04-25T13:25:35.998Z</time></trkpt><trkpt lat="45.91042615318104" lon="12.317516825373172"><ele>72.0</ele><time>2026-04-25T13:25:37.998Z</time></trkpt><trkpt lat="45.9103821497729" lon="12.31736841375085"><ele>72.6</ele><time>2026-04-25T13:25:39.998Z</time></trkpt><trkpt lat="45.91033371893148" lon="12.317229606382002"><ele>73.2</ele><time>2026-04-25T13:25:41.998Z</time></trkpt><trkpt lat="45.91027742609187" lon="12.317101901644527"><ele>73.8</ele><time>2026-04-25T13:25:43.998Z</time></trkpt><trkpt lat="45.91022169386244" lon="12.316982612193735"><ele>74.4</ele><time>2026-04-25T13:25:45.998Z</time></trkpt><trkpt lat="45.9101698169224" lon="12.316880270599883"><ele>75.0</ele><time>2026-04-25T13:25:47.997Z</time></trkpt><trkpt lat="45.91026069800945" lon="12.316737624739943"><ele>75.0</ele><time>2026-04-25T13:25:52.997Z</time></trkpt><trkpt lat="45.91032898563578" lon="12.316695183431458"><ele>75.0</ele><time>2026-04-25T13:25:54.997Z</time></trkpt><trkpt lat="45.910397326305045" lon="12.3166567352622"><ele>75.0</ele><time>2026-04-25T13:25:56.997Z</time></trkpt><trkpt lat="45.91046380738376" lon="12.316619336550907"><ele>75.0</ele><time>2026-04-25T13:25:58.997Z</time></trkpt><trkpt lat="45.91053703150878" lon="12.316592019382435"><ele>75.0</ele><time>2026-04-25T13:26:01.997Z</time></trkpt><trkpt lat="45.910616560000435" lon="12.316566815684059"><ele>75.0</ele><time>2026-04-25T13:26:03.997Z</time></trkpt><trkpt lat="45.91070353257758" lon="12.316590087448688"><ele>75.0</ele><time>2026-04-25T13:26:05.997Z</time></trkpt><trkpt lat="45.91078743686961" lon="12.316632172627017"><ele>75.0</ele><time>2026-04-25T13:26:07.997Z</time></trkpt><trkpt lat="45.910869074360846" lon="12.316688037320285"><ele>75.0</ele><time>2026-04-25T13:26:09.997Z</time></trkpt><trkpt lat="45.91095366037748" lon="12.31672212981603"><ele>75.0</ele><time>2026-04-25T13:26:11.997Z</time></trkpt><trkpt lat="45.91104855267368" lon="12.316742065605077"><ele>75.0</ele><time>2026-04-25T13:26:13.999Z</time></trkpt><trkpt lat="45.91114711255256" lon="12.316771485433243"><ele>74.8</ele><time>2026-04-25T13:26:15.999Z</time></trkpt><trkpt lat="45.91125465287796" lon="12.31678009282183"><ele>74.6</ele><time>2026-04-25T13:26:17.999Z</time></trkpt><trkpt lat="45.911365125128874" lon="12.316788396100348"><ele>74.4</ele><time>2026-04-25T13:26:19.999Z</time></trkpt><trkpt lat="45.911470810806634" lon="12.31675728739282"><ele>74.2</ele><time>2026-04-25T13:26:21.999Z</time></trkpt><trkpt lat="45.9115753257159" lon="12.316745401353833"><ele>74.0</ele><time>2026-04-25T13:26:23.999Z</time></trkpt><trkpt lat="45.91167931597599" lon="12.316808288898978"><ele>74.75</ele><time>2026-04-25T13:26:25.999Z</time></trkpt><trkpt lat="45.91177570952426" lon="12.316885915410154"><ele>75.5</ele><time>2026-04-25T13:26:27.999Z</time></trkpt><trkpt lat="45.91185877281485" lon="12.31701013852371"><ele>76.25</ele><time>2026-04-25T13:26:29.999Z</time></trkpt><trkpt lat="45.91192929060353" lon="12.317147170894383"><ele>77.0</ele><time>2026-04-25T13:26:31.999Z</time></trkpt><trkpt lat="45.91199527630645" lon="12.317294337571335"><ele>77.0</ele><time>2026-04-25T13:26:33.999Z</time></trkpt><trkpt lat="45.91206410182461" lon="12.317428258847196"><ele>77.0</ele><time>2026-04-25T13:26:35.999Z</time></trkpt><trkpt lat="45.91213584792911" lon="12.317552534163553"><ele>77.0</ele><time>2026-04-25T13:26:37.999Z</time></trkpt><trkpt lat="45.91221035213547" lon="12.317645893993731"><ele>77.0</ele><time>2026-04-25T13:26:39.999Z</time></trkpt><trkpt lat="45.912264817632476" lon="12.317718933674831"><ele>77.0</ele><time>2026-04-25T13:26:41.999Z</time></trkpt><trkpt lat="45.91232585767178" lon="12.317617764382703"><ele>77.0</ele><time>2026-04-25T13:26:42.999Z</time></trkpt><trkpt lat="45.91238465991726" lon="12.317562060676751"><ele>77.0</ele><time>2026-04-25T13:26:44.999Z</time></trkpt><trkpt lat="45.91245250436928" lon="12.317474852583743"><ele>77.0</ele><time>2026-04-25T13:26:47.999Z</time></trkpt><trkpt lat="45.912518712357766" lon="12.31738860790046"><ele>77.0</ele><time>2026-04-25T13:26:50.999Z</time></trkpt><trkpt lat="45.912581422936334" lon="12.31730608849489"><ele>77.0</ele><time>2026-04-25T13:26:53.999Z</time></trkpt><trkpt lat="45.91264296631909" lon="12.31722112323554"><ele>77.0</ele><time>2026-04-25T13:26:56.999Z</time></trkpt><trkpt lat="45.91269639155371" lon="12.317119666963656"><ele>77.83333333333334</ele><time>2026-04-25T13:26:59.999Z</time></trkpt><trkpt lat="45.91275777460558" lon="12.317036807178557"><ele>78.66666666666667</ele><time>2026-04-25T13:27:02.999Z</time></trkpt><trkpt lat="45.912817126565336" lon="12.316961030378236"><ele>79.5</ele><time>2026-04-25T13:27:05.999Z</time></trkpt><trkpt lat="45.912881969852144" lon="12.316877759805015"><ele>80.33333333333333</ele><time>2026-04-25T13:27:08.999Z</time></trkpt><trkpt lat="45.91296152573248" lon="12.31683489221233"><ele>81.16666666666666</ele><time>2026-04-25T13:27:11.999Z</time></trkpt><trkpt lat="45.91302174054597" lon="12.316875843120856"><ele>82.0</ele><time>2026-04-25T13:27:13.999Z</time></trkpt><trkpt lat="45.913079248678955" lon="12.316940088188232"><ele>82.0</ele><time>2026-04-25T13:27:16.999Z</time></trkpt><trkpt lat="45.913150969849895" lon="12.316977258012349"><ele>82.0</ele><time>2026-04-25T13:27:19.999Z</time></trkpt><trkpt lat="45.9132364188322" lon="12.316997343530486"><ele>82.0</ele><time>2026-04-25T13:27:22.999Z</time></trkpt><trkpt lat="45.913321841882" lon="12.316956042105666"><ele>82.0</ele><time>2026-04-25T13:27:25.999Z</time></trkpt><trkpt lat="45.913400732637314" lon="12.31689890863841"><ele>82.0</ele><time>2026-04-25T13:27:28.999Z</time></trkpt><trkpt lat="45.913473536148466" lon="12.316825834441621"><ele>82.0</ele><time>2026-04-25T13:27:31.999Z</time></trkpt><trkpt lat="45.91354175786583" lon="12.316741652400346"><ele>82.33333333333333</ele><time>2026-04-25T13:27:34.998Z</time></trkpt><trkpt lat="45.91360598869342" lon="12.316654942296632"><ele>82.66666666666666</ele><time>2026-04-25T13:27:37.998Z</time></trkpt><trkpt lat="45.913652892202414" lon="12.316559569621635"><ele>83.0</ele><time>2026-04-25T13:27:40.998Z</time></trkpt><trkpt lat="45.91371790485475" lon="12.31648228444991"><ele>83.33333333333333</ele><time>2026-04-25T13:27:43.998Z</time></trkpt><trkpt lat="45.91378375327726" lon="12.316399100889695"><ele>83.66666666666667</ele><time>2026-04-25T13:27:46.998Z</time></trkpt><trkpt lat="45.913857477108344" lon="12.31632187369326"><ele>84.0</ele><time>2026-04-25T13:27:49.998Z</time></trkpt><trkpt lat="45.91394112691001" lon="12.316255151729743"><ele>84.83333333333333</ele><time>2026-04-25T13:27:52.998Z</time></trkpt><trkpt lat="45.914008830919215" lon="12.316235623509417"><ele>85.66666666666667</ele><time>2026-04-25T13:27:54.998Z</time></trkpt><trkpt lat="45.91409175404448" lon="12.316258233294121"><ele>86.5</ele><time>2026-04-25T13:27:56.998Z</time></trkpt><trkpt lat="45.9141835905395" lon="12.316323515816453"><ele>87.33333333333334</ele><time>2026-04-25T13:27:58.998Z</time></trkpt><trkpt lat="45.914287768578525" lon="12.316412689735381"><ele>88.16666666666667</ele><time>2026-04-25T13:28:00.998Z</time></trkpt><trkpt lat="45.91434714784206" lon="12.316455383146238"><ele>89.0</ele><time>2026-04-25T13:28:01.998Z</time></trkpt><trkpt lat="45.91441670905779" lon="12.3164761601095"><ele>89.0</ele><time>2026-04-25T13:28:02.998Z</time></trkpt><trkpt lat="45.91448878813084" lon="12.316465553549437"><ele>89.0</ele><time>2026-04-25T13:28:03.998Z</time></trkpt><trkpt lat="45.91455092098779" lon="12.316428324150431"><ele>89.0</ele><time>2026-04-25T13:28:04.998Z</time></trkpt><trkpt lat="45.91463907405984" lon="12.316329183182205"><ele>89.0</ele><time>2026-04-25T13:28:06.998Z</time></trkpt><trkpt lat="45.9146956081536" lon="12.316237867623546"><ele>89.0</ele><time>2026-04-25T13:28:08.998Z</time></trkpt><trkpt lat="45.91474100219769" lon="12.31615947576886"><ele>89.0</ele><time>2026-04-25T13:28:10.998Z</time></trkpt><trkpt lat="45.91479521382277" lon="12.316059087320532"><ele>89.99999999999999</ele><time>2026-04-25T13:28:13.998Z</time></trkpt><trkpt lat="45.91484427599829" lon="12.315964551221565"><ele>91.0</ele><time>2026-04-25T13:28:16.998Z</time></trkpt><trkpt lat="45.914871112745615" lon="12.315876193514894"><ele>92.0</ele><time>2026-04-25T13:28:20Z</time></trkpt><trkpt lat="45.91491451616379" lon="12.315799835642025"><ele>93.0</ele><time>2026-04-25T13:28:23Z</time></trkpt><trkpt lat="45.914955281489334" lon="12.31572650670378"><ele>94.0</ele><time>2026-04-25T13:28:26Z</time></trkpt><trkpt lat="45.914998462212644" lon="12.315638979148291"><ele>94.99999999999999</ele><time>2026-04-25T13:28:29Z</time></trkpt><trkpt lat="45.91504480595997" lon="12.315533576097835"><ele>96.0</ele><time>2026-04-25T13:28:32Z</time></trkpt><trkpt lat="45.91508644231328" lon="12.31543697947444"><ele>95.99999999999999</ele><time>2026-04-25T13:28:35Z</time></trkpt><trkpt lat="45.91512533376222" lon="12.315361075979228"><ele>96.0</ele><time>2026-04-25T13:28:38Z</time></trkpt><trkpt lat="45.915159815834805" lon="12.315280673459064"><ele>96.0</ele><time>2026-04-25T13:28:41Z</time></trkpt><trkpt lat="45.915215544969605" lon="12.31520289168314"><ele>96.0</ele><time>2026-04-25T13:28:45Z</time></trkpt><trkpt lat="45.91525627809985" lon="12.315113052355862"><ele>96.0</ele><time>2026-04-25T13:28:49Z</time></trkpt><trkpt lat="45.915297041469245" lon="12.315023145936234"><ele>95.99999999999999</ele><time>2026-04-25T13:28:53Z</time></trkpt><trkpt lat="45.9153131816969" lon="12.314930700669015"><ele>96.0</ele><time>2026-04-25T13:28:57Z</time></trkpt><trkpt lat="45.915361517650496" lon="12.314825108650053"><ele>96.42857142857142</ele><time>2026-04-25T13:29:00Z</time></trkpt><trkpt lat="45.915402065953174" lon="12.314709183116303"><ele>96.85714285714286</ele><time>2026-04-25T13:29:03Z</time></trkpt><trkpt lat="45.91544274399405" lon="12.314632280735275"><ele>97.28571428571428</ele><time>2026-04-25T13:29:05Z</time></trkpt><trkpt lat="45.91549030531818" lon="12.314564812615377"><ele>97.71428571428571</ele><time>2026-04-25T13:29:06.999Z</time></trkpt><trkpt lat="45.915542535281894" lon="12.314503103684508"><ele>98.14285714285714</ele><time>2026-04-25T13:29:08.999Z</time></trkpt><trkpt lat="45.91559491953727" lon="12.31444466910367"><ele>98.57142857142857</ele><time>2026-04-25T13:29:10.999Z</time></trkpt><trkpt lat="45.91565128555445" lon="12.314388727146417"><ele>99.0</ele><time>2026-04-25T13:29:12.999Z</time></trkpt><trkpt lat="45.9157072088864" lon="12.314316117520086"><ele>99.0</ele><time>2026-04-25T13:29:14.999Z</time></trkpt><trkpt lat="45.91577085215023" lon="12.31424218630718"><ele>99.0</ele><time>2026-04-25T13:29:16.999Z</time></trkpt><trkpt lat="45.91583836823135" lon="12.314159186909542"><ele>99.0</ele><time>2026-04-25T13:29:18.999Z</time></trkpt><trkpt lat="45.9159152815371" lon="12.31407620337047"><ele>99.0</ele><time>2026-04-25T13:29:20.999Z</time></trkpt><trkpt lat="45.91599308915511" lon="12.3139916200207"><ele>99.0</ele><time>2026-04-25T13:29:22.999Z</time></trkpt><trkpt lat="45.91607004699299" lon="12.313907277735176"><ele>100.0</ele><time>2026-04-25T13:29:24.999Z</time></trkpt><trkpt lat="45.91615175340591" lon="12.313824781704694"><ele>101.0</ele><time>2026-04-25T13:29:26.999Z</time></trkpt><trkpt lat="45.91623824674417" lon="12.313753915257195"><ele>102.0</ele><time>2026-04-25T13:29:28.999Z</time></trkpt><trkpt lat="45.9163218874662" lon="12.313684495450683"><ele>103.0</ele><time>2026-04-25T13:29:30.999Z</time></trkpt><trkpt lat="45.916403004999566" lon="12.313628209372359"><ele>104.0</ele><time>2026-04-25T13:29:32.999Z</time></trkpt><trkpt lat="45.9164714766409" lon="12.31357011400971"><ele>103.99999999999999</ele><time>2026-04-25T13:29:34.999Z</time></trkpt><trkpt lat="45.916535262111395" lon="12.313527494922097"><ele>104.0</ele><time>2026-04-25T13:29:36.999Z</time></trkpt><trkpt lat="45.91659282843733" lon="12.31348045847444"><ele>104.0</ele><time>2026-04-25T13:29:38.999Z</time></trkpt><trkpt lat="45.916646760942925" lon="12.313432414409528"><ele>104.0</ele><time>2026-04-25T13:29:40.999Z</time></trkpt><trkpt lat="45.91672483145235" lon="12.313373550665931"><ele>103.99999999999999</ele><time>2026-04-25T13:29:43.999Z</time></trkpt><trkpt lat="45.91680358979732" lon="12.313310175534932"><ele>104.0</ele><time>2026-04-25T13:29:46.999Z</time></trkpt><trkpt lat="45.916880193629524" lon="12.313254491019425"><ele>104.0</ele><time>2026-04-25T13:29:49.999Z</time></trkpt><trkpt lat="45.91695708667539" lon="12.313201179931257"><ele>104.0</ele><time>2026-04-25T13:29:52.999Z</time></trkpt><trkpt lat="45.91703114564906" lon="12.313149579847803"><ele>104.0</ele><time>2026-04-25T13:29:55.999Z</time></trkpt><trkpt lat="45.917098742797315" lon="12.313092532243337"><ele>104.0</ele><time>2026-04-25T13:29:58.998Z</time></trkpt><trkpt lat="45.91716105934059" lon="12.31304403137163"><ele>104.0</ele><time>2026-04-25T13:30:01.998Z</time></trkpt><trkpt lat="45.91722129895629" lon="12.312997827359071"><ele>104.0</ele><time>2026-04-25T13:30:04.998Z</time></trkpt><trkpt lat="45.91727673405261" lon="12.312954585707015"><ele>104.0</ele><time>2026-04-25T13:30:07.998Z</time></trkpt><trkpt lat="45.91733482693545" lon="12.312913656878369"><ele>104.71428571428571</ele><time>2026-04-25T13:30:10.998Z</time></trkpt><trkpt lat="45.917391931886534" lon="12.31286612143571"><ele>105.42857142857143</ele><time>2026-04-25T13:30:13.998Z</time></trkpt><trkpt lat="45.91744521784101" lon="12.312817503748173"><ele>106.14285714285714</ele><time>2026-04-25T13:30:16.998Z</time></trkpt><trkpt lat="45.91752043701342" lon="12.312761735836084"><ele>106.85714285714286</ele><time>2026-04-25T13:30:20.998Z</time></trkpt><trkpt lat="45.917578796267215" lon="12.312716188865505"><ele>107.57142857142858</ele><time>2026-04-25T13:30:23.997Z</time></trkpt><trkpt lat="45.9176361480343" lon="12.312670045757011"><ele>108.28571428571429</ele><time>2026-04-25T13:30:26.999Z</time></trkpt><trkpt lat="45.91768843267408" lon="12.3126189356575"><ele>109.0</ele><time>2026-04-25T13:30:29.999Z</time></trkpt><trkpt lat="45.91774005388924" lon="12.312553803636773"><ele>109.71428571428572</ele><time>2026-04-25T13:30:32.999Z</time></trkpt><trkpt lat="45.91778501394816" lon="12.312480212070868"><ele>110.42857142857143</ele><time>2026-04-25T13:30:35.999Z</time></trkpt><trkpt lat="45.917823766733825" lon="12.312398845313083"><ele>111.14285714285714</ele><time>2026-04-25T13:30:38.999Z</time></trkpt><trkpt lat="45.91785031870777" lon="12.312316235777335"><ele>111.85714285714286</ele><time>2026-04-25T13:30:41.999Z</time></trkpt><trkpt lat="45.91785514145386" lon="12.312196051774388"><ele>112.57142857142856</ele><time>2026-04-25T13:30:45.999Z</time></trkpt><trkpt lat="45.91781710240778" lon="12.312097236827226"><ele>113.28571428571428</ele><time>2026-04-25T13:30:48.999Z</time></trkpt><trkpt lat="45.91777421834989" lon="12.312020619669521"><ele>114.0</ele><time>2026-04-25T13:30:50.999Z</time></trkpt><trkpt lat="45.91773281925593" lon="12.311934650128201"><ele>114.66666666666667</ele><time>2026-04-25T13:30:52.999Z</time></trkpt><trkpt lat="45.91769259390466" lon="12.311841609635605"><ele>115.33333333333334</ele><time>2026-04-25T13:30:54.999Z</time></trkpt><trkpt lat="45.917659076755506" lon="12.311738047498169"><ele>116.0</ele><time>2026-04-25T13:30:56.999Z</time></trkpt><trkpt lat="45.91766555574029" lon="12.31162281059041"><ele>116.66666666666667</ele><time>2026-04-25T13:30:58.999Z</time></trkpt><trkpt lat="45.91768455995461" lon="12.311511510279125"><ele>117.33333333333334</ele><time>2026-04-25T13:31:00.999Z</time></trkpt><trkpt lat="45.91770878624426" lon="12.311400556092003"><ele>118.0</ele><time>2026-04-25T13:31:02.999Z</time></trkpt><trkpt lat="45.91774426836893" lon="12.311294032948568"><ele>118.16666666666667</ele><time>2026-04-25T13:31:04.999Z</time></trkpt><trkpt lat="45.91778076555184" lon="12.311189999317074"><ele>118.33333333333334</ele><time>2026-04-25T13:31:06.999Z</time></trkpt><trkpt lat="45.91781376923895" lon="12.311081148134893"><ele>118.5</ele><time>2026-04-25T13:31:08.999Z</time></trkpt><trkpt lat="45.91784591355093" lon="12.310974848752807"><ele>118.66666666666666</ele><time>2026-04-25T13:31:10.999Z</time></trkpt><trkpt lat="45.91787174890226" lon="12.310863164559136"><ele>118.83333333333333</ele><time>2026-04-25T13:31:12.999Z</time></trkpt><trkpt lat="45.91790370244178" lon="12.31074562092235"><ele>119.0</ele><time>2026-04-25T13:31:14.999Z</time></trkpt><trkpt lat="45.91793918172768" lon="12.310623163197064"><ele>118.99999999999999</ele><time>2026-04-25T13:31:16.999Z</time></trkpt><trkpt lat="45.91798094031745" lon="12.310509340377239"><ele>119.0</ele><time>2026-04-25T13:31:18.999Z</time></trkpt><trkpt lat="45.91802581646437" lon="12.310400281740831"><ele>119.0</ele><time>2026-04-25T13:31:20.999Z</time></trkpt><trkpt lat="45.91807383219204" lon="12.310300282363412"><ele>119.0</ele><time>2026-04-25T13:31:22.999Z</time></trkpt><trkpt lat="45.91812465327589" lon="12.310202562782923"><ele>118.99999999999999</ele><time>2026-04-25T13:31:24.999Z</time></trkpt><trkpt lat="45.91817428027545" lon="12.310111277881083"><ele>119.0</ele><time>2026-04-25T13:31:26.999Z</time></trkpt><trkpt lat="45.91822020161262" lon="12.310021301138427"><ele>118.99999999999999</ele><time>2026-04-25T13:31:28.999Z</time></trkpt><trkpt lat="45.91826542815891" lon="12.309931940897478"><ele>119.0</ele><time>2026-04-25T13:31:30.999Z</time></trkpt><trkpt lat="45.91831533847039" lon="12.309847702669536"><ele>119.0</ele><time>2026-04-25T13:31:32.999Z</time></trkpt><trkpt lat="45.918363124412835" lon="12.309765755409929"><ele>119.0</ele><time>2026-04-25T13:31:34.999Z</time></trkpt><trkpt lat="45.918414689101226" lon="12.309686654868637"><ele>118.99999999999999</ele><time>2026-04-25T13:31:36.999Z</time></trkpt><trkpt lat="45.91846670222866" lon="12.309608180739664"><ele>119.0</ele><time>2026-04-25T13:31:38.999Z</time></trkpt><trkpt lat="45.91852353456475" lon="12.309530837767023"><ele>119.49999999999999</ele><time>2026-04-25T13:31:40.998Z</time></trkpt><trkpt lat="45.918575163637676" lon="12.309448689000336"><ele>120.0</ele><time>2026-04-25T13:31:42.998Z</time></trkpt><trkpt lat="45.918631489284934" lon="12.309368157381247"><ele>120.5</ele><time>2026-04-25T13:31:44.998Z</time></trkpt><trkpt lat="45.91868487144328" lon="12.309274920582126"><ele>121.0</ele><time>2026-04-25T13:31:46.998Z</time></trkpt><trkpt lat="45.918724457830194" lon="12.309162353542341"><ele>121.49999999999999</ele><time>2026-04-25T13:31:48.998Z</time></trkpt><trkpt lat="45.91875837668484" lon="12.309039698902538"><ele>122.0</ele><time>2026-04-25T13:31:50.998Z</time></trkpt><trkpt lat="45.91878809459144" lon="12.30891011983974"><ele>121.99999999999999</ele><time>2026-04-25T13:31:52.998Z</time></trkpt><trkpt lat="45.91881148713256" lon="12.308786605897678"><ele>122.0</ele><time>2026-04-25T13:31:54.998Z</time></trkpt><trkpt lat="45.91883738636682" lon="12.30866441897649"><ele>122.0</ele><time>2026-04-25T13:31:56.998Z</time></trkpt><trkpt lat="45.91886385243006" lon="12.308555387178744"><ele>122.0</ele><time>2026-04-25T13:31:58.998Z</time></trkpt><trkpt lat="45.91891817631918" lon="12.308482384724579"><ele>121.99999999999999</ele><time>2026-04-25T13:32:00.998Z</time></trkpt><trkpt lat="45.918982191156786" lon="12.308487305331266"><ele>122.0</ele><time>2026-04-25T13:32:02.998Z</time></trkpt><trkpt lat="45.919066139916715" lon="12.308513651144459"><ele>121.99999999999999</ele><time>2026-04-25T13:32:05.998Z</time></trkpt><trkpt lat="45.919148446239" lon="12.308534689915838"><ele>122.0</ele><time>2026-04-25T13:32:08.998Z</time></trkpt><trkpt lat="45.91922494214912" lon="12.308561571118728"><ele>121.99999999999999</ele><time>2026-04-25T13:32:11.998Z</time></trkpt><trkpt lat="45.9192935369616" lon="12.308574400574932"><ele>121.99999999999999</ele><time>2026-04-25T13:32:14.998Z</time></trkpt><trkpt lat="45.91936027410866" lon="12.30858930454431"><ele>122.0</ele><time>2026-04-25T13:32:17.998Z</time></trkpt><trkpt lat="45.91942536653897" lon="12.308602287298582"><ele>121.99999999999999</ele><time>2026-04-25T13:32:20.998Z</time></trkpt><trkpt lat="45.919489918108425" lon="12.308623110200681"><ele>121.99999999999999</ele><time>2026-04-25T13:32:23.998Z</time></trkpt><trkpt lat="45.91955516877696" lon="12.308635342708925"><ele>123.14285714285712</ele><time>2026-04-25T13:32:26.998Z</time></trkpt><trkpt lat="45.919620386948345" lon="12.308647809925871"><ele>124.28571428571428</ele><time>2026-04-25T13:32:30Z</time></trkpt><trkpt lat="45.91968766517571" lon="12.308652008493931"><ele>125.42857142857143</ele><time>2026-04-25T13:32:33Z</time></trkpt><trkpt lat="45.919755522212505" lon="12.308649139382041"><ele>126.57142857142857</ele><time>2026-04-25T13:32:36Z</time></trkpt><trkpt lat="45.91982064326676" lon="12.308644616472664"><ele>127.71428571428572</ele><time>2026-04-25T13:32:39Z</time></trkpt><trkpt lat="45.91989997925153" lon="12.308637555734169"><ele>128.85714285714286</ele><time>2026-04-25T13:32:42Z</time></trkpt><trkpt lat="45.91997268754799" lon="12.308624283556945"><ele>130.0</ele><time>2026-04-25T13:32:45Z</time></trkpt><trkpt lat="45.92004984083879" lon="12.308614900440041"><ele>131.5</ele><time>2026-04-25T13:32:48Z</time></trkpt><trkpt lat="45.92012644064587" lon="12.308604146463454"><ele>133.0</ele><time>2026-04-25T13:32:51Z</time></trkpt><trkpt lat="45.92020402261449" lon="12.308592751661795"><ele>134.5</ele><time>2026-04-25T13:32:54Z</time></trkpt><trkpt lat="45.92027980308675" lon="12.30857433408145"><ele>136.0</ele><time>2026-04-25T13:32:57Z</time></trkpt><trkpt lat="45.92035626919328" lon="12.308559664600772"><ele>137.5</ele><time>2026-04-25T13:32:59.999Z</time></trkpt><trkpt lat="45.92043324296393" lon="12.308541220503235"><ele>139.0</ele><time>2026-04-25T13:33:02.999Z</time></trkpt><trkpt lat="45.920511245474515" lon="12.308518986567993"><ele>139.0</ele><time>2026-04-25T13:33:05.999Z</time></trkpt><trkpt lat="45.920587487524436" lon="12.308490439893092"><ele>139.0</ele><time>2026-04-25T13:33:08.999Z</time></trkpt><trkpt lat="45.920661181433324" lon="12.308458181378109"><ele>139.0</ele><time>2026-04-25T13:33:11.999Z</time></trkpt><trkpt lat="45.92073764581398" lon="12.308428270656867"><ele>139.0</ele><time>2026-04-25T13:33:14.999Z</time></trkpt><trkpt lat="45.92081431695684" lon="12.30839492030867"><ele>139.0</ele><time>2026-04-25T13:33:17.999Z</time></trkpt><trkpt lat="45.92088919421246" lon="12.308350109936327"><ele>139.0</ele><time>2026-04-25T13:33:20.999Z</time></trkpt><trkpt lat="45.920968482114624" lon="12.308300996474301"><ele>139.0</ele><time>2026-04-25T13:33:23.999Z</time></trkpt><trkpt lat="45.92105556985223" lon="12.308252736725278"><ele>139.0</ele><time>2026-04-25T13:33:26.999Z</time></trkpt><trkpt lat="45.92111442603354" lon="12.308214327875039"><ele>139.0</ele><time>2026-04-25T13:33:28.999Z</time></trkpt><trkpt lat="45.921178753671796" lon="12.308173084952596"><ele>139.0</ele><time>2026-04-25T13:33:30.999Z</time></trkpt><trkpt lat="45.921246286440265" lon="12.308132980023887"><ele>139.0</ele><time>2026-04-25T13:33:32.999Z</time></trkpt><trkpt lat="45.92131711098435" lon="12.308089356820224"><ele>139.0</ele><time>2026-04-25T13:33:34.999Z</time></trkpt><trkpt lat="45.921389788179056" lon="12.308043272918384"><ele>139.0</ele><time>2026-04-25T13:33:36.999Z</time></trkpt><trkpt lat="45.92146656659731" lon="12.307996502043961"><ele>139.0</ele><time>2026-04-25T13:33:38.999Z</time></trkpt><trkpt lat="45.92154560208342" lon="12.307949674471539"><ele>139.0</ele><time>2026-04-25T13:33:40.999Z</time></trkpt><trkpt lat="45.921631508278914" lon="12.307889410525355"><ele>139.0</ele><time>2026-04-25T13:33:42.999Z</time></trkpt><trkpt lat="45.92171551929779" lon="12.30783076676427"><ele>139.0</ele><time>2026-04-25T13:33:44.999Z</time></trkpt><trkpt lat="45.92179997740045" lon="12.307755302774293"><ele>139.0</ele><time>2026-04-25T13:33:46.999Z</time></trkpt><trkpt lat="45.921888717222956" lon="12.307678696447311"><ele>139.0</ele><time>2026-04-25T13:33:48.999Z</time></trkpt><trkpt lat="45.9219779207772" lon="12.307589347104853"><ele>139.0</ele><time>2026-04-25T13:33:50.999Z</time></trkpt><trkpt lat="45.9220674187428" lon="12.30749203346903"><ele>139.0</ele><time>2026-04-25T13:33:52.999Z</time></trkpt><trkpt lat="45.92215448930937" lon="12.307386476579206"><ele>139.0</ele><time>2026-04-25T13:33:54.999Z</time></trkpt><trkpt lat="45.92224632743684" lon="12.307278576343531"><ele>139.0</ele><time>2026-04-25T13:33:56.999Z</time></trkpt><trkpt lat="45.922341344955" lon="12.307163530195192"><ele>139.0</ele><time>2026-04-25T13:33:58.999Z</time></trkpt><trkpt lat="45.922433904826335" lon="12.307045537140077"><ele>139.0</ele><time>2026-04-25T13:34:00.999Z</time></trkpt><trkpt lat="45.92252721207229" lon="12.30692735780911"><ele>139.0</ele><time>2026-04-25T13:34:02.999Z</time></trkpt><trkpt lat="45.922577433961436" lon="12.306870569539495"><ele>139.0</ele><time>2026-04-25T13:34:03.999Z</time></trkpt><trkpt lat="45.92262652987817" lon="12.306811710330422"><ele>139.14285714285714</ele><time>2026-04-25T13:34:04.999Z</time></trkpt><trkpt lat="45.92267499140139" lon="12.306749461624966"><ele>139.28571428571428</ele><time>2026-04-25T13:34:05.999Z</time></trkpt><trkpt lat="45.92272414817524" lon="12.306691345468217"><ele>139.42857142857144</ele><time>2026-04-25T13:34:06.999Z</time></trkpt><trkpt lat="45.92277330942918" lon="12.306626922682877"><ele>139.57142857142856</ele><time>2026-04-25T13:34:07.999Z</time></trkpt><trkpt lat="45.922823481539396" lon="12.306562882811528"><ele>139.71428571428572</ele><time>2026-04-25T13:34:08.999Z</time></trkpt><trkpt lat="45.92287670158689" lon="12.306507190218484"><ele>139.85714285714286</ele><time>2026-04-25T13:34:09.999Z</time></trkpt><trkpt lat="45.92292871969526" lon="12.306445723979826"><ele>140.0</ele><time>2026-04-25T13:34:10.999Z</time></trkpt><trkpt lat="45.92298202987625" lon="12.306383124679007"><ele>140.14285714285714</ele><time>2026-04-25T13:34:11.999Z</time></trkpt><trkpt lat="45.9230349443841" lon="12.306318897202221"><ele>140.28571428571428</ele><time>2026-04-25T13:34:12.999Z</time></trkpt><trkpt lat="45.92308919571915" lon="12.306257243494413"><ele>140.42857142857144</ele><time>2026-04-25T13:34:13.999Z</time></trkpt><trkpt lat="45.92314391857948" lon="12.306196685938751"><ele>140.57142857142856</ele><time>2026-04-25T13:34:14.999Z</time></trkpt><trkpt lat="45.92319645930117" lon="12.306132794593939"><ele>140.71428571428572</ele><time>2026-04-25T13:34:15.999Z</time></trkpt><trkpt lat="45.92324809797783" lon="12.306068178778645"><ele>140.85714285714286</ele><time>2026-04-25T13:34:16.999Z</time></trkpt><trkpt lat="45.92329929488002" lon="12.306003354424845"><ele>141.0</ele><time>2026-04-25T13:34:17.999Z</time></trkpt><trkpt lat="45.923350427970966" lon="12.30594002614494"><ele>141.28571428571428</ele><time>2026-04-25T13:34:18.999Z</time></trkpt><trkpt lat="45.9234016018305" lon="12.305877672080623"><ele>141.57142857142856</ele><time>2026-04-25T13:34:19.999Z</time></trkpt><trkpt lat="45.92345141154356" lon="12.305815191466984"><ele>141.85714285714283</ele><time>2026-04-25T13:34:20.999Z</time></trkpt><trkpt lat="45.92349986685407" lon="12.30575415892461"><ele>142.14285714285714</ele><time>2026-04-25T13:34:21.999Z</time></trkpt><trkpt lat="45.923548148586306" lon="12.305692498934079"><ele>142.42857142857142</ele><time>2026-04-25T13:34:22.999Z</time></trkpt><trkpt lat="45.923596078507444" lon="12.30563354495984"><ele>142.7142857142857</ele><time>2026-04-25T13:34:23.999Z</time></trkpt><trkpt lat="45.92368637274868" lon="12.305518079562633"><ele>143.0</ele><time>2026-04-25T13:34:25.998Z</time></trkpt><trkpt lat="45.92377412827159" lon="12.305404775463554"><ele>143.0</ele><time>2026-04-25T13:34:27.998Z</time></trkpt><trkpt lat="45.92386346880756" lon="12.305297011060158"><ele>143.0</ele><time>2026-04-25T13:34:29.998Z</time></trkpt><trkpt lat="45.92395167849226" lon="12.30518978333459"><ele>143.0</ele><time>2026-04-25T13:34:31.998Z</time></trkpt><trkpt lat="45.924030536743594" lon="12.305079259742989"><ele>143.0</ele><time>2026-04-25T13:34:33.998Z</time></trkpt><trkpt lat="45.924113489936445" lon="12.304983557855664"><ele>143.0</ele><time>2026-04-25T13:34:36Z</time></trkpt><trkpt lat="45.92419116117067" lon="12.304890723704707"><ele>142.0</ele><time>2026-04-25T13:34:38Z</time></trkpt><trkpt lat="45.92426904357345" lon="12.304828834481727"><ele>141.0</ele><time>2026-04-25T13:34:40Z</time></trkpt><trkpt lat="45.924359260264644" lon="12.304816567865249"><ele>140.0</ele><time>2026-04-25T13:34:42Z</time></trkpt><trkpt lat="45.92445299022831" lon="12.304844580810366"><ele>139.0</ele><time>2026-04-25T13:34:44Z</time></trkpt><trkpt lat="45.92455113437012" lon="12.304827121179974"><ele>138.0</ele><time>2026-04-25T13:34:46Z</time></trkpt><trkpt lat="45.92463619786759" lon="12.304773003144374"><ele>139.8</ele><time>2026-04-25T13:34:48Z</time></trkpt><trkpt lat="45.92472776361754" lon="12.304705785834113"><ele>141.60000000000002</ele><time>2026-04-25T13:34:50Z</time></trkpt><trkpt lat="45.92481392059697" lon="12.304632193240135"><ele>143.39999999999998</ele><time>2026-04-25T13:34:52Z</time></trkpt><trkpt lat="45.92489775652599" lon="12.304555160639113"><ele>145.2</ele><time>2026-04-25T13:34:54Z</time></trkpt><trkpt lat="45.92497133970182" lon="12.30446309236499"><ele>147.0</ele><time>2026-04-25T13:34:56Z</time></trkpt><trkpt lat="45.9250449850791" lon="12.304358064821011"><ele>145.83333333333334</ele><time>2026-04-25T13:34:58Z</time></trkpt><trkpt lat="45.92514474791821" lon="12.304264252879952"><ele>144.66666666666666</ele><time>2026-04-25T13:35:00Z</time></trkpt><trkpt lat="45.925203638731745" lon="12.304214817619531"><ele>143.5</ele><time>2026-04-25T13:35:01Z</time></trkpt><trkpt lat="45.925265813345256" lon="12.304168531106503"><ele>142.33333333333331</ele><time>2026-04-25T13:35:02Z</time></trkpt><trkpt lat="45.92533468645262" lon="12.304134476664075"><ele>141.16666666666666</ele><time>2026-04-25T13:35:03Z</time></trkpt><trkpt lat="45.92540636893093" lon="12.30409753727031"><ele>140.0</ele><time>2026-04-25T13:35:04Z</time></trkpt><trkpt lat="45.92548023164668" lon="12.304049483704906"><ele>140.0</ele><time>2026-04-25T13:35:05Z</time></trkpt><trkpt lat="45.92555417686047" lon="12.303996423076118"><ele>140.0</ele><time>2026-04-25T13:35:06Z</time></trkpt><trkpt lat="45.92563026433343" lon="12.3039481587977"><ele>140.0</ele><time>2026-04-25T13:35:07Z</time></trkpt><trkpt lat="45.92571381076124" lon="12.303910824332016"><ele>140.0</ele><time>2026-04-25T13:35:08Z</time></trkpt><trkpt lat="45.92579978484472" lon="12.30389748111293"><ele>140.0</ele><time>2026-04-25T13:35:09Z</time></trkpt><trkpt lat="45.925889744068044" lon="12.303903119702836"><ele>140.0</ele><time>2026-04-25T13:35:10Z</time></trkpt><trkpt lat="45.92598232413007" lon="12.303920737954465"><ele>138.6</ele><time>2026-04-25T13:35:11Z</time></trkpt><trkpt lat="45.92607559300413" lon="12.303962515662402"><ele>137.2</ele><time>2026-04-25T13:35:12Z</time></trkpt><trkpt lat="45.926165436291875" lon="12.304018894883924"><ele>135.8</ele><time>2026-04-25T13:35:13Z</time></trkpt><trkpt lat="45.92625256373326" lon="12.304074908844283"><ele>134.4</ele><time>2026-04-25T13:35:14Z</time></trkpt><trkpt lat="45.926346152754505" lon="12.304127604370118"><ele>133.0</ele><time>2026-04-25T13:35:15Z</time></trkpt><trkpt lat="45.9264423359274" lon="12.30417555722309"><ele>133.0</ele><time>2026-04-25T13:35:16Z</time></trkpt><trkpt lat="45.92653644254719" lon="12.304218142546198"><ele>133.0</ele><time>2026-04-25T13:35:17Z</time></trkpt><trkpt lat="45.926633127345774" lon="12.304256323334172"><ele>133.0</ele><time>2026-04-25T13:35:18Z</time></trkpt><trkpt lat="45.92673592775996" lon="12.304293755149729"><ele>133.0</ele><time>2026-04-25T13:35:19Z</time></trkpt><trkpt lat="45.926841279160506" lon="12.30433663015721"><ele>133.0</ele><time>2026-04-25T13:35:20Z</time></trkpt><trkpt lat="45.926942150326376" lon="12.30437416152458"><ele>131.8</ele><time>2026-04-25T13:35:21Z</time></trkpt><trkpt lat="45.927043954398464" lon="12.304404209472864"><ele>130.60000000000002</ele><time>2026-04-25T13:35:22Z</time></trkpt><trkpt lat="45.92713583954645" lon="12.304436094235603"><ele>129.39999999999998</ele><time>2026-04-25T13:35:23Z</time></trkpt><trkpt lat="45.927223392871824" lon="12.304469598557029"><ele>128.2</ele><time>2026-04-25T13:35:24Z</time></trkpt><trkpt lat="45.92731436989896" lon="12.30452229645246"><ele>127.0</ele><time>2026-04-25T13:35:25Z</time></trkpt><trkpt lat="45.92739709096881" lon="12.304602971307618"><ele>127.0</ele><time>2026-04-25T13:35:26Z</time></trkpt><trkpt lat="45.92746601262225" lon="12.304717411214948"><ele>126.99999999999999</ele><time>2026-04-25T13:35:27Z</time></trkpt><trkpt lat="45.92751950691701" lon="12.30484471024081"><ele>126.99999999999999</ele><time>2026-04-25T13:35:28Z</time></trkpt><trkpt lat="45.92756356078559" lon="12.304975381447713"><ele>127.0</ele><time>2026-04-25T13:35:29Z</time></trkpt><trkpt lat="45.92760578313755" lon="12.305103769573302"><ele>127.0</ele><time>2026-04-25T13:35:30Z</time></trkpt><trkpt lat="45.92766664749035" lon="12.30521886872952"><ele>126.19999999999999</ele><time>2026-04-25T13:35:31Z</time></trkpt><trkpt lat="45.92773869316088" lon="12.30531726409269"><ele>125.39999999999999</ele><time>2026-04-25T13:35:32Z</time></trkpt><trkpt lat="45.927813646519155" lon="12.305385234702573"><ele>124.60000000000001</ele><time>2026-04-25T13:35:33Z</time></trkpt><trkpt lat="45.92789760494006" lon="12.305439677794052"><ele>123.80000000000001</ele><time>2026-04-25T13:35:34Z</time></trkpt><trkpt lat="45.92798577147207" lon="12.305484452297495"><ele>123.0</ele><time>2026-04-25T13:35:35Z</time></trkpt><trkpt lat="45.92806804177288" lon="12.305534571281184"><ele>122.33333333333333</ele><time>2026-04-25T13:35:36Z</time></trkpt><trkpt lat="45.928145911102135" lon="12.305587804048114"><ele>121.66666666666666</ele><time>2026-04-25T13:35:37Z</time></trkpt><trkpt lat="45.92821954103616" lon="12.305637529370244"><ele>121.0</ele><time>2026-04-25T13:35:38Z</time></trkpt><trkpt lat="45.92829495125479" lon="12.305682323703309"><ele>120.33333333333333</ele><time>2026-04-25T13:35:39Z</time></trkpt><trkpt lat="45.92837474327032" lon="12.305729269985065"><ele>119.66666666666666</ele><time>2026-04-25T13:35:40Z</time></trkpt><trkpt lat="45.928448386414466" lon="12.305775402549603"><ele>119.0</ele><time>2026-04-25T13:35:41Z</time></trkpt><trkpt lat="45.92851634135986" lon="12.305822422139796"><ele>117.71428571428571</ele><time>2026-04-25T13:35:42Z</time></trkpt><trkpt lat="45.92858149591901" lon="12.3058669954138"><ele>116.42857142857143</ele><time>2026-04-25T13:35:43Z</time></trkpt><trkpt lat="45.92864655558195" lon="12.305912919687808"><ele>115.14285714285714</ele><time>2026-04-25T13:35:44Z</time></trkpt><trkpt lat="45.92871087180181" lon="12.305957896935238"><ele>113.85714285714286</ele><time>2026-04-25T13:35:45Z</time></trkpt><trkpt lat="45.928770486986075" lon="12.306010236858754"><ele>112.57142857142857</ele><time>2026-04-25T13:35:46Z</time></trkpt><trkpt lat="45.928831941505855" lon="12.306073627959787"><ele>111.28571428571428</ele><time>2026-04-25T13:35:46.999Z</time></trkpt><trkpt lat="45.92888829570918" lon="12.306144852081044"><ele>110.0</ele><time>2026-04-25T13:35:47.999Z</time></trkpt><trkpt lat="45.92893528225363" lon="12.3062309562404"><ele>109.99999999999999</ele><time>2026-04-25T13:35:48.999Z</time></trkpt><trkpt lat="45.92897782442786" lon="12.30632947515293"><ele>110.0</ele><time>2026-04-25T13:35:49.999Z</time></trkpt><trkpt lat="45.929014684016664" lon="12.306440176735544"><ele>110.0</ele><time>2026-04-25T13:35:50.999Z</time></trkpt><trkpt lat="45.929042609101" lon="12.306554418243008"><ele>110.0</ele><time>2026-04-25T13:35:51.999Z</time></trkpt><trkpt lat="45.92907105141981" lon="12.306680995879974"><ele>109.99999999999999</ele><time>2026-04-25T13:35:52.999Z</time></trkpt><trkpt lat="45.92910078820141" lon="12.306809522463672"><ele>110.0</ele><time>2026-04-25T13:35:53.999Z</time></trkpt><trkpt lat="45.929129074676574" lon="12.306937406942003"><ele>109.49999999999999</ele><time>2026-04-25T13:35:54.999Z</time></trkpt><trkpt lat="45.92915648406641" lon="12.307060266404827"><ele>109.0</ele><time>2026-04-25T13:35:55.999Z</time></trkpt><trkpt lat="45.92918195854804" lon="12.307181154289315"><ele>108.5</ele><time>2026-04-25T13:35:56.999Z</time></trkpt><trkpt lat="45.929211347248305" lon="12.307299188205748"><ele>108.0</ele><time>2026-04-25T13:35:57.999Z</time></trkpt><trkpt lat="45.929242947174224" lon="12.307419226547475"><ele>107.49999999999999</ele><time>2026-04-25T13:35:58.999Z</time></trkpt><trkpt lat="45.92927385908416" lon="12.307546350146245"><ele>107.0</ele><time>2026-04-25T13:35:59.999Z</time></trkpt><trkpt lat="45.92930111192205" lon="12.307676654857373"><ele>104.99999999999999</ele><time>2026-04-25T13:36:00.999Z</time></trkpt><trkpt lat="45.92932952626096" lon="12.307797851631545"><ele>103.0</ele><time>2026-04-25T13:36:01.999Z</time></trkpt><trkpt lat="45.92935708955775" lon="12.30791014129459"><ele>101.0</ele><time>2026-04-25T13:36:02.999Z</time></trkpt><trkpt lat="45.92938078150511" lon="12.308017224763796"><ele>99.0</ele><time>2026-04-25T13:36:03.999Z</time></trkpt><trkpt lat="45.92940635696658" lon="12.308120281192503"><ele>97.0</ele><time>2026-04-25T13:36:04.999Z</time></trkpt><trkpt lat="45.92942980222687" lon="12.308206017952672"><ele>95.0</ele><time>2026-04-25T13:36:05.999Z</time></trkpt><trkpt lat="45.92945653016472" lon="12.308345528399645"><ele>95.0</ele><time>2026-04-25T13:36:07.999Z</time></trkpt><trkpt lat="45.929589237402716" lon="12.308282071553574"><ele>95.0</ele><time>2026-04-25T13:36:10.999Z</time></trkpt><trkpt lat="45.92960983678271" lon="12.308151199713816"><ele>95.0</ele><time>2026-04-25T13:36:12.999Z</time></trkpt><trkpt lat="45.929649183149564" lon="12.30800891626325"><ele>95.0</ele><time>2026-04-25T13:36:14.999Z</time></trkpt><trkpt lat="45.929689846857364" lon="12.30787478357537"><ele>95.0</ele><time>2026-04-25T13:36:16.999Z</time></trkpt><trkpt lat="45.929711296507534" lon="12.30773591920413"><ele>95.0</ele><time>2026-04-25T13:36:18.999Z</time></trkpt><trkpt lat="45.92973119508454" lon="12.307606987859982"><ele>95.0</ele><time>2026-04-25T13:36:20.999Z</time></trkpt><trkpt lat="45.929762252114166" lon="12.307478129734244"><ele>95.0</ele><time>2026-04-25T13:36:22.999Z</time></trkpt><trkpt lat="45.929802362349456" lon="12.307360285102446"><ele>95.0</ele><time>2026-04-25T13:36:24.999Z</time></trkpt><trkpt lat="45.92984427725663" lon="12.307250144807677"><ele>95.0</ele><time>2026-04-25T13:36:26.999Z</time></trkpt><trkpt lat="45.929893588077796" lon="12.307155359561015"><ele>95.0</ele><time>2026-04-25T13:36:28.999Z</time></trkpt><trkpt lat="45.929960219027095" lon="12.307069361398822"><ele>95.0</ele><time>2026-04-25T13:36:30.999Z</time></trkpt><trkpt lat="45.930008022949934" lon="12.306951633710474"><ele>95.0</ele><time>2026-04-25T13:36:32.999Z</time></trkpt><trkpt lat="45.93003368530032" lon="12.3068378118194"><ele>95.0</ele><time>2026-04-25T13:36:34.999Z</time></trkpt><trkpt lat="45.930072099689376" lon="12.306728074065667"><ele>95.0</ele><time>2026-04-25T13:36:36.999Z</time></trkpt><trkpt lat="45.9301143441513" lon="12.306620808826585"><ele>95.0</ele><time>2026-04-25T13:36:38.999Z</time></trkpt><trkpt lat="45.930166995165294" lon="12.30651440347962"><ele>95.0</ele><time>2026-04-25T13:36:40.999Z</time></trkpt><trkpt lat="45.93022374444045" lon="12.306420622073707"><ele>95.2</ele><time>2026-04-25T13:36:43.001Z</time></trkpt><trkpt lat="45.93027741752205" lon="12.306321570887143"><ele>95.4</ele><time>2026-04-25T13:36:45.001Z</time></trkpt><trkpt lat="45.930329701372884" lon="12.306223289154206"><ele>95.6</ele><time>2026-04-25T13:36:47.001Z</time></trkpt><trkpt lat="45.93038174119617" lon="12.306118356250401"><ele>95.8</ele><time>2026-04-25T13:36:49.001Z</time></trkpt><trkpt lat="45.93044044112674" lon="12.306012200451704"><ele>96.0</ele><time>2026-04-25T13:36:51.001Z</time></trkpt><trkpt lat="45.930469541851494" lon="12.30587633601485"><ele>96.0</ele><time>2026-04-25T13:36:53.001Z</time></trkpt><trkpt lat="45.93046701690776" lon="12.305742941448496"><ele>96.0</ele><time>2026-04-25T13:36:55.001Z</time></trkpt><trkpt lat="45.93045749391937" lon="12.305612656775013"><ele>96.0</ele><time>2026-04-25T13:36:57.001Z</time></trkpt><trkpt lat="45.93045434393676" lon="12.305484388657653"><ele>96.0</ele><time>2026-04-25T13:36:59.001Z</time></trkpt><trkpt lat="45.9304581862435" lon="12.305358802143642"><ele>96.0</ele><time>2026-04-25T13:37:01.001Z</time></trkpt><trkpt lat="45.93047209182543" lon="12.305241138456507"><ele>96.0</ele><time>2026-04-25T13:37:03.001Z</time></trkpt><trkpt lat="45.93049207052493" lon="12.305123007742958"><ele>96.33333333333333</ele><time>2026-04-25T13:37:05.001Z</time></trkpt><trkpt lat="45.93051689259522" lon="12.305016433550371"><ele>96.66666666666666</ele><time>2026-04-25T13:37:07Z</time></trkpt><trkpt lat="45.93053505287402" lon="12.304904645482342"><ele>97.0</ele><time>2026-04-25T13:37:09Z</time></trkpt><trkpt lat="45.93058903058502" lon="12.304826903424386"><ele>97.33333333333333</ele><time>2026-04-25T13:37:11Z</time></trkpt><trkpt lat="45.93065848988729" lon="12.30478598034043"><ele>97.66666666666666</ele><time>2026-04-25T13:37:13Z</time></trkpt><trkpt lat="45.93073126532207" lon="12.304785743669434"><ele>98.0</ele><time>2026-04-25T13:37:15Z</time></trkpt><trkpt lat="45.93080467762278" lon="12.304804661294748"><ele>98.0</ele><time>2026-04-25T13:37:17Z</time></trkpt><trkpt lat="45.93087396654617" lon="12.304790089622799"><ele>98.0</ele><time>2026-04-25T13:37:19Z</time></trkpt><trkpt lat="45.9309416495212" lon="12.30474456239578"><ele>98.0</ele><time>2026-04-25T13:37:21Z</time></trkpt><trkpt lat="45.93099746733821" lon="12.304678956334355"><ele>98.0</ele><time>2026-04-25T13:37:23Z</time></trkpt><trkpt lat="45.93105119363893" lon="12.304616783546583"><ele>98.0</ele><time>2026-04-25T13:37:25Z</time></trkpt><trkpt lat="45.93110834518674" lon="12.304559746312286"><ele>98.0</ele><time>2026-04-25T13:37:27Z</time></trkpt><trkpt lat="45.931159973785846" lon="12.304493323241628"><ele>98.0</ele><time>2026-04-25T13:37:29Z</time></trkpt><trkpt lat="45.93121111288837" lon="12.304437757220818"><ele>98.99999999999999</ele><time>2026-04-25T13:37:31Z</time></trkpt><trkpt lat="45.93126286169428" lon="12.30437862265849"><ele>100.0</ele><time>2026-04-25T13:37:33Z</time></trkpt><trkpt lat="45.931314635820286" lon="12.304322187567612"><ele>101.0</ele><time>2026-04-25T13:37:35Z</time></trkpt><trkpt lat="45.93139039314625" lon="12.304249449340928"><ele>102.0</ele><time>2026-04-25T13:37:38Z</time></trkpt><trkpt lat="45.931474237092175" lon="12.304206182952603"><ele>102.99999999999999</ele><time>2026-04-25T13:37:41Z</time></trkpt><trkpt lat="45.931548661315134" lon="12.30414936773857"><ele>104.0</ele><time>2026-04-25T13:37:43.999Z</time></trkpt><trkpt lat="45.931613314814605" lon="12.304078883861663"><ele>104.0</ele><time>2026-04-25T13:37:46.999Z</time></trkpt><trkpt lat="45.93169420230951" lon="12.304052684997492"><ele>104.0</ele><time>2026-04-25T13:37:49.999Z</time></trkpt><trkpt lat="45.93176009639446" lon="12.303981866086191"><ele>104.0</ele><time>2026-04-25T13:37:52.999Z</time></trkpt><trkpt lat="45.93184033187489" lon="12.303920692253634"><ele>104.0</ele><time>2026-04-25T13:37:55.999Z</time></trkpt><trkpt lat="45.93189561642791" lon="12.303874423350617"><ele>104.0</ele><time>2026-04-25T13:37:57.999Z</time></trkpt><trkpt lat="45.93195146279765" lon="12.30382982407877"><ele>104.0</ele><time>2026-04-25T13:37:59.999Z</time></trkpt><trkpt lat="45.93200529575643" lon="12.303781407434137"><ele>104.0</ele><time>2026-04-25T13:38:01.999Z</time></trkpt><trkpt lat="45.93206525772081" lon="12.303729862657441"><ele>104.57142857142857</ele><time>2026-04-25T13:38:03.999Z</time></trkpt><trkpt lat="45.932120449354365" lon="12.303677546197783"><ele>105.14285714285715</ele><time>2026-04-25T13:38:05.999Z</time></trkpt><trkpt lat="45.93217472689165" lon="12.303626756600885"><ele>105.71428571428572</ele><time>2026-04-25T13:38:07.999Z</time></trkpt><trkpt lat="45.93225733061512" lon="12.303548677922688"><ele>106.28571428571428</ele><time>2026-04-25T13:38:10.999Z</time></trkpt><trkpt lat="45.932311130314474" lon="12.303497044619407"><ele>106.85714285714286</ele><time>2026-04-25T13:38:12.999Z</time></trkpt><trkpt lat="45.932370255387276" lon="12.30344074016012"><ele>107.42857142857143</ele><time>2026-04-25T13:38:14.999Z</time></trkpt><trkpt lat="45.93242560007092" lon="12.303388609820626"><ele>108.0</ele><time>2026-04-25T13:38:16.999Z</time></trkpt><trkpt lat="45.93248508655104" lon="12.303337508922473"><ele>108.0</ele><time>2026-04-25T13:38:18.999Z</time></trkpt><trkpt lat="45.93255033624361" lon="12.303298282153406"><ele>108.0</ele><time>2026-04-25T13:38:20.999Z</time></trkpt><trkpt lat="45.932606266625925" lon="12.303242990423252"><ele>108.0</ele><time>2026-04-25T13:38:22.999Z</time></trkpt><trkpt lat="45.93266410503154" lon="12.30318581146985"><ele>108.0</ele><time>2026-04-25T13:38:24.998Z</time></trkpt><trkpt lat="45.93271224382751" lon="12.303109630089185"><ele>108.0</ele><time>2026-04-25T13:38:26.998Z</time></trkpt><trkpt lat="45.9327725458712" lon="12.303069337632326"><ele>108.0</ele><time>2026-04-25T13:38:28.998Z</time></trkpt><trkpt lat="45.93281920943313" lon="12.302995753753336"><ele>108.0</ele><time>2026-04-25T13:38:30.998Z</time></trkpt><trkpt lat="45.93284460519932" lon="12.302904733310756"><ele>109.0</ele><time>2026-04-25T13:38:32.998Z</time></trkpt><trkpt lat="45.93289903978208" lon="12.302798325410656"><ele>110.0</ele><time>2026-04-25T13:38:35.998Z</time></trkpt><trkpt lat="45.932950581594525" lon="12.302710807635354"><ele>111.0</ele><time>2026-04-25T13:38:38.998Z</time></trkpt><trkpt lat="45.93300157151357" lon="12.302622679954084"><ele>112.0</ele><time>2026-04-25T13:38:41.998Z</time></trkpt><trkpt lat="45.93305651728038" lon="12.302534428225622"><ele>113.0</ele><time>2026-04-25T13:38:44.998Z</time></trkpt><trkpt lat="45.93310725535173" lon="12.302444368573333"><ele>114.0</ele><time>2026-04-25T13:38:48Z</time></trkpt><trkpt lat="45.93316122236279" lon="12.302360400421682"><ele>114.0</ele><time>2026-04-25T13:38:51Z</time></trkpt><trkpt lat="45.933212549301366" lon="12.30227170491408"><ele>114.0</ele><time>2026-04-25T13:38:54Z</time></trkpt><trkpt lat="45.933273532002" lon="12.302181783226882"><ele>114.0</ele><time>2026-04-25T13:38:57Z</time></trkpt><trkpt lat="45.93332685655552" lon="12.302088197193017"><ele>114.0</ele><time>2026-04-25T13:39:00Z</time></trkpt><trkpt lat="45.93338582377861" lon="12.301993740782812"><ele>114.0</ele><time>2026-04-25T13:39:03Z</time></trkpt><trkpt lat="45.93345055324138" lon="12.301908912710669"><ele>114.0</ele><time>2026-04-25T13:39:06Z</time></trkpt><trkpt lat="45.93352322016472" lon="12.30183733609447"><ele>115.0</ele><time>2026-04-25T13:39:09Z</time></trkpt><trkpt lat="45.93358141022503" lon="12.30180170656313"><ele>115.99999999999999</ele><time>2026-04-25T13:39:11Z</time></trkpt><trkpt lat="45.93363853760778" lon="12.301759536177583"><ele>117.0</ele><time>2026-04-25T13:39:13Z</time></trkpt><trkpt lat="45.933699612954676" lon="12.301713094271953"><ele>118.0</ele><time>2026-04-25T13:39:15Z</time></trkpt><trkpt lat="45.93375472267067" lon="12.30166324596512"><ele>118.99999999999999</ele><time>2026-04-25T13:39:17Z</time></trkpt><trkpt lat="45.93380816348836" lon="12.301602111342776"><ele>120.0</ele><time>2026-04-25T13:39:19Z</time></trkpt><trkpt lat="45.93385825881305" lon="12.301538429726246"><ele>121.0</ele><time>2026-04-25T13:39:21Z</time></trkpt><trkpt lat="45.93390518932742" lon="12.301472260507614"><ele>121.00000000000001</ele><time>2026-04-25T13:39:23Z</time></trkpt><trkpt lat="45.9339498816955" lon="12.301401480721584"><ele>121.0</ele><time>2026-04-25T13:39:25Z</time></trkpt><trkpt lat="45.93401726539352" lon="12.301311132385916"><ele>121.0</ele><time>2026-04-25T13:39:28Z</time></trkpt><trkpt lat="45.93408465818998" lon="12.301226315190203"><ele>121.0</ele><time>2026-04-25T13:39:31Z</time></trkpt><trkpt lat="45.93415371700406" lon="12.30114115102826"><ele>121.00000000000001</ele><time>2026-04-25T13:39:34Z</time></trkpt><trkpt lat="45.93422631756074" lon="12.30104350578466"><ele>121.0</ele><time>2026-04-25T13:39:36.999Z</time></trkpt><trkpt lat="45.93427626864162" lon="12.300972536982583"><ele>121.00000000000001</ele><time>2026-04-25T13:39:38.999Z</time></trkpt><trkpt lat="45.934327958147676" lon="12.300893707206274"><ele>121.0</ele><time>2026-04-25T13:39:40.999Z</time></trkpt><trkpt lat="45.934379531725924" lon="12.300815586756505"><ele>121.0</ele><time>2026-04-25T13:39:42.999Z</time></trkpt><trkpt lat="45.93443263469497" lon="12.300741403287542"><ele>121.0</ele><time>2026-04-25T13:39:44.999Z</time></trkpt><trkpt lat="45.934491052770355" lon="12.30066442207924"><ele>121.00000000000001</ele><time>2026-04-25T13:39:46.999Z</time></trkpt><trkpt lat="45.9345478915164" lon="12.300578530641543"><ele>121.0</ele><time>2026-04-25T13:39:48.999Z</time></trkpt><trkpt lat="45.93461183136405" lon="12.300499584423791"><ele>122.19999999999999</ele><time>2026-04-25T13:39:50.999Z</time></trkpt><trkpt lat="45.93467772304184" lon="12.300413997528945"><ele>123.39999999999999</ele><time>2026-04-25T13:39:52.999Z</time></trkpt><trkpt lat="45.93474479580753" lon="12.300324469513324"><ele>124.6</ele><time>2026-04-25T13:39:54.999Z</time></trkpt><trkpt lat="45.93481413626176" lon="12.300233837210255"><ele>125.8</ele><time>2026-04-25T13:39:56.999Z</time></trkpt><trkpt lat="45.93488379151914" lon="12.300141115479516"><ele>127.0</ele><time>2026-04-25T13:39:58.999Z</time></trkpt><trkpt lat="45.93496013188295" lon="12.30004567938164"><ele>127.0</ele><time>2026-04-25T13:40:00.999Z</time></trkpt><trkpt lat="45.93503899698053" lon="12.299936971078303"><ele>126.99999999999999</ele><time>2026-04-25T13:40:02.999Z</time></trkpt><trkpt lat="45.93512290811701" lon="12.2998411501609"><ele>126.99999999999999</ele><time>2026-04-25T13:40:04.999Z</time></trkpt><trkpt lat="45.93521857025409" lon="12.299751597765288"><ele>127.0</ele><time>2026-04-25T13:40:06.999Z</time></trkpt><trkpt lat="45.935309725048114" lon="12.29965994289972"><ele>127.0</ele><time>2026-04-25T13:40:08.999Z</time></trkpt><trkpt lat="45.935391794634796" lon="12.299549363314727"><ele>127.16666666666667</ele><time>2026-04-25T13:40:10.999Z</time></trkpt><trkpt lat="45.93545606142125" lon="12.299426372525971"><ele>127.33333333333334</ele><time>2026-04-25T13:40:12.999Z</time></trkpt><trkpt lat="45.93551169352388" lon="12.299317399606215"><ele>127.5</ele><time>2026-04-25T13:40:14.999Z</time></trkpt><trkpt lat="45.93558089899482" lon="12.299248468512678"><ele>127.66666666666666</ele><time>2026-04-25T13:40:16.999Z</time></trkpt><trkpt lat="45.93563817332147" lon="12.299171444875455"><ele>127.83333333333333</ele><time>2026-04-25T13:40:18.999Z</time></trkpt><trkpt lat="45.93569397169845" lon="12.29909917550231"><ele>128.0</ele><time>2026-04-25T13:40:20.999Z</time></trkpt><trkpt lat="45.93575248491731" lon="12.299024108665753"><ele>127.99999999999999</ele><time>2026-04-25T13:40:22.999Z</time></trkpt><trkpt lat="45.935811941308984" lon="12.298944555758606"><ele>128.0</ele><time>2026-04-25T13:40:24.999Z</time></trkpt><trkpt lat="45.93585586299721" lon="12.298871840992797"><ele>128.0</ele><time>2026-04-25T13:40:26.999Z</time></trkpt><trkpt lat="45.93581055433657" lon="12.298727699537967"><ele>128.0</ele><time>2026-04-25T13:40:28.999Z</time></trkpt><trkpt lat="45.93577025172067" lon="12.298641412662526"><ele>127.99999999999999</ele><time>2026-04-25T13:40:30.999Z</time></trkpt><trkpt lat="45.935729470959146" lon="12.298545421897918"><ele>128.0</ele><time>2026-04-25T13:40:32.999Z</time></trkpt><trkpt lat="45.935683429750135" lon="12.298417703657787"><ele>128.8</ele><time>2026-04-25T13:40:34.999Z</time></trkpt><trkpt lat="45.93563196838999" lon="12.29826667444437"><ele>129.60000000000002</ele><time>2026-04-25T13:40:36.999Z</time></trkpt><trkpt lat="45.935584528904386" lon="12.29811704385246"><ele>130.39999999999998</ele><time>2026-04-25T13:40:38.999Z</time></trkpt><trkpt lat="45.93552742192118" lon="12.297965510798035"><ele>131.2</ele><time>2026-04-25T13:40:40.999Z</time></trkpt><trkpt lat="45.9354891069987" lon="12.297892194604811"><ele>132.0</ele><time>2026-04-25T13:40:41.999Z</time></trkpt><trkpt lat="45.93541977430058" lon="12.297770779007733"><ele>132.16666666666666</ele><time>2026-04-25T13:40:43.999Z</time></trkpt><trkpt lat="45.9353565862074" lon="12.297673979145378"><ele>132.33333333333334</ele><time>2026-04-25T13:40:45.999Z</time></trkpt><trkpt lat="45.9352943758663" lon="12.297583954487282"><ele>132.5</ele><time>2026-04-25T13:40:48.998Z</time></trkpt><trkpt lat="45.935246615778254" lon="12.297490103450656"><ele>132.66666666666669</ele><time>2026-04-25T13:40:52.998Z</time></trkpt><trkpt lat="45.935212020249644" lon="12.297402279460766"><ele>132.83333333333334</ele><time>2026-04-25T13:40:58Z</time></trkpt><trkpt lat="45.93517932802726" lon="12.297305569949213"><ele>133.0</ele><time>2026-04-25T13:41:03Z</time></trkpt><trkpt lat="45.93511653253813" lon="12.297241799155"><ele>133.14285714285714</ele><time>2026-04-25T13:41:07Z</time></trkpt><trkpt lat="45.93508920207063" lon="12.297155866771556"><ele>133.28571428571428</ele><time>2026-04-25T13:41:11Z</time></trkpt><trkpt lat="45.935072024227615" lon="12.297064304064818"><ele>133.42857142857144</ele><time>2026-04-25T13:41:15Z</time></trkpt><trkpt lat="45.93505651895293" lon="12.296974011600422"><ele>133.57142857142856</ele><time>2026-04-25T13:41:19Z</time></trkpt><trkpt lat="45.9350504926665" lon="12.296882224750044"><ele>133.71428571428572</ele><time>2026-04-25T13:41:23Z</time></trkpt><trkpt lat="45.93504462939714" lon="12.296789047623113"><ele>133.85714285714286</ele><time>2026-04-25T13:41:27Z</time></trkpt><trkpt lat="45.93503975095422" lon="12.296691510027777"><ele>134.0</ele><time>2026-04-25T13:41:31Z</time></trkpt><trkpt lat="45.935035532696325" lon="12.296592349546225"><ele>135.14285714285714</ele><time>2026-04-25T13:41:35Z</time></trkpt><trkpt lat="45.93502056098882" lon="12.296501087289684"><ele>136.28571428571428</ele><time>2026-04-25T13:41:39Z</time></trkpt><trkpt lat="45.93499678988266" lon="12.296413341781525"><ele>137.42857142857142</ele><time>2026-04-25T13:41:43Z</time></trkpt><trkpt lat="45.934959322822785" lon="12.296317754411035"><ele>138.57142857142856</ele><time>2026-04-25T13:41:48Z</time></trkpt><trkpt lat="45.934924256272545" lon="12.296224587926337"><ele>139.7142857142857</ele><time>2026-04-25T13:41:52.999Z</time></trkpt><trkpt lat="45.9348804944906" lon="12.29613546330793"><ele>140.85714285714286</ele><time>2026-04-25T13:41:57.999Z</time></trkpt><trkpt lat="45.934839720159076" lon="12.296044703490455"><ele>142.0</ele><time>2026-04-25T13:42:02.999Z</time></trkpt><trkpt lat="45.93479040395534" lon="12.295962565816788"><ele>142.57142857142856</ele><time>2026-04-25T13:42:07.999Z</time></trkpt><trkpt lat="45.934737970662844" lon="12.295880410229106"><ele>143.14285714285714</ele><time>2026-04-25T13:42:12.999Z</time></trkpt><trkpt lat="45.934692299052806" lon="12.295817736003288"><ele>143.71428571428572</ele><time>2026-04-25T13:42:16.999Z</time></trkpt><trkpt lat="45.93463972244495" lon="12.295761117936262"><ele>144.28571428571428</ele><time>2026-04-25T13:42:20.999Z</time></trkpt><trkpt lat="45.934578823089055" lon="12.2957157796212"><ele>144.85714285714286</ele><time>2026-04-25T13:42:24.999Z</time></trkpt><trkpt lat="45.93451839113388" lon="12.295679637568737"><ele>145.42857142857142</ele><time>2026-04-25T13:42:28.999Z</time></trkpt><trkpt lat="45.93444807194823" lon="12.295639771733011"><ele>146.0</ele><time>2026-04-25T13:42:33.999Z</time></trkpt><trkpt lat="45.93438540106181" lon="12.295587376217338"><ele>147.0</ele><time>2026-04-25T13:42:38.999Z</time></trkpt><trkpt lat="45.93431656832841" lon="12.295552823401176"><ele>148.0</ele><time>2026-04-25T13:42:43.999Z</time></trkpt><trkpt lat="45.934246528904225" lon="12.295505811801492"><ele>149.0</ele><time>2026-04-25T13:42:48.999Z</time></trkpt><trkpt lat="45.934176854863516" lon="12.29546401139293"><ele>150.0</ele><time>2026-04-25T13:42:53.999Z</time></trkpt><trkpt lat="45.93411599837034" lon="12.295397965283465"><ele>151.0</ele><time>2026-04-25T13:42:58.998Z</time></trkpt><trkpt lat="45.93405319444927" lon="12.295340573067147"><ele>152.0</ele><time>2026-04-25T13:43:04Z</time></trkpt><trkpt lat="45.9339971965253" lon="12.295265185390734"><ele>153.16666666666666</ele><time>2026-04-25T13:43:09Z</time></trkpt><trkpt lat="45.93397317291952" lon="12.295174306512257"><ele>154.33333333333331</ele><time>2026-04-25T13:43:14Z</time></trkpt><trkpt lat="45.93391902530109" lon="12.295109759822715"><ele>155.5</ele><time>2026-04-25T13:43:18Z</time></trkpt><trkpt lat="45.93385428511416" lon="12.295135936417967"><ele>156.66666666666666</ele><time>2026-04-25T13:43:20Z</time></trkpt><trkpt lat="45.93378435698969" lon="12.295186857708174"><ele>157.83333333333334</ele><time>2026-04-25T13:43:22Z</time></trkpt><trkpt lat="45.933694882749364" lon="12.2952276125558"><ele>159.0</ele><time>2026-04-25T13:43:24Z</time></trkpt><trkpt lat="45.933594059827485" lon="12.295262335424805"><ele>159.0</ele><time>2026-04-25T13:43:26Z</time></trkpt><trkpt lat="45.9334810614355" lon="12.295298065678397"><ele>159.0</ele><time>2026-04-25T13:43:28Z</time></trkpt><trkpt lat="45.93335391919879" lon="12.295312757105274"><ele>159.0</ele><time>2026-04-25T13:43:30Z</time></trkpt><trkpt lat="45.933286878038594" lon="12.295313802810002"><ele>159.0</ele><time>2026-04-25T13:43:31Z</time></trkpt><trkpt lat="45.93321763846348" lon="12.295314300575047"><ele>159.0</ele><time>2026-04-25T13:43:32Z</time></trkpt><trkpt lat="45.933146814688925" lon="12.295310452815404"><ele>158.83333333333334</ele><time>2026-04-25T13:43:33Z</time></trkpt><trkpt lat="45.93307557043458" lon="12.295307694904933"><ele>158.66666666666666</ele><time>2026-04-25T13:43:34Z</time></trkpt><trkpt lat="45.9330019922817" lon="12.29530498343943"><ele>158.5</ele><time>2026-04-25T13:43:35Z</time></trkpt><trkpt lat="45.93292811095128" lon="12.295306300934731"><ele>158.33333333333331</ele><time>2026-04-25T13:43:36Z</time></trkpt><trkpt lat="45.9328549573496" lon="12.295310303706257"><ele>158.16666666666666</ele><time>2026-04-25T13:43:37Z</time></trkpt><trkpt lat="45.93278913743862" lon="12.295312950611375"><ele>158.0</ele><time>2026-04-25T13:43:38Z</time></trkpt><trkpt lat="45.93268384637096" lon="12.295327962468994"><ele>158.0</ele><time>2026-04-25T13:43:40Z</time></trkpt><trkpt lat="45.93260625039121" lon="12.295339944302967"><ele>158.0</ele><time>2026-04-25T13:43:42Z</time></trkpt><trkpt lat="45.932536888438364" lon="12.295337629075151"><ele>158.0</ele><time>2026-04-25T13:43:45Z</time></trkpt><trkpt lat="45.93246313115846" lon="12.295157830686714"><ele>158.0</ele><time>2026-04-25T13:43:54Z</time></trkpt><trkpt lat="45.93239003154764" lon="12.295082261140083"><ele>158.0</ele><time>2026-04-25T13:43:56Z</time></trkpt><trkpt lat="45.93228974836021" lon="12.295018313938195"><ele>157.33333333333331</ele><time>2026-04-25T13:43:58Z</time></trkpt><trkpt lat="45.93216680603559" lon="12.294995177147205"><ele>156.66666666666666</ele><time>2026-04-25T13:44:00Z</time></trkpt><trkpt lat="45.93209985807164" lon="12.29499597651076"><ele>156.0</ele><time>2026-04-25T13:44:01Z</time></trkpt><trkpt lat="45.93202971679463" lon="12.29500228867625"><ele>155.33333333333334</ele><time>2026-04-25T13:44:02Z</time></trkpt><trkpt lat="45.93195634576387" lon="12.295008785889584"><ele>154.66666666666669</ele><time>2026-04-25T13:44:03Z</time></trkpt><trkpt lat="45.93188004866169" lon="12.29500989973146"><ele>154.0</ele><time>2026-04-25T13:44:04Z</time></trkpt><trkpt lat="45.931797361172855" lon="12.295008857011712"><ele>153.33333333333334</ele><time>2026-04-25T13:44:05Z</time></trkpt><trkpt lat="45.93171163348758" lon="12.295007775954803"><ele>152.66666666666669</ele><time>2026-04-25T13:44:06Z</time></trkpt><trkpt lat="45.93162534940434" lon="12.295006687881218"><ele>152.0</ele><time>2026-04-25T13:44:07Z</time></trkpt><trkpt lat="45.93153732863793" lon="12.295007545987191"><ele>151.33333333333334</ele><time>2026-04-25T13:44:08Z</time></trkpt><trkpt lat="45.931449037263704" lon="12.295011510428088"><ele>150.66666666666666</ele><time>2026-04-25T13:44:08.999Z</time></trkpt><trkpt lat="45.9313611452975" lon="12.295026325373911"><ele>150.0</ele><time>2026-04-25T13:44:09.999Z</time></trkpt><trkpt lat="45.93128274146233" lon="12.295073357560147"><ele>150.0</ele><time>2026-04-25T13:44:10.999Z</time></trkpt><trkpt lat="45.93120459728913" lon="12.295071629438002"><ele>150.0</ele><time>2026-04-25T13:44:11.999Z</time></trkpt><trkpt lat="45.93113414773787" lon="12.2950891823355"><ele>150.0</ele><time>2026-04-25T13:44:12.999Z</time></trkpt><trkpt lat="45.93106862995133" lon="12.295103176589757"><ele>150.0</ele><time>2026-04-25T13:44:13.999Z</time></trkpt><trkpt lat="45.93096394764563" lon="12.295111734001603"><ele>150.0</ele><time>2026-04-25T13:44:15.999Z</time></trkpt><trkpt lat="45.93089243984556" lon="12.295104289150684"><ele>150.0</ele><time>2026-04-25T13:44:17.999Z</time></trkpt><trkpt lat="45.93081898086873" lon="12.295093384663138"><ele>149.83333333333334</ele><time>2026-04-25T13:44:20.999Z</time></trkpt><trkpt lat="45.93074094989264" lon="12.295079571726001"><ele>149.66666666666666</ele><time>2026-04-25T13:44:23.999Z</time></trkpt><trkpt lat="45.93067244140861" lon="12.29506744435898"><ele>149.5</ele><time>2026-04-25T13:44:25.999Z</time></trkpt><trkpt lat="45.93059991017412" lon="12.295057930092574"><ele>149.33333333333331</ele><time>2026-04-25T13:44:27.999Z</time></trkpt><trkpt lat="45.930512416088554" lon="12.295056146949895"><ele>149.16666666666666</ele><time>2026-04-25T13:44:29.999Z</time></trkpt><trkpt lat="45.930417371290865" lon="12.295061675128043"><ele>149.0</ele><time>2026-04-25T13:44:31.999Z</time></trkpt><trkpt lat="45.930315983747136" lon="12.29511914683754"><ele>149.0</ele><time>2026-04-25T13:44:33.999Z</time></trkpt><trkpt lat="45.93020482695275" lon="12.295171786049217"><ele>149.0</ele><time>2026-04-25T13:44:35.999Z</time></trkpt><trkpt lat="45.930090134917805" lon="12.295241816013483"><ele>149.0</ele><time>2026-04-25T13:44:37.999Z</time></trkpt><trkpt lat="45.9300309452292" lon="12.295280303935659"><ele>149.0</ele><time>2026-04-25T13:44:38.999Z</time></trkpt><trkpt lat="45.92996925961156" lon="12.29531820761374"><ele>149.0</ele><time>2026-04-25T13:44:39.999Z</time></trkpt><trkpt lat="45.929906993956045" lon="12.2953588631805"><ele>149.0</ele><time>2026-04-25T13:44:40.999Z</time></trkpt><trkpt lat="45.92984849439901" lon="12.29539849058307"><ele>148.66666666666666</ele><time>2026-04-25T13:44:41.999Z</time></trkpt><trkpt lat="45.92973799180935" lon="12.295453652178589"><ele>148.33333333333331</ele><time>2026-04-25T13:44:43.999Z</time></trkpt><trkpt lat="45.92967368629421" lon="12.295467872855404"><ele>148.0</ele><time>2026-04-25T13:44:44.999Z</time></trkpt><trkpt lat="45.9296053250878" lon="12.29542820006325"><ele>147.66666666666666</ele><time>2026-04-25T13:44:45.999Z</time></trkpt><trkpt lat="45.92953767202256" lon="12.295392930272374"><ele>147.33333333333334</ele><time>2026-04-25T13:44:46.999Z</time></trkpt><trkpt lat="45.92950226648708" lon="12.2952792811597"><ele>147.0</ele><time>2026-04-25T13:44:47.999Z</time></trkpt><trkpt lat="45.929448292907885" lon="12.295196559274634"><ele>147.0</ele><time>2026-04-25T13:44:48.999Z</time></trkpt><trkpt lat="45.929395361457395" lon="12.295117756108056"><ele>147.0</ele><time>2026-04-25T13:44:49.999Z</time></trkpt><trkpt lat="45.92934930847175" lon="12.295049613241304"><ele>147.0</ele><time>2026-04-25T13:44:50.999Z</time></trkpt><trkpt lat="45.92928223065115" lon="12.294952586137624"><ele>147.0</ele><time>2026-04-25T13:44:52.999Z</time></trkpt><trkpt lat="45.92923392217535" lon="12.294885632017117"><ele>147.0</ele><time>2026-04-25T13:44:54.999Z</time></trkpt><trkpt lat="45.92917547158493" lon="12.294814876512786"><ele>147.0</ele><time>2026-04-25T13:45:20Z</time></trkpt><trkpt lat="45.9291089362037" lon="12.294741175515796"><ele>145.0</ele><time>2026-04-25T13:45:23Z</time></trkpt><trkpt lat="45.929042196733185" lon="12.294679361830054"><ele>143.0</ele><time>2026-04-25T13:45:25Z</time></trkpt><trkpt lat="45.92894697528274" lon="12.2946127283593"><ele>141.0</ele><time>2026-04-25T13:45:26.999Z</time></trkpt><trkpt lat="45.928886451467214" lon="12.294583003820804"><ele>139.0</ele><time>2026-04-25T13:45:27.999Z</time></trkpt><trkpt lat="45.92882315598169" lon="12.294559903912408"><ele>137.0</ele><time>2026-04-25T13:45:28.999Z</time></trkpt><trkpt lat="45.92875852244758" lon="12.294538796774162"><ele>135.0</ele><time>2026-04-25T13:45:29.999Z</time></trkpt><trkpt lat="45.928695596242" lon="12.294516273755622"><ele>133.0</ele><time>2026-04-25T13:45:30.999Z</time></trkpt><trkpt lat="45.92863210478949" lon="12.294491979956803"><ele>133.0</ele><time>2026-04-25T13:45:31.999Z</time></trkpt><trkpt lat="45.92856624737609" lon="12.294466358804012"><ele>133.0</ele><time>2026-04-25T13:45:32.999Z</time></trkpt><trkpt lat="45.92849918895415" lon="12.29443909053854"><ele>133.0</ele><time>2026-04-25T13:45:33.999Z</time></trkpt><trkpt lat="45.928436629175465" lon="12.294411043870697"><ele>133.0</ele><time>2026-04-25T13:45:34.999Z</time></trkpt><trkpt lat="45.92837150262505" lon="12.294378786887236"><ele>133.0</ele><time>2026-04-25T13:45:35.999Z</time></trkpt><trkpt lat="45.928306428468716" lon="12.29433889247194"><ele>133.0</ele><time>2026-04-25T13:45:36.999Z</time></trkpt><trkpt lat="45.928244510175254" lon="12.294287562930043"><ele>133.0</ele><time>2026-04-25T13:45:37.999Z</time></trkpt><trkpt lat="45.92819246047845" lon="12.294222062533427"><ele>132.42857142857142</ele><time>2026-04-25T13:45:38.999Z</time></trkpt><trkpt lat="45.92814616182145" lon="12.294149322130774"><ele>131.85714285714286</ele><time>2026-04-25T13:45:39.999Z</time></trkpt><trkpt lat="45.928106849420644" lon="12.29406838263579"><ele>131.28571428571428</ele><time>2026-04-25T13:45:40.999Z</time></trkpt><trkpt lat="45.92807107550205" lon="12.293988220079545"><ele>130.71428571428572</ele><time>2026-04-25T13:45:41.999Z</time></trkpt><trkpt lat="45.928038225858664" lon="12.293902384019805"><ele>130.14285714285714</ele><time>2026-04-25T13:45:42.999Z</time></trkpt><trkpt lat="45.92798270782796" lon="12.293819277654274"><ele>129.57142857142856</ele><time>2026-04-25T13:45:43.999Z</time></trkpt><trkpt lat="45.927923133913424" lon="12.293759950743283"><ele>129.0</ele><time>2026-04-25T13:45:44.999Z</time></trkpt><trkpt lat="45.92785989287786" lon="12.293710648833368"><ele>128.0</ele><time>2026-04-25T13:45:45.999Z</time></trkpt><trkpt lat="45.9277936814125" lon="12.29366406326788"><ele>127.0</ele><time>2026-04-25T13:45:46.999Z</time></trkpt><trkpt lat="45.9277267172574" lon="12.293618979561213"><ele>126.0</ele><time>2026-04-25T13:45:47.999Z</time></trkpt><trkpt lat="45.92765647940645" lon="12.29357169182255"><ele>125.0</ele><time>2026-04-25T13:45:48.999Z</time></trkpt><trkpt lat="45.92758359352784" lon="12.29352262129146"><ele>124.0</ele><time>2026-04-25T13:45:49.999Z</time></trkpt><trkpt lat="45.92750920261391" lon="12.293472537523176"><ele>123.0</ele><time>2026-04-25T13:45:50.999Z</time></trkpt><trkpt lat="45.92743636036203" lon="12.293419836448408"><ele>123.0</ele><time>2026-04-25T13:45:51.999Z</time></trkpt><trkpt lat="45.92736255045439" lon="12.293359767816982"><ele>123.0</ele><time>2026-04-25T13:45:52.999Z</time></trkpt><trkpt lat="45.92729078144488" lon="12.293296304868123"><ele>123.0</ele><time>2026-04-25T13:45:53.999Z</time></trkpt><trkpt lat="45.927221577956615" lon="12.293234731865669"><ele>123.0</ele><time>2026-04-25T13:45:54.999Z</time></trkpt><trkpt lat="45.927153076744794" lon="12.293174216097594"><ele>123.0</ele><time>2026-04-25T13:45:55.999Z</time></trkpt><trkpt lat="45.92708340957685" lon="12.293116251748698"><ele>123.0</ele><time>2026-04-25T13:45:56.999Z</time></trkpt><trkpt lat="45.92701145229347" lon="12.293060755326481"><ele>121.16666666666667</ele><time>2026-04-25T13:45:57.999Z</time></trkpt><trkpt lat="45.92693801794535" lon="12.293008158329584"><ele>119.33333333333334</ele><time>2026-04-25T13:45:58.999Z</time></trkpt><trkpt lat="45.92686309327612" lon="12.29295698516153"><ele>117.5</ele><time>2026-04-25T13:45:59.999Z</time></trkpt><trkpt lat="45.9267880325633" lon="12.292911846327423"><ele>115.66666666666667</ele><time>2026-04-25T13:46:00.999Z</time></trkpt><trkpt lat="45.92670651613206" lon="12.292868648494098"><ele>113.83333333333334</ele><time>2026-04-25T13:46:01.999Z</time></trkpt><trkpt lat="45.92662463161459" lon="12.292829296963548"><ele>112.0</ele><time>2026-04-25T13:46:02.999Z</time></trkpt><trkpt lat="45.926542133839554" lon="12.292791638011277"><ele>111.66666666666667</ele><time>2026-04-25T13:46:03.999Z</time></trkpt><trkpt lat="45.92645656506202" lon="12.292755407819884"><ele>111.33333333333334</ele><time>2026-04-25T13:46:04.999Z</time></trkpt><trkpt lat="45.926371923999724" lon="12.292722975245045"><ele>111.0</ele><time>2026-04-25T13:46:05.999Z</time></trkpt><trkpt lat="45.926289942418585" lon="12.29268853287021"><ele>110.66666666666666</ele><time>2026-04-25T13:46:06.999Z</time></trkpt><trkpt lat="45.92621224735202" lon="12.2926396820081"><ele>110.33333333333333</ele><time>2026-04-25T13:46:07.999Z</time></trkpt><trkpt lat="45.926152049527914" lon="12.292562039445825"><ele>110.0</ele><time>2026-04-25T13:46:08.999Z</time></trkpt><trkpt lat="45.92611039101611" lon="12.292467770725052"><ele>109.99999999999999</ele><time>2026-04-25T13:46:09.999Z</time></trkpt><trkpt lat="45.92606397786981" lon="12.29238687190085"><ele>110.0</ele><time>2026-04-25T13:46:10.999Z</time></trkpt><trkpt lat="45.92599798830253" lon="12.292306218688683"><ele>110.0</ele><time>2026-04-25T13:46:12.999Z</time></trkpt><trkpt lat="45.92594731678229" lon="12.292232400944089"><ele>110.0</ele><time>2026-04-25T13:46:15.999Z</time></trkpt><trkpt lat="45.925906560677525" lon="12.292155159621489"><ele>109.99999999999999</ele><time>2026-04-25T13:46:17.999Z</time></trkpt><trkpt lat="45.925845354537465" lon="12.292100819206093"><ele>110.0</ele><time>2026-04-25T13:46:20.999Z</time></trkpt><trkpt lat="45.92593008163458" lon="12.292151169008257"><ele>108.2</ele><time>2026-04-25T13:46:24.998Z</time></trkpt><trkpt lat="45.9259936923833" lon="12.292160695140305"><ele>106.4</ele><time>2026-04-25T13:46:26.998Z</time></trkpt><trkpt lat="45.92606187463656" lon="12.29209456627094"><ele>104.6</ele><time>2026-04-25T13:46:29.998Z</time></trkpt><trkpt lat="45.92606202446753" lon="12.29195644889074"><ele>102.8</ele><time>2026-04-25T13:46:31.998Z</time></trkpt><trkpt lat="45.926047902974894" lon="12.291813212063403"><ele>101.0</ele><time>2026-04-25T13:46:33.998Z</time></trkpt><trkpt lat="45.92602989147405" lon="12.291637341077646"><ele>101.0</ele><time>2026-04-25T13:46:35.998Z</time></trkpt><trkpt lat="45.92601927016764" lon="12.291541749279013"><ele>101.0</ele><time>2026-04-25T13:46:36.998Z</time></trkpt><trkpt lat="45.926008499814714" lon="12.291444816095447"><ele>101.0</ele><time>2026-04-25T13:46:37.998Z</time></trkpt><trkpt lat="45.92599678406905" lon="12.291340088898144"><ele>101.0</ele><time>2026-04-25T13:46:38.998Z</time></trkpt><trkpt lat="45.92598315760812" lon="12.291230825834297"><ele>101.0</ele><time>2026-04-25T13:46:39.998Z</time></trkpt><trkpt lat="45.925969086897354" lon="12.291119494967653"><ele>101.0</ele><time>2026-04-25T13:46:40.998Z</time></trkpt><trkpt lat="45.92595314722675" lon="12.291010689412255"><ele>101.0</ele><time>2026-04-25T13:46:41.998Z</time></trkpt><trkpt lat="45.92593784765061" lon="12.29090625318369"><ele>100.83333333333333</ele><time>2026-04-25T13:46:42.998Z</time></trkpt><trkpt lat="45.92592200617892" lon="12.290803522753844"><ele>100.66666666666666</ele><time>2026-04-25T13:46:43.998Z</time></trkpt><trkpt lat="45.92590687313222" lon="12.290709161956313"><ele>100.5</ele><time>2026-04-25T13:46:44.998Z</time></trkpt><trkpt lat="45.925889893776066" lon="12.290603288732356"><ele>100.33333333333334</ele><time>2026-04-25T13:46:45.998Z</time></trkpt><trkpt lat="45.92587021747566" lon="12.29049569203048"><ele>100.16666666666667</ele><time>2026-04-25T13:46:46.998Z</time></trkpt><trkpt lat="45.92584246348874" lon="12.290396184716897"><ele>100.0</ele><time>2026-04-25T13:46:47.998Z</time></trkpt><trkpt lat="45.925783319593286" lon="12.290305272379243"><ele>98.33333333333334</ele><time>2026-04-25T13:46:48.998Z</time></trkpt><trkpt lat="45.92570202054163" lon="12.290248827745868"><ele>96.66666666666667</ele><time>2026-04-25T13:46:49.998Z</time></trkpt><trkpt lat="45.92562797017239" lon="12.290196779060203"><ele>95.0</ele><time>2026-04-25T13:46:50.998Z</time></trkpt><trkpt lat="45.9255528281163" lon="12.290145551304875"><ele>93.33333333333334</ele><time>2026-04-25T13:46:51.998Z</time></trkpt><trkpt lat="45.925475550751" lon="12.290094598236216"><ele>91.66666666666667</ele><time>2026-04-25T13:46:52.998Z</time></trkpt><trkpt lat="45.925403009732996" lon="12.290040724578791"><ele>90.0</ele><time>2026-04-25T13:46:53.998Z</time></trkpt><trkpt lat="45.925331944525986" lon="12.289977115575855"><ele>90.0</ele><time>2026-04-25T13:46:54.998Z</time></trkpt><trkpt lat="45.9252652454668" lon="12.289906293721232"><ele>90.0</ele><time>2026-04-25T13:46:55.998Z</time></trkpt><trkpt lat="45.925206417969385" lon="12.289827075802222"><ele>90.0</ele><time>2026-04-25T13:46:56.998Z</time></trkpt><trkpt lat="45.925150027710544" lon="12.289740547751784"><ele>90.0</ele><time>2026-04-25T13:46:57.998Z</time></trkpt><trkpt lat="45.925102084439935" lon="12.289652049457173"><ele>90.0</ele><time>2026-04-25T13:46:58.998Z</time></trkpt><trkpt lat="45.92504015907505" lon="12.289569276381673"><ele>90.0</ele><time>2026-04-25T13:46:59.998Z</time></trkpt><trkpt lat="45.92507725427408" lon="12.289441329452089"><ele>88.83333333333333</ele><time>2026-04-25T13:47:00.998Z</time></trkpt><trkpt lat="45.92506847455826" lon="12.289308787029343"><ele>87.66666666666667</ele><time>2026-04-25T13:47:01.998Z</time></trkpt><trkpt lat="45.92506227522384" lon="12.289190469597647"><ele>86.5</ele><time>2026-04-25T13:47:02.998Z</time></trkpt><trkpt lat="45.92506194396718" lon="12.289071577636427"><ele>85.33333333333334</ele><time>2026-04-25T13:47:03.998Z</time></trkpt><trkpt lat="45.92505551887102" lon="12.288955175155458"><ele>84.16666666666667</ele><time>2026-04-25T13:47:04.998Z</time></trkpt><trkpt lat="45.925068326774664" lon="12.288843089825894"><ele>83.0</ele><time>2026-04-25T13:47:05.998Z</time></trkpt><trkpt lat="45.92510673250685" lon="12.288741377411673"><ele>83.0</ele><time>2026-04-25T13:47:06.998Z</time></trkpt><trkpt lat="45.925132736514676" lon="12.288634116582124"><ele>83.0</ele><time>2026-04-25T13:47:07.998Z</time></trkpt><trkpt lat="45.92515898868579" lon="12.288528275918557"><ele>83.0</ele><time>2026-04-25T13:47:08.998Z</time></trkpt><trkpt lat="45.92518944579833" lon="12.288429468093389"><ele>83.0</ele><time>2026-04-25T13:47:09.998Z</time></trkpt><trkpt lat="45.92522261023365" lon="12.288329893964185"><ele>83.0</ele><time>2026-04-25T13:47:11Z</time></trkpt><trkpt lat="45.92525474351039" lon="12.288239988275283"><ele>83.0</ele><time>2026-04-25T13:47:12Z</time></trkpt><trkpt lat="45.92528736967815" lon="12.288144737757994"><ele>83.0</ele><time>2026-04-25T13:47:13Z</time></trkpt><trkpt lat="45.925303805794904" lon="12.288050124358799"><ele>83.0</ele><time>2026-04-25T13:47:14Z</time></trkpt><trkpt lat="45.92532811915875" lon="12.287961400395691"><ele>83.0</ele><time>2026-04-25T13:47:15Z</time></trkpt><trkpt lat="45.925347392530476" lon="12.287864002421022"><ele>83.0</ele><time>2026-04-25T13:47:16Z</time></trkpt><trkpt lat="45.92534016690894" lon="12.287758788606874"><ele>83.0</ele><time>2026-04-25T13:47:17Z</time></trkpt><trkpt lat="45.925331038594244" lon="12.287663476720846"><ele>83.0</ele><time>2026-04-25T13:47:18Z</time></trkpt><trkpt lat="45.925308649000385" lon="12.287577149528442"><ele>83.0</ele><time>2026-04-25T13:47:19Z</time></trkpt><trkpt lat="45.925319775429664" lon="12.287479784227976"><ele>83.0</ele><time>2026-04-25T13:47:20Z</time></trkpt><trkpt lat="45.925362447908924" lon="12.287404949693348"><ele>83.0</ele><time>2026-04-25T13:47:21Z</time></trkpt><trkpt lat="45.92543571206181" lon="12.287260197439998"><ele>83.0</ele><time>2026-04-25T13:47:23Z</time></trkpt><trkpt lat="45.92551152226753" lon="12.28712129369445"><ele>83.0</ele><time>2026-04-25T13:47:25Z</time></trkpt><trkpt lat="45.925539499461884" lon="12.287038008163108"><ele>83.0</ele><time>2026-04-25T13:47:26Z</time></trkpt><trkpt lat="45.9255851262024" lon="12.286973306912323"><ele>83.0</ele><time>2026-04-25T13:47:27Z</time></trkpt><trkpt lat="45.925666327773286" lon="12.286850954400915"><ele>82.80000000000001</ele><time>2026-04-25T13:47:29Z</time></trkpt><trkpt lat="45.925759281832406" lon="12.28675473415502"><ele>82.6</ele><time>2026-04-25T13:47:31Z</time></trkpt><trkpt lat="45.92584854932152" lon="12.286662089246487"><ele>82.4</ele><time>2026-04-25T13:47:33Z</time></trkpt><trkpt lat="45.92594831322669" lon="12.286592962423686"><ele>82.19999999999999</ele><time>2026-04-25T13:47:35Z</time></trkpt><trkpt lat="45.92605106320905" lon="12.286538629229812"><ele>82.0</ele><time>2026-04-25T13:47:37Z</time></trkpt><trkpt lat="45.92616693824323" lon="12.28655802666966"><ele>82.0</ele><time>2026-04-25T13:47:39Z</time></trkpt><trkpt lat="45.926258828889964" lon="12.286649697161907"><ele>82.0</ele><time>2026-04-25T13:47:41Z</time></trkpt><trkpt lat="45.9263532246249" lon="12.28669401033715"><ele>82.0</ele><time>2026-04-25T13:47:43Z</time></trkpt><trkpt lat="45.92646178157848" lon="12.286677253441663"><ele>82.0</ele><time>2026-04-25T13:47:45Z</time></trkpt><trkpt lat="45.926540756202805" lon="12.28660752606449"><ele>82.0</ele><time>2026-04-25T13:47:47Z</time></trkpt><trkpt lat="45.92660932827588" lon="12.286517122950109"><ele>82.0</ele><time>2026-04-25T13:47:49Z</time></trkpt><trkpt lat="45.926693976115146" lon="12.286463702968208"><ele>82.0</ele><time>2026-04-25T13:47:51Z</time></trkpt><trkpt lat="45.926775956962686" lon="12.28638449635504"><ele>82.0</ele><time>2026-04-25T13:47:52.999Z</time></trkpt><trkpt lat="45.92686291047027" lon="12.28629881194239"><ele>82.0</ele><time>2026-04-25T13:47:54.999Z</time></trkpt><trkpt lat="45.92695456690501" lon="12.286208493213731"><ele>82.0</ele><time>2026-04-25T13:47:56.999Z</time></trkpt><trkpt lat="45.9270473579928" lon="12.286117056407273"><ele>82.0</ele><time>2026-04-25T13:47:58.999Z</time></trkpt><trkpt lat="45.927138821475786" lon="12.286026927803382"><ele>82.0</ele><time>2026-04-25T13:48:00.999Z</time></trkpt><trkpt lat="45.92723123137787" lon="12.28593586662793"><ele>82.0</ele><time>2026-04-25T13:48:02.999Z</time></trkpt><trkpt lat="45.92732371140507" lon="12.285844736339744"><ele>82.0</ele><time>2026-04-25T13:48:04.999Z</time></trkpt><trkpt lat="45.9274158913297" lon="12.285755221864164"><ele>82.0</ele><time>2026-04-25T13:48:06.999Z</time></trkpt><trkpt lat="45.927506181228765" lon="12.28566799621204"><ele>83.25</ele><time>2026-04-25T13:48:08.999Z</time></trkpt><trkpt lat="45.92759991480349" lon="12.285579371790881"><ele>84.5</ele><time>2026-04-25T13:48:10.999Z</time></trkpt><trkpt lat="45.927693059730565" lon="12.285491303937516"><ele>85.75</ele><time>2026-04-25T13:48:12.999Z</time></trkpt><trkpt lat="45.92778868775839" lon="12.285400888382428"><ele>87.0</ele><time>2026-04-25T13:48:14.999Z</time></trkpt><trkpt lat="45.927882067186374" lon="12.285312375155021"><ele>87.0</ele><time>2026-04-25T13:48:16.999Z</time></trkpt><trkpt lat="45.92797697531379" lon="12.285218964620702"><ele>87.0</ele><time>2026-04-25T13:48:18.999Z</time></trkpt><trkpt lat="45.92806878356884" lon="12.28512659374325"><ele>87.0</ele><time>2026-04-25T13:48:20.999Z</time></trkpt><trkpt lat="45.928148187383236" lon="12.28500024186798"><ele>87.0</ele><time>2026-04-25T13:48:22.999Z</time></trkpt><trkpt lat="45.928186177407916" lon="12.284849132287308"><ele>87.33333333333333</ele><time>2026-04-25T13:48:24.999Z</time></trkpt><trkpt lat="45.928218225262675" lon="12.28472492111136"><ele>87.66666666666667</ele><time>2026-04-25T13:48:26.999Z</time></trkpt><trkpt lat="45.928245970667156" lon="12.284624661310579"><ele>88.0</ele><time>2026-04-25T13:48:28.999Z</time></trkpt><trkpt lat="45.92829255452759" lon="12.28452096016667"><ele>88.33333333333334</ele><time>2026-04-25T13:48:31.999Z</time></trkpt><trkpt lat="45.92834359501823" lon="12.284446044870393"><ele>88.66666666666667</ele><time>2026-04-25T13:48:34.999Z</time></trkpt><trkpt lat="45.928404461668976" lon="12.284383909003123"><ele>89.0</ele><time>2026-04-25T13:48:38.999Z</time></trkpt><trkpt lat="45.92847005371776" lon="12.284330914867402"><ele>89.71428571428571</ele><time>2026-04-25T13:48:42.999Z</time></trkpt><trkpt lat="45.928533359735134" lon="12.284281473197044"><ele>90.42857142857143</ele><time>2026-04-25T13:48:46.999Z</time></trkpt><trkpt lat="45.92859151847701" lon="12.284239255325428"><ele>91.14285714285714</ele><time>2026-04-25T13:48:50.999Z</time></trkpt><trkpt lat="45.928649230051434" lon="12.284197362011929"><ele>91.85714285714286</ele><time>2026-04-25T13:48:54.999Z</time></trkpt><trkpt lat="45.92869358099158" lon="12.284129655233539"><ele>92.57142857142857</ele><time>2026-04-25T13:48:58.999Z</time></trkpt><trkpt lat="45.92874809956577" lon="12.28408286673848"><ele>93.28571428571428</ele><time>2026-04-25T13:49:02.998Z</time></trkpt><trkpt lat="45.92881717507062" lon="12.284033659083498"><ele>94.0</ele><time>2026-04-25T13:49:07.998Z</time></trkpt><trkpt lat="45.928883150578365" lon="12.283983137606592"><ele>94.0</ele><time>2026-04-25T13:49:12.998Z</time></trkpt><trkpt lat="45.928946304497146" lon="12.283938033582212"><ele>94.0</ele><time>2026-04-25T13:49:18.001Z</time></trkpt><trkpt lat="45.92900144245264" lon="12.283892657196787"><ele>94.0</ele><time>2026-04-25T13:49:22.001Z</time></trkpt><trkpt lat="45.92905978355802" lon="12.283851128134655"><ele>94.0</ele><time>2026-04-25T13:49:26.001Z</time></trkpt><trkpt lat="45.929117066594515" lon="12.283804216401025"><ele>94.0</ele><time>2026-04-25T13:49:30.001Z</time></trkpt><trkpt lat="45.929175859212144" lon="12.283760128592276"><ele>94.0</ele><time>2026-04-25T13:49:34Z</time></trkpt><trkpt lat="45.92924655779302" lon="12.283705548273568"><ele>94.0</ele><time>2026-04-25T13:49:39Z</time></trkpt><trkpt lat="45.929311825015" lon="12.283658217846012"><ele>95.66666666666666</ele><time>2026-04-25T13:49:43Z</time></trkpt><trkpt lat="45.929378276558154" lon="12.283605089906576"><ele>97.33333333333333</ele><time>2026-04-25T13:49:47Z</time></trkpt><trkpt lat="45.929452372912756" lon="12.283554681199236"><ele>99.0</ele><time>2026-04-25T13:49:51Z</time></trkpt><trkpt lat="45.92951437618591" lon="12.283503601605904"><ele>100.66666666666666</ele><time>2026-04-25T13:49:54Z</time></trkpt><trkpt lat="45.929581075382394" lon="12.283454574896185"><ele>102.33333333333333</ele><time>2026-04-25T13:49:57Z</time></trkpt><trkpt lat="45.92965040494679" lon="12.283400073137285"><ele>104.0</ele><time>2026-04-25T13:50:00Z</time></trkpt><trkpt lat="45.92971135152492" lon="12.283348962471264"><ele>104.0</ele><time>2026-04-25T13:50:03Z</time></trkpt><trkpt lat="45.92977896908044" lon="12.283301669584969"><ele>104.0</ele><time>2026-04-25T13:50:06Z</time></trkpt><trkpt lat="45.92984339391966" lon="12.283250452491314"><ele>104.0</ele><time>2026-04-25T13:50:09Z</time></trkpt><trkpt lat="45.92990862599797" lon="12.283204973963961"><ele>104.0</ele><time>2026-04-25T13:50:12Z</time></trkpt><trkpt lat="45.9299717204685" lon="12.283155478951409"><ele>104.0</ele><time>2026-04-25T13:50:15Z</time></trkpt><trkpt lat="45.93003409627308" lon="12.283108589242827"><ele>104.0</ele><time>2026-04-25T13:50:18Z</time></trkpt><trkpt lat="45.93009514516489" lon="12.283061661105295"><ele>104.0</ele><time>2026-04-25T13:50:21Z</time></trkpt><trkpt lat="45.93015444994668" lon="12.283013277312218"><ele>105.42857142857142</ele><time>2026-04-25T13:50:24Z</time></trkpt><trkpt lat="45.93021742540719" lon="12.282964154493158"><ele>106.85714285714286</ele><time>2026-04-25T13:50:26.999Z</time></trkpt><trkpt lat="45.930275974725454" lon="12.282913930475706"><ele>108.28571428571428</ele><time>2026-04-25T13:50:29.999Z</time></trkpt><trkpt lat="45.93033454823697" lon="12.282871707676"><ele>109.71428571428571</ele><time>2026-04-25T13:50:32.999Z</time></trkpt><trkpt lat="45.93039224594724" lon="12.282820454662573"><ele>111.14285714285714</ele><time>2026-04-25T13:50:35.999Z</time></trkpt><trkpt lat="45.93045302335086" lon="12.282776636199825"><ele>112.57142857142857</ele><time>2026-04-25T13:50:38.999Z</time></trkpt><trkpt lat="45.93051494915293" lon="12.282729991600325"><ele>114.0</ele><time>2026-04-25T13:50:41.999Z</time></trkpt><trkpt lat="45.93058102070576" lon="12.282683561215467"><ele>114.0</ele><time>2026-04-25T13:50:44.999Z</time></trkpt><trkpt lat="45.93064581491328" lon="12.28263082515208"><ele>114.0</ele><time>2026-04-25T13:50:47.999Z</time></trkpt><trkpt lat="45.93071046957358" lon="12.282579108689903"><ele>114.0</ele><time>2026-04-25T13:50:50.999Z</time></trkpt><trkpt lat="45.93077415707651" lon="12.282522971781122"><ele>114.0</ele><time>2026-04-25T13:50:53.999Z</time></trkpt><trkpt lat="45.930842409741956" lon="12.282470213095676"><ele>114.0</ele><time>2026-04-25T13:50:56.999Z</time></trkpt><trkpt lat="45.93091073326076" lon="12.282417151264106"><ele>114.0</ele><time>2026-04-25T13:50:59.999Z</time></trkpt><trkpt lat="45.93097893045722" lon="12.282361840299043"><ele>114.33333333333333</ele><time>2026-04-25T13:51:02.999Z</time></trkpt><trkpt lat="45.93105052154795" lon="12.28231165308727"><ele>114.66666666666666</ele><time>2026-04-25T13:51:05.999Z</time></trkpt><trkpt lat="45.93112241551704" lon="12.282261813784238"><ele>115.0</ele><time>2026-04-25T13:51:08.999Z</time></trkpt><trkpt lat="45.93119422055676" lon="12.28220177748977"><ele>115.33333333333333</ele><time>2026-04-25T13:51:11.999Z</time></trkpt><trkpt lat="45.93126210217924" lon="12.282139806982332"><ele>115.66666666666666</ele><time>2026-04-25T13:51:14.999Z</time></trkpt><trkpt lat="45.931345208779696" lon="12.282115851892332"><ele>116.0</ele><time>2026-04-25T13:51:17.999Z</time></trkpt><trkpt lat="45.93138990051694" lon="12.282195007799661"><ele>115.99999999999999</ele><time>2026-04-25T13:51:19.999Z</time></trkpt><trkpt lat="45.93143139458396" lon="12.282267174765536"><ele>116.0</ele><time>2026-04-25T13:51:21.999Z</time></trkpt><trkpt lat="45.93150366066347" lon="12.282278396350106"><ele>116.0</ele><time>2026-04-25T13:51:24Z</time></trkpt><trkpt lat="45.93156147387294" lon="12.282228149758405"><ele>116.0</ele><time>2026-04-25T13:51:26Z</time></trkpt><trkpt lat="45.93162266912614" lon="12.282122435348244"><ele>115.99999999999999</ele><time>2026-04-25T13:51:29Z</time></trkpt><trkpt lat="45.931714304366665" lon="12.282008207583168"><ele>116.0</ele><time>2026-04-25T13:51:31Z</time></trkpt><trkpt lat="45.931765629564225" lon="12.281927848192648"><ele>115.8</ele><time>2026-04-25T13:51:33Z</time></trkpt><trkpt lat="45.93181341419579" lon="12.281817478781248"><ele>115.6</ele><time>2026-04-25T13:51:35Z</time></trkpt><trkpt lat="45.93186849074473" lon="12.281725561970925"><ele>115.4</ele><time>2026-04-25T13:51:37Z</time></trkpt><trkpt lat="45.931949789931856" lon="12.281655455477837"><ele>115.2</ele><time>2026-04-25T13:51:39Z</time></trkpt><trkpt lat="45.93205047083505" lon="12.281557877950558"><ele>115.0</ele><time>2026-04-25T13:51:41Z</time></trkpt><trkpt lat="45.93211117123604" lon="12.281446476505902"><ele>114.8</ele><time>2026-04-25T13:51:43Z</time></trkpt><trkpt lat="45.93221146958569" lon="12.281368926355324"><ele>114.6</ele><time>2026-04-25T13:51:45Z</time></trkpt><trkpt lat="45.93230431977106" lon="12.281268291057936"><ele>114.4</ele><time>2026-04-25T13:51:47Z</time></trkpt><trkpt lat="45.932394347262615" lon="12.281187241950812"><ele>114.2</ele><time>2026-04-25T13:51:49Z</time></trkpt><trkpt lat="45.93248575188738" lon="12.281101877072869"><ele>114.0</ele><time>2026-04-25T13:51:51Z</time></trkpt><trkpt lat="45.93258237441141" lon="12.281002193303584"><ele>115.25</ele><time>2026-04-25T13:51:53Z</time></trkpt><trkpt lat="45.93267359912966" lon="12.280888797400308"><ele>116.5</ele><time>2026-04-25T13:51:55Z</time></trkpt><trkpt lat="45.932757692544214" lon="12.280773360419266"><ele>117.75</ele><time>2026-04-25T13:51:57Z</time></trkpt><trkpt lat="45.932848867668696" lon="12.280668691073775"><ele>119.0</ele><time>2026-04-25T13:51:59Z</time></trkpt><trkpt lat="45.93295020205757" lon="12.280596353423737"><ele>120.0</ele><time>2026-04-25T13:52:01Z</time></trkpt><trkpt lat="45.93306249845081" lon="12.280574198281617"><ele>121.0</ele><time>2026-04-25T13:52:03Z</time></trkpt><trkpt lat="45.933168351755846" lon="12.28054648785834"><ele>122.0</ele><time>2026-04-25T13:52:05Z</time></trkpt><trkpt lat="45.9332851985698" lon="12.28055552127226"><ele>123.0</ele><time>2026-04-25T13:52:07Z</time></trkpt><trkpt lat="45.933400128656125" lon="12.280531789147158"><ele>124.0</ele><time>2026-04-25T13:52:09Z</time></trkpt><trkpt lat="45.93349962295866" lon="12.28051577227992"><ele>125.00000000000001</ele><time>2026-04-25T13:52:11Z</time></trkpt><trkpt lat="45.93356956236048" lon="12.28051472604093"><ele>126.00000000000001</ele><time>2026-04-25T13:52:12Z</time></trkpt><trkpt lat="45.933689681763646" lon="12.2805109263476"><ele>127.0</ele><time>2026-04-25T13:52:14Z</time></trkpt><trkpt lat="45.93379014092635" lon="12.280513456162723"><ele>128.0</ele><time>2026-04-25T13:52:16Z</time></trkpt><trkpt lat="45.93386992423538" lon="12.280505548639645"><ele>128.0</ele><time>2026-04-25T13:52:18Z</time></trkpt><trkpt lat="45.933951136043085" lon="12.280496375605521"><ele>128.0</ele><time>2026-04-25T13:52:19Z</time></trkpt><trkpt lat="45.93406363877302" lon="12.280477033482132"><ele>128.0</ele><time>2026-04-25T13:52:20Z</time></trkpt><trkpt lat="45.934199004845" lon="12.280448145774665"><ele>128.0</ele><time>2026-04-25T13:52:23Z</time></trkpt><trkpt lat="45.93426950070392" lon="12.280437611952562"><ele>128.0</ele><time>2026-04-25T13:52:24.999Z</time></trkpt><trkpt lat="45.93434524019548" lon="12.280421446284432"><ele>128.66666666666666</ele><time>2026-04-25T13:52:26.999Z</time></trkpt><trkpt lat="45.93444729649393" lon="12.280415709227382"><ele>129.33333333333331</ele><time>2026-04-25T13:52:28.999Z</time></trkpt><trkpt lat="45.93452607020753" lon="12.280394642471972"><ele>130.0</ele><time>2026-04-25T13:52:30.999Z</time></trkpt><trkpt lat="45.9346038004396" lon="12.280387067804908"><ele>130.66666666666666</ele><time>2026-04-25T13:52:32.999Z</time></trkpt><trkpt lat="45.9346844215941" lon="12.280398820383597"><ele>131.33333333333334</ele><time>2026-04-25T13:52:34.999Z</time></trkpt><trkpt lat="45.934753252842256" lon="12.280390296241178"><ele>132.0</ele><time>2026-04-25T13:52:36.999Z</time></trkpt><trkpt lat="45.934842529910014" lon="12.280360426553745"><ele>132.0</ele><time>2026-04-25T13:52:39.999Z</time></trkpt><trkpt lat="45.93490770468664" lon="12.280352141038883"><ele>132.0</ele><time>2026-04-25T13:52:41.999Z</time></trkpt><trkpt lat="45.93498987134398" lon="12.280340250865796"><ele>132.0</ele><time>2026-04-25T13:52:44.999Z</time></trkpt><trkpt lat="45.935085152887126" lon="12.280324245980879"><ele>132.0</ele><time>2026-04-25T13:52:47.999Z</time></trkpt><trkpt lat="45.93517716154001" lon="12.280308493875427"><ele>132.0</ele><time>2026-04-25T13:52:50.999Z</time></trkpt><trkpt lat="45.93524259326453" lon="12.280308618533724"><ele>132.0</ele><time>2026-04-25T13:52:52.999Z</time></trkpt><trkpt lat="45.93533313341526" lon="12.280316379941327"><ele>130.66666666666666</ele><time>2026-04-25T13:52:55.999Z</time></trkpt><trkpt lat="45.935396787227035" lon="12.280317073462378"><ele>129.33333333333334</ele><time>2026-04-25T13:52:57.999Z</time></trkpt><trkpt lat="45.93548601582477" lon="12.280344716080727"><ele>128.0</ele><time>2026-04-25T13:53:00.999Z</time></trkpt><trkpt lat="45.93555065600375" lon="12.280375950433621"><ele>126.66666666666667</ele><time>2026-04-25T13:53:02.999Z</time></trkpt><trkpt lat="45.935618679449114" lon="12.28042016341427"><ele>125.33333333333334</ele><time>2026-04-25T13:53:04.999Z</time></trkpt><trkpt lat="45.935688431032816" lon="12.280464120304117"><ele>124.0</ele><time>2026-04-25T13:53:06.999Z</time></trkpt><trkpt lat="45.93576115327106" lon="12.280507155088287"><ele>124.00000000000001</ele><time>2026-04-25T13:53:08.999Z</time></trkpt><trkpt lat="45.93583533438792" lon="12.280552396176454"><ele>124.0</ele><time>2026-04-25T13:53:10.999Z</time></trkpt><trkpt lat="45.93591620700986" lon="12.28059232194507"><ele>124.0</ele><time>2026-04-25T13:53:12.998Z</time></trkpt><trkpt lat="45.93599266187367" lon="12.280631272146806"><ele>124.0</ele><time>2026-04-25T13:53:14.998Z</time></trkpt><trkpt lat="45.93607374422855" lon="12.280665894754625"><ele>124.00000000000001</ele><time>2026-04-25T13:53:16.998Z</time></trkpt><trkpt lat="45.93615370210653" lon="12.280694432999818"><ele>124.0</ele><time>2026-04-25T13:53:18.998Z</time></trkpt><trkpt lat="45.93623975721641" lon="12.28070089172093"><ele>124.50000000000001</ele><time>2026-04-25T13:53:20.998Z</time></trkpt><trkpt lat="45.93632630904714" lon="12.28071605978584"><ele>125.0</ele><time>2026-04-25T13:53:22.998Z</time></trkpt><trkpt lat="45.936415307410705" lon="12.28073140902796"><ele>125.5</ele><time>2026-04-25T13:53:24.998Z</time></trkpt><trkpt lat="45.936502156678486" lon="12.280743630073227"><ele>126.0</ele><time>2026-04-25T13:53:26.998Z</time></trkpt><trkpt lat="45.9365912810254" lon="12.280753974928258"><ele>126.50000000000001</ele><time>2026-04-25T13:53:28.998Z</time></trkpt><trkpt lat="45.93668045411394" lon="12.280763066278702"><ele>127.0</ele><time>2026-04-25T13:53:30.998Z</time></trkpt><trkpt lat="45.93676661224429" lon="12.280778846026452"><ele>127.83333333333334</ele><time>2026-04-25T13:53:32.998Z</time></trkpt><trkpt lat="45.93685464603964" lon="12.280792462662461"><ele>128.66666666666669</ele><time>2026-04-25T13:53:34.998Z</time></trkpt><trkpt lat="45.93694126890557" lon="12.28080968931475"><ele>129.5</ele><time>2026-04-25T13:53:36.998Z</time></trkpt><trkpt lat="45.93702960662691" lon="12.280822376238914"><ele>130.33333333333334</ele><time>2026-04-25T13:53:38.998Z</time></trkpt><trkpt lat="45.937116286440244" lon="12.280845959033053"><ele>131.16666666666666</ele><time>2026-04-25T13:53:40.998Z</time></trkpt><trkpt lat="45.93719795927556" lon="12.280865544322316"><ele>132.0</ele><time>2026-04-25T13:53:42.998Z</time></trkpt><trkpt lat="45.937287072847035" lon="12.280893732363545"><ele>132.0</ele><time>2026-04-25T13:53:44.998Z</time></trkpt><trkpt lat="45.93736896051137" lon="12.28091664739156"><ele>132.0</ele><time>2026-04-25T13:53:46.998Z</time></trkpt><trkpt lat="45.93745110849608" lon="12.280944491447588"><ele>132.0</ele><time>2026-04-25T13:53:48.998Z</time></trkpt><trkpt lat="45.93753439560532" lon="12.280970145930196"><ele>132.0</ele><time>2026-04-25T13:53:50.998Z</time></trkpt><trkpt lat="45.9376185228721" lon="12.280994020810368"><ele>132.0</ele><time>2026-04-25T13:53:52.998Z</time></trkpt><trkpt lat="45.93770191550593" lon="12.281017313470421"><ele>132.0</ele><time>2026-04-25T13:53:54.998Z</time></trkpt><trkpt lat="45.9377831092474" lon="12.281046763529284"><ele>132.16666666666666</ele><time>2026-04-25T13:53:56.998Z</time></trkpt><trkpt lat="45.937866131339334" lon="12.281015168106839"><ele>132.33333333333334</ele><time>2026-04-25T13:53:58.998Z</time></trkpt><trkpt lat="45.93793187675756" lon="12.280940070663087"><ele>132.5</ele><time>2026-04-25T13:54:00.998Z</time></trkpt><trkpt lat="45.9379876137707" lon="12.280859006085118"><ele>132.66666666666669</ele><time>2026-04-25T13:54:02.998Z</time></trkpt><trkpt lat="45.938042981912076" lon="12.280772069711306"><ele>132.83333333333334</ele><time>2026-04-25T13:54:04.998Z</time></trkpt><trkpt lat="45.938100509836545" lon="12.28068415878821"><ele>133.0</ele><time>2026-04-25T13:54:06.998Z</time></trkpt><trkpt lat="45.93816395302038" lon="12.280590957749261"><ele>133.0</ele><time>2026-04-25T13:54:08.998Z</time></trkpt><trkpt lat="45.93822952720087" lon="12.280495194223217"><ele>133.0</ele><time>2026-04-25T13:54:10.998Z</time></trkpt><trkpt lat="45.93829900655097" lon="12.280394579119028"><ele>133.0</ele><time>2026-04-25T13:54:12.998Z</time></trkpt><trkpt lat="45.93837530516763" lon="12.280285683157192"><ele>133.0</ele><time>2026-04-25T13:54:14.998Z</time></trkpt><trkpt lat="45.938444885586556" lon="12.280162634583053"><ele>133.0</ele><time>2026-04-25T13:54:16.998Z</time></trkpt><trkpt lat="45.93854920857517" lon="12.28008478603425"><ele>133.5</ele><time>2026-04-25T13:54:18.998Z</time></trkpt><trkpt lat="45.93866653408856" lon="12.280060428674089"><ele>134.0</ele><time>2026-04-25T13:54:20.998Z</time></trkpt><trkpt lat="45.93877250403574" lon="12.279991809114103"><ele>134.5</ele><time>2026-04-25T13:54:22.998Z</time></trkpt><trkpt lat="45.93888875387958" lon="12.279966409601572"><ele>135.0</ele><time>2026-04-25T13:54:24.998Z</time></trkpt><trkpt lat="45.93900134633606" lon="12.279918772769328"><ele>135.0</ele><time>2026-04-25T13:54:26.998Z</time></trkpt><trkpt lat="45.939110517144485" lon="12.279872583652313"><ele>135.0</ele><time>2026-04-25T13:54:28.998Z</time></trkpt><trkpt lat="45.9392151539083" lon="12.279837440983904"><ele>135.0</ele><time>2026-04-25T13:54:30.998Z</time></trkpt><trkpt lat="45.93930599942649" lon="12.279931687884266"><ele>135.0</ele><time>2026-04-25T13:54:32.998Z</time></trkpt><trkpt lat="45.93935934156338" lon="12.280068422648466"><ele>135.0</ele><time>2026-04-25T13:54:34.998Z</time></trkpt><trkpt lat="45.9394184579534" lon="12.280186536626205"><ele>134.6</ele><time>2026-04-25T13:54:36.998Z</time></trkpt><trkpt lat="45.93947403659505" lon="12.280305690672114"><ele>134.2</ele><time>2026-04-25T13:54:38.998Z</time></trkpt><trkpt lat="45.939531492032664" lon="12.280416612964451"><ele>133.8</ele><time>2026-04-25T13:54:40.998Z</time></trkpt><trkpt lat="45.93958489635437" lon="12.280531413136455"><ele>133.4</ele><time>2026-04-25T13:54:42.998Z</time></trkpt><trkpt lat="45.93964251798045" lon="12.280639478722218"><ele>133.0</ele><time>2026-04-25T13:54:44.998Z</time></trkpt><trkpt lat="45.93969801709594" lon="12.280741666776914"><ele>134.0</ele><time>2026-04-25T13:54:46.998Z</time></trkpt><trkpt lat="45.93974956701364" lon="12.280841309546398"><ele>135.0</ele><time>2026-04-25T13:54:48.998Z</time></trkpt><trkpt lat="45.93979156491259" lon="12.280930167534947"><ele>136.0</ele><time>2026-04-25T13:54:50.998Z</time></trkpt><trkpt lat="45.93982379112424" lon="12.281016347184922"><ele>137.0</ele><time>2026-04-25T13:54:52.998Z</time></trkpt><trkpt lat="45.9398894884633" lon="12.281112139168417"><ele>138.0</ele><time>2026-04-25T13:54:55.998Z</time></trkpt><trkpt lat="45.939927671460254" lon="12.281187783764496"><ele>139.0</ele><time>2026-04-25T13:54:57.998Z</time></trkpt><trkpt lat="45.9399750103441" lon="12.281251081068934"><ele>139.0</ele><time>2026-04-25T13:54:59.998Z</time></trkpt><trkpt lat="45.94003010805876" lon="12.28130248548226"><ele>139.0</ele><time>2026-04-25T13:55:01.998Z</time></trkpt><trkpt lat="45.94011515044955" lon="12.28135709286762"><ele>139.0</ele><time>2026-04-25T13:55:04.998Z</time></trkpt><trkpt lat="45.940180704051365" lon="12.281392066606779"><ele>139.0</ele><time>2026-04-25T13:55:06.998Z</time></trkpt><trkpt lat="45.9402479316763" lon="12.28143973618221"><ele>139.0</ele><time>2026-04-25T13:55:08.997Z</time></trkpt><trkpt lat="45.94031626129665" lon="12.281500515922593"><ele>139.0</ele><time>2026-04-25T13:55:10.997Z</time></trkpt><trkpt lat="45.94038309032239" lon="12.281586101231953"><ele>139.8</ele><time>2026-04-25T13:55:12.997Z</time></trkpt><trkpt lat="45.94045450783885" lon="12.281675185038065"><ele>140.60000000000002</ele><time>2026-04-25T13:55:14.997Z</time></trkpt><trkpt lat="45.94052557216497" lon="12.281764689980694"><ele>141.4</ele><time>2026-04-25T13:55:16.997Z</time></trkpt><trkpt lat="45.94059286478165" lon="12.281858255925963"><ele>142.20000000000002</ele><time>2026-04-25T13:55:18.997Z</time></trkpt><trkpt lat="45.94066388077495" lon="12.281942727294757"><ele>143.0</ele><time>2026-04-25T13:55:20.997Z</time></trkpt><trkpt lat="45.94075282794228" lon="12.281977094716463"><ele>143.0</ele><time>2026-04-25T13:55:22.997Z</time></trkpt><trkpt lat="45.94085428643885" lon="12.281948621115141"><ele>143.0</ele><time>2026-04-25T13:55:24.997Z</time></trkpt><trkpt lat="45.9409339700167" lon="12.281879549868446"><ele>143.0</ele><time>2026-04-25T13:55:26.997Z</time></trkpt><trkpt lat="45.941003183820705" lon="12.281811339330508"><ele>143.0</ele><time>2026-04-25T13:55:28.997Z</time></trkpt><trkpt lat="45.941069792062486" lon="12.281738778415447"><ele>143.0</ele><time>2026-04-25T13:55:30.997Z</time></trkpt><trkpt lat="45.941147739809125" lon="12.281680092092888"><ele>142.8</ele><time>2026-04-25T13:55:32.997Z</time></trkpt><trkpt lat="45.9412030404341" lon="12.281581449475013"><ele>142.60000000000002</ele><time>2026-04-25T13:55:34.998Z</time></trkpt><trkpt lat="45.94127053944964" lon="12.28150002169005"><ele>142.39999999999998</ele><time>2026-04-25T13:55:36.998Z</time></trkpt><trkpt lat="45.94133323477271" lon="12.281411296994635"><ele>142.2</ele><time>2026-04-25T13:55:38.999Z</time></trkpt><trkpt lat="45.94140028776611" lon="12.281320734945837"><ele>142.0</ele><time>2026-04-25T13:55:40.999Z</time></trkpt><trkpt lat="45.941469105716806" lon="12.2812263474104"><ele>143.2</ele><time>2026-04-25T13:55:42.999Z</time></trkpt><trkpt lat="45.941541453906915" lon="12.281129618250823"><ele>144.39999999999998</ele><time>2026-04-25T13:55:44.999Z</time></trkpt><trkpt lat="45.941615840951066" lon="12.281032418518155"><ele>145.60000000000002</ele><time>2026-04-25T13:55:46.999Z</time></trkpt><trkpt lat="45.94168542536157" lon="12.280941779938033"><ele>146.8</ele><time>2026-04-25T13:55:48.999Z</time></trkpt><trkpt lat="45.94175335330615" lon="12.280844829085263"><ele>148.0</ele><time>2026-04-25T13:55:50.999Z</time></trkpt><trkpt lat="45.94182092680738" lon="12.28076048458387"><ele>148.0</ele><time>2026-04-25T13:55:52.999Z</time></trkpt><trkpt lat="45.94188764446528" lon="12.280681679481214"><ele>148.0</ele><time>2026-04-25T13:55:54.999Z</time></trkpt><trkpt lat="45.94194274498248" lon="12.280602550527584"><ele>148.0</ele><time>2026-04-25T13:55:56.999Z</time></trkpt><trkpt lat="45.941986813235005" lon="12.280521684668573"><ele>148.0</ele><time>2026-04-25T13:55:58.999Z</time></trkpt><trkpt lat="45.9420547180821" lon="12.280439648043"><ele>148.0</ele><time>2026-04-25T13:56:01.999Z</time></trkpt><trkpt lat="45.942002739514805" lon="12.280336923496963"><ele>148.0</ele><time>2026-04-25T13:56:02.999Z</time></trkpt><trkpt lat="45.942000557939764" lon="12.280214756733129"><ele>148.0</ele><time>2026-04-25T13:56:04.999Z</time></trkpt><trkpt lat="45.9420021645615" lon="12.28007901150919"><ele>148.0</ele><time>2026-04-25T13:56:06.999Z</time></trkpt><trkpt lat="45.94198827333688" lon="12.279940112877245"><ele>148.0</ele><time>2026-04-25T13:56:08.999Z</time></trkpt><trkpt lat="45.94196468825313" lon="12.279798108607626"><ele>148.0</ele><time>2026-04-25T13:56:10.999Z</time></trkpt><trkpt lat="45.94192681964076" lon="12.279636950450815"><ele>148.0</ele><time>2026-04-25T13:56:12.999Z</time></trkpt><trkpt lat="45.941887900925465" lon="12.27947824841505"><ele>147.85714285714286</ele><time>2026-04-25T13:56:14.999Z</time></trkpt><trkpt lat="45.94187384798651" lon="12.27937826553241"><ele>147.71428571428572</ele><time>2026-04-25T13:56:15.999Z</time></trkpt><trkpt lat="45.94186410949085" lon="12.27927430898043"><ele>147.57142857142856</ele><time>2026-04-25T13:56:16.999Z</time></trkpt><trkpt lat="45.94184757746895" lon="12.279176375621871"><ele>147.42857142857144</ele><time>2026-04-25T13:56:17.999Z</time></trkpt><trkpt lat="45.94182742836305" lon="12.2790753237514"><ele>147.28571428571428</ele><time>2026-04-25T13:56:18.999Z</time></trkpt><trkpt lat="45.941826086832606" lon="12.278973094678793"><ele>147.14285714285714</ele><time>2026-04-25T13:56:19.999Z</time></trkpt><trkpt lat="45.941800722897064" lon="12.278879620759588"><ele>147.0</ele><time>2026-04-25T13:56:20.999Z</time></trkpt><trkpt lat="45.94175698286889" lon="12.278801438576888"><ele>145.2</ele><time>2026-04-25T13:56:21.999Z</time></trkpt><trkpt lat="45.94168868289364" lon="12.278762936114198"><ele>143.39999999999998</ele><time>2026-04-25T13:56:22.999Z</time></trkpt><trkpt lat="45.941591790008516" lon="12.278655844991604"><ele>141.60000000000002</ele><time>2026-04-25T13:56:24.999Z</time></trkpt><trkpt lat="45.94149673362671" lon="12.278565627985639"><ele>139.8</ele><time>2026-04-25T13:56:26.999Z</time></trkpt><trkpt lat="45.94140715823686" lon="12.278480612793786"><ele>138.0</ele><time>2026-04-25T13:56:28.999Z</time></trkpt><trkpt lat="45.94134405881569" lon="12.278461277668294"><ele>138.0</ele><time>2026-04-25T13:56:29.999Z</time></trkpt><trkpt lat="45.94123055609485" lon="12.278426508152888"><ele>138.0</ele><time>2026-04-25T13:56:31.999Z</time></trkpt><trkpt lat="45.94109800064039" lon="12.278412519493948"><ele>138.0</ele><time>2026-04-25T13:56:33.999Z</time></trkpt><trkpt lat="45.94097357009046" lon="12.278410077016945"><ele>138.0</ele><time>2026-04-25T13:56:35.999Z</time></trkpt><trkpt lat="45.94085936065941" lon="12.278400075708511"><ele>137.83333333333334</ele><time>2026-04-25T13:56:37.999Z</time></trkpt><trkpt lat="45.94079784269625" lon="12.278363329212628"><ele>137.66666666666666</ele><time>2026-04-25T13:56:39.999Z</time></trkpt><trkpt lat="45.94071234610297" lon="12.27828500653742"><ele>137.5</ele><time>2026-04-25T13:56:42.999Z</time></trkpt><trkpt lat="45.940640301109354" lon="12.27822777632772"><ele>137.33333333333331</ele><time>2026-04-25T13:56:44.999Z</time></trkpt><trkpt lat="45.94058028284814" lon="12.278172187165884"><ele>137.16666666666666</ele><time>2026-04-25T13:56:48.999Z</time></trkpt><trkpt lat="45.94054999174315" lon="12.27826374049012"><ele>137.0</ele><time>2026-04-25T13:56:53.999Z</time></trkpt><trkpt lat="45.94063260173029" lon="12.278276063735403"><ele>137.0</ele><time>2026-04-25T13:56:56.999Z</time></trkpt><trkpt lat="45.94065243064047" lon="12.278372379490216"><ele>137.0</ele><time>2026-04-25T13:57:00.998Z</time></trkpt><trkpt lat="45.94060561748151" lon="12.278455131002227"><ele>137.0</ele><time>2026-04-25T13:57:05.998Z</time></trkpt><trkpt lat="45.94053491732456" lon="12.27851733093089"><ele>137.0</ele><time>2026-04-25T13:57:08.998Z</time></trkpt><trkpt lat="45.94045993117901" lon="12.278554522250491"><ele>137.0</ele><time>2026-04-25T13:57:11.998Z</time></trkpt><trkpt lat="45.940395049517406" lon="12.278530313149126"><ele>137.0</ele><time>2026-04-25T13:57:13.998Z</time></trkpt><trkpt lat="45.940340411350505" lon="12.278442255988121"><ele>137.0</ele><time>2026-04-25T13:57:15.998Z</time></trkpt><trkpt lat="45.94029197869185" lon="12.278344954603948"><ele>137.0</ele><time>2026-04-25T13:57:17.998Z</time></trkpt><trkpt lat="45.940240895221436" lon="12.278244086309298"><ele>137.0</ele><time>2026-04-25T13:57:19.998Z</time></trkpt><trkpt lat="45.94018530482692" lon="12.278160704800559"><ele>137.0</ele><time>2026-04-25T13:57:21.998Z</time></trkpt><trkpt lat="45.940124565193905" lon="12.278070877537822"><ele>137.0</ele><time>2026-04-25T13:57:23.998Z</time></trkpt><trkpt lat="45.940068459986016" lon="12.27797088093846"><ele>137.0</ele><time>2026-04-25T13:57:25.998Z</time></trkpt><trkpt lat="45.94002210973117" lon="12.277862621110277"><ele>134.0</ele><time>2026-04-25T13:57:27.998Z</time></trkpt><trkpt lat="45.939961602032426" lon="12.2777390053489"><ele>131.0</ele><time>2026-04-25T13:57:29.998Z</time></trkpt><trkpt lat="45.939894687434176" lon="12.277608866435113"><ele>127.99999999999999</ele><time>2026-04-25T13:57:31.998Z</time></trkpt><trkpt lat="45.93983012486103" lon="12.277480439654205"><ele>125.0</ele><time>2026-04-25T13:57:33.998Z</time></trkpt><trkpt lat="45.93976795988434" lon="12.277358263531232"><ele>122.0</ele><time>2026-04-25T13:57:35.998Z</time></trkpt><trkpt lat="45.939696859803654" lon="12.27722501295578"><ele>121.39999999999999</ele><time>2026-04-25T13:57:37.998Z</time></trkpt><trkpt lat="45.93963677932761" lon="12.277100196726858"><ele>120.79999999999998</ele><time>2026-04-25T13:57:39.998Z</time></trkpt><trkpt lat="45.93957628913182" lon="12.276981470951688"><ele>120.2</ele><time>2026-04-25T13:57:42Z</time></trkpt><trkpt lat="45.939526482773836" lon="12.276872030917795"><ele>119.6</ele><time>2026-04-25T13:57:44Z</time></trkpt><trkpt lat="45.93947553231607" lon="12.276753841721286"><ele>119.0</ele><time>2026-04-25T13:57:46Z</time></trkpt><trkpt lat="45.93943418265299" lon="12.276652630762687"><ele>119.0</ele><time>2026-04-25T13:57:48Z</time></trkpt><trkpt lat="45.9393774638508" lon="12.27655190708362"><ele>119.0</ele><time>2026-04-25T13:57:50Z</time></trkpt><trkpt lat="45.939323966073005" lon="12.276447516550785"><ele>119.0</ele><time>2026-04-25T13:57:52Z</time></trkpt><trkpt lat="45.93926331041441" lon="12.27635034605023"><ele>119.0</ele><time>2026-04-25T13:57:54Z</time></trkpt><trkpt lat="45.93920209317486" lon="12.276248388240289"><ele>119.0</ele><time>2026-04-25T13:57:56Z</time></trkpt><trkpt lat="45.93914286807603" lon="12.27614726740518"><ele>116.4</ele><time>2026-04-25T13:57:58Z</time></trkpt><trkpt lat="45.93907367547389" lon="12.276043599121493"><ele>113.80000000000001</ele><time>2026-04-25T13:58:00Z</time></trkpt><trkpt lat="45.939012000767114" lon="12.275938384586935"><ele>111.19999999999999</ele><time>2026-04-25T13:58:02Z</time></trkpt><trkpt lat="45.93894944511867" lon="12.275831093756969"><ele>108.6</ele><time>2026-04-25T13:58:04Z</time></trkpt><trkpt lat="45.93888551253686" lon="12.275700578550268"><ele>106.0</ele><time>2026-04-25T13:58:06Z</time></trkpt><trkpt lat="45.93882938375586" lon="12.275566340563895"><ele>105.66666666666667</ele><time>2026-04-25T13:58:08Z</time></trkpt><trkpt lat="45.938789274266014" lon="12.275426358509877"><ele>105.33333333333334</ele><time>2026-04-25T13:58:10Z</time></trkpt><trkpt lat="45.93872870820875" lon="12.275331125572661"><ele>105.0</ele><time>2026-04-25T13:58:12Z</time></trkpt><trkpt lat="45.93866080391199" lon="12.27527283611863"><ele>104.66666666666666</ele><time>2026-04-25T13:58:14Z</time></trkpt><trkpt lat="45.93860468686179" lon="12.27520470584492"><ele>104.33333333333333</ele><time>2026-04-25T13:58:16Z</time></trkpt><trkpt lat="45.93856669393539" lon="12.275096131083501"><ele>104.0</ele><time>2026-04-25T13:58:18Z</time></trkpt><trkpt lat="45.938526253867465" lon="12.274958941285501"><ele>103.99999999999999</ele><time>2026-04-25T13:58:20Z</time></trkpt><trkpt lat="45.93849718977297" lon="12.274850384421464"><ele>104.0</ele><time>2026-04-25T13:58:22Z</time></trkpt><trkpt lat="45.93847443448779" lon="12.274744914889968"><ele>104.0</ele><time>2026-04-25T13:58:24Z</time></trkpt><trkpt lat="45.93844739440002" lon="12.274655581747991"><ele>104.0</ele><time>2026-04-25T13:58:26Z</time></trkpt><trkpt lat="45.93841978881262" lon="12.274562965950695"><ele>103.99999999999999</ele><time>2026-04-25T13:58:28Z</time></trkpt><trkpt lat="45.93839284897108" lon="12.274442308050295"><ele>104.0</ele><time>2026-04-25T13:58:31Z</time></trkpt><trkpt lat="45.938371056785854" lon="12.27435095476916"><ele>103.66666666666666</ele><time>2026-04-25T13:58:33Z</time></trkpt><trkpt lat="45.93835119099768" lon="12.274261646171384"><ele>103.33333333333333</ele><time>2026-04-25T13:58:35Z</time></trkpt><trkpt lat="45.938320488355735" lon="12.274148082068825"><ele>103.0</ele><time>2026-04-25T13:58:38Z</time></trkpt><trkpt lat="45.93830040063722" lon="12.274041628044415"><ele>102.66666666666666</ele><time>2026-04-25T13:58:41Z</time></trkpt><trkpt lat="45.938369376014585" lon="12.273982707670458"><ele>102.33333333333333</ele><time>2026-04-25T13:58:44Z</time></trkpt><trkpt lat="45.938433102069695" lon="12.27397038843645"><ele>102.0</ele><time>2026-04-25T13:58:46Z</time></trkpt><trkpt lat="45.93852066873496" lon="12.273970667267951"><ele>102.0</ele><time>2026-04-25T13:58:49Z</time></trkpt><trkpt lat="45.93861690502063" lon="12.27396830105346"><ele>102.0</ele><time>2026-04-25T13:58:51.999Z</time></trkpt><trkpt lat="45.938680491533596" lon="12.273968817479819"><ele>102.0</ele><time>2026-04-25T13:58:53.999Z</time></trkpt><trkpt lat="45.93874372115068" lon="12.273972867163728"><ele>102.0</ele><time>2026-04-25T13:58:55.999Z</time></trkpt><trkpt lat="45.93881835956546" lon="12.273972620435172"><ele>102.0</ele><time>2026-04-25T13:58:58.999Z</time></trkpt><trkpt lat="45.93888823623436" lon="12.273962373629512"><ele>102.0</ele><time>2026-04-25T13:59:03.999Z</time></trkpt><trkpt lat="45.938968737766785" lon="12.273968888764113"><ele>102.0</ele><time>2026-04-25T13:59:07.999Z</time></trkpt><trkpt lat="45.93904694489246" lon="12.273997409241424"><ele>102.0</ele><time>2026-04-25T13:59:11.999Z</time></trkpt><trkpt lat="45.93909807186397" lon="12.27394118451428"><ele>102.0</ele><time>2026-04-25T13:59:15.999Z</time></trkpt><trkpt lat="45.9390482244415" lon="12.273846783507697"><ele>102.0</ele><time>2026-04-25T13:59:19.999Z</time></trkpt><trkpt lat="45.938973825410606" lon="12.273777303744971"><ele>102.0</ele><time>2026-04-25T13:59:22.999Z</time></trkpt><trkpt lat="45.93891701758051" lon="12.27372666656884"><ele>102.0</ele><time>2026-04-25T13:59:24.999Z</time></trkpt><trkpt lat="45.93887330433303" lon="12.273657502055489"><ele>102.0</ele><time>2026-04-25T13:59:26.999Z</time></trkpt><trkpt lat="45.93882406533889" lon="12.273588168502693"><ele>102.0</ele><time>2026-04-25T13:59:28.999Z</time></trkpt><trkpt lat="45.9387672595594" lon="12.27348770310986"><ele>102.0</ele><time>2026-04-25T13:59:31.999Z</time></trkpt><trkpt lat="45.9386872729278" lon="12.2734250464532"><ele>102.0</ele><time>2026-04-25T13:59:34.999Z</time></trkpt><trkpt lat="45.9386133220002" lon="12.273390770473814"><ele>102.0</ele><time>2026-04-25T13:59:36.999Z</time></trkpt><trkpt lat="45.93852889715536" lon="12.273370982971926"><ele>102.0</ele><time>2026-04-25T13:59:38.999Z</time></trkpt><trkpt lat="45.93843842190803" lon="12.273348455477857"><ele>102.0</ele><time>2026-04-25T13:59:40.999Z</time></trkpt><trkpt lat="45.93834485118222" lon="12.273325503323221"><ele>102.0</ele><time>2026-04-25T13:59:42.999Z</time></trkpt><trkpt lat="45.938244249456254" lon="12.27331171857"><ele>102.0</ele><time>2026-04-25T13:59:44.999Z</time></trkpt><trkpt lat="45.93813710680587" lon="12.27331215126461"><ele>102.0</ele><time>2026-04-25T13:59:47.001Z</time></trkpt><trkpt lat="45.93803090193073" lon="12.273313420547922"><ele>102.0</ele><time>2026-04-25T13:59:49.001Z</time></trkpt><trkpt lat="45.937922903406594" lon="12.273326490413009"><ele>102.0</ele><time>2026-04-25T13:59:51.001Z</time></trkpt><trkpt lat="45.93781035516392" lon="12.273334075635308"><ele>102.0</ele><time>2026-04-25T13:59:53.001Z</time></trkpt><trkpt lat="45.93769494309432" lon="12.273359198759728"><ele>102.0</ele><time>2026-04-25T13:59:55.001Z</time></trkpt><trkpt lat="45.937578834679556" lon="12.273386726715165"><ele>102.0</ele><time>2026-04-25T13:59:57.001Z</time></trkpt><trkpt lat="45.93746493987422" lon="12.273417679616218"><ele>102.0</ele><time>2026-04-25T13:59:59.001Z</time></trkpt><trkpt lat="45.93735202053029" lon="12.27344468142451"><ele>102.0</ele><time>2026-04-25T14:00:01.001Z</time></trkpt><trkpt lat="45.93724192857764" lon="12.273474868483177"><ele>102.25</ele><time>2026-04-25T14:00:03.001Z</time></trkpt><trkpt lat="45.93712983796342" lon="12.273500150808244"><ele>102.5</ele><time>2026-04-25T14:00:05.001Z</time></trkpt><trkpt lat="45.937019014290215" lon="12.273532107326043"><ele>102.75</ele><time>2026-04-25T14:00:07.001Z</time></trkpt><trkpt lat="45.936906813151246" lon="12.273560115903965"><ele>103.0</ele><time>2026-04-25T14:00:09.001Z</time></trkpt><trkpt lat="45.936793225861784" lon="12.273588769745995"><ele>103.5</ele><time>2026-04-25T14:00:11.001Z</time></trkpt><trkpt lat="45.93667871447329" lon="12.273615767201859"><ele>104.0</ele><time>2026-04-25T14:00:13.001Z</time></trkpt><trkpt lat="45.93656594564594" lon="12.273648171560565"><ele>104.5</ele><time>2026-04-25T14:00:15.001Z</time></trkpt><trkpt lat="45.9364535088349" lon="12.273683221163232"><ele>105.0</ele><time>2026-04-25T14:00:17.001Z</time></trkpt><trkpt lat="45.9363422683669" lon="12.27371238088407"><ele>105.0</ele><time>2026-04-25T14:00:19.001Z</time></trkpt><trkpt lat="45.9362322759574" lon="12.27374406260783"><ele>105.0</ele><time>2026-04-25T14:00:21.001Z</time></trkpt><trkpt lat="45.936122442393" lon="12.273778770555369"><ele>105.0</ele><time>2026-04-25T14:00:23Z</time></trkpt><trkpt lat="45.93601235762569" lon="12.2738019614888"><ele>105.0</ele><time>2026-04-25T14:00:25Z</time></trkpt><trkpt lat="45.93590861691411" lon="12.273837722442698"><ele>105.0</ele><time>2026-04-25T14:00:27Z</time></trkpt><trkpt lat="45.93580259849825" lon="12.273858404069726"><ele>104.8</ele><time>2026-04-25T14:00:29Z</time></trkpt><trkpt lat="45.93569686927422" lon="12.273891715297697"><ele>104.6</ele><time>2026-04-25T14:00:31Z</time></trkpt><trkpt lat="45.93559275028291" lon="12.273916189136239"><ele>104.4</ele><time>2026-04-25T14:00:33Z</time></trkpt><trkpt lat="45.93548934646956" lon="12.27394329812745"><ele>104.2</ele><time>2026-04-25T14:00:35Z</time></trkpt><trkpt lat="45.93538496295231" lon="12.27396967442373"><ele>104.0</ele><time>2026-04-25T14:00:37Z</time></trkpt><trkpt lat="45.93527903901289" lon="12.273993758052665"><ele>103.4</ele><time>2026-04-25T14:00:39Z</time></trkpt><trkpt lat="45.93517510019834" lon="12.274023441296718"><ele>102.80000000000001</ele><time>2026-04-25T14:00:41Z</time></trkpt><trkpt lat="45.93507082442547" lon="12.274048060177313"><ele>102.19999999999999</ele><time>2026-04-25T14:00:43Z</time></trkpt><trkpt lat="45.93496792115681" lon="12.27407824316588"><ele>101.6</ele><time>2026-04-25T14:00:45Z</time></trkpt><trkpt lat="45.93486781423906" lon="12.274104950697929"><ele>101.0</ele><time>2026-04-25T14:00:47Z</time></trkpt><trkpt lat="45.934764217698785" lon="12.274128253112073"><ele>101.0</ele><time>2026-04-25T14:00:49Z</time></trkpt><trkpt lat="45.93466250149804" lon="12.274156063771608"><ele>101.0</ele><time>2026-04-25T14:00:51Z</time></trkpt><trkpt lat="45.9345601040428" lon="12.274178216723845"><ele>101.0</ele><time>2026-04-25T14:00:53Z</time></trkpt><trkpt lat="45.93445818173056" lon="12.274201166151466"><ele>101.0</ele><time>2026-04-25T14:00:55Z</time></trkpt><trkpt lat="45.93435590843298" lon="12.274229454595156"><ele>101.0</ele><time>2026-04-25T14:00:56.999Z</time></trkpt><trkpt lat="45.93425892717407" lon="12.274258712996073"><ele>101.6</ele><time>2026-04-25T14:00:58.999Z</time></trkpt><trkpt lat="45.9341648718416" lon="12.274283548038124"><ele>102.19999999999999</ele><time>2026-04-25T14:01:00.999Z</time></trkpt><trkpt lat="45.93407105214319" lon="12.274307625472472"><ele>102.80000000000001</ele><time>2026-04-25T14:01:02.999Z</time></trkpt><trkpt lat="45.93397661842673" lon="12.274333428411465"><ele>103.4</ele><time>2026-04-25T14:01:04.999Z</time></trkpt><trkpt lat="45.93388251328305" lon="12.274356270907575"><ele>104.0</ele><time>2026-04-25T14:01:06.999Z</time></trkpt><trkpt lat="45.933791735005556" lon="12.274376593411835"><ele>103.99999999999999</ele><time>2026-04-25T14:01:08.999Z</time></trkpt><trkpt lat="45.93370605147971" lon="12.274398883261034"><ele>104.0</ele><time>2026-04-25T14:01:10.999Z</time></trkpt><trkpt lat="45.93362464925802" lon="12.274417643213969"><ele>104.0</ele><time>2026-04-25T14:01:12.999Z</time></trkpt><trkpt lat="45.9335481186225" lon="12.274439854960407"><ele>104.0</ele><time>2026-04-25T14:01:14.999Z</time></trkpt><trkpt lat="45.93347605502404" lon="12.274455609913248"><ele>103.99999999999999</ele><time>2026-04-25T14:01:16.999Z</time></trkpt><trkpt lat="45.9334042990362" lon="12.27447461341976"><ele>104.0</ele><time>2026-04-25T14:01:18.999Z</time></trkpt><trkpt lat="45.933336779749844" lon="12.274497060354628"><ele>105.33333333333333</ele><time>2026-04-25T14:01:20.999Z</time></trkpt><trkpt lat="45.93327031573424" lon="12.274513703088738"><ele>106.66666666666666</ele><time>2026-04-25T14:01:22.999Z</time></trkpt><trkpt lat="45.9332063567405" lon="12.274534110679026"><ele>108.0</ele><time>2026-04-25T14:01:24.999Z</time></trkpt><trkpt lat="45.93311407659891" lon="12.274555737182895"><ele>109.33333333333334</ele><time>2026-04-25T14:01:27.999Z</time></trkpt><trkpt lat="45.93302554054005" lon="12.274563793647845"><ele>110.66666666666667</ele><time>2026-04-25T14:01:30.999Z</time></trkpt><trkpt lat="45.93295165466064" lon="12.274544403003665"><ele>112.0</ele><time>2026-04-25T14:01:33.999Z</time></trkpt><trkpt lat="45.932887820576006" lon="12.274503298793928"><ele>112.0</ele><time>2026-04-25T14:01:36.999Z</time></trkpt><trkpt lat="45.93283506232374" lon="12.274447825137218"><ele>112.0</ele><time>2026-04-25T14:01:39.999Z</time></trkpt><trkpt lat="45.93279849226689" lon="12.274373274299327"><ele>112.0</ele><time>2026-04-25T14:01:42.999Z</time></trkpt><trkpt lat="45.93277399133826" lon="12.27428901901172"><ele>112.0</ele><time>2026-04-25T14:01:45.999Z</time></trkpt><trkpt lat="45.93276409492382" lon="12.27419298049949"><ele>112.0</ele><time>2026-04-25T14:01:48.998Z</time></trkpt><trkpt lat="45.932768631849896" lon="12.27409296926885"><ele>112.0</ele><time>2026-04-25T14:01:51.998Z</time></trkpt><trkpt lat="45.932793544954684" lon="12.273999954526463"><ele>112.0</ele><time>2026-04-25T14:01:55.001Z</time></trkpt><trkpt lat="45.932819848085146" lon="12.273911009771673"><ele>112.85714285714286</ele><time>2026-04-25T14:01:58.001Z</time></trkpt><trkpt lat="45.93284834133872" lon="12.27383027094405"><ele>113.71428571428572</ele><time>2026-04-25T14:02:01.001Z</time></trkpt><trkpt lat="45.932875623700646" lon="12.273746232795276"><ele>114.57142857142857</ele><time>2026-04-25T14:02:04.001Z</time></trkpt><trkpt lat="45.932904154958365" lon="12.273663294975094"><ele>115.42857142857143</ele><time>2026-04-25T14:02:07.001Z</time></trkpt><trkpt lat="45.93293089899407" lon="12.27358038023807"><ele>116.28571428571429</ele><time>2026-04-25T14:02:10.001Z</time></trkpt><trkpt lat="45.93295720275371" lon="12.273494570089097"><ele>117.14285714285714</ele><time>2026-04-25T14:02:13Z</time></trkpt><trkpt lat="45.932983782300155" lon="12.273411510283456"><ele>118.0</ele><time>2026-04-25T14:02:16Z</time></trkpt><trkpt lat="45.93301946508985" lon="12.273308213755715"><ele>118.00000000000001</ele><time>2026-04-25T14:02:20Z</time></trkpt><trkpt lat="45.93304410187217" lon="12.273201111296661"><ele>118.0</ele><time>2026-04-25T14:02:24Z</time></trkpt><trkpt lat="45.93306336380382" lon="12.273097346632724"><ele>118.0</ele><time>2026-04-25T14:02:28Z</time></trkpt><trkpt lat="45.933073057108004" lon="12.272984395865121"><ele>118.0</ele><time>2026-04-25T14:02:32Z</time></trkpt><trkpt lat="45.933076382508546" lon="12.272871834582862"><ele>118.00000000000001</ele><time>2026-04-25T14:02:36Z</time></trkpt><trkpt lat="45.93306982096781" lon="12.272757149464349"><ele>118.0</ele><time>2026-04-25T14:02:40Z</time></trkpt><trkpt lat="45.93304911436519" lon="12.272646766007023"><ele>118.42857142857142</ele><time>2026-04-25T14:02:44Z</time></trkpt><trkpt lat="45.93302256065227" lon="12.272531648491709"><ele>118.85714285714286</ele><time>2026-04-25T14:02:48Z</time></trkpt><trkpt lat="45.93299266262241" lon="12.272448455800383"><ele>119.28571428571428</ele><time>2026-04-25T14:02:51Z</time></trkpt><trkpt lat="45.93295738374106" lon="12.272364042700934"><ele>119.71428571428571</ele><time>2026-04-25T14:02:54Z</time></trkpt><trkpt lat="45.93291955046278" lon="12.272290850390021"><ele>120.14285714285714</ele><time>2026-04-25T14:02:57Z</time></trkpt><trkpt lat="45.93287077279612" lon="12.272221581499723"><ele>120.57142857142857</ele><time>2026-04-25T14:03:00Z</time></trkpt><trkpt lat="45.932820642469835" lon="12.272159779411226"><ele>121.0</ele><time>2026-04-25T14:03:03Z</time></trkpt><trkpt lat="45.93276995599104" lon="12.272103065079488"><ele>122.28571428571428</ele><time>2026-04-25T14:03:06Z</time></trkpt><trkpt lat="45.932698734778405" lon="12.27204983672539"><ele>123.57142857142856</ele><time>2026-04-25T14:03:09.999Z</time></trkpt><trkpt lat="45.93262163569789" lon="12.27201279311634"><ele>124.85714285714286</ele><time>2026-04-25T14:03:13.999Z</time></trkpt><trkpt lat="45.93255442840139" lon="12.271987165982063"><ele>126.14285714285714</ele><time>2026-04-25T14:03:16.999Z</time></trkpt><trkpt lat="45.93248517458276" lon="12.271967204304003"><ele>127.42857142857143</ele><time>2026-04-25T14:03:19.999Z</time></trkpt><trkpt lat="45.93241927676999" lon="12.271958538917128"><ele>128.71428571428572</ele><time>2026-04-25T14:03:22.999Z</time></trkpt><trkpt lat="45.93234409191931" lon="12.271950999221092"><ele>130.0</ele><time>2026-04-25T14:03:26.999Z</time></trkpt><trkpt lat="45.93226019267033" lon="12.271949631460538"><ele>131.2857142857143</ele><time>2026-04-25T14:03:30.999Z</time></trkpt><trkpt lat="45.932197501715784" lon="12.271940080382372"><ele>132.57142857142858</ele><time>2026-04-25T14:03:33.999Z</time></trkpt><trkpt lat="45.93212012191352" lon="12.27193526131352"><ele>133.85714285714286</ele><time>2026-04-25T14:03:37.999Z</time></trkpt><trkpt lat="45.93204250722722" lon="12.271924901244345"><ele>135.14285714285717</ele><time>2026-04-25T14:03:41.999Z</time></trkpt><trkpt lat="45.93196690446252" lon="12.271917844026358"><ele>136.42857142857144</ele><time>2026-04-25T14:03:45.999Z</time></trkpt><trkpt lat="45.93189417224551" lon="12.271898409589179"><ele>137.71428571428572</ele><time>2026-04-25T14:03:49.999Z</time></trkpt><trkpt lat="45.93182335334392" lon="12.27187313094839"><ele>139.0</ele><time>2026-04-25T14:03:53.999Z</time></trkpt><trkpt lat="45.93175892395065" lon="12.271838110571307"><ele>139.85714285714286</ele><time>2026-04-25T14:03:57.999Z</time></trkpt><trkpt lat="45.931699733303134" lon="12.271793921502866"><ele>140.71428571428572</ele><time>2026-04-25T14:04:02.001Z</time></trkpt><trkpt lat="45.93164755770493" lon="12.271737367603878"><ele>141.57142857142858</ele><time>2026-04-25T14:04:06.001Z</time></trkpt><trkpt lat="45.931594411077604" lon="12.271682053385593"><ele>142.42857142857144</ele><time>2026-04-25T14:04:10.001Z</time></trkpt><trkpt lat="45.93154681249711" lon="12.271603006705616"><ele>143.2857142857143</ele><time>2026-04-25T14:04:14.001Z</time></trkpt><trkpt lat="45.93150034627282" lon="12.27153786290951"><ele>144.14285714285714</ele><time>2026-04-25T14:04:18.001Z</time></trkpt><trkpt lat="45.93145650412632" lon="12.271441493502472"><ele>145.0</ele><time>2026-04-25T14:04:23.001Z</time></trkpt><trkpt lat="45.93142186262153" lon="12.271361078339613"><ele>147.0</ele><time>2026-04-25T14:04:27.001Z</time></trkpt><trkpt lat="45.93138937813791" lon="12.271278730919041"><ele>149.0</ele><time>2026-04-25T14:04:31Z</time></trkpt><trkpt lat="45.93135946470278" lon="12.271192867751864"><ele>151.0</ele><time>2026-04-25T14:04:35Z</time></trkpt><trkpt lat="45.931329448452026" lon="12.271110931138695"><ele>153.0</ele><time>2026-04-25T14:04:39Z</time></trkpt><trkpt lat="45.931294649231795" lon="12.271029534510218"><ele>155.0</ele><time>2026-04-25T14:04:43Z</time></trkpt><trkpt lat="45.93127174475253" lon="12.270943978950632"><ele>157.0</ele><time>2026-04-25T14:04:47Z</time></trkpt><trkpt lat="45.93124327157919" lon="12.270855803870148"><ele>159.0</ele><time>2026-04-25T14:04:51Z</time></trkpt><trkpt lat="45.9312130461742" lon="12.270769810242262"><ele>159.0</ele><time>2026-04-25T14:04:55Z</time></trkpt><trkpt lat="45.93118293833752" lon="12.270684876403477"><ele>159.0</ele><time>2026-04-25T14:04:59Z</time></trkpt><trkpt lat="45.93115825267977" lon="12.270595297705068"><ele>159.0</ele><time>2026-04-25T14:05:03Z</time></trkpt><trkpt lat="45.93112885986006" lon="12.270501172304387"><ele>159.0</ele><time>2026-04-25T14:05:07Z</time></trkpt><trkpt lat="45.93109459298424" lon="12.270413694064295"><ele>159.0</ele><time>2026-04-25T14:05:11Z</time></trkpt><trkpt lat="45.93105817502737" lon="12.27032674573766"><ele>159.0</ele><time>2026-04-25T14:05:15Z</time></trkpt><trkpt lat="45.93102713282338" lon="12.270232918251239"><ele>159.0</ele><time>2026-04-25T14:05:19Z</time></trkpt><trkpt lat="45.93099497329299" lon="12.270146963735025"><ele>159.57142857142856</ele><time>2026-04-25T14:05:23Z</time></trkpt><trkpt lat="45.930960917012605" lon="12.270063519835395"><ele>160.14285714285717</ele><time>2026-04-25T14:05:26.999Z</time></trkpt><trkpt lat="45.93092996550606" lon="12.269976077941115"><ele>160.71428571428572</ele><time>2026-04-25T14:05:30.999Z</time></trkpt><trkpt lat="45.9309024834899" lon="12.269887686391039"><ele>161.28571428571428</ele><time>2026-04-25T14:05:34.999Z</time></trkpt><trkpt lat="45.93087310692024" lon="12.269790852608638"><ele>161.85714285714283</ele><time>2026-04-25T14:05:38.999Z</time></trkpt><trkpt lat="45.930842313137056" lon="12.269704017351406"><ele>162.42857142857144</ele><time>2026-04-25T14:05:42.999Z</time></trkpt><trkpt lat="45.93081577293667" lon="12.269616672855372"><ele>163.0</ele><time>2026-04-25T14:05:46.999Z</time></trkpt><trkpt lat="45.93078470883107" lon="12.269535050357135"><ele>163.42857142857144</ele><time>2026-04-25T14:05:50.999Z</time></trkpt><trkpt lat="45.93074699427296" lon="12.269439313998635"><ele>163.85714285714283</ele><time>2026-04-25T14:05:55.999Z</time></trkpt><trkpt lat="45.93071123408052" lon="12.269340271360257"><ele>164.28571428571428</ele><time>2026-04-25T14:06:00.999Z</time></trkpt><trkpt lat="45.93068496677627" lon="12.269255782754046"><ele>164.71428571428572</ele><time>2026-04-25T14:06:05.001Z</time></trkpt><trkpt lat="45.93065726652347" lon="12.269170423544702"><ele>165.14285714285717</ele><time>2026-04-25T14:06:09.001Z</time></trkpt><trkpt lat="45.93062688139028" lon="12.269085422238295"><ele>165.57142857142856</ele><time>2026-04-25T14:06:13.001Z</time></trkpt><trkpt lat="45.9305815612777" lon="12.269017745884488"><ele>166.0</ele><time>2026-04-25T14:06:17.001Z</time></trkpt><trkpt lat="45.93053560418778" lon="12.268933938566787"><ele>166.0</ele><time>2026-04-25T14:06:21.001Z</time></trkpt><trkpt lat="45.93046630017915" lon="12.268931357630688"><ele>166.0</ele><time>2026-04-25T14:16:04.999Z</time></trkpt><trkpt lat="45.93039321562241" lon="12.268887022191471"><ele>166.0</ele><time>2026-04-25T14:16:07.999Z</time></trkpt><trkpt lat="45.930334676635496" lon="12.268844889106267"><ele>166.0</ele><time>2026-04-25T14:16:09.999Z</time></trkpt><trkpt lat="45.93027513343026" lon="12.268791218372735"><ele>166.0</ele><time>2026-04-25T14:16:11.999Z</time></trkpt><trkpt lat="45.93021199151207" lon="12.268743050102234"><ele>166.0</ele><time>2026-04-25T14:16:13.999Z</time></trkpt><trkpt lat="45.93014561378659" lon="12.268700336733682"><ele>166.0</ele><time>2026-04-25T14:16:15.998Z</time></trkpt><trkpt lat="45.93007540408832" lon="12.268669124611002"><ele>165.66666666666669</ele><time>2026-04-25T14:16:17.998Z</time></trkpt><trkpt lat="45.92999845277191" lon="12.268646207577353"><ele>165.33333333333334</ele><time>2026-04-25T14:16:19.998Z</time></trkpt><trkpt lat="45.92991930306993" lon="12.26868038111093"><ele>165.0</ele><time>2026-04-25T14:16:21.998Z</time></trkpt><trkpt lat="45.929846547705345" lon="12.268728073539911"><ele>164.66666666666666</ele><time>2026-04-25T14:16:23.998Z</time></trkpt><trkpt lat="45.92977075782583" lon="12.268778580920614"><ele>164.33333333333331</ele><time>2026-04-25T14:16:25.998Z</time></trkpt><trkpt lat="45.92968899845001" lon="12.268832225039423"><ele>164.0</ele><time>2026-04-25T14:16:27.998Z</time></trkpt><trkpt lat="45.92959885169664" lon="12.268892828341789"><ele>164.16666666666666</ele><time>2026-04-25T14:16:29.997Z</time></trkpt><trkpt lat="45.929489504156074" lon="12.268965642022787"><ele>164.33333333333331</ele><time>2026-04-25T14:16:31.997Z</time></trkpt><trkpt lat="45.92942892095875" lon="12.269002857411152"><ele>164.5</ele><time>2026-04-25T14:16:32.997Z</time></trkpt><trkpt lat="45.92936843346364" lon="12.269040516650364"><ele>164.66666666666666</ele><time>2026-04-25T14:16:33.997Z</time></trkpt><trkpt lat="45.92931196767941" lon="12.269081540884985"><ele>164.83333333333334</ele><time>2026-04-25T14:16:34.999Z</time></trkpt><trkpt lat="45.929198536865364" lon="12.269161274440721"><ele>165.0</ele><time>2026-04-25T14:16:36.999Z</time></trkpt><trkpt lat="45.92908534084488" lon="12.269236082313961"><ele>165.0</ele><time>2026-04-25T14:16:38.999Z</time></trkpt><trkpt lat="45.92897731425535" lon="12.269314225190804"><ele>165.0</ele><time>2026-04-25T14:16:40.999Z</time></trkpt><trkpt lat="45.92886375083297" lon="12.26938813689395"><ele>165.0</ele><time>2026-04-25T14:16:42.999Z</time></trkpt><trkpt lat="45.928751479768756" lon="12.269460696041898"><ele>165.0</ele><time>2026-04-25T14:16:44.999Z</time></trkpt><trkpt lat="45.92863901140765" lon="12.26953808070245"><ele>165.00000000000003</ele><time>2026-04-25T14:16:46.999Z</time></trkpt><trkpt lat="45.928576840260085" lon="12.269552917604909"><ele>165.0</ele><time>2026-04-25T14:16:47.999Z</time></trkpt><trkpt lat="45.92851825953786" lon="12.26959301757258"><ele>165.0</ele><time>2026-04-25T14:16:48.999Z</time></trkpt><trkpt lat="45.928461790347455" lon="12.269636724624124"><ele>165.0</ele><time>2026-04-25T14:16:49.999Z</time></trkpt><trkpt lat="45.92840479708677" lon="12.26968251643474"><ele>165.0</ele><time>2026-04-25T14:16:50.999Z</time></trkpt><trkpt lat="45.92834957344723" lon="12.26973058141835"><ele>165.00000000000003</ele><time>2026-04-25T14:16:51.999Z</time></trkpt><trkpt lat="45.92829365843625" lon="12.269786949609964"><ele>165.0</ele><time>2026-04-25T14:16:52.999Z</time></trkpt><trkpt lat="45.9282389055399" lon="12.269848059194135"><ele>164.83333333333334</ele><time>2026-04-25T14:16:53.999Z</time></trkpt><trkpt lat="45.928187362394354" lon="12.26991140836031"><ele>164.66666666666666</ele><time>2026-04-25T14:16:54.999Z</time></trkpt><trkpt lat="45.92813684516341" lon="12.269975831826338"><ele>164.5</ele><time>2026-04-25T14:16:55.999Z</time></trkpt><trkpt lat="45.92808822568789" lon="12.27004297292527"><ele>164.33333333333331</ele><time>2026-04-25T14:16:56.999Z</time></trkpt><trkpt lat="45.92800585054067" lon="12.27018815526651"><ele>164.16666666666666</ele><time>2026-04-25T14:16:58.999Z</time></trkpt><trkpt lat="45.92795612908536" lon="12.270247480041352"><ele>164.0</ele><time>2026-04-25T14:16:59.999Z</time></trkpt><trkpt lat="45.92791267284421" lon="12.270315872220815"><ele>163.99999999999997</ele><time>2026-04-25T14:17:00.999Z</time></trkpt><trkpt lat="45.9278691131" lon="12.270384447874825"><ele>164.0</ele><time>2026-04-25T14:17:01.999Z</time></trkpt><trkpt lat="45.927825836420894" lon="12.270451337473038"><ele>164.0</ele><time>2026-04-25T14:17:02.999Z</time></trkpt><trkpt lat="45.927781891518734" lon="12.270517595564241"><ele>164.0</ele><time>2026-04-25T14:17:03.999Z</time></trkpt><trkpt lat="45.92773590159015" lon="12.270580551138867"><ele>164.0</ele><time>2026-04-25T14:17:04.999Z</time></trkpt><trkpt lat="45.92764719647438" lon="12.270708108233963"><ele>163.99999999999997</ele><time>2026-04-25T14:17:06.999Z</time></trkpt><trkpt lat="45.92760284423683" lon="12.270773776569504"><ele>164.0</ele><time>2026-04-25T14:17:07.999Z</time></trkpt><trkpt lat="45.927558731877724" lon="12.270838569026749"><ele>163.14285714285714</ele><time>2026-04-25T14:17:08.999Z</time></trkpt><trkpt lat="45.927514295500146" lon="12.270903329812105"><ele>162.28571428571428</ele><time>2026-04-25T14:17:09.999Z</time></trkpt><trkpt lat="45.927467954625854" lon="12.270966732819021"><ele>161.42857142857144</ele><time>2026-04-25T14:17:10.999Z</time></trkpt><trkpt lat="45.92742149867921" lon="12.27102914263596"><ele>160.57142857142856</ele><time>2026-04-25T14:17:11.999Z</time></trkpt><trkpt lat="45.927374049363166" lon="12.271095583383639"><ele>159.71428571428572</ele><time>2026-04-25T14:17:12.999Z</time></trkpt><trkpt lat="45.92732939304927" lon="12.27116305035176"><ele>158.85714285714286</ele><time>2026-04-25T14:17:13.999Z</time></trkpt><trkpt lat="45.92728559021203" lon="12.271230137032774"><ele>158.0</ele><time>2026-04-25T14:17:14.999Z</time></trkpt><trkpt lat="45.927199285187264" lon="12.271361659008873"><ele>158.75</ele><time>2026-04-25T14:17:16.999Z</time></trkpt><trkpt lat="45.92711211878978" lon="12.271489622595878"><ele>159.5</ele><time>2026-04-25T14:17:18.999Z</time></trkpt><trkpt lat="45.927028080763236" lon="12.271619325268151"><ele>160.25</ele><time>2026-04-25T14:17:20.999Z</time></trkpt><trkpt lat="45.926940334135246" lon="12.271739398195649"><ele>161.0</ele><time>2026-04-25T14:17:22.999Z</time></trkpt><trkpt lat="45.926846693798886" lon="12.271850259353913"><ele>161.0</ele><time>2026-04-25T14:17:24.999Z</time></trkpt><trkpt lat="45.92674760434506" lon="12.271936181723085"><ele>161.0</ele><time>2026-04-25T14:17:26.999Z</time></trkpt><trkpt lat="45.926645088111975" lon="12.272010975392883"><ele>161.0</ele><time>2026-04-25T14:17:28.999Z</time></trkpt><trkpt lat="45.92654408816722" lon="12.272086321989681"><ele>161.0</ele><time>2026-04-25T14:17:30.999Z</time></trkpt><trkpt lat="45.92644466309743" lon="12.27217113577776"><ele>161.0</ele><time>2026-04-25T14:17:32.999Z</time></trkpt><trkpt lat="45.926341682102006" lon="12.272262232106856"><ele>161.0</ele><time>2026-04-25T14:17:34.999Z</time></trkpt><trkpt lat="45.92623600718337" lon="12.272356843549906"><ele>161.0</ele><time>2026-04-25T14:17:36.999Z</time></trkpt><trkpt lat="45.92618036872511" lon="12.272406594597474"><ele>161.0</ele><time>2026-04-25T14:17:37.999Z</time></trkpt><trkpt lat="45.9261252846948" lon="12.272460423295858"><ele>161.0</ele><time>2026-04-25T14:17:38.999Z</time></trkpt><trkpt lat="45.92606991243538" lon="12.272514825582304"><ele>161.0</ele><time>2026-04-25T14:17:39.998Z</time></trkpt><trkpt lat="45.92601187171031" lon="12.272570461481521"><ele>161.14285714285714</ele><time>2026-04-25T14:17:40.998Z</time></trkpt><trkpt lat="45.92595393370847" lon="12.272627628196037"><ele>161.28571428571428</ele><time>2026-04-25T14:17:41.998Z</time></trkpt><trkpt lat="45.92589546604582" lon="12.272688401286869"><ele>161.42857142857144</ele><time>2026-04-25T14:17:42.998Z</time></trkpt><trkpt lat="45.925837053977695" lon="12.27274806920248"><ele>161.57142857142856</ele><time>2026-04-25T14:17:43.998Z</time></trkpt><trkpt lat="45.92577453587796" lon="12.272800690541352"><ele>161.71428571428572</ele><time>2026-04-25T14:17:44.998Z</time></trkpt><trkpt lat="45.92571184998364" lon="12.272863554260217"><ele>161.85714285714286</ele><time>2026-04-25T14:17:45.998Z</time></trkpt><trkpt lat="45.92565329895779" lon="12.272919824146628"><ele>162.0</ele><time>2026-04-25T14:17:46.998Z</time></trkpt><trkpt lat="45.92559160810432" lon="12.272980015477037"><ele>162.0</ele><time>2026-04-25T14:17:47.998Z</time></trkpt><trkpt lat="45.92552689216543" lon="12.273039303352066"><ele>162.0</ele><time>2026-04-25T14:17:48.998Z</time></trkpt><trkpt lat="45.92546199316681" lon="12.273097953535192"><ele>162.0</ele><time>2026-04-25T14:17:49.998Z</time></trkpt><trkpt lat="45.925398296542966" lon="12.273159595175887"><ele>162.0</ele><time>2026-04-25T14:17:50.998Z</time></trkpt><trkpt lat="45.925332466056304" lon="12.273224555156311"><ele>162.0</ele><time>2026-04-25T14:17:51.998Z</time></trkpt><trkpt lat="45.925265783349495" lon="12.273288832368783"><ele>162.0</ele><time>2026-04-25T14:17:52.998Z</time></trkpt><trkpt lat="45.925195333751624" lon="12.273350708669605"><ele>161.16666666666666</ele><time>2026-04-25T14:17:53.998Z</time></trkpt><trkpt lat="45.92512674943844" lon="12.273422484167082"><ele>160.33333333333334</ele><time>2026-04-25T14:17:54.998Z</time></trkpt><trkpt lat="45.925055559900485" lon="12.273494919932665"><ele>159.5</ele><time>2026-04-25T14:17:55.998Z</time></trkpt><trkpt lat="45.92498625257114" lon="12.273570499260344"><ele>158.66666666666669</ele><time>2026-04-25T14:17:56.998Z</time></trkpt><trkpt lat="45.924918953872265" lon="12.273653751295758"><ele>157.83333333333334</ele><time>2026-04-25T14:17:57.998Z</time></trkpt><trkpt lat="45.924849582468696" lon="12.273739339194373"><ele>157.0</ele><time>2026-04-25T14:17:58.998Z</time></trkpt><trkpt lat="45.92478235591825" lon="12.273829832972314"><ele>157.0</ele><time>2026-04-25T14:17:59.998Z</time></trkpt><trkpt lat="45.92471378531505" lon="12.273922375350308"><ele>157.0</ele><time>2026-04-25T14:18:00.998Z</time></trkpt><trkpt lat="45.92464004318115" lon="12.274012953754049"><ele>157.0</ele><time>2026-04-25T14:18:01.998Z</time></trkpt><trkpt lat="45.92456512010067" lon="12.274105774310826"><ele>157.0</ele><time>2026-04-25T14:18:02.998Z</time></trkpt><trkpt lat="45.924493689069614" lon="12.27420352990623"><ele>157.0</ele><time>2026-04-25T14:18:03.998Z</time></trkpt><trkpt lat="45.924420582910656" lon="12.274300925113215"><ele>155.79999999999998</ele><time>2026-04-25T14:18:04.998Z</time></trkpt><trkpt lat="45.924343971446866" lon="12.27439181889911"><ele>154.6</ele><time>2026-04-25T14:18:05.998Z</time></trkpt><trkpt lat="45.92426726066531" lon="12.274479275042323"><ele>153.39999999999998</ele><time>2026-04-25T14:18:06.998Z</time></trkpt><trkpt lat="45.92419129169187" lon="12.274563764141694"><ele>152.2</ele><time>2026-04-25T14:18:07.998Z</time></trkpt><trkpt lat="45.924114363903755" lon="12.274643611912495"><ele>151.0</ele><time>2026-04-25T14:18:08.998Z</time></trkpt><trkpt lat="45.92403971290168" lon="12.274721500918126"><ele>150.4</ele><time>2026-04-25T14:18:09.998Z</time></trkpt><trkpt lat="45.92396490721418" lon="12.274797361540129"><ele>149.8</ele><time>2026-04-25T14:18:10.998Z</time></trkpt><trkpt lat="45.9238913286054" lon="12.274873792513475"><ele>149.20000000000002</ele><time>2026-04-25T14:18:11.998Z</time></trkpt><trkpt lat="45.92381834850395" lon="12.274949168333864"><ele>148.6</ele><time>2026-04-25T14:18:12.998Z</time></trkpt><trkpt lat="45.92374378015672" lon="12.275023165800189"><ele>148.0</ele><time>2026-04-25T14:18:13.998Z</time></trkpt><trkpt lat="45.92366810632122" lon="12.275096769137141"><ele>148.0</ele><time>2026-04-25T14:18:14.998Z</time></trkpt><trkpt lat="45.923593946770985" lon="12.275168990101943"><ele>148.0</ele><time>2026-04-25T14:18:15.998Z</time></trkpt><trkpt lat="45.92351971843152" lon="12.27524548791157"><ele>148.0</ele><time>2026-04-25T14:18:16.998Z</time></trkpt><trkpt lat="45.923443353740815" lon="12.275321217975046"><ele>148.0</ele><time>2026-04-25T14:18:17.998Z</time></trkpt><trkpt lat="45.92336768684888" lon="12.27539355281966"><ele>148.0</ele><time>2026-04-25T14:18:18.998Z</time></trkpt><trkpt lat="45.92329034626523" lon="12.27546552708353"><ele>148.0</ele><time>2026-04-25T14:18:19.998Z</time></trkpt><trkpt lat="45.92321127289926" lon="12.275539286812418"><ele>148.0</ele><time>2026-04-25T14:18:20.998Z</time></trkpt><trkpt lat="45.9231353753337" lon="12.275616155308143"><ele>148.0</ele><time>2026-04-25T14:18:21.998Z</time></trkpt><trkpt lat="45.92305870217619" lon="12.275698309252356"><ele>148.0</ele><time>2026-04-25T14:18:22.998Z</time></trkpt><trkpt lat="45.92298154773992" lon="12.27577348534283"><ele>148.0</ele><time>2026-04-25T14:18:23.998Z</time></trkpt><trkpt lat="45.92290453536228" lon="12.275849824319087"><ele>148.0</ele><time>2026-04-25T14:18:24.998Z</time></trkpt><trkpt lat="45.922827172481114" lon="12.275926890337477"><ele>148.0</ele><time>2026-04-25T14:18:25.998Z</time></trkpt><trkpt lat="45.92275073042428" lon="12.276000632691044"><ele>148.0</ele><time>2026-04-25T14:18:26.998Z</time></trkpt><trkpt lat="45.92267402425876" lon="12.276068418295013"><ele>148.0</ele><time>2026-04-25T14:18:27.998Z</time></trkpt><trkpt lat="45.922596880784795" lon="12.27613138091473"><ele>148.0</ele><time>2026-04-25T14:18:28.998Z</time></trkpt><trkpt lat="45.922516484670766" lon="12.276190686827082"><ele>146.83333333333334</ele><time>2026-04-25T14:18:29.998Z</time></trkpt><trkpt lat="45.922435104308995" lon="12.276239734314391"><ele>145.66666666666669</ele><time>2026-04-25T14:18:30.998Z</time></trkpt><trkpt lat="45.922353876773265" lon="12.276285205470064"><ele>144.5</ele><time>2026-04-25T14:18:31.998Z</time></trkpt><trkpt lat="45.922274902987525" lon="12.27632691924468"><ele>143.33333333333334</ele><time>2026-04-25T14:18:32.998Z</time></trkpt><trkpt lat="45.92220057188108" lon="12.276364057468925"><ele>142.16666666666666</ele><time>2026-04-25T14:18:33.998Z</time></trkpt><trkpt lat="45.92212693984521" lon="12.276395477489462"><ele>141.0</ele><time>2026-04-25T14:18:34.998Z</time></trkpt><trkpt lat="45.922057538583" lon="12.276422933914798"><ele>141.42857142857144</ele><time>2026-04-25T14:18:35.998Z</time></trkpt><trkpt lat="45.921989642404284" lon="12.276450383087418"><ele>141.85714285714286</ele><time>2026-04-25T14:18:36.997Z</time></trkpt><trkpt lat="45.92192578827395" lon="12.27648294428888"><ele>142.28571428571428</ele><time>2026-04-25T14:18:37.997Z</time></trkpt><trkpt lat="45.92186154461903" lon="12.276510143283407"><ele>142.71428571428572</ele><time>2026-04-25T14:18:38.997Z</time></trkpt><trkpt lat="45.921800315832805" lon="12.276534549646513"><ele>143.14285714285714</ele><time>2026-04-25T14:18:39.997Z</time></trkpt><trkpt lat="45.9217394558227" lon="12.276560551230334"><ele>143.57142857142858</ele><time>2026-04-25T14:18:41Z</time></trkpt><trkpt lat="45.92162514719381" lon="12.276597914390042"><ele>144.0</ele><time>2026-04-25T14:18:43Z</time></trkpt><trkpt lat="45.92152016682508" lon="12.276625342017955"><ele>144.0</ele><time>2026-04-25T14:18:45Z</time></trkpt><trkpt lat="45.92140725338466" lon="12.276663058654577"><ele>144.0</ele><time>2026-04-25T14:18:47Z</time></trkpt><trkpt lat="45.92128418248978" lon="12.276688253771788"><ele>144.0</ele><time>2026-04-25T14:18:49Z</time></trkpt><trkpt lat="45.92121929413468" lon="12.27670144557585"><ele>144.0</ele><time>2026-04-25T14:18:50Z</time></trkpt><trkpt lat="45.92115379384715" lon="12.276717149484272"><ele>144.0</ele><time>2026-04-25T14:18:51Z</time></trkpt><trkpt lat="45.92108660573933" lon="12.276730828924187"><ele>144.0</ele><time>2026-04-25T14:18:52Z</time></trkpt><trkpt lat="45.92101903508595" lon="12.276749403497966"><ele>144.0</ele><time>2026-04-25T14:18:53Z</time></trkpt><trkpt lat="45.92095017741289" lon="12.276769334897075"><ele>144.0</ele><time>2026-04-25T14:18:54Z</time></trkpt><trkpt lat="45.920878879576755" lon="12.276787191269555"><ele>144.0</ele><time>2026-04-25T14:18:55Z</time></trkpt><trkpt lat="45.920805170501545" lon="12.276805741757492"><ele>144.0</ele><time>2026-04-25T14:18:56Z</time></trkpt><trkpt lat="45.92073023474057" lon="12.276822448618642"><ele>144.0</ele><time>2026-04-25T14:18:57Z</time></trkpt><trkpt lat="45.9206533421936" lon="12.27685161465059"><ele>144.0</ele><time>2026-04-25T14:18:58Z</time></trkpt><trkpt lat="45.920571995258" lon="12.276898490118354"><ele>143.8</ele><time>2026-04-25T14:18:59Z</time></trkpt><trkpt lat="45.920490234578445" lon="12.276950288681133"><ele>143.60000000000002</ele><time>2026-04-25T14:19:00Z</time></trkpt><trkpt lat="45.9204078475215" lon="12.277005082795135"><ele>143.4</ele><time>2026-04-25T14:19:01Z</time></trkpt><trkpt lat="45.920318891696816" lon="12.277048890581673"><ele>143.20000000000002</ele><time>2026-04-25T14:19:02Z</time></trkpt><trkpt lat="45.92023093745027" lon="12.27711134172717"><ele>143.0</ele><time>2026-04-25T14:19:03Z</time></trkpt><trkpt lat="45.920141496476376" lon="12.277174848459195"><ele>141.8</ele><time>2026-04-25T14:19:04Z</time></trkpt><trkpt lat="45.920048825467305" lon="12.277240778091286"><ele>140.60000000000002</ele><time>2026-04-25T14:19:05Z</time></trkpt><trkpt lat="45.91996217660842" lon="12.277328512413094"><ele>139.39999999999998</ele><time>2026-04-25T14:19:06Z</time></trkpt><trkpt lat="45.91986632766016" lon="12.277397024667508"><ele>138.2</ele><time>2026-04-25T14:19:07Z</time></trkpt><trkpt lat="45.9197697032797" lon="12.277468731050401"><ele>137.0</ele><time>2026-04-25T14:19:08Z</time></trkpt><trkpt lat="45.91966248078767" lon="12.277522693478277"><ele>137.0</ele><time>2026-04-25T14:19:09Z</time></trkpt><trkpt lat="45.91957080064732" lon="12.27761552250623"><ele>137.0</ele><time>2026-04-25T14:19:10Z</time></trkpt><trkpt lat="45.919471246986106" lon="12.277684686799017"><ele>137.0</ele><time>2026-04-25T14:19:11Z</time></trkpt><trkpt lat="45.91937234729847" lon="12.277753026857914"><ele>137.0</ele><time>2026-04-25T14:19:12Z</time></trkpt><trkpt lat="45.91926965911372" lon="12.277812274485118"><ele>137.0</ele><time>2026-04-25T14:19:13Z</time></trkpt><trkpt lat="45.919162801749806" lon="12.277861927794536"><ele>135.0</ele><time>2026-04-25T14:19:14Z</time></trkpt><trkpt lat="45.91905205946152" lon="12.27789738574874"><ele>133.0</ele><time>2026-04-25T14:19:15Z</time></trkpt><trkpt lat="45.91894137481207" lon="12.277920329436268"><ele>131.0</ele><time>2026-04-25T14:19:16Z</time></trkpt><trkpt lat="45.91883119777585" lon="12.27793305265602"><ele>129.0</ele><time>2026-04-25T14:19:17Z</time></trkpt><trkpt lat="45.91872025602705" lon="12.277947009637513"><ele>127.0</ele><time>2026-04-25T14:19:18Z</time></trkpt><trkpt lat="45.918612446951364" lon="12.277962749163683"><ele>127.0</ele><time>2026-04-25T14:19:18.999Z</time></trkpt><trkpt lat="45.91850256804715" lon="12.277973079212918"><ele>126.99999999999999</ele><time>2026-04-25T14:19:19.999Z</time></trkpt><trkpt lat="45.91839357816377" lon="12.27797811507524"><ele>126.99999999999999</ele><time>2026-04-25T14:19:20.999Z</time></trkpt><trkpt lat="45.91828453000223" lon="12.277985519707485"><ele>127.0</ele><time>2026-04-25T14:19:21.999Z</time></trkpt><trkpt lat="45.918173941959544" lon="12.277997227716257"><ele>127.0</ele><time>2026-04-25T14:19:22.999Z</time></trkpt><trkpt lat="45.918066149662955" lon="12.278015031659306"><ele>126.6</ele><time>2026-04-25T14:19:23.999Z</time></trkpt><trkpt lat="45.917959657596406" lon="12.27804639593189"><ele>126.19999999999999</ele><time>2026-04-25T14:19:24.999Z</time></trkpt><trkpt lat="45.917861439777006" lon="12.27809685731205"><ele>125.8</ele><time>2026-04-25T14:19:25.999Z</time></trkpt><trkpt lat="45.917765908471736" lon="12.278151111503352"><ele>125.4</ele><time>2026-04-25T14:19:26.999Z</time></trkpt><trkpt lat="45.91767602618426" lon="12.27821312149859"><ele>125.0</ele><time>2026-04-25T14:19:27.999Z</time></trkpt><trkpt lat="45.91758795659554" lon="12.278280747138968"><ele>124.0</ele><time>2026-04-25T14:19:28.999Z</time></trkpt><trkpt lat="45.917499117263745" lon="12.278340030560228"><ele>123.0</ele><time>2026-04-25T14:19:29.999Z</time></trkpt><trkpt lat="45.91741192890781" lon="12.27839942765188"><ele>122.0</ele><time>2026-04-25T14:19:30.999Z</time></trkpt><trkpt lat="45.917324985757745" lon="12.278458505483561"><ele>121.0</ele><time>2026-04-25T14:19:31.999Z</time></trkpt><trkpt lat="45.91723952708723" lon="12.278518878382929"><ele>120.0</ele><time>2026-04-25T14:19:32.999Z</time></trkpt><trkpt lat="45.91715521394711" lon="12.278579137014521"><ele>120.0</ele><time>2026-04-25T14:19:33.999Z</time></trkpt><trkpt lat="45.917072796130874" lon="12.27863699445674"><ele>120.0</ele><time>2026-04-25T14:19:34.999Z</time></trkpt><trkpt lat="45.91698900455087" lon="12.278698634047217"><ele>120.0</ele><time>2026-04-25T14:19:35.999Z</time></trkpt><trkpt lat="45.91690769497864" lon="12.2787569908677"><ele>120.0</ele><time>2026-04-25T14:19:36.999Z</time></trkpt><trkpt lat="45.916828137013354" lon="12.278813636709287"><ele>120.0</ele><time>2026-04-25T14:19:37.999Z</time></trkpt><trkpt lat="45.91674976300395" lon="12.278869676971759"><ele>119.66666666666667</ele><time>2026-04-25T14:19:38.999Z</time></trkpt><trkpt lat="45.91667061114452" lon="12.278922798127898"><ele>119.33333333333334</ele><time>2026-04-25T14:19:39.999Z</time></trkpt><trkpt lat="45.916591677831704" lon="12.27897918859387"><ele>119.0</ele><time>2026-04-25T14:19:40.999Z</time></trkpt><trkpt lat="45.91651438657082" lon="12.27903716497691"><ele>118.66666666666667</ele><time>2026-04-25T14:19:41.999Z</time></trkpt><trkpt lat="45.916435718915444" lon="12.279096182146548"><ele>118.33333333333334</ele><time>2026-04-25T14:19:42.999Z</time></trkpt><trkpt lat="45.91635694955528" lon="12.279155020929599"><ele>118.0</ele><time>2026-04-25T14:19:43.999Z</time></trkpt><trkpt lat="45.91627601712137" lon="12.279216362050795"><ele>118.0</ele><time>2026-04-25T14:19:44.999Z</time></trkpt><trkpt lat="45.916195960545025" lon="12.279280920319051"><ele>118.00000000000001</ele><time>2026-04-25T14:19:45.999Z</time></trkpt><trkpt lat="45.91611175554765" lon="12.279332545885579"><ele>118.00000000000001</ele><time>2026-04-25T14:19:46.999Z</time></trkpt><trkpt lat="45.91602007663137" lon="12.279371597731584"><ele>118.0</ele><time>2026-04-25T14:19:47.999Z</time></trkpt><trkpt lat="45.91592603866994" lon="12.279394780577476"><ele>118.0</ele><time>2026-04-25T14:19:48.999Z</time></trkpt><trkpt lat="45.91582859044306" lon="12.279392752618845"><ele>117.0</ele><time>2026-04-25T14:19:49.999Z</time></trkpt><trkpt lat="45.91573100831285" lon="12.27938074578171"><ele>116.00000000000001</ele><time>2026-04-25T14:19:50.999Z</time></trkpt><trkpt lat="45.91563198871426" lon="12.279362607034255"><ele>115.00000000000001</ele><time>2026-04-25T14:19:51.999Z</time></trkpt><trkpt lat="45.915534064178004" lon="12.279344411570479"><ele>114.0</ele><time>2026-04-25T14:19:52.999Z</time></trkpt><trkpt lat="45.91543427296977" lon="12.279331449530584"><ele>113.0</ele><time>2026-04-25T14:19:53.999Z</time></trkpt><trkpt lat="45.915337358749596" lon="12.279322579684637"><ele>113.0</ele><time>2026-04-25T14:19:54.999Z</time></trkpt><trkpt lat="45.9152400213065" lon="12.279310217612565"><ele>113.00000000000001</ele><time>2026-04-25T14:19:55.999Z</time></trkpt><trkpt lat="45.91514276602127" lon="12.279304872872382"><ele>113.00000000000001</ele><time>2026-04-25T14:19:56.999Z</time></trkpt><trkpt lat="45.9150439855864" lon="12.279316513470818"><ele>113.0</ele><time>2026-04-25T14:19:57.999Z</time></trkpt><trkpt lat="45.914949295351676" lon="12.27932612589945"><ele>113.0</ele><time>2026-04-25T14:19:58.999Z</time></trkpt><trkpt lat="45.91485790864654" lon="12.279338191483877"><ele>113.0</ele><time>2026-04-25T14:19:59.999Z</time></trkpt><trkpt lat="45.914768899269404" lon="12.279362074033454"><ele>113.00000000000001</ele><time>2026-04-25T14:20:00.999Z</time></trkpt><trkpt lat="45.91468113382587" lon="12.279390843737295"><ele>113.00000000000001</ele><time>2026-04-25T14:20:01.999Z</time></trkpt><trkpt lat="45.914589208029625" lon="12.279396184029785"><ele>113.0</ele><time>2026-04-25T14:20:02.999Z</time></trkpt><trkpt lat="45.914501392879394" lon="12.27942645412579"><ele>113.0</ele><time>2026-04-25T14:20:03.999Z</time></trkpt><trkpt lat="45.914421457836" lon="12.279484197307049"><ele>112.99999999999999</ele><time>2026-04-25T14:20:04.999Z</time></trkpt><trkpt lat="45.914338803777646" lon="12.27951921849739"><ele>113.0</ele><time>2026-04-25T14:20:05.999Z</time></trkpt><trkpt lat="45.91425797548214" lon="12.279552755542662"><ele>113.0</ele><time>2026-04-25T14:20:06.999Z</time></trkpt><trkpt lat="45.91418007595007" lon="12.279588007060536"><ele>113.0</ele><time>2026-04-25T14:20:07.999Z</time></trkpt><trkpt lat="45.91410654935681" lon="12.279631044644407"><ele>112.99999999999999</ele><time>2026-04-25T14:20:08.999Z</time></trkpt><trkpt lat="45.91403329766269" lon="12.279675562105371"><ele>113.0</ele><time>2026-04-25T14:20:09.999Z</time></trkpt><trkpt lat="45.9139612422577" lon="12.279719872945485"><ele>112.66666666666666</ele><time>2026-04-25T14:20:10.999Z</time></trkpt><trkpt lat="45.91388902753585" lon="12.279760519359435"><ele>112.33333333333333</ele><time>2026-04-25T14:20:11.999Z</time></trkpt><trkpt lat="45.91381279166484" lon="12.279792078280986"><ele>112.0</ele><time>2026-04-25T14:20:12.999Z</time></trkpt><trkpt lat="45.91373527562382" lon="12.279819672987568"><ele>111.66666666666666</ele><time>2026-04-25T14:20:13.999Z</time></trkpt><trkpt lat="45.913654989734255" lon="12.279838476216693"><ele>111.33333333333333</ele><time>2026-04-25T14:20:14.998Z</time></trkpt><trkpt lat="45.913570594130455" lon="12.279853535041772"><ele>111.0</ele><time>2026-04-25T14:20:15.998Z</time></trkpt><trkpt lat="45.9134835516942" lon="12.279867930156508"><ele>110.19999999999999</ele><time>2026-04-25T14:20:16.998Z</time></trkpt><trkpt lat="45.91339231300886" lon="12.279877201699948"><ele>109.39999999999999</ele><time>2026-04-25T14:20:17.998Z</time></trkpt><trkpt lat="45.91329766305329" lon="12.279882508209509"><ele>108.6</ele><time>2026-04-25T14:20:18.998Z</time></trkpt><trkpt lat="45.91320270803822" lon="12.27988544723336"><ele>107.8</ele><time>2026-04-25T14:20:19.998Z</time></trkpt><trkpt lat="45.91310399444063" lon="12.279883156548182"><ele>107.0</ele><time>2026-04-25T14:20:20.998Z</time></trkpt><trkpt lat="45.913003628275824" lon="12.279872144416824"><ele>107.0</ele><time>2026-04-25T14:20:21.998Z</time></trkpt><trkpt lat="45.912899873028486" lon="12.279865874898679"><ele>106.99999999999999</ele><time>2026-04-25T14:20:22.998Z</time></trkpt><trkpt lat="45.9127935307059" lon="12.279832590866848"><ele>106.99999999999999</ele><time>2026-04-25T14:20:23.998Z</time></trkpt><trkpt lat="45.912684531107814" lon="12.279831498121608"><ele>107.0</ele><time>2026-04-25T14:20:24.998Z</time></trkpt><trkpt lat="45.91257437673702" lon="12.27983774887908"><ele>107.0</ele><time>2026-04-25T14:20:25.998Z</time></trkpt><trkpt lat="45.91246091268857" lon="12.27985918524146"><ele>105.25</ele><time>2026-04-25T14:20:26.998Z</time></trkpt><trkpt lat="45.912347692699385" lon="12.279882499387675"><ele>103.5</ele><time>2026-04-25T14:20:27.998Z</time></trkpt><trkpt lat="45.912233154905636" lon="12.279907866343931"><ele>101.75</ele><time>2026-04-25T14:20:28.998Z</time></trkpt><trkpt lat="45.91211771088205" lon="12.279933256701248"><ele>100.0</ele><time>2026-04-25T14:20:29.998Z</time></trkpt><trkpt lat="45.91200368691837" lon="12.27995833677874"><ele>100.0</ele><time>2026-04-25T14:20:30.998Z</time></trkpt><trkpt lat="45.91188783122813" lon="12.279983817694161"><ele>100.0</ele><time>2026-04-25T14:20:31.998Z</time></trkpt><trkpt lat="45.91177492796428" lon="12.280008649271739"><ele>100.0</ele><time>2026-04-25T14:20:32.998Z</time></trkpt><trkpt lat="45.9116635354139" lon="12.280033166052"><ele>100.0</ele><time>2026-04-25T14:20:33.998Z</time></trkpt><trkpt lat="45.9115513148996" lon="12.28006007259155"><ele>98.8</ele><time>2026-04-25T14:20:34.998Z</time></trkpt><trkpt lat="45.91144392877021" lon="12.280110983001627"><ele>97.6</ele><time>2026-04-25T14:20:35.998Z</time></trkpt><trkpt lat="45.911340259566636" lon="12.280158644827791"><ele>96.4</ele><time>2026-04-25T14:20:36.998Z</time></trkpt><trkpt lat="45.9112442981474" lon="12.280231705412005"><ele>95.2</ele><time>2026-04-25T14:20:37.998Z</time></trkpt><trkpt lat="45.911162298795944" lon="12.280330415612788"><ele>94.0</ele><time>2026-04-25T14:20:38.998Z</time></trkpt><trkpt lat="45.91107912939573" lon="12.280416043427314"><ele>94.0</ele><time>2026-04-25T14:20:39.998Z</time></trkpt><trkpt lat="45.91100593492448" lon="12.280512824846555"><ele>94.0</ele><time>2026-04-25T14:20:40.998Z</time></trkpt><trkpt lat="45.91093273182549" lon="12.280609924040753"><ele>94.0</ele><time>2026-04-25T14:20:41.998Z</time></trkpt><trkpt lat="45.91085928668188" lon="12.2807073443801"><ele>94.0</ele><time>2026-04-25T14:20:42.998Z</time></trkpt><trkpt lat="45.91078661919174" lon="12.280802749473024"><ele>94.0</ele><time>2026-04-25T14:20:43.998Z</time></trkpt><trkpt lat="45.91071330157027" lon="12.280898350885327"><ele>93.2</ele><time>2026-04-25T14:20:44.998Z</time></trkpt><trkpt lat="45.910643533833436" lon="12.280989323515907"><ele>92.4</ele><time>2026-04-25T14:20:45.998Z</time></trkpt><trkpt lat="45.91056982022148" lon="12.281085439529429"><ele>91.6</ele><time>2026-04-25T14:20:47.001Z</time></trkpt><trkpt lat="45.910497191222106" lon="12.281178664670584"><ele>90.8</ele><time>2026-04-25T14:20:48.001Z</time></trkpt><trkpt lat="45.910425348089404" lon="12.28127147447143"><ele>90.0</ele><time>2026-04-25T14:20:49Z</time></trkpt><trkpt lat="45.9103529835622" lon="12.281364957655958"><ele>89.4</ele><time>2026-04-25T14:20:50Z</time></trkpt><trkpt lat="45.91028166869656" lon="12.281457084850125"><ele>88.8</ele><time>2026-04-25T14:20:51.001Z</time></trkpt><trkpt lat="45.91022038864706" lon="12.281567001770185"><ele>88.19999999999999</ele><time>2026-04-25T14:20:52Z</time></trkpt><trkpt lat="45.91013692831677" lon="12.281640654866871"><ele>87.6</ele><time>2026-04-25T14:20:53Z</time></trkpt><trkpt lat="45.910074490552695" lon="12.281749232186424"><ele>87.0</ele><time>2026-04-25T14:20:54Z</time></trkpt><trkpt lat="45.91000192895983" lon="12.281839172303771"><ele>86.0</ele><time>2026-04-25T14:20:55Z</time></trkpt><trkpt lat="45.909920158393554" lon="12.281912693416778"><ele>85.0</ele><time>2026-04-25T14:20:56Z</time></trkpt><trkpt lat="45.90985163963485" lon="12.282004420433731"><ele>84.0</ele><time>2026-04-25T14:20:57Z</time></trkpt><trkpt lat="45.909796743789975" lon="12.282115522611472"><ele>83.0</ele><time>2026-04-25T14:20:58Z</time></trkpt><trkpt lat="45.909731212327834" lon="12.28220887086137"><ele>82.0</ele><time>2026-04-25T14:20:59Z</time></trkpt><trkpt lat="45.909669106030094" lon="12.282305748127426"><ele>81.8</ele><time>2026-04-25T14:21:00Z</time></trkpt><trkpt lat="45.90959575030353" lon="12.282385095533067"><ele>81.6</ele><time>2026-04-25T14:21:01Z</time></trkpt><trkpt lat="45.90953483292531" lon="12.282483492742434"><ele>81.39999999999999</ele><time>2026-04-25T14:21:02Z</time></trkpt><trkpt lat="45.90948503814097" lon="12.2825936506788"><ele>81.19999999999999</ele><time>2026-04-25T14:21:03Z</time></trkpt><trkpt lat="45.90942300455588" lon="12.282687999036636"><ele>81.0</ele><time>2026-04-25T14:21:04Z</time></trkpt><trkpt lat="45.90936013467918" lon="12.282781270951869"><ele>81.0</ele><time>2026-04-25T14:21:05Z</time></trkpt><trkpt lat="45.90929462716994" lon="12.282873063616021"><ele>81.0</ele><time>2026-04-25T14:21:06Z</time></trkpt><trkpt lat="45.90922326156051" lon="12.28295764215902"><ele>81.0</ele><time>2026-04-25T14:21:07Z</time></trkpt><trkpt lat="45.90914304321169" lon="12.28302637533176"><ele>81.0</ele><time>2026-04-25T14:21:08Z</time></trkpt><trkpt lat="45.90905825671362" lon="12.283083235620186"><ele>81.0</ele><time>2026-04-25T14:21:09Z</time></trkpt><trkpt lat="45.90897279904718" lon="12.283127861323038"><ele>80.66666666666667</ele><time>2026-04-25T14:21:10Z</time></trkpt><trkpt lat="45.90888556717184" lon="12.283168038010965"><ele>80.33333333333333</ele><time>2026-04-25T14:21:11Z</time></trkpt><trkpt lat="45.90880064107581" lon="12.283208078297157"><ele>80.0</ele><time>2026-04-25T14:21:12Z</time></trkpt><trkpt lat="45.908716270902886" lon="12.283244825283528"><ele>79.66666666666666</ele><time>2026-04-25T14:21:13Z</time></trkpt><trkpt lat="45.908631373397476" lon="12.283278469291007"><ele>79.33333333333333</ele><time>2026-04-25T14:21:14Z</time></trkpt><trkpt lat="45.90854564694808" lon="12.283301062278525"><ele>79.0</ele><time>2026-04-25T14:21:15Z</time></trkpt><trkpt lat="45.90846129610693" lon="12.283305599552527"><ele>78.5</ele><time>2026-04-25T14:21:16Z</time></trkpt><trkpt lat="45.908377085068" lon="12.283295707484333"><ele>78.0</ele><time>2026-04-25T14:21:17Z</time></trkpt><trkpt lat="45.90829523697772" lon="12.283274374973352"><ele>77.5</ele><time>2026-04-25T14:21:18Z</time></trkpt><trkpt lat="45.90822017124701" lon="12.283235355611847"><ele>77.0</ele><time>2026-04-25T14:21:19Z</time></trkpt><trkpt lat="45.90815267430522" lon="12.28318102003549"><ele>76.5</ele><time>2026-04-25T14:21:20Z</time></trkpt><trkpt lat="45.908086474952235" lon="12.28312647279973"><ele>76.0</ele><time>2026-04-25T14:21:21Z</time></trkpt><trkpt lat="45.90802271076234" lon="12.283072045915503"><ele>75.85714285714285</ele><time>2026-04-25T14:21:22Z</time></trkpt><trkpt lat="45.90796191443308" lon="12.28301828103826"><ele>75.71428571428572</ele><time>2026-04-25T14:21:23Z</time></trkpt><trkpt lat="45.90790329735639" lon="12.282967064510718"><ele>75.57142857142857</ele><time>2026-04-25T14:21:24Z</time></trkpt><trkpt lat="45.907844428924015" lon="12.282922386604062"><ele>75.42857142857142</ele><time>2026-04-25T14:21:25Z</time></trkpt><trkpt lat="45.907784061294244" lon="12.282886824921855"><ele>75.28571428571428</ele><time>2026-04-25T14:21:26Z</time></trkpt><trkpt lat="45.90772559583124" lon="12.282841946837312"><ele>75.14285714285714</ele><time>2026-04-25T14:21:27Z</time></trkpt><trkpt lat="45.90765612770986" lon="12.282885133123793"><ele>75.0</ele><time>2026-04-25T14:21:28Z</time></trkpt><trkpt lat="45.90759355423934" lon="12.282899013248668"><ele>75.0</ele><time>2026-04-25T14:21:29Z</time></trkpt><trkpt lat="45.90755468132365" lon="12.282977805693738"><ele>75.0</ele><time>2026-04-25T14:21:30Z</time></trkpt><trkpt lat="45.90749253516368" lon="12.283106482794388"><ele>75.0</ele><time>2026-04-25T14:21:32Z</time></trkpt><trkpt lat="45.907447015760994" lon="12.283234183322772"><ele>75.0</ele><time>2026-04-25T14:21:34Z</time></trkpt><trkpt lat="45.907403382883906" lon="12.283368952744167"><ele>75.0</ele><time>2026-04-25T14:21:36Z</time></trkpt><trkpt lat="45.907360390421765" lon="12.283499177656724"><ele>75.0</ele><time>2026-04-25T14:21:38Z</time></trkpt><trkpt lat="45.90731830491412" lon="12.283626434746907"><ele>75.0</ele><time>2026-04-25T14:21:40Z</time></trkpt><trkpt lat="45.90726583324317" lon="12.283728492784437"><ele>75.0</ele><time>2026-04-25T14:21:42Z</time></trkpt><trkpt lat="45.90723218041529" lon="12.283811592952054"><ele>75.0</ele><time>2026-04-25T14:21:44Z</time></trkpt><trkpt lat="45.907195730330784" lon="12.283893716315353"><ele>75.0</ele><time>2026-04-25T14:21:45.999Z</time></trkpt><trkpt lat="45.90714715250732" lon="12.283985807851538"><ele>75.0</ele><time>2026-04-25T14:21:48.999Z</time></trkpt><trkpt lat="45.90717350711391" lon="12.283898510516774"><ele>75.0</ele><time>2026-04-25T14:21:53.999Z</time></trkpt><trkpt lat="45.90722250921778" lon="12.283807544819664"><ele>75.0</ele><time>2026-04-25T14:21:56.999Z</time></trkpt><trkpt lat="45.907261986073514" lon="12.283688043062844"><ele>75.0</ele><time>2026-04-25T14:21:59.999Z</time></trkpt><trkpt lat="45.90729110403247" lon="12.283604403562368"><ele>75.0</ele><time>2026-04-25T14:22:01.999Z</time></trkpt><trkpt lat="45.90732369101264" lon="12.28350828440004"><ele>75.0</ele><time>2026-04-25T14:22:03.999Z</time></trkpt><trkpt lat="45.90735956726331" lon="12.2834014381394"><ele>75.0</ele><time>2026-04-25T14:22:05.999Z</time></trkpt><trkpt lat="45.907392100608924" lon="12.28330454825425"><ele>75.0</ele><time>2026-04-25T14:22:07.999Z</time></trkpt><trkpt lat="45.9074171363365" lon="12.283209295028465"><ele>75.0</ele><time>2026-04-25T14:22:09.999Z</time></trkpt><trkpt lat="45.90728741916285" lon="12.282998252667005"><ele>75.0</ele><time>2026-04-25T14:22:11.999Z</time></trkpt><trkpt lat="45.907312436004716" lon="12.28286869312751"><ele>75.0</ele><time>2026-04-25T14:22:14.999Z</time></trkpt><trkpt lat="45.907343606606844" lon="12.282754346414919"><ele>75.0</ele><time>2026-04-25T14:22:16.999Z</time></trkpt><trkpt lat="45.907372226598355" lon="12.282643259462862"><ele>75.0</ele><time>2026-04-25T14:22:18.999Z</time></trkpt><trkpt lat="45.90740631795309" lon="12.282537202654579"><ele>75.0</ele><time>2026-04-25T14:22:20.999Z</time></trkpt><trkpt lat="45.907443311688034" lon="12.282433403325314"><ele>75.0</ele><time>2026-04-25T14:22:22.999Z</time></trkpt><trkpt lat="45.90746948881631" lon="12.282330569851228"><ele>75.0</ele><time>2026-04-25T14:22:24.999Z</time></trkpt><trkpt lat="45.90750678334856" lon="12.28223502182319"><ele>75.0</ele><time>2026-04-25T14:22:26.999Z</time></trkpt><trkpt lat="45.90754635909947" lon="12.282137290275697"><ele>75.0</ele><time>2026-04-25T14:22:28.999Z</time></trkpt><trkpt lat="45.907595578895055" lon="12.282053844317453"><ele>75.0</ele><time>2026-04-25T14:22:30.999Z</time></trkpt><trkpt lat="45.907653410788015" lon="12.28195188499703"><ele>75.0</ele><time>2026-04-25T14:22:32.999Z</time></trkpt><trkpt lat="45.90771892380077" lon="12.281872550786584"><ele>75.0</ele><time>2026-04-25T14:22:34.999Z</time></trkpt><trkpt lat="45.90777522065393" lon="12.28178768047803"><ele>75.0</ele><time>2026-04-25T14:22:36.999Z</time></trkpt><trkpt lat="45.90783657670906" lon="12.281708094649677"><ele>75.0</ele><time>2026-04-25T14:22:38.998Z</time></trkpt><trkpt lat="45.90789302022746" lon="12.281632821139203"><ele>75.0</ele><time>2026-04-25T14:22:40.998Z</time></trkpt><trkpt lat="45.90796080018919" lon="12.281559608357092"><ele>75.0</ele><time>2026-04-25T14:22:42.998Z</time></trkpt><trkpt lat="45.90803042872039" lon="12.281493124523893"><ele>75.0</ele><time>2026-04-25T14:22:44.998Z</time></trkpt><trkpt lat="45.908105111359276" lon="12.281417939121178"><ele>75.0</ele><time>2026-04-25T14:22:46.998Z</time></trkpt><trkpt lat="45.90817408819796" lon="12.28133816972557"><ele>75.0</ele><time>2026-04-25T14:22:48.998Z</time></trkpt><trkpt lat="45.90823957941014" lon="12.281259473944836"><ele>75.0</ele><time>2026-04-25T14:22:50.998Z</time></trkpt><trkpt lat="45.90830480324937" lon="12.281182724481956"><ele>75.0</ele><time>2026-04-25T14:22:53.001Z</time></trkpt><trkpt lat="45.90837280812922" lon="12.281103390662677"><ele>75.33333333333333</ele><time>2026-04-25T14:22:55.001Z</time></trkpt><trkpt lat="45.90843794767238" lon="12.281024593170024"><ele>75.66666666666667</ele><time>2026-04-25T14:22:57.001Z</time></trkpt><trkpt lat="45.90850458691752" lon="12.280937244976014"><ele>76.0</ele><time>2026-04-25T14:22:59.001Z</time></trkpt><trkpt lat="45.90857135112564" lon="12.28084326684899"><ele>76.33333333333334</ele><time>2026-04-25T14:23:01.001Z</time></trkpt><trkpt lat="45.90863174459379" lon="12.28074461896591"><ele>76.66666666666667</ele><time>2026-04-25T14:23:03.001Z</time></trkpt><trkpt lat="45.90868651778925" lon="12.280643552285612"><ele>77.0</ele><time>2026-04-25T14:23:05.001Z</time></trkpt><trkpt lat="45.90873757419033" lon="12.280537863015372"><ele>77.0</ele><time>2026-04-25T14:23:07.001Z</time></trkpt><trkpt lat="45.90879077334625" lon="12.2804272878556"><ele>77.0</ele><time>2026-04-25T14:23:09.001Z</time></trkpt><trkpt lat="45.90882864750709" lon="12.280307318622365"><ele>77.0</ele><time>2026-04-25T14:23:11.001Z</time></trkpt><trkpt lat="45.90886700200432" lon="12.280172911250757"><ele>77.0</ele><time>2026-04-25T14:23:13.001Z</time></trkpt><trkpt lat="45.90890852097763" lon="12.28005311028138"><ele>77.0</ele><time>2026-04-25T14:23:15.001Z</time></trkpt><trkpt lat="45.908941673333324" lon="12.279923564347467"><ele>77.0</ele><time>2026-04-25T14:23:17.001Z</time></trkpt><trkpt lat="45.90896680101978" lon="12.279792978229427"><ele>77.0</ele><time>2026-04-25T14:23:19Z</time></trkpt><trkpt lat="45.90898617850385" lon="12.279661594756679"><ele>77.0</ele><time>2026-04-25T14:23:21Z</time></trkpt><trkpt lat="45.909012179923785" lon="12.279528676892605"><ele>77.0</ele><time>2026-04-25T14:23:23Z</time></trkpt><trkpt lat="45.9090312095519" lon="12.279391310350452"><ele>77.0</ele><time>2026-04-25T14:23:25Z</time></trkpt><trkpt lat="45.90904986556673" lon="12.279247985043977"><ele>77.2</ele><time>2026-04-25T14:23:27Z</time></trkpt><trkpt lat="45.909073324316914" lon="12.279108887261103"><ele>77.4</ele><time>2026-04-25T14:23:29Z</time></trkpt><trkpt lat="45.90909982351324" lon="12.27896831617173"><ele>77.6</ele><time>2026-04-25T14:23:31Z</time></trkpt><trkpt lat="45.90912113633298" lon="12.278823297423733"><ele>77.8</ele><time>2026-04-25T14:23:33Z</time></trkpt><trkpt lat="45.909142239344206" lon="12.278681495521585"><ele>78.0</ele><time>2026-04-25T14:23:35Z</time></trkpt><trkpt lat="45.90917008940795" lon="12.278548007316758"><ele>78.2</ele><time>2026-04-25T14:23:37Z</time></trkpt><trkpt lat="45.90919767644828" lon="12.27840439228277"><ele>78.4</ele><time>2026-04-25T14:23:39Z</time></trkpt><trkpt lat="45.909226908979186" lon="12.278273568730377"><ele>78.60000000000001</ele><time>2026-04-25T14:23:41Z</time></trkpt><trkpt lat="45.90926017562078" lon="12.278140025007128"><ele>78.8</ele><time>2026-04-25T14:23:43Z</time></trkpt><trkpt lat="45.90930464319483" lon="12.278011001976239"><ele>79.0</ele><time>2026-04-25T14:23:45Z</time></trkpt><trkpt lat="45.90934057061811" lon="12.277879225835747"><ele>79.0</ele><time>2026-04-25T14:23:47Z</time></trkpt><trkpt lat="45.909381972873845" lon="12.277748697172157"><ele>79.0</ele><time>2026-04-25T14:23:49Z</time></trkpt><trkpt lat="45.9094014668403" lon="12.277612923183103"><ele>79.0</ele><time>2026-04-25T14:23:51Z</time></trkpt><trkpt lat="45.90944618937756" lon="12.27748849685269"><ele>79.0</ele><time>2026-04-25T14:23:53Z</time></trkpt><trkpt lat="45.909490731734735" lon="12.277361398153378"><ele>79.0</ele><time>2026-04-25T14:23:55Z</time></trkpt><trkpt lat="45.90953779924805" lon="12.277244567322377"><ele>79.2</ele><time>2026-04-25T14:23:57Z</time></trkpt><trkpt lat="45.909598865123414" lon="12.277131079189656"><ele>79.4</ele><time>2026-04-25T14:23:59Z</time></trkpt><trkpt lat="45.90966356856561" lon="12.277026698324399"><ele>79.6</ele><time>2026-04-25T14:24:01Z</time></trkpt><trkpt lat="45.909743704696815" lon="12.276941082126045"><ele>79.8</ele><time>2026-04-25T14:24:02.999Z</time></trkpt><trkpt lat="45.909825646551894" lon="12.276865862325428"><ele>80.0</ele><time>2026-04-25T14:24:04.999Z</time></trkpt><trkpt lat="45.909919423550456" lon="12.276812050634225"><ele>80.0</ele><time>2026-04-25T14:24:06.999Z</time></trkpt><trkpt lat="45.91001236838011" lon="12.276753394661075"><ele>80.0</ele><time>2026-04-25T14:24:08.999Z</time></trkpt><trkpt lat="45.91011087238373" lon="12.276692846893921"><ele>80.0</ele><time>2026-04-25T14:24:10.999Z</time></trkpt><trkpt lat="45.91019849437699" lon="12.276650055624476"><ele>80.0</ele><time>2026-04-25T14:24:12.999Z</time></trkpt><trkpt lat="45.910284990452844" lon="12.276607580872572"><ele>80.0</ele><time>2026-04-25T14:24:14.999Z</time></trkpt><trkpt lat="45.91038023499011" lon="12.276586065761853"><ele>80.0</ele><time>2026-04-25T14:24:16.998Z</time></trkpt><trkpt lat="45.91046894454139" lon="12.276574018018795"><ele>80.0</ele><time>2026-04-25T14:24:18.998Z</time></trkpt><trkpt lat="45.910548017191445" lon="12.276567281646958"><ele>80.0</ele><time>2026-04-25T14:24:20.998Z</time></trkpt><trkpt lat="45.910622787086645" lon="12.276545999782998"><ele>80.0</ele><time>2026-04-25T14:24:22.998Z</time></trkpt><trkpt lat="45.910696257821996" lon="12.27653110657484"><ele>80.0</ele><time>2026-04-25T14:24:24.998Z</time></trkpt><trkpt lat="45.910785788192115" lon="12.27652815555683"><ele>80.0</ele><time>2026-04-25T14:24:26.998Z</time></trkpt><trkpt lat="45.91086900954072" lon="12.276493568129805"><ele>80.4</ele><time>2026-04-25T14:24:28.998Z</time></trkpt><trkpt lat="45.91095555257928" lon="12.276483726966829"><ele>80.8</ele><time>2026-04-25T14:24:30.998Z</time></trkpt><trkpt lat="45.91105019758115" lon="12.276474855444002"><ele>81.19999999999999</ele><time>2026-04-25T14:24:32.998Z</time></trkpt><trkpt lat="45.91114189633998" lon="12.276460793621867"><ele>81.6</ele><time>2026-04-25T14:24:34.998Z</time></trkpt><trkpt lat="45.91123472585726" lon="12.276450505825585"><ele>82.0</ele><time>2026-04-25T14:24:36.998Z</time></trkpt><trkpt lat="45.911335022421724" lon="12.276440143069285"><ele>82.0</ele><time>2026-04-25T14:24:38.998Z</time></trkpt><trkpt lat="45.91142665743605" lon="12.276434141435704"><ele>82.0</ele><time>2026-04-25T14:24:40.998Z</time></trkpt><trkpt lat="45.91152595304117" lon="12.276416491933322"><ele>82.0</ele><time>2026-04-25T14:24:42.998Z</time></trkpt><trkpt lat="45.91162285718917" lon="12.276394318075088"><ele>82.0</ele><time>2026-04-25T14:24:44.998Z</time></trkpt><trkpt lat="45.911714003806416" lon="12.276362859970027"><ele>82.0</ele><time>2026-04-25T14:24:46.998Z</time></trkpt><trkpt lat="45.91180291081559" lon="12.276344827403719"><ele>82.0</ele><time>2026-04-25T14:24:48.998Z</time></trkpt><trkpt lat="45.91188319329693" lon="12.276307037735563"><ele>82.0</ele><time>2026-04-25T14:24:50.998Z</time></trkpt><trkpt lat="45.91196984621497" lon="12.276264665840452"><ele>82.0</ele><time>2026-04-25T14:24:52.997Z</time></trkpt><trkpt lat="45.91205195270148" lon="12.27620464056616"><ele>82.0</ele><time>2026-04-25T14:24:54.997Z</time></trkpt><trkpt lat="45.91213123110801" lon="12.276139620139718"><ele>82.0</ele><time>2026-04-25T14:24:56.997Z</time></trkpt><trkpt lat="45.91221643514203" lon="12.276072140156634"><ele>82.0</ele><time>2026-04-25T14:24:59Z</time></trkpt><trkpt lat="45.912299755115484" lon="12.275992339077048"><ele>82.0</ele><time>2026-04-25T14:25:01Z</time></trkpt><trkpt lat="45.91238122763424" lon="12.275906751609007"><ele>82.0</ele><time>2026-04-25T14:25:03Z</time></trkpt><trkpt lat="45.912461203946286" lon="12.275813539868773"><ele>82.0</ele><time>2026-04-25T14:25:05Z</time></trkpt><trkpt lat="45.912537408156375" lon="12.275715349011083"><ele>82.0</ele><time>2026-04-25T14:25:07Z</time></trkpt><trkpt lat="45.91261480187881" lon="12.2756198064491"><ele>82.0</ele><time>2026-04-25T14:25:09Z</time></trkpt><trkpt lat="45.912688388596976" lon="12.27552440227613"><ele>82.0</ele><time>2026-04-25T14:25:11Z</time></trkpt><trkpt lat="45.912763600748654" lon="12.275438338127847"><ele>82.0</ele><time>2026-04-25T14:25:13Z</time></trkpt><trkpt lat="45.912844483551666" lon="12.275349411065113"><ele>82.0</ele><time>2026-04-25T14:25:15Z</time></trkpt><trkpt lat="45.91290155341018" lon="12.275252160086003"><ele>82.0</ele><time>2026-04-25T14:25:17Z</time></trkpt><trkpt lat="45.91296512256523" lon="12.275143856243668"><ele>82.0</ele><time>2026-04-25T14:25:19Z</time></trkpt><trkpt lat="45.91304304409557" lon="12.275061627070652"><ele>82.0</ele><time>2026-04-25T14:25:21Z</time></trkpt><trkpt lat="45.913116567955974" lon="12.274967508616735"><ele>82.0</ele><time>2026-04-25T14:25:23Z</time></trkpt><trkpt lat="45.91319102172562" lon="12.274874391523321"><ele>82.0</ele><time>2026-04-25T14:25:25Z</time></trkpt><trkpt lat="45.91326049561783" lon="12.274762946976548"><ele>82.0</ele><time>2026-04-25T14:25:27Z</time></trkpt><trkpt lat="45.91333826745868" lon="12.274662755025533"><ele>82.39999999999999</ele><time>2026-04-25T14:25:29Z</time></trkpt><trkpt lat="45.91342216577584" lon="12.274566697661989"><ele>82.8</ele><time>2026-04-25T14:25:31Z</time></trkpt><trkpt lat="45.91349944664043" lon="12.274468244242145"><ele>83.2</ele><time>2026-04-25T14:25:32.999Z</time></trkpt><trkpt lat="45.91357759318303" lon="12.274369307038013"><ele>83.6</ele><time>2026-04-25T14:25:34.999Z</time></trkpt><trkpt lat="45.9136579194622" lon="12.27426985176186"><ele>84.0</ele><time>2026-04-25T14:25:36.999Z</time></trkpt><trkpt lat="45.91374008703465" lon="12.274165107583363"><ele>84.0</ele><time>2026-04-25T14:25:38.999Z</time></trkpt><trkpt lat="45.91381961322674" lon="12.274062155686675"><ele>84.0</ele><time>2026-04-25T14:25:40.999Z</time></trkpt><trkpt lat="45.91389930982318" lon="12.273961268408385"><ele>84.0</ele><time>2026-04-25T14:25:42.999Z</time></trkpt><trkpt lat="45.913979621936065" lon="12.273860186417895"><ele>84.0</ele><time>2026-04-25T14:25:44.999Z</time></trkpt><trkpt lat="45.91405996539942" lon="12.273760273952629"><ele>84.0</ele><time>2026-04-25T14:25:46.999Z</time></trkpt><trkpt lat="45.91413733528485" lon="12.273662087380613"><ele>84.0</ele><time>2026-04-25T14:25:48.999Z</time></trkpt><trkpt lat="45.914219508290714" lon="12.273562317659547"><ele>84.0</ele><time>2026-04-25T14:25:50.999Z</time></trkpt><trkpt lat="45.91429327561107" lon="12.27346653171063"><ele>84.0</ele><time>2026-04-25T14:25:52.999Z</time></trkpt><trkpt lat="45.914365105538266" lon="12.27337108560181"><ele>84.0</ele><time>2026-04-25T14:25:54.999Z</time></trkpt><trkpt lat="45.91444999423146" lon="12.273275644254499"><ele>84.0</ele><time>2026-04-25T14:25:56.999Z</time></trkpt><trkpt lat="45.914529872113036" lon="12.273180012504005"><ele>84.2</ele><time>2026-04-25T14:25:58.999Z</time></trkpt><trkpt lat="45.91460534376004" lon="12.273089121042249"><ele>84.4</ele><time>2026-04-25T14:26:00.999Z</time></trkpt><trkpt lat="45.91467853809544" lon="12.273007631340796"><ele>84.6</ele><time>2026-04-25T14:26:02.999Z</time></trkpt><trkpt lat="45.914727311978595" lon="12.272890058376483"><ele>84.8</ele><time>2026-04-25T14:26:04.999Z</time></trkpt><trkpt lat="45.914798319434766" lon="12.27279191586974"><ele>85.0</ele><time>2026-04-25T14:26:06.999Z</time></trkpt><trkpt lat="45.91487889865804" lon="12.272699319844216"><ele>85.0</ele><time>2026-04-25T14:26:08.999Z</time></trkpt><trkpt lat="45.9149619475581" lon="12.27260573709759"><ele>85.0</ele><time>2026-04-25T14:26:10.999Z</time></trkpt><trkpt lat="45.9150450966635" lon="12.272514144308252"><ele>85.0</ele><time>2026-04-25T14:26:12.999Z</time></trkpt><trkpt lat="45.915131518586826" lon="12.272425711439771"><ele>85.0</ele><time>2026-04-25T14:26:14.999Z</time></trkpt><trkpt lat="45.915219948714224" lon="12.27233572556428"><ele>85.0</ele><time>2026-04-25T14:26:16.999Z</time></trkpt><trkpt lat="45.915308048031356" lon="12.272249521728229"><ele>85.5</ele><time>2026-04-25T14:26:18.998Z</time></trkpt><trkpt lat="45.91539636217942" lon="12.27215600735296"><ele>86.0</ele><time>2026-04-25T14:26:20.998Z</time></trkpt><trkpt lat="45.915493749192635" lon="12.272075074802775"><ele>86.5</ele><time>2026-04-25T14:26:22.998Z</time></trkpt><trkpt lat="45.91560224887931" lon="12.272031644986225"><ele>87.0</ele><time>2026-04-25T14:26:24.998Z</time></trkpt><trkpt lat="45.915696329818175" lon="12.271919529694909"><ele>87.0</ele><time>2026-04-25T14:26:26.998Z</time></trkpt><trkpt lat="45.915791971236864" lon="12.271824984299428"><ele>87.0</ele><time>2026-04-25T14:26:28.998Z</time></trkpt><trkpt lat="45.91588730324029" lon="12.271728002310764"><ele>87.0</ele><time>2026-04-25T14:26:30.998Z</time></trkpt><trkpt lat="45.91597189129855" lon="12.27161557379657"><ele>87.0</ele><time>2026-04-25T14:26:32.998Z</time></trkpt><trkpt lat="45.916078901881335" lon="12.271539278901244"><ele>87.25</ele><time>2026-04-25T14:26:34.998Z</time></trkpt><trkpt lat="45.9161673980812" lon="12.271430516629527"><ele>87.5</ele><time>2026-04-25T14:26:36.998Z</time></trkpt><trkpt lat="45.91626780326394" lon="12.271334818687482"><ele>87.75</ele><time>2026-04-25T14:26:38.998Z</time></trkpt><trkpt lat="45.91636719717286" lon="12.271246191010084"><ele>88.0</ele><time>2026-04-25T14:26:40.998Z</time></trkpt><trkpt lat="45.916472210033014" lon="12.271166415715896"><ele>88.0</ele><time>2026-04-25T14:26:42.998Z</time></trkpt><trkpt lat="45.91656908149283" lon="12.271068474184453"><ele>88.0</ele><time>2026-04-25T14:26:44.998Z</time></trkpt><trkpt lat="45.916663161351835" lon="12.270961940498545"><ele>88.0</ele><time>2026-04-25T14:26:46.998Z</time></trkpt><trkpt lat="45.916756934146036" lon="12.270846115353411"><ele>88.0</ele><time>2026-04-25T14:26:48.998Z</time></trkpt><trkpt lat="45.916849610592934" lon="12.270728314833674"><ele>88.0</ele><time>2026-04-25T14:26:50.998Z</time></trkpt><trkpt lat="45.91689632508668" lon="12.270666749841988"><ele>88.0</ele><time>2026-04-25T14:26:51.998Z</time></trkpt><trkpt lat="45.91698814180403" lon="12.270542233366522"><ele>88.0</ele><time>2026-04-25T14:26:53.998Z</time></trkpt><trkpt lat="45.91703307996233" lon="12.270477513770453"><ele>88.0</ele><time>2026-04-25T14:26:54.998Z</time></trkpt><trkpt lat="45.91711732796684" lon="12.270355165524162"><ele>88.0</ele><time>2026-04-25T14:26:56.998Z</time></trkpt><trkpt lat="45.91720027052927" lon="12.270232831110453"><ele>88.0</ele><time>2026-04-25T14:26:58.998Z</time></trkpt><trkpt lat="45.91728072052404" lon="12.270111326379476"><ele>88.0</ele><time>2026-04-25T14:27:00.998Z</time></trkpt><trkpt lat="45.91736123831096" lon="12.269985997293787"><ele>88.0</ele><time>2026-04-25T14:27:02.998Z</time></trkpt><trkpt lat="45.917440786080256" lon="12.269861153391512"><ele>88.0</ele><time>2026-04-25T14:27:05Z</time></trkpt><trkpt lat="45.9175165364247" lon="12.269732911004866"><ele>88.25</ele><time>2026-04-25T14:27:07Z</time></trkpt><trkpt lat="45.9175893517252" lon="12.269604833628579"><ele>88.5</ele><time>2026-04-25T14:27:09Z</time></trkpt><trkpt lat="45.917657877787256" lon="12.269475561240716"><ele>88.75</ele><time>2026-04-25T14:27:11Z</time></trkpt><trkpt lat="45.91772214893897" lon="12.26934870064676"><ele>89.0</ele><time>2026-04-25T14:27:13Z</time></trkpt><trkpt lat="45.91778923222302" lon="12.269216663611068"><ele>89.0</ele><time>2026-04-25T14:27:15Z</time></trkpt><trkpt lat="45.91785571695071" lon="12.269086717580569"><ele>89.0</ele><time>2026-04-25T14:27:17Z</time></trkpt><trkpt lat="45.917920854615964" lon="12.268959404449225"><ele>89.0</ele><time>2026-04-25T14:27:19Z</time></trkpt><trkpt lat="45.917988442445385" lon="12.26882720909379"><ele>89.0</ele><time>2026-04-25T14:27:21Z</time></trkpt><trkpt lat="45.918055919564516" lon="12.268693282206025"><ele>89.0</ele><time>2026-04-25T14:27:23Z</time></trkpt><trkpt lat="45.91812325276935" lon="12.268559641156369"><ele>89.0</ele><time>2026-04-25T14:27:25Z</time></trkpt><trkpt lat="45.918191557070344" lon="12.268425131545007"><ele>89.0</ele><time>2026-04-25T14:27:27Z</time></trkpt><trkpt lat="45.91825972732374" lon="12.268291548519944"><ele>89.0</ele><time>2026-04-25T14:27:29Z</time></trkpt><trkpt lat="45.91832661642099" lon="12.26816330336129"><ele>89.0</ele><time>2026-04-25T14:27:31Z</time></trkpt><trkpt lat="45.91839475421653" lon="12.268031683766633"><ele>89.0</ele><time>2026-04-25T14:27:33Z</time></trkpt><trkpt lat="45.918439800075554" lon="12.26788267808011"><ele>89.0</ele><time>2026-04-25T14:27:35Z</time></trkpt><trkpt lat="45.918505761411815" lon="12.26775459044528"><ele>89.0</ele><time>2026-04-25T14:27:37Z</time></trkpt><trkpt lat="45.918581414649054" lon="12.2676330187002"><ele>89.0</ele><time>2026-04-25T14:27:39Z</time></trkpt><trkpt lat="45.91866098616542" lon="12.267511222857943"><ele>89.0</ele><time>2026-04-25T14:27:41Z</time></trkpt><trkpt lat="45.918739759439525" lon="12.267391976647641"><ele>89.0</ele><time>2026-04-25T14:27:43Z</time></trkpt><trkpt lat="45.918821693385624" lon="12.267271983931975"><ele>89.0</ele><time>2026-04-25T14:27:44.999Z</time></trkpt><trkpt lat="45.918900693648695" lon="12.26715152958847"><ele>88.75</ele><time>2026-04-25T14:27:46.999Z</time></trkpt><trkpt lat="45.91898900910663" lon="12.267055142756613"><ele>88.5</ele><time>2026-04-25T14:27:48.999Z</time></trkpt><trkpt lat="45.91906742843954" lon="12.266944859864934"><ele>88.25</ele><time>2026-04-25T14:27:50.999Z</time></trkpt><trkpt lat="45.91914005175316" lon="12.2668135353844"><ele>88.0</ele><time>2026-04-25T14:27:52.999Z</time></trkpt><trkpt lat="45.9192264444019" lon="12.266698936527064"><ele>88.2</ele><time>2026-04-25T14:27:54.999Z</time></trkpt><trkpt lat="45.91931190500121" lon="12.266565498760025"><ele>88.4</ele><time>2026-04-25T14:27:56.999Z</time></trkpt><trkpt lat="45.919407245584466" lon="12.266455623969835"><ele>88.60000000000001</ele><time>2026-04-25T14:27:58.999Z</time></trkpt><trkpt lat="45.91945429645886" lon="12.266390263958568"><ele>88.80000000000001</ele><time>2026-04-25T14:27:59.999Z</time></trkpt><trkpt lat="45.919541910521126" lon="12.266272583544536"><ele>89.0</ele><time>2026-04-25T14:28:01.999Z</time></trkpt><trkpt lat="45.91962876510439" lon="12.26615985145168"><ele>89.0</ele><time>2026-04-25T14:28:03.999Z</time></trkpt><trkpt lat="45.919714445256936" lon="12.266049738947716"><ele>89.0</ele><time>2026-04-25T14:28:05.999Z</time></trkpt><trkpt lat="45.919802796812434" lon="12.265936193321176"><ele>89.0</ele><time>2026-04-25T14:28:07.999Z</time></trkpt><trkpt lat="45.91988478696521" lon="12.265830463045098"><ele>89.0</ele><time>2026-04-25T14:28:09.999Z</time></trkpt><trkpt lat="45.91997271187327" lon="12.265715477419699"><ele>89.0</ele><time>2026-04-25T14:28:11.999Z</time></trkpt><trkpt lat="45.92006135486575" lon="12.265599348285539"><ele>89.0</ele><time>2026-04-25T14:28:13.999Z</time></trkpt><trkpt lat="45.920149668876384" lon="12.26548799610133"><ele>89.0</ele><time>2026-04-25T14:28:15.999Z</time></trkpt><trkpt lat="45.92024043720518" lon="12.265379837202191"><ele>89.0</ele><time>2026-04-25T14:28:17.999Z</time></trkpt><trkpt lat="45.9203298046595" lon="12.265282793583363"><ele>90.25</ele><time>2026-04-25T14:28:19.999Z</time></trkpt><trkpt lat="45.92042804466953" lon="12.265186067473946"><ele>91.5</ele><time>2026-04-25T14:28:21.999Z</time></trkpt><trkpt lat="45.92052680432345" lon="12.26509348655602"><ele>92.75</ele><time>2026-04-25T14:28:23.999Z</time></trkpt><trkpt lat="45.9206277750854" lon="12.265001362013544"><ele>94.0</ele><time>2026-04-25T14:28:25.999Z</time></trkpt><trkpt lat="45.920728521053995" lon="12.264914062868524"><ele>94.0</ele><time>2026-04-25T14:28:27.999Z</time></trkpt><trkpt lat="45.92083333400129" lon="12.264829214323878"><ele>94.0</ele><time>2026-04-25T14:28:29.998Z</time></trkpt><trkpt lat="45.920940257870264" lon="12.264749560378123"><ele>94.0</ele><time>2026-04-25T14:28:31.998Z</time></trkpt><trkpt lat="45.92104339101317" lon="12.264681592544942"><ele>94.0</ele><time>2026-04-25T14:28:33.998Z</time></trkpt><trkpt lat="45.92115421222984" lon="12.264616272713685"><ele>94.0</ele><time>2026-04-25T14:28:35.998Z</time></trkpt><trkpt lat="45.92126430013093" lon="12.264552364749722"><ele>94.0</ele><time>2026-04-25T14:28:37.998Z</time></trkpt><trkpt lat="45.92137324465079" lon="12.264489122495181"><ele>94.0</ele><time>2026-04-25T14:28:39.998Z</time></trkpt><trkpt lat="45.92148427478525" lon="12.264425833797873"><ele>94.0</ele><time>2026-04-25T14:28:41.998Z</time></trkpt><trkpt lat="45.921592104278766" lon="12.26436662917485"><ele>94.0</ele><time>2026-04-25T14:28:43.998Z</time></trkpt><trkpt lat="45.92170346724663" lon="12.264287547545482"><ele>94.0</ele><time>2026-04-25T14:28:45.998Z</time></trkpt><trkpt lat="45.921823525102816" lon="12.2642595224365"><ele>94.0</ele><time>2026-04-25T14:28:47.998Z</time></trkpt><trkpt lat="45.92194342411" lon="12.264211652825907"><ele>94.0</ele><time>2026-04-25T14:28:49.998Z</time></trkpt><trkpt lat="45.922059532106616" lon="12.264166045183673"><ele>93.75</ele><time>2026-04-25T14:28:51.998Z</time></trkpt><trkpt lat="45.92217524241529" lon="12.264121710606446"><ele>93.5</ele><time>2026-04-25T14:28:53.998Z</time></trkpt><trkpt lat="45.92229026965744" lon="12.26407999824925"><ele>93.25</ele><time>2026-04-25T14:28:55.998Z</time></trkpt><trkpt lat="45.922401458097966" lon="12.264041517513546"><ele>93.0</ele><time>2026-04-25T14:28:57.998Z</time></trkpt><trkpt lat="45.922512913903326" lon="12.26400049919812"><ele>93.2</ele><time>2026-04-25T14:28:59.998Z</time></trkpt><trkpt lat="45.92261160424284" lon="12.263956017303252"><ele>93.4</ele><time>2026-04-25T14:29:01.998Z</time></trkpt><trkpt lat="45.92270915949638" lon="12.263903254726616"><ele>93.60000000000001</ele><time>2026-04-25T14:29:03.998Z</time></trkpt><trkpt lat="45.92279479775371" lon="12.263854932929796"><ele>93.80000000000001</ele><time>2026-04-25T14:29:05.998Z</time></trkpt><trkpt lat="45.922888860775394" lon="12.263826756253252"><ele>94.0</ele><time>2026-04-25T14:29:07.998Z</time></trkpt><trkpt lat="45.92297533606306" lon="12.26376406180302"><ele>94.0</ele><time>2026-04-25T14:29:10Z</time></trkpt><trkpt lat="45.923069806648215" lon="12.263736745047987"><ele>94.0</ele><time>2026-04-25T14:29:12Z</time></trkpt><trkpt lat="45.923165037624955" lon="12.263673972205028"><ele>94.0</ele><time>2026-04-25T14:29:14Z</time></trkpt><trkpt lat="45.92325717442108" lon="12.263628939647463"><ele>94.0</ele><time>2026-04-25T14:29:16Z</time></trkpt><trkpt lat="45.923351944541444" lon="12.26358449955998"><ele>94.0</ele><time>2026-04-25T14:29:18Z</time></trkpt><trkpt lat="45.9234461924292" lon="12.263535100316338"><ele>94.6</ele><time>2026-04-25T14:29:20Z</time></trkpt><trkpt lat="45.92354465828768" lon="12.263485705887753"><ele>95.2</ele><time>2026-04-25T14:29:22Z</time></trkpt><trkpt lat="45.923655896521" lon="12.263459530731636"><ele>95.8</ele><time>2026-04-25T14:29:24Z</time></trkpt><trkpt lat="45.92376276947129" lon="12.2633903568345"><ele>96.39999999999999</ele><time>2026-04-25T14:29:26Z</time></trkpt><trkpt lat="45.9238741183509" lon="12.26336647807292"><ele>97.0</ele><time>2026-04-25T14:29:28Z</time></trkpt><trkpt lat="45.92398654863906" lon="12.263318985113154"><ele>97.0</ele><time>2026-04-25T14:29:30Z</time></trkpt><trkpt lat="45.92409800532452" lon="12.263269662408003"><ele>97.0</ele><time>2026-04-25T14:29:32Z</time></trkpt><trkpt lat="45.92421047972246" lon="12.263217957508028"><ele>97.0</ele><time>2026-04-25T14:29:34Z</time></trkpt><trkpt lat="45.92431801198078" lon="12.26316852450061"><ele>97.0</ele><time>2026-04-25T14:29:36Z</time></trkpt><trkpt lat="45.924426140862565" lon="12.263099051486517"><ele>97.39999999999999</ele><time>2026-04-25T14:29:38Z</time></trkpt><trkpt lat="45.92448920092777" lon="12.263090159597622"><ele>97.8</ele><time>2026-04-25T14:29:39Z</time></trkpt><trkpt lat="45.92460438165409" lon="12.263037652596486"><ele>98.2</ele><time>2026-04-25T14:29:41Z</time></trkpt><trkpt lat="45.92465762476987" lon="12.262988544907776"><ele>98.6</ele><time>2026-04-25T14:29:42Z</time></trkpt><trkpt lat="45.924770994227764" lon="12.262961607571471"><ele>99.0</ele><time>2026-04-25T14:29:44Z</time></trkpt><trkpt lat="45.924884910145806" lon="12.262906408664099"><ele>99.0</ele><time>2026-04-25T14:29:46Z</time></trkpt><trkpt lat="45.92498339303288" lon="12.26283903041774"><ele>99.0</ele><time>2026-04-25T14:29:48Z</time></trkpt><trkpt lat="45.92509904484655" lon="12.262778715489107"><ele>99.0</ele><time>2026-04-25T14:29:50Z</time></trkpt><trkpt lat="45.92520565901094" lon="12.262733600219791"><ele>99.0</ele><time>2026-04-25T14:29:52Z</time></trkpt><trkpt lat="45.9253141638315" lon="12.262676947177704"><ele>99.0</ele><time>2026-04-25T14:29:54Z</time></trkpt><trkpt lat="45.92542034510757" lon="12.262639501012897"><ele>99.0</ele><time>2026-04-25T14:29:56Z</time></trkpt><trkpt lat="45.92551603393713" lon="12.262558425821075"><ele>99.0</ele><time>2026-04-25T14:29:57.999Z</time></trkpt><trkpt lat="45.925622159105" lon="12.26250916717832"><ele>99.0</ele><time>2026-04-25T14:29:59.999Z</time></trkpt><trkpt lat="45.92567086608548" lon="12.262451621463669"><ele>99.0</ele><time>2026-04-25T14:30:00.999Z</time></trkpt><trkpt lat="45.92576866889769" lon="12.262381834871707"><ele>99.0</ele><time>2026-04-25T14:30:02.999Z</time></trkpt><trkpt lat="45.925867557136655" lon="12.262309833486118"><ele>99.0</ele><time>2026-04-25T14:30:04.999Z</time></trkpt><trkpt lat="45.92596902272185" lon="12.262234262339115"><ele>99.0</ele><time>2026-04-25T14:30:06.999Z</time></trkpt><trkpt lat="45.926064881588424" lon="12.262176678296582"><ele>99.0</ele><time>2026-04-25T14:30:08.999Z</time></trkpt><trkpt lat="45.92616160695266" lon="12.262116516183765"><ele>99.0</ele><time>2026-04-25T14:30:10.999Z</time></trkpt><trkpt lat="45.92625145031678" lon="12.26204318137731"><ele>98.80000000000001</ele><time>2026-04-25T14:30:12.999Z</time></trkpt><trkpt lat="45.92636389913848" lon="12.262003257118964"><ele>98.60000000000001</ele><time>2026-04-25T14:30:14.999Z</time></trkpt><trkpt lat="45.92640422283761" lon="12.261926685713412"><ele>98.4</ele><time>2026-04-25T14:30:15.999Z</time></trkpt><trkpt lat="45.92648607075757" lon="12.261824552327546"><ele>98.2</ele><time>2026-04-25T14:30:17.999Z</time></trkpt><trkpt lat="45.92657000052601" lon="12.261702559533186"><ele>98.0</ele><time>2026-04-25T14:30:19.999Z</time></trkpt><trkpt lat="45.92663260779486" lon="12.261591890683727"><ele>98.0</ele><time>2026-04-25T14:30:21.999Z</time></trkpt><trkpt lat="45.92671402927598" lon="12.26151484404485"><ele>98.0</ele><time>2026-04-25T14:30:23.999Z</time></trkpt><trkpt lat="45.926796772866034" lon="12.261499239804044"><ele>98.0</ele><time>2026-04-25T14:30:25.999Z</time></trkpt><trkpt lat="45.92675629473697" lon="12.2612935553384"><ele>98.0</ele><time>2026-04-25T14:30:31.999Z</time></trkpt><trkpt lat="45.926788887040864" lon="12.261212917928212"><ele>98.0</ele><time>2026-04-25T14:30:34.999Z</time></trkpt><trkpt lat="45.92683982289465" lon="12.261158472515646"><ele>98.66666666666666</ele><time>2026-04-25T14:30:36.999Z</time></trkpt><trkpt lat="45.92690564506227" lon="12.26110001587006"><ele>99.33333333333333</ele><time>2026-04-25T14:30:38.999Z</time></trkpt><trkpt lat="45.926952442407206" lon="12.261020579488862"><ele>100.0</ele><time>2026-04-25T14:30:40.999Z</time></trkpt><trkpt lat="45.92699631503747" lon="12.260944821834645"><ele>100.66666666666666</ele><time>2026-04-25T14:30:42.999Z</time></trkpt><trkpt lat="45.927040943384334" lon="12.260827201411235"><ele>101.33333333333333</ele><time>2026-04-25T14:30:45.998Z</time></trkpt><trkpt lat="45.92709007122183" lon="12.260714515914"><ele>102.0</ele><time>2026-04-25T14:30:48.998Z</time></trkpt><trkpt lat="45.92714118790836" lon="12.26064870296037"><ele>101.85714285714286</ele><time>2026-04-25T14:30:50.998Z</time></trkpt><trkpt lat="45.92718672126872" lon="12.260543632282493"><ele>101.71428571428572</ele><time>2026-04-25T14:30:53.998Z</time></trkpt><trkpt lat="45.92725620281238" lon="12.260526963386166"><ele>101.57142857142857</ele><time>2026-04-25T14:30:57.998Z</time></trkpt><trkpt lat="45.927317868034756" lon="12.260499650831887"><ele>101.42857142857143</ele><time>2026-04-25T14:30:59.998Z</time></trkpt><trkpt lat="45.92737394391074" lon="12.260407545993527"><ele>101.28571428571428</ele><time>2026-04-25T14:31:02.998Z</time></trkpt><trkpt lat="45.927436865568986" lon="12.260376794642463"><ele>101.14285714285714</ele><time>2026-04-25T14:31:04.998Z</time></trkpt><trkpt lat="45.92749017656421" lon="12.2603063758047"><ele>101.0</ele><time>2026-04-25T14:31:06.998Z</time></trkpt><trkpt lat="45.92752075066101" lon="12.260214492018827"><ele>101.28571428571428</ele><time>2026-04-25T14:31:08.998Z</time></trkpt><trkpt lat="45.92756557670299" lon="12.260111958159976"><ele>101.57142857142857</ele><time>2026-04-25T14:31:11.998Z</time></trkpt><trkpt lat="45.927599238503184" lon="12.260022877226945"><ele>101.85714285714286</ele><time>2026-04-25T14:31:13.998Z</time></trkpt><trkpt lat="45.92762809279856" lon="12.259940732417663"><ele>102.14285714285714</ele><time>2026-04-25T14:31:16.001Z</time></trkpt><trkpt lat="45.92769626941873" lon="12.259853163289131"><ele>102.42857142857143</ele><time>2026-04-25T14:31:19.001Z</time></trkpt><trkpt lat="45.927731316090544" lon="12.259763104228167"><ele>102.71428571428571</ele><time>2026-04-25T14:31:21.001Z</time></trkpt><trkpt lat="45.9277697551917" lon="12.259690063504767"><ele>103.0</ele><time>2026-04-25T14:31:23Z</time></trkpt><trkpt lat="45.927798085443946" lon="12.259592906839048"><ele>103.00000000000001</ele><time>2026-04-25T14:31:25.001Z</time></trkpt><trkpt lat="45.927837934113" lon="12.259515468133026"><ele>103.0</ele><time>2026-04-25T14:31:27.001Z</time></trkpt><trkpt lat="45.92789095230133" lon="12.259425208342698"><ele>103.0</ele><time>2026-04-25T14:31:30Z</time></trkpt><trkpt lat="45.92792867023412" lon="12.259331273931997"><ele>103.0</ele><time>2026-04-25T14:31:32Z</time></trkpt><trkpt lat="45.92794326691636" lon="12.259234666768242"><ele>103.00000000000001</ele><time>2026-04-25T14:31:34Z</time></trkpt><trkpt lat="45.92793876085999" lon="12.259097707646609"><ele>103.0</ele><time>2026-04-25T14:31:37Z</time></trkpt><trkpt lat="45.92794177510595" lon="12.25898090598147"><ele>102.66666666666667</ele><time>2026-04-25T14:31:40Z</time></trkpt><trkpt lat="45.9279976020212" lon="12.258894113595195"><ele>102.33333333333334</ele><time>2026-04-25T14:31:42Z</time></trkpt><trkpt lat="45.928016592687705" lon="12.258790485682807"><ele>102.0</ele><time>2026-04-25T14:31:44Z</time></trkpt><trkpt lat="45.928009472975305" lon="12.25867154829279"><ele>101.66666666666666</ele><time>2026-04-25T14:31:47Z</time></trkpt><trkpt lat="45.928055891501344" lon="12.258606009332878"><ele>101.33333333333333</ele><time>2026-04-25T14:31:50Z</time></trkpt><trkpt lat="45.92804957692019" lon="12.258511770126848"><ele>101.0</ele><time>2026-04-25T14:31:53Z</time></trkpt><trkpt lat="45.92808544631254" lon="12.258401756557246"><ele>100.99999999999999</ele><time>2026-04-25T14:31:56Z</time></trkpt><trkpt lat="45.928097261096106" lon="12.258300176340494"><ele>101.0</ele><time>2026-04-25T14:31:59Z</time></trkpt><trkpt lat="45.9281150822443" lon="12.258209634201366"><ele>101.0</ele><time>2026-04-25T14:32:01Z</time></trkpt><trkpt lat="45.928115995899944" lon="12.258091241252119"><ele>101.0</ele><time>2026-04-25T14:32:04Z</time></trkpt><trkpt lat="45.9281318399685" lon="12.257975027320471"><ele>100.99999999999999</ele><time>2026-04-25T14:32:06.999Z</time></trkpt><trkpt lat="45.92813853203328" lon="12.257875732655888"><ele>101.0</ele><time>2026-04-25T14:32:09.998Z</time></trkpt><trkpt lat="45.928147947024506" lon="12.257743337115595"><ele>101.16666666666666</ele><time>2026-04-25T14:32:12.998Z</time></trkpt><trkpt lat="45.92816561217955" lon="12.25765180494391"><ele>101.33333333333333</ele><time>2026-04-25T14:32:15.998Z</time></trkpt><trkpt lat="45.92817057202756" lon="12.257518015906905"><ele>101.5</ele><time>2026-04-25T14:32:18.998Z</time></trkpt><trkpt lat="45.928202061635595" lon="12.257414985791975"><ele>101.66666666666666</ele><time>2026-04-25T14:32:20.998Z</time></trkpt><trkpt lat="45.92824574753836" lon="12.25729259977801"><ele>101.83333333333333</ele><time>2026-04-25T14:32:23.998Z</time></trkpt><trkpt lat="45.92826568534093" lon="12.257186783150107"><ele>102.0</ele><time>2026-04-25T14:32:25.998Z</time></trkpt><trkpt lat="45.928312470135715" lon="12.25711508992866"><ele>102.16666666666667</ele><time>2026-04-25T14:32:27.998Z</time></trkpt><trkpt lat="45.92836805966496" lon="12.257070173540509"><ele>102.33333333333334</ele><time>2026-04-25T14:32:29.998Z</time></trkpt><trkpt lat="45.9284311340476" lon="12.257015715502021"><ele>102.5</ele><time>2026-04-25T14:32:33.998Z</time></trkpt><trkpt lat="45.92850463853091" lon="12.256974805276455"><ele>102.66666666666667</ele><time>2026-04-25T14:32:44.998Z</time></trkpt><trkpt lat="45.92858376095744" lon="12.256910097428174"><ele>102.83333333333334</ele><time>2026-04-25T14:32:47.998Z</time></trkpt><trkpt lat="45.92864068034043" lon="12.256839667643186"><ele>103.0</ele><time>2026-04-25T14:32:49.997Z</time></trkpt><trkpt lat="45.928698955324464" lon="12.256770889447923"><ele>103.00000000000001</ele><time>2026-04-25T14:32:51.997Z</time></trkpt><trkpt lat="45.9287656645168" lon="12.25670074276873"><ele>103.0</ele><time>2026-04-25T14:32:53.997Z</time></trkpt><trkpt lat="45.92883200585318" lon="12.256617668800596"><ele>103.0</ele><time>2026-04-25T14:32:55.997Z</time></trkpt><trkpt lat="45.9288967638433" lon="12.256527808619095"><ele>103.0</ele><time>2026-04-25T14:32:57.997Z</time></trkpt><trkpt lat="45.9289583670093" lon="12.256435202922706"><ele>103.00000000000001</ele><time>2026-04-25T14:32:59.997Z</time></trkpt><trkpt lat="45.92901394890174" lon="12.25634761027189"><ele>103.0</ele><time>2026-04-25T14:33:01.997Z</time></trkpt><trkpt lat="45.92908230750227" lon="12.256259517963338"><ele>103.0</ele><time>2026-04-25T14:33:03.997Z</time></trkpt><trkpt lat="45.92915694026931" lon="12.256176454994483"><ele>103.0</ele><time>2026-04-25T14:33:05.997Z</time></trkpt><trkpt lat="45.92923762217956" lon="12.256090537175872"><ele>103.0</ele><time>2026-04-25T14:33:07.997Z</time></trkpt><trkpt lat="45.92932598962757" lon="12.256006974285821"><ele>103.0</ele><time>2026-04-25T14:33:09.997Z</time></trkpt><trkpt lat="45.92941456440719" lon="12.255919088745726"><ele>103.0</ele><time>2026-04-25T14:33:11.997Z</time></trkpt><trkpt lat="45.92950367966016" lon="12.255823670854474"><ele>103.0</ele><time>2026-04-25T14:33:13.997Z</time></trkpt><trkpt lat="45.92959729657187" lon="12.255731283254363"><ele>103.0</ele><time>2026-04-25T14:33:15.997Z</time></trkpt><trkpt lat="45.929691001899435" lon="12.255639483974951"><ele>103.0</ele><time>2026-04-25T14:33:17.997Z</time></trkpt><trkpt lat="45.92979969364633" lon="12.255577972516399"><ele>103.0</ele><time>2026-04-25T14:33:19.997Z</time></trkpt><trkpt lat="45.92989337711231" lon="12.255484320504937"><ele>103.2</ele><time>2026-04-25T14:33:22Z</time></trkpt><trkpt lat="45.92998769274097" lon="12.255390036711306"><ele>103.4</ele><time>2026-04-25T14:33:24Z</time></trkpt><trkpt lat="45.930078665695795" lon="12.255299094666455"><ele>103.60000000000001</ele><time>2026-04-25T14:33:26Z</time></trkpt><trkpt lat="45.93016111327747" lon="12.255216674582341"><ele>103.80000000000001</ele><time>2026-04-25T14:33:28Z</time></trkpt><trkpt lat="45.93023830373015" lon="12.255139510292837"><ele>104.0</ele><time>2026-04-25T14:33:30Z</time></trkpt><trkpt lat="45.93030882617915" lon="12.255069011503913"><ele>104.16666666666666</ele><time>2026-04-25T14:33:32Z</time></trkpt><trkpt lat="45.930372195367646" lon="12.255005663651579"><ele>104.33333333333333</ele><time>2026-04-25T14:33:34Z</time></trkpt><trkpt lat="45.93042849761573" lon="12.254949380435189"><ele>104.5</ele><time>2026-04-25T14:33:36Z</time></trkpt><trkpt lat="45.93049174538891" lon="12.254886323915292"><ele>104.66666666666666</ele><time>2026-04-25T14:33:40Z</time></trkpt><trkpt lat="45.9305484804108" lon="12.254829816189636"><ele>104.83333333333333</ele><time>2026-04-25T14:33:44.999Z</time></trkpt><trkpt lat="45.93062336510665" lon="12.254755231194439"><ele>105.0</ele><time>2026-04-25T14:33:47.999Z</time></trkpt><trkpt lat="45.93069836894012" lon="12.254680527694477"><ele>105.2</ele><time>2026-04-25T14:33:50.999Z</time></trkpt><trkpt lat="45.93075918841536" lon="12.254619951570433"><ele>105.4</ele><time>2026-04-25T14:33:52.999Z</time></trkpt><trkpt lat="45.93082532723368" lon="12.25455407742996"><ele>105.6</ele><time>2026-04-25T14:33:54.999Z</time></trkpt><trkpt lat="45.930901170932465" lon="12.25447853885339"><ele>105.8</ele><time>2026-04-25T14:33:56.999Z</time></trkpt><trkpt lat="45.93098405121528" lon="12.254399512742259"><ele>106.0</ele><time>2026-04-25T14:33:58.999Z</time></trkpt><trkpt lat="45.931077916973315" lon="12.254317459625032"><ele>106.00000000000001</ele><time>2026-04-25T14:34:00.999Z</time></trkpt><trkpt lat="45.93117308552307" lon="12.25424785215826"><ele>106.0</ele><time>2026-04-25T14:34:02.999Z</time></trkpt><trkpt lat="45.9312615123702" lon="12.254207359493272"><ele>106.0</ele><time>2026-04-25T14:34:04.999Z</time></trkpt><trkpt lat="45.93132221530438" lon="12.254181145773508"><ele>106.0</ele><time>2026-04-25T14:34:05.999Z</time></trkpt><trkpt lat="45.93141647092202" lon="12.254128749112514"><ele>106.00000000000001</ele><time>2026-04-25T14:34:07.999Z</time></trkpt><trkpt lat="45.93147308142227" lon="12.254084989921274"><ele>106.0</ele><time>2026-04-25T14:34:08.999Z</time></trkpt><trkpt lat="45.93156285387496" lon="12.254018991479127"><ele>106.0</ele><time>2026-04-25T14:34:10.999Z</time></trkpt><trkpt lat="45.931637043005146" lon="12.253928722148096"><ele>106.0</ele><time>2026-04-25T14:34:12.999Z</time></trkpt><trkpt lat="45.93170523104326" lon="12.253824858591905"><ele>106.0</ele><time>2026-04-25T14:34:14.999Z</time></trkpt><trkpt lat="45.931806265908584" lon="12.253781043381814"><ele>106.0</ele><time>2026-04-25T14:34:16.999Z</time></trkpt><trkpt lat="45.931909117696115" lon="12.25373719904759"><ele>106.0</ele><time>2026-04-25T14:34:18.999Z</time></trkpt><trkpt lat="45.93201814664058" lon="12.253692714293646"><ele>106.0</ele><time>2026-04-25T14:34:20.999Z</time></trkpt><trkpt lat="45.93212685298929" lon="12.253651639023316"><ele>106.0</ele><time>2026-04-25T14:34:22.999Z</time></trkpt><trkpt lat="45.932234532343465" lon="12.25361249470782"><ele>106.0</ele><time>2026-04-25T14:34:24.999Z</time></trkpt><trkpt lat="45.932338188790766" lon="12.253571382776801"><ele>106.0</ele><time>2026-04-25T14:34:26.999Z</time></trkpt><trkpt lat="45.932460487590085" lon="12.253596088524242"><ele>106.6</ele><time>2026-04-25T14:34:28.999Z</time></trkpt><trkpt lat="45.93257045361985" lon="12.253551515622306"><ele>107.19999999999999</ele><time>2026-04-25T14:34:30.998Z</time></trkpt><trkpt lat="45.93266199294729" lon="12.253514411639797"><ele>107.80000000000001</ele><time>2026-04-25T14:34:32.998Z</time></trkpt><trkpt lat="45.93275784793351" lon="12.253475558454133"><ele>108.4</ele><time>2026-04-25T14:34:34.998Z</time></trkpt><trkpt lat="45.93285148608045" lon="12.253437603786647"><ele>109.0</ele><time>2026-04-25T14:34:36.998Z</time></trkpt><trkpt lat="45.93293890579774" lon="12.253359580321057"><ele>109.00000000000001</ele><time>2026-04-25T14:34:38.998Z</time></trkpt><trkpt lat="45.933030980674516" lon="12.253321805389449"><ele>109.0</ele><time>2026-04-25T14:34:40.998Z</time></trkpt><trkpt lat="45.933123685851676" lon="12.253330708096547"><ele>109.0</ele><time>2026-04-25T14:34:42.998Z</time></trkpt><trkpt lat="45.93320626517548" lon="12.253298816152846"><ele>109.0</ele><time>2026-04-25T14:34:44.998Z</time></trkpt><trkpt lat="45.933274573074534" lon="12.25327264548095"><ele>109.00000000000001</ele><time>2026-04-25T14:34:46.998Z</time></trkpt><trkpt lat="45.93335758498487" lon="12.253240841254122"><ele>109.0</ele><time>2026-04-25T14:34:49.998Z</time></trkpt><trkpt lat="45.933439425913264" lon="12.25320897592831"><ele>109.16666666666667</ele><time>2026-04-25T14:34:52.998Z</time></trkpt><trkpt lat="45.933527053484205" lon="12.253172996846374"><ele>109.33333333333334</ele><time>2026-04-25T14:34:55.998Z</time></trkpt><trkpt lat="45.93359036658971" lon="12.25314377047061"><ele>109.5</ele><time>2026-04-25T14:34:57.998Z</time></trkpt><trkpt lat="45.933662471030225" lon="12.253109487434223"><ele>109.66666666666666</ele><time>2026-04-25T14:34:59.998Z</time></trkpt><trkpt lat="45.933735465020646" lon="12.253072095385315"><ele>109.83333333333333</ele><time>2026-04-25T14:35:01.998Z</time></trkpt><trkpt lat="45.93381088683152" lon="12.253031887620393"><ele>110.0</ele><time>2026-04-25T14:35:03.998Z</time></trkpt><trkpt lat="45.933885162729354" lon="12.25298338352524"><ele>109.99999999999999</ele><time>2026-04-25T14:35:05.998Z</time></trkpt><trkpt lat="45.93396014901168" lon="12.252927773048176"><ele>110.0</ele><time>2026-04-25T14:35:07.998Z</time></trkpt><trkpt lat="45.93403297645767" lon="12.252866572656217"><ele>110.0</ele><time>2026-04-25T14:35:09.998Z</time></trkpt><trkpt lat="45.934105007208196" lon="12.252809618962498"><ele>110.0</ele><time>2026-04-25T14:35:11.998Z</time></trkpt><trkpt lat="45.93418426008632" lon="12.252769807334213"><ele>109.99999999999999</ele><time>2026-04-25T14:35:13.998Z</time></trkpt><trkpt lat="45.934264371242016" lon="12.252769666921264"><ele>110.0</ele><time>2026-04-25T14:35:15.997Z</time></trkpt><trkpt lat="45.934346450803" lon="12.252778148650817"><ele>109.99999999999999</ele><time>2026-04-25T14:35:17.997Z</time></trkpt><trkpt lat="45.93443594375107" lon="12.25278605665747"><ele>110.0</ele><time>2026-04-25T14:35:19.997Z</time></trkpt><trkpt lat="45.93452609762138" lon="12.252786333353235"><ele>110.0</ele><time>2026-04-25T14:35:21.997Z</time></trkpt><trkpt lat="45.93461034477872" lon="12.252759106844476"><ele>110.0</ele><time>2026-04-25T14:35:23.997Z</time></trkpt><trkpt lat="45.93467994908344" lon="12.252660172757231"><ele>109.99999999999999</ele><time>2026-04-25T14:35:26Z</time></trkpt><trkpt lat="45.93475202688459" lon="12.25261856089932"><ele>110.0</ele><time>2026-04-25T14:35:28Z</time></trkpt><trkpt lat="45.934818696963255" lon="12.252561051157238"><ele>109.99999999999999</ele><time>2026-04-25T14:35:30Z</time></trkpt><trkpt lat="45.93488758881225" lon="12.25251254616791"><ele>110.0</ele><time>2026-04-25T14:35:32Z</time></trkpt><trkpt lat="45.934967409789635" lon="12.252488867431445"><ele>110.0</ele><time>2026-04-25T14:35:34Z</time></trkpt><trkpt lat="45.935049660046545" lon="12.25253156582076"><ele>110.0</ele><time>2026-04-25T14:35:36Z</time></trkpt><trkpt lat="45.93515098488204" lon="12.252534652302504"><ele>109.99999999999999</ele><time>2026-04-25T14:35:38Z</time></trkpt><trkpt lat="45.93523361042831" lon="12.2524597249979"><ele>110.0</ele><time>2026-04-25T14:35:40Z</time></trkpt><trkpt lat="45.9353077086271" lon="12.252419288307761"><ele>110.49999999999999</ele><time>2026-04-25T14:35:42Z</time></trkpt><trkpt lat="45.935374528057935" lon="12.252400497963135"><ele>111.0</ele><time>2026-04-25T14:35:44Z</time></trkpt><trkpt lat="45.93537822111896" lon="12.252240930514287"><ele>111.5</ele><time>2026-04-25T14:35:47Z</time></trkpt><trkpt lat="45.93533323246448" lon="12.252140795505344"><ele>112.0</ele><time>2026-04-25T14:35:49Z</time></trkpt><trkpt lat="45.93528537822079" lon="12.252037650017362"><ele>112.49999999999999</ele><time>2026-04-25T14:35:51Z</time></trkpt><trkpt lat="45.93523317959422" lon="12.25192977603015"><ele>113.0</ele><time>2026-04-25T14:35:53Z</time></trkpt><trkpt lat="45.93518126402953" lon="12.251822127951819"><ele>113.0</ele><time>2026-04-25T14:35:55Z</time></trkpt><trkpt lat="45.93513069033144" lon="12.251702098780031"><ele>113.00000000000001</ele><time>2026-04-25T14:35:57Z</time></trkpt><trkpt lat="45.935078507384155" lon="12.251557910331366"><ele>113.00000000000001</ele><time>2026-04-25T14:35:59Z</time></trkpt><trkpt lat="45.9350679318648" lon="12.251391823154108"><ele>113.0</ele><time>2026-04-25T14:36:00.999Z</time></trkpt><trkpt lat="45.935109101076094" lon="12.251236833292065"><ele>113.0</ele><time>2026-04-25T14:36:02.999Z</time></trkpt><trkpt lat="45.935154110173194" lon="12.251084743981863"><ele>113.2</ele><time>2026-04-25T14:36:04.999Z</time></trkpt><trkpt lat="45.93520042542548" lon="12.250936930435387"><ele>113.4</ele><time>2026-04-25T14:36:06.999Z</time></trkpt><trkpt lat="45.93526023483442" lon="12.250796400855778"><ele>113.60000000000001</ele><time>2026-04-25T14:36:08.999Z</time></trkpt><trkpt lat="45.935301557579606" lon="12.250655737749227"><ele>113.80000000000001</ele><time>2026-04-25T14:36:10.999Z</time></trkpt><trkpt lat="45.93533887312718" lon="12.250516546241391"><ele>114.0</ele><time>2026-04-25T14:36:12.999Z</time></trkpt><trkpt lat="45.93537359860313" lon="12.250382444336488"><ele>114.0</ele><time>2026-04-25T14:36:14.999Z</time></trkpt><trkpt lat="45.935404964467324" lon="12.250243717031191"><ele>114.0</ele><time>2026-04-25T14:36:16.999Z</time></trkpt><trkpt lat="45.935433812939415" lon="12.250114755750719"><ele>114.0</ele><time>2026-04-25T14:36:18.999Z</time></trkpt><trkpt lat="45.935466073420194" lon="12.249984388445524"><ele>114.0</ele><time>2026-04-25T14:36:20.999Z</time></trkpt><trkpt lat="45.935501676964066" lon="12.249858139284681"><ele>114.0</ele><time>2026-04-25T14:36:22.999Z</time></trkpt><trkpt lat="45.93554776580858" lon="12.249732902517655"><ele>114.0</ele><time>2026-04-25T14:36:24.999Z</time></trkpt><trkpt lat="45.93560482045382" lon="12.249615171625564"><ele>114.0</ele><time>2026-04-25T14:36:26.999Z</time></trkpt><trkpt lat="45.935661042110205" lon="12.24950669807157"><ele>114.0</ele><time>2026-04-25T14:36:28.999Z</time></trkpt><trkpt lat="45.93571591734982" lon="12.249424095796837"><ele>114.0</ele><time>2026-04-25T14:36:30.999Z</time></trkpt><trkpt lat="45.93576545422479" lon="12.249351119917817"><ele>114.0</ele><time>2026-04-25T14:36:32.999Z</time></trkpt><trkpt lat="45.935809522459074" lon="12.249283036577078"><ele>114.0</ele><time>2026-04-25T14:36:34.999Z</time></trkpt><trkpt lat="45.93585481233992" lon="12.249213065852064"><ele>113.83333333333333</ele><time>2026-04-25T14:36:36.999Z</time></trkpt><trkpt lat="45.93590303517107" lon="12.249145548285748"><ele>113.66666666666666</ele><time>2026-04-25T14:36:38.999Z</time></trkpt><trkpt lat="45.93595647453081" lon="12.249080827937156"><ele>113.5</ele><time>2026-04-25T14:36:40.999Z</time></trkpt><trkpt lat="45.93599780573445" lon="12.248976680385502"><ele>113.33333333333333</ele><time>2026-04-25T14:36:42.999Z</time></trkpt><trkpt lat="45.93606095406834" lon="12.248893753666906"><ele>113.16666666666666</ele><time>2026-04-25T14:36:44.998Z</time></trkpt><trkpt lat="45.93613080921979" lon="12.248819328146086"><ele>113.0</ele><time>2026-04-25T14:36:46.998Z</time></trkpt><trkpt lat="45.93619736754956" lon="12.248731650659101"><ele>113.60000000000001</ele><time>2026-04-25T14:36:48.998Z</time></trkpt><trkpt lat="45.93626614853092" lon="12.248638067175323"><ele>114.20000000000002</ele><time>2026-04-25T14:36:50.998Z</time></trkpt><trkpt lat="45.936341843202534" lon="12.248549907678514"><ele>114.8</ele><time>2026-04-25T14:36:52.998Z</time></trkpt><trkpt lat="45.93641456454364" lon="12.248451133060994"><ele>115.4</ele><time>2026-04-25T14:36:54.998Z</time></trkpt><trkpt lat="45.936490793525664" lon="12.248355663309088"><ele>116.0</ele><time>2026-04-25T14:36:56.998Z</time></trkpt><trkpt lat="45.93659106505345" lon="12.248287025953921"><ele>116.0</ele><time>2026-04-25T14:36:58.998Z</time></trkpt><trkpt lat="45.93667105072739" lon="12.248185060555913"><ele>116.0</ele><time>2026-04-25T14:37:00.998Z</time></trkpt><trkpt lat="45.93675312966696" lon="12.248083096712131"><ele>116.0</ele><time>2026-04-25T14:37:02.998Z</time></trkpt><trkpt lat="45.93683698276396" lon="12.247978501194916"><ele>116.0</ele><time>2026-04-25T14:37:04.998Z</time></trkpt><trkpt lat="45.93691802033976" lon="12.247877417672667"><ele>116.0</ele><time>2026-04-25T14:37:06.998Z</time></trkpt><trkpt lat="45.93699555980149" lon="12.247780697590661"><ele>116.6</ele><time>2026-04-25T14:37:08.998Z</time></trkpt><trkpt lat="45.937069809664536" lon="12.247688080831836"><ele>117.19999999999999</ele><time>2026-04-25T14:37:10.998Z</time></trkpt><trkpt lat="45.93714362180399" lon="12.247595833761144"><ele>117.80000000000001</ele><time>2026-04-25T14:37:12.998Z</time></trkpt><trkpt lat="45.93721819280808" lon="12.247501864621924"><ele>118.4</ele><time>2026-04-25T14:37:14.998Z</time></trkpt><trkpt lat="45.93729634945693" lon="12.247402433368022"><ele>119.0</ele><time>2026-04-25T14:37:16.998Z</time></trkpt><trkpt lat="45.93737116041185" lon="12.247307258520442"><ele>119.2</ele><time>2026-04-25T14:37:18.998Z</time></trkpt><trkpt lat="45.93745054599005" lon="12.247206263810584"><ele>119.4</ele><time>2026-04-25T14:37:20.998Z</time></trkpt><trkpt lat="45.93752517956981" lon="12.247091840120422"><ele>119.6</ele><time>2026-04-25T14:37:22.998Z</time></trkpt><trkpt lat="45.93760293181805" lon="12.246987603954853"><ele>119.8</ele><time>2026-04-25T14:37:24.998Z</time></trkpt><trkpt lat="45.93768975467639" lon="12.246887334824855"><ele>120.0</ele><time>2026-04-25T14:37:26.998Z</time></trkpt><trkpt lat="45.937775178457315" lon="12.246780142644058"><ele>120.0</ele><time>2026-04-25T14:37:28.997Z</time></trkpt><trkpt lat="45.937857002122854" lon="12.246668310371243"><ele>120.0</ele><time>2026-04-25T14:37:30.997Z</time></trkpt><trkpt lat="45.937940748929414" lon="12.246563355707604"><ele>120.0</ele><time>2026-04-25T14:37:33Z</time></trkpt><trkpt lat="45.938025421927925" lon="12.246459650707692"><ele>120.0</ele><time>2026-04-25T14:37:35Z</time></trkpt><trkpt lat="45.9381136104725" lon="12.246360920922433"><ele>120.0</ele><time>2026-04-25T14:37:37Z</time></trkpt><trkpt lat="45.938217587097824" lon="12.24628904167005"><ele>120.0</ele><time>2026-04-25T14:37:39Z</time></trkpt><trkpt lat="45.93830844163278" lon="12.246200993248076"><ele>120.0</ele><time>2026-04-25T14:37:41Z</time></trkpt><trkpt lat="45.93840225393624" lon="12.246108163865477"><ele>120.0</ele><time>2026-04-25T14:37:43Z</time></trkpt><trkpt lat="45.93849339495052" lon="12.246017203406584"><ele>120.0</ele><time>2026-04-25T14:37:45Z</time></trkpt><trkpt lat="45.938586210638405" lon="12.245924571590466"><ele>120.0</ele><time>2026-04-25T14:37:47Z</time></trkpt><trkpt lat="45.93866977736525" lon="12.245812731900706"><ele>120.0</ele><time>2026-04-25T14:37:49Z</time></trkpt><trkpt lat="45.938770278525915" lon="12.245740868348388"><ele>120.0</ele><time>2026-04-25T14:37:51Z</time></trkpt><trkpt lat="45.93886320714086" lon="12.245647366566446"><ele>120.0</ele><time>2026-04-25T14:37:53Z</time></trkpt><trkpt lat="45.938949371217106" lon="12.245542786853148"><ele>120.0</ele><time>2026-04-25T14:37:55Z</time></trkpt><trkpt lat="45.93903992581792" lon="12.245455100269908"><ele>120.0</ele><time>2026-04-25T14:37:57Z</time></trkpt><trkpt lat="45.939129280953814" lon="12.245366536305161"><ele>120.6</ele><time>2026-04-25T14:37:59Z</time></trkpt><trkpt lat="45.93921809774994" lon="12.245273400005237"><ele>121.2</ele><time>2026-04-25T14:38:01Z</time></trkpt><trkpt lat="45.93930877299478" lon="12.245179155354075"><ele>121.80000000000001</ele><time>2026-04-25T14:38:03Z</time></trkpt><trkpt lat="45.93940149700431" lon="12.245085045872571"><ele>122.4</ele><time>2026-04-25T14:38:05Z</time></trkpt><trkpt lat="45.9394908710181" lon="12.244990807199642"><ele>123.0</ele><time>2026-04-25T14:38:07Z</time></trkpt><trkpt lat="45.93958824160444" lon="12.244915978062814"><ele>123.0</ele><time>2026-04-25T14:38:09Z</time></trkpt><trkpt lat="45.93967599498583" lon="12.244826669762512"><ele>123.00000000000001</ele><time>2026-04-25T14:38:11Z</time></trkpt><trkpt lat="45.939762576070194" lon="12.244738554504659"><ele>123.00000000000001</ele><time>2026-04-25T14:38:13Z</time></trkpt><trkpt lat="45.93985072465288" lon="12.244648200622455"><ele>123.0</ele><time>2026-04-25T14:38:15Z</time></trkpt><trkpt lat="45.93993904971258" lon="12.244557482736353"><ele>123.0</ele><time>2026-04-25T14:38:17Z</time></trkpt><trkpt lat="45.94002799197224" lon="12.244467352676658"><ele>123.4</ele><time>2026-04-25T14:38:18.999Z</time></trkpt><trkpt lat="45.94011751593706" lon="12.244377246199106"><ele>123.80000000000001</ele><time>2026-04-25T14:38:20.999Z</time></trkpt><trkpt lat="45.94020896364013" lon="12.244287903151871"><ele>124.2</ele><time>2026-04-25T14:38:22.999Z</time></trkpt><trkpt lat="45.94030040579494" lon="12.244198567231884"><ele>124.6</ele><time>2026-04-25T14:38:24.999Z</time></trkpt><trkpt lat="45.9403913292921" lon="12.244109736308507"><ele>125.0</ele><time>2026-04-25T14:38:26.999Z</time></trkpt><trkpt lat="45.94048346977045" lon="12.24401971641205"><ele>124.8</ele><time>2026-04-25T14:38:28.999Z</time></trkpt><trkpt lat="45.94057546547353" lon="12.243930773283273"><ele>124.6</ele><time>2026-04-25T14:38:30.999Z</time></trkpt><trkpt lat="45.94066782859668" lon="12.243841693383978"><ele>124.4</ele><time>2026-04-25T14:38:32.999Z</time></trkpt><trkpt lat="45.940760783338234" lon="12.24375204290254"><ele>124.2</ele><time>2026-04-25T14:38:34.999Z</time></trkpt><trkpt lat="45.94085152895049" lon="12.243664523023538"><ele>124.0</ele><time>2026-04-25T14:38:36.999Z</time></trkpt><trkpt lat="45.94094131118542" lon="12.243581038179093"><ele>124.33333333333334</ele><time>2026-04-25T14:38:38.999Z</time></trkpt><trkpt lat="45.94103003654997" lon="12.243499010899242"><ele>124.66666666666667</ele><time>2026-04-25T14:38:40.999Z</time></trkpt><trkpt lat="45.94111112178695" lon="12.243424046973724"><ele>125.0</ele><time>2026-04-25T14:38:42.999Z</time></trkpt><trkpt lat="45.94118305197645" lon="12.243357046797891"><ele>125.33333333333334</ele><time>2026-04-25T14:38:44.999Z</time></trkpt><trkpt lat="45.94124574610925" lon="12.243298394785656"><ele>125.66666666666667</ele><time>2026-04-25T14:38:46.999Z</time></trkpt><trkpt lat="45.94130270755121" lon="12.243244206108953"><ele>126.0</ele><time>2026-04-25T14:38:48.999Z</time></trkpt><trkpt lat="45.94136733972371" lon="12.243179189219893"><ele>126.0</ele><time>2026-04-25T14:38:51.999Z</time></trkpt><trkpt lat="45.9414232053347" lon="12.243112258980185"><ele>126.0</ele><time>2026-04-25T14:39:09.998Z</time></trkpt><trkpt lat="45.94146982124176" lon="12.243029054633897"><ele>126.0</ele><time>2026-04-25T14:39:13.998Z</time></trkpt><trkpt lat="45.9413845278876" lon="12.242851760148769"><ele>126.0</ele><time>2026-04-25T14:39:14.998Z</time></trkpt><trkpt lat="45.941384497634246" lon="12.242727682099503"><ele>126.0</ele><time>2026-04-25T14:39:17.998Z</time></trkpt><trkpt lat="45.94138721035158" lon="12.242634388029211"><ele>126.0</ele><time>2026-04-25T14:39:19.998Z</time></trkpt><trkpt lat="45.94137190039764" lon="12.242532198870693"><ele>126.0</ele><time>2026-04-25T14:39:21.998Z</time></trkpt><trkpt lat="45.94132042799207" lon="12.24243941557545"><ele>126.0</ele><time>2026-04-25T14:39:23.998Z</time></trkpt><trkpt lat="45.94125125446436" lon="12.242367594927005"><ele>126.0</ele><time>2026-04-25T14:39:25.998Z</time></trkpt><trkpt lat="45.941196248912775" lon="12.242261463817197"><ele>126.0</ele><time>2026-04-25T14:39:27.998Z</time></trkpt><trkpt lat="45.94116131924698" lon="12.242136637862469"><ele>126.0</ele><time>2026-04-25T14:39:29.998Z</time></trkpt><trkpt lat="45.941132902266844" lon="12.242009420913844"><ele>126.0</ele><time>2026-04-25T14:39:31.998Z</time></trkpt><trkpt lat="45.94110564223574" lon="12.241880838945605"><ele>126.19999999999999</ele><time>2026-04-25T14:39:33.998Z</time></trkpt><trkpt lat="45.94108167709862" lon="12.241744405679126"><ele>126.39999999999999</ele><time>2026-04-25T14:39:35.998Z</time></trkpt><trkpt lat="45.94106444958611" lon="12.241608498685988"><ele>126.6</ele><time>2026-04-25T14:39:38Z</time></trkpt><trkpt lat="45.94103987104309" lon="12.241467668535659"><ele>126.8</ele><time>2026-04-25T14:39:40Z</time></trkpt><trkpt lat="45.94101856260573" lon="12.241328028892323"><ele>127.0</ele><time>2026-04-25T14:39:42Z</time></trkpt><trkpt lat="45.94098959961133" lon="12.241190983486096"><ele>127.0</ele><time>2026-04-25T14:39:44.001Z</time></trkpt><trkpt lat="45.940952075143514" lon="12.241060449135304"><ele>126.99999999999999</ele><time>2026-04-25T14:39:46Z</time></trkpt><trkpt lat="45.94091282324916" lon="12.240932972123773"><ele>126.99999999999999</ele><time>2026-04-25T14:39:48Z</time></trkpt><trkpt lat="45.94086490904858" lon="12.240810633432789"><ele>127.0</ele><time>2026-04-25T14:39:50.001Z</time></trkpt><trkpt lat="45.94081416112338" lon="12.240696474254015"><ele>127.0</ele><time>2026-04-25T14:39:52Z</time></trkpt><trkpt lat="45.94075914631953" lon="12.2405873550064"><ele>127.39999999999999</ele><time>2026-04-25T14:39:54Z</time></trkpt><trkpt lat="45.940708129599535" lon="12.240472601448403"><ele>127.79999999999998</ele><time>2026-04-25T14:39:56Z</time></trkpt><trkpt lat="45.94065090916116" lon="12.24036505511375"><ele>128.2</ele><time>2026-04-25T14:39:58Z</time></trkpt><trkpt lat="45.940590931159925" lon="12.240256459227105"><ele>128.6</ele><time>2026-04-25T14:39:59.999Z</time></trkpt><trkpt lat="45.94053903992504" lon="12.240142395660122"><ele>129.0</ele><time>2026-04-25T14:40:01.999Z</time></trkpt><trkpt lat="45.94049036918152" lon="12.240026116398418"><ele>129.0</ele><time>2026-04-25T14:40:03.999Z</time></trkpt><trkpt lat="45.94044900888754" lon="12.239911458996456"><ele>129.0</ele><time>2026-04-25T14:40:05.999Z</time></trkpt><trkpt lat="45.940416109207234" lon="12.239794632212703"><ele>129.0</ele><time>2026-04-25T14:40:07.999Z</time></trkpt><trkpt lat="45.94040317611035" lon="12.239673534443606"><ele>129.0</ele><time>2026-04-25T14:40:09.999Z</time></trkpt><trkpt lat="45.9403883150828" lon="12.239548050190614"><ele>129.0</ele><time>2026-04-25T14:40:11.999Z</time></trkpt><trkpt lat="45.94038738552682" lon="12.239418504257488"><ele>129.0</ele><time>2026-04-25T14:40:13.999Z</time></trkpt><trkpt lat="45.94039096057489" lon="12.239288087988616"><ele>129.83333333333334</ele><time>2026-04-25T14:40:15.999Z</time></trkpt><trkpt lat="45.94040120274216" lon="12.239158816816584"><ele>130.66666666666666</ele><time>2026-04-25T14:40:17.999Z</time></trkpt><trkpt lat="45.94041230867715" lon="12.23903525046327"><ele>131.5</ele><time>2026-04-25T14:40:19.999Z</time></trkpt><trkpt lat="45.94043030926467" lon="12.238914138214687"><ele>132.33333333333331</ele><time>2026-04-25T14:40:21.999Z</time></trkpt><trkpt lat="45.94044432260802" lon="12.238788916985568"><ele>133.16666666666666</ele><time>2026-04-25T14:40:23.999Z</time></trkpt><trkpt lat="45.940454839716" lon="12.238666966760356"><ele>134.0</ele><time>2026-04-25T14:40:25.999Z</time></trkpt><trkpt lat="45.94046607858482" lon="12.238543528955047"><ele>134.0</ele><time>2026-04-25T14:40:27.999Z</time></trkpt><trkpt lat="45.94048098684285" lon="12.238422898354687"><ele>134.0</ele><time>2026-04-25T14:40:29.999Z</time></trkpt><trkpt lat="45.94050496428398" lon="12.238305583781724"><ele>134.0</ele><time>2026-04-25T14:40:31.999Z</time></trkpt><trkpt lat="45.94054233958528" lon="12.23817417874667"><ele>134.0</ele><time>2026-04-25T14:40:33.999Z</time></trkpt><trkpt lat="45.94060764550536" lon="12.238093774049062"><ele>134.0</ele><time>2026-04-25T14:40:35.998Z</time></trkpt><trkpt lat="45.94065424613559" lon="12.237990311671359"><ele>134.0</ele><time>2026-04-25T14:40:37.998Z</time></trkpt><trkpt lat="45.94072031415585" lon="12.237919385498897"><ele>133.8</ele><time>2026-04-25T14:40:39.998Z</time></trkpt><trkpt lat="45.940761277258495" lon="12.237821686432602"><ele>133.60000000000002</ele><time>2026-04-25T14:40:41.998Z</time></trkpt><trkpt lat="45.94082835667011" lon="12.23775202342951"><ele>133.4</ele><time>2026-04-25T14:40:43.998Z</time></trkpt><trkpt lat="45.9408866702515" lon="12.237660206068538"><ele>133.20000000000002</ele><time>2026-04-25T14:40:45.998Z</time></trkpt><trkpt lat="45.940956169035836" lon="12.23754951477874"><ele>133.0</ele><time>2026-04-25T14:40:47.998Z</time></trkpt><trkpt lat="45.94102732135088" lon="12.237422541128424"><ele>134.0</ele><time>2026-04-25T14:40:49.998Z</time></trkpt><trkpt lat="45.9410625722355" lon="12.237345873182283"><ele>135.0</ele><time>2026-04-25T14:40:50.998Z</time></trkpt><trkpt lat="45.94107727628787" lon="12.237254977649846"><ele>136.0</ele><time>2026-04-25T14:40:51.998Z</time></trkpt><trkpt lat="45.941116043805565" lon="12.237089234951748"><ele>137.0</ele><time>2026-04-25T14:40:53.998Z</time></trkpt><trkpt lat="45.94113701242264" lon="12.23692551103343"><ele>138.0</ele><time>2026-04-25T14:40:55.998Z</time></trkpt><trkpt lat="45.94114740891407" lon="12.236760588242868"><ele>138.0</ele><time>2026-04-25T14:40:57.998Z</time></trkpt><trkpt lat="45.9411575029081" lon="12.236590527138501"><ele>138.0</ele><time>2026-04-25T14:40:59.998Z</time></trkpt><trkpt lat="45.94116706023463" lon="12.236429507677828"><ele>138.0</ele><time>2026-04-25T14:41:01.998Z</time></trkpt><trkpt lat="45.941174856542695" lon="12.236274212900597"><ele>138.0</ele><time>2026-04-25T14:41:03.998Z</time></trkpt><trkpt lat="45.94118185544267" lon="12.23611759846491"><ele>138.0</ele><time>2026-04-25T14:41:05.998Z</time></trkpt><trkpt lat="45.9411699597403" lon="12.235980312265106"><ele>138.5</ele><time>2026-04-25T14:41:07.998Z</time></trkpt><trkpt lat="45.9411881437948" lon="12.23584901302983"><ele>139.0</ele><time>2026-04-25T14:41:09.998Z</time></trkpt><trkpt lat="45.941181918714186" lon="12.235710609988649"><ele>139.5</ele><time>2026-04-25T14:41:11.998Z</time></trkpt><trkpt lat="45.94116129899035" lon="12.235547362976448"><ele>140.0</ele><time>2026-04-25T14:41:13.998Z</time></trkpt><trkpt lat="45.94114341656501" lon="12.23545480827786"><ele>140.5</ele><time>2026-04-25T14:41:14.998Z</time></trkpt><trkpt lat="45.94110960995613" lon="12.235368794126966"><ele>141.0</ele><time>2026-04-25T14:41:15.998Z</time></trkpt><trkpt lat="45.94110537437132" lon="12.23526728910621"><ele>141.5</ele><time>2026-04-25T14:41:16.998Z</time></trkpt><trkpt lat="45.941081645134645" lon="12.235166319279164"><ele>142.0</ele><time>2026-04-25T14:41:17.998Z</time></trkpt><trkpt lat="45.9410526376596" lon="12.235067335178957"><ele>142.5</ele><time>2026-04-25T14:41:18.998Z</time></trkpt><trkpt lat="45.94100099172461" lon="12.234984912484604"><ele>143.0</ele><time>2026-04-25T14:41:19.998Z</time></trkpt><trkpt lat="45.94095783744694" lon="12.234894693704735"><ele>143.5</ele><time>2026-04-25T14:41:20.997Z</time></trkpt><trkpt lat="45.94091485877079" lon="12.234805808655937"><ele>144.0</ele><time>2026-04-25T14:41:21.997Z</time></trkpt><trkpt lat="45.940870040908216" lon="12.234714836110168"><ele>142.57142857142858</ele><time>2026-04-25T14:41:22.997Z</time></trkpt><trkpt lat="45.94084231098966" lon="12.234614101147175"><ele>141.14285714285714</ele><time>2026-04-25T14:41:23.997Z</time></trkpt><trkpt lat="45.94081332603581" lon="12.234519914556188"><ele>139.71428571428572</ele><time>2026-04-25T14:41:24.997Z</time></trkpt><trkpt lat="45.94079261672663" lon="12.234423006036181"><ele>138.28571428571428</ele><time>2026-04-25T14:41:25.997Z</time></trkpt><trkpt lat="45.940778235470376" lon="12.234321987155434"><ele>136.85714285714286</ele><time>2026-04-25T14:41:26.997Z</time></trkpt><trkpt lat="45.940767611390946" lon="12.234223388029754"><ele>135.42857142857144</ele><time>2026-04-25T14:41:27.997Z</time></trkpt><trkpt lat="45.94074156363218" lon="12.234120682973877"><ele>134.0</ele><time>2026-04-25T14:41:28.997Z</time></trkpt><trkpt lat="45.94074007879988" lon="12.234017482529412"><ele>134.14285714285714</ele><time>2026-04-25T14:41:29.997Z</time></trkpt><trkpt lat="45.940729686992995" lon="12.233914380937568"><ele>134.28571428571428</ele><time>2026-04-25T14:41:30.997Z</time></trkpt><trkpt lat="45.94072382027153" lon="12.23381263965524"><ele>134.42857142857142</ele><time>2026-04-25T14:41:31.997Z</time></trkpt><trkpt lat="45.9407165765589" lon="12.233711958647438"><ele>134.57142857142856</ele><time>2026-04-25T14:41:32.997Z</time></trkpt><trkpt lat="45.940708593005105" lon="12.233612207087194"><ele>134.7142857142857</ele><time>2026-04-25T14:41:33.997Z</time></trkpt><trkpt lat="45.940697978796706" lon="12.233517190235164"><ele>134.85714285714286</ele><time>2026-04-25T14:41:34.997Z</time></trkpt><trkpt lat="45.94068828129508" lon="12.23341923201258"><ele>135.0</ele><time>2026-04-25T14:41:35.997Z</time></trkpt><trkpt lat="45.940678595223645" lon="12.233328072879443"><ele>135.0</ele><time>2026-04-25T14:41:36.997Z</time></trkpt><trkpt lat="45.94066873716244" lon="12.233234283018525"><ele>135.0</ele><time>2026-04-25T14:41:37.997Z</time></trkpt><trkpt lat="45.940661109066355" lon="12.233142989889073"><ele>135.0</ele><time>2026-04-25T14:41:38.997Z</time></trkpt><trkpt lat="45.940646761742656" lon="12.232966079116675"><ele>135.0</ele><time>2026-04-25T14:41:40.997Z</time></trkpt><trkpt lat="45.94062248465937" lon="12.232799528795786"><ele>135.0</ele><time>2026-04-25T14:41:43Z</time></trkpt><trkpt lat="45.94061080688262" lon="12.232630451533092"><ele>134.6</ele><time>2026-04-25T14:41:45Z</time></trkpt><trkpt lat="45.94059509740337" lon="12.23246587096556"><ele>134.2</ele><time>2026-04-25T14:41:47Z</time></trkpt><trkpt lat="45.94057512349186" lon="12.232308513660817"><ele>133.8</ele><time>2026-04-25T14:41:49Z</time></trkpt><trkpt lat="45.94056306309962" lon="12.232153913964252"><ele>133.4</ele><time>2026-04-25T14:41:51Z</time></trkpt><trkpt lat="45.94054919269367" lon="12.232000103388906"><ele>133.0</ele><time>2026-04-25T14:41:53Z</time></trkpt><trkpt lat="45.94053548565153" lon="12.231855020940802"><ele>133.8</ele><time>2026-04-25T14:41:55Z</time></trkpt><trkpt lat="45.94052400017475" lon="12.231709818204626"><ele>134.60000000000002</ele><time>2026-04-25T14:41:57Z</time></trkpt><trkpt lat="45.9405055286723" lon="12.231570685931112"><ele>135.39999999999998</ele><time>2026-04-25T14:41:59Z</time></trkpt><trkpt lat="45.94049300487622" lon="12.23142938224523"><ele>136.2</ele><time>2026-04-25T14:42:01Z</time></trkpt><trkpt lat="45.94048244978476" lon="12.231290137677464"><ele>137.0</ele><time>2026-04-25T14:42:03Z</time></trkpt><trkpt lat="45.940468056702485" lon="12.231155820412782"><ele>138.0</ele><time>2026-04-25T14:42:05Z</time></trkpt><trkpt lat="45.9404465792326" lon="12.231025963165367"><ele>139.0</ele><time>2026-04-25T14:42:07Z</time></trkpt><trkpt lat="45.9404378829947" lon="12.230889286343741"><ele>140.0</ele><time>2026-04-25T14:42:08.999Z</time></trkpt><trkpt lat="45.940419107358686" lon="12.230752541651608"><ele>141.0</ele><time>2026-04-25T14:42:10.999Z</time></trkpt><trkpt lat="45.94040626862495" lon="12.230610427121626"><ele>142.0</ele><time>2026-04-25T14:42:12.999Z</time></trkpt><trkpt lat="45.94039131873525" lon="12.230471647820844"><ele>143.6</ele><time>2026-04-25T14:42:14.999Z</time></trkpt><trkpt lat="45.940372399942824" lon="12.230331289279333"><ele>145.2</ele><time>2026-04-25T14:42:16.999Z</time></trkpt><trkpt lat="45.94036087457248" lon="12.230184991234148"><ele>146.8</ele><time>2026-04-25T14:42:18.999Z</time></trkpt><trkpt lat="45.94034573742572" lon="12.230036651627739"><ele>148.4</ele><time>2026-04-25T14:42:20.999Z</time></trkpt><trkpt lat="45.94033172712541" lon="12.229887967619442"><ele>150.0</ele><time>2026-04-25T14:42:22.999Z</time></trkpt><trkpt lat="45.94034048372305" lon="12.22973585467639"><ele>150.8</ele><time>2026-04-25T14:42:24.999Z</time></trkpt><trkpt lat="45.94035838835115" lon="12.229599727091324"><ele>151.6</ele><time>2026-04-25T14:42:26.999Z</time></trkpt><trkpt lat="45.94040910069399" lon="12.229456531739242"><ele>152.4</ele><time>2026-04-25T14:42:28.999Z</time></trkpt><trkpt lat="45.94045035794714" lon="12.22932344500634"><ele>153.2</ele><time>2026-04-25T14:42:30.999Z</time></trkpt><trkpt lat="45.940489737274376" lon="12.229193665122883"><ele>154.0</ele><time>2026-04-25T14:42:32.999Z</time></trkpt><trkpt lat="45.94052183275247" lon="12.22906487384005"><ele>154.83333333333334</ele><time>2026-04-25T14:42:34.999Z</time></trkpt><trkpt lat="45.94053704377915" lon="12.228913715374784"><ele>155.66666666666669</ele><time>2026-04-25T14:42:36.999Z</time></trkpt><trkpt lat="45.94048856989226" lon="12.228783295576537"><ele>156.5</ele><time>2026-04-25T14:42:38.999Z</time></trkpt><trkpt lat="45.94043274077624" lon="12.228715393540636"><ele>157.33333333333334</ele><time>2026-04-25T14:42:40.999Z</time></trkpt><trkpt lat="45.940355430472835" lon="12.228649598276615"><ele>158.16666666666666</ele><time>2026-04-25T14:42:43.999Z</time></trkpt><trkpt lat="45.940306348999165" lon="12.228585230204827"><ele>159.0</ele><time>2026-04-25T14:42:45.999Z</time></trkpt><trkpt lat="45.940252185652646" lon="12.228530357477513"><ele>159.0</ele><time>2026-04-25T14:42:47.999Z</time></trkpt><trkpt lat="45.94019044499933" lon="12.228462798784838"><ele>159.0</ele><time>2026-04-25T14:42:49.999Z</time></trkpt><trkpt lat="45.94012871051319" lon="12.22839426556891"><ele>159.0</ele><time>2026-04-25T14:42:51.999Z</time></trkpt><trkpt lat="45.94006190874106" lon="12.228323222703194"><ele>159.0</ele><time>2026-04-25T14:42:53.998Z</time></trkpt><trkpt lat="45.93999412080195" lon="12.228252188688518"><ele>159.0</ele><time>2026-04-25T14:42:55.998Z</time></trkpt><trkpt lat="45.93993571743806" lon="12.228176068959323"><ele>159.0</ele><time>2026-04-25T14:42:57.998Z</time></trkpt><trkpt lat="45.93988533666334" lon="12.228106670159889"><ele>157.66666666666666</ele><time>2026-04-25T14:42:59.998Z</time></trkpt><trkpt lat="45.93983627790301" lon="12.228031423342276"><ele>156.33333333333334</ele><time>2026-04-25T14:43:01.998Z</time></trkpt><trkpt lat="45.93980816035692" lon="12.227944491792982"><ele>155.0</ele><time>2026-04-25T14:43:03.998Z</time></trkpt><trkpt lat="45.93979443400785" lon="12.22785518641375"><ele>153.66666666666669</ele><time>2026-04-25T14:43:05.998Z</time></trkpt><trkpt lat="45.93977431724574" lon="12.22773093740276"><ele>152.33333333333334</ele><time>2026-04-25T14:43:08.998Z</time></trkpt><trkpt lat="45.93974593855891" lon="12.227624695424321"><ele>151.0</ele><time>2026-04-25T14:43:11.998Z</time></trkpt><trkpt lat="45.93971598069773" lon="12.227517802027245"><ele>151.0</ele><time>2026-04-25T14:43:14.998Z</time></trkpt><trkpt lat="45.93968457264061" lon="12.227409665886775"><ele>151.0</ele><time>2026-04-25T14:43:17.998Z</time></trkpt><trkpt lat="45.93964427479702" lon="12.227295636116525"><ele>151.0</ele><time>2026-04-25T14:43:20.998Z</time></trkpt><trkpt lat="45.93961446708797" lon="12.227212188787393"><ele>151.0</ele><time>2026-04-25T14:43:22.998Z</time></trkpt><trkpt lat="45.939577434866784" lon="12.227124702928737"><ele>151.0</ele><time>2026-04-25T14:43:24.998Z</time></trkpt><trkpt lat="45.939520051921924" lon="12.227013644900447"><ele>151.0</ele><time>2026-04-25T14:43:26.998Z</time></trkpt><trkpt lat="45.93948841984277" lon="12.22693423394489"><ele>151.0</ele><time>2026-04-25T14:43:27.998Z</time></trkpt><trkpt lat="45.93945196319358" lon="12.226845249087086"><ele>151.0</ele><time>2026-04-25T14:43:28.998Z</time></trkpt><trkpt lat="45.93941227772257" lon="12.226754430852564"><ele>151.0</ele><time>2026-04-25T14:43:29.998Z</time></trkpt><trkpt lat="45.93936793283481" lon="12.226663782140296"><ele>151.0</ele><time>2026-04-25T14:43:30.998Z</time></trkpt><trkpt lat="45.939322268599675" lon="12.226571306097043"><ele>151.0</ele><time>2026-04-25T14:43:31.998Z</time></trkpt><trkpt lat="45.939270433691405" lon="12.226482547115337"><ele>151.0</ele><time>2026-04-25T14:43:32.998Z</time></trkpt><trkpt lat="45.939212121095785" lon="12.226401982664136"><ele>151.00000000000003</ele><time>2026-04-25T14:43:33.998Z</time></trkpt><trkpt lat="45.939144200607075" lon="12.226338167975694"><ele>151.0</ele><time>2026-04-25T14:43:34.998Z</time></trkpt><trkpt lat="45.939071453396615" lon="12.226288477002608"><ele>151.0</ele><time>2026-04-25T14:43:35.998Z</time></trkpt><trkpt lat="45.93900722096953" lon="12.226229833636669"><ele>151.0</ele><time>2026-04-25T14:43:36.998Z</time></trkpt><trkpt lat="45.938958663980905" lon="12.226157375450724"><ele>151.0</ele><time>2026-04-25T14:43:37.997Z</time></trkpt><trkpt lat="45.938920869475616" lon="12.226073690337863"><ele>151.00000000000003</ele><time>2026-04-25T14:43:38.997Z</time></trkpt><trkpt lat="45.938898653244564" lon="12.225978912818025"><ele>151.0</ele><time>2026-04-25T14:43:39.997Z</time></trkpt><trkpt lat="45.93890924674408" lon="12.225879887421586"><ele>151.0</ele><time>2026-04-25T14:43:40.997Z</time></trkpt><trkpt lat="45.93894487207516" lon="12.225793489282491"><ele>151.0</ele><time>2026-04-25T14:43:41.997Z</time></trkpt><trkpt lat="45.93900070117721" lon="12.225729984045337"><ele>151.0</ele><time>2026-04-25T14:43:42.997Z</time></trkpt><trkpt lat="45.93905622633753" lon="12.225582078463036"><ele>151.0</ele><time>2026-04-25T14:43:44.997Z</time></trkpt><trkpt lat="45.939107467523826" lon="12.225426281416148"><ele>151.0</ele><time>2026-04-25T14:43:46.997Z</time></trkpt><trkpt lat="45.93915867655304" lon="12.225273427654377"><ele>152.8</ele><time>2026-04-25T14:43:49Z</time></trkpt><trkpt lat="45.939223877680405" lon="12.225139606907213"><ele>154.6</ele><time>2026-04-25T14:43:51Z</time></trkpt><trkpt lat="45.939308396181126" lon="12.225040666017243"><ele>156.4</ele><time>2026-04-25T14:43:53Z</time></trkpt><trkpt lat="45.939390227049714" lon="12.224946928298863"><ele>158.2</ele><time>2026-04-25T14:43:55Z</time></trkpt><trkpt lat="45.93946617216456" lon="12.224852387896515"><ele>160.0</ele><time>2026-04-25T14:43:57Z</time></trkpt><trkpt lat="45.93952937715306" lon="12.224749219159419"><ele>160.0</ele><time>2026-04-25T14:43:59Z</time></trkpt><trkpt lat="45.93958409053797" lon="12.22464488550073"><ele>160.0</ele><time>2026-04-25T14:44:01Z</time></trkpt><trkpt lat="45.93963943138288" lon="12.22453232168762"><ele>160.0</ele><time>2026-04-25T14:44:03Z</time></trkpt><trkpt lat="45.939692920669096" lon="12.224418432292309"><ele>160.0</ele><time>2026-04-25T14:44:05Z</time></trkpt><trkpt lat="45.93974654268476" lon="12.224304260251795"><ele>160.0</ele><time>2026-04-25T14:44:07Z</time></trkpt><trkpt lat="45.939780229696304" lon="12.224173285954624"><ele>160.0</ele><time>2026-04-25T14:44:09Z</time></trkpt><trkpt lat="45.939815133152294" lon="12.224042973982137"><ele>160.0</ele><time>2026-04-25T14:44:11Z</time></trkpt><trkpt lat="45.939826866140265" lon="12.223900865994112"><ele>160.0</ele><time>2026-04-25T14:44:13Z</time></trkpt><trkpt lat="45.93981921648963" lon="12.223754908956854"><ele>160.0</ele><time>2026-04-25T14:44:15Z</time></trkpt><trkpt lat="45.93978772788087" lon="12.223613646828785"><ele>160.0</ele><time>2026-04-25T14:44:17Z</time></trkpt><trkpt lat="45.93974831934731" lon="12.223484066389545"><ele>159.8</ele><time>2026-04-25T14:44:19Z</time></trkpt><trkpt lat="45.93972772105987" lon="12.223348592321011"><ele>159.6</ele><time>2026-04-25T14:44:21Z</time></trkpt><trkpt lat="45.9397269509903" lon="12.223204084562314"><ele>159.4</ele><time>2026-04-25T14:44:23Z</time></trkpt><trkpt lat="45.939767479070454" lon="12.223074255918071"><ele>159.2</ele><time>2026-04-25T14:44:25Z</time></trkpt><trkpt lat="45.93983146673393" lon="12.222970177550867"><ele>159.0</ele><time>2026-04-25T14:44:26.999Z</time></trkpt><trkpt lat="45.93989712176976" lon="12.222879852263889"><ele>159.8</ele><time>2026-04-25T14:44:28.999Z</time></trkpt><trkpt lat="45.93995819808115" lon="12.222797445027895"><ele>160.60000000000002</ele><time>2026-04-25T14:44:30.999Z</time></trkpt><trkpt lat="45.940015549329416" lon="12.22271650546481"><ele>161.4</ele><time>2026-04-25T14:44:32.999Z</time></trkpt><trkpt lat="45.94007887568299" lon="12.222631207446446"><ele>162.20000000000002</ele><time>2026-04-25T14:44:34.999Z</time></trkpt><trkpt lat="45.94017423899477" lon="12.222581891483788"><ele>163.0</ele><time>2026-04-25T14:44:36.999Z</time></trkpt><trkpt lat="45.94023633869568" lon="12.222473724590547"><ele>162.8</ele><time>2026-04-25T14:44:38.999Z</time></trkpt><trkpt lat="45.940312742820026" lon="12.222380731621286"><ele>162.60000000000002</ele><time>2026-04-25T14:44:40.999Z</time></trkpt><trkpt lat="45.9403754087661" lon="12.22227430394799"><ele>162.39999999999998</ele><time>2026-04-25T14:44:42.999Z</time></trkpt><trkpt lat="45.94043882151098" lon="12.222165619475323"><ele>162.2</ele><time>2026-04-25T14:44:44.999Z</time></trkpt><trkpt lat="45.94050738240076" lon="12.222039783459856"><ele>162.0</ele><time>2026-04-25T14:44:46.999Z</time></trkpt><trkpt lat="45.94057755195811" lon="12.22191883052936"><ele>162.0</ele><time>2026-04-25T14:44:48.999Z</time></trkpt><trkpt lat="45.9406374906084" lon="12.221793759416643"><ele>162.0</ele><time>2026-04-25T14:44:50.999Z</time></trkpt><trkpt lat="45.94069228974605" lon="12.221653514647011"><ele>162.0</ele><time>2026-04-25T14:44:52.999Z</time></trkpt><trkpt lat="45.94074698305714" lon="12.221518764134435"><ele>162.0</ele><time>2026-04-25T14:44:54.999Z</time></trkpt><trkpt lat="45.94080289342823" lon="12.22140263563374"><ele>162.0</ele><time>2026-04-25T14:44:56.999Z</time></trkpt><trkpt lat="45.940852138785836" lon="12.22128773133137"><ele>165.33333333333334</ele><time>2026-04-25T14:44:58.999Z</time></trkpt><trkpt lat="45.94089961157711" lon="12.221167386382843"><ele>168.66666666666666</ele><time>2026-04-25T14:45:00.999Z</time></trkpt><trkpt lat="45.94094389918122" lon="12.221071093187827"><ele>172.0</ele><time>2026-04-25T14:45:02.999Z</time></trkpt><trkpt lat="45.94098114124504" lon="12.220995827079019"><ele>175.33333333333331</ele><time>2026-04-25T14:45:04.999Z</time></trkpt><trkpt lat="45.941035787636615" lon="12.220916228077208"><ele>178.66666666666666</ele><time>2026-04-25T14:45:07.999Z</time></trkpt><trkpt lat="45.94108499958591" lon="12.220804619101303"><ele>182.0</ele><time>2026-04-25T14:45:10.998Z</time></trkpt><trkpt lat="45.941120747888334" lon="12.220688451999886"><ele>182.33333333333331</ele><time>2026-04-25T14:45:13.998Z</time></trkpt><trkpt lat="45.941117985579226" lon="12.220587998127499"><ele>182.66666666666666</ele><time>2026-04-25T14:45:15.998Z</time></trkpt><trkpt lat="45.94112012780942" lon="12.22049494359179"><ele>183.0</ele><time>2026-04-25T14:45:17.998Z</time></trkpt><trkpt lat="45.94112743077519" lon="12.220396196045797"><ele>183.33333333333334</ele><time>2026-04-25T14:45:19.998Z</time></trkpt><trkpt lat="45.941138172021255" lon="12.22026345971397"><ele>183.66666666666669</ele><time>2026-04-25T14:45:22.998Z</time></trkpt><trkpt lat="45.941150557081016" lon="12.220147863698614"><ele>184.0</ele><time>2026-04-25T14:45:25.998Z</time></trkpt><trkpt lat="45.9411607732227" lon="12.220031763598469"><ele>184.0</ele><time>2026-04-25T14:45:28.998Z</time></trkpt><trkpt lat="45.94117057321551" lon="12.219930138768277"><ele>184.0</ele><time>2026-04-25T14:45:31.998Z</time></trkpt><trkpt lat="45.941184714810774" lon="12.219825685902164"><ele>184.0</ele><time>2026-04-25T14:45:34.998Z</time></trkpt><trkpt lat="45.94119931742451" lon="12.219701114150043"><ele>184.0</ele><time>2026-04-25T14:45:37.998Z</time></trkpt><trkpt lat="45.94121063149892" lon="12.219595562520231"><ele>184.0</ele><time>2026-04-25T14:45:39.998Z</time></trkpt><trkpt lat="45.94123049108747" lon="12.21948419453943"><ele>184.0</ele><time>2026-04-25T14:45:41.998Z</time></trkpt><trkpt lat="45.94124700979492" lon="12.21937390949642"><ele>182.33333333333334</ele><time>2026-04-25T14:45:43.998Z</time></trkpt><trkpt lat="45.94125656172644" lon="12.219270842020226"><ele>180.66666666666669</ele><time>2026-04-25T14:45:45.998Z</time></trkpt><trkpt lat="45.94127829862265" lon="12.21916743168256"><ele>179.0</ele><time>2026-04-25T14:45:47.998Z</time></trkpt><trkpt lat="45.941319676113864" lon="12.219080308810812"><ele>177.33333333333334</ele><time>2026-04-25T14:45:49.998Z</time></trkpt><trkpt lat="45.94137403701279" lon="12.219011318533283"><ele>175.66666666666666</ele><time>2026-04-25T14:45:51.998Z</time></trkpt><trkpt lat="45.94142712702376" lon="12.218911679818119"><ele>174.0</ele><time>2026-04-25T14:45:53.998Z</time></trkpt><trkpt lat="45.94147164494044" lon="12.2187937747775"><ele>173.16666666666666</ele><time>2026-04-25T14:45:56Z</time></trkpt><trkpt lat="45.94151673390231" lon="12.218695607066019"><ele>172.33333333333334</ele><time>2026-04-25T14:45:58Z</time></trkpt><trkpt lat="45.941564633888405" lon="12.218605998357242"><ele>171.5</ele><time>2026-04-25T14:46:00Z</time></trkpt><trkpt lat="45.94161543944077" lon="12.218525220870163"><ele>170.66666666666669</ele><time>2026-04-25T14:46:02Z</time></trkpt><trkpt lat="45.941684598913746" lon="12.218468316086646"><ele>169.83333333333334</ele><time>2026-04-25T14:46:05Z</time></trkpt><trkpt lat="45.94162612807866" lon="12.21850582685308"><ele>169.0</ele><time>2026-04-25T14:46:13Z</time></trkpt><trkpt lat="45.94155012414577" lon="12.21856973957704"><ele>169.0</ele><time>2026-04-25T14:46:16Z</time></trkpt><trkpt lat="45.9415238487406" lon="12.218440688243529"><ele>169.0</ele><time>2026-04-25T14:46:21Z</time></trkpt><trkpt lat="45.941527902856606" lon="12.218332128307873"><ele>169.0</ele><time>2026-04-25T14:46:26Z</time></trkpt><trkpt lat="45.94141554686035" lon="12.218333845721506"><ele>169.0</ele><time>2026-04-25T14:46:29Z</time></trkpt><trkpt lat="45.941463608614384" lon="12.21820029521284"><ele>169.0</ele><time>2026-04-25T14:46:32Z</time></trkpt><trkpt lat="45.941460678830765" lon="12.218095474212042"><ele>169.0</ele><time>2026-04-25T14:46:36Z</time></trkpt><trkpt lat="45.94145803298938" lon="12.218000812184565"><ele>169.0</ele><time>2026-04-25T14:46:39Z</time></trkpt><trkpt lat="45.94145529461703" lon="12.217902839548593"><ele>169.0</ele><time>2026-04-25T14:46:42Z</time></trkpt><trkpt lat="45.941452008405605" lon="12.217785266572205"><ele>169.0</ele><time>2026-04-25T14:46:44.999Z</time></trkpt><trkpt lat="45.941448370651536" lon="12.217655116250778"><ele>169.0</ele><time>2026-04-25T14:46:47.999Z</time></trkpt><trkpt lat="45.941445480392524" lon="12.217551709525454"><ele>169.0</ele><time>2026-04-25T14:46:49.999Z</time></trkpt><trkpt lat="45.94145693102934" lon="12.217451359308146"><ele>169.0</ele><time>2026-04-25T14:46:51.999Z</time></trkpt><trkpt lat="45.941220048792" lon="12.217769386942582"><ele>169.0</ele><time>2026-04-25T14:46:52.999Z</time></trkpt><trkpt lat="45.941639347110474" lon="12.217333314802694"><ele>169.6</ele><time>2026-04-25T14:46:53.999Z</time></trkpt><trkpt lat="45.941699202486454" lon="12.21719421858037"><ele>170.2</ele><time>2026-04-25T14:46:55.999Z</time></trkpt><trkpt lat="45.94172978175819" lon="12.2170282393684"><ele>170.79999999999998</ele><time>2026-04-25T14:46:57.999Z</time></trkpt><trkpt lat="45.941720115540555" lon="12.216879811975149"><ele>171.39999999999998</ele><time>2026-04-25T14:46:59.999Z</time></trkpt><trkpt lat="45.941699584744065" lon="12.216749971696766"><ele>172.0</ele><time>2026-04-25T14:47:01.999Z</time></trkpt><trkpt lat="45.941677169126244" lon="12.216636576674357"><ele>172.0</ele><time>2026-04-25T14:47:03.999Z</time></trkpt><trkpt lat="45.941650565989015" lon="12.216537246606967"><ele>172.0</ele><time>2026-04-25T14:47:05.999Z</time></trkpt><trkpt lat="45.94161565293832" lon="12.216412401450823"><ele>172.0</ele><time>2026-04-25T14:47:08.999Z</time></trkpt><trkpt lat="45.94157673213569" lon="12.216297364043854"><ele>172.0</ele><time>2026-04-25T14:47:11.999Z</time></trkpt><trkpt lat="45.94153818370833" lon="12.216194627726498"><ele>172.0</ele><time>2026-04-25T14:47:14.999Z</time></trkpt><trkpt lat="45.94150228094553" lon="12.216108160732453"><ele>172.0</ele><time>2026-04-25T14:47:17.999Z</time></trkpt><trkpt lat="45.94147473975364" lon="12.216014548634725"><ele>173.00000000000003</ele><time>2026-04-25T14:47:20.999Z</time></trkpt><trkpt lat="45.94145487822237" lon="12.215922324458802"><ele>174.0</ele><time>2026-04-25T14:47:23.999Z</time></trkpt><trkpt lat="45.94145218373811" lon="12.215820399143459"><ele>175.0</ele><time>2026-04-25T14:47:26.999Z</time></trkpt><trkpt lat="45.94146125358538" lon="12.21572233199554"><ele>176.0</ele><time>2026-04-25T14:47:29.998Z</time></trkpt><trkpt lat="45.94146736332179" lon="12.21563140052715"><ele>177.0</ele><time>2026-04-25T14:47:32.998Z</time></trkpt><trkpt lat="45.94147048735918" lon="12.21553353927394"><ele>178.00000000000003</ele><time>2026-04-25T14:47:36.998Z</time></trkpt><trkpt lat="45.94146292380443" lon="12.215424877063331"><ele>179.0</ele><time>2026-04-25T14:47:41.998Z</time></trkpt><trkpt lat="45.94144734015788" lon="12.215337101727012"><ele>180.57142857142858</ele><time>2026-04-25T14:47:45.998Z</time></trkpt><trkpt lat="45.94142200151418" lon="12.215250691508269"><ele>182.14285714285714</ele><time>2026-04-25T14:47:50.998Z</time></trkpt><trkpt lat="45.94139966607798" lon="12.215147646496858"><ele>183.71428571428572</ele><time>2026-04-25T14:47:55.997Z</time></trkpt><trkpt lat="45.941370994352575" lon="12.215049955419445"><ele>185.28571428571428</ele><time>2026-04-25T14:48:01Z</time></trkpt><trkpt lat="45.94135096374587" lon="12.214951630157561"><ele>186.85714285714286</ele><time>2026-04-25T14:48:06Z</time></trkpt><trkpt lat="45.94133016102957" lon="12.21486027122655"><ele>188.42857142857144</ele><time>2026-04-25T14:48:11Z</time></trkpt><trkpt lat="45.9413137827996" lon="12.21476841991277"><ele>190.0</ele><time>2026-04-25T14:48:16Z</time></trkpt><trkpt lat="45.94131085129241" lon="12.214664104132066"><ele>191.28571428571428</ele><time>2026-04-25T14:48:20.999Z</time></trkpt><trkpt lat="45.941308844464416" lon="12.214558640673804"><ele>192.57142857142858</ele><time>2026-04-25T14:48:25.999Z</time></trkpt><trkpt lat="45.94131403669108" lon="12.214458479109458"><ele>193.85714285714283</ele><time>2026-04-25T14:48:30.999Z</time></trkpt><trkpt lat="45.94132404478988" lon="12.214358657671538"><ele>195.14285714285714</ele><time>2026-04-25T14:48:35.999Z</time></trkpt><trkpt lat="45.941339388450416" lon="12.21425948926975"><ele>196.42857142857142</ele><time>2026-04-25T14:48:40.999Z</time></trkpt><trkpt lat="45.94136233300818" lon="12.214155384941387"><ele>197.7142857142857</ele><time>2026-04-25T14:48:45.999Z</time></trkpt><trkpt lat="45.941387380197995" lon="12.2140617329741"><ele>199.0</ele><time>2026-04-25T14:48:50.999Z</time></trkpt><trkpt lat="45.94141549661138" lon="12.21396994040116"><ele>200.7142857142857</ele><time>2026-04-25T14:48:55.999Z</time></trkpt><trkpt lat="45.94145023193934" lon="12.213875435503741"><ele>202.42857142857142</ele><time>2026-04-25T14:49:00.998Z</time></trkpt><trkpt lat="45.94148101290023" lon="12.213784043387495"><ele>204.14285714285714</ele><time>2026-04-25T14:49:05.998Z</time></trkpt><trkpt lat="45.94151478872702" lon="12.213692808541754"><ele>205.85714285714283</ele><time>2026-04-25T14:49:10.998Z</time></trkpt><trkpt lat="45.94154757119556" lon="12.213606653508647"><ele>207.57142857142858</ele><time>2026-04-25T14:49:15.998Z</time></trkpt><trkpt lat="45.94157883875989" lon="12.213514810787615"><ele>209.28571428571428</ele><time>2026-04-25T14:49:20.998Z</time></trkpt><trkpt lat="45.941609266499825" lon="12.213435015827375"><ele>211.0</ele><time>2026-04-25T14:49:25.998Z</time></trkpt><trkpt lat="45.94164629313436" lon="12.213339242871884"><ele>211.0</ele><time>2026-04-25T14:49:31.998Z</time></trkpt><trkpt lat="45.9416793977689" lon="12.213256990720156"><ele>211.0</ele><time>2026-04-25T14:49:36.998Z</time></trkpt><trkpt lat="45.94171919293596" lon="12.21318412544722"><ele>211.0</ele><time>2026-04-25T14:49:41.998Z</time></trkpt><trkpt lat="45.94178215718531" lon="12.213119167263711"><ele>211.0</ele><time>2026-04-25T14:49:46.997Z</time></trkpt><trkpt lat="45.94184990939234" lon="12.213086052999879"><ele>211.0</ele><time>2026-04-25T14:49:51.997Z</time></trkpt><trkpt lat="45.94192014427164" lon="12.213102501127064"><ele>211.0</ele><time>2026-04-25T14:49:56.997Z</time></trkpt><trkpt lat="45.941967412144756" lon="12.213173104421081"><ele>211.0</ele><time>2026-04-25T14:50:00.997Z</time></trkpt><trkpt lat="45.94199456592637" lon="12.213277108507889"><ele>213.14285714285714</ele><time>2026-04-25T14:50:06Z</time></trkpt><trkpt lat="45.94199758049402" lon="12.213371206367917"><ele>215.28571428571428</ele><time>2026-04-25T14:50:10Z</time></trkpt><trkpt lat="45.94198881039184" lon="12.213480994788982"><ele>217.42857142857144</ele><time>2026-04-25T14:50:15Z</time></trkpt><trkpt lat="45.941996532956495" lon="12.213575762373292"><ele>219.57142857142856</ele><time>2026-04-25T14:50:20Z</time></trkpt><trkpt lat="45.942016267730814" lon="12.213676886297437"><ele>221.7142857142857</ele><time>2026-04-25T14:50:25Z</time></trkpt><trkpt lat="45.942082233005664" lon="12.213725541516867"><ele>223.85714285714286</ele><time>2026-04-25T14:50:30Z</time></trkpt><trkpt lat="45.94215446370951" lon="12.213728725402445"><ele>226.0</ele><time>2026-04-25T14:50:34.999Z</time></trkpt><trkpt lat="45.94221822772008" lon="12.213707923164476"><ele>226.0</ele><time>2026-04-25T14:50:39.999Z</time></trkpt><trkpt lat="45.94228011525703" lon="12.213661667798908"><ele>226.0</ele><time>2026-04-25T14:50:44.999Z</time></trkpt><trkpt lat="45.94230974781339" lon="12.213567158941293"><ele>226.0</ele><time>2026-04-25T14:50:49.999Z</time></trkpt><trkpt lat="45.94231485195673" lon="12.213465914870264"><ele>226.0</ele><time>2026-04-25T14:50:54.999Z</time></trkpt><trkpt lat="45.94232617093838" lon="12.21336960916287"><ele>226.0</ele><time>2026-04-25T14:50:59.999Z</time></trkpt><trkpt lat="45.942352019306774" lon="12.213277289381107"><ele>226.0</ele><time>2026-04-25T14:51:15.998Z</time></trkpt><trkpt lat="45.94237258190376" lon="12.213190571903471"><ele>226.0</ele><time>2026-04-25T14:51:26.998Z</time></trkpt><trkpt lat="45.94239580113437" lon="12.21310504294835"><ele>229.14285714285717</ele><time>2026-04-25T14:51:34.998Z</time></trkpt><trkpt lat="45.942414580998836" lon="12.213009209033578"><ele>232.28571428571428</ele><time>2026-04-25T14:51:43.998Z</time></trkpt><trkpt lat="45.94243075956272" lon="12.212918887886081"><ele>235.42857142857144</ele><time>2026-04-25T14:51:51.998Z</time></trkpt><trkpt lat="45.94243175377843" lon="12.212818688039205"><ele>238.57142857142858</ele><time>2026-04-25T14:51:59.998Z</time></trkpt><trkpt lat="45.942427992415354" lon="12.212719385062213"><ele>241.71428571428572</ele><time>2026-04-25T14:52:07.997Z</time></trkpt><trkpt lat="45.94240303111697" lon="12.212626246918582"><ele>244.85714285714286</ele><time>2026-04-25T14:52:16Z</time></trkpt><trkpt lat="45.9423657992047" lon="12.212540053693504"><ele>248.0</ele><time>2026-04-25T14:52:22Z</time></trkpt><trkpt lat="45.94231203542221" lon="12.212478633369683"><ele>248.0</ele><time>2026-04-25T14:52:29Z</time></trkpt><trkpt lat="45.94225787583361" lon="12.212425012997949"><ele>248.00000000000003</ele><time>2026-04-25T14:52:35Z</time></trkpt><trkpt lat="45.94219559593648" lon="12.212371577987449"><ele>248.0</ele><time>2026-04-25T14:52:42Z</time></trkpt><trkpt lat="45.94213850469045" lon="12.21233113438575"><ele>248.0</ele><time>2026-04-25T14:52:47.999Z</time></trkpt><trkpt lat="45.94208616030802" lon="12.212277269809105"><ele>248.00000000000003</ele><time>2026-04-25T14:52:53.999Z</time></trkpt><trkpt lat="45.942033956647876" lon="12.212223290569426"><ele>248.0</ele><time>2026-04-25T14:52:59.999Z</time></trkpt><trkpt lat="45.94198164320906" lon="12.21216105600449"><ele>248.0</ele><time>2026-04-25T14:53:06.999Z</time></trkpt><trkpt lat="45.94193090960909" lon="12.212098411650272"><ele>248.42857142857144</ele><time>2026-04-25T14:53:13.999Z</time></trkpt><trkpt lat="45.941884602021304" lon="12.212025505810834"><ele>248.8571428571429</ele><time>2026-04-25T14:53:21.999Z</time></trkpt><trkpt lat="45.94184094589132" lon="12.211946294997311"><ele>249.28571428571428</ele><time>2026-04-25T14:53:29.999Z</time></trkpt><trkpt lat="45.9418083888567" lon="12.211859697521447"><ele>249.71428571428572</ele><time>2026-04-25T14:53:37.998Z</time></trkpt><trkpt lat="45.94177820494987" lon="12.211767701835958"><ele>250.14285714285714</ele><time>2026-04-25T14:53:45.998Z</time></trkpt><trkpt lat="45.94174333529022" lon="12.211690252270248"><ele>250.57142857142856</ele><time>2026-04-25T14:53:52.998Z</time></trkpt><trkpt lat="45.94170412385507" lon="12.21160507912861"><ele>250.99999999999997</ele><time>2026-04-25T14:53:59.998Z</time></trkpt><trkpt lat="45.941659942465144" lon="12.211533255926915"><ele>252.28571428571425</ele><time>2026-04-25T14:54:09.998Z</time></trkpt><trkpt lat="45.94161406927759" lon="12.211463419391311"><ele>253.57142857142856</ele><time>2026-04-25T14:54:14.998Z</time></trkpt><trkpt lat="45.94156555216987" lon="12.211394483000504"><ele>254.85714285714286</ele><time>2026-04-25T14:54:19Z</time></trkpt><trkpt lat="45.94150958421767" lon="12.211321005433618"><ele>256.1428571428571</ele><time>2026-04-25T14:54:23Z</time></trkpt><trkpt lat="45.94143662851064" lon="12.211275349122904"><ele>257.42857142857144</ele><time>2026-04-25T14:54:27Z</time></trkpt><trkpt lat="45.941367773972445" lon="12.211269122346668"><ele>258.7142857142857</ele><time>2026-04-25T14:54:31Z</time></trkpt><trkpt lat="45.941301694019764" lon="12.211296454614565"><ele>260.0</ele><time>2026-04-25T14:54:35Z</time></trkpt><trkpt lat="45.9412434187168" lon="12.211333644849317"><ele>260.0</ele><time>2026-04-25T14:54:39Z</time></trkpt><trkpt lat="45.94117260281938" lon="12.211353929317742"><ele>260.0</ele><time>2026-04-25T14:54:44Z</time></trkpt><trkpt lat="45.94110686320655" lon="12.211349386086678"><ele>260.0</ele><time>2026-04-25T14:54:49Z</time></trkpt><trkpt lat="45.94102800318633" lon="12.211360048677916"><ele>260.0</ele><time>2026-04-25T14:54:53Z</time></trkpt><trkpt lat="45.940957759181735" lon="12.211376382985671"><ele>260.0</ele><time>2026-04-25T14:54:57Z</time></trkpt><trkpt lat="45.94088462947461" lon="12.211400061654004"><ele>260.0</ele><time>2026-04-25T14:55:02Z</time></trkpt><trkpt lat="45.94080337592945" lon="12.21144498332033"><ele>258.0</ele><time>2026-04-25T14:55:06Z</time></trkpt><trkpt lat="45.94073395628727" lon="12.211489509395776"><ele>256.0</ele><time>2026-04-25T14:55:07.999Z</time></trkpt><trkpt lat="45.94065003385959" lon="12.211538846697808"><ele>254.0</ele><time>2026-04-25T14:55:09.999Z</time></trkpt><trkpt lat="45.940560964324106" lon="12.211584330700273"><ele>252.0</ele><time>2026-04-25T14:55:11.999Z</time></trkpt><trkpt lat="45.94046922577067" lon="12.211613601091472"><ele>250.0</ele><time>2026-04-25T14:55:13.999Z</time></trkpt><trkpt lat="45.94037272791621" lon="12.21162910061614"><ele>249.99999999999997</ele><time>2026-04-25T14:55:15.999Z</time></trkpt><trkpt lat="45.94027775657663" lon="12.21163741327837"><ele>250.0</ele><time>2026-04-25T14:55:17.999Z</time></trkpt><trkpt lat="45.94019475237183" lon="12.211621169579846"><ele>250.0</ele><time>2026-04-25T14:55:19.999Z</time></trkpt><trkpt lat="45.94013687825536" lon="12.21157528454286"><ele>250.0</ele><time>2026-04-25T14:55:21.999Z</time></trkpt><trkpt lat="45.94006776857656" lon="12.211536414820742"><ele>249.99999999999997</ele><time>2026-04-25T14:55:23.999Z</time></trkpt><trkpt lat="45.93999160756514" lon="12.211502500820679"><ele>250.0</ele><time>2026-04-25T14:55:25.999Z</time></trkpt><trkpt lat="45.93990599953345" lon="12.211471189575043"><ele>249.33333333333331</ele><time>2026-04-25T14:55:27.999Z</time></trkpt><trkpt lat="45.93982068079382" lon="12.211475519580688"><ele>248.66666666666666</ele><time>2026-04-25T14:55:29.999Z</time></trkpt><trkpt lat="45.93975715960758" lon="12.211522965343415"><ele>248.0</ele><time>2026-04-25T14:55:31.999Z</time></trkpt><trkpt lat="45.93968643808748" lon="12.21154926668061"><ele>247.33333333333331</ele><time>2026-04-25T14:55:35.999Z</time></trkpt><trkpt lat="45.939626919087964" lon="12.211617694755613"><ele>246.66666666666666</ele><time>2026-04-25T14:55:39.999Z</time></trkpt><trkpt lat="45.939566215258424" lon="12.211670807576915"><ele>246.0</ele><time>2026-04-25T14:55:43.998Z</time></trkpt><trkpt lat="45.939509243377515" lon="12.21173781062483"><ele>246.00000000000003</ele><time>2026-04-25T14:55:48.998Z</time></trkpt><trkpt lat="45.939449216999115" lon="12.211806028452129"><ele>246.0</ele><time>2026-04-25T14:55:53.997Z</time></trkpt><trkpt lat="45.939386635687185" lon="12.211874007822152"><ele>246.00000000000003</ele><time>2026-04-25T14:55:58.997Z</time></trkpt><trkpt lat="45.93933335520431" lon="12.211939324942822"><ele>246.00000000000003</ele><time>2026-04-25T14:56:02.997Z</time></trkpt><trkpt lat="45.93927968973187" lon="12.212017014753"><ele>246.0</ele><time>2026-04-25T14:56:07.997Z</time></trkpt><trkpt lat="45.939212960072474" lon="12.212065131121609"><ele>246.00000000000003</ele><time>2026-04-25T14:56:12.997Z</time></trkpt><trkpt lat="45.93915264458627" lon="12.212115443849234"><ele>246.00000000000003</ele><time>2026-04-25T14:56:17.997Z</time></trkpt><trkpt lat="45.93910300030943" lon="12.212189632899946"><ele>247.5714285714286</ele><time>2026-04-25T14:56:21.997Z</time></trkpt><trkpt lat="45.93905783149263" lon="12.212260490083677"><ele>249.14285714285717</ele><time>2026-04-25T14:56:25Z</time></trkpt><trkpt lat="45.93903168170947" lon="12.212349484191941"><ele>250.71428571428572</ele><time>2026-04-25T14:56:29Z</time></trkpt><trkpt lat="45.93896504859764" lon="12.212374491682821"><ele>252.2857142857143</ele><time>2026-04-25T14:56:35Z</time></trkpt><trkpt lat="45.938899785308784" lon="12.212437740282724"><ele>253.8571428571429</ele><time>2026-04-25T14:56:38Z</time></trkpt><trkpt lat="45.9388239618052" lon="12.212469832683754"><ele>255.42857142857142</ele><time>2026-04-25T14:56:41Z</time></trkpt><trkpt lat="45.93875131718787" lon="12.21246164940679"><ele>257.0</ele><time>2026-04-25T14:56:45.999Z</time></trkpt><trkpt lat="45.93868957094976" lon="12.212442062483275"><ele>257.42857142857144</ele><time>2026-04-25T14:56:50.999Z</time></trkpt><trkpt lat="45.93862642584758" lon="12.212415375976025"><ele>257.8571428571429</ele><time>2026-04-25T14:56:55.999Z</time></trkpt><trkpt lat="45.938556931004214" lon="12.212384986491825"><ele>258.28571428571433</ele><time>2026-04-25T14:57:01.999Z</time></trkpt><trkpt lat="45.93849454702855" lon="12.212355722172791"><ele>258.7142857142857</ele><time>2026-04-25T14:57:06.999Z</time></trkpt><trkpt lat="45.93843069443518" lon="12.21235894499049"><ele>259.14285714285717</ele><time>2026-04-25T14:57:11.999Z</time></trkpt><trkpt lat="45.93845608221104" lon="12.212441818260697"><ele>259.5714285714286</ele><time>2026-04-25T14:57:17.999Z</time></trkpt><trkpt lat="45.938502785902934" lon="12.212504311666107"><ele>260.0</ele><time>2026-04-25T14:57:22.999Z</time></trkpt><trkpt lat="45.93852156454071" lon="12.212603150958575"><ele>260.00000000000006</ele><time>2026-04-25T14:57:27.998Z</time></trkpt><trkpt lat="45.938473711609575" lon="12.212679172605524"><ele>260.0</ele><time>2026-04-25T14:57:32.998Z</time></trkpt><trkpt lat="45.938405477423764" lon="12.212648632414174"><ele>260.0</ele><time>2026-04-25T14:57:37.998Z</time></trkpt><trkpt lat="45.93834677669949" lon="12.212615445836558"><ele>260.0</ele><time>2026-04-25T14:57:42.998Z</time></trkpt><trkpt lat="45.93828094883557" lon="12.212616197078644"><ele>260.0</ele><time>2026-04-25T14:57:47.998Z</time></trkpt><trkpt lat="45.93821248318855" lon="12.21261154875427"><ele>260.00000000000006</ele><time>2026-04-25T14:57:52.998Z</time></trkpt><trkpt lat="45.938144349771655" lon="12.212618984767039"><ele>260.0</ele><time>2026-04-25T14:57:58.998Z</time></trkpt><trkpt lat="45.93807722731562" lon="12.212581025947223"><ele>262.42857142857144</ele><time>2026-04-25T14:58:05.998Z</time></trkpt><trkpt lat="45.93801519721842" lon="12.212560785809703"><ele>264.8571428571429</ele><time>2026-04-25T14:58:10.998Z</time></trkpt><trkpt lat="45.937948127938995" lon="12.212546126187164"><ele>267.2857142857143</ele><time>2026-04-25T14:58:15.997Z</time></trkpt><trkpt lat="45.93787501353537" lon="12.21253051635359"><ele>269.7142857142857</ele><time>2026-04-25T14:58:21.997Z</time></trkpt><trkpt lat="45.93779966755047" lon="12.212530606960884"><ele>272.1428571428571</ele><time>2026-04-25T14:58:26.997Z</time></trkpt><trkpt lat="45.9377215948173" lon="12.212535755935484"><ele>274.57142857142856</ele><time>2026-04-25T14:58:30Z</time></trkpt><trkpt lat="45.93763303669217" lon="12.21255282552904"><ele>277.0</ele><time>2026-04-25T14:58:33Z</time></trkpt><trkpt lat="45.93756208553873" lon="12.212502763386112"><ele>277.7142857142857</ele><time>2026-04-25T14:58:36Z</time></trkpt><trkpt lat="45.93750603253809" lon="12.212433527647262"><ele>278.4285714285714</ele><time>2026-04-25T14:58:39Z</time></trkpt><trkpt lat="45.93746302472278" lon="12.212345265586245"><ele>279.1428571428571</ele><time>2026-04-25T14:58:42Z</time></trkpt><trkpt lat="45.937430721181265" lon="12.212241270756302"><ele>279.85714285714283</ele><time>2026-04-25T14:58:45Z</time></trkpt><trkpt lat="45.93742232220253" lon="12.212137230543085"><ele>280.57142857142856</ele><time>2026-04-25T14:58:48Z</time></trkpt><trkpt lat="45.937423544012496" lon="12.212046394317586"><ele>281.2857142857143</ele><time>2026-04-25T14:58:51Z</time></trkpt><trkpt lat="45.93741978944846" lon="12.211943763886339"><ele>282.0</ele><time>2026-04-25T14:58:54Z</time></trkpt><trkpt lat="45.937387462247884" lon="12.211840275278954"><ele>282.0</ele><time>2026-04-25T14:58:57Z</time></trkpt><trkpt lat="45.937336433958606" lon="12.211753695785038"><ele>282.0</ele><time>2026-04-25T14:58:59.999Z</time></trkpt><trkpt lat="45.93725384457925" lon="12.211688217812437"><ele>282.0</ele><time>2026-04-25T14:59:02.999Z</time></trkpt><trkpt lat="45.93717958743504" lon="12.211667655796777"><ele>282.0</ele><time>2026-04-25T14:59:04.999Z</time></trkpt><trkpt lat="45.93710638027792" lon="12.21167763575276"><ele>282.0</ele><time>2026-04-25T14:59:06.999Z</time></trkpt><trkpt lat="45.937022412863975" lon="12.211691465648988"><ele>282.0</ele><time>2026-04-25T14:59:09.999Z</time></trkpt><trkpt lat="45.93695062273479" lon="12.211669004459726"><ele>282.0</ele><time>2026-04-25T14:59:12.999Z</time></trkpt><trkpt lat="45.93686545901633" lon="12.211663913385799"><ele>282.0</ele><time>2026-04-25T14:59:16.999Z</time></trkpt><trkpt lat="45.93678909569438" lon="12.211626022491249"><ele>282.0</ele><time>2026-04-25T14:59:18.999Z</time></trkpt><trkpt lat="45.93672085091959" lon="12.211579121724737"><ele>282.0</ele><time>2026-04-25T14:59:20.999Z</time></trkpt><trkpt lat="45.9366341888285" lon="12.211579682429543"><ele>282.0</ele><time>2026-04-25T14:59:22.999Z</time></trkpt><trkpt lat="45.936560851683716" lon="12.211577231896216"><ele>282.0</ele><time>2026-04-25T14:59:24.999Z</time></trkpt><trkpt lat="45.93648181957339" lon="12.211535357102166"><ele>281.0</ele><time>2026-04-25T14:59:28.999Z</time></trkpt><trkpt lat="45.93642587765027" lon="12.211460886635981"><ele>280.0</ele><time>2026-04-25T14:59:35.999Z</time></trkpt><trkpt lat="45.936371590881166" lon="12.211349116052162"><ele>279.0</ele><time>2026-04-25T14:59:38.999Z</time></trkpt><trkpt lat="45.9363051249653" lon="12.211257569100251"><ele>278.0</ele><time>2026-04-25T14:59:40.999Z</time></trkpt><trkpt lat="45.93620231713919" lon="12.211195933582122"><ele>277.0</ele><time>2026-04-25T14:59:42.998Z</time></trkpt><trkpt lat="45.936150314687225" lon="12.211128375914171"><ele>276.0</ele><time>2026-04-25T14:59:43.998Z</time></trkpt><trkpt lat="45.9360770832119" lon="12.211091538431537"><ele>276.0</ele><time>2026-04-25T14:59:44.998Z</time></trkpt><trkpt lat="45.936007443534535" lon="12.211067716464159"><ele>276.0</ele><time>2026-04-25T14:59:45.998Z</time></trkpt><trkpt lat="45.935944479236284" lon="12.21105209066554"><ele>276.0</ele><time>2026-04-25T14:59:46.998Z</time></trkpt><trkpt lat="45.93582359868737" lon="12.211032918470085"><ele>276.0</ele><time>2026-04-25T14:59:48.998Z</time></trkpt><trkpt lat="45.93572785344106" lon="12.211065157783985"><ele>276.0</ele><time>2026-04-25T14:59:50.998Z</time></trkpt><trkpt lat="45.93566189936034" lon="12.211066852688285"><ele>276.0</ele><time>2026-04-25T14:59:52.998Z</time></trkpt><trkpt lat="45.93558260688527" lon="12.211098157399947"><ele>277.0</ele><time>2026-04-25T14:59:54.998Z</time></trkpt><trkpt lat="45.93549187924449" lon="12.211147356309976"><ele>278.0</ele><time>2026-04-25T14:59:56.998Z</time></trkpt><trkpt lat="45.935400002029745" lon="12.211223417083849"><ele>279.0</ele><time>2026-04-25T14:59:58.998Z</time></trkpt><trkpt lat="45.93531768092843" lon="12.211321756190195"><ele>280.0</ele><time>2026-04-25T15:00:00.998Z</time></trkpt><trkpt lat="45.93526141952712" lon="12.211431886918103"><ele>281.0</ele><time>2026-04-25T15:00:02.998Z</time></trkpt><trkpt lat="45.935222092107004" lon="12.211539912168671"><ele>281.00000000000006</ele><time>2026-04-25T15:00:04.998Z</time></trkpt><trkpt lat="45.935162380142614" lon="12.211603982645855"><ele>281.0</ele><time>2026-04-25T15:00:06.998Z</time></trkpt><trkpt lat="45.93507997382145" lon="12.211616960275226"><ele>281.0</ele><time>2026-04-25T15:00:09.998Z</time></trkpt><trkpt lat="45.93501080308789" lon="12.211544112870671"><ele>281.0</ele><time>2026-04-25T15:00:12.998Z</time></trkpt><trkpt lat="45.9349721958682" lon="12.21146979216255"><ele>281.0</ele><time>2026-04-25T15:00:14.998Z</time></trkpt><trkpt lat="45.93492705977909" lon="12.211394529350086"><ele>281.00000000000006</ele><time>2026-04-25T15:00:16.998Z</time></trkpt><trkpt lat="45.93487722106651" lon="12.211318565938564"><ele>281.0</ele><time>2026-04-25T15:00:18.998Z</time></trkpt><trkpt lat="45.93482662554298" lon="12.211244313358991"><ele>282.6666666666667</ele><time>2026-04-25T15:00:20.998Z</time></trkpt><trkpt lat="45.934766235738266" lon="12.211168262977713"><ele>284.33333333333337</ele><time>2026-04-25T15:00:22.998Z</time></trkpt><trkpt lat="45.934705274312904" lon="12.211087419755415"><ele>286.0</ele><time>2026-04-25T15:00:24.998Z</time></trkpt><trkpt lat="45.93464239395086" lon="12.21100768184333"><ele>287.6666666666667</ele><time>2026-04-25T15:00:26.998Z</time></trkpt><trkpt lat="45.93457230339947" lon="12.210926808824306"><ele>289.3333333333333</ele><time>2026-04-25T15:00:28.997Z</time></trkpt><trkpt lat="45.93450191473647" lon="12.210837003052868"><ele>291.0</ele><time>2026-04-25T15:00:30.997Z</time></trkpt><trkpt lat="45.934427258460076" lon="12.210741041262395"><ele>292.2</ele><time>2026-04-25T15:00:32.997Z</time></trkpt><trkpt lat="45.93436290639279" lon="12.210625687303862"><ele>293.40000000000003</ele><time>2026-04-25T15:00:34.997Z</time></trkpt><trkpt lat="45.93431344452449" lon="12.210490759108236"><ele>294.6</ele><time>2026-04-25T15:00:37Z</time></trkpt><trkpt lat="45.93427558871809" lon="12.2103291344987"><ele>295.8</ele><time>2026-04-25T15:00:39Z</time></trkpt><trkpt lat="45.93425408426413" lon="12.21024405963568"><ele>297.0</ele><time>2026-04-25T15:00:40Z</time></trkpt><trkpt lat="45.93422878523206" lon="12.210158238758506"><ele>295.1666666666667</ele><time>2026-04-25T15:00:41Z</time></trkpt><trkpt lat="45.93419485722733" lon="12.21007225477102"><ele>293.3333333333333</ele><time>2026-04-25T15:00:42Z</time></trkpt><trkpt lat="45.93415806499626" lon="12.209983391560842"><ele>291.5</ele><time>2026-04-25T15:00:43Z</time></trkpt><trkpt lat="45.93411835376696" lon="12.209894377109443"><ele>289.66666666666663</ele><time>2026-04-25T15:00:44Z</time></trkpt><trkpt lat="45.934072235915714" lon="12.20980510811518"><ele>287.8333333333333</ele><time>2026-04-25T15:00:45Z</time></trkpt><trkpt lat="45.93402028114061" lon="12.209712042074358"><ele>286.0</ele><time>2026-04-25T15:00:46Z</time></trkpt><trkpt lat="45.93396696163823" lon="12.209614561450472"><ele>285.5</ele><time>2026-04-25T15:00:47Z</time></trkpt><trkpt lat="45.93391161760055" lon="12.20951745742428"><ele>285.0</ele><time>2026-04-25T15:00:48Z</time></trkpt><trkpt lat="45.93385403291535" lon="12.209421980382968"><ele>284.5</ele><time>2026-04-25T15:00:49Z</time></trkpt><trkpt lat="45.93379429561308" lon="12.209331748196668"><ele>284.0</ele><time>2026-04-25T15:00:50Z</time></trkpt><trkpt lat="45.93373899389939" lon="12.209242441126056"><ele>283.5</ele><time>2026-04-25T15:00:51Z</time></trkpt><trkpt lat="45.933683217174575" lon="12.209149347094968"><ele>283.0</ele><time>2026-04-25T15:00:52Z</time></trkpt><trkpt lat="45.933626325060295" lon="12.209052137696816"><ele>281.3333333333333</ele><time>2026-04-25T15:00:53Z</time></trkpt><trkpt lat="45.93355766262578" lon="12.208969043392784"><ele>279.66666666666663</ele><time>2026-04-25T15:00:54Z</time></trkpt><trkpt lat="45.933485075097" lon="12.208904759855484"><ele>278.0</ele><time>2026-04-25T15:00:55Z</time></trkpt><trkpt lat="45.9334087636981" lon="12.208854638573442"><ele>276.3333333333333</ele><time>2026-04-25T15:00:56Z</time></trkpt><trkpt lat="45.93333053357906" lon="12.208805516048"><ele>274.6666666666667</ele><time>2026-04-25T15:00:57Z</time></trkpt><trkpt lat="45.93325200231324" lon="12.208761184490102"><ele>273.0</ele><time>2026-04-25T15:00:58Z</time></trkpt><trkpt lat="45.933171528234176" lon="12.208727986552889"><ele>271.0</ele><time>2026-04-25T15:00:59Z</time></trkpt><trkpt lat="45.93308369346971" lon="12.208720740112065"><ele>269.0</ele><time>2026-04-25T15:01:00Z</time></trkpt><trkpt lat="45.932990326581766" lon="12.208739078668037"><ele>267.0</ele><time>2026-04-25T15:01:01Z</time></trkpt><trkpt lat="45.9328962431553" lon="12.208757811613049"><ele>265.0</ele><time>2026-04-25T15:01:02Z</time></trkpt><trkpt lat="45.93280141342321" lon="12.208740199066089"><ele>263.0</ele><time>2026-04-25T15:01:03Z</time></trkpt><trkpt lat="45.932718174565025" lon="12.208696073973469"><ele>263.0</ele><time>2026-04-25T15:01:04Z</time></trkpt><trkpt lat="45.932638686165646" lon="12.20864388929138"><ele>263.0</ele><time>2026-04-25T15:01:05Z</time></trkpt><trkpt lat="45.932558726452044" lon="12.208594790552556"><ele>263.0</ele><time>2026-04-25T15:01:06Z</time></trkpt><trkpt lat="45.932472547468166" lon="12.208560911016892"><ele>263.0</ele><time>2026-04-25T15:01:07Z</time></trkpt><trkpt lat="45.93238441951602" lon="12.208543964487104"><ele>263.0</ele><time>2026-04-25T15:01:08Z</time></trkpt><trkpt lat="45.93229151351788" lon="12.208555297138423"><ele>263.0</ele><time>2026-04-25T15:01:09Z</time></trkpt><trkpt lat="45.932196046043735" lon="12.208586472203898"><ele>261.4</ele><time>2026-04-25T15:01:10Z</time></trkpt><trkpt lat="45.932098512803165" lon="12.208648903926118"><ele>259.8</ele><time>2026-04-25T15:01:11Z</time></trkpt><trkpt lat="45.932002956116214" lon="12.20871748983068"><ele>258.2</ele><time>2026-04-25T15:01:12Z</time></trkpt><trkpt lat="45.93190907025625" lon="12.20880936551188"><ele>256.6</ele><time>2026-04-25T15:01:13Z</time></trkpt><trkpt lat="45.93181791754257" lon="12.208900500544724"><ele>255.0</ele><time>2026-04-25T15:01:14Z</time></trkpt><trkpt lat="45.9317313671357" lon="12.208990638506632"><ele>254.6</ele><time>2026-04-25T15:01:15Z</time></trkpt><trkpt lat="45.93164322364014" lon="12.209074991856369"><ele>254.2</ele><time>2026-04-25T15:01:16Z</time></trkpt><trkpt lat="45.93154752772838" lon="12.209136589242032"><ele>253.8</ele><time>2026-04-25T15:01:17Z</time></trkpt><trkpt lat="45.93146129435347" lon="12.209208230624524"><ele>253.4</ele><time>2026-04-25T15:01:17.999Z</time></trkpt><trkpt lat="45.93136951020369" lon="12.20927115865822"><ele>253.0</ele><time>2026-04-25T15:01:18.999Z</time></trkpt><trkpt lat="45.93127056438493" lon="12.209281357075467"><ele>252.99999999999997</ele><time>2026-04-25T15:01:19.999Z</time></trkpt><trkpt lat="45.931185954479695" lon="12.209301475852739"><ele>253.0</ele><time>2026-04-25T15:01:20.999Z</time></trkpt><trkpt lat="45.9311021174288" lon="12.209343242648615"><ele>253.0</ele><time>2026-04-25T15:01:21.999Z</time></trkpt><trkpt lat="45.93101701152467" lon="12.209367055468585"><ele>253.0</ele><time>2026-04-25T15:01:22.999Z</time></trkpt><trkpt lat="45.93094081188933" lon="12.209379047321814"><ele>252.99999999999997</ele><time>2026-04-25T15:01:23.999Z</time></trkpt><trkpt lat="45.93086309807128" lon="12.209381769113755"><ele>253.0</ele><time>2026-04-25T15:01:24.999Z</time></trkpt><trkpt lat="45.93077772517879" lon="12.209388026953256"><ele>253.33333333333331</ele><time>2026-04-25T15:01:25.999Z</time></trkpt><trkpt lat="45.930692963691826" lon="12.209398494845315"><ele>253.66666666666666</ele><time>2026-04-25T15:01:26.999Z</time></trkpt><trkpt lat="45.93061101590093" lon="12.209402153513016"><ele>254.0</ele><time>2026-04-25T15:01:27.999Z</time></trkpt><trkpt lat="45.93052801976157" lon="12.209390986368422"><ele>254.33333333333331</ele><time>2026-04-25T15:01:28.999Z</time></trkpt><trkpt lat="45.93044650938187" lon="12.209378615570706"><ele>254.66666666666666</ele><time>2026-04-25T15:01:29.999Z</time></trkpt><trkpt lat="45.9303666124569" lon="12.209397003589492"><ele>255.0</ele><time>2026-04-25T15:01:30.999Z</time></trkpt><trkpt lat="45.9302931389084" lon="12.209445149444997"><ele>255.0</ele><time>2026-04-25T15:01:31.999Z</time></trkpt><trkpt lat="45.930225625290554" lon="12.209497288426139"><ele>255.0</ele><time>2026-04-25T15:01:32.999Z</time></trkpt><trkpt lat="45.93016384404559" lon="12.209554824735864"><ele>255.0</ele><time>2026-04-25T15:01:33.999Z</time></trkpt><trkpt lat="45.93010967851041" lon="12.209604660727868"><ele>255.0</ele><time>2026-04-25T15:01:34.999Z</time></trkpt><trkpt lat="45.93002407210966" lon="12.20971861143399"><ele>255.0</ele><time>2026-04-25T15:01:36.999Z</time></trkpt><trkpt lat="45.92998374875663" lon="12.20988265408018"><ele>252.5</ele><time>2026-04-25T15:01:38.999Z</time></trkpt><trkpt lat="45.92994787102531" lon="12.210049781819647"><ele>250.0</ele><time>2026-04-25T15:01:40.999Z</time></trkpt><trkpt lat="45.929916490004665" lon="12.210211397706791"><ele>247.5</ele><time>2026-04-25T15:01:42.999Z</time></trkpt><trkpt lat="45.92981754252685" lon="12.210297645127897"><ele>245.0</ele><time>2026-04-25T15:01:44.999Z</time></trkpt><trkpt lat="45.929717598372456" lon="12.210339718202349"><ele>245.0</ele><time>2026-04-25T15:01:46.999Z</time></trkpt><trkpt lat="45.92962432373447" lon="12.210371542971822"><ele>245.0</ele><time>2026-04-25T15:01:48.999Z</time></trkpt><trkpt lat="45.92953702637342" lon="12.210398592017379"><ele>245.0</ele><time>2026-04-25T15:01:50.999Z</time></trkpt><trkpt lat="45.929449894171356" lon="12.210423986658897"><ele>245.0</ele><time>2026-04-25T15:01:52.999Z</time></trkpt><trkpt lat="45.929349149528726" lon="12.21043833135724"><ele>245.0</ele><time>2026-04-25T15:01:54.999Z</time></trkpt><trkpt lat="45.92923795113307" lon="12.210426039717255"><ele>243.75</ele><time>2026-04-25T15:01:56.999Z</time></trkpt><trkpt lat="45.92912118600734" lon="12.21041303049054"><ele>242.5</ele><time>2026-04-25T15:01:58.999Z</time></trkpt><trkpt lat="45.92900632833024" lon="12.210393001990425"><ele>241.25</ele><time>2026-04-25T15:02:00.999Z</time></trkpt><trkpt lat="45.928894964103215" lon="12.210379379903777"><ele>240.0</ele><time>2026-04-25T15:02:02.998Z</time></trkpt><trkpt lat="45.92878477747588" lon="12.210370057018626"><ele>240.0</ele><time>2026-04-25T15:02:04.998Z</time></trkpt><trkpt lat="45.92867849717956" lon="12.210356128615695"><ele>240.0</ele><time>2026-04-25T15:02:06.998Z</time></trkpt><trkpt lat="45.92857666076715" lon="12.210336352957718"><ele>240.0</ele><time>2026-04-25T15:02:08.998Z</time></trkpt><trkpt lat="45.92846749997891" lon="12.210271308670682"><ele>240.0</ele><time>2026-04-25T15:02:10.998Z</time></trkpt><trkpt lat="45.92841384601161" lon="12.210214054892246"><ele>240.0</ele><time>2026-04-25T15:02:11.998Z</time></trkpt><trkpt lat="45.9283648195935" lon="12.210145834622724"><ele>239.42857142857144</ele><time>2026-04-25T15:02:12.998Z</time></trkpt><trkpt lat="45.92832056157031" lon="12.210068851146904"><ele>238.85714285714283</ele><time>2026-04-25T15:02:13.998Z</time></trkpt><trkpt lat="45.92827267712636" lon="12.209997621798664"><ele>238.28571428571428</ele><time>2026-04-25T15:02:14.998Z</time></trkpt><trkpt lat="45.928217947192394" lon="12.209942830323781"><ele>237.71428571428572</ele><time>2026-04-25T15:02:15.998Z</time></trkpt><trkpt lat="45.928158405047206" lon="12.209906103412138"><ele>237.14285714285717</ele><time>2026-04-25T15:02:16.998Z</time></trkpt><trkpt lat="45.928095233461825" lon="12.209894041108893"><ele>236.57142857142856</ele><time>2026-04-25T15:02:17.998Z</time></trkpt><trkpt lat="45.928031108737486" lon="12.209909597149252"><ele>236.0</ele><time>2026-04-25T15:02:18.998Z</time></trkpt><trkpt lat="45.92796770245381" lon="12.209950786629339"><ele>236.00000000000003</ele><time>2026-04-25T15:02:19.998Z</time></trkpt><trkpt lat="45.927903559405934" lon="12.210002545787225"><ele>236.0</ele><time>2026-04-25T15:02:20.998Z</time></trkpt><trkpt lat="45.92783540923829" lon="12.210056559504006"><ele>236.0</ele><time>2026-04-25T15:02:21.998Z</time></trkpt><trkpt lat="45.927762497368974" lon="12.210098546355024"><ele>236.0</ele><time>2026-04-25T15:02:22.998Z</time></trkpt><trkpt lat="45.927687925082424" lon="12.210139217140275"><ele>236.00000000000003</ele><time>2026-04-25T15:02:23.998Z</time></trkpt><trkpt lat="45.92761522458601" lon="12.210181158124309"><ele>236.0</ele><time>2026-04-25T15:02:24.998Z</time></trkpt><trkpt lat="45.92754566035195" lon="12.210225181898439"><ele>235.00000000000003</ele><time>2026-04-25T15:02:25.998Z</time></trkpt><trkpt lat="45.927448153239524" lon="12.210319980231096"><ele>234.0</ele><time>2026-04-25T15:02:27.998Z</time></trkpt><trkpt lat="45.92736861500108" lon="12.21039746895308"><ele>233.0</ele><time>2026-04-25T15:02:29.998Z</time></trkpt><trkpt lat="45.92730118957443" lon="12.21044727596977"><ele>232.0</ele><time>2026-04-25T15:02:31.998Z</time></trkpt><trkpt lat="45.927229596362196" lon="12.210432264985194"><ele>231.00000000000003</ele><time>2026-04-25T15:02:33.998Z</time></trkpt><trkpt lat="45.92716504210413" lon="12.2104056258921"><ele>230.0</ele><time>2026-04-25T15:02:36.998Z</time></trkpt><trkpt lat="45.927213906920606" lon="12.210235152927055"><ele>230.0</ele><time>2026-04-25T15:02:37.998Z</time></trkpt><trkpt lat="45.92724522972852" lon="12.2101052964949"><ele>230.0</ele><time>2026-04-25T15:02:39.998Z</time></trkpt><trkpt lat="45.92726262421658" lon="12.209954520085477"><ele>230.0</ele><time>2026-04-25T15:02:42Z</time></trkpt><trkpt lat="45.92725849776449" lon="12.209776638665227"><ele>230.0</ele><time>2026-04-25T15:02:44Z</time></trkpt><trkpt lat="45.92724270495403" lon="12.209675572716204"><ele>230.0</ele><time>2026-04-25T15:02:45Z</time></trkpt><trkpt lat="45.9272139928207" lon="12.209574009893437"><ele>229.16666666666669</ele><time>2026-04-25T15:02:46Z</time></trkpt><trkpt lat="45.92717072456762" lon="12.209473668201978"><ele>228.33333333333334</ele><time>2026-04-25T15:02:47Z</time></trkpt><trkpt lat="45.92711311805099" lon="12.209382662759783"><ele>227.5</ele><time>2026-04-25T15:02:48Z</time></trkpt><trkpt lat="45.92704360856089" lon="12.209308958748219"><ele>226.66666666666669</ele><time>2026-04-25T15:02:49Z</time></trkpt><trkpt lat="45.92696471053817" lon="12.209256150456621"><ele>225.83333333333334</ele><time>2026-04-25T15:02:50Z</time></trkpt><trkpt lat="45.92687826689294" lon="12.209226343269728"><ele>225.0</ele><time>2026-04-25T15:02:51Z</time></trkpt><trkpt lat="45.92678695800946" lon="12.209205322492782"><ele>224.8</ele><time>2026-04-25T15:02:52Z</time></trkpt><trkpt lat="45.92669624142509" lon="12.209187338647768"><ele>224.6</ele><time>2026-04-25T15:02:53Z</time></trkpt><trkpt lat="45.92660022167422" lon="12.209178561261808"><ele>224.39999999999998</ele><time>2026-04-25T15:02:54Z</time></trkpt><trkpt lat="45.92650333091784" lon="12.209170572835383"><ele>224.2</ele><time>2026-04-25T15:02:55Z</time></trkpt><trkpt lat="45.92640578297329" lon="12.209158344029687"><ele>224.0</ele><time>2026-04-25T15:02:56Z</time></trkpt><trkpt lat="45.92630692465292" lon="12.209151303854776"><ele>224.0</ele><time>2026-04-25T15:02:57Z</time></trkpt><trkpt lat="45.9262088002125" lon="12.209151602726132"><ele>223.99999999999997</ele><time>2026-04-25T15:02:58Z</time></trkpt><trkpt lat="45.926112016283824" lon="12.209167065894652"><ele>223.99999999999997</ele><time>2026-04-25T15:02:59Z</time></trkpt><trkpt lat="45.926019467948095" lon="12.209185462918057"><ele>224.0</ele><time>2026-04-25T15:03:00Z</time></trkpt><trkpt lat="45.925925201712104" lon="12.209210799121736"><ele>224.0</ele><time>2026-04-25T15:03:01Z</time></trkpt><trkpt lat="45.92583215439557" lon="12.209240124053037"><ele>222.39999999999998</ele><time>2026-04-25T15:03:02Z</time></trkpt><trkpt lat="45.92573574620372" lon="12.209269049561504"><ele>220.79999999999998</ele><time>2026-04-25T15:03:03Z</time></trkpt><trkpt lat="45.925638016651355" lon="12.20929969483796"><ele>219.20000000000002</ele><time>2026-04-25T15:03:04Z</time></trkpt><trkpt lat="45.92554340400965" lon="12.209328199143123"><ele>217.60000000000002</ele><time>2026-04-25T15:03:05Z</time></trkpt><trkpt lat="45.92545330076204" lon="12.20934715319836"><ele>216.0</ele><time>2026-04-25T15:03:06Z</time></trkpt><trkpt lat="45.92537059592832" lon="12.209357915771415"><ele>216.0</ele><time>2026-04-25T15:03:07Z</time></trkpt><trkpt lat="45.925289746831055" lon="12.209364226887297"><ele>216.0</ele><time>2026-04-25T15:03:08Z</time></trkpt><trkpt lat="45.925213832607334" lon="12.209355956396637"><ele>216.0</ele><time>2026-04-25T15:03:09Z</time></trkpt><trkpt lat="45.925142830357224" lon="12.209323782404079"><ele>216.0</ele><time>2026-04-25T15:03:10Z</time></trkpt><trkpt lat="45.92507743431817" lon="12.209278478661592"><ele>216.0</ele><time>2026-04-25T15:03:11Z</time></trkpt><trkpt lat="45.925013518034504" lon="12.209227003021272"><ele>216.0</ele><time>2026-04-25T15:03:12Z</time></trkpt><trkpt lat="45.924953929466085" lon="12.20916658492798"><ele>215.0</ele><time>2026-04-25T15:03:13Z</time></trkpt><trkpt lat="45.924899168141486" lon="12.209090366855099"><ele>214.0</ele><time>2026-04-25T15:03:14Z</time></trkpt><trkpt lat="45.924850339982605" lon="12.20900408492834"><ele>213.0</ele><time>2026-04-25T15:03:15Z</time></trkpt><trkpt lat="45.92480228807629" lon="12.208910439898997"><ele>212.0</ele><time>2026-04-25T15:03:16Z</time></trkpt><trkpt lat="45.9247566743251" lon="12.208817421725522"><ele>211.0</ele><time>2026-04-25T15:03:17Z</time></trkpt><trkpt lat="45.92470978279225" lon="12.208724130381317"><ele>210.0</ele><time>2026-04-25T15:03:18Z</time></trkpt><trkpt lat="45.92466880502481" lon="12.208635468635277"><ele>209.0</ele><time>2026-04-25T15:03:19Z</time></trkpt><trkpt lat="45.924631592610694" lon="12.20855515100818"><ele>208.0</ele><time>2026-04-25T15:03:20Z</time></trkpt><trkpt lat="45.924555468031194" lon="12.208410290914633"><ele>207.0</ele><time>2026-04-25T15:03:22Z</time></trkpt><trkpt lat="45.92450439666801" lon="12.208289029913377"><ele>206.0</ele><time>2026-04-25T15:03:24Z</time></trkpt><trkpt lat="45.92450407410067" lon="12.208176593978264"><ele>205.0</ele><time>2026-04-25T15:03:26Z</time></trkpt><trkpt lat="45.92457445206006" lon="12.208082049561924"><ele>204.83333333333331</ele><time>2026-04-25T15:03:28Z</time></trkpt><trkpt lat="45.924649665959265" lon="12.208045507206222"><ele>204.66666666666666</ele><time>2026-04-25T15:03:30Z</time></trkpt><trkpt lat="45.92470503889396" lon="12.207999113484298"><ele>204.5</ele><time>2026-04-25T15:03:32Z</time></trkpt><trkpt lat="45.92468866275706" lon="12.207855011404423"><ele>204.33333333333331</ele><time>2026-04-25T15:03:34Z</time></trkpt><trkpt lat="45.924669516522" lon="12.20774238484974"><ele>204.16666666666666</ele><time>2026-04-25T15:03:35.999Z</time></trkpt><trkpt lat="45.92466039330801" lon="12.207596577581064"><ele>204.0</ele><time>2026-04-25T15:03:37.999Z</time></trkpt><trkpt lat="45.924693802391914" lon="12.20742719089121"><ele>203.2</ele><time>2026-04-25T15:03:39.998Z</time></trkpt><trkpt lat="45.924759565821724" lon="12.207303006842674"><ele>202.39999999999998</ele><time>2026-04-25T15:03:41.998Z</time></trkpt><trkpt lat="45.924815620687546" lon="12.207163521625395"><ele>201.6</ele><time>2026-04-25T15:03:43.998Z</time></trkpt><trkpt lat="45.924891868102286" lon="12.207020306588038"><ele>200.8</ele><time>2026-04-25T15:03:45.998Z</time></trkpt><trkpt lat="45.92492981309431" lon="12.206936612169747"><ele>200.0</ele><time>2026-04-25T15:03:46.998Z</time></trkpt><trkpt lat="45.92496779040363" lon="12.206853727466024"><ele>200.00000000000003</ele><time>2026-04-25T15:03:47.998Z</time></trkpt><trkpt lat="45.924996718864016" lon="12.206765949024293"><ele>200.0</ele><time>2026-04-25T15:03:48.998Z</time></trkpt><trkpt lat="45.925009972348015" lon="12.206667618963335"><ele>200.0</ele><time>2026-04-25T15:03:49.998Z</time></trkpt><trkpt lat="45.92501122006646" lon="12.2065587217067"><ele>200.0</ele><time>2026-04-25T15:03:50.998Z</time></trkpt><trkpt lat="45.92500351961126" lon="12.206452495311268"><ele>200.00000000000003</ele><time>2026-04-25T15:03:51.998Z</time></trkpt><trkpt lat="45.92501162246148" lon="12.206336092142768"><ele>200.0</ele><time>2026-04-25T15:03:52.998Z</time></trkpt><trkpt lat="45.925014538237654" lon="12.20621971532759"><ele>199.2857142857143</ele><time>2026-04-25T15:03:53.998Z</time></trkpt><trkpt lat="45.925019955272006" lon="12.206109544876629"><ele>198.57142857142858</ele><time>2026-04-25T15:03:54.998Z</time></trkpt><trkpt lat="45.92501883016352" lon="12.205997624835158"><ele>197.85714285714286</ele><time>2026-04-25T15:03:55.998Z</time></trkpt><trkpt lat="45.92501885662666" lon="12.205894973156353"><ele>197.14285714285717</ele><time>2026-04-25T15:03:56.998Z</time></trkpt><trkpt lat="45.925012601610455" lon="12.20579373587613"><ele>196.42857142857142</ele><time>2026-04-25T15:03:57.998Z</time></trkpt><trkpt lat="45.924996494180334" lon="12.205703847523914"><ele>195.71428571428572</ele><time>2026-04-25T15:03:58.998Z</time></trkpt><trkpt lat="45.92496101201398" lon="12.205622477874897"><ele>195.0</ele><time>2026-04-25T15:03:59.998Z</time></trkpt><trkpt lat="45.924911806029236" lon="12.205552245131928"><ele>193.0</ele><time>2026-04-25T15:04:00.998Z</time></trkpt><trkpt lat="45.92484801646971" lon="12.205508528886849"><ele>191.0</ele><time>2026-04-25T15:04:01.998Z</time></trkpt><trkpt lat="45.924777350437154" lon="12.205477148549926"><ele>189.0</ele><time>2026-04-25T15:04:02.998Z</time></trkpt><trkpt lat="45.92471026291479" lon="12.205450382853348"><ele>187.0</ele><time>2026-04-25T15:04:03.998Z</time></trkpt><trkpt lat="45.92464747447504" lon="12.205430039853367"><ele>185.0</ele><time>2026-04-25T15:04:04.998Z</time></trkpt><trkpt lat="45.92453452962564" lon="12.205403019625045"><ele>183.0</ele><time>2026-04-25T15:04:06.998Z</time></trkpt><trkpt lat="45.92446959363313" lon="12.205317247459293"><ele>183.0</ele><time>2026-04-25T15:04:08.998Z</time></trkpt><trkpt lat="45.924605126088046" lon="12.205190804444449"><ele>183.0</ele><time>2026-04-25T15:04:11.998Z</time></trkpt><trkpt lat="45.92467429704273" lon="12.20517098882317"><ele>183.0</ele><time>2026-04-25T15:04:12.998Z</time></trkpt><trkpt lat="45.924743541216806" lon="12.205154154429739"><ele>183.0</ele><time>2026-04-25T15:04:13.998Z</time></trkpt><trkpt lat="45.924816835356744" lon="12.205135578435973"><ele>183.0</ele><time>2026-04-25T15:04:14.998Z</time></trkpt><trkpt lat="45.92489163651588" lon="12.205112720740527"><ele>183.0</ele><time>2026-04-25T15:04:15.998Z</time></trkpt><trkpt lat="45.924970118535846" lon="12.20507986237244"><ele>183.0</ele><time>2026-04-25T15:04:16.998Z</time></trkpt><trkpt lat="45.92504703017596" lon="12.205029004117648"><ele>183.0</ele><time>2026-04-25T15:04:17.998Z</time></trkpt><trkpt lat="45.92511982165297" lon="12.204962209144501"><ele>183.0</ele><time>2026-04-25T15:04:18.998Z</time></trkpt><trkpt lat="45.925176680199016" lon="12.20486025099722"><ele>183.0</ele><time>2026-04-25T15:04:19.998Z</time></trkpt><trkpt lat="45.9252512408429" lon="12.204785822541217"><ele>183.0</ele><time>2026-04-25T15:04:20.998Z</time></trkpt><trkpt lat="45.92530682224067" lon="12.204679437924753"><ele>182.66666666666666</ele><time>2026-04-25T15:04:21.998Z</time></trkpt><trkpt lat="45.92536693802401" lon="12.204582543570236"><ele>182.33333333333334</ele><time>2026-04-25T15:04:22.997Z</time></trkpt><trkpt lat="45.92541531025217" lon="12.204471981323007"><ele>182.0</ele><time>2026-04-25T15:04:23.997Z</time></trkpt><trkpt lat="45.92546896442966" lon="12.204370515811698"><ele>181.66666666666669</ele><time>2026-04-25T15:04:24.997Z</time></trkpt><trkpt lat="45.925507847364266" lon="12.204258793437674"><ele>181.33333333333334</ele><time>2026-04-25T15:04:25.997Z</time></trkpt><trkpt lat="45.92552564559373" lon="12.20413251946722"><ele>181.0</ele><time>2026-04-25T15:04:26.997Z</time></trkpt><trkpt lat="45.92552360606584" lon="12.204008980855068"><ele>181.28571428571428</ele><time>2026-04-25T15:04:27.997Z</time></trkpt><trkpt lat="45.92551989899521" lon="12.203895157198982"><ele>181.57142857142856</ele><time>2026-04-25T15:04:28.997Z</time></trkpt><trkpt lat="45.925514558306226" lon="12.20378896067523"><ele>181.85714285714286</ele><time>2026-04-25T15:04:29.997Z</time></trkpt><trkpt lat="45.925506048006326" lon="12.203684423141858"><ele>182.14285714285714</ele><time>2026-04-25T15:04:30.997Z</time></trkpt><trkpt lat="45.9254987037515" lon="12.203588906015714"><ele>182.42857142857144</ele><time>2026-04-25T15:04:31.997Z</time></trkpt><trkpt lat="45.92549311484382" lon="12.203493944264563"><ele>182.71428571428572</ele><time>2026-04-25T15:04:32.997Z</time></trkpt><trkpt lat="45.92548931238473" lon="12.203401713595008"><ele>183.0</ele><time>2026-04-25T15:04:33.997Z</time></trkpt><trkpt lat="45.92548500447797" lon="12.203311029203181"><ele>183.0</ele><time>2026-04-25T15:04:34.997Z</time></trkpt><trkpt lat="45.92547614450226" lon="12.203219335634891"><ele>183.0</ele><time>2026-04-25T15:04:35.997Z</time></trkpt><trkpt lat="45.925466390444264" lon="12.203127239159262"><ele>183.0</ele><time>2026-04-25T15:04:36.997Z</time></trkpt><trkpt lat="45.92545436712364" lon="12.20303290284191"><ele>183.0</ele><time>2026-04-25T15:04:37.997Z</time></trkpt><trkpt lat="45.92543719401578" lon="12.202933409132784"><ele>183.0</ele><time>2026-04-25T15:04:38.997Z</time></trkpt><trkpt lat="45.92540939438381" lon="12.202841776475003"><ele>183.0</ele><time>2026-04-25T15:04:39.997Z</time></trkpt><trkpt lat="45.92537490323988" lon="12.202746714503665"><ele>183.0</ele><time>2026-04-25T15:04:40.997Z</time></trkpt><trkpt lat="45.92533250868863" lon="12.202652043982466"><ele>182.5</ele><time>2026-04-25T15:04:41.997Z</time></trkpt><trkpt lat="45.925280352971804" lon="12.202559592373778"><ele>182.0</ele><time>2026-04-25T15:04:42.997Z</time></trkpt><trkpt lat="45.925222385406464" lon="12.202467182580433"><ele>181.5</ele><time>2026-04-25T15:04:43.997Z</time></trkpt><trkpt lat="45.92515866215482" lon="12.202375927499707"><ele>181.0</ele><time>2026-04-25T15:04:44.997Z</time></trkpt><trkpt lat="45.92509968409324" lon="12.202290543067186"><ele>180.5</ele><time>2026-04-25T15:04:45.997Z</time></trkpt><trkpt lat="45.92506614287116" lon="12.202199164360357"><ele>180.0</ele><time>2026-04-25T15:04:46.997Z</time></trkpt><trkpt lat="45.92507015068523" lon="12.202089613366018"><ele>178.83333333333334</ele><time>2026-04-25T15:04:48Z</time></trkpt><trkpt lat="45.92511206583649" lon="12.201992827474545"><ele>177.66666666666666</ele><time>2026-04-25T15:04:49Z</time></trkpt><trkpt lat="45.92519913405767" lon="12.20196171108742"><ele>176.5</ele><time>2026-04-25T15:04:50Z</time></trkpt><trkpt lat="45.92526413075834" lon="12.201919842509325"><ele>175.33333333333331</ele><time>2026-04-25T15:04:51Z</time></trkpt><trkpt lat="45.92532748189869" lon="12.201869408654563"><ele>174.16666666666666</ele><time>2026-04-25T15:04:52Z</time></trkpt><trkpt lat="45.92539246127915" lon="12.201820756834293"><ele>173.0</ele><time>2026-04-25T15:04:53Z</time></trkpt><trkpt lat="45.925451518043026" lon="12.201750247740662"><ele>173.0</ele><time>2026-04-25T15:04:54Z</time></trkpt><trkpt lat="45.92552122583588" lon="12.20170246942996"><ele>173.0</ele><time>2026-04-25T15:04:55Z</time></trkpt><trkpt lat="45.9255862353052" lon="12.201662971943293"><ele>173.0</ele><time>2026-04-25T15:04:56Z</time></trkpt><trkpt lat="45.92564394712523" lon="12.201618356420518"><ele>173.0</ele><time>2026-04-25T15:04:57Z</time></trkpt><trkpt lat="45.92570463121674" lon="12.201571978211085"><ele>173.0</ele><time>2026-04-25T15:04:58Z</time></trkpt><trkpt lat="45.925762655256776" lon="12.201520172207168"><ele>173.0</ele><time>2026-04-25T15:04:59Z</time></trkpt><trkpt lat="45.9258240119792" lon="12.201465204802787"><ele>173.0</ele><time>2026-04-25T15:05:00Z</time></trkpt><trkpt lat="45.92587677921705" lon="12.2013932684011"><ele>174.33333333333331</ele><time>2026-04-25T15:05:01Z</time></trkpt><trkpt lat="45.92592624597401" lon="12.201318667305094"><ele>175.66666666666666</ele><time>2026-04-25T15:05:02Z</time></trkpt><trkpt lat="45.92597610058375" lon="12.201247369773446"><ele>177.0</ele><time>2026-04-25T15:05:03Z</time></trkpt><trkpt lat="45.926023703518624" lon="12.201170282111848"><ele>178.33333333333334</ele><time>2026-04-25T15:05:04Z</time></trkpt><trkpt lat="45.92606675045662" lon="12.201091062709262"><ele>179.66666666666669</ele><time>2026-04-25T15:05:05Z</time></trkpt><trkpt lat="45.926105256770114" lon="12.201014498325739"><ele>181.0</ele><time>2026-04-25T15:05:06Z</time></trkpt><trkpt lat="45.92617302635064" lon="12.200873056417281"><ele>181.0</ele><time>2026-04-25T15:05:08Z</time></trkpt><trkpt lat="45.92623287706734" lon="12.200747892471162"><ele>181.0</ele><time>2026-04-25T15:05:10Z</time></trkpt><trkpt lat="45.92628521790357" lon="12.200624858834868"><ele>181.0</ele><time>2026-04-25T15:05:12Z</time></trkpt><trkpt lat="45.926339495807596" lon="12.200505953343942"><ele>181.0</ele><time>2026-04-25T15:05:13.999Z</time></trkpt><trkpt lat="45.92638797002352" lon="12.20040142518048"><ele>181.0</ele><time>2026-04-25T15:05:15.999Z</time></trkpt><trkpt lat="45.92643091590352" lon="12.200290521753601"><ele>180.20000000000002</ele><time>2026-04-25T15:05:17.999Z</time></trkpt><trkpt lat="45.92646531454304" lon="12.200176695939007"><ele>179.4</ele><time>2026-04-25T15:05:19.999Z</time></trkpt><trkpt lat="45.926489774420666" lon="12.200052549621642"><ele>178.6</ele><time>2026-04-25T15:05:21.999Z</time></trkpt><trkpt lat="45.92651142778599" lon="12.19991951111691"><ele>177.8</ele><time>2026-04-25T15:05:23.999Z</time></trkpt><trkpt lat="45.92654257504959" lon="12.199786067258987"><ele>177.0</ele><time>2026-04-25T15:05:25.999Z</time></trkpt><trkpt lat="45.926592053257224" lon="12.199651904943748"><ele>176.5</ele><time>2026-04-25T15:05:27.999Z</time></trkpt><trkpt lat="45.92666073742905" lon="12.199532946324158"><ele>176.0</ele><time>2026-04-25T15:05:29.999Z</time></trkpt><trkpt lat="45.92674248491805" lon="12.199406609209227"><ele>175.5</ele><time>2026-04-25T15:05:31.999Z</time></trkpt><trkpt lat="45.92678630914" lon="12.199335258929576"><ele>175.0</ele><time>2026-04-25T15:05:32.999Z</time></trkpt><trkpt lat="45.9268376993312" lon="12.19926892381755"><ele>174.5</ele><time>2026-04-25T15:05:33.999Z</time></trkpt><trkpt lat="45.92689824393461" lon="12.199203230549406"><ele>174.0</ele><time>2026-04-25T15:05:34.999Z</time></trkpt><trkpt lat="45.926967953880705" lon="12.199151204456342"><ele>174.0</ele><time>2026-04-25T15:05:35.999Z</time></trkpt><trkpt lat="45.92705127314257" lon="12.199127856608081"><ele>174.0</ele><time>2026-04-25T15:05:36.999Z</time></trkpt><trkpt lat="45.92714007074016" lon="12.199123594650809"><ele>174.0</ele><time>2026-04-25T15:05:37.999Z</time></trkpt><trkpt lat="45.92723118227484" lon="12.199148588154856"><ele>174.0</ele><time>2026-04-25T15:05:38.999Z</time></trkpt><trkpt lat="45.927319726571056" lon="12.199180469658748"><ele>174.0</ele><time>2026-04-25T15:05:39.999Z</time></trkpt><trkpt lat="45.92740895169967" lon="12.199237247179921"><ele>174.0</ele><time>2026-04-25T15:05:40.999Z</time></trkpt><trkpt lat="45.92750424939836" lon="12.199248085878581"><ele>174.0</ele><time>2026-04-25T15:05:41.999Z</time></trkpt><trkpt lat="45.92760868021686" lon="12.199193298732688"><ele>174.0</ele><time>2026-04-25T15:05:42.999Z</time></trkpt><trkpt lat="45.9277005560763" lon="12.199139771985106"><ele>174.0</ele><time>2026-04-25T15:05:43.999Z</time></trkpt><trkpt lat="45.927779519856834" lon="12.19905625224092"><ele>174.0</ele><time>2026-04-25T15:05:44.999Z</time></trkpt><trkpt lat="45.92786377166054" lon="12.198991696640876"><ele>172.2</ele><time>2026-04-25T15:05:45.999Z</time></trkpt><trkpt lat="45.92794389809032" lon="12.198926374982477"><ele>170.39999999999998</ele><time>2026-04-25T15:05:46.999Z</time></trkpt><trkpt lat="45.92802270700304" lon="12.19885619272902"><ele>168.6</ele><time>2026-04-25T15:05:47.999Z</time></trkpt><trkpt lat="45.92810971568736" lon="12.198806466846278"><ele>166.8</ele><time>2026-04-25T15:05:48.999Z</time></trkpt><trkpt lat="45.92817742300122" lon="12.19871749201208"><ele>165.0</ele><time>2026-04-25T15:05:49.999Z</time></trkpt><trkpt lat="45.928251793044666" lon="12.198656320128222"><ele>165.0</ele><time>2026-04-25T15:05:50.999Z</time></trkpt><trkpt lat="45.92832139965988" lon="12.198586532176702"><ele>165.0</ele><time>2026-04-25T15:05:51.999Z</time></trkpt><trkpt lat="45.92838250029727" lon="12.198500605741064"><ele>165.0</ele><time>2026-04-25T15:05:52.999Z</time></trkpt><trkpt lat="45.928442992834185" lon="12.198403878980399"><ele>165.0</ele><time>2026-04-25T15:05:53.999Z</time></trkpt><trkpt lat="45.9284988713767" lon="12.19829756267901"><ele>165.0</ele><time>2026-04-25T15:05:54.999Z</time></trkpt><trkpt lat="45.9285584696207" lon="12.198187994807453"><ele>164.0</ele><time>2026-04-25T15:05:55.999Z</time></trkpt><trkpt lat="45.928639978830674" lon="12.198104923558276"><ele>163.0</ele><time>2026-04-25T15:05:56.999Z</time></trkpt><trkpt lat="45.928718713895115" lon="12.198019213098936"><ele>162.0</ele><time>2026-04-25T15:05:57.998Z</time></trkpt><trkpt lat="45.92880739634262" lon="12.197958102657193"><ele>161.0</ele><time>2026-04-25T15:05:58.998Z</time></trkpt><trkpt lat="45.928900795917706" lon="12.197929545116121"><ele>160.0</ele><time>2026-04-25T15:05:59.998Z</time></trkpt><trkpt lat="45.92899698043575" lon="12.197904188446923"><ele>160.0</ele><time>2026-04-25T15:06:00.998Z</time></trkpt><trkpt lat="45.92908880950664" lon="12.197886841707886"><ele>160.0</ele><time>2026-04-25T15:06:01.998Z</time></trkpt><trkpt lat="45.929181476393076" lon="12.197871439538398"><ele>160.0</ele><time>2026-04-25T15:06:02.998Z</time></trkpt><trkpt lat="45.92927272587216" lon="12.197857959158762"><ele>160.0</ele><time>2026-04-25T15:06:03.998Z</time></trkpt><trkpt lat="45.92936036645715" lon="12.197843862853377"><ele>160.0</ele><time>2026-04-25T15:06:04.998Z</time></trkpt><trkpt lat="45.929446319488974" lon="12.197830037968691"><ele>160.5</ele><time>2026-04-25T15:06:05.998Z</time></trkpt><trkpt lat="45.92952998408806" lon="12.197816581175184"><ele>161.0</ele><time>2026-04-25T15:06:06.998Z</time></trkpt><trkpt lat="45.9296137857912" lon="12.197803102318499"><ele>161.5</ele><time>2026-04-25T15:06:07.998Z</time></trkpt><trkpt lat="45.929697771344635" lon="12.197789593892745"><ele>162.0</ele><time>2026-04-25T15:06:08.998Z</time></trkpt><trkpt lat="45.929779342987636" lon="12.197776473725181"><ele>162.5</ele><time>2026-04-25T15:06:09.998Z</time></trkpt><trkpt lat="45.92986095065195" lon="12.19776334776712"><ele>163.0</ele><time>2026-04-25T15:06:10.998Z</time></trkpt><trkpt lat="45.929941851252956" lon="12.197750445648436"><ele>163.0</ele><time>2026-04-25T15:06:11.998Z</time></trkpt><trkpt lat="45.93002131890199" lon="12.197738171720077"><ele>163.0</ele><time>2026-04-25T15:06:12.998Z</time></trkpt><trkpt lat="45.930100864729354" lon="12.197725958523234"><ele>163.0</ele><time>2026-04-25T15:06:13.998Z</time></trkpt><trkpt lat="45.9301790305706" lon="12.197714392974087"><ele>163.0</ele><time>2026-04-25T15:06:14.998Z</time></trkpt><trkpt lat="45.93025465732384" lon="12.197703203108643"><ele>163.0</ele><time>2026-04-25T15:06:15.998Z</time></trkpt><trkpt lat="45.93032961550481" lon="12.197692112179991"><ele>163.0</ele><time>2026-04-25T15:06:16.998Z</time></trkpt><trkpt lat="45.93040667015661" lon="12.197680711064823"><ele>163.14285714285714</ele><time>2026-04-25T15:06:17.998Z</time></trkpt><trkpt lat="45.9304801471633" lon="12.197669839282693"><ele>163.28571428571428</ele><time>2026-04-25T15:06:18.998Z</time></trkpt><trkpt lat="45.930554725867204" lon="12.19765756863035"><ele>163.42857142857142</ele><time>2026-04-25T15:06:19.998Z</time></trkpt><trkpt lat="45.930630107332" lon="12.19764408322461"><ele>163.57142857142856</ele><time>2026-04-25T15:06:20.998Z</time></trkpt><trkpt lat="45.930707321124935" lon="12.19762069244898"><ele>163.71428571428572</ele><time>2026-04-25T15:06:21.998Z</time></trkpt><trkpt lat="45.930776750552184" lon="12.197583777623857"><ele>163.85714285714283</ele><time>2026-04-25T15:06:22.998Z</time></trkpt><trkpt lat="45.93084298840205" lon="12.197546223016303"><ele>164.0</ele><time>2026-04-25T15:06:23.998Z</time></trkpt><trkpt lat="45.93090673217299" lon="12.197501056106132"><ele>163.99999999999997</ele><time>2026-04-25T15:06:24.998Z</time></trkpt><trkpt lat="45.93095831008506" lon="12.197423798024273"><ele>164.0</ele><time>2026-04-25T15:06:25.998Z</time></trkpt><trkpt lat="45.931009057950995" lon="12.197351101729517"><ele>164.0</ele><time>2026-04-25T15:06:26.998Z</time></trkpt><trkpt lat="45.93104942990485" lon="12.197268629786704"><ele>164.0</ele><time>2026-04-25T15:06:27.998Z</time></trkpt><trkpt lat="45.93107613116611" lon="12.197172275022183"><ele>164.0</ele><time>2026-04-25T15:06:28.998Z</time></trkpt><trkpt lat="45.93108334824799" lon="12.197074099070052"><ele>163.99999999999997</ele><time>2026-04-25T15:06:29.998Z</time></trkpt><trkpt lat="45.93108869226815" lon="12.196978764768879"><ele>164.0</ele><time>2026-04-25T15:06:30.998Z</time></trkpt><trkpt lat="45.93109697963144" lon="12.196881188236327"><ele>163.99999999999997</ele><time>2026-04-25T15:06:31.998Z</time></trkpt><trkpt lat="45.93110385559714" lon="12.19678544204032"><ele>164.0</ele><time>2026-04-25T15:06:32.998Z</time></trkpt><trkpt lat="45.931115389660654" lon="12.196691797003627"><ele>164.0</ele><time>2026-04-25T15:06:33.998Z</time></trkpt><trkpt lat="45.93113617564646" lon="12.196600177714416"><ele>164.0</ele><time>2026-04-25T15:06:34.998Z</time></trkpt><trkpt lat="45.931161551284035" lon="12.19651150862021"><ele>164.0</ele><time>2026-04-25T15:06:35.998Z</time></trkpt><trkpt lat="45.93120177211587" lon="12.196435018927987"><ele>163.99999999999997</ele><time>2026-04-25T15:06:36.998Z</time></trkpt><trkpt lat="45.931252639362924" lon="12.196372114130094"><ele>164.0</ele><time>2026-04-25T15:06:37.998Z</time></trkpt><trkpt lat="45.93130878343605" lon="12.19632239098106"><ele>163.83333333333331</ele><time>2026-04-25T15:06:38.998Z</time></trkpt><trkpt lat="45.931369642855515" lon="12.196285933715817"><ele>163.66666666666666</ele><time>2026-04-25T15:06:39.998Z</time></trkpt><trkpt lat="45.931430064931675" lon="12.196253042243624"><ele>163.5</ele><time>2026-04-25T15:06:40.998Z</time></trkpt><trkpt lat="45.931499019986276" lon="12.196260908836766"><ele>163.33333333333334</ele><time>2026-04-25T15:06:41.997Z</time></trkpt><trkpt lat="45.93161711630132" lon="12.196218656764394"><ele>163.16666666666669</ele><time>2026-04-25T15:06:43.997Z</time></trkpt><trkpt lat="45.93173326336592" lon="12.19616295567772"><ele>163.0</ele><time>2026-04-25T15:06:45.997Z</time></trkpt><trkpt lat="45.93185019383966" lon="12.196116773385171"><ele>163.0</ele><time>2026-04-25T15:06:47.997Z</time></trkpt><trkpt lat="45.93191202050862" lon="12.196094736168979"><ele>163.0</ele><time>2026-04-25T15:06:48.997Z</time></trkpt><trkpt lat="45.932030049093065" lon="12.19604750862448"><ele>163.0</ele><time>2026-04-25T15:06:50.997Z</time></trkpt><trkpt lat="45.93214974684798" lon="12.196011026787938"><ele>163.0</ele><time>2026-04-25T15:06:52.997Z</time></trkpt><trkpt lat="45.93226542839599" lon="12.195965685244285"><ele>163.0</ele><time>2026-04-25T15:06:55Z</time></trkpt><trkpt lat="45.932374829716316" lon="12.195927129794695"><ele>163.0</ele><time>2026-04-25T15:06:57Z</time></trkpt><trkpt lat="45.932477900915856" lon="12.195891327408873"><ele>163.0</ele><time>2026-04-25T15:06:59Z</time></trkpt><trkpt lat="45.93256246496188" lon="12.195862482408296"><ele>163.0</ele><time>2026-04-25T15:07:01Z</time></trkpt><trkpt lat="45.93263970173619" lon="12.195840811104837"><ele>163.0</ele><time>2026-04-25T15:07:04Z</time></trkpt><trkpt lat="45.93270461581369" lon="12.195817961670048"><ele>163.0</ele><time>2026-04-25T15:07:06Z</time></trkpt><trkpt lat="45.93278484572184" lon="12.195791594957152"><ele>163.0</ele><time>2026-04-25T15:07:08Z</time></trkpt><trkpt lat="45.93287136840703" lon="12.195752181793274"><ele>163.2</ele><time>2026-04-25T15:07:10Z</time></trkpt><trkpt lat="45.93295886888204" lon="12.195712689155473"><ele>163.4</ele><time>2026-04-25T15:07:12Z</time></trkpt><trkpt lat="45.93305230718785" lon="12.195693524905163"><ele>163.6</ele><time>2026-04-25T15:07:14Z</time></trkpt><trkpt lat="45.93314006387472" lon="12.195639762455123"><ele>163.79999999999998</ele><time>2026-04-25T15:07:16Z</time></trkpt><trkpt lat="45.93323147900498" lon="12.195595094515589"><ele>164.0</ele><time>2026-04-25T15:07:18Z</time></trkpt><trkpt lat="45.93332526738393" lon="12.195557942821704"><ele>164.6</ele><time>2026-04-25T15:07:20Z</time></trkpt><trkpt lat="45.933420613133066" lon="12.195509836159722"><ele>165.2</ele><time>2026-04-25T15:07:22Z</time></trkpt><trkpt lat="45.933520558110644" lon="12.195473815545197"><ele>165.79999999999998</ele><time>2026-04-25T15:07:24Z</time></trkpt><trkpt lat="45.93362287454405" lon="12.195425712603349"><ele>166.39999999999998</ele><time>2026-04-25T15:07:26Z</time></trkpt><trkpt lat="45.93372557724274" lon="12.195379806316414"><ele>167.0</ele><time>2026-04-25T15:07:28Z</time></trkpt><trkpt lat="45.93383177506859" lon="12.195334778310611"><ele>167.0</ele><time>2026-04-25T15:07:29.999Z</time></trkpt><trkpt lat="45.93393667943456" lon="12.195289067875278"><ele>167.0</ele><time>2026-04-25T15:07:31.999Z</time></trkpt><trkpt lat="45.93404050969823" lon="12.195243335381585"><ele>167.0</ele><time>2026-04-25T15:07:33.999Z</time></trkpt><trkpt lat="45.934144529778855" lon="12.19519734526271"><ele>167.0</ele><time>2026-04-25T15:07:35.999Z</time></trkpt><trkpt lat="45.93425005877456" lon="12.19514983830613"><ele>167.0</ele><time>2026-04-25T15:07:37.999Z</time></trkpt><trkpt lat="45.934356003828036" lon="12.195106907218344"><ele>168.8</ele><time>2026-04-25T15:07:39.999Z</time></trkpt><trkpt lat="45.93446112251898" lon="12.195055406842748"><ele>170.6</ele><time>2026-04-25T15:07:41.999Z</time></trkpt><trkpt lat="45.93456726280774" lon="12.195013922180864"><ele>172.4</ele><time>2026-04-25T15:07:43.999Z</time></trkpt><trkpt lat="45.93467418351543" lon="12.194966047504076"><ele>174.20000000000002</ele><time>2026-04-25T15:07:45.999Z</time></trkpt><trkpt lat="45.934776962564236" lon="12.194912209977254"><ele>176.0</ele><time>2026-04-25T15:07:47.999Z</time></trkpt><trkpt lat="45.93487774694048" lon="12.194844485517244"><ele>177.0</ele><time>2026-04-25T15:07:49.999Z</time></trkpt><trkpt lat="45.934976928744426" lon="12.19477804455057"><ele>178.0</ele><time>2026-04-25T15:07:51.999Z</time></trkpt><trkpt lat="45.93506298071394" lon="12.194696802764627"><ele>179.0</ele><time>2026-04-25T15:07:53.999Z</time></trkpt><trkpt lat="45.93514608768275" lon="12.19460147857695"><ele>180.0</ele><time>2026-04-25T15:07:55.999Z</time></trkpt><trkpt lat="45.935223787872005" lon="12.194493980135494"><ele>181.0</ele><time>2026-04-25T15:07:57.999Z</time></trkpt><trkpt lat="45.935295743137495" lon="12.194369912286524"><ele>181.0</ele><time>2026-04-25T15:07:59.999Z</time></trkpt><trkpt lat="45.935367862846405" lon="12.194249225931493"><ele>181.0</ele><time>2026-04-25T15:08:01.999Z</time></trkpt><trkpt lat="45.935436434512795" lon="12.194119643512197"><ele>181.0</ele><time>2026-04-25T15:08:03.999Z</time></trkpt><trkpt lat="45.93550128239248" lon="12.193988762078497"><ele>181.0</ele><time>2026-04-25T15:08:05.999Z</time></trkpt><trkpt lat="45.9355828663584" lon="12.193873642442226"><ele>180.20000000000002</ele><time>2026-04-25T15:08:07.999Z</time></trkpt><trkpt lat="45.93565172890218" lon="12.193743598293768"><ele>179.4</ele><time>2026-04-25T15:08:09.999Z</time></trkpt><trkpt lat="45.93571838342559" lon="12.193616175190076"><ele>178.6</ele><time>2026-04-25T15:08:11.998Z</time></trkpt><trkpt lat="45.93578529807968" lon="12.193488254971292"><ele>177.8</ele><time>2026-04-25T15:08:13.998Z</time></trkpt><trkpt lat="45.93584722797273" lon="12.193351334980996"><ele>177.0</ele><time>2026-04-25T15:08:15.998Z</time></trkpt><trkpt lat="45.93588637485245" lon="12.193199723369275"><ele>175.6</ele><time>2026-04-25T15:08:17.998Z</time></trkpt><trkpt lat="45.93595115749051" lon="12.19306573339621"><ele>174.2</ele><time>2026-04-25T15:08:19.998Z</time></trkpt><trkpt lat="45.93598243049727" lon="12.19291520301565"><ele>172.8</ele><time>2026-04-25T15:08:21.998Z</time></trkpt><trkpt lat="45.936028745343066" lon="12.19277101893328"><ele>171.4</ele><time>2026-04-25T15:08:23.998Z</time></trkpt><trkpt lat="45.93606475507873" lon="12.192625089398069"><ele>170.0</ele><time>2026-04-25T15:08:25.998Z</time></trkpt><trkpt lat="45.93610174242303" lon="12.192477748979792"><ele>170.2</ele><time>2026-04-25T15:08:27.998Z</time></trkpt><trkpt lat="45.93614049141709" lon="12.192327311602176"><ele>170.4</ele><time>2026-04-25T15:08:29.998Z</time></trkpt><trkpt lat="45.93617723743095" lon="12.192179176584455"><ele>170.60000000000002</ele><time>2026-04-25T15:08:31.998Z</time></trkpt><trkpt lat="45.9362296456868" lon="12.192050181887959"><ele>170.8</ele><time>2026-04-25T15:08:33.998Z</time></trkpt><trkpt lat="45.936283014813654" lon="12.19192894930417"><ele>171.0</ele><time>2026-04-25T15:08:35.998Z</time></trkpt><trkpt lat="45.93633609816142" lon="12.191811376185537"><ele>171.0</ele><time>2026-04-25T15:08:37.998Z</time></trkpt><trkpt lat="45.93638247468273" lon="12.191694724800062"><ele>171.0</ele><time>2026-04-25T15:08:39.998Z</time></trkpt><trkpt lat="45.936428349646164" lon="12.191587764960621"><ele>171.0</ele><time>2026-04-25T15:08:41.998Z</time></trkpt><trkpt lat="45.93647218078923" lon="12.19148760991013"><ele>171.0</ele><time>2026-04-25T15:08:43.998Z</time></trkpt><trkpt lat="45.93650620856848" lon="12.191401015280304"><ele>171.0</ele><time>2026-04-25T15:08:45.998Z</time></trkpt><trkpt lat="45.93655405274465" lon="12.191301652341435"><ele>171.0</ele><time>2026-04-25T15:08:48.998Z</time></trkpt><trkpt lat="45.93658989177602" lon="12.191215887221281"><ele>172.16666666666666</ele><time>2026-04-25T15:08:51.998Z</time></trkpt><trkpt lat="45.936633081564466" lon="12.191141747223282"><ele>173.33333333333334</ele><time>2026-04-25T15:09:26Z</time></trkpt><trkpt lat="45.936729807910154" lon="12.191230360192083"><ele>174.5</ele><time>2026-04-25T15:09:27Z</time></trkpt><trkpt lat="45.93682109679866" lon="12.191255911186056"><ele>175.66666666666669</ele><time>2026-04-25T15:09:30Z</time></trkpt><trkpt lat="45.936882850935824" lon="12.191278827883076"><ele>176.83333333333334</ele><time>2026-04-25T15:09:32Z</time></trkpt><trkpt lat="45.93695258103501" lon="12.191286892973338"><ele>178.0</ele><time>2026-04-25T15:09:34Z</time></trkpt><trkpt lat="45.93701855478204" lon="12.191331637746222"><ele>178.5</ele><time>2026-04-25T15:09:36Z</time></trkpt><trkpt lat="45.93708599101415" lon="12.191351738181279"><ele>179.0</ele><time>2026-04-25T15:09:38Z</time></trkpt><trkpt lat="45.937153312609446" lon="12.191367942037859"><ele>179.5</ele><time>2026-04-25T15:09:40Z</time></trkpt><trkpt lat="45.93723452773903" lon="12.191387489967523"><ele>180.0</ele><time>2026-04-25T15:09:43Z</time></trkpt><trkpt lat="45.93731574662048" lon="12.191416015613788"><ele>180.5</ele><time>2026-04-25T15:09:46Z</time></trkpt><trkpt lat="45.93739527554491" lon="12.191454438994555"><ele>181.0</ele><time>2026-04-25T15:09:48.999Z</time></trkpt><trkpt lat="45.937459105303326" lon="12.191478119574702"><ele>181.0</ele><time>2026-04-25T15:09:51.999Z</time></trkpt><trkpt lat="45.93751877871689" lon="12.191529001148002"><ele>181.0</ele><time>2026-04-25T15:10:02.999Z</time></trkpt><trkpt lat="45.93739655931379" lon="12.191482779728208"><ele>181.0</ele><time>2026-04-25T15:32:29.999Z</time></trkpt><trkpt lat="45.9373359034025" lon="12.191454306656192"><ele>181.0</ele><time>2026-04-25T15:32:32.999Z</time></trkpt><trkpt lat="45.937275259815124" lon="12.191404920064144"><ele>181.0</ele><time>2026-04-25T15:32:35.999Z</time></trkpt><trkpt lat="45.93721313258748" lon="12.191375659564072"><ele>181.0</ele><time>2026-04-25T15:32:37.999Z</time></trkpt><trkpt lat="45.937123491609654" lon="12.191339660136254"><ele>181.0</ele><time>2026-04-25T15:32:40.999Z</time></trkpt><trkpt lat="45.93704152863057" lon="12.19131551576043"><ele>181.0</ele><time>2026-04-25T15:32:43.999Z</time></trkpt><trkpt lat="45.93697477422543" lon="12.191290041229129"><ele>181.0</ele><time>2026-04-25T15:32:47.999Z</time></trkpt><trkpt lat="45.93691106296937" lon="12.191291993293456"><ele>181.0</ele><time>2026-04-25T15:32:52.999Z</time></trkpt><trkpt lat="45.93684606828804" lon="12.19125113213983"><ele>181.0</ele><time>2026-04-25T15:32:55.999Z</time></trkpt><trkpt lat="45.93677118184344" lon="12.191221108097976"><ele>181.0</ele><time>2026-04-25T15:32:58.999Z</time></trkpt><trkpt lat="45.936701728753526" lon="12.191210735611936"><ele>181.0</ele><time>2026-04-25T15:33:01.999Z</time></trkpt><trkpt lat="45.936633205385725" lon="12.191218772565515"><ele>181.0</ele><time>2026-04-25T15:33:05.999Z</time></trkpt><trkpt lat="45.93658123288706" lon="12.191165444284973"><ele>181.0</ele><time>2026-04-25T15:33:10.999Z</time></trkpt><trkpt lat="45.936619505598614" lon="12.191081526106892"><ele>181.0</ele><time>2026-04-25T15:33:14.999Z</time></trkpt><trkpt lat="45.93664211861452" lon="12.190978500124464"><ele>181.0</ele><time>2026-04-25T15:33:19.998Z</time></trkpt><trkpt lat="45.936662821969975" lon="12.190886696701101"><ele>181.0</ele><time>2026-04-25T15:33:24.998Z</time></trkpt><trkpt lat="45.93670341207845" lon="12.190813203134123"><ele>181.0</ele><time>2026-04-25T15:33:29.998Z</time></trkpt><trkpt lat="45.93674601268274" lon="12.190721186787501"><ele>181.0</ele><time>2026-04-25T15:33:35.998Z</time></trkpt><trkpt lat="45.93678733767089" lon="12.190635639696698"><ele>181.0</ele><time>2026-04-25T15:33:41.998Z</time></trkpt><trkpt lat="45.93684879391598" lon="12.190600540884493"><ele>181.0</ele><time>2026-04-25T15:33:46.998Z</time></trkpt><trkpt lat="45.93692182314434" lon="12.19057607000876"><ele>181.0</ele><time>2026-04-25T15:33:52.998Z</time></trkpt><trkpt lat="45.93698887334526" lon="12.190575502504982"><ele>181.0</ele><time>2026-04-25T15:33:57.998Z</time></trkpt><trkpt lat="45.93705199040143" lon="12.190596435696673"><ele>181.0</ele><time>2026-04-25T15:34:02.998Z</time></trkpt><trkpt lat="45.937115604931876" lon="12.19064190981224"><ele>181.0</ele><time>2026-04-25T15:34:07.998Z</time></trkpt><trkpt lat="45.937169483192925" lon="12.190692039684793"><ele>181.0</ele><time>2026-04-25T15:34:13Z</time></trkpt><trkpt lat="45.937225305143286" lon="12.190742657466805"><ele>181.0</ele><time>2026-04-25T15:34:18Z</time></trkpt><trkpt lat="45.9372791045961" lon="12.190801666578343"><ele>181.0</ele><time>2026-04-25T15:34:23Z</time></trkpt><trkpt lat="45.93735367906594" lon="12.19083204252051"><ele>181.0</ele><time>2026-04-25T15:34:28Z</time></trkpt><trkpt lat="45.9374178108742" lon="12.190847737475538"><ele>181.0</ele><time>2026-04-25T15:34:32Z</time></trkpt><trkpt lat="45.93748506765688" lon="12.190859612644918"><ele>181.0</ele><time>2026-04-25T15:34:36Z</time></trkpt><trkpt lat="45.93755960146407" lon="12.190867408402857"><ele>181.0</ele><time>2026-04-25T15:34:40Z</time></trkpt><trkpt lat="45.93763510048555" lon="12.190862966854377"><ele>181.0</ele><time>2026-04-25T15:34:44Z</time></trkpt><trkpt lat="45.937715956216216" lon="12.190869405139406"><ele>181.5</ele><time>2026-04-25T15:34:48Z</time></trkpt><trkpt lat="45.93778909311978" lon="12.190895537275658"><ele>182.0</ele><time>2026-04-25T15:35:01.998Z</time></trkpt><trkpt lat="45.9378726212168" lon="12.190904689280929"><ele>182.5</ele><time>2026-04-25T15:35:04.998Z</time></trkpt><trkpt lat="45.93793982447419" lon="12.190910987020962"><ele>183.0</ele><time>2026-04-25T15:35:06.998Z</time></trkpt><trkpt lat="45.93801234812749" lon="12.190912963268154"><ele>183.5</ele><time>2026-04-25T15:35:08.998Z</time></trkpt><trkpt lat="45.93808975698787" lon="12.190929747805264"><ele>184.0</ele><time>2026-04-25T15:35:10.998Z</time></trkpt><trkpt lat="45.93816751033753" lon="12.19092300464356"><ele>184.0</ele><time>2026-04-25T15:35:12.998Z</time></trkpt><trkpt lat="45.9382469614598" lon="12.190927003883171"><ele>184.0</ele><time>2026-04-25T15:35:14.998Z</time></trkpt><trkpt lat="45.93832268826799" lon="12.190916717800581"><ele>184.0</ele><time>2026-04-25T15:35:16.998Z</time></trkpt><trkpt lat="45.93839696902801" lon="12.190895936008543"><ele>184.0</ele><time>2026-04-25T15:35:18.998Z</time></trkpt><trkpt lat="45.93846669817417" lon="12.190867308999744"><ele>184.0</ele><time>2026-04-25T15:35:20.998Z</time></trkpt><trkpt lat="45.938535607077434" lon="12.190830701394281"><ele>184.0</ele><time>2026-04-25T15:35:22.998Z</time></trkpt><trkpt lat="45.93860970430271" lon="12.190786506597368"><ele>184.33333333333334</ele><time>2026-04-25T15:35:24.998Z</time></trkpt><trkpt lat="45.938705092482316" lon="12.190772692252054"><ele>184.66666666666669</ele><time>2026-04-25T15:35:26.998Z</time></trkpt><trkpt lat="45.9387976317778" lon="12.190775356309606"><ele>185.0</ele><time>2026-04-25T15:35:28.998Z</time></trkpt><trkpt lat="45.938888462303076" lon="12.19079564866226"><ele>185.33333333333334</ele><time>2026-04-25T15:35:30.998Z</time></trkpt><trkpt lat="45.938972035942314" lon="12.190783639065959"><ele>185.66666666666666</ele><time>2026-04-25T15:35:32.998Z</time></trkpt><trkpt lat="45.93904958310778" lon="12.190803905891405"><ele>186.0</ele><time>2026-04-25T15:35:34.998Z</time></trkpt><trkpt lat="45.93913028419182" lon="12.190808903126184"><ele>186.0</ele><time>2026-04-25T15:35:36.998Z</time></trkpt><trkpt lat="45.939208761123176" lon="12.190797243194659"><ele>186.0</ele><time>2026-04-25T15:35:38.998Z</time></trkpt><trkpt lat="45.93928097798117" lon="12.190763679090548"><ele>186.0</ele><time>2026-04-25T15:35:40.998Z</time></trkpt><trkpt lat="45.93934179013018" lon="12.190709776149422"><ele>186.0</ele><time>2026-04-25T15:35:42.998Z</time></trkpt><trkpt lat="45.93938925385443" lon="12.190650219431141"><ele>186.0</ele><time>2026-04-25T15:35:44.998Z</time></trkpt><trkpt lat="45.93945179042635" lon="12.190560369988932"><ele>186.0</ele><time>2026-04-25T15:35:47.998Z</time></trkpt><trkpt lat="45.93952291164054" lon="12.19047687357251"><ele>187.14285714285717</ele><time>2026-04-25T15:35:50.998Z</time></trkpt><trkpt lat="45.939568306422174" lon="12.190406428706389"><ele>188.28571428571428</ele><time>2026-04-25T15:35:52.998Z</time></trkpt><trkpt lat="45.93962244430872" lon="12.19034530755594"><ele>189.42857142857144</ele><time>2026-04-25T15:35:54.998Z</time></trkpt><trkpt lat="45.93968132131062" lon="12.190285862078134"><ele>190.57142857142858</ele><time>2026-04-25T15:35:56.998Z</time></trkpt><trkpt lat="45.9397405035756" lon="12.190221647010343"><ele>191.71428571428572</ele><time>2026-04-25T15:35:58.998Z</time></trkpt><trkpt lat="45.939806062283395" lon="12.190167546898545"><ele>192.85714285714286</ele><time>2026-04-25T15:36:00.998Z</time></trkpt><trkpt lat="45.93986566555138" lon="12.190109489272356"><ele>194.0</ele><time>2026-04-25T15:36:02.998Z</time></trkpt><trkpt lat="45.93992665339902" lon="12.190058635773736"><ele>194.00000000000003</ele><time>2026-04-25T15:36:04.998Z</time></trkpt><trkpt lat="45.93998973185329" lon="12.189997904280675"><ele>194.0</ele><time>2026-04-25T15:36:06.997Z</time></trkpt><trkpt lat="45.94005651511233" lon="12.189933642202217"><ele>194.0</ele><time>2026-04-25T15:36:08.997Z</time></trkpt><trkpt lat="45.94013234982537" lon="12.189870903042147"><ele>194.0</ele><time>2026-04-25T15:36:10.997Z</time></trkpt><trkpt lat="45.940209788317325" lon="12.189809753074814"><ele>194.00000000000003</ele><time>2026-04-25T15:36:12.997Z</time></trkpt><trkpt lat="45.940294923276355" lon="12.189754227871282"><ele>194.0</ele><time>2026-04-25T15:36:15Z</time></trkpt><trkpt lat="45.94037928730705" lon="12.189691204226417"><ele>194.79999999999998</ele><time>2026-04-25T15:36:17Z</time></trkpt><trkpt lat="45.94045986142276" lon="12.189618508100795"><ele>195.6</ele><time>2026-04-25T15:36:19Z</time></trkpt><trkpt lat="45.94053659473824" lon="12.18953095146242"><ele>196.4</ele><time>2026-04-25T15:36:21Z</time></trkpt><trkpt lat="45.940616546096386" lon="12.189449497022272"><ele>197.2</ele><time>2026-04-25T15:36:23Z</time></trkpt><trkpt lat="45.94069301454777" lon="12.189378644109281"><ele>198.0</ele><time>2026-04-25T15:36:25Z</time></trkpt><trkpt lat="45.940776214135006" lon="12.189302206078603"><ele>198.0</ele><time>2026-04-25T15:36:27Z</time></trkpt><trkpt lat="45.94086032632074" lon="12.189235165647542"><ele>198.0</ele><time>2026-04-25T15:36:29Z</time></trkpt><trkpt lat="45.94094059887234" lon="12.189169203073813"><ele>198.0</ele><time>2026-04-25T15:36:31Z</time></trkpt><trkpt lat="45.94100636191125" lon="12.189077600997182"><ele>198.0</ele><time>2026-04-25T15:36:33Z</time></trkpt><trkpt lat="45.941057371199925" lon="12.188957364565923"><ele>198.0</ele><time>2026-04-25T15:36:35Z</time></trkpt><trkpt lat="45.94110359922397" lon="12.188831325255418"><ele>197.0</ele><time>2026-04-25T15:36:37Z</time></trkpt><trkpt lat="45.94114247655738" lon="12.188699400830638"><ele>196.0</ele><time>2026-04-25T15:36:39Z</time></trkpt><trkpt lat="45.941188382007596" lon="12.188565123783395"><ele>195.0</ele><time>2026-04-25T15:36:41Z</time></trkpt><trkpt lat="45.941245350968174" lon="12.188441703586903"><ele>194.0</ele><time>2026-04-25T15:36:43Z</time></trkpt><trkpt lat="45.94130540183412" lon="12.188326110537444"><ele>193.0</ele><time>2026-04-25T15:36:45Z</time></trkpt><trkpt lat="45.941385693859964" lon="12.188241521308079"><ele>192.99999999999997</ele><time>2026-04-25T15:36:47Z</time></trkpt><trkpt lat="45.94147193587372" lon="12.188189217214143"><ele>193.0</ele><time>2026-04-25T15:36:49Z</time></trkpt><trkpt lat="45.941552856964776" lon="12.188138706129507"><ele>193.0</ele><time>2026-04-25T15:36:51Z</time></trkpt><trkpt lat="45.94163124555155" lon="12.188082578944089"><ele>193.0</ele><time>2026-04-25T15:36:52.999Z</time></trkpt><trkpt lat="45.94170671698709" lon="12.18802924979614"><ele>192.99999999999997</ele><time>2026-04-25T15:36:54.999Z</time></trkpt><trkpt lat="45.941779899170115" lon="12.187958419026495"><ele>193.0</ele><time>2026-04-25T15:36:56.999Z</time></trkpt><trkpt lat="45.941847862529414" lon="12.187866968905261"><ele>193.66666666666666</ele><time>2026-04-25T15:36:58.999Z</time></trkpt><trkpt lat="45.94191759069448" lon="12.187782999833992"><ele>194.33333333333331</ele><time>2026-04-25T15:37:00.999Z</time></trkpt><trkpt lat="45.941983138671326" lon="12.187693707448549"><ele>195.0</ele><time>2026-04-25T15:37:02.999Z</time></trkpt><trkpt lat="45.94205160918376" lon="12.187615063164685"><ele>195.66666666666669</ele><time>2026-04-25T15:37:04.999Z</time></trkpt><trkpt lat="45.94210969476169" lon="12.187528833866036"><ele>196.33333333333334</ele><time>2026-04-25T15:37:06.999Z</time></trkpt><trkpt lat="45.94217461673058" lon="12.18745598422662"><ele>197.0</ele><time>2026-04-25T15:37:08.999Z</time></trkpt><trkpt lat="45.94223763139744" lon="12.187397840682348"><ele>197.00000000000003</ele><time>2026-04-25T15:37:10.999Z</time></trkpt><trkpt lat="45.942327313427064" lon="12.187448089266463"><ele>197.0</ele><time>2026-04-25T15:37:13.999Z</time></trkpt><trkpt lat="45.94237041188842" lon="12.187573678723277"><ele>197.0</ele><time>2026-04-25T15:37:16.999Z</time></trkpt><trkpt lat="45.94241319608745" lon="12.187690322566263"><ele>197.0</ele><time>2026-04-25T15:37:19.999Z</time></trkpt><trkpt lat="45.94245188443525" lon="12.18777470916342"><ele>197.00000000000003</ele><time>2026-04-25T15:37:21.999Z</time></trkpt><trkpt lat="45.942488485771584" lon="12.187855311648367"><ele>197.0</ele><time>2026-04-25T15:37:23.999Z</time></trkpt><trkpt lat="45.94253386147004" lon="12.187952565046247"><ele>197.8</ele><time>2026-04-25T15:37:25.999Z</time></trkpt><trkpt lat="45.94258746927795" lon="12.188046923990274"><ele>198.6</ele><time>2026-04-25T15:37:27.999Z</time></trkpt><trkpt lat="45.94267009051601" lon="12.188124943228686"><ele>199.4</ele><time>2026-04-25T15:37:29.999Z</time></trkpt><trkpt lat="45.942769669067204" lon="12.188141605351802"><ele>200.20000000000002</ele><time>2026-04-25T15:37:31.999Z</time></trkpt><trkpt lat="45.942869319566235" lon="12.18811383318749"><ele>201.0</ele><time>2026-04-25T15:37:33.999Z</time></trkpt><trkpt lat="45.94296387987274" lon="12.18808772031296"><ele>201.0</ele><time>2026-04-25T15:37:35.999Z</time></trkpt><trkpt lat="45.943056775311376" lon="12.188069029071292"><ele>201.0</ele><time>2026-04-25T15:37:37.999Z</time></trkpt><trkpt lat="45.94315198746107" lon="12.188089136033282"><ele>201.0</ele><time>2026-04-25T15:37:39.999Z</time></trkpt><trkpt lat="45.94323619929182" lon="12.18815007558416"><ele>201.0</ele><time>2026-04-25T15:37:41.999Z</time></trkpt><trkpt lat="45.94332104585276" lon="12.188204054192584"><ele>201.0</ele><time>2026-04-25T15:37:43.999Z</time></trkpt><trkpt lat="45.94340055517516" lon="12.188267187335"><ele>200.0</ele><time>2026-04-25T15:37:45.999Z</time></trkpt><trkpt lat="45.94346905629464" lon="12.188347185492319"><ele>199.0</ele><time>2026-04-25T15:37:47.999Z</time></trkpt><trkpt lat="45.94352919383898" lon="12.188433782752234"><ele>198.0</ele><time>2026-04-25T15:37:49.999Z</time></trkpt><trkpt lat="45.94359592768993" lon="12.188509384069203"><ele>197.0</ele><time>2026-04-25T15:37:51.999Z</time></trkpt><trkpt lat="45.9436626503399" lon="12.188564646125345"><ele>196.0</ele><time>2026-04-25T15:37:53.998Z</time></trkpt><trkpt lat="45.94373495799552" lon="12.188620048543278"><ele>195.0</ele><time>2026-04-25T15:37:55.998Z</time></trkpt><trkpt lat="45.94381066893756" lon="12.188647344073186"><ele>195.0</ele><time>2026-04-25T15:37:57.998Z</time></trkpt><trkpt lat="45.94387571968817" lon="12.18866153686792"><ele>195.0</ele><time>2026-04-25T15:37:59.998Z</time></trkpt><trkpt lat="45.94394071718318" lon="12.188633948964213"><ele>195.0</ele><time>2026-04-25T15:38:02.998Z</time></trkpt><trkpt lat="45.94398900986216" lon="12.188560323599752"><ele>195.0</ele><time>2026-04-25T15:40:38.001Z</time></trkpt><trkpt lat="45.94404756179338" lon="12.188492447924359"><ele>195.0</ele><time>2026-04-25T15:40:42.001Z</time></trkpt><trkpt lat="45.94411011093768" lon="12.188442052880504"><ele>195.0</ele><time>2026-04-25T15:40:45.001Z</time></trkpt><trkpt lat="45.94418490821534" lon="12.18838676205984"><ele>195.0</ele><time>2026-04-25T15:40:48.001Z</time></trkpt><trkpt lat="45.94425784718689" lon="12.188342450745253"><ele>196.0</ele><time>2026-04-25T15:40:51Z</time></trkpt><trkpt lat="45.94433678264739" lon="12.188295208132532"><ele>197.0</ele><time>2026-04-25T15:40:54Z</time></trkpt><trkpt lat="45.94441488911607" lon="12.188277684210592"><ele>198.0</ele><time>2026-04-25T15:40:57Z</time></trkpt><trkpt lat="45.94449423232085" lon="12.188263745002004"><ele>199.0</ele><time>2026-04-25T15:41:00Z</time></trkpt><trkpt lat="45.94457999672767" lon="12.188263700456131"><ele>200.0</ele><time>2026-04-25T15:41:03Z</time></trkpt><trkpt lat="45.94466553410234" lon="12.18826738794839"><ele>201.0</ele><time>2026-04-25T15:41:06Z</time></trkpt><trkpt lat="45.944750622936596" lon="12.188278589321156"><ele>201.0</ele><time>2026-04-25T15:41:09Z</time></trkpt><trkpt lat="45.9448332350075" lon="12.18827736852881"><ele>201.0</ele><time>2026-04-25T15:41:12Z</time></trkpt><trkpt lat="45.944916377941276" lon="12.188270808436931"><ele>201.0</ele><time>2026-04-25T15:41:15Z</time></trkpt><trkpt lat="45.94500234062079" lon="12.188297131696068"><ele>201.0</ele><time>2026-04-25T15:41:18Z</time></trkpt><trkpt lat="45.945085011027494" lon="12.188305316392821"><ele>201.0</ele><time>2026-04-25T15:41:21Z</time></trkpt><trkpt lat="45.945162870148096" lon="12.18832117127622"><ele>201.0</ele><time>2026-04-25T15:41:24Z</time></trkpt><trkpt lat="45.945240416717674" lon="12.188350083113296"><ele>201.5</ele><time>2026-04-25T15:41:27Z</time></trkpt><trkpt lat="45.94532811804058" lon="12.18836980224299"><ele>202.0</ele><time>2026-04-25T15:41:30Z</time></trkpt><trkpt lat="45.94541838550914" lon="12.188386569628385"><ele>202.5</ele><time>2026-04-25T15:41:33Z</time></trkpt><trkpt lat="45.94550966991858" lon="12.188394764604064"><ele>203.0</ele><time>2026-04-25T15:41:35.999Z</time></trkpt><trkpt lat="45.945577314647416" lon="12.188411208836394"><ele>203.5</ele><time>2026-04-25T15:41:37.999Z</time></trkpt><trkpt lat="45.94564477682602" lon="12.188410244354177"><ele>204.0</ele><time>2026-04-25T15:41:39.999Z</time></trkpt><trkpt lat="45.94571298319742" lon="12.188415820151285"><ele>204.0</ele><time>2026-04-25T15:41:41.999Z</time></trkpt><trkpt lat="45.945780742269015" lon="12.188411697883424"><ele>204.0</ele><time>2026-04-25T15:41:43.999Z</time></trkpt><trkpt lat="45.945852672926684" lon="12.188428554989944"><ele>204.0</ele><time>2026-04-25T15:41:45.999Z</time></trkpt><trkpt lat="45.94591947551293" lon="12.188461647392275"><ele>204.0</ele><time>2026-04-25T15:41:47.999Z</time></trkpt><trkpt lat="45.94598027642699" lon="12.188500943647865"><ele>204.0</ele><time>2026-04-25T15:41:49.999Z</time></trkpt><trkpt lat="45.94604203776236" lon="12.188542893810139"><ele>204.0</ele><time>2026-04-25T15:41:51.999Z</time></trkpt><trkpt lat="45.94610265945114" lon="12.188593113146286"><ele>204.0</ele><time>2026-04-25T15:41:53.999Z</time></trkpt><trkpt lat="45.946158899069246" lon="12.188652060904332"><ele>205.57142857142858</ele><time>2026-04-25T15:41:55.999Z</time></trkpt><trkpt lat="45.946211294537626" lon="12.188711701695201"><ele>207.14285714285717</ele><time>2026-04-25T15:41:57.999Z</time></trkpt><trkpt lat="45.94624503511" lon="12.188790373041812"><ele>208.71428571428572</ele><time>2026-04-25T15:41:59.999Z</time></trkpt><trkpt lat="45.94626961100987" lon="12.188879725354438"><ele>210.28571428571428</ele><time>2026-04-25T15:42:01.999Z</time></trkpt><trkpt lat="45.946282557492474" lon="12.188974804259498"><ele>211.85714285714286</ele><time>2026-04-25T15:42:03.999Z</time></trkpt><trkpt lat="45.946293922405175" lon="12.189068993912347"><ele>213.42857142857142</ele><time>2026-04-25T15:42:05.999Z</time></trkpt><trkpt lat="45.946314620751274" lon="12.189155649058044"><ele>215.0</ele><time>2026-04-25T15:42:07.999Z</time></trkpt><trkpt lat="45.946327000343985" lon="12.189251391305092"><ele>215.83333333333334</ele><time>2026-04-25T15:42:09.999Z</time></trkpt><trkpt lat="45.94634553682625" lon="12.18934060707668"><ele>216.66666666666669</ele><time>2026-04-25T15:42:11.999Z</time></trkpt><trkpt lat="45.94636403617914" lon="12.189431884483433"><ele>217.5</ele><time>2026-04-25T15:42:13.999Z</time></trkpt><trkpt lat="45.94639750450781" lon="12.189559098740084"><ele>218.33333333333331</ele><time>2026-04-25T15:42:16.999Z</time></trkpt><trkpt lat="45.946425638513254" lon="12.189676469458659"><ele>219.16666666666666</ele><time>2026-04-25T15:42:19.999Z</time></trkpt><trkpt lat="45.94645865383478" lon="12.18978942332419"><ele>220.0</ele><time>2026-04-25T15:42:22.999Z</time></trkpt><trkpt lat="45.946487701155895" lon="12.18991873191617"><ele>219.99999999999997</ele><time>2026-04-25T15:42:25.999Z</time></trkpt><trkpt lat="45.9465075700839" lon="12.190016414231126"><ele>220.0</ele><time>2026-04-25T15:42:27.999Z</time></trkpt><trkpt lat="45.94653003099886" lon="12.190105618449035"><ele>220.0</ele><time>2026-04-25T15:42:29.998Z</time></trkpt><trkpt lat="45.94655039921253" lon="12.190195519052091"><ele>220.0</ele><time>2026-04-25T15:42:32.001Z</time></trkpt><trkpt lat="45.946587154562444" lon="12.1903151728891"><ele>220.0</ele><time>2026-04-25T15:42:35.001Z</time></trkpt><trkpt lat="45.94663073357371" lon="12.190408719574842"><ele>219.99999999999997</ele><time>2026-04-25T15:42:38.001Z</time></trkpt><trkpt lat="45.94667901583707" lon="12.190494490102973"><ele>220.0</ele><time>2026-04-25T15:42:41.001Z</time></trkpt><trkpt lat="45.94673257731999" lon="12.190577778497545"><ele>223.16666666666666</ele><time>2026-04-25T15:42:44.001Z</time></trkpt><trkpt lat="45.94678529467014" lon="12.19067797216839"><ele>226.33333333333331</ele><time>2026-04-25T15:42:47Z</time></trkpt><trkpt lat="45.94684223434011" lon="12.190778846716668"><ele>229.5</ele><time>2026-04-25T15:42:50Z</time></trkpt><trkpt lat="45.94687474729844" lon="12.190858423773586"><ele>232.66666666666669</ele><time>2026-04-25T15:42:52Z</time></trkpt><trkpt lat="45.94691087392123" lon="12.190936168657121"><ele>235.83333333333334</ele><time>2026-04-25T15:42:54Z</time></trkpt><trkpt lat="45.94694251218268" lon="12.1910421209042"><ele>239.0</ele><time>2026-04-25T15:42:57Z</time></trkpt><trkpt lat="45.94697808100359" lon="12.191144134011788"><ele>239.00000000000003</ele><time>2026-04-25T15:43:00Z</time></trkpt><trkpt lat="45.94702728454401" lon="12.191256975541648"><ele>239.0</ele><time>2026-04-25T15:43:02.999Z</time></trkpt><trkpt lat="45.94706684852835" lon="12.191332461997343"><ele>239.0</ele><time>2026-04-25T15:43:04.999Z</time></trkpt><trkpt lat="45.94710173112964" lon="12.19143368999416"><ele>239.0</ele><time>2026-04-25T15:43:06.999Z</time></trkpt><trkpt lat="45.94714550447043" lon="12.191516347516222"><ele>239.00000000000003</ele><time>2026-04-25T15:43:08.999Z</time></trkpt><trkpt lat="45.947194342460286" lon="12.191599517224782"><ele>239.0</ele><time>2026-04-25T15:43:10.999Z</time></trkpt><trkpt lat="45.94725179184172" lon="12.191675796410047"><ele>239.83333333333334</ele><time>2026-04-25T15:43:12.999Z</time></trkpt><trkpt lat="45.947320477200854" lon="12.191750994668778"><ele>240.66666666666669</ele><time>2026-04-25T15:43:14.999Z</time></trkpt><trkpt lat="45.9473820967125" lon="12.1918280634492"><ele>241.5</ele><time>2026-04-25T15:43:16.999Z</time></trkpt><trkpt lat="45.9474401672687" lon="12.191904947491029"><ele>242.33333333333331</ele><time>2026-04-25T15:43:18.999Z</time></trkpt><trkpt lat="45.947497852497406" lon="12.19197786644162"><ele>243.16666666666666</ele><time>2026-04-25T15:43:20.999Z</time></trkpt><trkpt lat="45.94755757892559" lon="12.192055408142922"><ele>244.0</ele><time>2026-04-25T15:43:22.999Z</time></trkpt><trkpt lat="45.9476186116823" lon="12.192142190713271"><ele>243.99999999999997</ele><time>2026-04-25T15:43:24.999Z</time></trkpt><trkpt lat="45.94767157155338" lon="12.1922268568947"><ele>244.0</ele><time>2026-04-25T15:43:26.999Z</time></trkpt><trkpt lat="45.947727022219155" lon="12.19231007452633"><ele>244.0</ele><time>2026-04-25T15:43:28.999Z</time></trkpt><trkpt lat="45.947787332805554" lon="12.192364297970805"><ele>244.0</ele><time>2026-04-25T15:43:30.999Z</time></trkpt><trkpt lat="45.947853329374574" lon="12.192414190822968"><ele>243.99999999999997</ele><time>2026-04-25T15:43:32.999Z</time></trkpt><trkpt lat="45.94792399960114" lon="12.192480823435757"><ele>244.0</ele><time>2026-04-25T15:43:34.999Z</time></trkpt><trkpt lat="45.9479883240651" lon="12.19256265069612"><ele>240.66666666666666</ele><time>2026-04-25T15:43:36.999Z</time></trkpt><trkpt lat="45.94805530867027" lon="12.192630929957328"><ele>237.33333333333331</ele><time>2026-04-25T15:43:38.999Z</time></trkpt><trkpt lat="45.94811882565603" lon="12.19271230425573"><ele>234.0</ele><time>2026-04-25T15:43:40.999Z</time></trkpt><trkpt lat="45.9481681816784" lon="12.192802406627054"><ele>230.66666666666669</ele><time>2026-04-25T15:43:42.999Z</time></trkpt><trkpt lat="45.94820848393518" lon="12.192885746874143"><ele>227.33333333333334</ele><time>2026-04-25T15:43:44.999Z</time></trkpt><trkpt lat="45.94825139713783" lon="12.192966447365041"><ele>224.0</ele><time>2026-04-25T15:43:46.999Z</time></trkpt><trkpt lat="45.94831715862606" lon="12.19305400489289"><ele>226.00000000000003</ele><time>2026-04-25T15:43:49.998Z</time></trkpt><trkpt lat="45.94838916733448" lon="12.193112697695536"><ele>228.0</ele><time>2026-04-25T15:43:52.998Z</time></trkpt><trkpt lat="45.94845361006091" lon="12.193134122582839"><ele>230.0</ele><time>2026-04-25T15:43:54.998Z</time></trkpt><trkpt lat="45.948526256131" lon="12.193144812107066"><ele>232.0</ele><time>2026-04-25T15:43:56.998Z</time></trkpt><trkpt lat="45.94860307219789" lon="12.193151578037618"><ele>234.00000000000003</ele><time>2026-04-25T15:43:58.998Z</time></trkpt><trkpt lat="45.94868171633201" lon="12.19314338650045"><ele>236.0</ele><time>2026-04-25T15:44:00.998Z</time></trkpt><trkpt lat="45.9487552231294" lon="12.19310190905197"><ele>236.00000000000003</ele><time>2026-04-25T15:44:02.998Z</time></trkpt><trkpt lat="45.94883060204037" lon="12.193061831145492"><ele>236.0</ele><time>2026-04-25T15:44:04.998Z</time></trkpt><trkpt lat="45.94891042661877" lon="12.19304725748351"><ele>236.0</ele><time>2026-04-25T15:44:06.998Z</time></trkpt><trkpt lat="45.94898462508678" lon="12.193060503312244"><ele>236.0</ele><time>2026-04-25T15:44:08.998Z</time></trkpt><trkpt lat="45.94905926527867" lon="12.193077236408174"><ele>236.00000000000003</ele><time>2026-04-25T15:44:10.998Z</time></trkpt><trkpt lat="45.94913508389246" lon="12.193090425027405"><ele>236.0</ele><time>2026-04-25T15:44:12.998Z</time></trkpt><trkpt lat="45.949199040304066" lon="12.193123735698261"><ele>236.57142857142856</ele><time>2026-04-25T15:44:14.998Z</time></trkpt><trkpt lat="45.94926051065133" lon="12.193155644833531"><ele>237.14285714285717</ele><time>2026-04-25T15:44:16.998Z</time></trkpt><trkpt lat="45.94931706372166" lon="12.193218736601116"><ele>237.71428571428572</ele><time>2026-04-25T15:44:18.998Z</time></trkpt><trkpt lat="45.94936507998023" lon="12.193294279243776"><ele>238.28571428571428</ele><time>2026-04-25T15:44:20.998Z</time></trkpt><trkpt lat="45.94940115776129" lon="12.193397421777876"><ele>238.85714285714283</ele><time>2026-04-25T15:44:22.998Z</time></trkpt><trkpt lat="45.94942368886608" lon="12.193496480256389"><ele>239.42857142857144</ele><time>2026-04-25T15:44:24.998Z</time></trkpt><trkpt lat="45.94945352039173" lon="12.193584026858582"><ele>240.0</ele><time>2026-04-25T15:44:26.998Z</time></trkpt><trkpt lat="45.949490562275905" lon="12.193674088085427"><ele>239.0</ele><time>2026-04-25T15:44:28.998Z</time></trkpt><trkpt lat="45.949525202675474" lon="12.193761447425818"><ele>238.0</ele><time>2026-04-25T15:44:30.998Z</time></trkpt><trkpt lat="45.94955680107244" lon="12.193840028934796"><ele>237.0</ele><time>2026-04-25T15:44:32.998Z</time></trkpt><trkpt lat="45.94958007336243" lon="12.193974249261705"><ele>236.0</ele><time>2026-04-25T15:44:35.998Z</time></trkpt><trkpt lat="45.94956211268284" lon="12.194075808724788"><ele>235.0</ele><time>2026-04-25T15:44:38Z</time></trkpt><trkpt lat="45.949538319672875" lon="12.194162939156321"><ele>234.0</ele><time>2026-04-25T15:44:40Z</time></trkpt><trkpt lat="45.9495342868985" lon="12.194278048141141"><ele>233.0</ele><time>2026-04-25T15:44:43Z</time></trkpt><trkpt lat="45.9495496841748" lon="12.194401567445958"><ele>233.00000000000003</ele><time>2026-04-25T15:44:46Z</time></trkpt><trkpt lat="45.94958396306701" lon="12.194511047341301"><ele>233.0</ele><time>2026-04-25T15:44:49Z</time></trkpt><trkpt lat="45.9496317635276" lon="12.19462853780484"><ele>233.0</ele><time>2026-04-25T15:44:52Z</time></trkpt><trkpt lat="45.949671770059034" lon="12.194717704764338"><ele>233.0</ele><time>2026-04-25T15:44:54Z</time></trkpt><trkpt lat="45.94970319692734" lon="12.194808490344743"><ele>233.00000000000003</ele><time>2026-04-25T15:44:56Z</time></trkpt><trkpt lat="45.94974389536372" lon="12.19489294615321"><ele>233.0</ele><time>2026-04-25T15:44:58Z</time></trkpt><trkpt lat="45.94978975724444" lon="12.195003364041726"><ele>232.66666666666669</ele><time>2026-04-25T15:45:01Z</time></trkpt><trkpt lat="45.94985171937801" lon="12.195097924866129"><ele>232.33333333333334</ele><time>2026-04-25T15:45:04Z</time></trkpt><trkpt lat="45.94990697071276" lon="12.195181925166766"><ele>232.0</ele><time>2026-04-25T15:45:07Z</time></trkpt><trkpt lat="45.94995513072206" lon="12.195242627801813"><ele>231.66666666666669</ele><time>2026-04-25T15:45:09Z</time></trkpt><trkpt lat="45.95002247943163" lon="12.195331921839683"><ele>231.33333333333334</ele><time>2026-04-25T15:45:12Z</time></trkpt><trkpt lat="45.950073808239395" lon="12.195391779788656"><ele>231.0</ele><time>2026-04-25T15:45:14Z</time></trkpt><trkpt lat="45.95011912600151" lon="12.195456128129639"><ele>231.28571428571428</ele><time>2026-04-25T15:45:16Z</time></trkpt><trkpt lat="45.95017264441254" lon="12.195528337616805"><ele>231.57142857142856</ele><time>2026-04-25T15:45:18Z</time></trkpt><trkpt lat="45.95022917079405" lon="12.19559559501054"><ele>231.85714285714286</ele><time>2026-04-25T15:45:19.999Z</time></trkpt><trkpt lat="45.95028984241911" lon="12.195646153760176"><ele>232.14285714285714</ele><time>2026-04-25T15:45:21.999Z</time></trkpt><trkpt lat="45.95034515407874" lon="12.195704285237497"><ele>232.42857142857142</ele><time>2026-04-25T15:45:23.999Z</time></trkpt><trkpt lat="45.95039391354749" lon="12.19576416869154"><ele>232.71428571428572</ele><time>2026-04-25T15:45:25.999Z</time></trkpt><trkpt lat="45.95046036373452" lon="12.195849616059505"><ele>233.0</ele><time>2026-04-25T15:45:28.999Z</time></trkpt><trkpt lat="45.95052385027742" lon="12.195944182284444"><ele>233.0</ele><time>2026-04-25T15:45:31.999Z</time></trkpt><trkpt lat="45.95058371921884" lon="12.196032401073225"><ele>233.0</ele><time>2026-04-25T15:45:34.999Z</time></trkpt><trkpt lat="45.95063001512947" lon="12.196107799466962"><ele>233.0</ele><time>2026-04-25T15:45:37.999Z</time></trkpt><trkpt lat="45.95067711141746" lon="12.19617378478283"><ele>233.0</ele><time>2026-04-25T15:45:40.999Z</time></trkpt><trkpt lat="45.95074166265925" lon="12.196220718847616"><ele>233.0</ele><time>2026-04-25T15:45:43.999Z</time></trkpt><trkpt lat="45.95081003938321" lon="12.196230526444191"><ele>233.0</ele><time>2026-04-25T15:45:46.999Z</time></trkpt><trkpt lat="45.950877621586756" lon="12.196213293940227"><ele>233.0</ele><time>2026-04-25T15:45:49.999Z</time></trkpt><trkpt lat="45.95094715175469" lon="12.196180953527968"><ele>234.66666666666669</ele><time>2026-04-25T15:45:52.999Z</time></trkpt><trkpt lat="45.951026243724264" lon="12.196179335688392"><ele>236.33333333333334</ele><time>2026-04-25T15:45:55.999Z</time></trkpt><trkpt lat="45.95111667023988" lon="12.196209402590894"><ele>238.0</ele><time>2026-04-25T15:45:58.999Z</time></trkpt><trkpt lat="45.95119009738547" lon="12.19624245844335"><ele>239.66666666666669</ele><time>2026-04-25T15:46:01.999Z</time></trkpt><trkpt lat="45.95125887358093" lon="12.196272809720963"><ele>241.33333333333334</ele><time>2026-04-25T15:46:04.999Z</time></trkpt><trkpt lat="45.95133521768675" lon="12.19628922993924"><ele>243.0</ele><time>2026-04-25T15:46:07.998Z</time></trkpt><trkpt lat="45.95140637090472" lon="12.196299008576922"><ele>243.0</ele><time>2026-04-25T15:46:10.998Z</time></trkpt><trkpt lat="45.95147793176071" lon="12.19631171594504"><ele>243.0</ele><time>2026-04-25T15:46:13.998Z</time></trkpt><trkpt lat="45.95154111596092" lon="12.1963046742638"><ele>243.0</ele><time>2026-04-25T15:46:16.998Z</time></trkpt><trkpt lat="45.95162153765945" lon="12.196326821636276"><ele>243.0</ele><time>2026-04-25T15:46:20.998Z</time></trkpt><trkpt lat="45.95168882133041" lon="12.196335813392162"><ele>243.0</ele><time>2026-04-25T15:46:23.998Z</time></trkpt><trkpt lat="45.95176246455465" lon="12.196340803895605"><ele>243.0</ele><time>2026-04-25T15:46:26.998Z</time></trkpt><trkpt lat="45.95184766967527" lon="12.196368890598427"><ele>243.0</ele><time>2026-04-25T15:46:29.998Z</time></trkpt><trkpt lat="45.95192792043088" lon="12.196390278465682"><ele>242.83333333333334</ele><time>2026-04-25T15:46:32.998Z</time></trkpt><trkpt lat="45.9520071809296" lon="12.196399074578519"><ele>242.66666666666669</ele><time>2026-04-25T15:46:35.998Z</time></trkpt><trkpt lat="45.95209462121695" lon="12.196405386918013"><ele>242.5</ele><time>2026-04-25T15:46:38.998Z</time></trkpt><trkpt lat="45.95215479338663" lon="12.196435970730366"><ele>242.33333333333334</ele><time>2026-04-25T15:46:40.998Z</time></trkpt><trkpt lat="45.95221017571821" lon="12.196486985335628"><ele>242.16666666666669</ele><time>2026-04-25T15:46:42.998Z</time></trkpt><trkpt lat="45.95226236612981" lon="12.196592277571467"><ele>242.0</ele><time>2026-04-25T15:46:46.001Z</time></trkpt><trkpt lat="45.95229168764783" lon="12.19670170262904"><ele>242.0</ele><time>2026-04-25T15:46:49.001Z</time></trkpt><trkpt lat="45.95229836469057" lon="12.196799573759739"><ele>241.99999999999997</ele><time>2026-04-25T15:46:52Z</time></trkpt><trkpt lat="45.952309852319296" lon="12.196907404839783"><ele>242.0</ele><time>2026-04-25T15:46:56Z</time></trkpt><trkpt lat="45.95234147522941" lon="12.197004235741682"><ele>242.0</ele><time>2026-04-25T15:47:00Z</time></trkpt><trkpt lat="45.95237796563522" lon="12.197089465726945"><ele>241.99999999999997</ele><time>2026-04-25T15:47:04Z</time></trkpt><trkpt lat="45.9524235546308" lon="12.197158604513957"><ele>242.0</ele><time>2026-04-25T15:47:08Z</time></trkpt><trkpt lat="45.952468046810914" lon="12.197247352385816"><ele>242.0</ele><time>2026-04-25T15:47:12Z</time></trkpt><trkpt lat="45.952512685144214" lon="12.197337723526749"><ele>245.28571428571428</ele><time>2026-04-25T15:47:16Z</time></trkpt><trkpt lat="45.95255835427156" lon="12.19741397675281"><ele>248.57142857142856</ele><time>2026-04-25T15:47:20Z</time></trkpt><trkpt lat="45.952591161301356" lon="12.197493104001197"><ele>251.85714285714283</ele><time>2026-04-25T15:47:24Z</time></trkpt><trkpt lat="45.9526260579222" lon="12.197571433602999"><ele>255.1428571428571</ele><time>2026-04-25T15:47:28Z</time></trkpt><trkpt lat="45.95265589225973" lon="12.197662136871397"><ele>258.42857142857144</ele><time>2026-04-25T15:47:32Z</time></trkpt><trkpt lat="45.952688454332026" lon="12.197745344001465"><ele>261.71428571428567</ele><time>2026-04-25T15:47:36Z</time></trkpt><trkpt lat="45.95272877944401" lon="12.197841595659183"><ele>265.0</ele><time>2026-04-25T15:47:40.999Z</time></trkpt><trkpt lat="45.95276298389963" lon="12.197918798764633"><ele>264.99999999999994</ele><time>2026-04-25T15:47:44.999Z</time></trkpt><trkpt lat="45.95279462959545" lon="12.198003272873489"><ele>265.0</ele><time>2026-04-25T15:47:48.999Z</time></trkpt><trkpt lat="45.95283296622846" lon="12.19809047337641"><ele>265.0</ele><time>2026-04-25T15:47:52.999Z</time></trkpt><trkpt lat="45.95287666430781" lon="12.198193535548702"><ele>265.0</ele><time>2026-04-25T15:47:56.999Z</time></trkpt><trkpt lat="45.95291812717077" lon="12.198280151779933"><ele>265.0</ele><time>2026-04-25T15:47:59.999Z</time></trkpt><trkpt lat="45.95295793581479" lon="12.198377619038329"><ele>264.99999999999994</ele><time>2026-04-25T15:48:02.999Z</time></trkpt><trkpt lat="45.95299389427733" lon="12.198462809395378"><ele>265.0</ele><time>2026-04-25T15:48:05.999Z</time></trkpt><trkpt lat="45.953030380813836" lon="12.19856212629149"><ele>264.66666666666663</ele><time>2026-04-25T15:48:08.999Z</time></trkpt><trkpt lat="45.953072719287675" lon="12.19865767403826"><ele>264.3333333333333</ele><time>2026-04-25T15:48:11.999Z</time></trkpt><trkpt lat="45.9531073668421" lon="12.198735489014151"><ele>264.0</ele><time>2026-04-25T15:48:14.999Z</time></trkpt><trkpt lat="45.95313135589196" lon="12.198853189815916"><ele>263.6666666666667</ele><time>2026-04-25T15:48:17.999Z</time></trkpt><trkpt lat="45.95312799779108" lon="12.198970968100735"><ele>263.33333333333337</ele><time>2026-04-25T15:48:20.999Z</time></trkpt><trkpt lat="45.953128039209915" lon="12.199080590020534"><ele>263.0</ele><time>2026-04-25T15:48:23.998Z</time></trkpt><trkpt lat="45.95312901877258" lon="12.199185778532335"><ele>263.0</ele><time>2026-04-25T15:48:26.998Z</time></trkpt><trkpt lat="45.95315106294454" lon="12.199281245006523"><ele>263.0</ele><time>2026-04-25T15:48:29.998Z</time></trkpt><trkpt lat="45.95319962316559" lon="12.199361070422835"><ele>263.0</ele><time>2026-04-25T15:48:32.998Z</time></trkpt><trkpt lat="45.9532688278313" lon="12.199439161810693"><ele>263.0</ele><time>2026-04-25T15:48:36.998Z</time></trkpt><trkpt lat="45.95333324379335" lon="12.199505810842805"><ele>263.0</ele><time>2026-04-25T15:48:39.998Z</time></trkpt><trkpt lat="45.95340952511538" lon="12.1995492321379"><ele>263.0</ele><time>2026-04-25T15:48:42.998Z</time></trkpt><trkpt lat="45.95347335102932" lon="12.199577393302183"><ele>263.42857142857144</ele><time>2026-04-25T15:48:45.998Z</time></trkpt><trkpt lat="45.953542328749755" lon="12.199606290589577"><ele>263.85714285714283</ele><time>2026-04-25T15:48:49.001Z</time></trkpt><trkpt lat="45.95360572574078" lon="12.199626456291156"><ele>264.2857142857143</ele><time>2026-04-25T15:48:52.001Z</time></trkpt><trkpt lat="45.95368340838836" lon="12.199648094923877"><ele>264.7142857142857</ele><time>2026-04-25T15:48:56.001Z</time></trkpt><trkpt lat="45.9537437233636" lon="12.199705468183765"><ele>265.1428571428571</ele><time>2026-04-25T15:49:00.001Z</time></trkpt><trkpt lat="45.9537849317533" lon="12.199784537225257"><ele>265.57142857142856</ele><time>2026-04-25T15:49:04.001Z</time></trkpt><trkpt lat="45.95379455005104" lon="12.199887915627412"><ele>266.0</ele><time>2026-04-25T15:49:08.001Z</time></trkpt><trkpt lat="45.95378716206777" lon="12.199988227397228"><ele>266.0</ele><time>2026-04-25T15:49:12Z</time></trkpt><trkpt lat="45.953805774527424" lon="12.20009901514564"><ele>266.0</ele><time>2026-04-25T15:49:16Z</time></trkpt><trkpt lat="45.953826311374236" lon="12.200193357731475"><ele>266.0</ele><time>2026-04-25T15:49:20Z</time></trkpt><trkpt lat="45.95385434532964" lon="12.20028708322002"><ele>266.0</ele><time>2026-04-25T15:49:24Z</time></trkpt><trkpt lat="45.95388648358387" lon="12.200386207477926"><ele>266.0</ele><time>2026-04-25T15:49:28Z</time></trkpt><trkpt lat="45.953929879237215" lon="12.20047803228536"><ele>266.0</ele><time>2026-04-25T15:49:32Z</time></trkpt><trkpt lat="45.953961297712496" lon="12.2005745164364"><ele>266.0</ele><time>2026-04-25T15:49:36Z</time></trkpt><trkpt lat="45.95400778457711" lon="12.200654540006358"><ele>266.14285714285717</ele><time>2026-04-25T15:49:40Z</time></trkpt><trkpt lat="45.954056465552846" lon="12.200736845914351"><ele>266.2857142857143</ele><time>2026-04-25T15:49:44Z</time></trkpt><trkpt lat="45.95411256140758" lon="12.20081884824142"><ele>266.42857142857144</ele><time>2026-04-25T15:49:48.999Z</time></trkpt><trkpt lat="45.95416252161766" lon="12.200884344044372"><ele>266.57142857142856</ele><time>2026-04-25T15:49:51.999Z</time></trkpt><trkpt lat="45.954217581234815" lon="12.200969009766666"><ele>266.7142857142857</ele><time>2026-04-25T15:49:55.999Z</time></trkpt><trkpt lat="45.95426654480635" lon="12.201055265170556"><ele>266.8571428571429</ele><time>2026-04-25T15:49:59.999Z</time></trkpt><trkpt lat="45.95430983601815" lon="12.201125653848415"><ele>267.0</ele><time>2026-04-25T15:50:03.999Z</time></trkpt><trkpt lat="45.95435162481118" lon="12.201204365769659"><ele>268.7142857142857</ele><time>2026-04-25T15:50:07.999Z</time></trkpt><trkpt lat="45.954396456472296" lon="12.201283855126878"><ele>270.42857142857144</ele><time>2026-04-25T15:50:11.999Z</time></trkpt><trkpt lat="45.95444146221551" lon="12.201364911942852"><ele>272.1428571428571</ele><time>2026-04-25T15:50:15.999Z</time></trkpt><trkpt lat="45.9544851516018" lon="12.201443443188987"><ele>273.8571428571429</ele><time>2026-04-25T15:50:19.999Z</time></trkpt><trkpt lat="45.95452208187108" lon="12.201542989255381"><ele>275.57142857142856</ele><time>2026-04-25T15:50:23.999Z</time></trkpt><trkpt lat="45.95455434312558" lon="12.201636174593043"><ele>277.2857142857143</ele><time>2026-04-25T15:50:27.999Z</time></trkpt><trkpt lat="45.954588678863885" lon="12.201716124740308"><ele>279.0</ele><time>2026-04-25T15:50:30.999Z</time></trkpt><trkpt lat="45.95462362949289" lon="12.201809189568163"><ele>279.0</ele><time>2026-04-25T15:50:33.999Z</time></trkpt><trkpt lat="45.954654944422956" lon="12.201906959595647"><ele>279.0</ele><time>2026-04-25T15:50:36.997Z</time></trkpt><trkpt lat="45.95469637211258" lon="12.201976415581878"><ele>279.0</ele><time>2026-04-25T15:50:39.997Z</time></trkpt><trkpt lat="45.954745443352564" lon="12.202056437046206"><ele>279.0</ele><time>2026-04-25T15:50:42.997Z</time></trkpt><trkpt lat="45.95481231727544" lon="12.202126012598075"><ele>279.0</ele><time>2026-04-25T15:50:45.997Z</time></trkpt><trkpt lat="45.95488495589269" lon="12.202194353500579"><ele>279.0</ele><time>2026-04-25T15:50:48.997Z</time></trkpt><trkpt lat="45.95494975938046" lon="12.202272939151891"><ele>279.1666666666667</ele><time>2026-04-25T15:50:51.997Z</time></trkpt><trkpt lat="45.95501628430576" lon="12.202343552007576"><ele>279.3333333333333</ele><time>2026-04-25T15:50:55Z</time></trkpt><trkpt lat="45.95508026285072" lon="12.202423258340868"><ele>279.5</ele><time>2026-04-25T15:50:58Z</time></trkpt><trkpt lat="45.95514400471407" lon="12.202508766855805"><ele>279.66666666666663</ele><time>2026-04-25T15:51:01Z</time></trkpt><trkpt lat="45.955206819604115" lon="12.202611274896658"><ele>279.8333333333333</ele><time>2026-04-25T15:51:04Z</time></trkpt><trkpt lat="45.95524817262291" lon="12.202690729191309"><ele>280.0</ele><time>2026-04-25T15:51:06Z</time></trkpt><trkpt lat="45.95530179428802" lon="12.202803127757088"><ele>280.0</ele><time>2026-04-25T15:51:09Z</time></trkpt><trkpt lat="45.95536182462274" lon="12.20288794523281"><ele>280.0</ele><time>2026-04-25T15:51:12Z</time></trkpt><trkpt lat="45.95541447165097" lon="12.202969018212107"><ele>280.0</ele><time>2026-04-25T15:51:15Z</time></trkpt><trkpt lat="45.95547635691562" lon="12.203036575601214"><ele>280.0</ele><time>2026-04-25T15:51:18Z</time></trkpt><trkpt lat="45.955529115675134" lon="12.203099485834441"><ele>280.0</ele><time>2026-04-25T15:51:21Z</time></trkpt><trkpt lat="45.95557577736109" lon="12.203162004368075"><ele>280.0</ele><time>2026-04-25T15:51:23.999Z</time></trkpt><trkpt lat="45.95563191194222" lon="12.203218761859027"><ele>280.0</ele><time>2026-04-25T15:51:26.999Z</time></trkpt><trkpt lat="45.95568167692085" lon="12.203282601228313"><ele>280.14285714285717</ele><time>2026-04-25T15:51:29.999Z</time></trkpt><trkpt lat="45.95573643807585" lon="12.203341317398145"><ele>280.2857142857143</ele><time>2026-04-25T15:51:32.999Z</time></trkpt><trkpt lat="45.95578584590394" lon="12.203402977586016"><ele>280.42857142857144</ele><time>2026-04-25T15:51:35.999Z</time></trkpt><trkpt lat="45.95584306829654" lon="12.203486746374692"><ele>280.57142857142856</ele><time>2026-04-25T15:51:39.999Z</time></trkpt><trkpt lat="45.955895716027825" lon="12.203576412163683"><ele>280.7142857142857</ele><time>2026-04-25T15:51:43.999Z</time></trkpt><trkpt lat="45.95593719330107" lon="12.203646788301182"><ele>280.8571428571429</ele><time>2026-04-25T15:51:46.999Z</time></trkpt><trkpt lat="45.9559819809151" lon="12.20372891191305"><ele>281.0</ele><time>2026-04-25T15:51:49.999Z</time></trkpt><trkpt lat="45.95603607177143" lon="12.203820265461362"><ele>281.6666666666667</ele><time>2026-04-25T15:51:52.999Z</time></trkpt><trkpt lat="45.956086447979665" lon="12.20391879624171"><ele>282.33333333333337</ele><time>2026-04-25T15:51:55.999Z</time></trkpt><trkpt lat="45.95613878747118" lon="12.204023317042376"><ele>283.0</ele><time>2026-04-25T15:51:58.999Z</time></trkpt><trkpt lat="45.956181426543615" lon="12.204134473832122"><ele>283.6666666666667</ele><time>2026-04-25T15:52:01.999Z</time></trkpt><trkpt lat="45.95622611851757" lon="12.204244807608681"><ele>284.3333333333333</ele><time>2026-04-25T15:52:04.998Z</time></trkpt><trkpt lat="45.95626992183748" lon="12.204354555535831"><ele>285.0</ele><time>2026-04-25T15:52:07.998Z</time></trkpt><trkpt lat="45.95631323181417" lon="12.20446011028531"><ele>285.0</ele><time>2026-04-25T15:52:10.998Z</time></trkpt><trkpt lat="45.956360071508946" lon="12.204568300726072"><ele>285.0</ele><time>2026-04-25T15:52:13.998Z</time></trkpt><trkpt lat="45.95640141423504" lon="12.204684611564847"><ele>285.0</ele><time>2026-04-25T15:52:16.998Z</time></trkpt><trkpt lat="45.95644957972867" lon="12.20479511150688"><ele>285.0</ele><time>2026-04-25T15:52:19.998Z</time></trkpt><trkpt lat="45.956482963388225" lon="12.204873023923057"><ele>285.0</ele><time>2026-04-25T15:52:21.998Z</time></trkpt><trkpt lat="45.95651338216259" lon="12.204953918991503"><ele>285.0</ele><time>2026-04-25T15:52:23.998Z</time></trkpt><trkpt lat="45.95654822810341" lon="12.20503322057678"><ele>284.7142857142857</ele><time>2026-04-25T15:52:25.998Z</time></trkpt><trkpt lat="45.95657756039502" lon="12.20511847525932"><ele>284.42857142857144</ele><time>2026-04-25T15:52:27.998Z</time></trkpt><trkpt lat="45.95661093226696" lon="12.205202406080803"><ele>284.14285714285717</ele><time>2026-04-25T15:52:29.998Z</time></trkpt><trkpt lat="45.956647694808254" lon="12.205290260654978"><ele>283.8571428571429</ele><time>2026-04-25T15:52:31.998Z</time></trkpt><trkpt lat="45.956682123946344" lon="12.205379434712556"><ele>283.5714285714286</ele><time>2026-04-25T15:52:33.998Z</time></trkpt><trkpt lat="45.95671994380719" lon="12.20546832099573"><ele>283.2857142857143</ele><time>2026-04-25T15:52:35.998Z</time></trkpt><trkpt lat="45.95675286312749" lon="12.205553471762581"><ele>283.0</ele><time>2026-04-25T15:52:37.998Z</time></trkpt><trkpt lat="45.956789088188415" lon="12.205643978252267"><ele>282.7142857142857</ele><time>2026-04-25T15:52:39.998Z</time></trkpt><trkpt lat="45.956820235998364" lon="12.205725307251607"><ele>282.42857142857144</ele><time>2026-04-25T15:52:41.998Z</time></trkpt><trkpt lat="45.95685189762157" lon="12.205811295249227"><ele>282.14285714285717</ele><time>2026-04-25T15:52:43.998Z</time></trkpt><trkpt lat="45.95688383038117" lon="12.205893531088297"><ele>281.8571428571429</ele><time>2026-04-25T15:52:45.998Z</time></trkpt><trkpt lat="45.956916126557694" lon="12.205977963740333"><ele>281.57142857142856</ele><time>2026-04-25T15:52:48.997Z</time></trkpt><trkpt lat="45.95700210497026" lon="12.205980136359234"><ele>281.28571428571433</ele><time>2026-04-25T15:52:51.997Z</time></trkpt><trkpt lat="45.957071238470064" lon="12.205958870211882"><ele>281.0</ele><time>2026-04-25T15:52:53.997Z</time></trkpt><trkpt lat="45.957139954702775" lon="12.205937308378594"><ele>281.00000000000006</ele><time>2026-04-25T15:52:55.997Z</time></trkpt><trkpt lat="45.9572048664612" lon="12.205908171529202"><ele>281.0</ele><time>2026-04-25T15:52:57.997Z</time></trkpt><trkpt lat="45.9572708246923" lon="12.205875245296728"><ele>281.0</ele><time>2026-04-25T15:52:59.997Z</time></trkpt><trkpt lat="45.957337886359575" lon="12.205836655527111"><ele>281.0</ele><time>2026-04-25T15:53:02Z</time></trkpt><trkpt lat="45.95740438871156" lon="12.2057930605934"><ele>281.0</ele><time>2026-04-25T15:53:04Z</time></trkpt><trkpt lat="45.957468594465844" lon="12.205739508247285"><ele>281.00000000000006</ele><time>2026-04-25T15:53:06Z</time></trkpt><trkpt lat="45.957520132246195" lon="12.205677743705145"><ele>281.0</ele><time>2026-04-25T15:53:08Z</time></trkpt><trkpt lat="45.957588746563125" lon="12.205580145021534"><ele>280.7142857142857</ele><time>2026-04-25T15:53:11Z</time></trkpt><trkpt lat="45.957647921934665" lon="12.2054871350486"><ele>280.42857142857144</ele><time>2026-04-25T15:53:14Z</time></trkpt><trkpt lat="45.95769976815974" lon="12.205408581050616"><ele>280.1428571428571</ele><time>2026-04-25T15:53:17Z</time></trkpt><trkpt lat="45.95774286960847" lon="12.205331855144673"><ele>279.8571428571429</ele><time>2026-04-25T15:53:20Z</time></trkpt><trkpt lat="45.957783864187455" lon="12.205254934726852"><ele>279.57142857142856</ele><time>2026-04-25T15:53:23Z</time></trkpt><trkpt lat="45.957817085385" lon="12.20517138776086"><ele>279.2857142857143</ele><time>2026-04-25T15:53:26Z</time></trkpt><trkpt lat="45.957846814063366" lon="12.205062453875327"><ele>279.0</ele><time>2026-04-25T15:53:30Z</time></trkpt><trkpt lat="45.95786299904713" lon="12.204955283638094"><ele>279.0</ele><time>2026-04-25T15:53:33.999Z</time></trkpt><trkpt lat="45.95786597204315" lon="12.204846375787607"><ele>279.0</ele><time>2026-04-25T15:53:37.999Z</time></trkpt><trkpt lat="45.957853245166675" lon="12.204751928174824"><ele>279.0</ele><time>2026-04-25T15:53:40.999Z</time></trkpt><trkpt lat="45.95783433517177" lon="12.204650643314137"><ele>279.0</ele><time>2026-04-25T15:53:43.999Z</time></trkpt><trkpt lat="45.957802670652356" lon="12.204545061473707"><ele>279.0</ele><time>2026-04-25T15:53:46.999Z</time></trkpt><trkpt lat="45.95777185345068" lon="12.20443448077175"><ele>279.0</ele><time>2026-04-25T15:53:49.999Z</time></trkpt><trkpt lat="45.95774304862807" lon="12.204319885526928"><ele>278.71428571428567</ele><time>2026-04-25T15:53:52.999Z</time></trkpt><trkpt lat="45.95771361605721" lon="12.204215944866302"><ele>278.42857142857144</ele><time>2026-04-25T15:53:55.999Z</time></trkpt><trkpt lat="45.95769153414774" lon="12.204112045606594"><ele>278.1428571428571</ele><time>2026-04-25T15:53:58.999Z</time></trkpt><trkpt lat="45.95766774817902" lon="12.204027850780257"><ele>277.85714285714283</ele><time>2026-04-25T15:54:00.999Z</time></trkpt><trkpt lat="45.957646115582946" lon="12.203926125463939"><ele>277.57142857142856</ele><time>2026-04-25T15:54:03.999Z</time></trkpt><trkpt lat="45.95763879375688" lon="12.203817454513873"><ele>277.2857142857143</ele><time>2026-04-25T15:54:06.999Z</time></trkpt><trkpt lat="45.957639183869794" lon="12.203713449162525"><ele>277.0</ele><time>2026-04-25T15:54:09.999Z</time></trkpt><trkpt lat="45.9576440525691" lon="12.203611149700782"><ele>278.7142857142857</ele><time>2026-04-25T15:54:12.999Z</time></trkpt><trkpt lat="45.957657383436796" lon="12.203511294345724"><ele>280.4285714285714</ele><time>2026-04-25T15:54:15.999Z</time></trkpt><trkpt lat="45.957674183003604" lon="12.203418122249285"><ele>282.1428571428571</ele><time>2026-04-25T15:54:18.998Z</time></trkpt><trkpt lat="45.957703014635264" lon="12.203310371542534"><ele>283.85714285714283</ele><time>2026-04-25T15:54:22.998Z</time></trkpt><trkpt lat="45.957725090294794" lon="12.203204608206212"><ele>285.57142857142856</ele><time>2026-04-25T15:54:26.998Z</time></trkpt><trkpt lat="45.95775262256461" lon="12.203112198803456"><ele>287.2857142857143</ele><time>2026-04-25T15:54:30.998Z</time></trkpt><trkpt lat="45.95777767462367" lon="12.203018885850348"><ele>289.0</ele><time>2026-04-25T15:54:34.998Z</time></trkpt><trkpt lat="45.95780856405398" lon="12.202930425526093"><ele>291.42857142857144</ele><time>2026-04-25T15:54:38.998Z</time></trkpt><trkpt lat="45.95783709527522" lon="12.20284130840884"><ele>293.85714285714283</ele><time>2026-04-25T15:54:42.998Z</time></trkpt><trkpt lat="45.957874840110584" lon="12.20275882827387"><ele>296.2857142857143</ele><time>2026-04-25T15:54:46.998Z</time></trkpt><trkpt lat="45.95791353455855" lon="12.20268028817176"><ele>298.7142857142857</ele><time>2026-04-25T15:54:50.998Z</time></trkpt><trkpt lat="45.957964376461845" lon="12.202597329505092"><ele>301.14285714285717</ele><time>2026-04-25T15:54:55.998Z</time></trkpt><trkpt lat="45.95801074657525" lon="12.202534652252812"><ele>303.57142857142856</ele><time>2026-04-25T15:54:59.998Z</time></trkpt><trkpt lat="45.95805922542796" lon="12.202459250707117"><ele>306.0</ele><time>2026-04-25T15:55:04.997Z</time></trkpt><trkpt lat="45.95811017082434" lon="12.202382584635922"><ele>306.6666666666667</ele><time>2026-04-25T15:55:10Z</time></trkpt><trkpt lat="45.95815977131447" lon="12.202300524451907"><ele>307.3333333333333</ele><time>2026-04-25T15:55:15Z</time></trkpt><trkpt lat="45.958208795317546" lon="12.202233267582038"><ele>308.0</ele><time>2026-04-25T15:55:19Z</time></trkpt><trkpt lat="45.95826861925631" lon="12.202165186264535"><ele>308.66666666666663</ele><time>2026-04-25T15:55:23Z</time></trkpt><trkpt lat="45.95834399832401" lon="12.202129608635806"><ele>309.3333333333333</ele><time>2026-04-25T15:55:27Z</time></trkpt><trkpt lat="45.95841628881278" lon="12.202095738546864"><ele>310.0</ele><time>2026-04-25T15:55:31Z</time></trkpt><trkpt lat="45.95849052045851" lon="12.202064513793317"><ele>311.0</ele><time>2026-04-25T15:55:35Z</time></trkpt><trkpt lat="45.9585671018577" lon="12.202027664206296"><ele>312.0</ele><time>2026-04-25T15:55:39Z</time></trkpt><trkpt lat="45.95863041669413" lon="12.20200833861474"><ele>313.0</ele><time>2026-04-25T15:55:42Z</time></trkpt><trkpt lat="45.95869954380639" lon="12.201995103654163"><ele>314.0</ele><time>2026-04-25T15:55:45Z</time></trkpt><trkpt lat="45.95877452001347" lon="12.201979736891083"><ele>315.0</ele><time>2026-04-25T15:55:48Z</time></trkpt><trkpt lat="45.958854326074864" lon="12.20197892909545"><ele>316.0</ele><time>2026-04-25T15:55:50.999Z</time></trkpt><trkpt lat="45.95892593100407" lon="12.201975859749929"><ele>317.0</ele><time>2026-04-25T15:55:53.999Z</time></trkpt><trkpt lat="45.95899852649541" lon="12.201986974930287"><ele>317.0</ele><time>2026-04-25T15:55:56.999Z</time></trkpt><trkpt lat="45.95906791255989" lon="12.201994447012973"><ele>317.0</ele><time>2026-04-25T15:55:59.999Z</time></trkpt><trkpt lat="45.95913184377923" lon="12.202004641666731"><ele>317.0</ele><time>2026-04-25T15:56:02.999Z</time></trkpt><trkpt lat="45.9592116028546" lon="12.202011594425668"><ele>317.0</ele><time>2026-04-25T15:56:06.999Z</time></trkpt><trkpt lat="45.959288354746526" lon="12.20202188026297"><ele>317.0</ele><time>2026-04-25T15:56:10.999Z</time></trkpt><trkpt lat="45.9593573225193" lon="12.202027653939693"><ele>317.0</ele><time>2026-04-25T15:56:14.999Z</time></trkpt><trkpt lat="45.95942326686246" lon="12.202023782264229"><ele>317.0</ele><time>2026-04-25T15:56:18.999Z</time></trkpt><trkpt lat="45.95949261803111" lon="12.202006847022613"><ele>318.5</ele><time>2026-04-25T15:56:22.999Z</time></trkpt><trkpt lat="45.95955532916489" lon="12.201981950731312"><ele>320.0</ele><time>2026-04-25T15:56:26.999Z</time></trkpt><trkpt lat="45.959625139917556" lon="12.201955410689013"><ele>321.5</ele><time>2026-04-25T15:56:30.999Z</time></trkpt><trkpt lat="45.9597021157466" lon="12.2019202739302"><ele>323.0</ele><time>2026-04-25T15:56:34.998Z</time></trkpt><trkpt lat="45.95977591817029" lon="12.201884564207527"><ele>324.5</ele><time>2026-04-25T15:56:38.998Z</time></trkpt><trkpt lat="45.95985445531471" lon="12.201840063647028"><ele>326.0</ele><time>2026-04-25T15:56:42.998Z</time></trkpt><trkpt lat="45.959923243293936" lon="12.201810866150016"><ele>326.0</ele><time>2026-04-25T15:56:45.998Z</time></trkpt><trkpt lat="45.959999308789094" lon="12.201786388446434"><ele>326.0</ele><time>2026-04-25T15:56:48.998Z</time></trkpt><trkpt lat="45.96008206459957" lon="12.201779571981806"><ele>326.0</ele><time>2026-04-25T15:56:51.998Z</time></trkpt><trkpt lat="45.96017339535074" lon="12.201770684715763"><ele>326.0</ele><time>2026-04-25T15:56:54.998Z</time></trkpt><trkpt lat="45.96023809886396" lon="12.20176778148843"><ele>326.0</ele><time>2026-04-25T15:56:56.998Z</time></trkpt><trkpt lat="45.96030386905042" lon="12.201761102793087"><ele>326.0</ele><time>2026-04-25T15:56:58.998Z</time></trkpt><trkpt lat="45.9603721012704" lon="12.201749580792807"><ele>327.7142857142857</ele><time>2026-04-25T15:57:00.998Z</time></trkpt><trkpt lat="45.96044181988774" lon="12.201739701717019"><ele>329.4285714285714</ele><time>2026-04-25T15:57:02.998Z</time></trkpt><trkpt lat="45.96051650599885" lon="12.20172632561762"><ele>331.1428571428571</ele><time>2026-04-25T15:57:04.998Z</time></trkpt><trkpt lat="45.96059380155792" lon="12.201712546770347"><ele>332.8571428571429</ele><time>2026-04-25T15:57:06.998Z</time></trkpt><trkpt lat="45.960669329828825" lon="12.201710074340943"><ele>334.57142857142856</ele><time>2026-04-25T15:57:08.998Z</time></trkpt><trkpt lat="45.96073712208893" lon="12.201703715042006"><ele>336.2857142857143</ele><time>2026-04-25T15:57:10.998Z</time></trkpt><trkpt lat="45.96081612656917" lon="12.201699119284896"><ele>338.0</ele><time>2026-04-25T15:57:14Z</time></trkpt><trkpt lat="45.960883566032585" lon="12.20167848083987"><ele>341.2857142857143</ele><time>2026-04-25T15:57:17Z</time></trkpt><trkpt lat="45.96094422683802" lon="12.201647853315917"><ele>344.57142857142856</ele><time>2026-04-25T15:57:20Z</time></trkpt><trkpt lat="45.961015174935035" lon="12.201609803249156"><ele>347.8571428571429</ele><time>2026-04-25T15:57:24Z</time></trkpt><trkpt lat="45.96109612780537" lon="12.201601117544138"><ele>351.1428571428571</ele><time>2026-04-25T15:57:28Z</time></trkpt><trkpt lat="45.96115710401385" lon="12.201632107582704"><ele>354.4285714285714</ele><time>2026-04-25T15:57:31Z</time></trkpt><trkpt lat="45.961213753781955" lon="12.201691035433651"><ele>357.7142857142857</ele><time>2026-04-25T15:57:34Z</time></trkpt><trkpt lat="45.961257065487814" lon="12.201775125084335"><ele>361.0</ele><time>2026-04-25T15:57:37Z</time></trkpt><trkpt lat="45.96128471094658" lon="12.201867555883592"><ele>361.0</ele><time>2026-04-25T15:57:40Z</time></trkpt><trkpt lat="45.96131733005133" lon="12.201958678844042"><ele>361.0</ele><time>2026-04-25T15:57:43Z</time></trkpt><trkpt lat="45.96134897534836" lon="12.202049049989558"><ele>361.0</ele><time>2026-04-25T15:57:46Z</time></trkpt><trkpt lat="45.961401163643565" lon="12.202147116526232"><ele>361.0</ele><time>2026-04-25T15:57:50Z</time></trkpt><trkpt lat="45.96145176876339" lon="12.202236965830508"><ele>361.0</ele><time>2026-04-25T15:57:54Z</time></trkpt><trkpt lat="45.96149391446328" lon="12.202314853618068"><ele>361.0</ele><time>2026-04-25T15:57:58Z</time></trkpt><trkpt lat="45.96153570426531" lon="12.202382797219101"><ele>361.0</ele><time>2026-04-25T15:58:02Z</time></trkpt><trkpt lat="45.96157629053353" lon="12.202470764846183"><ele>359.42857142857144</ele><time>2026-04-25T15:58:06.999Z</time></trkpt><trkpt lat="45.96158718069372" lon="12.202567000337622"><ele>357.85714285714283</ele><time>2026-04-25T15:58:11.999Z</time></trkpt><trkpt lat="45.96157088919514" lon="12.202654956371372"><ele>356.2857142857143</ele><time>2026-04-25T15:58:15.999Z</time></trkpt><trkpt lat="45.96154725598213" lon="12.202759566758711"><ele>354.7142857142857</ele><time>2026-04-25T15:58:20.999Z</time></trkpt><trkpt lat="45.961531900539555" lon="12.202848999421448"><ele>353.1428571428571</ele><time>2026-04-25T15:58:24.999Z</time></trkpt><trkpt lat="45.96151212009949" lon="12.202939337848244"><ele>351.57142857142856</ele><time>2026-04-25T15:58:28.999Z</time></trkpt><trkpt lat="45.96149355384277" lon="12.203030076681063"><ele>350.0</ele><time>2026-04-25T15:58:32.998Z</time></trkpt><trkpt lat="45.961487470746945" lon="12.203131566044075"><ele>350.7142857142857</ele><time>2026-04-25T15:58:36.998Z</time></trkpt><trkpt lat="45.96148096923632" lon="12.203231639251596"><ele>351.42857142857144</ele><time>2026-04-25T15:58:40.998Z</time></trkpt><trkpt lat="45.961474201131814" lon="12.203326308628107"><ele>352.1428571428571</ele><time>2026-04-25T15:58:44.998Z</time></trkpt><trkpt lat="45.96148271322236" lon="12.203418314167662"><ele>352.8571428571429</ele><time>2026-04-25T15:58:48.998Z</time></trkpt><trkpt lat="45.96149462590898" lon="12.203527546571722"><ele>353.57142857142856</ele><time>2026-04-25T15:58:53.997Z</time></trkpt><trkpt lat="45.96150940497992" lon="12.203616535227559"><ele>354.2857142857143</ele><time>2026-04-25T15:58:57.997Z</time></trkpt><trkpt lat="45.96152657865589" lon="12.203706287905552"><ele>355.0</ele><time>2026-04-25T15:59:01.997Z</time></trkpt><trkpt lat="45.96157904528831" lon="12.203779074616833"><ele>355.0</ele><time>2026-04-25T15:59:05.997Z</time></trkpt><trkpt lat="45.961643092239775" lon="12.203785268111453"><ele>355.0</ele><time>2026-04-25T15:59:08.997Z</time></trkpt><trkpt lat="45.961879212078756" lon="12.20380643185814"><ele>355.0</ele><time>2026-04-25T15:59:17.997Z</time></trkpt><trkpt lat="45.96196450433259" lon="12.203844095967119"><ele>355.0</ele><time>2026-04-25T15:59:21Z</time></trkpt><trkpt lat="45.96203203867352" lon="12.203874363520669"><ele>357.42857142857144</ele><time>2026-04-25T15:59:24Z</time></trkpt><trkpt lat="45.9621112562336" lon="12.203904433377321"><ele>359.8571428571429</ele><time>2026-04-25T15:59:28Z</time></trkpt><trkpt lat="45.96218112347273" lon="12.20392149599273"><ele>362.28571428571433</ele><time>2026-04-25T15:59:32Z</time></trkpt><trkpt lat="45.96224577060436" lon="12.203922697450812"><ele>364.7142857142857</ele><time>2026-04-25T15:59:36Z</time></trkpt><trkpt lat="45.96231660460686" lon="12.203885795646976"><ele>367.14285714285717</ele><time>2026-04-25T15:59:40.999Z</time></trkpt><trkpt lat="45.962372432907" lon="12.20382441003693"><ele>369.5714285714286</ele><time>2026-04-25T15:59:45.999Z</time></trkpt><trkpt lat="45.96241333509024" lon="12.203732921056167"><ele>372.0</ele><time>2026-04-25T15:59:50.999Z</time></trkpt><trkpt lat="45.96243858031717" lon="12.203632562081962"><ele>372.00000000000006</ele><time>2026-04-25T15:59:55.999Z</time></trkpt><trkpt lat="45.962459836424415" lon="12.20353232539181"><ele>372.0</ele><time>2026-04-25T16:00:00.999Z</time></trkpt><trkpt lat="45.96245913782645" lon="12.20342992340851"><ele>372.0</ele><time>2026-04-25T16:00:05.999Z</time></trkpt><trkpt lat="45.96245552873445" lon="12.203332153825677"><ele>372.0</ele><time>2026-04-25T16:00:09.999Z</time></trkpt><trkpt lat="45.96243584546235" lon="12.20323118140366"><ele>372.0</ele><time>2026-04-25T16:00:13.999Z</time></trkpt><trkpt lat="45.96240637114738" lon="12.203125037275653"><ele>372.00000000000006</ele><time>2026-04-25T16:00:17.999Z</time></trkpt><trkpt lat="45.96239109547591" lon="12.20303286680742"><ele>372.0</ele><time>2026-04-25T16:00:20.998Z</time></trkpt><trkpt lat="45.96236484905743" lon="12.202936333570115"><ele>372.8571428571429</ele><time>2026-04-25T16:00:23.998Z</time></trkpt><trkpt lat="45.96233711271288" lon="12.202834598884612"><ele>373.7142857142857</ele><time>2026-04-25T16:00:26.998Z</time></trkpt><trkpt lat="45.96230661175467" lon="12.202722387531468"><ele>374.57142857142856</ele><time>2026-04-25T16:00:29.998Z</time></trkpt><trkpt lat="45.96226936970301" lon="12.202598120823255"><ele>375.42857142857144</ele><time>2026-04-25T16:00:32.998Z</time></trkpt><trkpt lat="45.9622466384309" lon="12.202512712512272"><ele>376.2857142857143</ele><time>2026-04-25T16:00:34.998Z</time></trkpt><trkpt lat="45.962222511149" lon="12.202426540923886"><ele>377.14285714285717</ele><time>2026-04-25T16:00:36.998Z</time></trkpt><trkpt lat="45.96219994087931" lon="12.202336639314204"><ele>378.0</ele><time>2026-04-25T16:00:38.998Z</time></trkpt><trkpt lat="45.96217276358222" lon="12.202248113998728"><ele>379.42857142857144</ele><time>2026-04-25T16:00:40.998Z</time></trkpt><trkpt lat="45.96214476224951" lon="12.20216080993153"><ele>380.8571428571429</ele><time>2026-04-25T16:00:42.998Z</time></trkpt><trkpt lat="45.962116062376595" lon="12.202075945164774"><ele>382.2857142857143</ele><time>2026-04-25T16:00:44.998Z</time></trkpt><trkpt lat="45.96209152223181" lon="12.201991492601733"><ele>383.7142857142857</ele><time>2026-04-25T16:00:46.998Z</time></trkpt><trkpt lat="45.96205990597219" lon="12.20187011670855"><ele>385.14285714285717</ele><time>2026-04-25T16:00:49.998Z</time></trkpt><trkpt lat="45.96203210397462" lon="12.201759782455627"><ele>386.57142857142856</ele><time>2026-04-25T16:00:52.998Z</time></trkpt><trkpt lat="45.962009405796394" lon="12.20165568857571"><ele>388.0</ele><time>2026-04-25T16:00:55.998Z</time></trkpt><trkpt lat="45.96198892994466" lon="12.201561203899395"><ele>390.2857142857143</ele><time>2026-04-25T16:00:58.998Z</time></trkpt><trkpt lat="45.961968327329714" lon="12.201468110819707"><ele>392.5714285714286</ele><time>2026-04-25T16:01:01.998Z</time></trkpt><trkpt lat="45.96194732532682" lon="12.201380692711588"><ele>394.8571428571429</ele><time>2026-04-25T16:01:04.997Z</time></trkpt><trkpt lat="45.961921430113684" lon="12.20127119132689"><ele>397.1428571428571</ele><time>2026-04-25T16:01:08.997Z</time></trkpt><trkpt lat="45.961898906633444" lon="12.201157840293902"><ele>399.42857142857144</ele><time>2026-04-25T16:01:12.997Z</time></trkpt><trkpt lat="45.96187874850496" lon="12.201054077812604"><ele>401.7142857142857</ele><time>2026-04-25T16:01:16.997Z</time></trkpt><trkpt lat="45.96185914856228" lon="12.200944561700943"><ele>404.0</ele><time>2026-04-25T16:01:20.997Z</time></trkpt><trkpt lat="45.96181260992951" lon="12.20085032783217"><ele>403.99999999999994</ele><time>2026-04-25T16:01:25Z</time></trkpt><trkpt lat="45.96175682006448" lon="12.200751678195372"><ele>404.0</ele><time>2026-04-25T16:01:28Z</time></trkpt><trkpt lat="45.96169773381784" lon="12.200659410532655"><ele>404.0</ele><time>2026-04-25T16:01:31Z</time></trkpt><trkpt lat="45.96164881514621" lon="12.200580577232929"><ele>404.0</ele><time>2026-04-25T16:01:33Z</time></trkpt><trkpt lat="45.9615933981034" lon="12.200504588586748"><ele>403.99999999999994</ele><time>2026-04-25T16:01:35Z</time></trkpt><trkpt lat="45.961525512564926" lon="12.200434534344915"><ele>404.0</ele><time>2026-04-25T16:01:37Z</time></trkpt><trkpt lat="45.9614532375501" lon="12.200357236096036"><ele>406.0</ele><time>2026-04-25T16:01:39Z</time></trkpt><trkpt lat="45.96137841054357" lon="12.200271318838386"><ele>408.0</ele><time>2026-04-25T16:01:41Z</time></trkpt><trkpt lat="45.96129424633142" lon="12.20018236670494"><ele>410.0</ele><time>2026-04-25T16:01:43Z</time></trkpt><trkpt lat="45.961213812522" lon="12.2000792321663"><ele>412.0</ele><time>2026-04-25T16:01:45Z</time></trkpt><trkpt lat="45.961142206750374" lon="12.199960832958155"><ele>414.0</ele><time>2026-04-25T16:01:47Z</time></trkpt><trkpt lat="45.9610859452342" lon="12.199827035211296"><ele>414.0</ele><time>2026-04-25T16:01:49Z</time></trkpt><trkpt lat="45.961028056504844" lon="12.199693597378404"><ele>414.0</ele><time>2026-04-25T16:01:51Z</time></trkpt><trkpt lat="45.96096557965211" lon="12.199571062394707"><ele>414.0</ele><time>2026-04-25T16:01:53Z</time></trkpt><trkpt lat="45.96090481763634" lon="12.199451358708185"><ele>414.0</ele><time>2026-04-25T16:01:54.999Z</time></trkpt><trkpt lat="45.96084127509504" lon="12.19933089866418"><ele>414.0</ele><time>2026-04-25T16:01:56.999Z</time></trkpt><trkpt lat="45.96077854669125" lon="12.199223472624283"><ele>408.8333333333333</ele><time>2026-04-25T16:01:58.999Z</time></trkpt><trkpt lat="45.960725846109426" lon="12.199113701950573"><ele>403.6666666666667</ele><time>2026-04-25T16:02:00.999Z</time></trkpt><trkpt lat="45.96068232357527" lon="12.199003260509201"><ele>398.5</ele><time>2026-04-25T16:02:02.999Z</time></trkpt><trkpt lat="45.960659177193385" lon="12.198887437139774"><ele>393.33333333333337</ele><time>2026-04-25T16:02:04.999Z</time></trkpt><trkpt lat="45.96064510209564" lon="12.198776402870182"><ele>388.1666666666667</ele><time>2026-04-25T16:02:06.999Z</time></trkpt><trkpt lat="45.96064579672896" lon="12.1986729223254"><ele>383.0</ele><time>2026-04-25T16:02:08.999Z</time></trkpt><trkpt lat="45.960654484558184" lon="12.19856242478401"><ele>383.0</ele><time>2026-04-25T16:02:10.999Z</time></trkpt><trkpt lat="45.9606663105175" lon="12.198439573845018"><ele>383.0</ele><time>2026-04-25T16:02:12.999Z</time></trkpt><trkpt lat="45.960681289309726" lon="12.198302860539762"><ele>383.0</ele><time>2026-04-25T16:02:14.999Z</time></trkpt><trkpt lat="45.9606936050026" lon="12.19814955262953"><ele>383.0</ele><time>2026-04-25T16:02:16.999Z</time></trkpt><trkpt lat="45.960703870293" lon="12.19798254207266"><ele>383.0</ele><time>2026-04-25T16:02:18.999Z</time></trkpt><trkpt lat="45.96071142494769" lon="12.197804919266018"><ele>383.5</ele><time>2026-04-25T16:02:20.999Z</time></trkpt><trkpt lat="45.960699206538465" lon="12.197622616401643"><ele>384.0</ele><time>2026-04-25T16:02:22.999Z</time></trkpt><trkpt lat="45.96068078968008" lon="12.197533316019364"><ele>384.5</ele><time>2026-04-25T16:02:23.999Z</time></trkpt><trkpt lat="45.960672436537465" lon="12.197432217927064"><ele>385.0</ele><time>2026-04-25T16:02:24.999Z</time></trkpt><trkpt lat="45.96064273485793" lon="12.197346094403406"><ele>385.49999999999994</ele><time>2026-04-25T16:02:25.999Z</time></trkpt><trkpt lat="45.96061212073569" lon="12.197259900007587"><ele>386.0</ele><time>2026-04-25T16:02:26.999Z</time></trkpt><trkpt lat="45.96058552535364" lon="12.197176093380712"><ele>386.28571428571433</ele><time>2026-04-25T16:02:27.999Z</time></trkpt><trkpt lat="45.96056167805753" lon="12.197085728999015"><ele>386.57142857142856</ele><time>2026-04-25T16:02:28.999Z</time></trkpt><trkpt lat="45.960549010499484" lon="12.196991278389863"><ele>386.8571428571429</ele><time>2026-04-25T16:02:29.999Z</time></trkpt><trkpt lat="45.96052367458683" lon="12.196895994200936"><ele>387.14285714285717</ele><time>2026-04-25T16:02:30.999Z</time></trkpt><trkpt lat="45.96053458099121" lon="12.196789813400356"><ele>387.42857142857144</ele><time>2026-04-25T16:02:31.999Z</time></trkpt><trkpt lat="45.96053081509807" lon="12.196684360484376"><ele>387.7142857142857</ele><time>2026-04-25T16:02:32.999Z</time></trkpt><trkpt lat="45.9605268250089" lon="12.196573716324773"><ele>388.0</ele><time>2026-04-25T16:02:33.999Z</time></trkpt><trkpt lat="45.960521928118695" lon="12.196457312988215"><ele>389.33333333333337</ele><time>2026-04-25T16:02:34.999Z</time></trkpt><trkpt lat="45.960514719263514" lon="12.196340748341324"><ele>390.6666666666667</ele><time>2026-04-25T16:02:35.999Z</time></trkpt><trkpt lat="45.96050585096491" lon="12.19622343718907"><ele>392.0</ele><time>2026-04-25T16:02:36.999Z</time></trkpt><trkpt lat="45.96049446829575" lon="12.19610560831265"><ele>393.33333333333337</ele><time>2026-04-25T16:02:37.999Z</time></trkpt><trkpt lat="45.960477489820676" lon="12.195987768245455"><ele>394.6666666666667</ele><time>2026-04-25T16:02:38.998Z</time></trkpt><trkpt lat="45.9604550641054" lon="12.195871112772808"><ele>396.0</ele><time>2026-04-25T16:02:39.998Z</time></trkpt><trkpt lat="45.96042038308759" lon="12.195751452388121"><ele>398.5</ele><time>2026-04-25T16:02:40.998Z</time></trkpt><trkpt lat="45.960377273038425" lon="12.195637914403932"><ele>401.0</ele><time>2026-04-25T16:02:41.998Z</time></trkpt><trkpt lat="45.96032864252702" lon="12.19552811851799"><ele>403.5</ele><time>2026-04-25T16:02:42.998Z</time></trkpt><trkpt lat="45.9602703754329" lon="12.195426341418925"><ele>406.0</ele><time>2026-04-25T16:02:43.998Z</time></trkpt><trkpt lat="45.9602156531887" lon="12.195336111202737"><ele>408.5</ele><time>2026-04-25T16:02:44.998Z</time></trkpt><trkpt lat="45.96016645636015" lon="12.195235248229835"><ele>411.0</ele><time>2026-04-25T16:02:45.998Z</time></trkpt><trkpt lat="45.96012601596197" lon="12.19512790602945"><ele>411.0</ele><time>2026-04-25T16:02:46.998Z</time></trkpt><trkpt lat="45.960088387204095" lon="12.195011792765024"><ele>411.0</ele><time>2026-04-25T16:02:47.998Z</time></trkpt><trkpt lat="45.96005558384382" lon="12.194884957812512"><ele>411.0</ele><time>2026-04-25T16:02:48.998Z</time></trkpt><trkpt lat="45.960028992447796" lon="12.194749998510732"><ele>411.0</ele><time>2026-04-25T16:02:49.998Z</time></trkpt><trkpt lat="45.95999812094999" lon="12.194616326314616"><ele>411.0</ele><time>2026-04-25T16:02:50.998Z</time></trkpt><trkpt lat="45.95998081099581" lon="12.194466885942091"><ele>402.75</ele><time>2026-04-25T16:02:51.998Z</time></trkpt><trkpt lat="45.95998049205502" lon="12.194305270332867"><ele>394.5</ele><time>2026-04-25T16:02:52.998Z</time></trkpt><trkpt lat="45.959960889018674" lon="12.194141495528834"><ele>386.25</ele><time>2026-04-25T16:02:53.998Z</time></trkpt><trkpt lat="45.95994003558165" lon="12.1939773946574"><ele>378.0</ele><time>2026-04-25T16:02:54.998Z</time></trkpt><trkpt lat="45.95991643929035" lon="12.193815358823528"><ele>378.0</ele><time>2026-04-25T16:02:55.998Z</time></trkpt><trkpt lat="45.95987756274036" lon="12.193651799327672"><ele>378.0</ele><time>2026-04-25T16:02:56.998Z</time></trkpt><trkpt lat="45.95981373293495" lon="12.193501858624016"><ele>378.0</ele><time>2026-04-25T16:02:57.998Z</time></trkpt><trkpt lat="45.959725530628994" lon="12.193379680066048"><ele>378.0</ele><time>2026-04-25T16:02:58.998Z</time></trkpt><trkpt lat="45.95963146764514" lon="12.193278713705816"><ele>378.0</ele><time>2026-04-25T16:02:59.998Z</time></trkpt><trkpt lat="45.95953735959478" lon="12.193182870996404"><ele>378.0</ele><time>2026-04-25T16:03:00.998Z</time></trkpt><trkpt lat="45.959448359154244" lon="12.193090577369643"><ele>378.0</ele><time>2026-04-25T16:03:01.998Z</time></trkpt><trkpt lat="45.959368595263946" lon="12.193007814811557"><ele>378.0</ele><time>2026-04-25T16:03:02.998Z</time></trkpt><trkpt lat="45.95928851317523" lon="12.192927087762703"><ele>378.0</ele><time>2026-04-25T16:03:03.998Z</time></trkpt><trkpt lat="45.959209214024476" lon="12.192849562836482"><ele>374.6666666666667</ele><time>2026-04-25T16:03:04.998Z</time></trkpt><trkpt lat="45.959133861527256" lon="12.192778920188248"><ele>371.3333333333333</ele><time>2026-04-25T16:03:05.998Z</time></trkpt><trkpt lat="45.95906133194259" lon="12.19271574993455"><ele>368.0</ele><time>2026-04-25T16:03:06.998Z</time></trkpt><trkpt lat="45.958988822938466" lon="12.192658796488752"><ele>364.66666666666663</ele><time>2026-04-25T16:03:07.998Z</time></trkpt><trkpt lat="45.95892068037635" lon="12.192610318606286"><ele>361.3333333333333</ele><time>2026-04-25T16:03:08.998Z</time></trkpt><trkpt lat="45.9588657340889" lon="12.192563028336886"><ele>358.0</ele><time>2026-04-25T16:03:09.998Z</time></trkpt><trkpt lat="45.9588065965772" lon="12.192512127812387"><ele>358.0</ele><time>2026-04-25T16:03:10.998Z</time></trkpt><trkpt lat="45.958745399534486" lon="12.192347565601814"><ele>358.0</ele><time>2026-04-25T16:03:12.998Z</time></trkpt><trkpt lat="45.95871845963952" lon="12.192248487391556"><ele>358.0</ele><time>2026-04-25T16:03:13.998Z</time></trkpt><trkpt lat="45.95869602604091" lon="12.192143485195492"><ele>358.0</ele><time>2026-04-25T16:03:14.998Z</time></trkpt><trkpt lat="45.95868309685745" lon="12.192025525636806"><ele>358.0</ele><time>2026-04-25T16:03:15.998Z</time></trkpt><trkpt lat="45.95867767531019" lon="12.191905750068239"><ele>358.0</ele><time>2026-04-25T16:03:16.998Z</time></trkpt><trkpt lat="45.95867871624884" lon="12.191774727156458"><ele>357.4</ele><time>2026-04-25T16:03:17.998Z</time></trkpt><trkpt lat="45.95868298354868" lon="12.191642771263073"><ele>356.79999999999995</ele><time>2026-04-25T16:03:18.998Z</time></trkpt><trkpt lat="45.95869472428138" lon="12.191509080683963"><ele>356.2</ele><time>2026-04-25T16:03:19.998Z</time></trkpt><trkpt lat="45.95872359430228" lon="12.191369812685203"><ele>355.6</ele><time>2026-04-25T16:03:20.998Z</time></trkpt><trkpt lat="45.958761954026116" lon="12.19123163929401"><ele>355.0</ele><time>2026-04-25T16:03:21.997Z</time></trkpt><trkpt lat="45.95881186060153" lon="12.191103564172513"><ele>352.4</ele><time>2026-04-25T16:03:22.997Z</time></trkpt><trkpt lat="45.958845704711514" lon="12.190961527891721"><ele>349.8</ele><time>2026-04-25T16:03:23.997Z</time></trkpt><trkpt lat="45.958910743731366" lon="12.190849295341184"><ele>347.20000000000005</ele><time>2026-04-25T16:03:24.997Z</time></trkpt><trkpt lat="45.95896892012406" lon="12.190734536495148"><ele>344.6</ele><time>2026-04-25T16:03:25.997Z</time></trkpt><trkpt lat="45.95904326803283" lon="12.190651719552966"><ele>342.0</ele><time>2026-04-25T16:03:26.997Z</time></trkpt><trkpt lat="45.95910617859858" lon="12.190550873880342"><ele>344.40000000000003</ele><time>2026-04-25T16:03:27.997Z</time></trkpt><trkpt lat="45.959168718790536" lon="12.190443648166028"><ele>346.8</ele><time>2026-04-25T16:03:28.997Z</time></trkpt><trkpt lat="45.95921520808411" lon="12.190327125356735"><ele>349.2</ele><time>2026-04-25T16:03:29.997Z</time></trkpt><trkpt lat="45.95926916168217" lon="12.190223798001513"><ele>351.6</ele><time>2026-04-25T16:03:31Z</time></trkpt><trkpt lat="45.95933680445059" lon="12.190133420163061"><ele>354.0</ele><time>2026-04-25T16:03:32Z</time></trkpt><trkpt lat="45.95940149395104" lon="12.190040588124731"><ele>354.0</ele><time>2026-04-25T16:03:33Z</time></trkpt><trkpt lat="45.95946149439163" lon="12.189937947814377"><ele>354.0</ele><time>2026-04-25T16:03:34Z</time></trkpt><trkpt lat="45.95945470172644" lon="12.189788373655063"><ele>354.0</ele><time>2026-04-25T16:03:35Z</time></trkpt><trkpt lat="45.959466782692786" lon="12.189655229671482"><ele>354.0</ele><time>2026-04-25T16:03:36Z</time></trkpt><trkpt lat="45.9594859464992" lon="12.189528055855272"><ele>354.0</ele><time>2026-04-25T16:03:37Z</time></trkpt><trkpt lat="45.95951216680182" lon="12.189410926817368"><ele>349.1666666666667</ele><time>2026-04-25T16:03:38Z</time></trkpt><trkpt lat="45.95955664399059" lon="12.189310977415937"><ele>344.3333333333333</ele><time>2026-04-25T16:03:39Z</time></trkpt><trkpt lat="45.95958383415321" lon="12.189215228553843"><ele>339.5</ele><time>2026-04-25T16:03:40Z</time></trkpt><trkpt lat="45.95967011447333" lon="12.18918387507489"><ele>334.66666666666663</ele><time>2026-04-25T16:03:41Z</time></trkpt><trkpt lat="45.95976049801056" lon="12.189176571980221"><ele>329.8333333333333</ele><time>2026-04-25T16:03:42Z</time></trkpt><trkpt lat="45.959859888486385" lon="12.189150020852532"><ele>325.0</ele><time>2026-04-25T16:03:43Z</time></trkpt><trkpt lat="45.95996461551103" lon="12.189122744899942"><ele>324.0</ele><time>2026-04-25T16:03:44Z</time></trkpt><trkpt lat="45.960063221580334" lon="12.18904670716345"><ele>323.0</ele><time>2026-04-25T16:03:45Z</time></trkpt><trkpt lat="45.96014858862902" lon="12.188930679963093"><ele>322.0</ele><time>2026-04-25T16:03:46Z</time></trkpt><trkpt lat="45.96022586366623" lon="12.18880884848444"><ele>321.0</ele><time>2026-04-25T16:03:47Z</time></trkpt><trkpt lat="45.960303236293136" lon="12.188694131268361"><ele>321.0</ele><time>2026-04-25T16:03:48Z</time></trkpt><trkpt lat="45.960384002482584" lon="12.1885901239909"><ele>321.0</ele><time>2026-04-25T16:03:49Z</time></trkpt><trkpt lat="45.96046420708578" lon="12.188486274784676"><ele>321.0</ele><time>2026-04-25T16:03:50Z</time></trkpt><trkpt lat="45.96053307580478" lon="12.188381181515215"><ele>321.0</ele><time>2026-04-25T16:03:51Z</time></trkpt><trkpt lat="45.960593151661485" lon="12.18827059092762"><ele>321.0</ele><time>2026-04-25T16:03:52Z</time></trkpt><trkpt lat="45.960638005554806" lon="12.188139428711933"><ele>320.8</ele><time>2026-04-25T16:03:53Z</time></trkpt><trkpt lat="45.9606467167898" lon="12.18798932244252"><ele>320.6</ele><time>2026-04-25T16:03:54Z</time></trkpt><trkpt lat="45.9606443221745" lon="12.18784038204439"><ele>320.4</ele><time>2026-04-25T16:03:55Z</time></trkpt><trkpt lat="45.96060115875321" lon="12.187703042450709"><ele>320.2</ele><time>2026-04-25T16:03:56Z</time></trkpt><trkpt lat="45.960528292213766" lon="12.187597268987922"><ele>320.0</ele><time>2026-04-25T16:03:57Z</time></trkpt><trkpt lat="45.96044729885109" lon="12.187526809166442"><ele>320.0</ele><time>2026-04-25T16:03:58Z</time></trkpt><trkpt lat="45.96035821520347" lon="12.187488078845183"><ele>320.0</ele><time>2026-04-25T16:03:59Z</time></trkpt><trkpt lat="45.9602788130564" lon="12.187474103853821"><ele>320.0</ele><time>2026-04-25T16:04:00Z</time></trkpt><trkpt lat="45.96021113958057" lon="12.187472245931122"><ele>320.0</ele><time>2026-04-25T16:04:01Z</time></trkpt><trkpt lat="45.96014968241904" lon="12.187499282350306"><ele>320.0</ele><time>2026-04-25T16:04:02Z</time></trkpt><trkpt lat="45.96006662898512" lon="12.18758841925512"><ele>320.0</ele><time>2026-04-25T16:04:04Z</time></trkpt><trkpt lat="45.960013892649386" lon="12.187675243639347"><ele>321.0</ele><time>2026-04-25T16:04:06Z</time></trkpt><trkpt lat="45.95997303963411" lon="12.1877442149474"><ele>322.0</ele><time>2026-04-25T16:04:08Z</time></trkpt><trkpt lat="45.95992159263246" lon="12.18782538455626"><ele>323.0</ele><time>2026-04-25T16:04:10.999Z</time></trkpt><trkpt lat="45.959872944891266" lon="12.187896373101013"><ele>324.0</ele><time>2026-04-25T16:04:13.999Z</time></trkpt><trkpt lat="45.95980698435149" lon="12.187964089449771"><ele>325.0</ele><time>2026-04-25T16:04:17.999Z</time></trkpt><trkpt lat="45.95975159709071" lon="12.188018100305971"><ele>326.0</ele><time>2026-04-25T16:04:20.999Z</time></trkpt><trkpt lat="45.959691550464626" lon="12.188076133641434"><ele>327.0</ele><time>2026-04-25T16:04:23.999Z</time></trkpt><trkpt lat="45.95963560477792" lon="12.188132176733054"><ele>325.0</ele><time>2026-04-25T16:04:26.999Z</time></trkpt><trkpt lat="45.959642497768684" lon="12.18825573109683"><ele>323.0</ele><time>2026-04-25T16:04:28.999Z</time></trkpt><trkpt lat="45.95958842811222" lon="12.188305218672726"><ele>321.0</ele><time>2026-04-25T16:04:31.999Z</time></trkpt><trkpt lat="45.959520601018234" lon="12.188372278841426"><ele>319.0</ele><time>2026-04-25T16:04:35.999Z</time></trkpt><trkpt lat="45.95945328104025" lon="12.18842325364741"><ele>317.0</ele><time>2026-04-25T16:04:38.999Z</time></trkpt><trkpt lat="45.95938366149989" lon="12.188470387639942"><ele>315.0</ele><time>2026-04-25T16:04:41.999Z</time></trkpt><trkpt lat="45.95931562249053" lon="12.188503369005073"><ele>315.0</ele><time>2026-04-25T16:04:44.999Z</time></trkpt><trkpt lat="45.95924711452984" lon="12.188492422608226"><ele>315.0</ele><time>2026-04-25T16:04:47.999Z</time></trkpt><trkpt lat="45.9591807250397" lon="12.188451494543356"><ele>315.0</ele><time>2026-04-25T16:04:50.999Z</time></trkpt><trkpt lat="45.959121380991704" lon="12.188403749214743"><ele>315.0</ele><time>2026-04-25T16:04:53.998Z</time></trkpt><trkpt lat="45.95906546160334" lon="12.188355445322118"><ele>315.0</ele><time>2026-04-25T16:04:56.998Z</time></trkpt><trkpt lat="45.958994612471855" lon="12.188295598329297"><ele>315.0</ele><time>2026-04-25T16:05:00.998Z</time></trkpt><trkpt lat="45.95892513602572" lon="12.188239309311818"><ele>315.0</ele><time>2026-04-25T16:05:04.998Z</time></trkpt><trkpt lat="45.95885639569773" lon="12.188180706069172"><ele>321.1666666666667</ele><time>2026-04-25T16:05:08.998Z</time></trkpt><trkpt lat="45.95878212200676" lon="12.188130373278197"><ele>327.3333333333333</ele><time>2026-04-25T16:05:12.998Z</time></trkpt><trkpt lat="45.95871730893395" lon="12.188070366793301"><ele>333.5</ele><time>2026-04-25T16:05:16.998Z</time></trkpt><trkpt lat="45.95865286287032" lon="12.188016807007047"><ele>339.66666666666663</ele><time>2026-04-25T16:05:20.998Z</time></trkpt><trkpt lat="45.958585554575016" lon="12.187968751364181"><ele>345.8333333333333</ele><time>2026-04-25T16:05:24.998Z</time></trkpt><trkpt lat="45.95851938470353" lon="12.187909114994422"><ele>352.0</ele><time>2026-04-25T16:05:28.998Z</time></trkpt><trkpt lat="45.95845131605088" lon="12.187851561704461"><ele>352.0</ele><time>2026-04-25T16:05:32.998Z</time></trkpt><trkpt lat="45.9583834072236" lon="12.18779462979683"><ele>352.0</ele><time>2026-04-25T16:05:37Z</time></trkpt><trkpt lat="45.958320215904095" lon="12.187727725900183"><ele>352.0</ele><time>2026-04-25T16:05:41Z</time></trkpt><trkpt lat="45.95826352047514" lon="12.18764103161632"><ele>352.0</ele><time>2026-04-25T16:05:45Z</time></trkpt><trkpt lat="45.95822495420666" lon="12.187564687828726"><ele>352.0</ele><time>2026-04-25T16:05:48Z</time></trkpt><trkpt lat="45.958188554745234" lon="12.18748657885385"><ele>352.0</ele><time>2026-04-25T16:05:51Z</time></trkpt><trkpt lat="45.958152784371606" lon="12.187410597855349"><ele>352.0</ele><time>2026-04-25T16:05:54Z</time></trkpt><trkpt lat="45.9581201237662" lon="12.187331139607492"><ele>352.7142857142857</ele><time>2026-04-25T16:05:57Z</time></trkpt><trkpt lat="45.95808353308486" lon="12.187253116094588"><ele>353.42857142857144</ele><time>2026-04-25T16:06:00Z</time></trkpt><trkpt lat="45.958048190775514" lon="12.187176454158974"><ele>354.1428571428571</ele><time>2026-04-25T16:06:03Z</time></trkpt><trkpt lat="45.957999795606646" lon="12.18707913563803"><ele>354.8571428571429</ele><time>2026-04-25T16:06:07Z</time></trkpt><trkpt lat="45.95794914438075" lon="12.186997054477594"><ele>355.57142857142856</ele><time>2026-04-25T16:06:11Z</time></trkpt><trkpt lat="45.95788218475829" lon="12.186937073152823"><ele>356.2857142857143</ele><time>2026-04-25T16:06:15Z</time></trkpt><trkpt lat="45.95780830300755" lon="12.186901263853299"><ele>357.0</ele><time>2026-04-25T16:06:19Z</time></trkpt><trkpt lat="45.95772827939045" lon="12.18689865264136"><ele>357.0</ele><time>2026-04-25T16:06:23Z</time></trkpt><trkpt lat="45.95764993619888" lon="12.186914232879309"><ele>357.0</ele><time>2026-04-25T16:06:27Z</time></trkpt><trkpt lat="45.957585334989695" lon="12.18693013345144"><ele>357.0</ele><time>2026-04-25T16:06:29.999Z</time></trkpt><trkpt lat="45.95751725419332" lon="12.18694927874931"><ele>357.0</ele><time>2026-04-25T16:06:32.998Z</time></trkpt><trkpt lat="45.957451687583145" lon="12.186965783173871"><ele>357.0</ele><time>2026-04-25T16:06:35.998Z</time></trkpt><trkpt lat="45.95738405233994" lon="12.186970969855295"><ele>357.0</ele><time>2026-04-25T16:06:38.998Z</time></trkpt><trkpt lat="45.95731667669958" lon="12.186943714731433"><ele>357.0</ele><time>2026-04-25T16:06:41.998Z</time></trkpt><trkpt lat="45.95726092554634" lon="12.186883476041716"><ele>354.1666666666667</ele><time>2026-04-25T16:06:44.998Z</time></trkpt><trkpt lat="45.95723997384441" lon="12.18677384518234"><ele>351.3333333333333</ele><time>2026-04-25T16:06:47.998Z</time></trkpt><trkpt lat="45.957243826659294" lon="12.18664894010589"><ele>348.5</ele><time>2026-04-25T16:06:50.998Z</time></trkpt><trkpt lat="45.95726541868344" lon="12.186549116880633"><ele>345.66666666666663</ele><time>2026-04-25T16:06:52.998Z</time></trkpt><trkpt lat="45.95728708903126" lon="12.186435831034789"><ele>342.8333333333333</ele><time>2026-04-25T16:06:54.998Z</time></trkpt><trkpt lat="45.95730981883008" lon="12.186313242212773"><ele>340.0</ele><time>2026-04-25T16:06:56.998Z</time></trkpt><trkpt lat="45.95731634316861" lon="12.186168734205744"><ele>339.8333333333333</ele><time>2026-04-25T16:06:58.998Z</time></trkpt><trkpt lat="45.957328370886486" lon="12.186002133391785"><ele>339.66666666666663</ele><time>2026-04-25T16:07:00.998Z</time></trkpt><trkpt lat="45.95733170823948" lon="12.185910495527816"><ele>339.5</ele><time>2026-04-25T16:07:01.998Z</time></trkpt><trkpt lat="45.95733656047211" lon="12.1858140784584"><ele>339.3333333333333</ele><time>2026-04-25T16:07:02.998Z</time></trkpt><trkpt lat="45.95734053293682" lon="12.185711487672135"><ele>339.1666666666667</ele><time>2026-04-25T16:07:03.998Z</time></trkpt><trkpt lat="45.95734458696928" lon="12.18560805225921"><ele>339.0</ele><time>2026-04-25T16:07:04.998Z</time></trkpt><trkpt lat="45.95735003752089" lon="12.185497075826728"><ele>338.5</ele><time>2026-04-25T16:07:05.998Z</time></trkpt><trkpt lat="45.95735494820484" lon="12.185384615298828"><ele>338.0</ele><time>2026-04-25T16:07:06.998Z</time></trkpt><trkpt lat="45.9573601999444" lon="12.185269528239566"><ele>337.5</ele><time>2026-04-25T16:07:07.998Z</time></trkpt><trkpt lat="45.95736361996469" lon="12.185151057933407"><ele>337.0</ele><time>2026-04-25T16:07:08.998Z</time></trkpt><trkpt lat="45.95736400618487" lon="12.185028019185399"><ele>336.5</ele><time>2026-04-25T16:07:09.998Z</time></trkpt><trkpt lat="45.957362128421316" lon="12.184905136049691"><ele>336.0</ele><time>2026-04-25T16:07:10.998Z</time></trkpt><trkpt lat="45.957357401345185" lon="12.184780275737582"><ele>339.5</ele><time>2026-04-25T16:07:11.998Z</time></trkpt><trkpt lat="45.957437118994086" lon="12.184644782762929"><ele>343.0</ele><time>2026-04-25T16:07:12.998Z</time></trkpt><trkpt lat="45.957427819264325" lon="12.184513281031627"><ele>346.5</ele><time>2026-04-25T16:07:13.998Z</time></trkpt><trkpt lat="45.957272030887474" lon="12.184426205145813"><ele>350.0</ele><time>2026-04-25T16:07:14.998Z</time></trkpt><trkpt lat="45.957223451802165" lon="12.184329959817"><ele>350.0</ele><time>2026-04-25T16:07:15.997Z</time></trkpt><trkpt lat="45.95716675922477" lon="12.184243544430863"><ele>350.0</ele><time>2026-04-25T16:07:16.997Z</time></trkpt><trkpt lat="45.95710738696003" lon="12.184159588881586"><ele>350.0</ele><time>2026-04-25T16:07:17.997Z</time></trkpt><trkpt lat="45.95706787786325" lon="12.18403834311418"><ele>350.0</ele><time>2026-04-25T16:07:18.997Z</time></trkpt><trkpt lat="45.95700254380827" lon="12.183961751753298"><ele>350.0</ele><time>2026-04-25T16:07:19.997Z</time></trkpt><trkpt lat="45.95693849623478" lon="12.183885031519871"><ele>350.0</ele><time>2026-04-25T16:07:20.997Z</time></trkpt><trkpt lat="45.95687700621634" lon="12.183807299700767"><ele>346.5</ele><time>2026-04-25T16:07:21.997Z</time></trkpt><trkpt lat="45.95681871545561" lon="12.183722354448784"><ele>343.0</ele><time>2026-04-25T16:07:22.997Z</time></trkpt><trkpt lat="45.956766030677976" lon="12.183630082207726"><ele>339.5</ele><time>2026-04-25T16:07:23.997Z</time></trkpt><trkpt lat="45.95671873094101" lon="12.18353256326447"><ele>336.0</ele><time>2026-04-25T16:07:24.997Z</time></trkpt><trkpt lat="45.956657213800895" lon="12.183440890468425"><ele>332.5</ele><time>2026-04-25T16:07:25.997Z</time></trkpt><trkpt lat="45.95658967540897" lon="12.183363918901184"><ele>329.0</ele><time>2026-04-25T16:07:26.997Z</time></trkpt><trkpt lat="45.95653307656288" lon="12.183275935493322"><ele>331.2</ele><time>2026-04-25T16:07:27.997Z</time></trkpt><trkpt lat="45.95648810074477" lon="12.183168900459846"><ele>333.4</ele><time>2026-04-25T16:07:28.997Z</time></trkpt><trkpt lat="45.95646070358525" lon="12.183039848061778"><ele>335.6</ele><time>2026-04-25T16:07:29.997Z</time></trkpt><trkpt lat="45.95643389871156" lon="12.182898748297585"><ele>337.8</ele><time>2026-04-25T16:07:30.997Z</time></trkpt><trkpt lat="45.956389944716356" lon="12.18276389139238"><ele>340.0</ele><time>2026-04-25T16:07:31.997Z</time></trkpt><trkpt lat="45.956319751312996" lon="12.182634274226047"><ele>340.0</ele><time>2026-04-25T16:07:32.997Z</time></trkpt><trkpt lat="45.9562506718725" lon="12.182513346455274"><ele>340.0</ele><time>2026-04-25T16:07:33.997Z</time></trkpt><trkpt lat="45.956191398128034" lon="12.182384486466901"><ele>340.0</ele><time>2026-04-25T16:07:34.997Z</time></trkpt><trkpt lat="45.95614918604076" lon="12.182244692838633"><ele>340.0</ele><time>2026-04-25T16:07:35.997Z</time></trkpt><trkpt lat="45.95612647755176" lon="12.182088892888814"><ele>340.0</ele><time>2026-04-25T16:07:36.997Z</time></trkpt><trkpt lat="45.95611197166778" lon="12.18193029704969"><ele>341.4</ele><time>2026-04-25T16:07:37.997Z</time></trkpt><trkpt lat="45.95610536391175" lon="12.181769012781242"><ele>342.8</ele><time>2026-04-25T16:07:38.997Z</time></trkpt><trkpt lat="45.95610408710255" lon="12.18161059979586"><ele>344.20000000000005</ele><time>2026-04-25T16:07:39.997Z</time></trkpt><trkpt lat="45.95610863466041" lon="12.181454059363178"><ele>345.6</ele><time>2026-04-25T16:07:40.997Z</time></trkpt><trkpt lat="45.95611440512841" lon="12.181299925905574"><ele>347.0</ele><time>2026-04-25T16:07:42Z</time></trkpt><trkpt lat="45.95612003038775" lon="12.181149670979107"><ele>349.20000000000005</ele><time>2026-04-25T16:07:43Z</time></trkpt><trkpt lat="45.956119123531806" lon="12.180995434199856"><ele>351.4</ele><time>2026-04-25T16:07:44Z</time></trkpt><trkpt lat="45.95609276338604" lon="12.180848429505666"><ele>353.6</ele><time>2026-04-25T16:07:45Z</time></trkpt><trkpt lat="45.95604137896753" lon="12.180718358799462"><ele>355.79999999999995</ele><time>2026-04-25T16:07:46Z</time></trkpt><trkpt lat="45.955980622060714" lon="12.180607734004091"><ele>358.0</ele><time>2026-04-25T16:07:47Z</time></trkpt><trkpt lat="45.95592540132875" lon="12.180506732503241"><ele>352.8333333333333</ele><time>2026-04-25T16:07:48Z</time></trkpt><trkpt lat="45.95587003580652" lon="12.180405555901293"><ele>347.66666666666663</ele><time>2026-04-25T16:07:49Z</time></trkpt><trkpt lat="45.95581542883676" lon="12.180305766156037"><ele>342.5</ele><time>2026-04-25T16:07:50Z</time></trkpt><trkpt lat="45.95576670080887" lon="12.180208588969762"><ele>337.3333333333333</ele><time>2026-04-25T16:07:51Z</time></trkpt><trkpt lat="45.955723221033516" lon="12.180107466032501"><ele>332.1666666666667</ele><time>2026-04-25T16:07:52Z</time></trkpt><trkpt lat="45.9556852012495" lon="12.180006007139474"><ele>327.0</ele><time>2026-04-25T16:07:53Z</time></trkpt><trkpt lat="45.95565634312002" lon="12.17990184330288"><ele>329.5</ele><time>2026-04-25T16:07:54Z</time></trkpt><trkpt lat="45.95563555275338" lon="12.179791851132142"><ele>332.0</ele><time>2026-04-25T16:07:55Z</time></trkpt><trkpt lat="45.95561543537474" lon="12.1796824311258"><ele>334.5</ele><time>2026-04-25T16:07:56Z</time></trkpt><trkpt lat="45.95559473521457" lon="12.17957090122048"><ele>337.0</ele><time>2026-04-25T16:07:57Z</time></trkpt><trkpt lat="45.955571780555104" lon="12.179458683153458"><ele>339.5</ele><time>2026-04-25T16:07:58Z</time></trkpt><trkpt lat="45.95553952430988" lon="12.179348598732174"><ele>342.0</ele><time>2026-04-25T16:07:59Z</time></trkpt><trkpt lat="45.95549876762199" lon="12.179247757697759"><ele>342.0</ele><time>2026-04-25T16:08:00Z</time></trkpt><trkpt lat="45.955456628483354" lon="12.179148717265926"><ele>342.0</ele><time>2026-04-25T16:08:01Z</time></trkpt><trkpt lat="45.955417026553725" lon="12.179051562941359"><ele>342.0</ele><time>2026-04-25T16:08:02Z</time></trkpt><trkpt lat="45.955383298344685" lon="12.178943309239697"><ele>342.0</ele><time>2026-04-25T16:08:03Z</time></trkpt><trkpt lat="45.95535512288301" lon="12.17882933719001"><ele>342.0</ele><time>2026-04-25T16:08:03.999Z</time></trkpt><trkpt lat="45.95533205775574" lon="12.178712524720037"><ele>342.0</ele><time>2026-04-25T16:08:04.999Z</time></trkpt><trkpt lat="45.95531078970524" lon="12.178588887998814"><ele>344.20000000000005</ele><time>2026-04-25T16:08:05.999Z</time></trkpt><trkpt lat="45.955290731646585" lon="12.17846017833964"><ele>346.4</ele><time>2026-04-25T16:08:06.999Z</time></trkpt><trkpt lat="45.95527130896489" lon="12.178332734643286"><ele>348.6</ele><time>2026-04-25T16:08:07.999Z</time></trkpt><trkpt lat="45.95525302270396" lon="12.178199720153492"><ele>350.79999999999995</ele><time>2026-04-25T16:08:08.999Z</time></trkpt><trkpt lat="45.955233738004914" lon="12.178063047427552"><ele>353.0</ele><time>2026-04-25T16:08:09.999Z</time></trkpt><trkpt lat="45.95521221936704" lon="12.177924393637355"><ele>354.0</ele><time>2026-04-25T16:08:10.999Z</time></trkpt><trkpt lat="45.95518834900704" lon="12.17778272302779"><ele>355.0</ele><time>2026-04-25T16:08:11.999Z</time></trkpt><trkpt lat="45.95515468708874" lon="12.177634999728163"><ele>356.0</ele><time>2026-04-25T16:08:12.999Z</time></trkpt><trkpt lat="45.95508780943089" lon="12.17749653757965"><ele>357.0</ele><time>2026-04-25T16:08:13.999Z</time></trkpt><trkpt lat="45.95499156847788" lon="12.17740645604853"><ele>358.0</ele><time>2026-04-25T16:08:14.999Z</time></trkpt><trkpt lat="45.95491530655208" lon="12.177289324415527"><ele>350.75</ele><time>2026-04-25T16:08:15.999Z</time></trkpt><trkpt lat="45.95482795609734" lon="12.177183150462609"><ele>343.5</ele><time>2026-04-25T16:08:16.999Z</time></trkpt><trkpt lat="45.95472965314355" lon="12.177105872035128"><ele>336.25</ele><time>2026-04-25T16:08:17.999Z</time></trkpt><trkpt lat="45.954631939954695" lon="12.177020046722202"><ele>329.0</ele><time>2026-04-25T16:08:18.999Z</time></trkpt><trkpt lat="45.954526471321174" lon="12.176978990501462"><ele>329.0</ele><time>2026-04-25T16:08:19.999Z</time></trkpt><trkpt lat="45.9544286059142" lon="12.176937821741282"><ele>329.0</ele><time>2026-04-25T16:08:20.999Z</time></trkpt><trkpt lat="45.95433468292692" lon="12.176880054665862"><ele>329.0</ele><time>2026-04-25T16:08:21.999Z</time></trkpt><trkpt lat="45.954249828027194" lon="12.176796686692098"><ele>329.0</ele><time>2026-04-25T16:08:22.999Z</time></trkpt><trkpt lat="45.95417105439937" lon="12.17670564156309"><ele>329.0</ele><time>2026-04-25T16:08:23.999Z</time></trkpt><trkpt lat="45.954095878424084" lon="12.176615619403083"><ele>325.1666666666667</ele><time>2026-04-25T16:08:24.999Z</time></trkpt><trkpt lat="45.95402640422849" lon="12.176530365604268"><ele>321.33333333333337</ele><time>2026-04-25T16:08:25.999Z</time></trkpt><trkpt lat="45.95396222024521" lon="12.176454099096755"><ele>317.5</ele><time>2026-04-25T16:08:26.999Z</time></trkpt><trkpt lat="45.95389977737098" lon="12.176380488771724"><ele>313.6666666666667</ele><time>2026-04-25T16:08:27.999Z</time></trkpt><trkpt lat="45.95386793291945" lon="12.176287001706358"><ele>309.8333333333333</ele><time>2026-04-25T16:08:28.999Z</time></trkpt><trkpt lat="45.95381916249933" lon="12.17619749180607"><ele>306.0</ele><time>2026-04-25T16:08:29.999Z</time></trkpt><trkpt lat="45.9538172510091" lon="12.176067612991154"><ele>305.8</ele><time>2026-04-25T16:08:30.999Z</time></trkpt><trkpt lat="45.953834016167384" lon="12.175925307114031"><ele>305.6</ele><time>2026-04-25T16:08:31.999Z</time></trkpt><trkpt lat="45.95385389707956" lon="12.175777156300136"><ele>305.4</ele><time>2026-04-25T16:08:32.999Z</time></trkpt><trkpt lat="45.953884257426104" lon="12.175621078068517"><ele>305.2</ele><time>2026-04-25T16:08:33.999Z</time></trkpt><trkpt lat="45.9538573676716" lon="12.175456064126216"><ele>305.0</ele><time>2026-04-25T16:08:34.999Z</time></trkpt><trkpt lat="45.95381669412668" lon="12.175295964178005"><ele>306.0</ele><time>2026-04-25T16:08:35.999Z</time></trkpt><trkpt lat="45.9537633569671" lon="12.175142079728875"><ele>307.0</ele><time>2026-04-25T16:08:36.999Z</time></trkpt><trkpt lat="45.953675781663264" lon="12.175026742372657"><ele>308.0</ele><time>2026-04-25T16:08:37.999Z</time></trkpt><trkpt lat="45.95359284781222" lon="12.174921318133503"><ele>309.0</ele><time>2026-04-25T16:08:38.999Z</time></trkpt><trkpt lat="45.953521821525634" lon="12.174805062736592"><ele>310.8</ele><time>2026-04-25T16:08:39.999Z</time></trkpt><trkpt lat="45.95346244668278" lon="12.174681161505193"><ele>312.59999999999997</ele><time>2026-04-25T16:08:40.999Z</time></trkpt><trkpt lat="45.95341784234124" lon="12.174559164905151"><ele>314.4</ele><time>2026-04-25T16:08:41.999Z</time></trkpt><trkpt lat="45.95338282833142" lon="12.174436925523127"><ele>316.2</ele><time>2026-04-25T16:08:42.999Z</time></trkpt><trkpt lat="45.953363568582674" lon="12.174304470383541"><ele>318.0</ele><time>2026-04-25T16:08:43.999Z</time></trkpt><trkpt lat="45.953345233788646" lon="12.174171068824853"><ele>318.8</ele><time>2026-04-25T16:08:44.999Z</time></trkpt><trkpt lat="45.953366898822956" lon="12.174026297926337"><ele>319.6</ele><time>2026-04-25T16:08:45.999Z</time></trkpt><trkpt lat="45.953405665431944" lon="12.173882925731194"><ele>320.40000000000003</ele><time>2026-04-25T16:08:46.999Z</time></trkpt><trkpt lat="45.953419467223256" lon="12.17372591161202"><ele>321.20000000000005</ele><time>2026-04-25T16:08:47.999Z</time></trkpt><trkpt lat="45.953394733163165" lon="12.173566724406234"><ele>322.0</ele><time>2026-04-25T16:08:48.998Z</time></trkpt><trkpt lat="45.953347218468934" lon="12.173434818960379"><ele>314.0</ele><time>2026-04-25T16:08:49.998Z</time></trkpt><trkpt lat="45.953300611839026" lon="12.173310803382911"><ele>306.0</ele><time>2026-04-25T16:08:50.998Z</time></trkpt><trkpt lat="45.95325563680646" lon="12.173187863353442"><ele>298.0</ele><time>2026-04-25T16:08:51.998Z</time></trkpt><trkpt lat="45.95322089575511" lon="12.173062234216653"><ele>290.0</ele><time>2026-04-25T16:08:52.998Z</time></trkpt><trkpt lat="45.9531954449263" lon="12.17292816537339"><ele>282.0</ele><time>2026-04-25T16:08:53.998Z</time></trkpt><trkpt lat="45.95317834736671" lon="12.172793913112166"><ele>281.4</ele><time>2026-04-25T16:08:54.998Z</time></trkpt><trkpt lat="45.95318206367702" lon="12.172654947289942"><ele>280.79999999999995</ele><time>2026-04-25T16:08:55.998Z</time></trkpt><trkpt lat="45.953219415805414" lon="12.17251255181626"><ele>280.2</ele><time>2026-04-25T16:08:56.998Z</time></trkpt><trkpt lat="45.95325544118317" lon="12.17235495621078"><ele>279.59999999999997</ele><time>2026-04-25T16:08:57.998Z</time></trkpt><trkpt lat="45.95329052249875" lon="12.17219329601356"><ele>279.0</ele><time>2026-04-25T16:08:58.998Z</time></trkpt><trkpt lat="45.9533094937342" lon="12.172021028084721"><ele>278.25</ele><time>2026-04-25T16:08:59.998Z</time></trkpt><trkpt lat="45.95331092184103" lon="12.17184356097084"><ele>277.5</ele><time>2026-04-25T16:09:00.998Z</time></trkpt><trkpt lat="45.9532959234834" lon="12.171668111367936"><ele>276.75</ele><time>2026-04-25T16:09:01.998Z</time></trkpt><trkpt lat="45.953275931388774" lon="12.171496427515654"><ele>276.0</ele><time>2026-04-25T16:09:02.998Z</time></trkpt><trkpt lat="45.953254661604376" lon="12.171325341423525"><ele>274.75</ele><time>2026-04-25T16:09:03.998Z</time></trkpt><trkpt lat="45.953238154387996" lon="12.17115799596717"><ele>273.5</ele><time>2026-04-25T16:09:04.998Z</time></trkpt><trkpt lat="45.95320913202796" lon="12.170994814008926"><ele>272.25</ele><time>2026-04-25T16:09:05.998Z</time></trkpt><trkpt lat="45.95322262856396" lon="12.170836156477694"><ele>271.0</ele><time>2026-04-25T16:09:06.998Z</time></trkpt><trkpt lat="45.95325546984725" lon="12.17068734666593"><ele>270.25</ele><time>2026-04-25T16:09:07.998Z</time></trkpt><trkpt lat="45.95330977444591" lon="12.17054475614014"><ele>269.5</ele><time>2026-04-25T16:09:08.998Z</time></trkpt><trkpt lat="45.95336961031327" lon="12.170401231427933"><ele>268.75</ele><time>2026-04-25T16:09:09.998Z</time></trkpt><trkpt lat="45.95342220364792" lon="12.170252326776977"><ele>268.0</ele><time>2026-04-25T16:09:10.998Z</time></trkpt><trkpt lat="45.95347417037111" lon="12.17010861196418"><ele>271.5</ele><time>2026-04-25T16:09:11.998Z</time></trkpt><trkpt lat="45.953479506413245" lon="12.169941475795769"><ele>275.0</ele><time>2026-04-25T16:09:12.998Z</time></trkpt><trkpt lat="45.95344371675653" lon="12.169782496625706"><ele>278.5</ele><time>2026-04-25T16:09:13.998Z</time></trkpt><trkpt lat="45.95335910891754" lon="12.169660661667233"><ele>282.0</ele><time>2026-04-25T16:09:14.998Z</time></trkpt><trkpt lat="45.9532523932066" lon="12.16960729481963"><ele>282.0</ele><time>2026-04-25T16:09:15.998Z</time></trkpt><trkpt lat="45.95315172156003" lon="12.169591386554249"><ele>282.0</ele><time>2026-04-25T16:09:16.998Z</time></trkpt><trkpt lat="45.95305726037943" lon="12.169574593085065"><ele>282.0</ele><time>2026-04-25T16:09:17.998Z</time></trkpt><trkpt lat="45.95296343885896" lon="12.169575025650767"><ele>282.0</ele><time>2026-04-25T16:09:18.998Z</time></trkpt><trkpt lat="45.952876844478055" lon="12.169607664236334"><ele>282.0</ele><time>2026-04-25T16:09:19.998Z</time></trkpt><trkpt lat="45.9528117154371" lon="12.169687439831337"><ele>282.0</ele><time>2026-04-25T16:09:20.998Z</time></trkpt><trkpt lat="45.95275128513339" lon="12.169742753965556"><ele>282.0</ele><time>2026-04-25T16:09:21.998Z</time></trkpt><trkpt lat="45.95269543195991" lon="12.16980147386135"><ele>282.0</ele><time>2026-04-25T16:09:22.998Z</time></trkpt><trkpt lat="45.9525792944905" lon="12.169842629688292"><ele>282.0</ele><time>2026-04-25T16:09:24.998Z</time></trkpt><trkpt lat="45.95248227287458" lon="12.169859428445369"><ele>282.0</ele><time>2026-04-25T16:09:26.998Z</time></trkpt><trkpt lat="45.95239855368218" lon="12.169842567453353"><ele>282.0</ele><time>2026-04-25T16:09:28.998Z</time></trkpt><trkpt lat="45.95233064413952" lon="12.169811536326579"><ele>280.8333333333333</ele><time>2026-04-25T16:09:30.998Z</time></trkpt><trkpt lat="45.95226802254509" lon="12.169776995188545"><ele>279.6666666666667</ele><time>2026-04-25T16:09:32.997Z</time></trkpt><trkpt lat="45.95220949116482" lon="12.16974205993001"><ele>278.5</ele><time>2026-04-25T16:09:34.997Z</time></trkpt><trkpt lat="45.95212961117069" lon="12.169694382439275"><ele>277.33333333333337</ele><time>2026-04-25T16:09:37.997Z</time></trkpt><trkpt lat="45.95205162720007" lon="12.169646859495698"><ele>276.1666666666667</ele><time>2026-04-25T16:09:40.997Z</time></trkpt><trkpt lat="45.95197053270778" lon="12.16959651866861"><ele>275.0</ele><time>2026-04-25T16:09:43.997Z</time></trkpt><trkpt lat="45.951904291953674" lon="12.169602142558139"><ele>275.0</ele><time>2026-04-25T16:09:45.997Z</time></trkpt><trkpt lat="45.95182194300212" lon="12.169553852559863"><ele>275.0</ele><time>2026-04-25T16:09:49Z</time></trkpt><trkpt lat="45.95173891626307" lon="12.169504954542047"><ele>275.0</ele><time>2026-04-25T16:09:52Z</time></trkpt><trkpt lat="45.951659211110645" lon="12.169450378870138"><ele>275.0</ele><time>2026-04-25T16:09:55Z</time></trkpt><trkpt lat="45.951587363922044" lon="12.16939003143795"><ele>275.0</ele><time>2026-04-25T16:09:58Z</time></trkpt><trkpt lat="45.95151868311938" lon="12.169323046915842"><ele>275.0</ele><time>2026-04-25T16:10:01Z</time></trkpt><trkpt lat="45.95145955231138" lon="12.169250480220269"><ele>274.1666666666667</ele><time>2026-04-25T16:10:04Z</time></trkpt><trkpt lat="45.95140766885705" lon="12.169169393622422"><ele>273.33333333333337</ele><time>2026-04-25T16:10:07Z</time></trkpt><trkpt lat="45.951352062969" lon="12.169082788210964"><ele>272.5</ele><time>2026-04-25T16:10:10Z</time></trkpt><trkpt lat="45.95129843354054" lon="12.169008703120697"><ele>271.6666666666667</ele><time>2026-04-25T16:10:13Z</time></trkpt><trkpt lat="45.95128938508033" lon="12.168889624101254"><ele>270.8333333333333</ele><time>2026-04-25T16:10:16Z</time></trkpt><trkpt lat="45.95132569475586" lon="12.168798747418231"><ele>270.0</ele><time>2026-04-25T16:10:18Z</time></trkpt><trkpt lat="45.95136285845987" lon="12.16870383140516"><ele>270.0</ele><time>2026-04-25T16:10:20Z</time></trkpt><trkpt lat="45.95140418225211" lon="12.168606380518195"><ele>270.0</ele><time>2026-04-25T16:10:21.999Z</time></trkpt><trkpt lat="45.95144264282845" lon="12.168503105855189"><ele>270.0</ele><time>2026-04-25T16:10:23.999Z</time></trkpt><trkpt lat="45.95148098397804" lon="12.168401776018872"><ele>270.0</ele><time>2026-04-25T16:10:25.999Z</time></trkpt><trkpt lat="45.95152417080155" lon="12.168314273425535"><ele>270.0</ele><time>2026-04-25T16:10:27.999Z</time></trkpt><trkpt lat="45.95157530282726" lon="12.168241015861502"><ele>270.0</ele><time>2026-04-25T16:10:29.999Z</time></trkpt><trkpt lat="45.95162918382989" lon="12.168165632891263"><ele>270.1428571428571</ele><time>2026-04-25T16:10:31.999Z</time></trkpt><trkpt lat="45.95168496733393" lon="12.16809736715374"><ele>270.2857142857143</ele><time>2026-04-25T16:10:33.999Z</time></trkpt><trkpt lat="45.9517306580168" lon="12.16802232494721"><ele>270.42857142857144</ele><time>2026-04-25T16:10:35.999Z</time></trkpt><trkpt lat="45.951763135769276" lon="12.167938822607088"><ele>270.57142857142856</ele><time>2026-04-25T16:10:37.999Z</time></trkpt><trkpt lat="45.951788251297955" lon="12.167853465568278"><ele>270.7142857142857</ele><time>2026-04-25T16:10:39.999Z</time></trkpt><trkpt lat="45.95179876216805" lon="12.16775842064911"><ele>270.85714285714283</ele><time>2026-04-25T16:10:41.999Z</time></trkpt><trkpt lat="45.95180341008831" lon="12.167665047953223"><ele>271.0</ele><time>2026-04-25T16:10:43.999Z</time></trkpt><trkpt lat="45.95180671737437" lon="12.167573510953487"><ele>277.16666666666663</ele><time>2026-04-25T16:10:45.999Z</time></trkpt><trkpt lat="45.95180354665387" lon="12.167442575890835"><ele>283.3333333333333</ele><time>2026-04-25T16:10:48.999Z</time></trkpt><trkpt lat="45.951793687505045" lon="12.167311316593077"><ele>289.5</ele><time>2026-04-25T16:10:51.999Z</time></trkpt><trkpt lat="45.9517820625353" lon="12.16721920768623"><ele>295.6666666666667</ele><time>2026-04-25T16:10:53.999Z</time></trkpt><trkpt lat="45.95176622140926" lon="12.167122084359807"><ele>301.83333333333337</ele><time>2026-04-25T16:10:55.999Z</time></trkpt><trkpt lat="45.95175818595976" lon="12.167013135423012"><ele>308.0</ele><time>2026-04-25T16:10:57.999Z</time></trkpt><trkpt lat="45.95177049724689" lon="12.166892409412302"><ele>309.0</ele><time>2026-04-25T16:10:59.999Z</time></trkpt><trkpt lat="45.95180420159586" lon="12.166767304908111"><ele>310.0</ele><time>2026-04-25T16:11:01.999Z</time></trkpt><trkpt lat="45.951851407456296" lon="12.166643601310337"><ele>311.0</ele><time>2026-04-25T16:11:03.998Z</time></trkpt><trkpt lat="45.95190037454069" lon="12.166514317669591"><ele>312.0</ele><time>2026-04-25T16:11:05.998Z</time></trkpt><trkpt lat="45.95194689475867" lon="12.166379098100391"><ele>313.0</ele><time>2026-04-25T16:11:07.998Z</time></trkpt><trkpt lat="45.95198074706254" lon="12.166242656297515"><ele>314.66666666666663</ele><time>2026-04-25T16:11:09.998Z</time></trkpt><trkpt lat="45.951986173853214" lon="12.166105983191603"><ele>316.3333333333333</ele><time>2026-04-25T16:11:11.998Z</time></trkpt><trkpt lat="45.951971647204665" lon="12.16597989269548"><ele>318.0</ele><time>2026-04-25T16:11:13.998Z</time></trkpt><trkpt lat="45.9519595339031" lon="12.16586420777683"><ele>319.6666666666667</ele><time>2026-04-25T16:11:15.998Z</time></trkpt><trkpt lat="45.9519420213984" lon="12.165756157293048"><ele>321.33333333333337</ele><time>2026-04-25T16:11:17.998Z</time></trkpt><trkpt lat="45.951901074043526" lon="12.16565637109917"><ele>323.0</ele><time>2026-04-25T16:11:19.998Z</time></trkpt><trkpt lat="45.95186132686587" lon="12.165550357139596"><ele>326.33333333333337</ele><time>2026-04-25T16:11:21.998Z</time></trkpt><trkpt lat="45.95181399534465" lon="12.165448005978263"><ele>329.6666666666667</ele><time>2026-04-25T16:11:23.998Z</time></trkpt><trkpt lat="45.95176990740797" lon="12.165339883842764"><ele>333.0</ele><time>2026-04-25T16:11:25.998Z</time></trkpt><trkpt lat="45.95172267186269" lon="12.165233387984518"><ele>336.3333333333333</ele><time>2026-04-25T16:11:27.998Z</time></trkpt><trkpt lat="45.95167227130089" lon="12.165129956450896"><ele>339.66666666666663</ele><time>2026-04-25T16:11:29.998Z</time></trkpt><trkpt lat="45.95161391027679" lon="12.165039976806645"><ele>343.0</ele><time>2026-04-25T16:11:31.998Z</time></trkpt><trkpt lat="45.95154904795714" lon="12.16493571845774"><ele>335.2</ele><time>2026-04-25T16:11:33.998Z</time></trkpt><trkpt lat="45.95148726595755" lon="12.16484738833649"><ele>327.4</ele><time>2026-04-25T16:11:35.998Z</time></trkpt><trkpt lat="45.951424723345625" lon="12.164756123677549"><ele>319.59999999999997</ele><time>2026-04-25T16:11:37.998Z</time></trkpt><trkpt lat="45.951372796241934" lon="12.16464334539894"><ele>311.79999999999995</ele><time>2026-04-25T16:11:39.998Z</time></trkpt><trkpt lat="45.95132153823303" lon="12.16451080992528"><ele>304.0</ele><time>2026-04-25T16:11:41.998Z</time></trkpt><trkpt lat="45.95127039449547" lon="12.164357451193798"><ele>304.0</ele><time>2026-04-25T16:11:43.998Z</time></trkpt><trkpt lat="45.95122303302741" lon="12.164189694509238"><ele>304.0</ele><time>2026-04-25T16:11:45.998Z</time></trkpt><trkpt lat="45.95119382571527" lon="12.16410246196594"><ele>304.0</ele><time>2026-04-25T16:11:46.997Z</time></trkpt><trkpt lat="45.95116149018" lon="12.164011268514857"><ele>304.0</ele><time>2026-04-25T16:11:47.997Z</time></trkpt><trkpt lat="45.95113023336142" lon="12.163919985126219"><ele>304.0</ele><time>2026-04-25T16:11:48.997Z</time></trkpt><trkpt lat="45.95109743260937" lon="12.16382814600677"><ele>304.0</ele><time>2026-04-25T16:11:49.997Z</time></trkpt><trkpt lat="45.951062465131336" lon="12.163737450170437"><ele>306.16666666666663</ele><time>2026-04-25T16:11:50.997Z</time></trkpt><trkpt lat="45.95102317185291" lon="12.163649465654128"><ele>308.3333333333333</ele><time>2026-04-25T16:11:51.997Z</time></trkpt><trkpt lat="45.95097841264463" lon="12.163567700938911"><ele>310.5</ele><time>2026-04-25T16:11:52.997Z</time></trkpt><trkpt lat="45.950931282659816" lon="12.163493365320996"><ele>312.6666666666667</ele><time>2026-04-25T16:11:54Z</time></trkpt><trkpt lat="45.95091589105107" lon="12.163386425701383"><ele>314.83333333333337</ele><time>2026-04-25T16:11:55Z</time></trkpt><trkpt lat="45.950877227109764" lon="12.163308619688777"><ele>317.0</ele><time>2026-04-25T16:11:56Z</time></trkpt><trkpt lat="45.95082104510436" lon="12.163149197384898"><ele>312.0</ele><time>2026-04-25T16:11:58Z</time></trkpt><trkpt lat="45.950792026411335" lon="12.162969225226517"><ele>307.0</ele><time>2026-04-25T16:12:00Z</time></trkpt><trkpt lat="45.950777909186144" lon="12.162870007500661"><ele>302.0</ele><time>2026-04-25T16:12:01Z</time></trkpt><trkpt lat="45.950761850900356" lon="12.16277169006999"><ele>297.0</ele><time>2026-04-25T16:12:02Z</time></trkpt><trkpt lat="45.95074362282358" lon="12.162676244912001"><ele>292.0</ele><time>2026-04-25T16:12:03Z</time></trkpt><trkpt lat="45.95072344438828" lon="12.162581176115435"><ele>287.0</ele><time>2026-04-25T16:12:04Z</time></trkpt><trkpt lat="45.95070292521401" lon="12.162488351262144"><ele>287.0</ele><time>2026-04-25T16:12:05Z</time></trkpt><trkpt lat="45.950681696642675" lon="12.162395672747287"><ele>287.0</ele><time>2026-04-25T16:12:06Z</time></trkpt><trkpt lat="45.95066060513037" lon="12.162303899200008"><ele>287.0</ele><time>2026-04-25T16:12:07Z</time></trkpt><trkpt lat="45.95064053960674" lon="12.162216589978717"><ele>287.0</ele><time>2026-04-25T16:12:08Z</time></trkpt><trkpt lat="45.950600558618355" lon="12.162042624454362"><ele>287.0</ele><time>2026-04-25T16:12:10Z</time></trkpt><trkpt lat="45.95056817058603" lon="12.161871787450947"><ele>287.0</ele><time>2026-04-25T16:12:12Z</time></trkpt><trkpt lat="45.950547066807445" lon="12.161695055659184"><ele>288.57142857142856</ele><time>2026-04-25T16:12:14Z</time></trkpt><trkpt lat="45.95053566930588" lon="12.161599407144362"><ele>290.1428571428571</ele><time>2026-04-25T16:12:15Z</time></trkpt><trkpt lat="45.95051986540423" lon="12.16150389426479"><ele>291.7142857142857</ele><time>2026-04-25T16:12:16Z</time></trkpt><trkpt lat="45.95049640905043" lon="12.161403648649022"><ele>293.2857142857143</ele><time>2026-04-25T16:12:17Z</time></trkpt><trkpt lat="45.950471406892134" lon="12.161305491892689"><ele>294.85714285714283</ele><time>2026-04-25T16:12:18Z</time></trkpt><trkpt lat="45.95043983888733" lon="12.161202777230649"><ele>296.42857142857144</ele><time>2026-04-25T16:12:19Z</time></trkpt><trkpt lat="45.95040796663108" lon="12.161096551554461"><ele>298.0</ele><time>2026-04-25T16:12:20Z</time></trkpt><trkpt lat="45.95037490855488" lon="12.1609866363788"><ele>300.2</ele><time>2026-04-25T16:12:21Z</time></trkpt><trkpt lat="45.950340406790964" lon="12.160873104617941"><ele>302.4</ele><time>2026-04-25T16:12:22Z</time></trkpt><trkpt lat="45.95030318803053" lon="12.160750632273512"><ele>304.59999999999997</ele><time>2026-04-25T16:12:23Z</time></trkpt><trkpt lat="45.950264717392365" lon="12.160628396451221"><ele>306.8</ele><time>2026-04-25T16:12:24Z</time></trkpt><trkpt lat="45.95021986006573" lon="12.160499247901203"><ele>309.0</ele><time>2026-04-25T16:12:25Z</time></trkpt><trkpt lat="45.95016671672675" lon="12.160380504871336"><ele>311.0</ele><time>2026-04-25T16:12:26Z</time></trkpt><trkpt lat="45.950110282791584" lon="12.160265874384097"><ele>313.0</ele><time>2026-04-25T16:12:27Z</time></trkpt><trkpt lat="45.95005586242136" lon="12.16015384918112"><ele>315.0</ele><time>2026-04-25T16:12:28Z</time></trkpt><trkpt lat="45.95000829475673" lon="12.160032580838317"><ele>317.0</ele><time>2026-04-25T16:12:29Z</time></trkpt><trkpt lat="45.94995868485642" lon="12.159897311461354"><ele>319.0</ele><time>2026-04-25T16:12:30Z</time></trkpt><trkpt lat="45.94992040716605" lon="12.159768806475249"><ele>313.0</ele><time>2026-04-25T16:12:31Z</time></trkpt><trkpt lat="45.94989934838164" lon="12.159622611070144"><ele>307.0</ele><time>2026-04-25T16:12:32Z</time></trkpt><trkpt lat="45.94988713090032" lon="12.159470186956337"><ele>301.0</ele><time>2026-04-25T16:12:33Z</time></trkpt><trkpt lat="45.94987631902993" lon="12.159308855121619"><ele>295.0</ele><time>2026-04-25T16:12:34Z</time></trkpt><trkpt lat="45.94985311694212" lon="12.159149159019652"><ele>289.0</ele><time>2026-04-25T16:12:35Z</time></trkpt><trkpt lat="45.94981603479156" lon="12.158991824037932"><ele>289.0</ele><time>2026-04-25T16:12:36Z</time></trkpt><trkpt lat="45.94978070459675" lon="12.158837968346473"><ele>289.0</ele><time>2026-04-25T16:12:37Z</time></trkpt><trkpt lat="45.949744568436365" lon="12.158689682431225"><ele>289.0</ele><time>2026-04-25T16:12:38Z</time></trkpt><trkpt lat="45.94970673433277" lon="12.158547286051284"><ele>289.0</ele><time>2026-04-25T16:12:38.999Z</time></trkpt><trkpt lat="45.94966875177232" lon="12.15841378603731"><ele>289.0</ele><time>2026-04-25T16:12:39.999Z</time></trkpt><trkpt lat="45.9496273225352" lon="12.158285535971071"><ele>293.4</ele><time>2026-04-25T16:12:40.999Z</time></trkpt><trkpt lat="45.94958052826663" lon="12.158161981966543"><ele>297.79999999999995</ele><time>2026-04-25T16:12:41.999Z</time></trkpt><trkpt lat="45.94952949285242" lon="12.158044620891847"><ele>302.20000000000005</ele><time>2026-04-25T16:12:42.999Z</time></trkpt><trkpt lat="45.94947459227045" lon="12.157932119768883"><ele>306.6</ele><time>2026-04-25T16:12:43.999Z</time></trkpt><trkpt lat="45.94941760590736" lon="12.157827212155627"><ele>311.0</ele><time>2026-04-25T16:12:44.999Z</time></trkpt><trkpt lat="45.94935791427785" lon="12.157726537930943"><ele>311.0</ele><time>2026-04-25T16:12:45.999Z</time></trkpt><trkpt lat="45.94929347925718" lon="12.157632185441157"><ele>311.0</ele><time>2026-04-25T16:12:46.999Z</time></trkpt><trkpt lat="45.94922951124153" lon="12.157543493191067"><ele>311.0</ele><time>2026-04-25T16:12:47.999Z</time></trkpt><trkpt lat="45.949165175186884" lon="12.1574569781233"><ele>311.0</ele><time>2026-04-25T16:12:48.999Z</time></trkpt><trkpt lat="45.94910542871187" lon="12.157370144439218"><ele>311.0</ele><time>2026-04-25T16:12:49.999Z</time></trkpt><trkpt lat="45.94906103084859" lon="12.157276073928163"><ele>311.0</ele><time>2026-04-25T16:12:50.999Z</time></trkpt><trkpt lat="45.94905267741186" lon="12.157169311541699"><ele>308.7142857142857</ele><time>2026-04-25T16:12:51.999Z</time></trkpt><trkpt lat="45.94906097329893" lon="12.157066719788801"><ele>306.42857142857144</ele><time>2026-04-25T16:12:52.999Z</time></trkpt><trkpt lat="45.949062686107254" lon="12.156962185082865"><ele>304.14285714285717</ele><time>2026-04-25T16:12:53.999Z</time></trkpt><trkpt lat="45.94906354612113" lon="12.156864143312191"><ele>301.8571428571429</ele><time>2026-04-25T16:12:54.999Z</time></trkpt><trkpt lat="45.949054936539014" lon="12.156769645665781"><ele>299.57142857142856</ele><time>2026-04-25T16:12:55.999Z</time></trkpt><trkpt lat="45.94903231127266" lon="12.156676274759214"><ele>297.28571428571433</ele><time>2026-04-25T16:12:56.999Z</time></trkpt><trkpt lat="45.94899866646061" lon="12.156597103952981"><ele>295.0</ele><time>2026-04-25T16:12:57.999Z</time></trkpt><trkpt lat="45.948922483214524" lon="12.156483698022015"><ele>295.0</ele><time>2026-04-25T16:12:59.999Z</time></trkpt><trkpt lat="45.94882135552395" lon="12.15642562775152"><ele>295.0</ele><time>2026-04-25T16:13:01.999Z</time></trkpt><trkpt lat="45.94874006692826" lon="12.156377643097915"><ele>295.0</ele><time>2026-04-25T16:13:03.999Z</time></trkpt><trkpt lat="45.948670200757064" lon="12.156329126191439"><ele>295.0</ele><time>2026-04-25T16:13:05.999Z</time></trkpt><trkpt lat="45.94861207552153" lon="12.156263331662107"><ele>295.0</ele><time>2026-04-25T16:13:07.999Z</time></trkpt><trkpt lat="45.94856505821734" lon="12.156178139305835"><ele>295.0</ele><time>2026-04-25T16:13:09.999Z</time></trkpt><trkpt lat="45.94855147959439" lon="12.156068674792715"><ele>295.0</ele><time>2026-04-25T16:13:11.999Z</time></trkpt><trkpt lat="45.94855763598565" lon="12.15594012402149"><ele>295.0</ele><time>2026-04-25T16:13:13.999Z</time></trkpt><trkpt lat="45.948617343361825" lon="12.155818088524555"><ele>295.0</ele><time>2026-04-25T16:13:15.999Z</time></trkpt><trkpt lat="45.948679659316674" lon="12.155695692389079"><ele>295.0</ele><time>2026-04-25T16:13:17.999Z</time></trkpt><trkpt lat="45.94871058743245" lon="12.155552514482991"><ele>295.0</ele><time>2026-04-25T16:13:19.999Z</time></trkpt><trkpt lat="45.94873169885181" lon="12.155396789936928"><ele>296.0</ele><time>2026-04-25T16:13:21.999Z</time></trkpt><trkpt lat="45.94870539940272" lon="12.155232769576006"><ele>297.0</ele><time>2026-04-25T16:13:23.998Z</time></trkpt><trkpt lat="45.94866681444656" lon="12.155155463203155"><ele>298.0</ele><time>2026-04-25T16:13:24.998Z</time></trkpt><trkpt lat="45.94859871555996" lon="12.155024682421907"><ele>299.0</ele><time>2026-04-25T16:13:26.998Z</time></trkpt><trkpt lat="45.948549811116656" lon="12.15489551660544"><ele>300.0</ele><time>2026-04-25T16:13:28.998Z</time></trkpt><trkpt lat="45.94853118634218" lon="12.154745597000396"><ele>300.0</ele><time>2026-04-25T16:13:30.998Z</time></trkpt><trkpt lat="45.94853234763743" lon="12.154592895949058"><ele>300.0</ele><time>2026-04-25T16:13:32.998Z</time></trkpt><trkpt lat="45.94856733104994" lon="12.154446686151205"><ele>300.0</ele><time>2026-04-25T16:13:34.998Z</time></trkpt><trkpt lat="45.94860394882111" lon="12.154296178509997"><ele>300.0</ele><time>2026-04-25T16:13:36.998Z</time></trkpt><trkpt lat="45.94863203702454" lon="12.154143913716828"><ele>300.0</ele><time>2026-04-25T16:13:38.998Z</time></trkpt><trkpt lat="45.94866134427758" lon="12.153995543224172"><ele>300.2</ele><time>2026-04-25T16:13:40.998Z</time></trkpt><trkpt lat="45.94869041384225" lon="12.153844666104364"><ele>300.4</ele><time>2026-04-25T16:13:42.998Z</time></trkpt><trkpt lat="45.9487300086732" lon="12.153693164900293"><ele>300.6</ele><time>2026-04-25T16:13:44.998Z</time></trkpt><trkpt lat="45.948729798294565" lon="12.1535214248477"><ele>300.8</ele><time>2026-04-25T16:13:46.998Z</time></trkpt><trkpt lat="45.948704242982224" lon="12.153433569199636"><ele>301.0</ele><time>2026-04-25T16:13:47.998Z</time></trkpt><trkpt lat="45.94865854185522" lon="12.153362914441841"><ele>301.0</ele><time>2026-04-25T16:13:48.998Z</time></trkpt><trkpt lat="45.94857126480387" lon="12.153244807815051"><ele>301.0</ele><time>2026-04-25T16:13:50.998Z</time></trkpt><trkpt lat="45.948489440965666" lon="12.15312802036782"><ele>301.0</ele><time>2026-04-25T16:13:52.998Z</time></trkpt><trkpt lat="45.94840626945461" lon="12.153012045074574"><ele>301.0</ele><time>2026-04-25T16:13:54.998Z</time></trkpt><trkpt lat="45.948323041920744" lon="12.152897907450036"><ele>300.40000000000003</ele><time>2026-04-25T16:13:56.998Z</time></trkpt><trkpt lat="45.94823508995463" lon="12.152781467429962"><ele>299.8</ele><time>2026-04-25T16:13:58.998Z</time></trkpt><trkpt lat="45.948184088139705" lon="12.152727110741639"><ele>299.20000000000005</ele><time>2026-04-25T16:14:00Z</time></trkpt><trkpt lat="45.94807783382084" lon="12.152637045242379"><ele>298.6</ele><time>2026-04-25T16:14:02Z</time></trkpt><trkpt lat="45.94796957974127" lon="12.152563655331072"><ele>298.0</ele><time>2026-04-25T16:14:04Z</time></trkpt><trkpt lat="45.947868249971464" lon="12.152485734073602"><ele>298.0</ele><time>2026-04-25T16:14:06Z</time></trkpt><trkpt lat="45.94777964361793" lon="12.152384654072062"><ele>298.0</ele><time>2026-04-25T16:14:08Z</time></trkpt><trkpt lat="45.94771535669064" lon="12.152252975767427"><ele>298.0</ele><time>2026-04-25T16:14:10Z</time></trkpt><trkpt lat="45.94766031653572" lon="12.152094662954996"><ele>298.0</ele><time>2026-04-25T16:14:12Z</time></trkpt><trkpt lat="45.947629848305574" lon="12.152005691788654"><ele>298.0</ele><time>2026-04-25T16:14:13Z</time></trkpt><trkpt lat="45.94760080425156" lon="12.151919536591782"><ele>300.57142857142856</ele><time>2026-04-25T16:14:14Z</time></trkpt><trkpt lat="45.94757080318316" lon="12.151828729189473"><ele>303.1428571428571</ele><time>2026-04-25T16:14:15Z</time></trkpt><trkpt lat="45.9475419578769" lon="12.151741419958974"><ele>305.7142857142857</ele><time>2026-04-25T16:14:16Z</time></trkpt><trkpt lat="45.94751222620511" lon="12.151651428116594"><ele>308.2857142857143</ele><time>2026-04-25T16:14:17Z</time></trkpt><trkpt lat="45.94748118679333" lon="12.151557477522745"><ele>310.8571428571429</ele><time>2026-04-25T16:14:18Z</time></trkpt><trkpt lat="45.94745067566181" lon="12.151465391309886"><ele>313.42857142857144</ele><time>2026-04-25T16:14:19Z</time></trkpt><trkpt lat="45.94741976238763" lon="12.151375365498938"><ele>316.0</ele><time>2026-04-25T16:14:20Z</time></trkpt><trkpt lat="45.947390722836445" lon="12.151285422187149"><ele>314.8571428571429</ele><time>2026-04-25T16:14:21Z</time></trkpt><trkpt lat="45.94737690652838" lon="12.151192331142852"><ele>313.7142857142857</ele><time>2026-04-25T16:14:22Z</time></trkpt><trkpt lat="45.94737724342891" lon="12.151095396688163"><ele>312.57142857142856</ele><time>2026-04-25T16:14:23Z</time></trkpt><trkpt lat="45.947379737394435" lon="12.150989875855217"><ele>311.42857142857144</ele><time>2026-04-25T16:14:24Z</time></trkpt><trkpt lat="45.947421229036415" lon="12.150890666587676"><ele>310.2857142857143</ele><time>2026-04-25T16:14:25Z</time></trkpt><trkpt lat="45.94746701726199" lon="12.150799038008191"><ele>309.14285714285717</ele><time>2026-04-25T16:14:25.999Z</time></trkpt><trkpt lat="45.947515492619836" lon="12.150713443558582"><ele>308.0</ele><time>2026-04-25T16:14:26.999Z</time></trkpt><trkpt lat="45.947558717360124" lon="12.150631491380762"><ele>308.0</ele><time>2026-04-25T16:14:27.999Z</time></trkpt><trkpt lat="45.947611225385664" lon="12.150555451820185"><ele>308.0</ele><time>2026-04-25T16:14:28.999Z</time></trkpt><trkpt lat="45.94764025747814" lon="12.150458429648316"><ele>308.0</ele><time>2026-04-25T16:14:29.999Z</time></trkpt><trkpt lat="45.947652121211824" lon="12.15034733008556"><ele>308.0</ele><time>2026-04-25T16:14:30.999Z</time></trkpt><trkpt lat="45.94764202981345" lon="12.150238767375896"><ele>308.0</ele><time>2026-04-25T16:14:31.999Z</time></trkpt><trkpt lat="45.94762076070867" lon="12.150138533251601"><ele>308.0</ele><time>2026-04-25T16:14:32.999Z</time></trkpt><trkpt lat="45.94758663317587" lon="12.150050965671925"><ele>308.0</ele><time>2026-04-25T16:14:33.999Z</time></trkpt><trkpt lat="45.94752576367038" lon="12.149898422099865"><ele>306.6</ele><time>2026-04-25T16:14:35.999Z</time></trkpt><trkpt lat="45.94745913290198" lon="12.149766271323893"><ele>305.20000000000005</ele><time>2026-04-25T16:14:37.999Z</time></trkpt><trkpt lat="45.947379240637815" lon="12.14966075308593"><ele>303.8</ele><time>2026-04-25T16:14:39.999Z</time></trkpt><trkpt lat="45.94728887409075" lon="12.149584927414114"><ele>302.40000000000003</ele><time>2026-04-25T16:14:41.999Z</time></trkpt><trkpt lat="45.94720568330204" lon="12.149520609816607"><ele>301.0</ele><time>2026-04-25T16:14:43.999Z</time></trkpt><trkpt lat="45.94712966540066" lon="12.14945038218822"><ele>301.0</ele><time>2026-04-25T16:14:45.999Z</time></trkpt><trkpt lat="45.947061277561964" lon="12.149358224656568"><ele>301.0</ele><time>2026-04-25T16:14:47.999Z</time></trkpt><trkpt lat="45.94699967421207" lon="12.149252605699465"><ele>301.0</ele><time>2026-04-25T16:14:49.999Z</time></trkpt><trkpt lat="45.94694215719574" lon="12.149123766215505"><ele>301.0</ele><time>2026-04-25T16:14:51.999Z</time></trkpt><trkpt lat="45.94688462211937" lon="12.148985689174731"><ele>301.0</ele><time>2026-04-25T16:14:53.999Z</time></trkpt><trkpt lat="45.94688540738594" lon="12.148812838052299"><ele>302.3333333333333</ele><time>2026-04-25T16:14:55.999Z</time></trkpt><trkpt lat="45.9469021360072" lon="12.148725352673573"><ele>303.66666666666663</ele><time>2026-04-25T16:14:56.998Z</time></trkpt><trkpt lat="45.94691752991558" lon="12.148540990609577"><ele>305.0</ele><time>2026-04-25T16:14:58.998Z</time></trkpt><trkpt lat="45.9469073213304" lon="12.148441056473638"><ele>306.3333333333333</ele><time>2026-04-25T16:14:59.998Z</time></trkpt><trkpt lat="45.946879081369396" lon="12.148347544837225"><ele>307.6666666666667</ele><time>2026-04-25T16:15:00.998Z</time></trkpt><trkpt lat="45.94683491376041" lon="12.148263964602627"><ele>309.0</ele><time>2026-04-25T16:15:01.998Z</time></trkpt><trkpt lat="45.946786566635325" lon="12.148193777382106"><ele>309.1666666666667</ele><time>2026-04-25T16:15:02.998Z</time></trkpt><trkpt lat="45.94674008395643" lon="12.148122616600705"><ele>309.3333333333333</ele><time>2026-04-25T16:15:03.998Z</time></trkpt><trkpt lat="45.94669954485303" lon="12.148049815251829"><ele>309.5</ele><time>2026-04-25T16:15:04.998Z</time></trkpt><trkpt lat="45.94665871622458" lon="12.147977845299796"><ele>309.66666666666663</ele><time>2026-04-25T16:15:05.998Z</time></trkpt><trkpt lat="45.946578815934735" lon="12.147838303591017"><ele>309.8333333333333</ele><time>2026-04-25T16:15:07.998Z</time></trkpt><trkpt lat="45.946498491875175" lon="12.147707232282746"><ele>310.0</ele><time>2026-04-25T16:15:09.998Z</time></trkpt><trkpt lat="45.94641433733542" lon="12.14758634490507"><ele>305.8</ele><time>2026-04-25T16:15:11.998Z</time></trkpt><trkpt lat="45.94633571098248" lon="12.147448569301728"><ele>301.6</ele><time>2026-04-25T16:15:13.998Z</time></trkpt><trkpt lat="45.946244583706466" lon="12.147340908490325"><ele>297.4</ele><time>2026-04-25T16:15:15.998Z</time></trkpt><trkpt lat="45.9461672083897" lon="12.147202644617378"><ele>293.2</ele><time>2026-04-25T16:15:17.998Z</time></trkpt><trkpt lat="45.946137092924445" lon="12.147122155239975"><ele>289.0</ele><time>2026-04-25T16:15:18.998Z</time></trkpt><trkpt lat="45.94611143354611" lon="12.147035925869282"><ele>289.0</ele><time>2026-04-25T16:15:19.998Z</time></trkpt><trkpt lat="45.94608770263143" lon="12.14694726789907"><ele>289.0</ele><time>2026-04-25T16:15:20.998Z</time></trkpt><trkpt lat="45.94606499225497" lon="12.146854782015378"><ele>289.0</ele><time>2026-04-25T16:15:21.998Z</time></trkpt><trkpt lat="45.94604031633164" lon="12.146754290739652"><ele>289.0</ele><time>2026-04-25T16:15:22.998Z</time></trkpt><trkpt lat="45.94601685301833" lon="12.146657221408692"><ele>289.0</ele><time>2026-04-25T16:15:23.998Z</time></trkpt><trkpt lat="45.945992773609746" lon="12.146555137778769"><ele>289.0</ele><time>2026-04-25T16:15:24.998Z</time></trkpt><trkpt lat="45.94596835602335" lon="12.146453244478122"><ele>289.0</ele><time>2026-04-25T16:15:25.998Z</time></trkpt><trkpt lat="45.94594229671559" lon="12.146349534692394"><ele>289.66666666666663</ele><time>2026-04-25T16:15:26.998Z</time></trkpt><trkpt lat="45.94590260323642" lon="12.146247246940556"><ele>290.3333333333333</ele><time>2026-04-25T16:15:27.998Z</time></trkpt><trkpt lat="45.94584936158777" lon="12.146157065722543"><ele>291.0</ele><time>2026-04-25T16:15:28.998Z</time></trkpt><trkpt lat="45.94579142992933" lon="12.146078650855149"><ele>291.6666666666667</ele><time>2026-04-25T16:15:29.998Z</time></trkpt><trkpt lat="45.94572434589406" lon="12.146010418875212"><ele>292.33333333333337</ele><time>2026-04-25T16:15:30.998Z</time></trkpt><trkpt lat="45.945650387223125" lon="12.145955195556256"><ele>293.0</ele><time>2026-04-25T16:15:31.998Z</time></trkpt><trkpt lat="45.94557237518263" lon="12.145916282806988"><ele>290.6666666666667</ele><time>2026-04-25T16:15:32.998Z</time></trkpt><trkpt lat="45.945489158339804" lon="12.145892993496052"><ele>288.33333333333337</ele><time>2026-04-25T16:15:33.998Z</time></trkpt><trkpt lat="45.94540559462888" lon="12.145881645484883"><ele>286.0</ele><time>2026-04-25T16:15:34.998Z</time></trkpt><trkpt lat="45.94532375689671" lon="12.14587780734996"><ele>283.6666666666667</ele><time>2026-04-25T16:15:35.998Z</time></trkpt><trkpt lat="45.94524345671499" lon="12.145874025671944"><ele>281.3333333333333</ele><time>2026-04-25T16:15:36.998Z</time></trkpt><trkpt lat="45.94516170834454" lon="12.145870175745706"><ele>279.0</ele><time>2026-04-25T16:15:37.998Z</time></trkpt><trkpt lat="45.94507906374594" lon="12.145867548535941"><ele>277.5</ele><time>2026-04-25T16:15:38.998Z</time></trkpt><trkpt lat="45.944994697005676" lon="12.145866841584438"><ele>276.0</ele><time>2026-04-25T16:15:39.997Z</time></trkpt><trkpt lat="45.94491234666854" lon="12.14586684158295"><ele>274.5</ele><time>2026-04-25T16:15:40.997Z</time></trkpt><trkpt lat="45.9448290663191" lon="12.145866841580656"><ele>273.0</ele><time>2026-04-25T16:15:41.997Z</time></trkpt><trkpt lat="45.944743436151455" lon="12.145865940581785"><ele>271.5</ele><time>2026-04-25T16:15:42.997Z</time></trkpt><trkpt lat="45.944656421840676" lon="12.145864166119093"><ele>270.0</ele><time>2026-04-25T16:15:43.997Z</time></trkpt><trkpt lat="45.944569391878964" lon="12.145860413366146"><ele>270.0</ele><time>2026-04-25T16:15:44.997Z</time></trkpt><trkpt lat="45.944481505006124" lon="12.145853367323289"><ele>270.0</ele><time>2026-04-25T16:15:45.997Z</time></trkpt><trkpt lat="45.944393186129325" lon="12.14583858650257"><ele>270.0</ele><time>2026-04-25T16:15:46.997Z</time></trkpt><trkpt lat="45.94430595470936" lon="12.145815584925364"><ele>270.0</ele><time>2026-04-25T16:15:47.997Z</time></trkpt><trkpt lat="45.944217711522874" lon="12.145786400483049"><ele>270.0</ele><time>2026-04-25T16:15:48.997Z</time></trkpt><trkpt lat="45.94413299012024" lon="12.145747876785915"><ele>270.0</ele><time>2026-04-25T16:15:49.997Z</time></trkpt><trkpt lat="45.944045610965695" lon="12.145709263932297"><ele>269.0</ele><time>2026-04-25T16:15:50.997Z</time></trkpt><trkpt lat="45.943958129810575" lon="12.145672821643828"><ele>268.0</ele><time>2026-04-25T16:15:51.997Z</time></trkpt><trkpt lat="45.94386843354769" lon="12.145640574266292"><ele>267.0</ele><time>2026-04-25T16:15:52.997Z</time></trkpt><trkpt lat="45.94377803550871" lon="12.145617807108453"><ele>266.0</ele><time>2026-04-25T16:15:53.997Z</time></trkpt><trkpt lat="45.943685279439336" lon="12.145609799562651"><ele>265.0</ele><time>2026-04-25T16:15:54.997Z</time></trkpt><trkpt lat="45.94359788551723" lon="12.14560698910324"><ele>265.0</ele><time>2026-04-25T16:15:55.997Z</time></trkpt><trkpt lat="45.943510758514655" lon="12.145605339596642"><ele>265.0</ele><time>2026-04-25T16:15:56.997Z</time></trkpt><trkpt lat="45.94342391491199" lon="12.145603245108392"><ele>265.0</ele><time>2026-04-25T16:15:57.997Z</time></trkpt><trkpt lat="45.94334005197732" lon="12.145601222510749"><ele>265.0</ele><time>2026-04-25T16:15:58.997Z</time></trkpt><trkpt lat="45.94325557588405" lon="12.145599474234476"><ele>265.0</ele><time>2026-04-25T16:15:59.997Z</time></trkpt><trkpt lat="45.943172426789076" lon="12.145598233203012"><ele>265.0</ele><time>2026-04-25T16:16:00.997Z</time></trkpt><trkpt lat="45.94308973917931" lon="12.145596999052803"><ele>264.3333333333333</ele><time>2026-04-25T16:16:01.997Z</time></trkpt><trkpt lat="45.94301038439887" lon="12.145597241556723"><ele>263.66666666666663</ele><time>2026-04-25T16:16:02.997Z</time></trkpt><trkpt lat="45.942926606746425" lon="12.145597241556315"><ele>263.0</ele><time>2026-04-25T16:16:03.997Z</time></trkpt><trkpt lat="45.942846194307826" lon="12.145597241555768"><ele>262.3333333333333</ele><time>2026-04-25T16:16:04.997Z</time></trkpt><trkpt lat="45.94276724999126" lon="12.145596907380128"><ele>261.6666666666667</ele><time>2026-04-25T16:16:06Z</time></trkpt><trkpt lat="45.94268987448593" lon="12.1455962160514"><ele>261.0</ele><time>2026-04-25T16:16:07Z</time></trkpt><trkpt lat="45.94261301414486" lon="12.14559552932676"><ele>261.14285714285717</ele><time>2026-04-25T16:16:08Z</time></trkpt><trkpt lat="45.94253668926284" lon="12.145594847386436"><ele>261.2857142857143</ele><time>2026-04-25T16:16:09Z</time></trkpt><trkpt lat="45.94246394276909" lon="12.145594197402678"><ele>261.42857142857144</ele><time>2026-04-25T16:16:10Z</time></trkpt><trkpt lat="45.94239065433399" lon="12.145593509301385"><ele>261.57142857142856</ele><time>2026-04-25T16:16:11Z</time></trkpt><trkpt lat="45.942315648388345" lon="12.145592818844184"><ele>261.7142857142857</ele><time>2026-04-25T16:16:12Z</time></trkpt><trkpt lat="45.94224255448246" lon="12.145592145987905"><ele>261.8571428571429</ele><time>2026-04-25T16:16:13Z</time></trkpt><trkpt lat="45.94217066909699" lon="12.145591484256276"><ele>262.0</ele><time>2026-04-25T16:16:14Z</time></trkpt><trkpt lat="45.9420989419517" lon="12.145590826070286"><ele>262.0</ele><time>2026-04-25T16:16:15Z</time></trkpt><trkpt lat="45.94202247092443" lon="12.14559012212647"><ele>262.0</ele><time>2026-04-25T16:16:16Z</time></trkpt><trkpt lat="45.94194682230251" lon="12.14558942575271"><ele>262.0</ele><time>2026-04-25T16:16:17Z</time></trkpt><trkpt lat="45.941872939571546" lon="12.145588745633923"><ele>262.0</ele><time>2026-04-25T16:16:18Z</time></trkpt><trkpt lat="45.941800487951994" lon="12.14558807868968"><ele>262.0</ele><time>2026-04-25T16:16:19Z</time></trkpt><trkpt lat="45.94172790231674" lon="12.14558676183544"><ele>262.0</ele><time>2026-04-25T16:16:20Z</time></trkpt><trkpt lat="45.94165702279836" lon="12.145585134931807"><ele>262.0</ele><time>2026-04-25T16:16:21Z</time></trkpt><trkpt lat="45.941582188481476" lon="12.145583417256717"><ele>262.14285714285717</ele><time>2026-04-25T16:16:22Z</time></trkpt><trkpt lat="45.941507964835374" lon="12.145581713594781"><ele>262.28571428571433</ele><time>2026-04-25T16:16:23Z</time></trkpt><trkpt lat="45.941436589058846" lon="12.14557863842102"><ele>262.42857142857144</ele><time>2026-04-25T16:16:24Z</time></trkpt><trkpt lat="45.94136346691237" lon="12.145573326782603"><ele>262.57142857142856</ele><time>2026-04-25T16:16:25Z</time></trkpt><trkpt lat="45.94129351615969" lon="12.145560129742687"><ele>262.71428571428567</ele><time>2026-04-25T16:16:26Z</time></trkpt><trkpt lat="45.94122111019052" lon="12.145545688207841"><ele>262.85714285714283</ele><time>2026-04-25T16:16:27Z</time></trkpt><trkpt lat="45.94114591238525" lon="12.145537034531566"><ele>263.0</ele><time>2026-04-25T16:16:28Z</time></trkpt><trkpt lat="45.941069753229264" lon="12.145534023026507"><ele>263.0</ele><time>2026-04-25T16:16:29Z</time></trkpt><trkpt lat="45.9409957787243" lon="12.145532021695066"><ele>263.0</ele><time>2026-04-25T16:16:30Z</time></trkpt><trkpt lat="45.94091966929813" lon="12.14556226185388"><ele>263.0</ele><time>2026-04-25T16:16:30.999Z</time></trkpt><trkpt lat="45.9408448872387" lon="12.145570482864729"><ele>263.0</ele><time>2026-04-25T16:16:31.999Z</time></trkpt><trkpt lat="45.94076799715121" lon="12.145583149107622"><ele>263.0</ele><time>2026-04-25T16:16:32.999Z</time></trkpt><trkpt lat="45.94069009162541" lon="12.145599870386185"><ele>263.0</ele><time>2026-04-25T16:16:33.999Z</time></trkpt><trkpt lat="45.94060751176215" lon="12.145620064010652"><ele>262.33333333333337</ele><time>2026-04-25T16:16:34.999Z</time></trkpt><trkpt lat="45.940524499100995" lon="12.14564148099868"><ele>261.6666666666667</ele><time>2026-04-25T16:16:35.999Z</time></trkpt><trkpt lat="45.94043832502268" lon="12.145656557986786"><ele>261.0</ele><time>2026-04-25T16:16:36.999Z</time></trkpt><trkpt lat="45.94034904457657" lon="12.145669225908764"><ele>260.3333333333333</ele><time>2026-04-25T16:16:37.999Z</time></trkpt><trkpt lat="45.94026200873505" lon="12.145692462839353"><ele>259.66666666666663</ele><time>2026-04-25T16:16:38.999Z</time></trkpt><trkpt lat="45.940173541507974" lon="12.145716150958972"><ele>259.0</ele><time>2026-04-25T16:16:39.999Z</time></trkpt><trkpt lat="45.94008287119501" lon="12.14573396517974"><ele>257.8</ele><time>2026-04-25T16:16:40.999Z</time></trkpt><trkpt lat="45.939992846776654" lon="12.14575046589399"><ele>256.59999999999997</ele><time>2026-04-25T16:16:41.999Z</time></trkpt><trkpt lat="45.939901659366804" lon="12.145769776771093"><ele>255.4</ele><time>2026-04-25T16:16:42.999Z</time></trkpt><trkpt lat="45.939811176879964" lon="12.145785058371288"><ele>254.2</ele><time>2026-04-25T16:16:43.999Z</time></trkpt><trkpt lat="45.93972163831331" lon="12.145803784867155"><ele>253.0</ele><time>2026-04-25T16:16:44.999Z</time></trkpt><trkpt lat="45.939627458237865" lon="12.145819943806039"><ele>253.0</ele><time>2026-04-25T16:16:45.999Z</time></trkpt><trkpt lat="45.93953746614348" lon="12.145840191868043"><ele>253.0</ele><time>2026-04-25T16:16:46.999Z</time></trkpt><trkpt lat="45.939447487680255" lon="12.145864780821231"><ele>253.0</ele><time>2026-04-25T16:16:47.999Z</time></trkpt><trkpt lat="45.9393560324346" lon="12.14588799219737"><ele>253.0</ele><time>2026-04-25T16:16:48.999Z</time></trkpt><trkpt lat="45.93926302436471" lon="12.14591220611694"><ele>253.0</ele><time>2026-04-25T16:16:49.999Z</time></trkpt><trkpt lat="45.939170393049196" lon="12.145936352667924"><ele>252.60000000000002</ele><time>2026-04-25T16:16:50.999Z</time></trkpt><trkpt lat="45.93907745234062" lon="12.145955560667554"><ele>252.20000000000002</ele><time>2026-04-25T16:16:51.999Z</time></trkpt><trkpt lat="45.93898328027782" lon="12.145983597015883"><ele>251.8</ele><time>2026-04-25T16:16:52.999Z</time></trkpt><trkpt lat="45.9388870824473" lon="12.146012106622612"><ele>251.4</ele><time>2026-04-25T16:16:53.999Z</time></trkpt><trkpt lat="45.938792368160215" lon="12.146034245449476"><ele>251.0</ele><time>2026-04-25T16:16:54.999Z</time></trkpt><trkpt lat="45.93869490115704" lon="12.146055366614075"><ele>251.0</ele><time>2026-04-25T16:16:55.999Z</time></trkpt><trkpt lat="45.93859797945465" lon="12.14607219394105"><ele>251.00000000000003</ele><time>2026-04-25T16:16:56.999Z</time></trkpt><trkpt lat="45.93850030353145" lon="12.146084982072678"><ele>251.00000000000003</ele><time>2026-04-25T16:16:57.999Z</time></trkpt><trkpt lat="45.938402656145904" lon="12.146094726394333"><ele>251.0</ele><time>2026-04-25T16:16:58.999Z</time></trkpt><trkpt lat="45.93830439257824" lon="12.146104659321287"><ele>251.0</ele><time>2026-04-25T16:16:59.999Z</time></trkpt><trkpt lat="45.93820623867767" lon="12.14611069929638"><ele>250.0</ele><time>2026-04-25T16:17:00.999Z</time></trkpt><trkpt lat="45.9381077862107" lon="12.146120373629623"><ele>249.00000000000003</ele><time>2026-04-25T16:17:01.999Z</time></trkpt><trkpt lat="45.938011292698114" lon="12.14613038218829"><ele>248.00000000000003</ele><time>2026-04-25T16:17:02.999Z</time></trkpt><trkpt lat="45.93791404198336" lon="12.146140094254768"><ele>247.0</ele><time>2026-04-25T16:17:03.999Z</time></trkpt><trkpt lat="45.937818645203066" lon="12.146147845965471"><ele>246.0</ele><time>2026-04-25T16:17:04.999Z</time></trkpt><trkpt lat="45.937722405016174" lon="12.146160021638442"><ele>246.0</ele><time>2026-04-25T16:17:05.999Z</time></trkpt><trkpt lat="45.93763473857306" lon="12.146178977683313"><ele>246.0</ele><time>2026-04-25T16:17:06.999Z</time></trkpt><trkpt lat="45.9375559038176" lon="12.14620779644423"><ele>246.0</ele><time>2026-04-25T16:17:07.999Z</time></trkpt><trkpt lat="45.93748738267859" lon="12.146248983876244"><ele>246.0</ele><time>2026-04-25T16:17:08.999Z</time></trkpt><trkpt lat="45.937429548686985" lon="12.146285664151835"><ele>246.0</ele><time>2026-04-25T16:17:09.999Z</time></trkpt><trkpt lat="45.93734953244396" lon="12.14634213034995"><ele>246.0</ele><time>2026-04-25T16:17:11.999Z</time></trkpt><trkpt lat="45.93730352656183" lon="12.146404415061342"><ele>245.5</ele><time>2026-04-25T16:17:25.998Z</time></trkpt><trkpt lat="45.93736393518249" lon="12.14632873958971"><ele>245.0</ele><time>2026-04-25T16:17:31.998Z</time></trkpt><trkpt lat="45.93741821571142" lon="12.14627805099016"><ele>244.5</ele><time>2026-04-25T16:17:34.998Z</time></trkpt><trkpt lat="45.937359905042065" lon="12.146333000077078"><ele>244.0</ele><time>2026-04-25T16:17:44.998Z</time></trkpt><trkpt lat="45.93730057699473" lon="12.146409021958997"><ele>243.5</ele><time>2026-04-25T16:17:46.998Z</time></trkpt><trkpt lat="45.93722683539249" lon="12.146500047355449"><ele>243.0</ele><time>2026-04-25T16:17:48.998Z</time></trkpt><trkpt lat="45.93714429883929" lon="12.146598662827214"><ele>242.83333333333334</ele><time>2026-04-25T16:17:50.998Z</time></trkpt><trkpt lat="45.93704594020188" lon="12.146695554786495"><ele>242.66666666666669</ele><time>2026-04-25T16:17:52.998Z</time></trkpt><trkpt lat="45.93699119041589" lon="12.146742517389036"><ele>242.5</ele><time>2026-04-25T16:17:53.998Z</time></trkpt><trkpt lat="45.936929959688214" lon="12.146780479995682"><ele>242.33333333333334</ele><time>2026-04-25T16:17:54.998Z</time></trkpt><trkpt lat="45.93686449152855" lon="12.146809332162004"><ele>242.16666666666669</ele><time>2026-04-25T16:17:55.998Z</time></trkpt><trkpt lat="45.93679483430907" lon="12.146827100497372"><ele>242.0</ele><time>2026-04-25T16:17:56.998Z</time></trkpt><trkpt lat="45.9367254811853" lon="12.146838733057587"><ele>241.57142857142856</ele><time>2026-04-25T16:17:57.998Z</time></trkpt><trkpt lat="45.93665385950503" lon="12.146843164157657"><ele>241.1428571428571</ele><time>2026-04-25T16:17:58.997Z</time></trkpt><trkpt lat="45.936581155032364" lon="12.146843723839979"><ele>240.71428571428572</ele><time>2026-04-25T16:17:59.997Z</time></trkpt><trkpt lat="45.9365104954299" lon="12.146838551658751"><ele>240.28571428571428</ele><time>2026-04-25T16:18:00.997Z</time></trkpt><trkpt lat="45.93643770727246" lon="12.14683945330495"><ele>239.85714285714286</ele><time>2026-04-25T16:18:01.997Z</time></trkpt><trkpt lat="45.93636336529713" lon="12.146837737872461"><ele>239.42857142857144</ele><time>2026-04-25T16:18:02.997Z</time></trkpt><trkpt lat="45.93628749525336" lon="12.146839806892867"><ele>239.00000000000003</ele><time>2026-04-25T16:18:03.997Z</time></trkpt><trkpt lat="45.93621009043136" lon="12.146841341551298"><ele>239.00000000000003</ele><time>2026-04-25T16:18:04.997Z</time></trkpt><trkpt lat="45.93613735382369" lon="12.1468415522144"><ele>239.0</ele><time>2026-04-25T16:18:05.997Z</time></trkpt><trkpt lat="45.93605296279728" lon="12.146841595375818"><ele>239.0</ele><time>2026-04-25T16:18:06.997Z</time></trkpt><trkpt lat="45.93597297224094" lon="12.146836798697512"><ele>239.0</ele><time>2026-04-25T16:18:07.997Z</time></trkpt><trkpt lat="45.93589389620425" lon="12.146833362034629"><ele>239.00000000000003</ele><time>2026-04-25T16:18:08.997Z</time></trkpt><trkpt lat="45.935813180715655" lon="12.146824230783006"><ele>239.0</ele><time>2026-04-25T16:18:09.997Z</time></trkpt><trkpt lat="45.935731283051624" lon="12.146804054846276"><ele>238.6</ele><time>2026-04-25T16:18:10.997Z</time></trkpt><trkpt lat="45.935648914304316" lon="12.146775682007622"><ele>238.2</ele><time>2026-04-25T16:18:12Z</time></trkpt><trkpt lat="45.93556488148909" lon="12.14673863598348"><ele>237.79999999999998</ele><time>2026-04-25T16:18:13Z</time></trkpt><trkpt lat="45.93548212175542" lon="12.146693274752561"><ele>237.39999999999998</ele><time>2026-04-25T16:18:14Z</time></trkpt><trkpt lat="45.93539687626302" lon="12.146630925881336"><ele>237.0</ele><time>2026-04-25T16:18:15Z</time></trkpt><trkpt lat="45.93531328459348" lon="12.146568446339984"><ele>237.0</ele><time>2026-04-25T16:18:16Z</time></trkpt><trkpt lat="45.9352321317617" lon="12.146501175327673"><ele>237.0</ele><time>2026-04-25T16:18:17Z</time></trkpt><trkpt lat="45.93515953840747" lon="12.146422221532768"><ele>237.0</ele><time>2026-04-25T16:18:18Z</time></trkpt><trkpt lat="45.93509459118229" lon="12.146315882271749"><ele>237.0</ele><time>2026-04-25T16:18:19Z</time></trkpt><trkpt lat="45.935045177572924" lon="12.146202278896634"><ele>237.0</ele><time>2026-04-25T16:18:20Z</time></trkpt><trkpt lat="45.93502690505933" lon="12.146072846995379"><ele>235.0</ele><time>2026-04-25T16:18:21Z</time></trkpt><trkpt lat="45.93502522898059" lon="12.145950380459537"><ele>233.0</ele><time>2026-04-25T16:18:22Z</time></trkpt><trkpt lat="45.93504293443379" lon="12.145825587394"><ele>231.0</ele><time>2026-04-25T16:18:23Z</time></trkpt><trkpt lat="45.935085778936" lon="12.145703510915839"><ele>229.0</ele><time>2026-04-25T16:18:24Z</time></trkpt><trkpt lat="45.93513972602974" lon="12.145583194222079"><ele>227.0</ele><time>2026-04-25T16:18:25Z</time></trkpt><trkpt lat="45.9352037948103" lon="12.145467603415867"><ele>227.0</ele><time>2026-04-25T16:18:26Z</time></trkpt><trkpt lat="45.93527042990784" lon="12.145347981166058"><ele>227.0</ele><time>2026-04-25T16:18:27Z</time></trkpt><trkpt lat="45.935344544626545" lon="12.145227842367472"><ele>227.0</ele><time>2026-04-25T16:18:28Z</time></trkpt><trkpt lat="45.93542281440216" lon="12.145105025066886"><ele>227.0</ele><time>2026-04-25T16:18:29Z</time></trkpt><trkpt lat="45.93550145137879" lon="12.144976312991675"><ele>223.5</ele><time>2026-04-25T16:18:30Z</time></trkpt><trkpt lat="45.93558008434296" lon="12.144844353621265"><ele>220.0</ele><time>2026-04-25T16:18:31Z</time></trkpt><trkpt lat="45.93565543253962" lon="12.144706953582606"><ele>216.5</ele><time>2026-04-25T16:18:32Z</time></trkpt><trkpt lat="45.93572884786658" lon="12.144565739499443"><ele>213.0</ele><time>2026-04-25T16:18:33Z</time></trkpt><trkpt lat="45.93580213280517" lon="12.144423051623571"><ele>213.0</ele><time>2026-04-25T16:18:34Z</time></trkpt><trkpt lat="45.935867349747475" lon="12.144268231594546"><ele>213.0</ele><time>2026-04-25T16:18:35Z</time></trkpt><trkpt lat="45.935927345355786" lon="12.14410932702987"><ele>213.0</ele><time>2026-04-25T16:18:36Z</time></trkpt><trkpt lat="45.9359876608401" lon="12.143950638641142"><ele>213.0</ele><time>2026-04-25T16:18:37Z</time></trkpt><trkpt lat="45.93604818155545" lon="12.143800533453378"><ele>214.25</ele><time>2026-04-25T16:18:38Z</time></trkpt><trkpt lat="45.93610928078656" lon="12.14365022157097"><ele>215.5</ele><time>2026-04-25T16:18:39Z</time></trkpt><trkpt lat="45.93616813398819" lon="12.143498658238828"><ele>216.75</ele><time>2026-04-25T16:18:40Z</time></trkpt><trkpt lat="45.93622655476988" lon="12.143347009896798"><ele>218.0</ele><time>2026-04-25T16:18:41Z</time></trkpt><trkpt lat="45.93628333699475" lon="12.14319499308483"><ele>215.25</ele><time>2026-04-25T16:18:42Z</time></trkpt><trkpt lat="45.93634426374758" lon="12.143046705223023"><ele>212.5</ele><time>2026-04-25T16:18:43Z</time></trkpt><trkpt lat="45.93640537189791" lon="12.142898848991274"><ele>209.75</ele><time>2026-04-25T16:18:44Z</time></trkpt><trkpt lat="45.93646128997393" lon="12.14274671858613"><ele>207.0</ele><time>2026-04-25T16:18:45Z</time></trkpt><trkpt lat="45.93652486236135" lon="12.142597657270162"><ele>207.0</ele><time>2026-04-25T16:18:46Z</time></trkpt><trkpt lat="45.936583862338004" lon="12.142446387243375"><ele>207.0</ele><time>2026-04-25T16:18:46.999Z</time></trkpt><trkpt lat="45.936642576731515" lon="12.142294459619665"><ele>207.0</ele><time>2026-04-25T16:18:47.999Z</time></trkpt><trkpt lat="45.93670426537061" lon="12.142138687524117"><ele>207.0</ele><time>2026-04-25T16:18:48.999Z</time></trkpt><trkpt lat="45.93676410764148" lon="12.141983851564085"><ele>208.75</ele><time>2026-04-25T16:18:49.999Z</time></trkpt><trkpt lat="45.93681098082213" lon="12.14182805832151"><ele>210.5</ele><time>2026-04-25T16:18:50.999Z</time></trkpt><trkpt lat="45.93684777949491" lon="12.141670290965193"><ele>212.25</ele><time>2026-04-25T16:18:51.999Z</time></trkpt><trkpt lat="45.936878575492365" lon="12.141510002840247"><ele>214.0</ele><time>2026-04-25T16:18:52.999Z</time></trkpt><trkpt lat="45.93690570960691" lon="12.14134539254311"><ele>210.0</ele><time>2026-04-25T16:18:53.999Z</time></trkpt><trkpt lat="45.93692964940901" lon="12.141178410641595"><ele>206.0</ele><time>2026-04-25T16:18:54.999Z</time></trkpt><trkpt lat="45.93696157172149" lon="12.141009205518996"><ele>202.0</ele><time>2026-04-25T16:18:55.999Z</time></trkpt><trkpt lat="45.9370045900818" lon="12.140838920533415"><ele>198.0</ele><time>2026-04-25T16:18:56.999Z</time></trkpt><trkpt lat="45.937056610836734" lon="12.140664571984184"><ele>196.5</ele><time>2026-04-25T16:18:57.999Z</time></trkpt><trkpt lat="45.937109430897095" lon="12.140489156127957"><ele>195.0</ele><time>2026-04-25T16:18:58.999Z</time></trkpt><trkpt lat="45.93716222024569" lon="12.140310233572844"><ele>193.5</ele><time>2026-04-25T16:18:59.999Z</time></trkpt><trkpt lat="45.93721273562957" lon="12.14012840149236"><ele>192.0</ele><time>2026-04-25T16:19:00.999Z</time></trkpt><trkpt lat="45.93726311552466" lon="12.139948486732942"><ele>189.5</ele><time>2026-04-25T16:19:01.999Z</time></trkpt><trkpt lat="45.93731590665084" lon="12.139764259275319"><ele>187.0</ele><time>2026-04-25T16:19:02.999Z</time></trkpt><trkpt lat="45.937367501049984" lon="12.139581956302633"><ele>184.5</ele><time>2026-04-25T16:19:03.999Z</time></trkpt><trkpt lat="45.93741955694233" lon="12.139400879945885"><ele>182.0</ele><time>2026-04-25T16:19:04.999Z</time></trkpt><trkpt lat="45.93747446910588" lon="12.13921808467877"><ele>182.75</ele><time>2026-04-25T16:19:05.999Z</time></trkpt><trkpt lat="45.93752913600011" lon="12.139034562087305"><ele>183.5</ele><time>2026-04-25T16:19:06.999Z</time></trkpt><trkpt lat="45.93758328707888" lon="12.138852071814496"><ele>184.25</ele><time>2026-04-25T16:19:07.999Z</time></trkpt><trkpt lat="45.937637961679876" lon="12.138668834813284"><ele>185.0</ele><time>2026-04-25T16:19:08.999Z</time></trkpt><trkpt lat="45.93769020807729" lon="12.138491345045871"><ele>185.0</ele><time>2026-04-25T16:19:09.999Z</time></trkpt><trkpt lat="45.9377457603138" lon="12.1383161809975"><ele>185.0</ele><time>2026-04-25T16:19:10.999Z</time></trkpt><trkpt lat="45.9378165561208" lon="12.13816894770432"><ele>185.0</ele><time>2026-04-25T16:19:11.999Z</time></trkpt><trkpt lat="45.93787632436493" lon="12.13802514868439"><ele>185.0</ele><time>2026-04-25T16:19:12.999Z</time></trkpt><trkpt lat="45.93791959213219" lon="12.137878485690468"><ele>183.2</ele><time>2026-04-25T16:19:13.999Z</time></trkpt><trkpt lat="45.93798102748487" lon="12.13774500758831"><ele>181.4</ele><time>2026-04-25T16:19:14.999Z</time></trkpt><trkpt lat="45.938028730719914" lon="12.137604430500257"><ele>179.60000000000002</ele><time>2026-04-25T16:19:15.999Z</time></trkpt><trkpt lat="45.93805999210894" lon="12.13747251765045"><ele>177.8</ele><time>2026-04-25T16:19:16.999Z</time></trkpt><trkpt lat="45.938079686444496" lon="12.137350834407394"><ele>176.0</ele><time>2026-04-25T16:19:17.999Z</time></trkpt><trkpt lat="45.9380872836001" lon="12.137234719901434"><ele>175.5</ele><time>2026-04-25T16:19:18.999Z</time></trkpt><trkpt lat="45.938089144136725" lon="12.137115040971857"><ele>175.0</ele><time>2026-04-25T16:19:19.999Z</time></trkpt><trkpt lat="45.93808646934399" lon="12.13699664149454"><ele>174.5</ele><time>2026-04-25T16:19:20.999Z</time></trkpt><trkpt lat="45.93807514363678" lon="12.136880065144972"><ele>174.0</ele><time>2026-04-25T16:19:21.999Z</time></trkpt><trkpt lat="45.938054902207035" lon="12.136766044156838"><ele>173.5</ele><time>2026-04-25T16:19:22.999Z</time></trkpt><trkpt lat="45.93802794266017" lon="12.13665062592526"><ele>173.0</ele><time>2026-04-25T16:19:23.999Z</time></trkpt><trkpt lat="45.93802359444905" lon="12.136527967729068"><ele>172.83333333333331</ele><time>2026-04-25T16:19:24.999Z</time></trkpt><trkpt lat="45.93800378399777" lon="12.136413583922671"><ele>172.66666666666666</ele><time>2026-04-25T16:19:25.999Z</time></trkpt><trkpt lat="45.937984518369774" lon="12.136302344492218"><ele>172.5</ele><time>2026-04-25T16:19:26.999Z</time></trkpt><trkpt lat="45.937947642635415" lon="12.136198095718575"><ele>172.33333333333334</ele><time>2026-04-25T16:19:27.999Z</time></trkpt><trkpt lat="45.937928539204634" lon="12.136090527782036"><ele>172.16666666666669</ele><time>2026-04-25T16:19:28.999Z</time></trkpt><trkpt lat="45.93790751788218" lon="12.135986819989204"><ele>172.0</ele><time>2026-04-25T16:19:29.998Z</time></trkpt><trkpt lat="45.937902948511734" lon="12.135883768486922"><ele>172.0</ele><time>2026-04-25T16:19:30.998Z</time></trkpt><trkpt lat="45.93788241345956" lon="12.135795378987694"><ele>172.0</ele><time>2026-04-25T16:19:31.998Z</time></trkpt><trkpt lat="45.93782885057868" lon="12.135635887234828"><ele>172.0</ele><time>2026-04-25T16:19:33.998Z</time></trkpt><trkpt lat="45.937817157162236" lon="12.135493522441038"><ele>172.0</ele><time>2026-04-25T16:19:35.998Z</time></trkpt><trkpt lat="45.93779254650356" lon="12.135386135931444"><ele>172.0</ele><time>2026-04-25T16:19:37.998Z</time></trkpt><trkpt lat="45.93774559895239" lon="12.135319408848362"><ele>172.0</ele><time>2026-04-25T16:19:39.998Z</time></trkpt><trkpt lat="45.937843236157846" lon="12.135157276552178"><ele>171.6</ele><time>2026-04-25T16:19:42.998Z</time></trkpt><trkpt lat="45.937918379888096" lon="12.13506942368163"><ele>171.2</ele><time>2026-04-25T16:19:44.998Z</time></trkpt><trkpt lat="45.93798519524335" lon="12.134968765324986"><ele>170.8</ele><time>2026-04-25T16:19:46.998Z</time></trkpt><trkpt lat="45.93806112108752" lon="12.13486606534141"><ele>170.4</ele><time>2026-04-25T16:19:48.998Z</time></trkpt><trkpt lat="45.93814184014796" lon="12.13475446962763"><ele>170.0</ele><time>2026-04-25T16:19:50.998Z</time></trkpt><trkpt lat="45.93822575228321" lon="12.134636089875395"><ele>169.75</ele><time>2026-04-25T16:19:52.998Z</time></trkpt><trkpt lat="45.938309640636525" lon="12.134517668059697"><ele>169.5</ele><time>2026-04-25T16:19:54.998Z</time></trkpt><trkpt lat="45.93839624577496" lon="12.134397648470937"><ele>169.25</ele><time>2026-04-25T16:19:56.998Z</time></trkpt><trkpt lat="45.938484583079436" lon="12.134275854381766"><ele>169.0</ele><time>2026-04-25T16:19:58.998Z</time></trkpt><trkpt lat="45.93857084790393" lon="12.134158046213786"><ele>169.25</ele><time>2026-04-25T16:20:00.998Z</time></trkpt><trkpt lat="45.93865620888423" lon="12.134033582464944"><ele>169.5</ele><time>2026-04-25T16:20:02.998Z</time></trkpt><trkpt lat="45.93874357688498" lon="12.133913157050786"><ele>169.75</ele><time>2026-04-25T16:20:04.998Z</time></trkpt><trkpt lat="45.938829190977906" lon="12.13379520969661"><ele>170.0</ele><time>2026-04-25T16:20:06.998Z</time></trkpt><trkpt lat="45.93891368700083" lon="12.133677695153935"><ele>170.0</ele><time>2026-04-25T16:20:08.998Z</time></trkpt><trkpt lat="45.938998914533016" lon="12.133560691443016"><ele>170.0</ele><time>2026-04-25T16:20:10.998Z</time></trkpt><trkpt lat="45.93908331999899" lon="12.13344051285769"><ele>170.0</ele><time>2026-04-25T16:20:12.997Z</time></trkpt><trkpt lat="45.93916874331197" lon="12.133323833436295"><ele>170.0</ele><time>2026-04-25T16:20:14.997Z</time></trkpt><trkpt lat="45.93925513762228" lon="12.13320597794021"><ele>169.75</ele><time>2026-04-25T16:20:16.997Z</time></trkpt><trkpt lat="45.93933758275433" lon="12.1330877413602"><ele>169.5</ele><time>2026-04-25T16:20:19Z</time></trkpt><trkpt lat="45.93942027541019" lon="12.132971256133429"><ele>169.25</ele><time>2026-04-25T16:20:21Z</time></trkpt><trkpt lat="45.93950250035281" lon="12.132851742522686"><ele>169.0</ele><time>2026-04-25T16:20:23Z</time></trkpt><trkpt lat="45.93958837624679" lon="12.132736752551843"><ele>169.0</ele><time>2026-04-25T16:20:25Z</time></trkpt><trkpt lat="45.939670395031996" lon="12.132616828581362"><ele>169.0</ele><time>2026-04-25T16:20:27Z</time></trkpt><trkpt lat="45.93975365767965" lon="12.132497816681427"><ele>169.0</ele><time>2026-04-25T16:20:29Z</time></trkpt><trkpt lat="45.93983487541889" lon="12.132377851539127"><ele>169.0</ele><time>2026-04-25T16:20:31Z</time></trkpt><trkpt lat="45.93991632112346" lon="12.13225266121455"><ele>169.0</ele><time>2026-04-25T16:20:33Z</time></trkpt><trkpt lat="45.9400013814265" lon="12.132129731992915"><ele>169.0</ele><time>2026-04-25T16:20:35Z</time></trkpt><trkpt lat="45.94008474211772" lon="12.132001879592888"><ele>169.0</ele><time>2026-04-25T16:20:37Z</time></trkpt><trkpt lat="45.94016986229359" lon="12.13187860658819"><ele>169.0</ele><time>2026-04-25T16:20:39Z</time></trkpt><trkpt lat="45.94025923781144" lon="12.131759228930854"><ele>169.0</ele><time>2026-04-25T16:20:41Z</time></trkpt><trkpt lat="45.94034433810161" lon="12.131637163420548"><ele>169.0</ele><time>2026-04-25T16:20:43Z</time></trkpt><trkpt lat="45.94042664881889" lon="12.131523228827817"><ele>169.0</ele><time>2026-04-25T16:20:45Z</time></trkpt><trkpt lat="45.94050898252252" lon="12.131431217821179"><ele>169.0</ele><time>2026-04-25T16:20:47Z</time></trkpt><trkpt lat="45.94041104434864" lon="12.131195584537178"><ele>169.0</ele><time>2026-04-25T16:20:50Z</time></trkpt><trkpt lat="45.94031154257515" lon="12.131101939275732"><ele>169.0</ele><time>2026-04-25T16:20:52Z</time></trkpt><trkpt lat="45.94021468205033" lon="12.1310067537655"><ele>169.0</ele><time>2026-04-25T16:20:54Z</time></trkpt><trkpt lat="45.94012247477031" lon="12.130907477902273"><ele>169.0</ele><time>2026-04-25T16:20:56Z</time></trkpt><trkpt lat="45.940028874244724" lon="12.130803719983332"><ele>169.75</ele><time>2026-04-25T16:20:58Z</time></trkpt><trkpt lat="45.93993900410169" lon="12.130700191388055"><ele>170.5</ele><time>2026-04-25T16:21:00Z</time></trkpt><trkpt lat="45.93984576593946" lon="12.130593235481092"><ele>171.25</ele><time>2026-04-25T16:21:02Z</time></trkpt><trkpt lat="45.93975287913302" lon="12.130499781080534"><ele>172.0</ele><time>2026-04-25T16:21:04Z</time></trkpt><trkpt lat="45.93966686415362" lon="12.130416263079066"><ele>172.0</ele><time>2026-04-25T16:21:06Z</time></trkpt><trkpt lat="45.93958954417158" lon="12.13033726752254"><ele>172.0</ele><time>2026-04-25T16:21:07.999Z</time></trkpt><trkpt lat="45.939511301472706" lon="12.130267726782687"><ele>172.0</ele><time>2026-04-25T16:21:09.999Z</time></trkpt><trkpt lat="45.93943474760083" lon="12.130203902320446"><ele>172.0</ele><time>2026-04-25T16:21:11.999Z</time></trkpt><trkpt lat="45.9393589075455" lon="12.1301413369103"><ele>172.0</ele><time>2026-04-25T16:21:13.999Z</time></trkpt><trkpt lat="45.93929206842002" lon="12.130075159730199"><ele>172.0</ele><time>2026-04-25T16:21:15.999Z</time></trkpt><trkpt lat="45.93922868966917" lon="12.129996464869636"><ele>171.8</ele><time>2026-04-25T16:21:17.999Z</time></trkpt><trkpt lat="45.93915739543382" lon="12.129920620484835"><ele>171.6</ele><time>2026-04-25T16:21:19.999Z</time></trkpt><trkpt lat="45.93902635345097" lon="12.13000251695433"><ele>171.4</ele><time>2026-04-25T16:21:22.999Z</time></trkpt><trkpt lat="45.93904825365901" lon="12.130127044967281"><ele>171.20000000000002</ele><time>2026-04-25T16:21:23.999Z</time></trkpt><trkpt lat="45.93903626670076" lon="12.130288176420526"><ele>171.0</ele><time>2026-04-25T16:21:25.999Z</time></trkpt><trkpt lat="45.93898698500377" lon="12.130404109713844"><ele>171.0</ele><time>2026-04-25T16:21:27.999Z</time></trkpt><trkpt lat="45.93885900516042" lon="12.130393528870366"><ele>171.0</ele><time>2026-04-25T16:21:29.999Z</time></trkpt><trkpt lat="45.93875823717117" lon="12.130445743052274"><ele>171.0</ele><time>2026-04-25T16:21:31.999Z</time></trkpt><trkpt lat="45.93863993893188" lon="12.13046959601493"><ele>171.0</ele><time>2026-04-25T16:21:33.999Z</time></trkpt><trkpt lat="45.93853016305555" lon="12.130506528646793"><ele>171.0</ele><time>2026-04-25T16:21:35.999Z</time></trkpt><trkpt lat="45.93842551739898" lon="12.130539560478802"><ele>171.0</ele><time>2026-04-25T16:21:37.999Z</time></trkpt><trkpt lat="45.93831295220617" lon="12.130573551719275"><ele>171.0</ele><time>2026-04-25T16:21:39.999Z</time></trkpt><trkpt lat="45.938206580217646" lon="12.13060567279654"><ele>171.0</ele><time>2026-04-25T16:21:41.999Z</time></trkpt><trkpt lat="45.938101623840375" lon="12.130661798772266"><ele>171.0</ele><time>2026-04-25T16:21:43.999Z</time></trkpt><trkpt lat="45.93799593164444" lon="12.130697234191878"><ele>171.20000000000002</ele><time>2026-04-25T16:21:45.999Z</time></trkpt><trkpt lat="45.937890030868715" lon="12.130735585024478"><ele>171.4</ele><time>2026-04-25T16:21:47.999Z</time></trkpt><trkpt lat="45.93779927272901" lon="12.130806158951664"><ele>171.6</ele><time>2026-04-25T16:21:49.998Z</time></trkpt><trkpt lat="45.93771493926956" lon="12.130892691102124"><ele>171.8</ele><time>2026-04-25T16:21:51.998Z</time></trkpt><trkpt lat="45.93764846991493" lon="12.130976756900807"><ele>172.0</ele><time>2026-04-25T16:21:53.998Z</time></trkpt><trkpt lat="45.9375785382703" lon="12.131037657461066"><ele>171.6</ele><time>2026-04-25T16:21:55.998Z</time></trkpt><trkpt lat="45.93750302872538" lon="12.131101306674788"><ele>171.2</ele><time>2026-04-25T16:21:57.998Z</time></trkpt><trkpt lat="45.93743325625373" lon="12.131160119939187"><ele>170.8</ele><time>2026-04-25T16:21:59.998Z</time></trkpt><trkpt lat="45.93735954142309" lon="12.13122225633347"><ele>170.4</ele><time>2026-04-25T16:22:01.998Z</time></trkpt><trkpt lat="45.93740516291637" lon="12.131441804945387"><ele>170.0</ele><time>2026-04-25T16:22:02.998Z</time></trkpt><trkpt lat="45.937349676818506" lon="12.13153902588377"><ele>169.66666666666666</ele><time>2026-04-25T16:22:04.998Z</time></trkpt><trkpt lat="45.93729912325402" lon="12.13162857545673"><ele>169.33333333333331</ele><time>2026-04-25T16:22:06.998Z</time></trkpt><trkpt lat="45.937244752736625" lon="12.131723577285522"><ele>169.0</ele><time>2026-04-25T16:22:08.998Z</time></trkpt><trkpt lat="45.93719110628403" lon="12.13182252363026"><ele>168.66666666666666</ele><time>2026-04-25T16:22:10.998Z</time></trkpt><trkpt lat="45.93714034412722" lon="12.131932068555322"><ele>168.33333333333334</ele><time>2026-04-25T16:22:12.998Z</time></trkpt><trkpt lat="45.93708969989422" lon="12.132031440634174"><ele>168.0</ele><time>2026-04-25T16:22:14.998Z</time></trkpt><trkpt lat="45.93703638709884" lon="12.132129234569643"><ele>168.0</ele><time>2026-04-25T16:22:16.998Z</time></trkpt><trkpt lat="45.936984997156976" lon="12.132224448937416"><ele>168.0</ele><time>2026-04-25T16:22:18.998Z</time></trkpt><trkpt lat="45.93692437165846" lon="12.13230870966751"><ele>168.0</ele><time>2026-04-25T16:22:20.998Z</time></trkpt><trkpt lat="45.936837054458124" lon="12.132343197308703"><ele>168.0</ele><time>2026-04-25T16:22:23Z</time></trkpt><trkpt lat="45.936760133745814" lon="12.132291175422143"><ele>168.0</ele><time>2026-04-25T16:22:25Z</time></trkpt><trkpt lat="45.93673105382438" lon="12.132178300355031"><ele>168.0</ele><time>2026-04-25T16:22:27Z</time></trkpt><trkpt lat="45.93669736617632" lon="12.132076565145187"><ele>167.83333333333334</ele><time>2026-04-25T16:22:29Z</time></trkpt><trkpt lat="45.93665454410952" lon="12.131967781912333"><ele>167.66666666666666</ele><time>2026-04-25T16:22:31Z</time></trkpt><trkpt lat="45.93661222964389" lon="12.131856290369408"><ele>167.5</ele><time>2026-04-25T16:22:33Z</time></trkpt><trkpt lat="45.93658076763784" lon="12.131744252507326"><ele>167.33333333333331</ele><time>2026-04-25T16:22:35Z</time></trkpt><trkpt lat="45.936547457338385" lon="12.131627725536315"><ele>167.16666666666666</ele><time>2026-04-25T16:22:37Z</time></trkpt><trkpt lat="45.93651722973294" lon="12.131506114751936"><ele>167.0</ele><time>2026-04-25T16:22:38.999Z</time></trkpt><trkpt lat="45.93649075160576" lon="12.131390312029772"><ele>167.0</ele><time>2026-04-25T16:22:40.999Z</time></trkpt><trkpt lat="45.936460220147566" lon="12.131276712322256"><ele>167.0</ele><time>2026-04-25T16:22:42.999Z</time></trkpt><trkpt lat="45.936434075864085" lon="12.131169985549354"><ele>167.0</ele><time>2026-04-25T16:22:44.999Z</time></trkpt><trkpt lat="45.93640765204192" lon="12.131043576437403"><ele>167.0</ele><time>2026-04-25T16:22:47.999Z</time></trkpt><trkpt lat="45.936383501802034" lon="12.130954962992288"><ele>167.0</ele><time>2026-04-25T16:22:49.999Z</time></trkpt><trkpt lat="45.93636286771502" lon="12.130843781259793"><ele>167.0</ele><time>2026-04-25T16:22:52.999Z</time></trkpt><trkpt lat="45.93633560938503" lon="12.130731276163194"><ele>167.0</ele><time>2026-04-25T16:22:55.999Z</time></trkpt><trkpt lat="45.93630972504627" lon="12.130621410901993"><ele>167.0</ele><time>2026-04-25T16:22:58.999Z</time></trkpt><trkpt lat="45.936285031487095" lon="12.130513960449175"><ele>167.0</ele><time>2026-04-25T16:23:01.999Z</time></trkpt><trkpt lat="45.936258762692866" lon="12.130391720869609"><ele>167.0</ele><time>2026-04-25T16:23:04.999Z</time></trkpt><trkpt lat="45.936215580124546" lon="12.130286310030481"><ele>167.0</ele><time>2026-04-25T16:23:07.999Z</time></trkpt><trkpt lat="45.936162232650766" lon="12.130199176302849"><ele>167.0</ele><time>2026-04-25T16:23:10.999Z</time></trkpt><trkpt lat="45.93610082414688" lon="12.130131800155413"><ele>167.0</ele><time>2026-04-25T16:23:13.999Z</time></trkpt><trkpt lat="45.93601764934942" lon="12.130090167916888"><ele>167.0</ele><time>2026-04-25T16:23:16.999Z</time></trkpt><trkpt lat="45.93594442191808" lon="12.130080049669752"><ele>167.0</ele><time>2026-04-25T16:23:19.999Z</time></trkpt><trkpt lat="45.93587420986194" lon="12.130125847120741"><ele>167.0</ele><time>2026-04-25T16:23:22.998Z</time></trkpt><trkpt lat="45.93578540729289" lon="12.130175675543182"><ele>167.0</ele><time>2026-04-25T16:23:25.998Z</time></trkpt><trkpt lat="45.935713313962005" lon="12.13019938316243"><ele>167.0</ele><time>2026-04-25T16:23:27.998Z</time></trkpt><trkpt lat="45.93563156555617" lon="12.130231380075099"><ele>167.0</ele><time>2026-04-25T16:23:29.998Z</time></trkpt><trkpt lat="45.93555011847955" lon="12.130258120693998"><ele>167.0</ele><time>2026-04-25T16:23:31.998Z</time></trkpt><trkpt lat="45.93546486211738" lon="12.13028502518563"><ele>167.0</ele><time>2026-04-25T16:23:33.998Z</time></trkpt><trkpt lat="45.93538000550574" lon="12.130306819382882"><ele>167.0</ele><time>2026-04-25T16:23:35.998Z</time></trkpt><trkpt lat="45.935293587298176" lon="12.130348960735617"><ele>167.0</ele><time>2026-04-25T16:23:37.998Z</time></trkpt><trkpt lat="45.935214383772504" lon="12.130398848175462"><ele>167.0</ele><time>2026-04-25T16:23:39.998Z</time></trkpt><trkpt lat="45.935135861404085" lon="12.130456803609258"><ele>167.0</ele><time>2026-04-25T16:23:41.998Z</time></trkpt><trkpt lat="45.93506268501652" lon="12.130524174399204"><ele>167.0</ele><time>2026-04-25T16:23:43.998Z</time></trkpt><trkpt lat="45.93498984691977" lon="12.130587532094765"><ele>167.0</ele><time>2026-04-25T16:23:45.998Z</time></trkpt><trkpt lat="45.934917845869" lon="12.130651197258391"><ele>167.0</ele><time>2026-04-25T16:23:47.998Z</time></trkpt><trkpt lat="45.93484335443213" lon="12.130726492453526"><ele>167.0</ele><time>2026-04-25T16:23:49.998Z</time></trkpt><trkpt lat="45.93476029413359" lon="12.130798069252114"><ele>167.0</ele><time>2026-04-25T16:23:51.998Z</time></trkpt><trkpt lat="45.93468699106901" lon="12.130860283387037"><ele>166.8</ele><time>2026-04-25T16:23:53.998Z</time></trkpt><trkpt lat="45.93461072832562" lon="12.130930017237176"><ele>166.6</ele><time>2026-04-25T16:23:55.998Z</time></trkpt><trkpt lat="45.934531457361075" lon="12.13099690114849"><ele>166.4</ele><time>2026-04-25T16:23:57.998Z</time></trkpt><trkpt lat="45.934454808097655" lon="12.131066041831051"><ele>166.20000000000002</ele><time>2026-04-25T16:23:59.998Z</time></trkpt><trkpt lat="45.93437097162426" lon="12.131129265705018"><ele>166.0</ele><time>2026-04-25T16:24:01.998Z</time></trkpt><trkpt lat="45.93428730492333" lon="12.13117599221881"><ele>165.60000000000002</ele><time>2026-04-25T16:24:03.998Z</time></trkpt><trkpt lat="45.9342004918493" lon="12.13123461591482"><ele>165.2</ele><time>2026-04-25T16:24:05.997Z</time></trkpt><trkpt lat="45.934118704809876" lon="12.13131533238909"><ele>164.8</ele><time>2026-04-25T16:24:07.997Z</time></trkpt><trkpt lat="45.93403388491644" lon="12.131403277830826"><ele>164.39999999999998</ele><time>2026-04-25T16:24:09.997Z</time></trkpt><trkpt lat="45.93394751742065" lon="12.13149150147416"><ele>164.0</ele><time>2026-04-25T16:24:11.997Z</time></trkpt><trkpt lat="45.93386201008667" lon="12.131577978931725"><ele>164.0</ele><time>2026-04-25T16:24:13.997Z</time></trkpt><trkpt lat="45.933772058711824" lon="12.13167449638048"><ele>164.0</ele><time>2026-04-25T16:24:15.997Z</time></trkpt><trkpt lat="45.93367498970099" lon="12.131759799212428"><ele>164.0</ele><time>2026-04-25T16:24:17.997Z</time></trkpt><trkpt lat="45.93357987476805" lon="12.131862306523827"><ele>164.0</ele><time>2026-04-25T16:24:19.997Z</time></trkpt><trkpt lat="45.93348596913578" lon="12.131957687760321"><ele>164.0</ele><time>2026-04-25T16:24:21.997Z</time></trkpt><trkpt lat="45.933394320457225" lon="12.13205932937238"><ele>164.0</ele><time>2026-04-25T16:24:23.997Z</time></trkpt><trkpt lat="45.93330162632728" lon="12.132161877767908"><ele>164.0</ele><time>2026-04-25T16:24:25.997Z</time></trkpt><trkpt lat="45.93321874798392" lon="12.132271329985297"><ele>164.0</ele><time>2026-04-25T16:24:28Z</time></trkpt><trkpt lat="45.933137626176986" lon="12.13239768158535"><ele>163.25</ele><time>2026-04-25T16:24:30Z</time></trkpt><trkpt lat="45.93305981815786" lon="12.132504395882332"><ele>162.5</ele><time>2026-04-25T16:24:32Z</time></trkpt><trkpt lat="45.93299547209254" lon="12.132640978873642"><ele>161.75</ele><time>2026-04-25T16:24:34Z</time></trkpt><trkpt lat="45.93294275865267" lon="12.132781245364567"><ele>161.0</ele><time>2026-04-25T16:24:36Z</time></trkpt><trkpt lat="45.93289077695078" lon="12.132935922850368"><ele>161.0</ele><time>2026-04-25T16:24:38Z</time></trkpt><trkpt lat="45.93285218321678" lon="12.133080752681439"><ele>161.0</ele><time>2026-04-25T16:24:40Z</time></trkpt><trkpt lat="45.93280840013338" lon="12.133241121715"><ele>161.0</ele><time>2026-04-25T16:24:42Z</time></trkpt><trkpt lat="45.932779592065444" lon="12.133399525860767"><ele>161.0</ele><time>2026-04-25T16:24:44Z</time></trkpt><trkpt lat="45.93275070545996" lon="12.133542632143397"><ele>161.0</ele><time>2026-04-25T16:24:46Z</time></trkpt><trkpt lat="45.9327085742558" lon="12.133687441817118"><ele>161.4</ele><time>2026-04-25T16:24:48Z</time></trkpt><trkpt lat="45.93266401666427" lon="12.133815430405821"><ele>161.8</ele><time>2026-04-25T16:24:50Z</time></trkpt><trkpt lat="45.93260628121374" lon="12.13394099054542"><ele>162.20000000000002</ele><time>2026-04-25T16:24:52Z</time></trkpt><trkpt lat="45.932541594646636" lon="12.134058478608804"><ele>162.60000000000002</ele><time>2026-04-25T16:24:53.999Z</time></trkpt><trkpt lat="45.93246887947584" lon="12.134147940935833"><ele>163.0</ele><time>2026-04-25T16:24:55.999Z</time></trkpt><trkpt lat="45.932389376245254" lon="12.13424745142906"><ele>163.0</ele><time>2026-04-25T16:24:57.999Z</time></trkpt><trkpt lat="45.93232193712987" lon="12.134340738036071"><ele>163.0</ele><time>2026-04-25T16:24:59.999Z</time></trkpt><trkpt lat="45.93224664854317" lon="12.134427436825323"><ele>163.0</ele><time>2026-04-25T16:25:01.999Z</time></trkpt><trkpt lat="45.932165109361385" lon="12.134519219451038"><ele>163.0</ele><time>2026-04-25T16:25:03.999Z</time></trkpt><trkpt lat="45.932081082416225" lon="12.13460356451279"><ele>163.0</ele><time>2026-04-25T16:25:05.999Z</time></trkpt><trkpt lat="45.931999016998546" lon="12.134695830927592"><ele>163.0</ele><time>2026-04-25T16:25:07.999Z</time></trkpt><trkpt lat="45.931913222946044" lon="12.134782583252715"><ele>163.0</ele><time>2026-04-25T16:25:09.999Z</time></trkpt><trkpt lat="45.93183231379575" lon="12.134876262982239"><ele>163.0</ele><time>2026-04-25T16:25:11.999Z</time></trkpt><trkpt lat="45.93174139405298" lon="12.134965820584569"><ele>163.0</ele><time>2026-04-25T16:25:13.999Z</time></trkpt><trkpt lat="45.93165066636575" lon="12.13506135802714"><ele>163.0</ele><time>2026-04-25T16:25:15.999Z</time></trkpt><trkpt lat="45.93156078632308" lon="12.135151314640297"><ele>162.60000000000002</ele><time>2026-04-25T16:25:17.999Z</time></trkpt><trkpt lat="45.931477285811" lon="12.135237974742344"><ele>162.20000000000002</ele><time>2026-04-25T16:25:19.999Z</time></trkpt><trkpt lat="45.93138352649279" lon="12.135328177199987"><ele>161.8</ele><time>2026-04-25T16:25:21.999Z</time></trkpt><trkpt lat="45.93129604426306" lon="12.135414227388072"><ele>161.4</ele><time>2026-04-25T16:25:23.999Z</time></trkpt><trkpt lat="45.93120189730882" lon="12.135498342707253"><ele>161.0</ele><time>2026-04-25T16:25:25.999Z</time></trkpt><trkpt lat="45.93111141386029" lon="12.135589696066296"><ele>161.0</ele><time>2026-04-25T16:25:27.999Z</time></trkpt><trkpt lat="45.9310217344351" lon="12.135678491287177"><ele>161.0</ele><time>2026-04-25T16:25:29.999Z</time></trkpt><trkpt lat="45.93093225915987" lon="12.13577087796256"><ele>161.0</ele><time>2026-04-25T16:25:31.999Z</time></trkpt><trkpt lat="45.93084858553302" lon="12.13585404063663"><ele>161.0</ele><time>2026-04-25T16:25:33.999Z</time></trkpt><trkpt lat="45.930763524475125" lon="12.135934829089766"><ele>161.0</ele><time>2026-04-25T16:25:35.998Z</time></trkpt><trkpt lat="45.930675552249404" lon="12.136020149130363"><ele>160.4</ele><time>2026-04-25T16:25:37.998Z</time></trkpt><trkpt lat="45.93058715537307" lon="12.13610714006776"><ele>159.8</ele><time>2026-04-25T16:25:39.998Z</time></trkpt><trkpt lat="45.93050462140747" lon="12.136189351504699"><ele>159.20000000000002</ele><time>2026-04-25T16:25:41.998Z</time></trkpt><trkpt lat="45.930426041999475" lon="12.136266382417528"><ele>158.60000000000002</ele><time>2026-04-25T16:25:43.998Z</time></trkpt><trkpt lat="45.930348979083206" lon="12.136335865714319"><ele>158.0</ele><time>2026-04-25T16:25:45.998Z</time></trkpt><trkpt lat="45.93028087587841" lon="12.13640637750551"><ele>158.0</ele><time>2026-04-25T16:25:47.998Z</time></trkpt><trkpt lat="45.930220229000696" lon="12.136477525033522"><ele>158.0</ele><time>2026-04-25T16:25:49.998Z</time></trkpt><trkpt lat="45.930144245060724" lon="12.136540757516828"><ele>158.0</ele><time>2026-04-25T16:25:52.998Z</time></trkpt><trkpt lat="45.930088611009815" lon="12.136612292897745"><ele>158.0</ele><time>2026-04-25T16:25:58.998Z</time></trkpt><trkpt lat="45.93006349948686" lon="12.13674646062558"><ele>158.0</ele><time>2026-04-25T16:26:01.998Z</time></trkpt><trkpt lat="45.9300663151935" lon="12.13686074606628"><ele>158.0</ele><time>2026-04-25T16:26:03.998Z</time></trkpt><trkpt lat="45.93006807007602" lon="12.136988719934235"><ele>158.0</ele><time>2026-04-25T16:26:05.998Z</time></trkpt><trkpt lat="45.93007118605684" lon="12.13711060285194"><ele>158.0</ele><time>2026-04-25T16:26:07.998Z</time></trkpt><trkpt lat="45.93007872833077" lon="12.137246696901286"><ele>158.0</ele><time>2026-04-25T16:26:09.998Z</time></trkpt><trkpt lat="45.9300862416249" lon="12.137380919106047"><ele>158.0</ele><time>2026-04-25T16:26:11.998Z</time></trkpt><trkpt lat="45.93007969945212" lon="12.137526751372233"><ele>158.0</ele><time>2026-04-25T16:26:13.998Z</time></trkpt><trkpt lat="45.93009229505603" lon="12.137656824325934"><ele>157.8</ele><time>2026-04-25T16:26:15.998Z</time></trkpt><trkpt lat="45.93010902684308" lon="12.137771812776696"><ele>157.60000000000002</ele><time>2026-04-25T16:26:17.998Z</time></trkpt><trkpt lat="45.930151896033586" lon="12.137889615150234"><ele>157.39999999999998</ele><time>2026-04-25T16:26:19.997Z</time></trkpt><trkpt lat="45.93018393745789" lon="12.138015811229952"><ele>157.2</ele><time>2026-04-25T16:26:21.997Z</time></trkpt><trkpt lat="45.93022035236405" lon="12.13814285953619"><ele>157.0</ele><time>2026-04-25T16:26:23.997Z</time></trkpt><trkpt lat="45.93026424071462" lon="12.138258467349429"><ele>157.0</ele><time>2026-04-25T16:26:25.997Z</time></trkpt><trkpt lat="45.93030030325768" lon="12.13836263718961"><ele>157.0</ele><time>2026-04-25T16:26:27.997Z</time></trkpt><trkpt lat="45.93032627267625" lon="12.138450768622588"><ele>157.0</ele><time>2026-04-25T16:26:30.997Z</time></trkpt><trkpt lat="45.930167119167294" lon="12.138734181392941"><ele>157.0</ele><time>2026-04-25T16:26:34Z</time></trkpt><trkpt lat="45.9301168589961" lon="12.138876988163132"><ele>157.0</ele><time>2026-04-25T16:26:36Z</time></trkpt><trkpt lat="45.930058361729145" lon="12.139017184266075"><ele>157.0</ele><time>2026-04-25T16:26:38Z</time></trkpt><trkpt lat="45.93000860544953" lon="12.1391544536696"><ele>157.0</ele><time>2026-04-25T16:26:40Z</time></trkpt><trkpt lat="45.92996139449444" lon="12.139288344300686"><ele>157.0</ele><time>2026-04-25T16:26:42Z</time></trkpt><trkpt lat="45.929910473633505" lon="12.13939975453818"><ele>157.0</ele><time>2026-04-25T16:26:44Z</time></trkpt><trkpt lat="45.92986500119188" lon="12.139528361248209"><ele>157.6</ele><time>2026-04-25T16:26:46Z</time></trkpt><trkpt lat="45.92981716838579" lon="12.139648336093213"><ele>158.2</ele><time>2026-04-25T16:26:48Z</time></trkpt><trkpt lat="45.92974161139932" lon="12.13973551416686"><ele>158.8</ele><time>2026-04-25T16:26:50Z</time></trkpt><trkpt lat="45.929648474622276" lon="12.139717120282736"><ele>159.4</ele><time>2026-04-25T16:26:52Z</time></trkpt><trkpt lat="45.92958673973509" lon="12.13962004459641"><ele>160.0</ele><time>2026-04-25T16:26:54Z</time></trkpt><trkpt lat="45.929518297396726" lon="12.139543806361214"><ele>160.0</ele><time>2026-04-25T16:26:56Z</time></trkpt><trkpt lat="45.929440896263266" lon="12.1395179425697"><ele>160.0</ele><time>2026-04-25T16:26:58Z</time></trkpt><trkpt lat="45.92937208444994" lon="12.139591571590058"><ele>160.0</ele><time>2026-04-25T16:27:00Z</time></trkpt><trkpt lat="45.929313647850414" lon="12.139709766596377"><ele>160.0</ele><time>2026-04-25T16:27:02Z</time></trkpt><trkpt lat="45.929267715694344" lon="12.13980676948427"><ele>160.0</ele><time>2026-04-25T16:27:04Z</time></trkpt><trkpt lat="45.9292307962829" lon="12.139900520605789"><ele>160.0</ele><time>2026-04-25T16:27:06Z</time></trkpt><trkpt lat="45.92919153363824" lon="12.140009713413413"><ele>161.6</ele><time>2026-04-25T16:27:08Z</time></trkpt><trkpt lat="45.929158039398146" lon="12.140130078401548"><ele>163.2</ele><time>2026-04-25T16:27:09.999Z</time></trkpt><trkpt lat="45.92911940989225" lon="12.140243937444932"><ele>164.8</ele><time>2026-04-25T16:27:11.999Z</time></trkpt><trkpt lat="45.92907357313539" lon="12.140348979707062"><ele>166.4</ele><time>2026-04-25T16:27:13.999Z</time></trkpt><trkpt lat="45.9290267133951" lon="12.140480571503465"><ele>168.0</ele><time>2026-04-25T16:27:15.999Z</time></trkpt><trkpt lat="45.928989025660414" lon="12.140607787586298"><ele>166.66666666666666</ele><time>2026-04-25T16:27:17.999Z</time></trkpt><trkpt lat="45.92894869758961" lon="12.140725798590134"><ele>165.33333333333334</ele><time>2026-04-25T16:27:19.999Z</time></trkpt><trkpt lat="45.92891520746837" lon="12.140850361506597"><ele>164.0</ele><time>2026-04-25T16:27:21.999Z</time></trkpt><trkpt lat="45.92888665807947" lon="12.140969149709052"><ele>162.66666666666669</ele><time>2026-04-25T16:27:23.999Z</time></trkpt><trkpt lat="45.928879714979466" lon="12.141096457988427"><ele>161.33333333333334</ele><time>2026-04-25T16:27:25.999Z</time></trkpt><trkpt lat="45.92888291627193" lon="12.141224164205905"><ele>160.0</ele><time>2026-04-25T16:27:27.999Z</time></trkpt><trkpt lat="45.92888745208293" lon="12.141342227679521"><ele>160.0</ele><time>2026-04-25T16:27:29.999Z</time></trkpt><trkpt lat="45.92889114066569" lon="12.141461622050453"><ele>160.0</ele><time>2026-04-25T16:27:31.999Z</time></trkpt><trkpt lat="45.92886616052066" lon="12.141552548586574"><ele>160.0</ele><time>2026-04-25T16:27:40.999Z</time></trkpt><trkpt lat="45.92880293404481" lon="12.141542270421596"><ele>160.0</ele><time>2026-04-25T16:27:48.999Z</time></trkpt><trkpt lat="45.92873345655369" lon="12.141520911302655"><ele>160.0</ele><time>2026-04-25T16:27:57.998Z</time></trkpt><trkpt lat="45.92867096176771" lon="12.141484805346572"><ele>160.0</ele><time>2026-04-25T16:28:05.998Z</time></trkpt><trkpt lat="45.928654286249525" lon="12.141632545811449"><ele>159.5</ele><time>2026-04-25T16:29:51.999Z</time></trkpt><trkpt lat="45.92861076447354" lon="12.141766237456679"><ele>159.0</ele><time>2026-04-25T16:29:54.999Z</time></trkpt><trkpt lat="45.928557728036736" lon="12.141839102281828"><ele>158.5</ele><time>2026-04-25T16:29:56.999Z</time></trkpt><trkpt lat="45.92849834415473" lon="12.141914586667852"><ele>158.0</ele><time>2026-04-25T16:29:59.999Z</time></trkpt><trkpt lat="45.92842629243941" lon="12.141953842017527"><ele>157.5</ele><time>2026-04-25T16:30:01.999Z</time></trkpt><trkpt lat="45.92836937124001" lon="12.142015182894342"><ele>157.0</ele><time>2026-04-25T16:30:03.999Z</time></trkpt><trkpt lat="45.92833514208161" lon="12.142120517988028"><ele>158.5</ele><time>2026-04-25T16:30:05.999Z</time></trkpt><trkpt lat="45.9282944419281" lon="12.14219979293702"><ele>160.0</ele><time>2026-04-25T16:30:09.998Z</time></trkpt><trkpt lat="45.92824183922729" lon="12.142341878262553"><ele>161.5</ele><time>2026-04-25T16:30:16.998Z</time></trkpt><trkpt lat="45.92821925694418" lon="12.14242889463736"><ele>163.0</ele><time>2026-04-25T16:30:17.998Z</time></trkpt><trkpt lat="45.92815567092323" lon="12.142514103678344"><ele>164.5</ele><time>2026-04-25T16:30:19.997Z</time></trkpt><trkpt lat="45.92814757547795" lon="12.14260952688141"><ele>166.0</ele><time>2026-04-25T16:30:33.997Z</time></trkpt><trkpt lat="45.928112626162694" lon="12.14269399026406"><ele>166.0</ele><time>2026-04-25T16:30:42.997Z</time></trkpt><trkpt lat="45.9280867260136" lon="12.142779305912596"><ele>166.0</ele><time>2026-04-25T16:30:53.999Z</time></trkpt><trkpt lat="45.9280407763604" lon="12.142861656873668"><ele>166.0</ele><time>2026-04-25T16:31:01.999Z</time></trkpt><trkpt lat="45.928000744520446" lon="12.142944695436746"><ele>166.0</ele><time>2026-04-25T16:31:04.999Z</time></trkpt><trkpt lat="45.92798329703376" lon="12.143040961674508"><ele>166.0</ele><time>2026-04-25T16:31:07.999Z</time></trkpt><trkpt lat="45.92792396517567" lon="12.143149656408932"><ele>166.0</ele><time>2026-04-25T16:31:12.999Z</time></trkpt><trkpt lat="45.927862964788325" lon="12.143265975749848"><ele>165.16666666666669</ele><time>2026-04-25T16:31:14.999Z</time></trkpt><trkpt lat="45.92782896992415" lon="12.14334660643417"><ele>164.33333333333334</ele><time>2026-04-25T16:31:15.999Z</time></trkpt><trkpt lat="45.92778566103262" lon="12.143430626214327"><ele>163.5</ele><time>2026-04-25T16:31:16.999Z</time></trkpt><trkpt lat="45.92774933195257" lon="12.14352153200942"><ele>162.66666666666666</ele><time>2026-04-25T16:31:17.999Z</time></trkpt><trkpt lat="45.92771045340315" lon="12.143595610227248"><ele>161.83333333333331</ele><time>2026-04-25T16:31:18.999Z</time></trkpt><trkpt lat="45.92764104997735" lon="12.143765258615954"><ele>161.0</ele><time>2026-04-25T16:31:20.999Z</time></trkpt><trkpt lat="45.927610053584104" lon="12.143845231654625"><ele>161.0</ele><time>2026-04-25T16:31:21.999Z</time></trkpt><trkpt lat="45.927589169982156" lon="12.14394386025051"><ele>161.0</ele><time>2026-04-25T16:31:22.999Z</time></trkpt><trkpt lat="45.927559581190394" lon="12.144026310564087"><ele>161.0</ele><time>2026-04-25T16:31:23.999Z</time></trkpt><trkpt lat="45.92753012970095" lon="12.144184534023534"><ele>161.0</ele><time>2026-04-25T16:31:25.999Z</time></trkpt><trkpt lat="45.92754043245253" lon="12.144290145611686"><ele>161.0</ele><time>2026-04-25T16:31:27.999Z</time></trkpt><trkpt lat="45.92753661255886" lon="12.144405207083107"><ele>161.0</ele><time>2026-04-25T16:31:32.999Z</time></trkpt><trkpt lat="45.927560833014965" lon="12.144507748237471"><ele>160.28571428571428</ele><time>2026-04-25T16:31:36.999Z</time></trkpt><trkpt lat="45.927580758575196" lon="12.14460695362961"><ele>159.57142857142856</ele><time>2026-04-25T16:31:40.999Z</time></trkpt><trkpt lat="45.92758170920736" lon="12.144701677596139"><ele>158.85714285714286</ele><time>2026-04-25T16:31:44.998Z</time></trkpt><trkpt lat="45.92758182698034" lon="12.14479834904346"><ele>158.14285714285714</ele><time>2026-04-25T16:31:48.998Z</time></trkpt><trkpt lat="45.92759308493255" lon="12.14490251856757"><ele>157.42857142857142</ele><time>2026-04-25T16:31:52.998Z</time></trkpt><trkpt lat="45.92761287981898" lon="12.145001118474505"><ele>156.71428571428572</ele><time>2026-04-25T16:31:55.998Z</time></trkpt><trkpt lat="45.92763440265832" lon="12.145138570347727"><ele>156.0</ele><time>2026-04-25T16:31:58.998Z</time></trkpt><trkpt lat="45.92764722295653" lon="12.145292708529965"><ele>155.83333333333334</ele><time>2026-04-25T16:32:01.998Z</time></trkpt><trkpt lat="45.92767179510061" lon="12.145424136050982"><ele>155.66666666666666</ele><time>2026-04-25T16:32:03.998Z</time></trkpt><trkpt lat="45.927680191946834" lon="12.145574423779374"><ele>155.5</ele><time>2026-04-25T16:32:05.998Z</time></trkpt><trkpt lat="45.92769836096486" lon="12.145672433022874"><ele>155.33333333333331</ele><time>2026-04-25T16:32:06.998Z</time></trkpt><trkpt lat="45.92771123707189" lon="12.145765223091997"><ele>155.16666666666666</ele><time>2026-04-25T16:32:07.998Z</time></trkpt><trkpt lat="45.92771562544845" lon="12.145858361391179"><ele>155.0</ele><time>2026-04-25T16:32:08.998Z</time></trkpt><trkpt lat="45.927713759845545" lon="12.145957847224851"><ele>155.0</ele><time>2026-04-25T16:32:09.998Z</time></trkpt><trkpt lat="45.92772145249962" lon="12.146061754692669"><ele>155.0</ele><time>2026-04-25T16:32:10.998Z</time></trkpt><trkpt lat="45.927724660312975" lon="12.14616794246435"><ele>155.0</ele><time>2026-04-25T16:32:11.998Z</time></trkpt><trkpt lat="45.927723434631446" lon="12.146267284159626"><ele>155.0</ele><time>2026-04-25T16:32:12.998Z</time></trkpt><trkpt lat="45.92771277333436" lon="12.146372234608528"><ele>155.0</ele><time>2026-04-25T16:32:13.998Z</time></trkpt><trkpt lat="45.92770258238739" lon="12.146477398640851"><ele>155.0</ele><time>2026-04-25T16:32:14.998Z</time></trkpt><trkpt lat="45.927682986825914" lon="12.146565661638105"><ele>155.0</ele><time>2026-04-25T16:32:15.998Z</time></trkpt><trkpt lat="45.92763848226312" lon="12.146730857016715"><ele>154.2</ele><time>2026-04-25T16:32:17.998Z</time></trkpt><trkpt lat="45.92758083590247" lon="12.146880549477032"><ele>153.4</ele><time>2026-04-25T16:32:19.998Z</time></trkpt><trkpt lat="45.92753879734395" lon="12.147019623397028"><ele>152.6</ele><time>2026-04-25T16:32:21.998Z</time></trkpt><trkpt lat="45.92750027056226" lon="12.147141094420366"><ele>151.8</ele><time>2026-04-25T16:32:23.998Z</time></trkpt><trkpt lat="45.92747241214798" lon="12.147260156936978"><ele>151.0</ele><time>2026-04-25T16:32:25.998Z</time></trkpt><trkpt lat="45.92744078442693" lon="12.147388327088828"><ele>153.6</ele><time>2026-04-25T16:32:27.997Z</time></trkpt><trkpt lat="45.92741664342269" lon="12.1475164761452"><ele>156.2</ele><time>2026-04-25T16:32:29.997Z</time></trkpt><trkpt lat="45.92740042927557" lon="12.147651416726463"><ele>158.79999999999998</ele><time>2026-04-25T16:32:31.997Z</time></trkpt><trkpt lat="45.92737341773833" lon="12.147783833896018"><ele>161.39999999999998</ele><time>2026-04-25T16:32:33.997Z</time></trkpt><trkpt lat="45.92733427892886" lon="12.147905808643307"><ele>164.0</ele><time>2026-04-25T16:32:35.997Z</time></trkpt><trkpt lat="45.92727764741598" lon="12.148020849037984"><ele>164.0</ele><time>2026-04-25T16:32:37.997Z</time></trkpt><trkpt lat="45.92723922916281" lon="12.148136208173762"><ele>164.0</ele><time>2026-04-25T16:32:39.997Z</time></trkpt><trkpt lat="45.92720194023341" lon="12.148240221114968"><ele>164.0</ele><time>2026-04-25T16:32:41.997Z</time></trkpt><trkpt lat="45.927119822185794" lon="12.148327578808384"><ele>164.0</ele><time>2026-04-25T16:32:43.997Z</time></trkpt><trkpt lat="45.92705319878003" lon="12.148409002561543"><ele>164.0</ele><time>2026-04-25T16:32:45.997Z</time></trkpt><trkpt lat="45.92699610195247" lon="12.148556119885344"><ele>162.79999999999998</ele><time>2026-04-25T16:32:47.997Z</time></trkpt><trkpt lat="45.926961122867" lon="12.148714045277403"><ele>161.6</ele><time>2026-04-25T16:32:49.997Z</time></trkpt><trkpt lat="45.92693685578884" lon="12.148877001740694"><ele>160.4</ele><time>2026-04-25T16:32:52Z</time></trkpt><trkpt lat="45.92689396404652" lon="12.149008270106872"><ele>159.2</ele><time>2026-04-25T16:32:54Z</time></trkpt><trkpt lat="45.92683045266231" lon="12.14911365412604"><ele>158.0</ele><time>2026-04-25T16:32:56Z</time></trkpt><trkpt lat="45.9267296264997" lon="12.14918308407976"><ele>158.60000000000002</ele><time>2026-04-25T16:32:58Z</time></trkpt><trkpt lat="45.92664395389825" lon="12.149263057667632"><ele>159.20000000000002</ele><time>2026-04-25T16:33:00Z</time></trkpt><trkpt lat="45.926568436559165" lon="12.149358943774542"><ele>159.8</ele><time>2026-04-25T16:33:02Z</time></trkpt><trkpt lat="45.92649344169118" lon="12.14949314707936"><ele>160.4</ele><time>2026-04-25T16:33:04Z</time></trkpt><trkpt lat="45.926438866812276" lon="12.149642128872078"><ele>161.0</ele><time>2026-04-25T16:33:06Z</time></trkpt><trkpt lat="45.92640160733014" lon="12.149797229607428"><ele>158.75</ele><time>2026-04-25T16:33:08Z</time></trkpt><trkpt lat="45.9263365651247" lon="12.149944260385361"><ele>156.5</ele><time>2026-04-25T16:33:10Z</time></trkpt><trkpt lat="45.92626015786256" lon="12.150074066896996"><ele>154.25</ele><time>2026-04-25T16:33:12Z</time></trkpt><trkpt lat="45.92618077994997" lon="12.15018457283135"><ele>152.0</ele><time>2026-04-25T16:33:14Z</time></trkpt><trkpt lat="45.92608506920875" lon="12.150288398705898"><ele>152.0</ele><time>2026-04-25T16:33:16Z</time></trkpt><trkpt lat="45.92599866106635" lon="12.150393164997617"><ele>152.0</ele><time>2026-04-25T16:33:17.999Z</time></trkpt><trkpt lat="45.92590932824097" lon="12.150478695397334"><ele>152.0</ele><time>2026-04-25T16:33:19.999Z</time></trkpt><trkpt lat="45.92574788450467" lon="12.150311025512297"><ele>152.0</ele><time>2026-04-25T16:33:20.999Z</time></trkpt><trkpt lat="45.92566057760902" lon="12.150407904102716"><ele>152.6</ele><time>2026-04-25T16:33:22.999Z</time></trkpt><trkpt lat="45.925585193398305" lon="12.150484402426201"><ele>153.2</ele><time>2026-04-25T16:33:24.999Z</time></trkpt><trkpt lat="45.925505192098484" lon="12.150555477844781"><ele>153.8</ele><time>2026-04-25T16:33:26.999Z</time></trkpt><trkpt lat="45.92542067180545" lon="12.150619826386878"><ele>154.4</ele><time>2026-04-25T16:33:28.999Z</time></trkpt><trkpt lat="45.92531896361922" lon="12.150667975108403"><ele>155.0</ele><time>2026-04-25T16:33:30.999Z</time></trkpt><trkpt lat="45.9252183616325" lon="12.150710934008764"><ele>155.0</ele><time>2026-04-25T16:33:32.999Z</time></trkpt><trkpt lat="45.92511999006196" lon="12.150758791593212"><ele>155.0</ele><time>2026-04-25T16:33:34.999Z</time></trkpt><trkpt lat="45.92501877230892" lon="12.150833697234306"><ele>155.0</ele><time>2026-04-25T16:33:36.999Z</time></trkpt><trkpt lat="45.92493272938929" lon="12.150932451057377"><ele>155.0</ele><time>2026-04-25T16:33:38.999Z</time></trkpt><trkpt lat="45.92483998615924" lon="12.151024902713136"><ele>155.0</ele><time>2026-04-25T16:33:40.999Z</time></trkpt><trkpt lat="45.92474643768804" lon="12.151100326619188"><ele>155.8</ele><time>2026-04-25T16:33:42.999Z</time></trkpt><trkpt lat="45.92465783318372" lon="12.15118192112234"><ele>156.6</ele><time>2026-04-25T16:33:44.999Z</time></trkpt><trkpt lat="45.924565616552535" lon="12.151252915796823"><ele>157.4</ele><time>2026-04-25T16:33:46.999Z</time></trkpt><trkpt lat="45.92446838942066" lon="12.151343808785391"><ele>158.2</ele><time>2026-04-25T16:33:48.999Z</time></trkpt><trkpt lat="45.92438256400345" lon="12.151428431954097"><ele>159.0</ele><time>2026-04-25T16:33:50.999Z</time></trkpt><trkpt lat="45.92429492526395" lon="12.151494459399805"><ele>157.6</ele><time>2026-04-25T16:33:52.999Z</time></trkpt><trkpt lat="45.924196011292295" lon="12.151541526485437"><ele>156.2</ele><time>2026-04-25T16:33:54.999Z</time></trkpt><trkpt lat="45.924111995598835" lon="12.151597743589988"><ele>154.79999999999998</ele><time>2026-04-25T16:33:56.999Z</time></trkpt><trkpt lat="45.924024775107185" lon="12.151666785229864"><ele>153.4</ele><time>2026-04-25T16:33:58.998Z</time></trkpt><trkpt lat="45.9239349549219" lon="12.151704958833113"><ele>152.0</ele><time>2026-04-25T16:34:00.998Z</time></trkpt><trkpt lat="45.9238531517051" lon="12.151759494297737"><ele>152.0</ele><time>2026-04-25T16:34:02.998Z</time></trkpt><trkpt lat="45.92378266370405" lon="12.151827062660221"><ele>152.0</ele><time>2026-04-25T16:34:04.998Z</time></trkpt><trkpt lat="45.92370426380044" lon="12.151851792101228"><ele>152.0</ele><time>2026-04-25T16:34:06.998Z</time></trkpt><trkpt lat="45.92362374228013" lon="12.151893594718237"><ele>152.0</ele><time>2026-04-25T16:34:08.998Z</time></trkpt><trkpt lat="45.923544061464966" lon="12.151957113318694"><ele>152.0</ele><time>2026-04-25T16:34:10.998Z</time></trkpt><trkpt lat="45.9234484170379" lon="12.151982101568809"><ele>152.0</ele><time>2026-04-25T16:34:12.998Z</time></trkpt><trkpt lat="45.92334893444451" lon="12.15202153038781"><ele>153.2</ele><time>2026-04-25T16:34:14.998Z</time></trkpt><trkpt lat="45.92325195485698" lon="12.152069694913315"><ele>154.39999999999998</ele><time>2026-04-25T16:34:16.998Z</time></trkpt><trkpt lat="45.92315248723742" lon="12.15213752215209"><ele>155.60000000000002</ele><time>2026-04-25T16:34:18.998Z</time></trkpt><trkpt lat="45.92305007615523" lon="12.152218720060748"><ele>156.8</ele><time>2026-04-25T16:34:20.998Z</time></trkpt><trkpt lat="45.92296108880919" lon="12.152317795846095"><ele>158.0</ele><time>2026-04-25T16:34:22.998Z</time></trkpt><trkpt lat="45.92288447782056" lon="12.152425191502362"><ele>158.0</ele><time>2026-04-25T16:34:24.998Z</time></trkpt><trkpt lat="45.92279714188457" lon="12.152538807502703"><ele>158.0</ele><time>2026-04-25T16:34:26.998Z</time></trkpt><trkpt lat="45.92272180000928" lon="12.152648269316494"><ele>158.0</ele><time>2026-04-25T16:34:28.998Z</time></trkpt><trkpt lat="45.9226421546997" lon="12.152755097962192"><ele>158.0</ele><time>2026-04-25T16:34:30.998Z</time></trkpt><trkpt lat="45.9225518848091" lon="12.152820445145569"><ele>158.0</ele><time>2026-04-25T16:34:32.998Z</time></trkpt><trkpt lat="45.922449968254085" lon="12.152795969278412"><ele>159.60000000000002</ele><time>2026-04-25T16:34:34.998Z</time></trkpt><trkpt lat="45.92235151268415" lon="12.152802863714216"><ele>161.20000000000002</ele><time>2026-04-25T16:34:36.998Z</time></trkpt><trkpt lat="45.92226169970434" lon="12.152815437514898"><ele>162.8</ele><time>2026-04-25T16:34:38.998Z</time></trkpt><trkpt lat="45.92217339718955" lon="12.152830987164846"><ele>164.4</ele><time>2026-04-25T16:34:40.998Z</time></trkpt><trkpt lat="45.92208671402518" lon="12.152868078644168"><ele>166.0</ele><time>2026-04-25T16:34:42.997Z</time></trkpt><trkpt lat="45.92200092856261" lon="12.15287035715172"><ele>166.0</ele><time>2026-04-25T16:34:44.997Z</time></trkpt><trkpt lat="45.92191377572695" lon="12.152894129736168"><ele>166.0</ele><time>2026-04-25T16:34:46.997Z</time></trkpt><trkpt lat="45.92182598582651" lon="12.152919173071762"><ele>166.0</ele><time>2026-04-25T16:34:48.997Z</time></trkpt><trkpt lat="45.921725858971875" lon="12.152955972225657"><ele>166.0</ele><time>2026-04-25T16:34:50.997Z</time></trkpt><trkpt lat="45.9216148199098" lon="12.152998047570536"><ele>166.0</ele><time>2026-04-25T16:34:52.997Z</time></trkpt><trkpt lat="45.92149465437214" lon="12.153043581144862"><ele>165.14285714285714</ele><time>2026-04-25T16:34:54.997Z</time></trkpt><trkpt lat="45.92143153873374" lon="12.153067497159359"><ele>164.2857142857143</ele><time>2026-04-25T16:34:56Z</time></trkpt><trkpt lat="45.92136662701127" lon="12.15309209568581"><ele>163.42857142857144</ele><time>2026-04-25T16:34:57Z</time></trkpt><trkpt lat="45.92129980165892" lon="12.153117417414936"><ele>162.57142857142856</ele><time>2026-04-25T16:34:58Z</time></trkpt><trkpt lat="45.92123274385609" lon="12.153141034234936"><ele>161.71428571428572</ele><time>2026-04-25T16:34:59Z</time></trkpt><trkpt lat="45.92116351557616" lon="12.153164603092405"><ele>160.85714285714286</ele><time>2026-04-25T16:35:00Z</time></trkpt><trkpt lat="45.921095450382225" lon="12.153187775972397"><ele>160.0</ele><time>2026-04-25T16:35:01Z</time></trkpt><trkpt lat="45.92102781488772" lon="12.153210802576977"><ele>158.85714285714286</ele><time>2026-04-25T16:35:02Z</time></trkpt><trkpt lat="45.92095950823465" lon="12.153237863573903"><ele>157.71428571428572</ele><time>2026-04-25T16:35:03Z</time></trkpt><trkpt lat="45.92089599607051" lon="12.153286946241954"><ele>156.57142857142856</ele><time>2026-04-25T16:35:04Z</time></trkpt><trkpt lat="45.920828036814946" lon="12.153313379161888"><ele>155.42857142857144</ele><time>2026-04-25T16:35:05Z</time></trkpt><trkpt lat="45.92076196383452" lon="12.153345771225943"><ele>154.2857142857143</ele><time>2026-04-25T16:35:06Z</time></trkpt><trkpt lat="45.92069554129452" lon="12.153382070530856"><ele>153.14285714285714</ele><time>2026-04-25T16:35:07Z</time></trkpt><trkpt lat="45.920630792521074" lon="12.153425590684138"><ele>152.0</ele><time>2026-04-25T16:35:08Z</time></trkpt><trkpt lat="45.92056938837265" lon="12.153471024333099"><ele>152.0</ele><time>2026-04-25T16:35:09Z</time></trkpt><trkpt lat="45.92051265723233" lon="12.15351413695554"><ele>152.0</ele><time>2026-04-25T16:35:10Z</time></trkpt><trkpt lat="45.920443096108464" lon="12.153553197595471"><ele>152.0</ele><time>2026-04-25T16:35:11Z</time></trkpt><trkpt lat="45.92038155836241" lon="12.15360389511434"><ele>152.0</ele><time>2026-04-25T16:35:12Z</time></trkpt><trkpt lat="45.92031376582932" lon="12.1536418433371"><ele>152.0</ele><time>2026-04-25T16:35:13Z</time></trkpt><trkpt lat="45.9202449953581" lon="12.153681591837918"><ele>152.0</ele><time>2026-04-25T16:35:14Z</time></trkpt><trkpt lat="45.92017049448272" lon="12.15371628042891"><ele>152.0</ele><time>2026-04-25T16:35:15Z</time></trkpt><trkpt lat="45.92009835348624" lon="12.15374625738097"><ele>152.0</ele><time>2026-04-25T16:35:16Z</time></trkpt><trkpt lat="45.92002068458977" lon="12.153784995283884"><ele>152.0</ele><time>2026-04-25T16:35:17Z</time></trkpt><trkpt lat="45.91993996451815" lon="12.15381773320289"><ele>152.0</ele><time>2026-04-25T16:35:18Z</time></trkpt><trkpt lat="45.9198634298927" lon="12.153849724263708"><ele>152.0</ele><time>2026-04-25T16:35:19Z</time></trkpt><trkpt lat="45.91979316714266" lon="12.153885925773736"><ele>152.0</ele><time>2026-04-25T16:35:20Z</time></trkpt><trkpt lat="45.919711411622195" lon="12.15390435097993"><ele>152.0</ele><time>2026-04-25T16:35:21Z</time></trkpt><trkpt lat="45.919647070608406" lon="12.153927116716346"><ele>152.0</ele><time>2026-04-25T16:35:22Z</time></trkpt><trkpt lat="45.919584200439004" lon="12.153945945314742"><ele>152.0</ele><time>2026-04-25T16:35:23Z</time></trkpt><trkpt lat="45.919495650357895" lon="12.153988986600954"><ele>152.0</ele><time>2026-04-25T16:35:25Z</time></trkpt><trkpt lat="45.91951433272753" lon="12.153826023432131"><ele>152.0</ele><time>2026-04-25T16:35:28Z</time></trkpt><trkpt lat="45.919546658901794" lon="12.153708069238206"><ele>152.0</ele><time>2026-04-25T16:35:30Z</time></trkpt><trkpt lat="45.919601098956534" lon="12.153607954366572"><ele>152.0</ele><time>2026-04-25T16:35:32Z</time></trkpt><trkpt lat="45.91963220381643" lon="12.153484627908842"><ele>152.0</ele><time>2026-04-25T16:35:34Z</time></trkpt><trkpt lat="45.91967608871873" lon="12.153360031868036"><ele>152.0</ele><time>2026-04-25T16:35:36Z</time></trkpt><trkpt lat="45.919712567444016" lon="12.153237797754564"><ele>152.0</ele><time>2026-04-25T16:35:37.999Z</time></trkpt><trkpt lat="45.919745744817995" lon="12.153122387131937"><ele>152.0</ele><time>2026-04-25T16:35:39.999Z</time></trkpt><trkpt lat="45.91979304635317" lon="12.153010541756204"><ele>152.0</ele><time>2026-04-25T16:35:41.999Z</time></trkpt><trkpt lat="45.919846224072565" lon="12.152905563920907"><ele>152.83333333333331</ele><time>2026-04-25T16:35:43.999Z</time></trkpt><trkpt lat="45.9199167125012" lon="12.152834944103528"><ele>153.66666666666666</ele><time>2026-04-25T16:35:45.999Z</time></trkpt><trkpt lat="45.91997791261153" lon="12.152742896385174"><ele>154.5</ele><time>2026-04-25T16:35:47.999Z</time></trkpt><trkpt lat="45.92002184868247" lon="12.152627385784978"><ele>155.33333333333334</ele><time>2026-04-25T16:35:49.999Z</time></trkpt><trkpt lat="45.92007893474461" lon="12.152525798652237"><ele>156.16666666666669</ele><time>2026-04-25T16:35:51.999Z</time></trkpt><trkpt lat="45.92013142880339" lon="12.152419741967945"><ele>157.0</ele><time>2026-04-25T16:35:53.999Z</time></trkpt><trkpt lat="45.920180120251445" lon="12.152310778021766"><ele>157.5</ele><time>2026-04-25T16:35:55.999Z</time></trkpt><trkpt lat="45.92023126496086" lon="12.152203014882762"><ele>158.0</ele><time>2026-04-25T16:35:57.999Z</time></trkpt><trkpt lat="45.920276669643826" lon="12.15209431823496"><ele>158.5</ele><time>2026-04-25T16:35:59.999Z</time></trkpt><trkpt lat="45.92031932106408" lon="12.15198453848994"><ele>159.0</ele><time>2026-04-25T16:36:01.999Z</time></trkpt><trkpt lat="45.920358179687156" lon="12.151873066159103"><ele>159.5</ele><time>2026-04-25T16:36:03.999Z</time></trkpt><trkpt lat="45.92040523415084" lon="12.151761395344305"><ele>160.0</ele><time>2026-04-25T16:36:05.999Z</time></trkpt><trkpt lat="45.92044607371734" lon="12.151652753081407"><ele>160.0</ele><time>2026-04-25T16:36:07.999Z</time></trkpt><trkpt lat="45.92049151105824" lon="12.151544066411518"><ele>160.0</ele><time>2026-04-25T16:36:09.999Z</time></trkpt><trkpt lat="45.920533610592315" lon="12.151444754242078"><ele>160.0</ele><time>2026-04-25T16:36:11.999Z</time></trkpt><trkpt lat="45.92057696955388" lon="12.151340194806519"><ele>160.0</ele><time>2026-04-25T16:36:13.999Z</time></trkpt><trkpt lat="45.920626425016806" lon="12.15124049615218"><ele>160.0</ele><time>2026-04-25T16:36:15.999Z</time></trkpt><trkpt lat="45.92066921966802" lon="12.151133411761613"><ele>160.0</ele><time>2026-04-25T16:36:17.999Z</time></trkpt><trkpt lat="45.92071485560699" lon="12.151032094026093"><ele>159.83333333333334</ele><time>2026-04-25T16:36:19.999Z</time></trkpt><trkpt lat="45.92075225277518" lon="12.150917985740703"><ele>159.66666666666669</ele><time>2026-04-25T16:36:21.998Z</time></trkpt><trkpt lat="45.92079024116982" lon="12.150801320836102"><ele>159.5</ele><time>2026-04-25T16:36:23.998Z</time></trkpt><trkpt lat="45.920825596926434" lon="12.150687937084113"><ele>159.33333333333334</ele><time>2026-04-25T16:36:25.998Z</time></trkpt><trkpt lat="45.920859238303045" lon="12.150568996845577"><ele>159.16666666666666</ele><time>2026-04-25T16:36:27.998Z</time></trkpt><trkpt lat="45.920878369071644" lon="12.150442321726759"><ele>159.0</ele><time>2026-04-25T16:36:29.998Z</time></trkpt><trkpt lat="45.92090954872888" lon="12.150327142506233"><ele>161.16666666666666</ele><time>2026-04-25T16:36:31.998Z</time></trkpt><trkpt lat="45.92092392567573" lon="12.150210419304667"><ele>163.33333333333334</ele><time>2026-04-25T16:36:33.998Z</time></trkpt><trkpt lat="45.92094130260095" lon="12.150084958072618"><ele>165.5</ele><time>2026-04-25T16:36:35.998Z</time></trkpt><trkpt lat="45.92095924455127" lon="12.149973139853468"><ele>167.66666666666669</ele><time>2026-04-25T16:36:37.998Z</time></trkpt><trkpt lat="45.9209814202298" lon="12.149847723137189"><ele>169.83333333333334</ele><time>2026-04-25T16:36:39.998Z</time></trkpt><trkpt lat="45.92100347269213" lon="12.149723853022257"><ele>172.0</ele><time>2026-04-25T16:36:41.998Z</time></trkpt><trkpt lat="45.92102652806514" lon="12.149595048219322"><ele>172.0</ele><time>2026-04-25T16:36:43.998Z</time></trkpt><trkpt lat="45.92104297098221" lon="12.149464389986798"><ele>172.0</ele><time>2026-04-25T16:36:45.998Z</time></trkpt><trkpt lat="45.921056154065354" lon="12.149333789283128"><ele>172.0</ele><time>2026-04-25T16:36:47.998Z</time></trkpt><trkpt lat="45.921062108178035" lon="12.149199258753434"><ele>172.0</ele><time>2026-04-25T16:36:49.998Z</time></trkpt><trkpt lat="45.92106299901916" lon="12.149078401325045"><ele>172.0</ele><time>2026-04-25T16:36:51.998Z</time></trkpt><trkpt lat="45.92106251050056" lon="12.1489516242654"><ele>171.66666666666669</ele><time>2026-04-25T16:36:53.998Z</time></trkpt><trkpt lat="45.921055691662886" lon="12.148830976155526"><ele>171.33333333333334</ele><time>2026-04-25T16:36:55.998Z</time></trkpt><trkpt lat="45.921046824533114" lon="12.148707233866274"><ele>171.0</ele><time>2026-04-25T16:36:57.998Z</time></trkpt><trkpt lat="45.92103787232733" lon="12.148587139059746"><ele>170.66666666666666</ele><time>2026-04-25T16:36:59.998Z</time></trkpt><trkpt lat="45.92103192074664" lon="12.148475351445562"><ele>170.33333333333331</ele><time>2026-04-25T16:37:02Z</time></trkpt><trkpt lat="45.92102539856816" lon="12.148357542725206"><ele>170.0</ele><time>2026-04-25T16:37:04Z</time></trkpt><trkpt lat="45.92100812205777" lon="12.148236764769871"><ele>169.66666666666666</ele><time>2026-04-25T16:37:06Z</time></trkpt><trkpt lat="45.921021266606225" lon="12.148114906638652"><ele>169.33333333333331</ele><time>2026-04-25T16:37:08Z</time></trkpt><trkpt lat="45.921043914266676" lon="12.14799911519365"><ele>169.0</ele><time>2026-04-25T16:37:10Z</time></trkpt><trkpt lat="45.92107360803084" lon="12.147888399953077"><ele>168.66666666666666</ele><time>2026-04-25T16:37:12Z</time></trkpt><trkpt lat="45.921131546892504" lon="12.147801131318134"><ele>168.33333333333334</ele><time>2026-04-25T16:37:14Z</time></trkpt><trkpt lat="45.92118199042341" lon="12.147714015330125"><ele>168.0</ele><time>2026-04-25T16:37:16Z</time></trkpt><trkpt lat="45.92123607656776" lon="12.147631337366343"><ele>168.0</ele><time>2026-04-25T16:37:18Z</time></trkpt><trkpt lat="45.92128110338937" lon="12.14753379334651"><ele>168.0</ele><time>2026-04-25T16:37:20Z</time></trkpt><trkpt lat="45.92133782765299" lon="12.147443170101871"><ele>168.0</ele><time>2026-04-25T16:37:22Z</time></trkpt><trkpt lat="45.92140372108608" lon="12.14736673643889"><ele>168.0</ele><time>2026-04-25T16:37:24Z</time></trkpt><trkpt lat="45.92145962612145" lon="12.147273052444483"><ele>168.0</ele><time>2026-04-25T16:37:26Z</time></trkpt><trkpt lat="45.921511391667956" lon="12.147160564764139"><ele>168.0</ele><time>2026-04-25T16:37:28Z</time></trkpt><trkpt lat="45.92155258865977" lon="12.147034168298378"><ele>168.60000000000002</ele><time>2026-04-25T16:37:30Z</time></trkpt><trkpt lat="45.92157887901935" lon="12.146891428122942"><ele>169.20000000000002</ele><time>2026-04-25T16:37:32Z</time></trkpt><trkpt lat="45.92158644379062" lon="12.14674051847067"><ele>169.8</ele><time>2026-04-25T16:37:34Z</time></trkpt><trkpt lat="45.92156341251569" lon="12.14659211846104"><ele>170.4</ele><time>2026-04-25T16:37:36Z</time></trkpt><trkpt lat="45.92152302227535" lon="12.146463047927432"><ele>171.0</ele><time>2026-04-25T16:37:38Z</time></trkpt><trkpt lat="45.92149222155822" lon="12.1463598665495"><ele>171.16666666666666</ele><time>2026-04-25T16:37:40Z</time></trkpt><trkpt lat="45.92147935347441" lon="12.146245657368631"><ele>171.33333333333334</ele><time>2026-04-25T16:37:42Z</time></trkpt><trkpt lat="45.9214928344299" lon="12.14613228362281"><ele>171.5</ele><time>2026-04-25T16:37:44Z</time></trkpt><trkpt lat="45.921514929354984" lon="12.14601524729144"><ele>171.66666666666669</ele><time>2026-04-25T16:37:46Z</time></trkpt><trkpt lat="45.92154451675521" lon="12.145893258314487"><ele>171.83333333333334</ele><time>2026-04-25T16:37:48Z</time></trkpt><trkpt lat="45.92157861000165" lon="12.145758312524553"><ele>172.0</ele><time>2026-04-25T16:37:50Z</time></trkpt><trkpt lat="45.921582631384496" lon="12.145621129471227"><ele>172.0</ele><time>2026-04-25T16:37:51.999Z</time></trkpt><trkpt lat="45.921566492195154" lon="12.145487270942862"><ele>172.0</ele><time>2026-04-25T16:37:53.999Z</time></trkpt><trkpt lat="45.921521742001225" lon="12.145347791851723"><ele>172.0</ele><time>2026-04-25T16:37:55.999Z</time></trkpt><trkpt lat="45.92144688523551" lon="12.145252813307549"><ele>172.0</ele><time>2026-04-25T16:37:57.999Z</time></trkpt><trkpt lat="45.92140491958241" lon="12.14514143137007"><ele>172.0</ele><time>2026-04-25T16:37:59.999Z</time></trkpt><trkpt lat="45.92138149914977" lon="12.145029176433752"><ele>172.0</ele><time>2026-04-25T16:38:01.999Z</time></trkpt><trkpt lat="45.921362498102454" lon="12.144905243016131"><ele>172.0</ele><time>2026-04-25T16:38:03.999Z</time></trkpt><trkpt lat="45.92135648562132" lon="12.144786329117604"><ele>172.0</ele><time>2026-04-25T16:38:05.999Z</time></trkpt><trkpt lat="45.92135857712995" lon="12.144671682146631"><ele>172.0</ele><time>2026-04-25T16:38:07.999Z</time></trkpt><trkpt lat="45.92136591891698" lon="12.144547062408739"><ele>172.0</ele><time>2026-04-25T16:38:09.999Z</time></trkpt><trkpt lat="45.921376747629594" lon="12.144421343312697"><ele>172.0</ele><time>2026-04-25T16:38:11.999Z</time></trkpt><trkpt lat="45.92139245312289" lon="12.144298387063628"><ele>172.83333333333334</ele><time>2026-04-25T16:38:13.999Z</time></trkpt><trkpt lat="45.921408353552735" lon="12.144173634933429"><ele>173.66666666666669</ele><time>2026-04-25T16:38:15.999Z</time></trkpt><trkpt lat="45.92142291793074" lon="12.144044921099715"><ele>174.5</ele><time>2026-04-25T16:38:17.999Z</time></trkpt><trkpt lat="45.92143579007349" lon="12.143916506142507"><ele>175.33333333333334</ele><time>2026-04-25T16:38:19.998Z</time></trkpt><trkpt lat="45.921444154962025" lon="12.143790924565335"><ele>176.16666666666666</ele><time>2026-04-25T16:38:21.998Z</time></trkpt><trkpt lat="45.92145028918381" lon="12.143662246480755"><ele>177.0</ele><time>2026-04-25T16:38:23.998Z</time></trkpt><trkpt lat="45.9214504483171" lon="12.143536855593343"><ele>178.2</ele><time>2026-04-25T16:38:25.998Z</time></trkpt><trkpt lat="45.9214428968179" lon="12.14340127877017"><ele>179.39999999999998</ele><time>2026-04-25T16:38:27.998Z</time></trkpt><trkpt lat="45.92143248062126" lon="12.143274149746036"><ele>180.60000000000002</ele><time>2026-04-25T16:38:29.998Z</time></trkpt><trkpt lat="45.921416401285306" lon="12.143132160282983"><ele>181.8</ele><time>2026-04-25T16:38:31.998Z</time></trkpt><trkpt lat="45.92140001663811" lon="12.1429952096393"><ele>183.0</ele><time>2026-04-25T16:38:33.998Z</time></trkpt><trkpt lat="45.92138059844598" lon="12.14285357392542"><ele>183.2</ele><time>2026-04-25T16:38:35.997Z</time></trkpt><trkpt lat="45.92135951334562" lon="12.142708789552762"><ele>183.4</ele><time>2026-04-25T16:38:37.997Z</time></trkpt><trkpt lat="45.92133633982115" lon="12.142561268818795"><ele>183.6</ele><time>2026-04-25T16:38:39.997Z</time></trkpt><trkpt lat="45.921311656177885" lon="12.142423688910268"><ele>183.79999999999998</ele><time>2026-04-25T16:38:41.997Z</time></trkpt><trkpt lat="45.92129474196413" lon="12.1422933517259"><ele>184.0</ele><time>2026-04-25T16:38:43.997Z</time></trkpt><trkpt lat="45.92129835596823" lon="12.142149953347117"><ele>184.2</ele><time>2026-04-25T16:38:45.997Z</time></trkpt><trkpt lat="45.92131303766835" lon="12.14200666268261"><ele>184.39999999999998</ele><time>2026-04-25T16:38:47.997Z</time></trkpt><trkpt lat="45.921317510350875" lon="12.141846258332304"><ele>184.6</ele><time>2026-04-25T16:38:49.997Z</time></trkpt><trkpt lat="45.92131104010874" lon="12.141677941573779"><ele>184.8</ele><time>2026-04-25T16:38:51.997Z</time></trkpt><trkpt lat="45.92127505076562" lon="12.141527093818903"><ele>185.0</ele><time>2026-04-25T16:38:53.997Z</time></trkpt><trkpt lat="45.92122339153401" lon="12.141385652679643"><ele>186.6</ele><time>2026-04-25T16:38:55.997Z</time></trkpt><trkpt lat="45.92117168121" lon="12.141261435697816"><ele>188.2</ele><time>2026-04-25T16:38:57.997Z</time></trkpt><trkpt lat="45.921110458670874" lon="12.141129286867693"><ele>189.8</ele><time>2026-04-25T16:38:59.997Z</time></trkpt><trkpt lat="45.92105220993663" lon="12.141023380858138"><ele>191.4</ele><time>2026-04-25T16:39:01.997Z</time></trkpt><trkpt lat="45.92101408123655" lon="12.140934428745563"><ele>193.0</ele><time>2026-04-25T16:39:03.997Z</time></trkpt><trkpt lat="45.921000208215794" lon="12.14083251494778"><ele>194.49999999999997</ele><time>2026-04-25T16:39:05.997Z</time></trkpt><trkpt lat="45.92100513753243" lon="12.14071481132423"><ele>196.0</ele><time>2026-04-25T16:39:08Z</time></trkpt><trkpt lat="45.92100730665146" lon="12.140581839646622"><ele>197.5</ele><time>2026-04-25T16:39:10Z</time></trkpt><trkpt lat="45.92100804375046" lon="12.140461743026103"><ele>199.0</ele><time>2026-04-25T16:39:12Z</time></trkpt><trkpt lat="45.92099850184433" lon="12.140323611203417"><ele>200.49999999999997</ele><time>2026-04-25T16:39:14Z</time></trkpt><trkpt lat="45.92097432460725" lon="12.14019688624832"><ele>202.0</ele><time>2026-04-25T16:39:16Z</time></trkpt><trkpt lat="45.920952229317564" lon="12.140088595085095"><ele>201.99999999999997</ele><time>2026-04-25T16:39:18Z</time></trkpt><trkpt lat="45.920927057625605" lon="12.139974433714404"><ele>202.0</ele><time>2026-04-25T16:39:20Z</time></trkpt><trkpt lat="45.92090305589271" lon="12.13986590625328"><ele>202.0</ele><time>2026-04-25T16:39:22Z</time></trkpt><trkpt lat="45.92087698125777" lon="12.139748004840856"><ele>202.0</ele><time>2026-04-25T16:39:24Z</time></trkpt><trkpt lat="45.92085203645738" lon="12.13963521217537"><ele>201.99999999999997</ele><time>2026-04-25T16:39:25.999Z</time></trkpt><trkpt lat="45.92082689186288" lon="12.13952151611495"><ele>202.0</ele><time>2026-04-25T16:39:27.999Z</time></trkpt><trkpt lat="45.92075430926848" lon="12.139489826337115"><ele>200.33333333333331</ele><time>2026-04-25T16:39:28.999Z</time></trkpt><trkpt lat="45.92073482629533" lon="12.139364400456857"><ele>198.66666666666666</ele><time>2026-04-25T16:39:30.999Z</time></trkpt><trkpt lat="45.92072045299962" lon="12.139240599293013"><ele>197.0</ele><time>2026-04-25T16:39:32.999Z</time></trkpt><trkpt lat="45.92069720227532" lon="12.139118085972703"><ele>195.33333333333331</ele><time>2026-04-25T16:39:34.999Z</time></trkpt><trkpt lat="45.92067501893773" lon="12.139002220693271"><ele>193.66666666666666</ele><time>2026-04-25T16:39:36.999Z</time></trkpt><trkpt lat="45.92065195629444" lon="12.138885737505191"><ele>192.0</ele><time>2026-04-25T16:39:38.999Z</time></trkpt><trkpt lat="45.92063409889046" lon="12.13878246583735"><ele>191.99999999999997</ele><time>2026-04-25T16:39:40.999Z</time></trkpt><trkpt lat="45.920613235452855" lon="12.138671233696497"><ele>192.0</ele><time>2026-04-25T16:39:42.999Z</time></trkpt><trkpt lat="45.92059695213958" lon="12.138563322572502"><ele>192.0</ele><time>2026-04-25T16:39:44.999Z</time></trkpt><trkpt lat="45.920581023009646" lon="12.138461408691455"><ele>192.0</ele><time>2026-04-25T16:39:46.999Z</time></trkpt><trkpt lat="45.92056194838592" lon="12.138375082305705"><ele>192.0</ele><time>2026-04-25T16:39:48.999Z</time></trkpt><trkpt lat="45.92052516079931" lon="12.138300838460237"><ele>191.99999999999997</ele><time>2026-04-25T16:39:50.999Z</time></trkpt><trkpt lat="45.92049619515581" lon="12.138212726643086"><ele>192.0</ele><time>2026-04-25T16:39:52.999Z</time></trkpt><trkpt lat="45.92047882995114" lon="12.138115182727608"><ele>192.14285714285714</ele><time>2026-04-25T16:39:54.999Z</time></trkpt><trkpt lat="45.920460600390314" lon="12.138020429078242"><ele>192.28571428571428</ele><time>2026-04-25T16:39:56.999Z</time></trkpt><trkpt lat="45.920444810139614" lon="12.137927706843286"><ele>192.42857142857144</ele><time>2026-04-25T16:39:58.999Z</time></trkpt><trkpt lat="45.92042672337434" lon="12.137825940963541"><ele>192.57142857142856</ele><time>2026-04-25T16:40:00.999Z</time></trkpt><trkpt lat="45.920408444102456" lon="12.137734679014978"><ele>192.71428571428572</ele><time>2026-04-25T16:40:02.999Z</time></trkpt><trkpt lat="45.92038281854989" lon="12.137644701334878"><ele>192.85714285714286</ele><time>2026-04-25T16:40:04.999Z</time></trkpt><trkpt lat="45.92036113425532" lon="12.137559417488891"><ele>193.0</ele><time>2026-04-25T16:40:06.999Z</time></trkpt><trkpt lat="45.9203412727859" lon="12.137465380858139"><ele>194.42857142857144</ele><time>2026-04-25T16:40:08.998Z</time></trkpt><trkpt lat="45.920296962526464" lon="12.137364290473629"><ele>195.85714285714286</ele><time>2026-04-25T16:40:11.998Z</time></trkpt><trkpt lat="45.920249462013956" lon="12.137299678591514"><ele>197.28571428571428</ele><time>2026-04-25T16:40:13.998Z</time></trkpt><trkpt lat="45.92019061298059" lon="12.13725500087068"><ele>198.71428571428572</ele><time>2026-04-25T16:40:15.998Z</time></trkpt><trkpt lat="45.92013478806643" lon="12.137201283094239"><ele>200.14285714285714</ele><time>2026-04-25T16:40:17.998Z</time></trkpt><trkpt lat="45.92006225724392" lon="12.137137613437504"><ele>201.57142857142858</ele><time>2026-04-25T16:40:20.998Z</time></trkpt><trkpt lat="45.92000426167981" lon="12.137093209533337"><ele>203.0</ele><time>2026-04-25T16:40:22.998Z</time></trkpt><trkpt lat="45.919949395472955" lon="12.137044252651561"><ele>203.33333333333334</ele><time>2026-04-25T16:40:24.998Z</time></trkpt><trkpt lat="45.919869301784864" lon="12.136966371530065"><ele>203.66666666666669</ele><time>2026-04-25T16:40:27.998Z</time></trkpt><trkpt lat="45.919816871529115" lon="12.136915399131048"><ele>204.0</ele><time>2026-04-25T16:40:29.998Z</time></trkpt><trkpt lat="45.91975978269634" lon="12.136869385162653"><ele>204.33333333333331</ele><time>2026-04-25T16:40:31.998Z</time></trkpt><trkpt lat="45.91970793364322" lon="12.136813056539193"><ele>204.66666666666666</ele><time>2026-04-25T16:40:33.998Z</time></trkpt><trkpt lat="45.919626415399016" lon="12.136732127337707"><ele>205.0</ele><time>2026-04-25T16:40:36.998Z</time></trkpt><trkpt lat="45.91957894892286" lon="12.13666752868511"><ele>204.99999999999997</ele><time>2026-04-25T16:40:38.998Z</time></trkpt><trkpt lat="45.91951121425776" lon="12.136565080092605"><ele>205.0</ele><time>2026-04-25T16:40:41.998Z</time></trkpt><trkpt lat="45.91946741030231" lon="12.13649628065922"><ele>205.0</ele><time>2026-04-25T16:40:43.998Z</time></trkpt><trkpt lat="45.91942420208042" lon="12.136423835169229"><ele>205.0</ele><time>2026-04-25T16:40:45.998Z</time></trkpt><trkpt lat="45.91937258665323" lon="12.136337279751743"><ele>204.99999999999997</ele><time>2026-04-25T16:40:48.998Z</time></trkpt><trkpt lat="45.91932506386152" lon="12.136239175311049"><ele>205.0</ele><time>2026-04-25T16:40:51.998Z</time></trkpt><trkpt lat="45.919292208493005" lon="12.136160958080191"><ele>208.16666666666666</ele><time>2026-04-25T16:40:53.997Z</time></trkpt><trkpt lat="45.91926589467242" lon="12.136034576054865"><ele>211.33333333333331</ele><time>2026-04-25T16:40:56.997Z</time></trkpt><trkpt lat="45.919261706235" lon="12.135936297085147"><ele>214.5</ele><time>2026-04-25T16:40:58.997Z</time></trkpt><trkpt lat="45.919280308640246" lon="12.135807226107145"><ele>217.66666666666669</ele><time>2026-04-25T16:41:01.997Z</time></trkpt><trkpt lat="45.91927095109828" lon="12.135688031910533"><ele>220.83333333333334</ele><time>2026-04-25T16:41:04.997Z</time></trkpt><trkpt lat="45.91921135783402" lon="12.135586559197161"><ele>224.0</ele><time>2026-04-25T16:41:07.997Z</time></trkpt><trkpt lat="45.9191622012006" lon="12.135516301426597"><ele>224.83333333333334</ele><time>2026-04-25T16:41:09.997Z</time></trkpt><trkpt lat="45.919121464109494" lon="12.13540291943518"><ele>225.66666666666669</ele><time>2026-04-25T16:41:13Z</time></trkpt><trkpt lat="45.91909425816664" lon="12.135287764141244"><ele>226.5</ele><time>2026-04-25T16:41:16Z</time></trkpt><trkpt lat="45.91908192933514" lon="12.13516580027866"><ele>227.33333333333331</ele><time>2026-04-25T16:41:19Z</time></trkpt><trkpt lat="45.91908836187429" lon="12.13505386652575"><ele>228.16666666666666</ele><time>2026-04-25T16:41:22Z</time></trkpt><trkpt lat="45.91908199204846" lon="12.134952230409422"><ele>229.0</ele><time>2026-04-25T16:41:25Z</time></trkpt><trkpt lat="45.919079529271364" lon="12.134856495622294"><ele>229.14285714285714</ele><time>2026-04-25T16:41:28Z</time></trkpt><trkpt lat="45.919078073294536" lon="12.13475371937551"><ele>229.28571428571428</ele><time>2026-04-25T16:41:31Z</time></trkpt><trkpt lat="45.91907076133051" lon="12.134662379523538"><ele>229.42857142857142</ele><time>2026-04-25T16:41:34Z</time></trkpt><trkpt lat="45.91906794954524" lon="12.134569134607204"><ele>229.57142857142856</ele><time>2026-04-25T16:41:37Z</time></trkpt><trkpt lat="45.91907126876076" lon="12.13447669922646"><ele>229.71428571428572</ele><time>2026-04-25T16:41:39.999Z</time></trkpt><trkpt lat="45.9190806547332" lon="12.13436232184631"><ele>229.85714285714283</ele><time>2026-04-25T16:41:43.999Z</time></trkpt><trkpt lat="45.91908861030098" lon="12.134258470363287"><ele>229.99999999999997</ele><time>2026-04-25T16:41:48.999Z</time></trkpt><trkpt lat="45.91911282376145" lon="12.134172152126306"><ele>229.99999999999997</ele><time>2026-04-25T16:41:53.999Z</time></trkpt><trkpt lat="45.9191568370374" lon="12.134099458216413"><ele>230.0</ele><time>2026-04-25T16:41:58.999Z</time></trkpt><trkpt lat="45.919196028193646" lon="12.134027361399246"><ele>229.99999999999997</ele><time>2026-04-25T16:42:03.999Z</time></trkpt><trkpt lat="45.91923150993875" lon="12.133931771252747"><ele>229.99999999999997</ele><time>2026-04-25T16:42:09.999Z</time></trkpt><trkpt lat="45.919260056597466" lon="12.133849749049517"><ele>230.0</ele><time>2026-04-25T16:42:14.999Z</time></trkpt><trkpt lat="45.919284728555795" lon="12.133758813037502"><ele>229.99999999999997</ele><time>2026-04-25T16:42:20.999Z</time></trkpt><trkpt lat="45.91931365247012" lon="12.133658902384639"><ele>229.99999999999997</ele><time>2026-04-25T16:42:26.998Z</time></trkpt><trkpt lat="45.91934646829452" lon="12.133563096347554"><ele>230.1428571428571</ele><time>2026-04-25T16:42:32.998Z</time></trkpt><trkpt lat="45.91937483898416" lon="12.133477164026214"><ele>230.28571428571428</ele><time>2026-04-25T16:42:38.998Z</time></trkpt><trkpt lat="45.919411206336115" lon="12.133390937378818"><ele>230.42857142857142</ele><time>2026-04-25T16:42:44.998Z</time></trkpt><trkpt lat="45.9194451825937" lon="12.133307866032796"><ele>230.57142857142856</ele><time>2026-04-25T16:42:49.998Z</time></trkpt><trkpt lat="45.91948598149183" lon="12.133226111044003"><ele>230.71428571428572</ele><time>2026-04-25T16:42:54.998Z</time></trkpt><trkpt lat="45.91953298301533" lon="12.133154833949856"><ele>230.85714285714286</ele><time>2026-04-25T16:42:59.998Z</time></trkpt><trkpt lat="45.91957565944229" lon="12.133077060953628"><ele>231.0</ele><time>2026-04-25T16:43:04.998Z</time></trkpt><trkpt lat="45.919636619644486" lon="12.133018000161748"><ele>231.0</ele><time>2026-04-25T16:43:10.997Z</time></trkpt><trkpt lat="45.9197001353087" lon="12.132968824096064"><ele>231.0</ele><time>2026-04-25T16:43:15.997Z</time></trkpt><trkpt lat="45.919752301202124" lon="12.132918092610666"><ele>231.0</ele><time>2026-04-25T16:43:21Z</time></trkpt><trkpt lat="45.919810832285755" lon="12.132850722489609"><ele>231.0</ele><time>2026-04-25T16:43:27Z</time></trkpt><trkpt lat="45.91984664536436" lon="12.1327741773062"><ele>231.0</ele><time>2026-04-25T16:43:32Z</time></trkpt><trkpt lat="45.9198553817281" lon="12.132682664677112"><ele>231.0</ele><time>2026-04-25T16:43:37Z</time></trkpt><trkpt lat="45.91985845238292" lon="12.132585597857517"><ele>231.0</ele><time>2026-04-25T16:43:42Z</time></trkpt><trkpt lat="45.91982742481905" lon="12.132502077444908"><ele>231.0</ele><time>2026-04-25T16:43:47Z</time></trkpt><trkpt lat="45.91975646148141" lon="12.132485316107354"><ele>231.0</ele><time>2026-04-25T16:43:53Z</time></trkpt><trkpt lat="45.919696269438774" lon="12.132540054656182"><ele>231.0</ele><time>2026-04-25T16:43:59Z</time></trkpt><trkpt lat="45.919633862813036" lon="12.13260294773444"><ele>231.0</ele><time>2026-04-25T16:44:04.999Z</time></trkpt><trkpt lat="45.91957865785994" lon="12.132656224030912"><ele>231.0</ele><time>2026-04-25T16:44:10.999Z</time></trkpt><trkpt lat="45.91950581050822" lon="12.132694950958811"><ele>231.0</ele><time>2026-04-25T16:44:16.999Z</time></trkpt><trkpt lat="45.9194332285267" lon="12.132666402062325"><ele>231.0</ele><time>2026-04-25T16:44:22.999Z</time></trkpt><trkpt lat="45.91940907912267" lon="12.132577790726023"><ele>231.0</ele><time>2026-04-25T16:44:27.999Z</time></trkpt><trkpt lat="45.91940883965588" lon="12.132478004069725"><ele>231.0</ele><time>2026-04-25T16:44:33.999Z</time></trkpt><trkpt lat="45.91943209656126" lon="12.132388147208042"><ele>231.0</ele><time>2026-04-25T16:44:38.999Z</time></trkpt><trkpt lat="45.91945808772533" lon="12.132302000878525"><ele>231.0</ele><time>2026-04-25T16:44:43.999Z</time></trkpt><trkpt lat="45.919510061641944" lon="12.1322329479139"><ele>231.0</ele><time>2026-04-25T16:44:49.998Z</time></trkpt><trkpt lat="45.91957234369592" lon="12.132199143390546"><ele>231.0</ele><time>2026-04-25T16:44:54.998Z</time></trkpt><trkpt lat="45.919629833180934" lon="12.132156410679563"><ele>231.0</ele><time>2026-04-25T16:44:59.998Z</time></trkpt><trkpt lat="45.91967249467288" lon="12.132084323646838"><ele>232.0</ele><time>2026-04-25T16:45:04.998Z</time></trkpt><trkpt lat="45.919674461958834" lon="12.131989536689929"><ele>233.0</ele><time>2026-04-25T16:45:09.998Z</time></trkpt><trkpt lat="45.919671703044536" lon="12.131893626609926"><ele>234.0</ele><time>2026-04-25T16:45:14.998Z</time></trkpt><trkpt lat="45.919663002326814" lon="12.131797544907378"><ele>235.0</ele><time>2026-04-25T16:45:19.998Z</time></trkpt><trkpt lat="45.9196514799471" lon="12.131701549209643"><ele>236.0</ele><time>2026-04-25T16:45:25Z</time></trkpt><trkpt lat="45.91963970024324" lon="12.131611959430412"><ele>237.0</ele><time>2026-04-25T16:45:30Z</time></trkpt><trkpt lat="45.919606429322464" lon="12.131525007511494"><ele>238.0</ele><time>2026-04-25T16:45:35Z</time></trkpt><trkpt lat="45.919559428751896" lon="12.131461463026396"><ele>239.57142857142856</ele><time>2026-04-25T16:45:39Z</time></trkpt><trkpt lat="45.91949285821499" lon="12.131421941973926"><ele>241.14285714285714</ele><time>2026-04-25T16:45:44Z</time></trkpt><trkpt lat="45.91942746165437" lon="12.131395031554993"><ele>242.71428571428572</ele><time>2026-04-25T16:45:49Z</time></trkpt><trkpt lat="45.91936507540212" lon="12.131353469593128"><ele>244.28571428571428</ele><time>2026-04-25T16:45:54Z</time></trkpt><trkpt lat="45.91931234433529" lon="12.131290944244537"><ele>245.85714285714283</ele><time>2026-04-25T16:45:59Z</time></trkpt><trkpt lat="45.91930122865049" lon="12.131189420250532"><ele>247.42857142857142</ele><time>2026-04-25T16:46:04Z</time></trkpt><trkpt lat="45.91931450431274" lon="12.131084019801648"><ele>249.0</ele><time>2026-04-25T16:46:09Z</time></trkpt><trkpt lat="45.91933273938819" lon="12.130986901226146"><ele>249.0</ele><time>2026-04-25T16:46:14Z</time></trkpt><trkpt lat="45.91933707295138" lon="12.130865993530172"><ele>248.99999999999997</ele><time>2026-04-25T16:46:18.998Z</time></trkpt><trkpt lat="45.919324297495365" lon="12.130765535296833"><ele>249.0</ele><time>2026-04-25T16:46:24.998Z</time></trkpt><trkpt lat="45.91927715160106" lon="12.13069494351489"><ele>249.0</ele><time>2026-04-25T16:46:29.998Z</time></trkpt><trkpt lat="45.91923504943457" lon="12.130620990227259"><ele>248.99999999999997</ele><time>2026-04-25T16:46:34.998Z</time></trkpt><trkpt lat="45.91919325550754" lon="12.130536256553693"><ele>249.0</ele><time>2026-04-25T16:46:40.998Z</time></trkpt><trkpt lat="45.919168509903066" lon="12.130433005015227"><ele>249.0</ele><time>2026-04-25T16:46:46.998Z</time></trkpt><trkpt lat="45.91915992847108" lon="12.130339993129578"><ele>253.0</ele><time>2026-04-25T16:46:51.998Z</time></trkpt><trkpt lat="45.9191313630652" lon="12.13025815516907"><ele>257.0</ele><time>2026-04-25T16:46:56.998Z</time></trkpt><trkpt lat="45.91907649740622" lon="12.130209385533256"><ele>261.0</ele><time>2026-04-25T16:47:01.997Z</time></trkpt><trkpt lat="45.91901697111038" lon="12.130272022523084"><ele>265.0</ele><time>2026-04-25T16:47:07.997Z</time></trkpt><trkpt lat="45.91898396171507" lon="12.13035737393419"><ele>269.0</ele><time>2026-04-25T16:47:12.997Z</time></trkpt><trkpt lat="45.91895731158538" lon="12.130452061048128"><ele>273.0</ele><time>2026-04-25T16:47:17.997Z</time></trkpt><trkpt lat="45.918950377434165" lon="12.130561462434708"><ele>277.0</ele><time>2026-04-25T16:47:22.997Z</time></trkpt><trkpt lat="45.91895937524374" lon="12.130666891701987"><ele>276.2857142857143</ele><time>2026-04-25T16:47:27.997Z</time></trkpt><trkpt lat="45.918962213782514" lon="12.130763904445551"><ele>275.57142857142856</ele><time>2026-04-25T16:47:32Z</time></trkpt><trkpt lat="45.918968580766524" lon="12.13086911959339"><ele>274.85714285714283</ele><time>2026-04-25T16:47:36Z</time></trkpt><trkpt lat="45.91897435281235" lon="12.130960751027514"><ele>274.1428571428571</ele><time>2026-04-25T16:47:40Z</time></trkpt><trkpt lat="45.91898710253738" lon="12.13106275937222"><ele>273.42857142857144</ele><time>2026-04-25T16:47:44Z</time></trkpt><trkpt lat="45.919006238251825" lon="12.131162251858074"><ele>272.71428571428567</ele><time>2026-04-25T16:47:48Z</time></trkpt><trkpt lat="45.919041054017534" lon="12.131255058297445"><ele>272.0</ele><time>2026-04-25T16:47:51.999Z</time></trkpt><trkpt lat="45.91908252669944" lon="12.131349839858022"><ele>271.99999999999994</ele><time>2026-04-25T16:47:55.999Z</time></trkpt><trkpt lat="45.91910650606848" lon="12.131446740979651"><ele>272.0</ele><time>2026-04-25T16:47:59.999Z</time></trkpt><trkpt lat="45.919112272043414" lon="12.131542847574723"><ele>272.0</ele><time>2026-04-25T16:48:02.999Z</time></trkpt><trkpt lat="45.919086345736496" lon="12.131637461158519"><ele>272.0</ele><time>2026-04-25T16:48:06.999Z</time></trkpt><trkpt lat="45.919024052739886" lon="12.13167778477646"><ele>272.0</ele><time>2026-04-25T16:48:10.999Z</time></trkpt><trkpt lat="45.91896893204659" lon="12.13162573856782"><ele>271.99999999999994</ele><time>2026-04-25T16:48:14.999Z</time></trkpt><trkpt lat="45.918946289719024" lon="12.131511704841305"><ele>272.0</ele><time>2026-04-25T16:48:19.999Z</time></trkpt><trkpt lat="45.91893945482408" lon="12.131415476896677"><ele>271.99999999999994</ele><time>2026-04-25T16:48:23.999Z</time></trkpt><trkpt lat="45.91890436466076" lon="12.13132266260696"><ele>272.0</ele><time>2026-04-25T16:48:27.999Z</time></trkpt><trkpt lat="45.91885982278217" lon="12.131236801329765"><ele>272.0</ele><time>2026-04-25T16:48:31.999Z</time></trkpt><trkpt lat="45.918814054141286" lon="12.131159633823282"><ele>272.0</ele><time>2026-04-25T16:48:35.998Z</time></trkpt><trkpt lat="45.9187722754561" lon="12.131088927489724"><ele>272.0</ele><time>2026-04-25T16:48:39.998Z</time></trkpt><trkpt lat="45.918722648913025" lon="12.131019393229133"><ele>271.99999999999994</ele><time>2026-04-25T16:48:43.998Z</time></trkpt><trkpt lat="45.918683339612805" lon="12.130939713153445"><ele>272.0</ele><time>2026-04-25T16:48:47.998Z</time></trkpt><trkpt lat="45.918656139047876" lon="12.130849928195527"><ele>271.99999999999994</ele><time>2026-04-25T16:48:51.998Z</time></trkpt><trkpt lat="45.918643808250415" lon="12.130749410210617"><ele>272.0</ele><time>2026-04-25T16:48:55.998Z</time></trkpt><trkpt lat="45.91863682112225" lon="12.130652003295735"><ele>272.0</ele><time>2026-04-25T16:48:59.998Z</time></trkpt><trkpt lat="45.91863944241712" lon="12.130556175509676"><ele>272.0</ele><time>2026-04-25T16:49:03.998Z</time></trkpt><trkpt lat="45.91863636018399" lon="12.130464904803016"><ele>272.0</ele><time>2026-04-25T16:49:07.998Z</time></trkpt><trkpt lat="45.91864008861269" lon="12.13035512517935"><ele>271.99999999999994</ele><time>2026-04-25T16:49:12.998Z</time></trkpt><trkpt lat="45.918647721319196" lon="12.130257361517705"><ele>272.0</ele><time>2026-04-25T16:49:17.998Z</time></trkpt><trkpt lat="45.918651765673985" lon="12.130166637082928"><ele>272.71428571428567</ele><time>2026-04-25T16:49:21.997Z</time></trkpt><trkpt lat="45.91867030078348" lon="12.130073632093008"><ele>273.42857142857144</ele><time>2026-04-25T16:49:25.997Z</time></trkpt><trkpt lat="45.91868720565488" lon="12.129965335435868"><ele>274.1428571428571</ele><time>2026-04-25T16:49:30.997Z</time></trkpt><trkpt lat="45.91870034952603" lon="12.129870314386674"><ele>274.85714285714283</ele><time>2026-04-25T16:49:35.997Z</time></trkpt><trkpt lat="45.91869757011857" lon="12.129777764669987"><ele>275.57142857142856</ele><time>2026-04-25T16:49:41Z</time></trkpt><trkpt lat="45.91869072026807" lon="12.129685610815308"><ele>276.2857142857143</ele><time>2026-04-25T16:49:46Z</time></trkpt><trkpt lat="45.918680488371706" lon="12.129596250668042"><ele>277.0</ele><time>2026-04-25T16:49:51Z</time></trkpt><trkpt lat="45.91865295654369" lon="12.129502101952022"><ele>278.57142857142856</ele><time>2026-04-25T16:49:56Z</time></trkpt><trkpt lat="45.91863586472136" lon="12.129403431757595"><ele>280.1428571428571</ele><time>2026-04-25T16:50:01Z</time></trkpt><trkpt lat="45.91862073039108" lon="12.129300459543451"><ele>281.7142857142857</ele><time>2026-04-25T16:50:06Z</time></trkpt><trkpt lat="45.918611508397866" lon="12.129196424165166"><ele>283.2857142857143</ele><time>2026-04-25T16:50:11Z</time></trkpt><trkpt lat="45.91861628750638" lon="12.12910277801548"><ele>284.8571428571429</ele><time>2026-04-25T16:50:15.999Z</time></trkpt><trkpt lat="45.91861117832137" lon="12.12900380987077"><ele>286.42857142857144</ele><time>2026-04-25T16:50:21.999Z</time></trkpt><trkpt lat="45.91860429363887" lon="12.12890108276846"><ele>288.0</ele><time>2026-04-25T16:50:26.999Z</time></trkpt><trkpt lat="45.918595022900064" lon="12.128811217237535"><ele>290.14285714285717</ele><time>2026-04-25T16:50:30.999Z</time></trkpt><trkpt lat="45.91859624479165" lon="12.128707241133627"><ele>292.2857142857143</ele><time>2026-04-25T16:50:35.999Z</time></trkpt><trkpt lat="45.91861419781289" lon="12.128602398118929"><ele>294.42857142857144</ele><time>2026-04-25T16:50:40.999Z</time></trkpt><trkpt lat="45.91863183927343" lon="12.128496018404752"><ele>296.57142857142856</ele><time>2026-04-25T16:50:45.999Z</time></trkpt><trkpt lat="45.918647374528526" lon="12.128392133029456"><ele>298.7142857142857</ele><time>2026-04-25T16:50:50.999Z</time></trkpt><trkpt lat="45.91865415517496" lon="12.128290900447782"><ele>300.8571428571429</ele><time>2026-04-25T16:50:55.999Z</time></trkpt><trkpt lat="45.918678540056135" lon="12.128192273700394"><ele>303.0</ele><time>2026-04-25T16:51:00.998Z</time></trkpt><trkpt lat="45.91869805184407" lon="12.128103347912452"><ele>303.1666666666667</ele><time>2026-04-25T16:51:04.998Z</time></trkpt><trkpt lat="45.91873548992884" lon="12.127995421622195"><ele>303.3333333333333</ele><time>2026-04-25T16:51:08.998Z</time></trkpt><trkpt lat="45.918801910046554" lon="12.127895623334256"><ele>303.5</ele><time>2026-04-25T16:51:11.998Z</time></trkpt><trkpt lat="45.91884888262615" lon="12.127832572074345"><ele>303.66666666666663</ele><time>2026-04-25T16:51:13.998Z</time></trkpt><trkpt lat="45.91891077262362" lon="12.127737103242167"><ele>303.8333333333333</ele><time>2026-04-25T16:51:16.998Z</time></trkpt><trkpt lat="45.91896522124906" lon="12.127627468463327"><ele>304.0</ele><time>2026-04-25T16:51:19.998Z</time></trkpt><trkpt lat="45.9190108488564" lon="12.127562053963807"><ele>304.0</ele><time>2026-04-25T16:51:21.998Z</time></trkpt><trkpt lat="45.91908358076548" lon="12.127524207783473"><ele>304.0</ele><time>2026-04-25T16:51:23.998Z</time></trkpt><trkpt lat="45.9192023682678" lon="12.127546314563505"><ele>304.0</ele><time>2026-04-25T16:51:25.998Z</time></trkpt><trkpt lat="45.919323395301774" lon="12.127595498174985"><ele>304.0</ele><time>2026-04-25T16:51:27.998Z</time></trkpt><trkpt lat="45.91938647264278" lon="12.127613357498584"><ele>304.0</ele><time>2026-04-25T16:51:28.998Z</time></trkpt><trkpt lat="45.91950910214947" lon="12.12765366737914"><ele>305.0</ele><time>2026-04-25T16:51:30.998Z</time></trkpt><trkpt lat="45.91960703979435" lon="12.1277344540396"><ele>306.0</ele><time>2026-04-25T16:51:32.998Z</time></trkpt><trkpt lat="45.9197042556309" lon="12.127767845284898"><ele>307.0</ele><time>2026-04-25T16:51:34.998Z</time></trkpt><trkpt lat="45.91978970622902" lon="12.12778691457324"><ele>308.0</ele><time>2026-04-25T16:51:36.998Z</time></trkpt><trkpt lat="45.91986193159902" lon="12.127752841872388"><ele>309.0</ele><time>2026-04-25T16:51:38.998Z</time></trkpt><trkpt lat="45.91994159354567" lon="12.12770913824425"><ele>309.00000000000006</ele><time>2026-04-25T16:51:43Z</time></trkpt><trkpt lat="45.92001662799176" lon="12.12765549591853"><ele>309.0</ele><time>2026-04-25T16:51:47Z</time></trkpt><trkpt lat="45.920076990149504" lon="12.127608948328861"><ele>309.0</ele><time>2026-04-25T16:51:51Z</time></trkpt><trkpt lat="45.920139018252726" lon="12.127554706181218"><ele>309.0</ele><time>2026-04-25T16:51:55Z</time></trkpt><trkpt lat="45.9201942676568" lon="12.1275030345664"><ele>309.0</ele><time>2026-04-25T16:51:59Z</time></trkpt><trkpt lat="45.92025942446725" lon="12.12749108453921"><ele>309.00000000000006</ele><time>2026-04-25T16:52:05Z</time></trkpt><trkpt lat="45.9202950249916" lon="12.127600587619566"><ele>309.0</ele><time>2026-04-25T16:52:10Z</time></trkpt><trkpt lat="45.92041919353763" lon="12.127579682328669"><ele>312.5714285714286</ele><time>2026-04-25T16:52:17Z</time></trkpt><trkpt lat="45.92045183621785" lon="12.127497488456333"><ele>316.14285714285717</ele><time>2026-04-25T16:52:20Z</time></trkpt><trkpt lat="45.9204274226071" lon="12.1274028760531"><ele>319.7142857142857</ele><time>2026-04-25T16:52:23Z</time></trkpt><trkpt lat="45.920460025492105" lon="12.127323100611656"><ele>323.28571428571433</ele><time>2026-04-25T16:52:26.999Z</time></trkpt><trkpt lat="45.92048909272074" lon="12.127241542316256"><ele>326.8571428571429</ele><time>2026-04-25T16:52:30.999Z</time></trkpt><trkpt lat="45.92052908137165" lon="12.127150710592094"><ele>330.42857142857144</ele><time>2026-04-25T16:52:35.999Z</time></trkpt><trkpt lat="45.92059931642697" lon="12.127128609708171"><ele>334.0</ele><time>2026-04-25T16:52:40.999Z</time></trkpt><trkpt lat="45.92062447010018" lon="12.127213984535409"><ele>334.0</ele><time>2026-04-25T16:52:44.999Z</time></trkpt><trkpt lat="45.920641207199765" lon="12.127319496113902"><ele>334.0</ele><time>2026-04-25T16:52:49.999Z</time></trkpt><trkpt lat="45.92069811705926" lon="12.127393374924374"><ele>334.0</ele><time>2026-04-25T16:52:54.999Z</time></trkpt><trkpt lat="45.92076860979786" lon="12.12740129923972"><ele>334.0</ele><time>2026-04-25T16:52:59.999Z</time></trkpt><trkpt lat="45.92080662843331" lon="12.127301491791567"><ele>334.0</ele><time>2026-04-25T16:53:04.999Z</time></trkpt><trkpt lat="45.92079780392839" lon="12.127182900016956"><ele>334.0</ele><time>2026-04-25T16:53:08.999Z</time></trkpt><trkpt lat="45.92080744699508" lon="12.127068162525664"><ele>334.0</ele><time>2026-04-25T16:53:12.998Z</time></trkpt><trkpt lat="45.920826953682386" lon="12.12696697520698"><ele>334.0</ele><time>2026-04-25T16:53:16.998Z</time></trkpt><trkpt lat="45.920844273789655" lon="12.126868070812764"><ele>334.0</ele><time>2026-04-25T16:53:20.998Z</time></trkpt><trkpt lat="45.92085323770232" lon="12.126765689410378"><ele>334.0</ele><time>2026-04-25T16:53:24.998Z</time></trkpt><trkpt lat="45.92086723303173" lon="12.126666121731821"><ele>334.0</ele><time>2026-04-25T16:53:28.998Z</time></trkpt><trkpt lat="45.92088784463419" lon="12.126570610351072"><ele>334.0</ele><time>2026-04-25T16:53:32.998Z</time></trkpt><trkpt lat="45.92092175866349" lon="12.1264746439567"><ele>334.0</ele><time>2026-04-25T16:53:36.998Z</time></trkpt><trkpt lat="45.9209633231156" lon="12.126385726353268"><ele>334.7142857142857</ele><time>2026-04-25T16:53:40.998Z</time></trkpt><trkpt lat="45.92099000739582" lon="12.126293153730431"><ele>335.42857142857144</ele><time>2026-04-25T16:53:44.998Z</time></trkpt><trkpt lat="45.921007410073315" lon="12.126180000273425"><ele>336.1428571428571</ele><time>2026-04-25T16:53:49Z</time></trkpt><trkpt lat="45.92103030895194" lon="12.126066703583543"><ele>336.8571428571429</ele><time>2026-04-25T16:53:53Z</time></trkpt><trkpt lat="45.92104553622441" lon="12.125976048654525"><ele>337.5714285714286</ele><time>2026-04-25T16:53:56Z</time></trkpt><trkpt lat="45.92107042414652" lon="12.125885463240632"><ele>338.2857142857143</ele><time>2026-04-25T16:53:59Z</time></trkpt><trkpt lat="45.92109556788144" lon="12.125796002586466"><ele>339.0</ele><time>2026-04-25T16:54:02Z</time></trkpt><trkpt lat="45.92112473596989" lon="12.125683677320964"><ele>339.0</ele><time>2026-04-25T16:54:06Z</time></trkpt><trkpt lat="45.921141886557116" lon="12.12558994746314"><ele>339.0</ele><time>2026-04-25T16:54:09Z</time></trkpt><trkpt lat="45.921155292297975" lon="12.125484173065335"><ele>339.0</ele><time>2026-04-25T16:54:12Z</time></trkpt><trkpt lat="45.92120925353603" lon="12.1253735758769"><ele>339.0</ele><time>2026-04-25T16:54:15Z</time></trkpt><trkpt lat="45.92126204091174" lon="12.125313378449063"><ele>339.0</ele><time>2026-04-25T16:54:16.999Z</time></trkpt><trkpt lat="45.921328633639355" lon="12.125273711760302"><ele>339.0</ele><time>2026-04-25T16:54:18.999Z</time></trkpt><trkpt lat="45.92140563259057" lon="12.12526432752839"><ele>339.0</ele><time>2026-04-25T16:54:20.999Z</time></trkpt><trkpt lat="45.92147754423885" lon="12.125293484475522"><ele>339.0</ele><time>2026-04-25T16:54:22.999Z</time></trkpt><trkpt lat="45.92154070850582" lon="12.125354945115884"><ele>339.0</ele><time>2026-04-25T16:54:24.999Z</time></trkpt><trkpt lat="45.921594397362355" lon="12.125431299732696"><ele>339.0</ele><time>2026-04-25T16:54:26.999Z</time></trkpt><trkpt lat="45.9216612707494" lon="12.125521488734599"><ele>339.0</ele><time>2026-04-25T16:54:29.999Z</time></trkpt><trkpt lat="45.92173394763294" lon="12.125523684236434"><ele>339.0</ele><time>2026-04-25T16:54:31.999Z</time></trkpt><trkpt lat="45.92180122767763" lon="12.125435536953354"><ele>343.6666666666667</ele><time>2026-04-25T16:54:34.999Z</time></trkpt><trkpt lat="45.92182586122907" lon="12.125319891435097"><ele>348.3333333333333</ele><time>2026-04-25T16:54:36.999Z</time></trkpt><trkpt lat="45.92182489241189" lon="12.125225971434674"><ele>353.0</ele><time>2026-04-25T16:54:38.999Z</time></trkpt><trkpt lat="45.92185197467924" lon="12.125089496874995"><ele>357.66666666666663</ele><time>2026-04-25T16:54:41.998Z</time></trkpt><trkpt lat="45.9218966903169" lon="12.124994753518639"><ele>362.3333333333333</ele><time>2026-04-25T16:54:43.998Z</time></trkpt><trkpt lat="45.9219592170637" lon="12.124935378250912"><ele>367.0</ele><time>2026-04-25T16:54:45.998Z</time></trkpt><trkpt lat="45.92204102121601" lon="12.124944382730993"><ele>367.0</ele><time>2026-04-25T16:54:47.998Z</time></trkpt><trkpt lat="45.922120989595086" lon="12.124959014119097"><ele>367.0</ele><time>2026-04-25T16:54:49.998Z</time></trkpt><trkpt lat="45.92227620880747" lon="12.124874346213682"><ele>367.0</ele><time>2026-04-25T16:54:54.998Z</time></trkpt><trkpt lat="45.92232776543202" lon="12.12477258714504"><ele>367.0</ele><time>2026-04-25T16:54:56.998Z</time></trkpt><trkpt lat="45.92232826065301" lon="12.124643861221443"><ele>367.0</ele><time>2026-04-25T16:54:58.998Z</time></trkpt><trkpt lat="45.92231552432784" lon="12.124524220950214"><ele>366.5</ele><time>2026-04-25T16:55:00.998Z</time></trkpt><trkpt lat="45.92229648429461" lon="12.124409053793308"><ele>366.0</ele><time>2026-04-25T16:55:02.998Z</time></trkpt><trkpt lat="45.92227817638546" lon="12.124300678207582"><ele>365.5</ele><time>2026-04-25T16:55:04.998Z</time></trkpt><trkpt lat="45.92226628379614" lon="12.124193252622751"><ele>365.0</ele><time>2026-04-25T16:55:06.998Z</time></trkpt><trkpt lat="45.922260715682945" lon="12.124086707828013"><ele>364.5</ele><time>2026-04-25T16:55:08.998Z</time></trkpt><trkpt lat="45.922257688330056" lon="12.12397653387945"><ele>364.0</ele><time>2026-04-25T16:55:10.998Z</time></trkpt><trkpt lat="45.92225575403473" lon="12.123865646999542"><ele>365.0</ele><time>2026-04-25T16:55:12.998Z</time></trkpt><trkpt lat="45.92225686841183" lon="12.123758666765784"><ele>366.0</ele><time>2026-04-25T16:55:14.998Z</time></trkpt><trkpt lat="45.922255681682095" lon="12.123660666218846"><ele>367.0</ele><time>2026-04-25T16:55:16.998Z</time></trkpt><trkpt lat="45.92224593579575" lon="12.123553500515381"><ele>368.0</ele><time>2026-04-25T16:55:18.998Z</time></trkpt><trkpt lat="45.92222710272014" lon="12.123448466278138"><ele>369.0</ele><time>2026-04-25T16:55:20.998Z</time></trkpt><trkpt lat="45.92220464712071" lon="12.123352055470246"><ele>370.0</ele><time>2026-04-25T16:55:22.998Z</time></trkpt><trkpt lat="45.92217575820919" lon="12.123261547316126"><ele>371.0</ele><time>2026-04-25T16:55:24.998Z</time></trkpt><trkpt lat="45.92214405424901" lon="12.123170685731537"><ele>373.1666666666667</ele><time>2026-04-25T16:55:26.997Z</time></trkpt><trkpt lat="45.922108463508565" lon="12.123085714892236"><ele>375.33333333333337</ele><time>2026-04-25T16:55:28.997Z</time></trkpt><trkpt lat="45.922067258714954" lon="12.122999677978818"><ele>377.5</ele><time>2026-04-25T16:55:30.997Z</time></trkpt><trkpt lat="45.92200928225308" lon="12.122911609289604"><ele>379.6666666666667</ele><time>2026-04-25T16:55:32.997Z</time></trkpt><trkpt lat="45.92194671901337" lon="12.122841382908112"><ele>381.8333333333333</ele><time>2026-04-25T16:55:34.997Z</time></trkpt><trkpt lat="45.9218855179037" lon="12.12278030711411"><ele>384.0</ele><time>2026-04-25T16:55:36.997Z</time></trkpt><trkpt lat="45.921826783378194" lon="12.122721692882642"><ele>384.0</ele><time>2026-04-25T16:55:38.997Z</time></trkpt><trkpt lat="45.92177477307288" lon="12.122661202892656"><ele>384.0</ele><time>2026-04-25T16:55:40.997Z</time></trkpt><trkpt lat="45.92172959357847" lon="12.1225916501002"><ele>384.0</ele><time>2026-04-25T16:55:42.997Z</time></trkpt><trkpt lat="45.9216827982929" lon="12.122483203204176"><ele>384.0</ele><time>2026-04-25T16:55:45.997Z</time></trkpt><trkpt lat="45.92163577609346" lon="12.122385882556467"><ele>384.0</ele><time>2026-04-25T16:55:48.997Z</time></trkpt><trkpt lat="45.92155003959587" lon="12.122326101831508"><ele>384.0</ele><time>2026-04-25T16:55:50.997Z</time></trkpt><trkpt lat="45.92147783748349" lon="12.122420204995418"><ele>385.5</ele><time>2026-04-25T16:55:51.997Z</time></trkpt><trkpt lat="45.92141736467045" lon="12.12233921697997"><ele>387.0</ele><time>2026-04-25T16:55:55Z</time></trkpt><trkpt lat="45.921349316079784" lon="12.122256488180621"><ele>388.5</ele><time>2026-04-25T16:55:58Z</time></trkpt><trkpt lat="45.92129145444097" lon="12.122192031639672"><ele>390.0</ele><time>2026-04-25T16:56:01Z</time></trkpt><trkpt lat="45.921233887866826" lon="12.12212064322993"><ele>391.5</ele><time>2026-04-25T16:56:04Z</time></trkpt><trkpt lat="45.92123015952401" lon="12.121960442002724"><ele>393.0</ele><time>2026-04-25T16:56:07Z</time></trkpt><trkpt lat="45.92116938527087" lon="12.121871226249137"><ele>393.0</ele><time>2026-04-25T16:56:10Z</time></trkpt><trkpt lat="45.921113957043076" lon="12.12178138046833"><ele>393.0</ele><time>2026-04-25T16:56:13Z</time></trkpt><trkpt lat="45.92105394232613" lon="12.121686972135887"><ele>393.0</ele><time>2026-04-25T16:56:16Z</time></trkpt><trkpt lat="45.920994567877905" lon="12.12160468080272"><ele>393.0</ele><time>2026-04-25T16:56:18.999Z</time></trkpt><trkpt lat="45.92092337835356" lon="12.121506013443572"><ele>393.0</ele><time>2026-04-25T16:56:22.999Z</time></trkpt><trkpt lat="45.92093699068917" lon="12.121391354614133"><ele>393.0</ele><time>2026-04-25T16:56:25.999Z</time></trkpt><trkpt lat="45.920932014773726" lon="12.121289133718731"><ele>393.59999999999997</ele><time>2026-04-25T16:56:27.999Z</time></trkpt><trkpt lat="45.920931099605724" lon="12.121163260286894"><ele>394.2</ele><time>2026-04-25T16:56:29.999Z</time></trkpt><trkpt lat="45.920934814434816" lon="12.121024793843292"><ele>394.8</ele><time>2026-04-25T16:56:31.999Z</time></trkpt><trkpt lat="45.92093942206396" lon="12.120887979454126"><ele>395.4</ele><time>2026-04-25T16:56:33.999Z</time></trkpt><trkpt lat="45.92094304047756" lon="12.120753294072253"><ele>396.0</ele><time>2026-04-25T16:56:35.999Z</time></trkpt><trkpt lat="45.92095143277413" lon="12.120619572627"><ele>396.0</ele><time>2026-04-25T16:56:37.999Z</time></trkpt><trkpt lat="45.92097440491723" lon="12.12049242804643"><ele>396.0</ele><time>2026-04-25T16:56:39.999Z</time></trkpt><trkpt lat="45.92100772124618" lon="12.120343036859074"><ele>396.0</ele><time>2026-04-25T16:56:41.999Z</time></trkpt><trkpt lat="45.92103177042052" lon="12.120188470790367"><ele>396.0</ele><time>2026-04-25T16:56:43.999Z</time></trkpt><trkpt lat="45.92107464036458" lon="12.120053185795346"><ele>396.0</ele><time>2026-04-25T16:56:45.999Z</time></trkpt><trkpt lat="45.92110939994687" lon="12.119920696204193"><ele>392.6</ele><time>2026-04-25T16:56:47.999Z</time></trkpt><trkpt lat="45.92115099008785" lon="12.119797074473242"><ele>389.20000000000005</ele><time>2026-04-25T16:56:49.999Z</time></trkpt><trkpt lat="45.92120142931401" lon="12.11966587019174"><ele>385.79999999999995</ele><time>2026-04-25T16:56:51.999Z</time></trkpt><trkpt lat="45.921248433778395" lon="12.11954367925446"><ele>382.4</ele><time>2026-04-25T16:56:53.999Z</time></trkpt><trkpt lat="45.92125192645129" lon="12.119393108749634"><ele>379.0</ele><time>2026-04-25T16:56:55.999Z</time></trkpt><trkpt lat="45.921247558521834" lon="12.11925406105727"><ele>379.0</ele><time>2026-04-25T16:56:57.999Z</time></trkpt><trkpt lat="45.92123545722866" lon="12.119105537337726"><ele>379.0</ele><time>2026-04-25T16:56:59.999Z</time></trkpt><trkpt lat="45.921196954283296" lon="12.118972638864264"><ele>379.0</ele><time>2026-04-25T16:57:01.998Z</time></trkpt><trkpt lat="45.921176327253235" lon="12.11885123043932"><ele>379.0</ele><time>2026-04-25T16:57:03.998Z</time></trkpt><trkpt lat="45.921183533264134" lon="12.118706364890583"><ele>379.0</ele><time>2026-04-25T16:57:05.998Z</time></trkpt><trkpt lat="45.92120225537552" lon="12.118576400420894"><ele>374.75</ele><time>2026-04-25T16:57:07.998Z</time></trkpt><trkpt lat="45.921231476372014" lon="12.11841546107704"><ele>370.5</ele><time>2026-04-25T16:57:09.998Z</time></trkpt><trkpt lat="45.921256866688076" lon="12.118244731357445"><ele>366.25</ele><time>2026-04-25T16:57:11.998Z</time></trkpt><trkpt lat="45.9212621790303" lon="12.1180815549224"><ele>362.0</ele><time>2026-04-25T16:57:13.998Z</time></trkpt><trkpt lat="45.921287021166215" lon="12.11791627136952"><ele>362.20000000000005</ele><time>2026-04-25T16:57:15.998Z</time></trkpt><trkpt lat="45.92128993691008" lon="12.117766770910857"><ele>362.4</ele><time>2026-04-25T16:57:17.998Z</time></trkpt><trkpt lat="45.921283038885356" lon="12.117613845008472"><ele>362.6</ele><time>2026-04-25T16:57:19.998Z</time></trkpt><trkpt lat="45.92129583614042" lon="12.117514398598635"><ele>362.79999999999995</ele><time>2026-04-25T16:57:20.998Z</time></trkpt><trkpt lat="45.92127221833952" lon="12.117380888925405"><ele>363.0</ele><time>2026-04-25T16:57:22.998Z</time></trkpt><trkpt lat="45.92124146143123" lon="12.117270823890648"><ele>363.0</ele><time>2026-04-25T16:57:25.998Z</time></trkpt><trkpt lat="45.921213607101215" lon="12.117169148618398"><ele>363.0</ele><time>2026-04-25T16:57:28.998Z</time></trkpt><trkpt lat="45.921186131943365" lon="12.117076295542773"><ele>363.0</ele><time>2026-04-25T16:57:31.998Z</time></trkpt><trkpt lat="45.921154210640964" lon="12.116968416273624"><ele>363.0</ele><time>2026-04-25T16:57:34.998Z</time></trkpt><trkpt lat="45.92112063300259" lon="12.11685493844109"><ele>363.0</ele><time>2026-04-25T16:57:37.998Z</time></trkpt><trkpt lat="45.92090067603921" lon="12.116945156873742"><ele>364.6666666666667</ele><time>2026-04-25T16:57:39.998Z</time></trkpt><trkpt lat="45.920820139396064" lon="12.116964735421016"><ele>366.3333333333333</ele><time>2026-04-25T16:57:41.998Z</time></trkpt><trkpt lat="45.92075527679219" lon="12.117011573946327"><ele>368.0</ele><time>2026-04-25T16:57:44.997Z</time></trkpt><trkpt lat="45.92066871886183" lon="12.116983725929874"><ele>369.66666666666663</ele><time>2026-04-25T16:57:47.997Z</time></trkpt><trkpt lat="45.92057287364238" lon="12.116952782128397"><ele>371.3333333333333</ele><time>2026-04-25T16:57:50.997Z</time></trkpt><trkpt lat="45.92047581362066" lon="12.116943517239987"><ele>373.0</ele><time>2026-04-25T16:57:52.997Z</time></trkpt><trkpt lat="45.92038588006959" lon="12.11690370338795"><ele>373.0</ele><time>2026-04-25T16:57:54.997Z</time></trkpt><trkpt lat="45.92030560558566" lon="12.116857687001842"><ele>373.0</ele><time>2026-04-25T16:57:56.997Z</time></trkpt><trkpt lat="45.92021585193034" lon="12.116829095469022"><ele>373.0</ele><time>2026-04-25T16:57:59Z</time></trkpt><trkpt lat="45.920119867903004" lon="12.116778891250172"><ele>373.0</ele><time>2026-04-25T16:58:01Z</time></trkpt><trkpt lat="45.92002849001669" lon="12.116743182677489"><ele>373.0</ele><time>2026-04-25T16:58:03Z</time></trkpt><trkpt lat="45.919948583724015" lon="12.1166805336435"><ele>371.5</ele><time>2026-04-25T16:58:05Z</time></trkpt><trkpt lat="45.919880831302216" lon="12.116591696797801"><ele>370.0</ele><time>2026-04-25T16:58:07Z</time></trkpt><trkpt lat="45.91981343766369" lon="12.116496543568005"><ele>368.5</ele><time>2026-04-25T16:58:09Z</time></trkpt><trkpt lat="45.91976103656918" lon="12.116386597206434"><ele>367.0</ele><time>2026-04-25T16:58:11Z</time></trkpt><trkpt lat="45.919702625156894" lon="12.11628975467329"><ele>365.5</ele><time>2026-04-25T16:58:13Z</time></trkpt><trkpt lat="45.91964484959455" lon="12.116237594988261"><ele>364.0</ele><time>2026-04-25T16:58:14Z</time></trkpt><trkpt lat="45.919571803800636" lon="12.116207978063176"><ele>364.66666666666663</ele><time>2026-04-25T16:58:15Z</time></trkpt><trkpt lat="45.919524489000324" lon="12.11614441684726"><ele>365.3333333333333</ele><time>2026-04-25T16:58:16Z</time></trkpt><trkpt lat="45.91948647549979" lon="12.116054550077834"><ele>366.0</ele><time>2026-04-25T16:58:17Z</time></trkpt><trkpt lat="45.91940593171264" lon="12.115930203810384"><ele>366.6666666666667</ele><time>2026-04-25T16:58:19Z</time></trkpt><trkpt lat="45.91933316135979" lon="12.115904866571949"><ele>367.33333333333337</ele><time>2026-04-25T16:58:21Z</time></trkpt><trkpt lat="45.91926464215566" lon="12.115873728679874"><ele>368.0</ele><time>2026-04-25T16:58:24Z</time></trkpt><trkpt lat="45.91920400363596" lon="12.115824360108352"><ele>368.0</ele><time>2026-04-25T16:58:27Z</time></trkpt><trkpt lat="45.919136951030026" lon="12.115754251675547"><ele>368.0</ele><time>2026-04-25T16:58:31Z</time></trkpt><trkpt lat="45.9191717186116" lon="12.115634421609302"><ele>368.0</ele><time>2026-04-25T16:58:32.999Z</time></trkpt><trkpt lat="45.91913001179276" lon="12.115535228876713"><ele>368.0</ele><time>2026-04-25T16:58:35.999Z</time></trkpt><trkpt lat="45.91908269991686" lon="12.11542270635678"><ele>368.0</ele><time>2026-04-25T16:58:38.999Z</time></trkpt><trkpt lat="45.919047831646864" lon="12.115339778965755"><ele>368.0</ele><time>2026-04-25T16:58:40.999Z</time></trkpt><trkpt lat="45.91901166250308" lon="12.115261542352282"><ele>372.1666666666667</ele><time>2026-04-25T16:58:42.999Z</time></trkpt><trkpt lat="45.918957883447135" lon="12.115143241032108"><ele>376.33333333333337</ele><time>2026-04-25T16:58:45.999Z</time></trkpt><trkpt lat="45.91892646721455" lon="12.115053245161686"><ele>380.5</ele><time>2026-04-25T16:58:47.999Z</time></trkpt><trkpt lat="45.9188913077099" lon="12.114948723936132"><ele>384.6666666666667</ele><time>2026-04-25T16:58:49.999Z</time></trkpt><trkpt lat="45.9188549301174" lon="12.114858481490323"><ele>388.8333333333333</ele><time>2026-04-25T16:58:51.999Z</time></trkpt><trkpt lat="45.91881299452088" lon="12.11478358261222"><ele>393.0</ele><time>2026-04-25T16:58:53.999Z</time></trkpt><trkpt lat="45.91875443444061" lon="12.114736052342588"><ele>395.1666666666667</ele><time>2026-04-25T16:58:55.999Z</time></trkpt><trkpt lat="45.91868449855199" lon="12.114665639076774"><ele>397.33333333333337</ele><time>2026-04-25T16:58:58.999Z</time></trkpt><trkpt lat="45.918619653391474" lon="12.114597490454175"><ele>399.5</ele><time>2026-04-25T16:59:01.999Z</time></trkpt><trkpt lat="45.918565575981226" lon="12.114523101619907"><ele>401.6666666666667</ele><time>2026-04-25T16:59:04.999Z</time></trkpt><trkpt lat="45.91850013762916" lon="12.114469701104083"><ele>403.83333333333337</ele><time>2026-04-25T16:59:06.999Z</time></trkpt><trkpt lat="45.918420877120404" lon="12.1144536742765"><ele>406.0</ele><time>2026-04-25T16:59:09.999Z</time></trkpt><trkpt lat="45.918354719574126" lon="12.114410033332511"><ele>399.20000000000005</ele><time>2026-04-25T16:59:13.999Z</time></trkpt><trkpt lat="45.918272083618284" lon="12.114366123390363"><ele>392.40000000000003</ele><time>2026-04-25T16:59:15.998Z</time></trkpt><trkpt lat="45.91815046048985" lon="12.114395875308967"><ele>385.6</ele><time>2026-04-25T16:59:17.998Z</time></trkpt><trkpt lat="45.918056272548945" lon="12.114509280860883"><ele>378.8</ele><time>2026-04-25T16:59:19.998Z</time></trkpt><trkpt lat="45.91797538956674" lon="12.114622527212669"><ele>372.0</ele><time>2026-04-25T16:59:21.998Z</time></trkpt><trkpt lat="45.91791192001749" lon="12.114753929604321"><ele>372.0</ele><time>2026-04-25T16:59:23.998Z</time></trkpt><trkpt lat="45.91788072701597" lon="12.114857322958109"><ele>372.0</ele><time>2026-04-25T16:59:25.998Z</time></trkpt><trkpt lat="45.91784236924772" lon="12.11493683270773"><ele>372.0</ele><time>2026-04-25T16:59:27.998Z</time></trkpt><trkpt lat="45.91781508489554" lon="12.115049981270431"><ele>372.0</ele><time>2026-04-25T16:59:29.998Z</time></trkpt><trkpt lat="45.91772414783392" lon="12.115078917697621"><ele>372.0</ele><time>2026-04-25T16:59:32.998Z</time></trkpt><trkpt lat="45.917650933208975" lon="12.115150746287085"><ele>372.0</ele><time>2026-04-25T16:59:35.998Z</time></trkpt><trkpt lat="45.91756394650458" lon="12.115186535812082"><ele>369.8333333333333</ele><time>2026-04-25T16:59:38.998Z</time></trkpt><trkpt lat="45.91749214978231" lon="12.115250176041743"><ele>367.6666666666667</ele><time>2026-04-25T16:59:40.998Z</time></trkpt><trkpt lat="45.91743942250494" lon="12.11531012445969"><ele>365.5</ele><time>2026-04-25T16:59:42.998Z</time></trkpt><trkpt lat="45.91740493992154" lon="12.11543274575183"><ele>363.33333333333337</ele><time>2026-04-25T16:59:45.998Z</time></trkpt><trkpt lat="45.91746984678584" lon="12.11552586394886"><ele>361.1666666666667</ele><time>2026-04-25T16:59:47.998Z</time></trkpt><trkpt lat="45.9174827121312" lon="12.115645212299034"><ele>359.0</ele><time>2026-04-25T16:59:51.998Z</time></trkpt><trkpt lat="45.91740901832142" lon="12.115736338408189"><ele>359.0</ele><time>2026-04-25T16:59:54.998Z</time></trkpt><trkpt lat="45.917324204036525" lon="12.115758943268272"><ele>359.0</ele><time>2026-04-25T16:59:57.998Z</time></trkpt><trkpt lat="45.91724462928403" lon="12.115753016046414"><ele>359.0</ele><time>2026-04-25T16:59:59.997Z</time></trkpt><trkpt lat="45.91715777218997" lon="12.11572735392822"><ele>359.0</ele><time>2026-04-25T17:00:01.997Z</time></trkpt><trkpt lat="45.91708075223124" lon="12.115664941301398"><ele>359.0</ele><time>2026-04-25T17:00:03.997Z</time></trkpt><trkpt lat="45.91703037589267" lon="12.115587976530692"><ele>359.0</ele><time>2026-04-25T17:00:06Z</time></trkpt><trkpt lat="45.91699662539863" lon="12.115462976333195"><ele>359.0</ele><time>2026-04-25T17:00:08Z</time></trkpt><trkpt lat="45.91695145011776" lon="12.115318596061172"><ele>359.0</ele><time>2026-04-25T17:00:10Z</time></trkpt><trkpt lat="45.916935967782365" lon="12.115152442580127"><ele>359.0</ele><time>2026-04-25T17:00:12Z</time></trkpt><trkpt lat="45.91692726996541" lon="12.114977582273557"><ele>359.0</ele><time>2026-04-25T17:00:14Z</time></trkpt><trkpt lat="45.91693367080596" lon="12.114837346432948"><ele>359.0</ele><time>2026-04-25T17:00:16Z</time></trkpt><trkpt lat="45.91694807496255" lon="12.114742922056966"><ele>359.0</ele><time>2026-04-25T17:00:18Z</time></trkpt><trkpt lat="45.91693302046206" lon="12.114861208120674"><ele>359.0</ele><time>2026-04-25T17:00:27Z</time></trkpt><trkpt lat="45.91692476495669" lon="12.114956622431379"><ele>359.0</ele><time>2026-04-25T17:00:29Z</time></trkpt><trkpt lat="45.91693200252803" lon="12.115090071050947"><ele>359.0</ele><time>2026-04-25T17:00:32Z</time></trkpt><trkpt lat="45.916754777028714" lon="12.115216083339238"><ele>359.0</ele><time>2026-04-25T17:00:34Z</time></trkpt><trkpt lat="45.91678839377378" lon="12.115363214426376"><ele>359.0</ele><time>2026-04-25T17:00:36Z</time></trkpt><trkpt lat="45.91679484143735" lon="12.115478024070649"><ele>359.0</ele><time>2026-04-25T17:00:38Z</time></trkpt><trkpt lat="45.91680202037668" lon="12.115601616820491"><ele>359.0</ele><time>2026-04-25T17:00:40Z</time></trkpt><trkpt lat="45.91679531262157" lon="12.115721970360681"><ele>359.0</ele><time>2026-04-25T17:00:42Z</time></trkpt><trkpt lat="45.91677753048726" lon="12.115845415165097"><ele>359.0</ele><time>2026-04-25T17:00:44Z</time></trkpt><trkpt lat="45.916773904132796" lon="12.115955581109395"><ele>359.0</ele><time>2026-04-25T17:00:46Z</time></trkpt><trkpt lat="45.91676701626555" lon="12.116055621721392"><ele>355.83333333333337</ele><time>2026-04-25T17:00:48Z</time></trkpt><trkpt lat="45.91680153054998" lon="12.116162970483995"><ele>352.6666666666667</ele><time>2026-04-25T17:00:50.999Z</time></trkpt><trkpt lat="45.91674866046126" lon="12.116214748482937"><ele>349.5</ele><time>2026-04-25T17:00:54.999Z</time></trkpt><trkpt lat="45.91671126345495" lon="12.116103203912877"><ele>346.3333333333333</ele><time>2026-04-25T17:01:13.999Z</time></trkpt><trkpt lat="45.916628560796106" lon="12.11611280499196"><ele>343.16666666666663</ele><time>2026-04-25T17:01:17.999Z</time></trkpt><trkpt lat="45.91655195382257" lon="12.116179138676952"><ele>340.0</ele><time>2026-04-25T17:01:19.999Z</time></trkpt><trkpt lat="45.916491716206636" lon="12.116256336272897"><ele>335.5</ele><time>2026-04-25T17:01:21.999Z</time></trkpt><trkpt lat="45.916443905299296" lon="12.116331036313706"><ele>331.0</ele><time>2026-04-25T17:01:23.999Z</time></trkpt><trkpt lat="45.91635897420586" lon="12.116378185838201"><ele>326.5</ele><time>2026-04-25T17:01:26.999Z</time></trkpt><trkpt lat="45.91630886628827" lon="12.116319951846753"><ele>322.0</ele><time>2026-04-25T17:01:28.999Z</time></trkpt><trkpt lat="45.91623298583209" lon="12.116261563991165"><ele>317.5</ele><time>2026-04-25T17:01:30.999Z</time></trkpt><trkpt lat="45.916136640904874" lon="12.116230592431299"><ele>313.0</ele><time>2026-04-25T17:01:32.999Z</time></trkpt><trkpt lat="45.91601436380736" lon="12.116249587858954"><ele>305.6</ele><time>2026-04-25T17:01:34.999Z</time></trkpt><trkpt lat="45.915888562480255" lon="12.116276301279745"><ele>298.20000000000005</ele><time>2026-04-25T17:01:36.998Z</time></trkpt><trkpt lat="45.91582257962167" lon="12.116293725843418"><ele>290.8</ele><time>2026-04-25T17:01:37.998Z</time></trkpt><trkpt lat="45.91575660837885" lon="12.11631461095109"><ele>283.40000000000003</ele><time>2026-04-25T17:01:38.998Z</time></trkpt><trkpt lat="45.91564136908664" lon="12.116380472239873"><ele>276.0</ele><time>2026-04-25T17:01:40.998Z</time></trkpt><trkpt lat="45.915599873703876" lon="12.116473749381068"><ele>276.0</ele><time>2026-04-25T17:01:41.998Z</time></trkpt><trkpt lat="45.91554805890434" lon="12.116546175546139"><ele>276.0</ele><time>2026-04-25T17:01:42.998Z</time></trkpt><trkpt lat="45.915498678238094" lon="12.116604940095186"><ele>276.0</ele><time>2026-04-25T17:01:43.998Z</time></trkpt><trkpt lat="45.91540977566144" lon="12.116710258201275"><ele>276.0</ele><time>2026-04-25T17:01:45.998Z</time></trkpt><trkpt lat="45.91534139438476" lon="12.116778714693947"><ele>276.0</ele><time>2026-04-25T17:01:47.998Z</time></trkpt><trkpt lat="45.915297822852516" lon="12.116856606767643"><ele>276.0</ele><time>2026-04-25T17:01:49.998Z</time></trkpt><trkpt lat="45.91520241529403" lon="12.11691692333472"><ele>275.6</ele><time>2026-04-25T17:01:51.998Z</time></trkpt><trkpt lat="45.91509834496763" lon="12.11696589613469"><ele>275.20000000000005</ele><time>2026-04-25T17:01:53.998Z</time></trkpt><trkpt lat="45.91497998587213" lon="12.11704196574824"><ele>274.79999999999995</ele><time>2026-04-25T17:01:55.998Z</time></trkpt><trkpt lat="45.91491296779443" lon="12.117067417650846"><ele>274.4</ele><time>2026-04-25T17:01:56.998Z</time></trkpt><trkpt lat="45.91481663576368" lon="12.11715683567834"><ele>274.0</ele><time>2026-04-25T17:01:58.998Z</time></trkpt><trkpt lat="45.91474043243157" lon="12.117210490576854"><ele>273.14285714285717</ele><time>2026-04-25T17:02:00.998Z</time></trkpt><trkpt lat="45.914680304372794" lon="12.117238358156865"><ele>272.2857142857143</ele><time>2026-04-25T17:02:02.998Z</time></trkpt><trkpt lat="45.914635700322656" lon="12.11731396396179"><ele>271.42857142857144</ele><time>2026-04-25T17:02:05.998Z</time></trkpt><trkpt lat="45.91462266389024" lon="12.117403914004553"><ele>270.57142857142856</ele><time>2026-04-25T17:02:33.999Z</time></trkpt><trkpt lat="45.91462820640749" lon="12.117522789483807"><ele>269.7142857142857</ele><time>2026-04-25T17:02:36.999Z</time></trkpt><trkpt lat="45.914643699748666" lon="12.11762740233555"><ele>268.8571428571429</ele><time>2026-04-25T17:02:38.999Z</time></trkpt><trkpt lat="45.914670612932156" lon="12.117724997816788"><ele>268.0</ele><time>2026-04-25T17:02:40.999Z</time></trkpt><trkpt lat="45.91471149391391" lon="12.117832671815869"><ele>266.66666666666663</ele><time>2026-04-25T17:02:42.999Z</time></trkpt><trkpt lat="45.91475425642795" lon="12.11795163247494"><ele>265.3333333333333</ele><time>2026-04-25T17:02:45.999Z</time></trkpt><trkpt lat="45.91477847051106" lon="12.118043090122134"><ele>264.0</ele><time>2026-04-25T17:02:47.999Z</time></trkpt><trkpt lat="45.914771431583326" lon="12.118177526870564"><ele>262.6666666666667</ele><time>2026-04-25T17:02:50.999Z</time></trkpt><trkpt lat="45.91474672494816" lon="12.118283922485196"><ele>261.33333333333337</ele><time>2026-04-25T17:02:53.999Z</time></trkpt><trkpt lat="45.914685304011606" lon="12.11839753628226"><ele>260.0</ele><time>2026-04-25T17:02:56.999Z</time></trkpt><trkpt lat="45.914600651685035" lon="12.118453018705287"><ele>259.2</ele><time>2026-04-25T17:02:58.999Z</time></trkpt><trkpt lat="45.91452152212978" lon="12.118502841230578"><ele>258.4</ele><time>2026-04-25T17:03:00.999Z</time></trkpt><trkpt lat="45.91442032961776" lon="12.118487371348637"><ele>257.6</ele><time>2026-04-25T17:03:02.999Z</time></trkpt><trkpt lat="45.91431160430656" lon="12.118458588013421"><ele>256.8</ele><time>2026-04-25T17:03:04.999Z</time></trkpt><trkpt lat="45.91420682017333" lon="12.118433766830753"><ele>256.0</ele><time>2026-04-25T17:03:06.999Z</time></trkpt><trkpt lat="45.91412101238002" lon="12.118415611171184"><ele>255.99999999999997</ele><time>2026-04-25T17:03:08.999Z</time></trkpt><trkpt lat="45.91404268780367" lon="12.118397369009294"><ele>256.0</ele><time>2026-04-25T17:03:10.998Z</time></trkpt><trkpt lat="45.91397059452005" lon="12.118380938698719"><ele>256.0</ele><time>2026-04-25T17:03:12.998Z</time></trkpt><trkpt lat="45.91390395401707" lon="12.118347986436902"><ele>256.0</ele><time>2026-04-25T17:03:14.998Z</time></trkpt><trkpt lat="45.91380805845846" lon="12.118385387084425"><ele>255.99999999999997</ele><time>2026-04-25T17:03:16.998Z</time></trkpt><trkpt lat="45.9137231117945" lon="12.118440706010926"><ele>256.0</ele><time>2026-04-25T17:03:18.998Z</time></trkpt><trkpt lat="45.91364325745984" lon="12.1184928300381"><ele>255.99999999999997</ele><time>2026-04-25T17:03:20.998Z</time></trkpt><trkpt lat="45.91355453223722" lon="12.118470223873933"><ele>256.0</ele><time>2026-04-25T17:03:22.998Z</time></trkpt><trkpt lat="45.91347918992427" lon="12.118402645562572"><ele>256.0</ele><time>2026-04-25T17:03:24.998Z</time></trkpt><trkpt lat="45.913393058534496" lon="12.118365350505158"><ele>256.0</ele><time>2026-04-25T17:03:26.998Z</time></trkpt><trkpt lat="45.913313869576214" lon="12.118391763125281"><ele>255.99999999999997</ele><time>2026-04-25T17:03:28.998Z</time></trkpt><trkpt lat="45.913245909266344" lon="12.118440800307983"><ele>256.0</ele><time>2026-04-25T17:03:30.998Z</time></trkpt><trkpt lat="45.91318607046557" lon="12.118481015040183"><ele>256.0</ele><time>2026-04-25T17:03:33.998Z</time></trkpt><trkpt lat="45.91332263182821" lon="12.118634271830826"><ele>256.0</ele><time>2026-04-25T17:03:37.998Z</time></trkpt><trkpt lat="45.913409772516474" lon="12.118657664381626"><ele>256.0</ele><time>2026-04-25T17:03:39.998Z</time></trkpt><trkpt lat="45.91348293385887" lon="12.118693011983094"><ele>256.0</ele><time>2026-04-25T17:03:41.998Z</time></trkpt><trkpt lat="45.913546635235534" lon="12.11870180006172"><ele>256.0</ele><time>2026-04-25T17:03:43.998Z</time></trkpt><trkpt lat="45.91358823194755" lon="12.118775138227166"><ele>256.0</ele><time>2026-04-25T17:03:46.998Z</time></trkpt><trkpt lat="45.913533120141985" lon="12.118823289949695"><ele>256.0</ele><time>2026-04-25T17:03:48.998Z</time></trkpt><trkpt lat="45.913435522278995" lon="12.11883039027609"><ele>256.0</ele><time>2026-04-25T17:03:50.998Z</time></trkpt><trkpt lat="45.913344762220554" lon="12.11884258576598"><ele>256.0</ele><time>2026-04-25T17:03:52.998Z</time></trkpt><trkpt lat="45.91323699006162" lon="12.118849899758397"><ele>256.0</ele><time>2026-04-25T17:03:54.997Z</time></trkpt><trkpt lat="45.91314909700798" lon="12.118818605774274"><ele>252.8</ele><time>2026-04-25T17:03:56.997Z</time></trkpt><trkpt lat="45.9130328215884" lon="12.118608815708804"><ele>249.60000000000002</ele><time>2026-04-25T17:03:58.997Z</time></trkpt><trkpt lat="45.91295083312132" lon="12.118606807531636"><ele>246.4</ele><time>2026-04-25T17:04:00.997Z</time></trkpt><trkpt lat="45.91288513836029" lon="12.118594695206506"><ele>243.2</ele><time>2026-04-25T17:04:02.997Z</time></trkpt><trkpt lat="45.91279464773374" lon="12.118545423873062"><ele>240.0</ele><time>2026-04-25T17:04:05.997Z</time></trkpt><trkpt lat="45.91273304586509" lon="12.118503229422378"><ele>240.0</ele><time>2026-04-25T17:04:07.997Z</time></trkpt><trkpt lat="45.912669948686144" lon="12.118476579143435"><ele>240.0</ele><time>2026-04-25T17:04:09.997Z</time></trkpt><trkpt lat="45.91257029965244" lon="12.118500103727033"><ele>240.0</ele><time>2026-04-25T17:04:11.997Z</time></trkpt><trkpt lat="45.91250555308142" lon="12.118575189329443"><ele>240.0</ele><time>2026-04-25T17:04:13.997Z</time></trkpt><trkpt lat="45.91243015994898" lon="12.11861027604336"><ele>240.0</ele><time>2026-04-25T17:04:15.997Z</time></trkpt><trkpt lat="45.9123620529586" lon="12.118624027737187"><ele>240.0</ele><time>2026-04-25T17:04:18Z</time></trkpt><trkpt lat="45.91228934909488" lon="12.11860252297958"><ele>235.6</ele><time>2026-04-25T17:04:20Z</time></trkpt><trkpt lat="45.91219692494962" lon="12.118550211192805"><ele>231.2</ele><time>2026-04-25T17:04:22Z</time></trkpt><trkpt lat="45.912093489476845" lon="12.118540181106457"><ele>226.8</ele><time>2026-04-25T17:04:24Z</time></trkpt><trkpt lat="45.9119827371888" lon="12.118572634769054"><ele>222.4</ele><time>2026-04-25T17:04:26Z</time></trkpt><trkpt lat="45.91188986736843" lon="12.118601357600927"><ele>218.0</ele><time>2026-04-25T17:04:28Z</time></trkpt><trkpt lat="45.91178758470228" lon="12.118636693697226"><ele>212.0</ele><time>2026-04-25T17:04:30Z</time></trkpt><trkpt lat="45.91168152947436" lon="12.118677578819343"><ele>206.0</ele><time>2026-04-25T17:04:32Z</time></trkpt><trkpt lat="45.91157438576788" lon="12.11873776045191"><ele>200.0</ele><time>2026-04-25T17:04:34Z</time></trkpt><trkpt lat="45.91147969662067" lon="12.11880576196409"><ele>194.0</ele><time>2026-04-25T17:04:36Z</time></trkpt><trkpt lat="45.911392398182464" lon="12.118866108548588"><ele>188.0</ele><time>2026-04-25T17:04:38Z</time></trkpt><trkpt lat="45.911285789999816" lon="12.118928269094773"><ele>188.0</ele><time>2026-04-25T17:04:40Z</time></trkpt><trkpt lat="45.91119259591768" lon="12.118983341925581"><ele>188.0</ele><time>2026-04-25T17:04:42Z</time></trkpt><trkpt lat="45.911091059977494" lon="12.119062015116514"><ele>188.0</ele><time>2026-04-25T17:04:44Z</time></trkpt><trkpt lat="45.91099105228904" lon="12.119153920464665"><ele>188.0</ele><time>2026-04-25T17:04:45.999Z</time></trkpt><trkpt lat="45.91090376743707" lon="12.119266677074295"><ele>186.25</ele><time>2026-04-25T17:04:47.999Z</time></trkpt><trkpt lat="45.91082111592693" lon="12.119372820522688"><ele>184.5</ele><time>2026-04-25T17:04:49.999Z</time></trkpt><trkpt lat="45.91073624129471" lon="12.119478800747586"><ele>182.75</ele><time>2026-04-25T17:04:51.999Z</time></trkpt><trkpt lat="45.91065209800075" lon="12.119583867720944"><ele>181.0</ele><time>2026-04-25T17:04:53.999Z</time></trkpt><trkpt lat="45.91056429451725" lon="12.119690199753995"><ele>181.0</ele><time>2026-04-25T17:04:55.999Z</time></trkpt><trkpt lat="45.910472332227805" lon="12.119796160840266"><ele>181.0</ele><time>2026-04-25T17:04:57.999Z</time></trkpt><trkpt lat="45.91042173220372" lon="12.119852547814922"><ele>181.0</ele><time>2026-04-25T17:04:58.999Z</time></trkpt><trkpt lat="45.91037188581078" lon="12.119908094937148"><ele>181.0</ele><time>2026-04-25T17:04:59.999Z</time></trkpt><trkpt lat="45.91032087635624" lon="12.119964938105182"><ele>181.0</ele><time>2026-04-25T17:05:00.999Z</time></trkpt><trkpt lat="45.91026909107573" lon="12.120022756808034"><ele>181.0</ele><time>2026-04-25T17:05:01.999Z</time></trkpt><trkpt lat="45.910218402773225" lon="12.120081003070126"><ele>181.0</ele><time>2026-04-25T17:05:02.999Z</time></trkpt><trkpt lat="45.910164949907134" lon="12.12014242618035"><ele>181.66666666666669</ele><time>2026-04-25T17:05:03.999Z</time></trkpt><trkpt lat="45.910112301210084" lon="12.120202893789003"><ele>182.33333333333334</ele><time>2026-04-25T17:05:04.999Z</time></trkpt><trkpt lat="45.91005939494074" lon="12.120263654349293"><ele>183.0</ele><time>2026-04-25T17:05:05.999Z</time></trkpt><trkpt lat="45.909948932444436" lon="12.120355130773577"><ele>183.66666666666666</ele><time>2026-04-25T17:05:07.999Z</time></trkpt><trkpt lat="45.9098881912688" lon="12.120390958424375"><ele>184.33333333333331</ele><time>2026-04-25T17:05:08.999Z</time></trkpt><trkpt lat="45.90982593693573" lon="12.120418756542573"><ele>185.0</ele><time>2026-04-25T17:05:09.999Z</time></trkpt><trkpt lat="45.90975924256981" lon="12.12043365361305"><ele>184.99999999999997</ele><time>2026-04-25T17:05:10.999Z</time></trkpt><trkpt lat="45.90969545842608" lon="12.12044190487258"><ele>185.0</ele><time>2026-04-25T17:05:11.999Z</time></trkpt><trkpt lat="45.909628508889575" lon="12.120448581113395"><ele>185.0</ele><time>2026-04-25T17:05:12.999Z</time></trkpt><trkpt lat="45.909565087682594" lon="12.120458321406042"><ele>185.0</ele><time>2026-04-25T17:05:13.999Z</time></trkpt><trkpt lat="45.909501248074626" lon="12.120478488722386"><ele>185.0</ele><time>2026-04-25T17:05:14.999Z</time></trkpt><trkpt lat="45.90944579606155" lon="12.120543954702315"><ele>184.99999999999997</ele><time>2026-04-25T17:05:15.999Z</time></trkpt><trkpt lat="45.909409783456276" lon="12.120653548435355"><ele>185.0</ele><time>2026-04-25T17:05:16.999Z</time></trkpt><trkpt lat="45.909404491211724" lon="12.120765450255051"><ele>185.4</ele><time>2026-04-25T17:05:17.999Z</time></trkpt><trkpt lat="45.9093966879923" lon="12.120870725414235"><ele>185.8</ele><time>2026-04-25T17:05:18.999Z</time></trkpt><trkpt lat="45.909355303822785" lon="12.121037773983785"><ele>186.2</ele><time>2026-04-25T17:05:20.999Z</time></trkpt><trkpt lat="45.909280933574266" lon="12.12116196976278"><ele>186.6</ele><time>2026-04-25T17:05:22.999Z</time></trkpt><trkpt lat="45.909179957467266" lon="12.121244287756157"><ele>187.0</ele><time>2026-04-25T17:05:24.999Z</time></trkpt><trkpt lat="45.909072006336665" lon="12.121250388836373"><ele>187.0</ele><time>2026-04-25T17:05:26.999Z</time></trkpt><trkpt lat="45.90895013084873" lon="12.121251710245073"><ele>187.0</ele><time>2026-04-25T17:05:28.998Z</time></trkpt><trkpt lat="45.90888659127247" lon="12.121268486412195"><ele>187.0</ele><time>2026-04-25T17:05:29.998Z</time></trkpt><trkpt lat="45.908824346474674" lon="12.121312131109976"><ele>187.0</ele><time>2026-04-25T17:05:30.998Z</time></trkpt><trkpt lat="45.90877588712159" lon="12.12140129058794"><ele>187.0</ele><time>2026-04-25T17:05:31.998Z</time></trkpt><trkpt lat="45.90874394139331" lon="12.121483876072316"><ele>187.0</ele><time>2026-04-25T17:05:32.998Z</time></trkpt><trkpt lat="45.908719421739775" lon="12.121635280269906"><ele>186.33333333333334</ele><time>2026-04-25T17:05:34.998Z</time></trkpt><trkpt lat="45.908692841496645" lon="12.12173657122598"><ele>185.66666666666669</ele><time>2026-04-25T17:05:37.998Z</time></trkpt><trkpt lat="45.90863981245472" lon="12.121836496591971"><ele>185.0</ele><time>2026-04-25T17:06:31Z</time></trkpt><trkpt lat="45.9085720659125" lon="12.121850927437066"><ele>184.33333333333334</ele><time>2026-04-25T17:06:33Z</time></trkpt><trkpt lat="45.90849763969098" lon="12.121893299350296"><ele>183.66666666666666</ele><time>2026-04-25T17:06:35Z</time></trkpt><trkpt lat="45.90842850412056" lon="12.121924634027112"><ele>183.0</ele><time>2026-04-25T17:06:37Z</time></trkpt><trkpt lat="45.90835920815851" lon="12.121950901004361"><ele>181.4</ele><time>2026-04-25T17:06:39Z</time></trkpt><trkpt lat="45.90828541860348" lon="12.121800073865542"><ele>179.8</ele><time>2026-04-25T17:06:42Z</time></trkpt><trkpt lat="45.90822285088" lon="12.121700969966945"><ele>178.2</ele><time>2026-04-25T17:06:44Z</time></trkpt><trkpt lat="45.908153357516326" lon="12.121607504129909"><ele>176.6</ele><time>2026-04-25T17:06:46Z</time></trkpt><trkpt lat="45.90806811442069" lon="12.12156453906738"><ele>175.0</ele><time>2026-04-25T17:06:48Z</time></trkpt><trkpt lat="45.90799284519747" lon="12.121530727554237"><ele>176.42857142857142</ele><time>2026-04-25T17:06:50Z</time></trkpt><trkpt lat="45.90792158841879" lon="12.121506348562203"><ele>177.85714285714286</ele><time>2026-04-25T17:06:52Z</time></trkpt><trkpt lat="45.90785124659005" lon="12.121486350114342"><ele>179.28571428571428</ele><time>2026-04-25T17:06:54Z</time></trkpt><trkpt lat="45.90778260548573" lon="12.121469041627929"><ele>180.71428571428572</ele><time>2026-04-25T17:06:56Z</time></trkpt><trkpt lat="45.90771419581075" lon="12.121454272619768"><ele>182.14285714285714</ele><time>2026-04-25T17:06:58Z</time></trkpt><trkpt lat="45.90764960594315" lon="12.121443334019393"><ele>183.57142857142856</ele><time>2026-04-25T17:07:00Z</time></trkpt><trkpt lat="45.907581537712105" lon="12.121433553679259"><ele>185.0</ele><time>2026-04-25T17:07:01.999Z</time></trkpt><trkpt lat="45.907516032144365" lon="12.12142485919883"><ele>185.0</ele><time>2026-04-25T17:07:03.999Z</time></trkpt><trkpt lat="45.90744882191504" lon="12.121419243988012"><ele>185.0</ele><time>2026-04-25T17:07:05.999Z</time></trkpt><trkpt lat="45.9073795956875" lon="12.121417214869574"><ele>185.0</ele><time>2026-04-25T17:07:07.999Z</time></trkpt><trkpt lat="45.90731125159226" lon="12.121425914213685"><ele>185.0</ele><time>2026-04-25T17:07:09.999Z</time></trkpt><trkpt lat="45.90723648912123" lon="12.121451305015231"><ele>185.0</ele><time>2026-04-25T17:07:11.999Z</time></trkpt><trkpt lat="45.90714613161637" lon="12.121508653785874"><ele>185.0</ele><time>2026-04-25T17:07:13.999Z</time></trkpt><trkpt lat="45.907042286471466" lon="12.121552074185818"><ele>183.33333333333331</ele><time>2026-04-25T17:07:15.999Z</time></trkpt><trkpt lat="45.90694063020329" lon="12.121591107646186"><ele>181.66666666666666</ele><time>2026-04-25T17:07:17.999Z</time></trkpt><trkpt lat="45.90685387237015" lon="12.12162254342347"><ele>180.0</ele><time>2026-04-25T17:07:19.999Z</time></trkpt><trkpt lat="45.906772341222684" lon="12.121650252720922"><ele>178.33333333333334</ele><time>2026-04-25T17:07:21.999Z</time></trkpt><trkpt lat="45.90669803872869" lon="12.121667537658197"><ele>176.66666666666669</ele><time>2026-04-25T17:07:23.999Z</time></trkpt><trkpt lat="45.90667425793154" lon="12.121540895117333"><ele>175.0</ele><time>2026-04-25T17:07:25.999Z</time></trkpt><trkpt lat="45.906630036210274" lon="12.121420346670504"><ele>175.0</ele><time>2026-04-25T17:07:27.999Z</time></trkpt><trkpt lat="45.906561837261556" lon="12.121326635137983"><ele>175.0</ele><time>2026-04-25T17:07:29.999Z</time></trkpt><trkpt lat="45.90650129912539" lon="12.121219693871627"><ele>175.0</ele><time>2026-04-25T17:07:31.999Z</time></trkpt><trkpt lat="45.906433399504664" lon="12.121111490665754"><ele>175.0</ele><time>2026-04-25T17:07:33.999Z</time></trkpt><trkpt lat="45.90637315712879" lon="12.120994913622985"><ele>175.0</ele><time>2026-04-25T17:07:35.999Z</time></trkpt><trkpt lat="45.906306129771714" lon="12.120882601229605"><ele>175.0</ele><time>2026-04-25T17:07:37.999Z</time></trkpt><trkpt lat="45.90624159836114" lon="12.120760077641362"><ele>175.0</ele><time>2026-04-25T17:07:39.999Z</time></trkpt><trkpt lat="45.906170190604" lon="12.120645279065267"><ele>175.0</ele><time>2026-04-25T17:07:41.999Z</time></trkpt><trkpt lat="45.90610201105272" lon="12.120520997205672"><ele>175.0</ele><time>2026-04-25T17:07:43.999Z</time></trkpt><trkpt lat="45.90604153935853" lon="12.120402614811777"><ele>175.0</ele><time>2026-04-25T17:07:45.998Z</time></trkpt><trkpt lat="45.905982307072826" lon="12.120290026850839"><ele>174.2</ele><time>2026-04-25T17:07:47.998Z</time></trkpt><trkpt lat="45.90593282826726" lon="12.120179210611237"><ele>173.4</ele><time>2026-04-25T17:07:49.998Z</time></trkpt><trkpt lat="45.90587832645051" lon="12.120079062700732"><ele>172.60000000000002</ele><time>2026-04-25T17:07:51.998Z</time></trkpt><trkpt lat="45.90581874804358" lon="12.119964783134417"><ele>171.8</ele><time>2026-04-25T17:07:53.998Z</time></trkpt><trkpt lat="45.905751853665784" lon="12.119807783075865"><ele>171.0</ele><time>2026-04-25T17:07:55.998Z</time></trkpt><trkpt lat="45.90572134625425" lon="12.119709259831522"><ele>171.0</ele><time>2026-04-25T17:07:56.998Z</time></trkpt><trkpt lat="45.90568385394074" lon="12.119611295570637"><ele>171.0</ele><time>2026-04-25T17:07:57.998Z</time></trkpt><trkpt lat="45.90563557927025" lon="12.119515208778909"><ele>171.0</ele><time>2026-04-25T17:07:58.998Z</time></trkpt><trkpt lat="45.905577129739484" lon="12.119420901516238"><ele>171.0</ele><time>2026-04-25T17:07:59.998Z</time></trkpt><trkpt lat="45.90550814284577" lon="12.119335316901704"><ele>171.0</ele><time>2026-04-25T17:08:00.998Z</time></trkpt><trkpt lat="45.90543821081893" lon="12.119246379844588"><ele>171.0</ele><time>2026-04-25T17:08:01.998Z</time></trkpt><trkpt lat="45.90536059082853" lon="12.119209867779814"><ele>171.0</ele><time>2026-04-25T17:08:02.998Z</time></trkpt><trkpt lat="45.90528738389282" lon="12.11915991014593"><ele>171.0</ele><time>2026-04-25T17:08:03.998Z</time></trkpt><trkpt lat="45.90522103583309" lon="12.119118480378416"><ele>171.0</ele><time>2026-04-25T17:08:04.998Z</time></trkpt><trkpt lat="45.905159941412464" lon="12.119082515546543"><ele>171.0</ele><time>2026-04-25T17:08:05.998Z</time></trkpt><trkpt lat="45.90505752848432" lon="12.119010357779075"><ele>171.0</ele><time>2026-04-25T17:08:07.998Z</time></trkpt><trkpt lat="45.90495647336521" lon="12.119016058293488"><ele>171.0</ele><time>2026-04-25T17:08:09.998Z</time></trkpt><trkpt lat="45.90487085388393" lon="12.11901865997698"><ele>169.83333333333334</ele><time>2026-04-25T17:08:12.998Z</time></trkpt><trkpt lat="45.90484706678706" lon="12.118922668074298"><ele>168.66666666666666</ele><time>2026-04-25T17:08:15.998Z</time></trkpt><trkpt lat="45.904817059081815" lon="12.118795644766957"><ele>167.5</ele><time>2026-04-25T17:08:18.998Z</time></trkpt><trkpt lat="45.90479128332774" lon="12.118694370126715"><ele>166.33333333333331</ele><time>2026-04-25T17:08:20.998Z</time></trkpt><trkpt lat="45.90475981326049" lon="12.118588514506282"><ele>165.16666666666666</ele><time>2026-04-25T17:08:22.998Z</time></trkpt><trkpt lat="45.9047252225341" lon="12.118473759284296"><ele>164.0</ele><time>2026-04-25T17:08:24.998Z</time></trkpt><trkpt lat="45.90468400476904" lon="12.118360356698744"><ele>164.0</ele><time>2026-04-25T17:08:26.998Z</time></trkpt><trkpt lat="45.90464060101161" lon="12.118242618279742"><ele>164.0</ele><time>2026-04-25T17:08:29Z</time></trkpt><trkpt lat="45.90458867443847" lon="12.118123975046297"><ele>164.0</ele><time>2026-04-25T17:08:31Z</time></trkpt><trkpt lat="45.90452637527841" lon="12.118010031014453"><ele>164.0</ele><time>2026-04-25T17:08:33Z</time></trkpt><trkpt lat="45.904461090673806" lon="12.117898529056383"><ele>164.0</ele><time>2026-04-25T17:08:35Z</time></trkpt><trkpt lat="45.904388849060396" lon="12.11779641229978"><ele>164.39999999999998</ele><time>2026-04-25T17:08:37Z</time></trkpt><trkpt lat="45.90431432993103" lon="12.117696921832753"><ele>164.8</ele><time>2026-04-25T17:08:39Z</time></trkpt><trkpt lat="45.90423746162993" lon="12.117597373437368"><ele>165.2</ele><time>2026-04-25T17:08:41Z</time></trkpt><trkpt lat="45.9041574248378" lon="12.117497733978206"><ele>165.60000000000002</ele><time>2026-04-25T17:08:43Z</time></trkpt><trkpt lat="45.90407046786194" lon="12.117401239149235"><ele>166.0</ele><time>2026-04-25T17:08:45Z</time></trkpt><trkpt lat="45.90399270564964" lon="12.117295017766303"><ele>165.0</ele><time>2026-04-25T17:08:47Z</time></trkpt><trkpt lat="45.90393383082285" lon="12.117206367889853"><ele>164.0</ele><time>2026-04-25T17:08:49Z</time></trkpt><trkpt lat="45.90381095228149" lon="12.117235564279254"><ele>163.0</ele><time>2026-04-25T17:08:51Z</time></trkpt><trkpt lat="45.903709970501126" lon="12.117274695303246"><ele>162.0</ele><time>2026-04-25T17:08:53Z</time></trkpt><trkpt lat="45.90360756306145" lon="12.11731638049514"><ele>161.0</ele><time>2026-04-25T17:08:55Z</time></trkpt><trkpt lat="45.90350220186228" lon="12.117350292337902"><ele>160.66666666666666</ele><time>2026-04-25T17:08:57Z</time></trkpt><trkpt lat="45.903387528686736" lon="12.117379457059256"><ele>160.33333333333331</ele><time>2026-04-25T17:08:59Z</time></trkpt><trkpt lat="45.90326950908869" lon="12.117417632780022"><ele>160.0</ele><time>2026-04-25T17:09:01Z</time></trkpt><trkpt lat="45.903206416648466" lon="12.117440198654805"><ele>159.66666666666666</ele><time>2026-04-25T17:09:02Z</time></trkpt><trkpt lat="45.9031453896442" lon="12.117463083753918"><ele>159.33333333333334</ele><time>2026-04-25T17:09:03Z</time></trkpt><trkpt lat="45.90308265393287" lon="12.117484742805878"><ele>159.0</ele><time>2026-04-25T17:09:04Z</time></trkpt><trkpt lat="45.903015902474294" lon="12.117506002031313"><ele>159.0</ele><time>2026-04-25T17:09:05Z</time></trkpt><trkpt lat="45.90295009180369" lon="12.117523225778639"><ele>159.0</ele><time>2026-04-25T17:09:06Z</time></trkpt><trkpt lat="45.90288315894525" lon="12.117540291429613"><ele>159.0</ele><time>2026-04-25T17:09:07Z</time></trkpt><trkpt lat="45.902818917702824" lon="12.11755615016974"><ele>159.0</ele><time>2026-04-25T17:09:08Z</time></trkpt><trkpt lat="45.902756255910035" lon="12.11757067667118"><ele>159.0</ele><time>2026-04-25T17:09:09Z</time></trkpt><trkpt lat="45.9026331249066" lon="12.117593972600183"><ele>159.0</ele><time>2026-04-25T17:09:11Z</time></trkpt><trkpt lat="45.902516063248264" lon="12.117566327733847"><ele>158.6</ele><time>2026-04-25T17:09:13Z</time></trkpt><trkpt lat="45.90241051389752" lon="12.117476729577188"><ele>158.2</ele><time>2026-04-25T17:09:15Z</time></trkpt><trkpt lat="45.90229325562857" lon="12.117409072631228"><ele>157.79999999999998</ele><time>2026-04-25T17:09:16.999Z</time></trkpt><trkpt lat="45.90217944553311" lon="12.117355560351958"><ele>157.4</ele><time>2026-04-25T17:09:18.999Z</time></trkpt><trkpt lat="45.902114127889675" lon="12.1173937831793"><ele>157.0</ele><time>2026-04-25T17:09:19.999Z</time></trkpt><trkpt lat="45.90205488981556" lon="12.117444181598511"><ele>156.79999999999998</ele><time>2026-04-25T17:09:20.999Z</time></trkpt><trkpt lat="45.90194189335661" lon="12.11752655112182"><ele>156.6</ele><time>2026-04-25T17:09:22.999Z</time></trkpt><trkpt lat="45.90188520232514" lon="12.11756787659213"><ele>156.39999999999998</ele><time>2026-04-25T17:09:23.999Z</time></trkpt><trkpt lat="45.90177097567522" lon="12.11764894733763"><ele>156.2</ele><time>2026-04-25T17:09:25.999Z</time></trkpt><trkpt lat="45.901654125473605" lon="12.117727548853313"><ele>156.0</ele><time>2026-04-25T17:09:27.999Z</time></trkpt><trkpt lat="45.90159260372583" lon="12.117764045091635"><ele>155.57142857142858</ele><time>2026-04-25T17:09:28.999Z</time></trkpt><trkpt lat="45.901526986194554" lon="12.117797761448472"><ele>155.14285714285714</ele><time>2026-04-25T17:09:29.999Z</time></trkpt><trkpt lat="45.90145997936764" lon="12.117832902231969"><ele>154.71428571428572</ele><time>2026-04-25T17:09:30.999Z</time></trkpt><trkpt lat="45.901393917135245" lon="12.117867547636815"><ele>154.28571428571428</ele><time>2026-04-25T17:09:31.999Z</time></trkpt><trkpt lat="45.90132586426503" lon="12.11790342438388"><ele>153.85714285714286</ele><time>2026-04-25T17:09:32.999Z</time></trkpt><trkpt lat="45.90125935592537" lon="12.117939455051017"><ele>153.42857142857142</ele><time>2026-04-25T17:09:33.999Z</time></trkpt><trkpt lat="45.90119387799217" lon="12.117974927347364"><ele>153.0</ele><time>2026-04-25T17:09:34.999Z</time></trkpt><trkpt lat="45.90112925959743" lon="12.118009934091878"><ele>153.0</ele><time>2026-04-25T17:09:35.999Z</time></trkpt><trkpt lat="45.901066130078455" lon="12.118044134238573"><ele>153.0</ele><time>2026-04-25T17:09:36.999Z</time></trkpt><trkpt lat="45.9010035659059" lon="12.118078028045876"><ele>153.0</ele><time>2026-04-25T17:09:37.999Z</time></trkpt><trkpt lat="45.90094184237378" lon="12.118111466529882"><ele>153.0</ele><time>2026-04-25T17:09:38.999Z</time></trkpt><trkpt lat="45.90087910428752" lon="12.118145454519047"><ele>153.0</ele><time>2026-04-25T17:09:39.999Z</time></trkpt><trkpt lat="45.90081833930987" lon="12.118177272212467"><ele>153.0</ele><time>2026-04-25T17:09:40.999Z</time></trkpt><trkpt lat="45.900704826610045" lon="12.118229453183742"><ele>152.0</ele><time>2026-04-25T17:09:42.999Z</time></trkpt><trkpt lat="45.900623032597096" lon="12.11827820267873"><ele>151.0</ele><time>2026-04-25T17:09:44.999Z</time></trkpt><trkpt lat="45.900554014901566" lon="12.118273895457635"><ele>150.0</ele><time>2026-04-25T17:09:46.999Z</time></trkpt><trkpt lat="45.90046578485957" lon="12.118274397135556"><ele>149.0</ele><time>2026-04-25T17:09:49.999Z</time></trkpt><trkpt lat="45.900369913467635" lon="12.118274172391017"><ele>148.0</ele><time>2026-04-25T17:09:51.999Z</time></trkpt><trkpt lat="45.90026034724534" lon="12.118251946489824"><ele>148.0</ele><time>2026-04-25T17:09:53.999Z</time></trkpt><trkpt lat="45.900152785677385" lon="12.118232350922638"><ele>148.0</ele><time>2026-04-25T17:09:55.999Z</time></trkpt><trkpt lat="45.900044049528226" lon="12.118203925366258"><ele>148.0</ele><time>2026-04-25T17:09:57.999Z</time></trkpt><trkpt lat="45.89993794321742" lon="12.118168259095238"><ele>148.0</ele><time>2026-04-25T17:09:59.998Z</time></trkpt><trkpt lat="45.89987292887493" lon="12.11816822705522"><ele>148.0</ele><time>2026-04-25T17:10:00.998Z</time></trkpt><trkpt lat="45.89975526637555" lon="12.118118634284139"><ele>148.0</ele><time>2026-04-25T17:10:02.998Z</time></trkpt><trkpt lat="45.899646077221384" lon="12.118046784731687"><ele>148.0</ele><time>2026-04-25T17:10:04.998Z</time></trkpt><trkpt lat="45.89953149657496" lon="12.11798783513182"><ele>148.0</ele><time>2026-04-25T17:10:06.998Z</time></trkpt><trkpt lat="45.899432024887" lon="12.117882615497683"><ele>148.0</ele><time>2026-04-25T17:10:08.998Z</time></trkpt><trkpt lat="45.89935143972929" lon="12.117746320277396"><ele>148.0</ele><time>2026-04-25T17:10:10.998Z</time></trkpt><trkpt lat="45.89931407964673" lon="12.117671615706826"><ele>148.0</ele><time>2026-04-25T17:10:11.998Z</time></trkpt><trkpt lat="45.89927928981858" lon="12.117592731744596"><ele>148.0</ele><time>2026-04-25T17:10:12.998Z</time></trkpt><trkpt lat="45.89924051610469" lon="12.11751963297968"><ele>148.0</ele><time>2026-04-25T17:10:13.998Z</time></trkpt><trkpt lat="45.89920040105684" lon="12.11744845727374"><ele>148.0</ele><time>2026-04-25T17:10:14.997Z</time></trkpt><trkpt lat="45.89909324719535" lon="12.117353747321639"><ele>148.0</ele><time>2026-04-25T17:10:16.997Z</time></trkpt><trkpt lat="45.89903000497672" lon="12.117331522078354"><ele>148.0</ele><time>2026-04-25T17:10:17.997Z</time></trkpt><trkpt lat="45.8989709096131" lon="12.117291046898325"><ele>147.57142857142858</ele><time>2026-04-25T17:10:18.997Z</time></trkpt><trkpt lat="45.89890535680343" lon="12.117267323046107"><ele>147.14285714285714</ele><time>2026-04-25T17:10:19.997Z</time></trkpt><trkpt lat="45.89883485459077" lon="12.11726627308005"><ele>146.71428571428572</ele><time>2026-04-25T17:10:20.997Z</time></trkpt><trkpt lat="45.89876919052509" lon="12.11721838831102"><ele>146.28571428571428</ele><time>2026-04-25T17:10:21.997Z</time></trkpt><trkpt lat="45.898699913788334" lon="12.117193491962349"><ele>145.85714285714286</ele><time>2026-04-25T17:10:22.997Z</time></trkpt><trkpt lat="45.89862549834799" lon="12.117189299060884"><ele>145.42857142857144</ele><time>2026-04-25T17:10:23.997Z</time></trkpt><trkpt lat="45.89855573223707" lon="12.117159525462037"><ele>145.0</ele><time>2026-04-25T17:10:24.997Z</time></trkpt><trkpt lat="45.89848365491767" lon="12.117131924623884"><ele>144.71428571428572</ele><time>2026-04-25T17:10:25.997Z</time></trkpt><trkpt lat="45.89841674287125" lon="12.117103792901233"><ele>144.42857142857144</ele><time>2026-04-25T17:10:26.997Z</time></trkpt><trkpt lat="45.89834578248816" lon="12.117078806101159"><ele>144.14285714285714</ele><time>2026-04-25T17:10:27.997Z</time></trkpt><trkpt lat="45.89827735353777" lon="12.117058865738978"><ele>143.85714285714286</ele><time>2026-04-25T17:10:28.997Z</time></trkpt><trkpt lat="45.89820989738289" lon="12.117012575462892"><ele>143.57142857142856</ele><time>2026-04-25T17:10:29.997Z</time></trkpt><trkpt lat="45.8981319344486" lon="12.117009785146864"><ele>143.28571428571428</ele><time>2026-04-25T17:10:30.997Z</time></trkpt><trkpt lat="45.898061033376386" lon="12.116984287819239"><ele>143.0</ele><time>2026-04-25T17:10:31.997Z</time></trkpt><trkpt lat="45.89798704245864" lon="12.116969629243673"><ele>143.0</ele><time>2026-04-25T17:10:32.997Z</time></trkpt><trkpt lat="45.89791546057275" lon="12.116946577264695"><ele>143.0</ele><time>2026-04-25T17:10:33.997Z</time></trkpt><trkpt lat="45.89783978304837" lon="12.116929345826609"><ele>143.0</ele><time>2026-04-25T17:10:34.999Z</time></trkpt><trkpt lat="45.897766591388866" lon="12.116908382830857"><ele>143.0</ele><time>2026-04-25T17:10:36Z</time></trkpt><trkpt lat="45.89769136719811" lon="12.116881167402811"><ele>143.0</ele><time>2026-04-25T17:10:36.999Z</time></trkpt><trkpt lat="45.8976161016725" lon="12.11687026209283"><ele>143.0</ele><time>2026-04-25T17:10:38Z</time></trkpt><trkpt lat="45.89754349979191" lon="12.116850511900902"><ele>142.14285714285714</ele><time>2026-04-25T17:10:39Z</time></trkpt><trkpt lat="45.89747098534672" lon="12.116839185152486"><ele>141.28571428571428</ele><time>2026-04-25T17:10:40Z</time></trkpt><trkpt lat="45.89740052883812" lon="12.116829928113274"><ele>140.42857142857144</ele><time>2026-04-25T17:10:41Z</time></trkpt><trkpt lat="45.897329401488605" lon="12.116823244687804"><ele>139.57142857142856</ele><time>2026-04-25T17:10:42Z</time></trkpt><trkpt lat="45.89725797947406" lon="12.116818509940183"><ele>138.71428571428572</ele><time>2026-04-25T17:10:43Z</time></trkpt><trkpt lat="45.89718717181593" lon="12.116799983589218"><ele>137.85714285714286</ele><time>2026-04-25T17:10:44Z</time></trkpt><trkpt lat="45.89712089461744" lon="12.116822295757427"><ele>137.0</ele><time>2026-04-25T17:10:45Z</time></trkpt><trkpt lat="45.897056724161914" lon="12.116862331733223"><ele>137.00000000000003</ele><time>2026-04-25T17:10:46Z</time></trkpt><trkpt lat="45.896994364162964" lon="12.11692445928295"><ele>137.0</ele><time>2026-04-25T17:10:47Z</time></trkpt><trkpt lat="45.896950726704794" lon="12.11700545032511"><ele>137.0</ele><time>2026-04-25T17:10:48Z</time></trkpt><trkpt lat="45.89689874661446" lon="12.117067387521184"><ele>137.0</ele><time>2026-04-25T17:10:49Z</time></trkpt><trkpt lat="45.89684304452746" lon="12.117118052754757"><ele>137.0</ele><time>2026-04-25T17:10:50Z</time></trkpt><trkpt lat="45.8967800445521" lon="12.117147295098267"><ele>137.00000000000003</ele><time>2026-04-25T17:10:50.999Z</time></trkpt><trkpt lat="45.89671199259207" lon="12.11716604750717"><ele>137.0</ele><time>2026-04-25T17:10:51.999Z</time></trkpt><trkpt lat="45.89664028830522" lon="12.117185428771604"><ele>136.85714285714286</ele><time>2026-04-25T17:10:52.999Z</time></trkpt><trkpt lat="45.89657024020258" lon="12.11722714998693"><ele>136.71428571428572</ele><time>2026-04-25T17:10:53.999Z</time></trkpt><trkpt lat="45.89649620081778" lon="12.11722908928648"><ele>136.57142857142856</ele><time>2026-04-25T17:10:54.999Z</time></trkpt><trkpt lat="45.89642744088995" lon="12.117248206658152"><ele>136.42857142857144</ele><time>2026-04-25T17:10:55.999Z</time></trkpt><trkpt lat="45.896357608173425" lon="12.117266636064826"><ele>136.28571428571428</ele><time>2026-04-25T17:10:56.999Z</time></trkpt><trkpt lat="45.89629123305366" lon="12.11730881897647"><ele>136.14285714285714</ele><time>2026-04-25T17:10:57.999Z</time></trkpt><trkpt lat="45.8962207062938" lon="12.117326991691211"><ele>136.0</ele><time>2026-04-25T17:10:58.999Z</time></trkpt><trkpt lat="45.896149256729466" lon="12.117338426855381"><ele>135.99999999999997</ele><time>2026-04-25T17:10:59.999Z</time></trkpt><trkpt lat="45.89608491050877" lon="12.117382030187999"><ele>136.0</ele><time>2026-04-25T17:11:00.999Z</time></trkpt><trkpt lat="45.896016194383996" lon="12.11741238688703"><ele>136.0</ele><time>2026-04-25T17:11:01.999Z</time></trkpt><trkpt lat="45.895956183417745" lon="12.117471340457824"><ele>136.0</ele><time>2026-04-25T17:11:02.999Z</time></trkpt><trkpt lat="45.89589441510279" lon="12.117509267359155"><ele>136.0</ele><time>2026-04-25T17:11:03.999Z</time></trkpt><trkpt lat="45.89581962028291" lon="12.117521401011908"><ele>135.99999999999997</ele><time>2026-04-25T17:11:04.999Z</time></trkpt><trkpt lat="45.895750755807356" lon="12.117537958566105"><ele>136.0</ele><time>2026-04-25T17:11:05.999Z</time></trkpt><trkpt lat="45.895683511141215" lon="12.117536296081996"><ele>135.99999999999997</ele><time>2026-04-25T17:11:06.999Z</time></trkpt><trkpt lat="45.89561774491411" lon="12.117523354653372"><ele>136.0</ele><time>2026-04-25T17:11:07.999Z</time></trkpt><trkpt lat="45.895554485161604" lon="12.117486972723857"><ele>136.0</ele><time>2026-04-25T17:11:08.999Z</time></trkpt><trkpt lat="45.895492940394455" lon="12.117459362928294"><ele>136.0</ele><time>2026-04-25T17:11:09.999Z</time></trkpt><trkpt lat="45.89544688654767" lon="12.117376536551244"><ele>136.0</ele><time>2026-04-25T17:11:10.999Z</time></trkpt><trkpt lat="45.89538172763913" lon="12.117346511633453"><ele>135.99999999999997</ele><time>2026-04-25T17:11:11.999Z</time></trkpt><trkpt lat="45.89532670693742" lon="12.117293772019405"><ele>136.0</ele><time>2026-04-25T17:11:12.999Z</time></trkpt><trkpt lat="45.89525961306336" lon="12.11728203645088"><ele>136.0</ele><time>2026-04-25T17:11:13.999Z</time></trkpt><trkpt lat="45.89519415227927" lon="12.117323605504081"><ele>136.0</ele><time>2026-04-25T17:11:14.999Z</time></trkpt><trkpt lat="45.89513007956789" lon="12.117349421155861"><ele>136.0</ele><time>2026-04-25T17:11:15.999Z</time></trkpt><trkpt lat="45.89506205103498" lon="12.117351603714994"><ele>136.0</ele><time>2026-04-25T17:11:16.999Z</time></trkpt><trkpt lat="45.89500015240365" lon="12.117370605740078"><ele>136.0</ele><time>2026-04-25T17:11:17.999Z</time></trkpt><trkpt lat="45.894875376547716" lon="12.117412269605152"><ele>136.0</ele><time>2026-04-25T17:11:19.999Z</time></trkpt><trkpt lat="45.894760157629484" lon="12.117427392368127"><ele>136.0</ele><time>2026-04-25T17:11:21.999Z</time></trkpt><trkpt lat="45.894661089265504" lon="12.117363380592446"><ele>136.0</ele><time>2026-04-25T17:11:23.999Z</time></trkpt><trkpt lat="45.894622931844765" lon="12.11722730481138"><ele>136.0</ele><time>2026-04-25T17:11:25.999Z</time></trkpt><trkpt lat="45.894595290963295" lon="12.117117303436633"><ele>136.0</ele><time>2026-04-25T17:11:27.999Z</time></trkpt><trkpt lat="45.894549025397865" lon="12.11702601673531"><ele>136.0</ele><time>2026-04-25T17:11:29.999Z</time></trkpt><trkpt lat="45.89448536841212" lon="12.116960112447972"><ele>136.0</ele><time>2026-04-25T17:11:31.999Z</time></trkpt><trkpt lat="45.89440597419921" lon="12.116967971862108"><ele>136.0</ele><time>2026-04-25T17:11:33.998Z</time></trkpt><trkpt lat="45.894338843398806" lon="12.116946462323213"><ele>136.0</ele><time>2026-04-25T17:11:35.998Z</time></trkpt><trkpt lat="45.894262341177274" lon="12.116968295829825"><ele>136.0</ele><time>2026-04-25T17:11:37.998Z</time></trkpt><trkpt lat="45.894170055203524" lon="12.116932372185353"><ele>136.0</ele><time>2026-04-25T17:11:39.998Z</time></trkpt><trkpt lat="45.894067019108924" lon="12.116904896352027"><ele>136.0</ele><time>2026-04-25T17:11:41.998Z</time></trkpt><trkpt lat="45.89395688559863" lon="12.11686783697656"><ele>136.25</ele><time>2026-04-25T17:11:43.998Z</time></trkpt><trkpt lat="45.89384035474576" lon="12.11682828520873"><ele>136.5</ele><time>2026-04-25T17:11:45.998Z</time></trkpt><trkpt lat="45.893712800387725" lon="12.116805934301116"><ele>136.75</ele><time>2026-04-25T17:11:47.998Z</time></trkpt><trkpt lat="45.89359411265041" lon="12.116757987395921"><ele>137.0</ele><time>2026-04-25T17:11:49.998Z</time></trkpt><trkpt lat="45.893481177584654" lon="12.116708895345225"><ele>136.79999999999998</ele><time>2026-04-25T17:11:51.998Z</time></trkpt><trkpt lat="45.89339084144879" lon="12.116676629387158"><ele>136.6</ele><time>2026-04-25T17:11:53.998Z</time></trkpt><trkpt lat="45.89331437283961" lon="12.116651792986925"><ele>136.39999999999998</ele><time>2026-04-25T17:11:55.998Z</time></trkpt><trkpt lat="45.893272436112895" lon="12.11653275031071"><ele>136.2</ele><time>2026-04-25T17:11:57.998Z</time></trkpt><trkpt lat="45.893259162466656" lon="12.116378789187754"><ele>136.0</ele><time>2026-04-25T17:11:59.998Z</time></trkpt><trkpt lat="45.89323898945665" lon="12.116227815076904"><ele>136.0</ele><time>2026-04-25T17:12:01.998Z</time></trkpt><trkpt lat="45.89323126979404" lon="12.116069398653353"><ele>136.0</ele><time>2026-04-25T17:12:03.998Z</time></trkpt><trkpt lat="45.893220341726526" lon="12.115899647744332"><ele>136.0</ele><time>2026-04-25T17:12:05.998Z</time></trkpt><trkpt lat="45.89321216226517" lon="12.115725069933172"><ele>136.0</ele><time>2026-04-25T17:12:07.998Z</time></trkpt><trkpt lat="45.89321012112552" lon="12.115551179206655"><ele>136.0</ele><time>2026-04-25T17:12:09.998Z</time></trkpt><trkpt lat="45.893211212723024" lon="12.115379862817113"><ele>136.0</ele><time>2026-04-25T17:12:11.998Z</time></trkpt><trkpt lat="45.89321058114068" lon="12.11521346927559"><ele>136.0</ele><time>2026-04-25T17:12:13.998Z</time></trkpt><trkpt lat="45.89321368188007" lon="12.115048192847192"><ele>136.0</ele><time>2026-04-25T17:12:15.998Z</time></trkpt><trkpt lat="45.89324741994225" lon="12.114890663571414"><ele>136.0</ele><time>2026-04-25T17:12:17.997Z</time></trkpt><trkpt lat="45.8933348781098" lon="12.114771597570469"><ele>136.0</ele><time>2026-04-25T17:12:19.997Z</time></trkpt><trkpt lat="45.89341706010312" lon="12.114659964332908"><ele>136.0</ele><time>2026-04-25T17:12:21.997Z</time></trkpt><trkpt lat="45.89349899662495" lon="12.114548370714747"><ele>136.0</ele><time>2026-04-25T17:12:23.997Z</time></trkpt><trkpt lat="45.89356411117955" lon="12.114418643870934"><ele>136.25</ele><time>2026-04-25T17:12:25.997Z</time></trkpt><trkpt lat="45.89359396664773" lon="12.114263242866631"><ele>136.5</ele><time>2026-04-25T17:12:27.997Z</time></trkpt><trkpt lat="45.89359638088746" lon="12.114097837537532"><ele>136.75</ele><time>2026-04-25T17:12:29.997Z</time></trkpt><trkpt lat="45.89359165485272" lon="12.113931506721205"><ele>137.0</ele><time>2026-04-25T17:12:31.997Z</time></trkpt><trkpt lat="45.89358574202775" lon="12.113767836136935"><ele>137.0</ele><time>2026-04-25T17:12:33.997Z</time></trkpt><trkpt lat="45.893576582762265" lon="12.113602675238814"><ele>137.0</ele><time>2026-04-25T17:12:35.997Z</time></trkpt><trkpt lat="45.893580282465294" lon="12.113436503669526"><ele>137.0</ele><time>2026-04-25T17:12:37.997Z</time></trkpt><trkpt lat="45.89359582982304" lon="12.113281683451703"><ele>137.0</ele><time>2026-04-25T17:12:39.997Z</time></trkpt><trkpt lat="45.89361407698874" lon="12.113143006002744"><ele>137.0</ele><time>2026-04-25T17:12:42Z</time></trkpt><trkpt lat="45.89362162555397" lon="12.113026001606151"><ele>136.79999999999998</ele><time>2026-04-25T17:12:44Z</time></trkpt><trkpt lat="45.89364171608892" lon="12.112930426044125"><ele>136.6</ele><time>2026-04-25T17:12:46Z</time></trkpt><trkpt lat="45.89352022076843" lon="12.11285729370088"><ele>136.39999999999998</ele><time>2026-04-25T17:12:48Z</time></trkpt><trkpt lat="45.89346604289253" lon="12.112939908928444"><ele>136.2</ele><time>2026-04-25T17:12:49Z</time></trkpt><trkpt lat="45.89335377151356" lon="12.113005671386166"><ele>136.0</ele><time>2026-04-25T17:12:51Z</time></trkpt><trkpt lat="45.89330375739375" lon="12.113064458778107"><ele>136.0</ele><time>2026-04-25T17:12:52Z</time></trkpt><trkpt lat="45.89319035960817" lon="12.113143854887152"><ele>136.0</ele><time>2026-04-25T17:12:54Z</time></trkpt><trkpt lat="45.89313136396296" lon="12.11318379822107"><ele>136.0</ele><time>2026-04-25T17:12:55Z</time></trkpt><trkpt lat="45.89307142954637" lon="12.11321666196855"><ele>136.0</ele><time>2026-04-25T17:12:56Z</time></trkpt><trkpt lat="45.892956782253606" lon="12.11325600392986"><ele>136.0</ele><time>2026-04-25T17:12:58Z</time></trkpt><trkpt lat="45.892839428269646" lon="12.113299248946536"><ele>136.4</ele><time>2026-04-25T17:13:00Z</time></trkpt><trkpt lat="45.89274913940075" lon="12.113388580899745"><ele>136.8</ele><time>2026-04-25T17:13:02Z</time></trkpt><trkpt lat="45.8926555624833" lon="12.1134625721275"><ele>137.20000000000002</ele><time>2026-04-25T17:13:04Z</time></trkpt><trkpt lat="45.89256036598524" lon="12.113538169379002"><ele>137.6</ele><time>2026-04-25T17:13:06Z</time></trkpt><trkpt lat="45.892447527222814" lon="12.113611060374332"><ele>138.0</ele><time>2026-04-25T17:13:08Z</time></trkpt><trkpt lat="45.892382271063" lon="12.11360766769771"><ele>138.14285714285714</ele><time>2026-04-25T17:13:08.999Z</time></trkpt><trkpt lat="45.89231878195886" lon="12.113632593814163"><ele>138.2857142857143</ele><time>2026-04-25T17:13:09.999Z</time></trkpt><trkpt lat="45.89226223533837" lon="12.113589497961932"><ele>138.42857142857144</ele><time>2026-04-25T17:13:10.999Z</time></trkpt><trkpt lat="45.892201712296774" lon="12.11355524113513"><ele>138.57142857142858</ele><time>2026-04-25T17:13:11.999Z</time></trkpt><trkpt lat="45.89213788084641" lon="12.113536771523536"><ele>138.71428571428572</ele><time>2026-04-25T17:13:12.999Z</time></trkpt><trkpt lat="45.892070972115654" lon="12.113517411260878"><ele>138.85714285714286</ele><time>2026-04-25T17:13:13.999Z</time></trkpt><trkpt lat="45.89200119960805" lon="12.113520150104074"><ele>139.0</ele><time>2026-04-25T17:13:14.999Z</time></trkpt><trkpt lat="45.89193596028395" lon="12.113487984969911"><ele>139.0</ele><time>2026-04-25T17:13:15.999Z</time></trkpt><trkpt lat="45.89187285339844" lon="12.113469590718873"><ele>139.0</ele><time>2026-04-25T17:13:16.999Z</time></trkpt><trkpt lat="45.89180913346301" lon="12.113436516166322"><ele>139.0</ele><time>2026-04-25T17:13:17.999Z</time></trkpt><trkpt lat="45.89175225240093" lon="12.113397682542535"><ele>139.0</ele><time>2026-04-25T17:13:18.999Z</time></trkpt><trkpt lat="45.891695557800354" lon="12.113348708569896"><ele>139.0</ele><time>2026-04-25T17:13:19.999Z</time></trkpt><trkpt lat="45.8916389122009" lon="12.113292317254261"><ele>139.0</ele><time>2026-04-25T17:13:20.999Z</time></trkpt><trkpt lat="45.89158531128973" lon="12.113232402525972"><ele>139.0</ele><time>2026-04-25T17:13:21.999Z</time></trkpt><trkpt lat="45.89152849774343" lon="12.113188630385244"><ele>138.28571428571428</ele><time>2026-04-25T17:13:22.999Z</time></trkpt><trkpt lat="45.891471734806615" lon="12.113138250066397"><ele>137.57142857142858</ele><time>2026-04-25T17:13:23.999Z</time></trkpt><trkpt lat="45.89142204713776" lon="12.113050126507334"><ele>136.85714285714286</ele><time>2026-04-25T17:13:24.999Z</time></trkpt><trkpt lat="45.89136821769726" lon="12.112983364841767"><ele>136.14285714285714</ele><time>2026-04-25T17:13:25.999Z</time></trkpt><trkpt lat="45.89132194565496" lon="12.112912899214194"><ele>135.42857142857142</ele><time>2026-04-25T17:13:26.999Z</time></trkpt><trkpt lat="45.89127480733509" lon="12.112832551749026"><ele>134.71428571428572</ele><time>2026-04-25T17:13:27.999Z</time></trkpt><trkpt lat="45.89122959800681" lon="12.112750120934955"><ele>134.0</ele><time>2026-04-25T17:13:28.999Z</time></trkpt><trkpt lat="45.8911870412651" lon="12.112669148340352"><ele>134.0</ele><time>2026-04-25T17:13:29.999Z</time></trkpt><trkpt lat="45.891133651177235" lon="12.112596181076466"><ele>134.0</ele><time>2026-04-25T17:13:30.999Z</time></trkpt><trkpt lat="45.891097474182324" lon="12.112509645507831"><ele>134.0</ele><time>2026-04-25T17:13:31.999Z</time></trkpt><trkpt lat="45.89106364412261" lon="12.112422057658698"><ele>134.0</ele><time>2026-04-25T17:13:32.999Z</time></trkpt><trkpt lat="45.89104098228424" lon="12.112336359824642"><ele>134.0</ele><time>2026-04-25T17:13:33.999Z</time></trkpt><trkpt lat="45.891023933729436" lon="12.112239341493858"><ele>134.0</ele><time>2026-04-25T17:13:34.999Z</time></trkpt><trkpt lat="45.89102242543867" lon="12.112143576349474"><ele>134.0</ele><time>2026-04-25T17:13:35.999Z</time></trkpt><trkpt lat="45.891035045900125" lon="12.11204644926248"><ele>133.66666666666666</ele><time>2026-04-25T17:13:36.999Z</time></trkpt><trkpt lat="45.8910896829538" lon="12.11196931599988"><ele>133.33333333333331</ele><time>2026-04-25T17:13:37.999Z</time></trkpt><trkpt lat="45.8911137834051" lon="12.111880643210888"><ele>133.0</ele><time>2026-04-25T17:13:38.999Z</time></trkpt><trkpt lat="45.891116358314264" lon="12.111785334524358"><ele>132.66666666666666</ele><time>2026-04-25T17:13:39.999Z</time></trkpt><trkpt lat="45.89111287665308" lon="12.111687872614205"><ele>132.33333333333334</ele><time>2026-04-25T17:13:40.999Z</time></trkpt><trkpt lat="45.89108912688591" lon="12.11160124499939"><ele>132.0</ele><time>2026-04-25T17:13:41.999Z</time></trkpt><trkpt lat="45.891071740310075" lon="12.111424955917197"><ele>132.0</ele><time>2026-04-25T17:13:43.999Z</time></trkpt><trkpt lat="45.891068860982564" lon="12.111265399725674"><ele>132.0</ele><time>2026-04-25T17:13:45.999Z</time></trkpt><trkpt lat="45.89110939045336" lon="12.111141424403515"><ele>132.0</ele><time>2026-04-25T17:13:47.999Z</time></trkpt><trkpt lat="45.89117606420315" lon="12.111027135078807"><ele>132.0</ele><time>2026-04-25T17:13:49.999Z</time></trkpt><trkpt lat="45.891235903731726" lon="12.110872779779733"><ele>132.0</ele><time>2026-04-25T17:13:51.999Z</time></trkpt><trkpt lat="45.8912272478074" lon="12.11069548869226"><ele>132.0</ele><time>2026-04-25T17:13:53.998Z</time></trkpt><trkpt lat="45.89117737748431" lon="12.110628372547358"><ele>132.0</ele><time>2026-04-25T17:13:54.998Z</time></trkpt><trkpt lat="45.8911143698017" lon="12.110488631663136"><ele>132.0</ele><time>2026-04-25T17:13:56.998Z</time></trkpt><trkpt lat="45.89103827817989" lon="12.110360518125496"><ele>132.0</ele><time>2026-04-25T17:13:58.998Z</time></trkpt><trkpt lat="45.890963784597936" lon="12.110214652188521"><ele>132.0</ele><time>2026-04-25T17:14:00.998Z</time></trkpt><trkpt lat="45.890904126306275" lon="12.11005996476153"><ele>131.6</ele><time>2026-04-25T17:14:02.998Z</time></trkpt><trkpt lat="45.89087404274722" lon="12.109977645071098"><ele>131.2</ele><time>2026-04-25T17:14:03.998Z</time></trkpt><trkpt lat="45.890806509057114" lon="12.109824308639432"><ele>130.8</ele><time>2026-04-25T17:14:05.998Z</time></trkpt><trkpt lat="45.89073030767093" lon="12.109682229715139"><ele>130.4</ele><time>2026-04-25T17:14:07.998Z</time></trkpt><trkpt lat="45.890670079464606" lon="12.109552769418277"><ele>130.0</ele><time>2026-04-25T17:14:09.998Z</time></trkpt><trkpt lat="45.89064487114384" lon="12.109433718048425"><ele>130.0</ele><time>2026-04-25T17:14:11.998Z</time></trkpt><trkpt lat="45.890705409695045" lon="12.109363408541078"><ele>130.0</ele><time>2026-04-25T17:14:13.998Z</time></trkpt><trkpt lat="45.89077007897124" lon="12.109300219277275"><ele>130.0</ele><time>2026-04-25T17:14:15.998Z</time></trkpt><trkpt lat="45.89085973030647" lon="12.109252993044171"><ele>130.0</ele><time>2026-04-25T17:14:17.998Z</time></trkpt><trkpt lat="45.890946563849724" lon="12.10920849473144"><ele>130.0</ele><time>2026-04-25T17:14:19.998Z</time></trkpt><trkpt lat="45.89102665202029" lon="12.109137041153696"><ele>130.0</ele><time>2026-04-25T17:14:21.998Z</time></trkpt><trkpt lat="45.8910545066473" lon="12.109004507924201"><ele>130.5</ele><time>2026-04-25T17:14:23.998Z</time></trkpt><trkpt lat="45.89099814074006" lon="12.108869683579593"><ele>131.0</ele><time>2026-04-25T17:14:25.998Z</time></trkpt><trkpt lat="45.8909875185484" lon="12.10877657765929"><ele>131.5</ele><time>2026-04-25T17:14:27.998Z</time></trkpt><trkpt lat="45.89098325483351" lon="12.108894642393311"><ele>132.0</ele><time>2026-04-25T17:14:33.998Z</time></trkpt><trkpt lat="45.891046382893315" lon="12.10898932184623"><ele>132.5</ele><time>2026-04-25T17:14:35.998Z</time></trkpt><trkpt lat="45.89112318036088" lon="12.108943568509735"><ele>133.0</ele><time>2026-04-25T17:14:38.997Z</time></trkpt><trkpt lat="45.89122442901977" lon="12.10889511820635"><ele>133.0</ele><time>2026-04-25T17:14:41.997Z</time></trkpt><trkpt lat="45.89130216287168" lon="12.108857920131165"><ele>133.0</ele><time>2026-04-25T17:14:43.997Z</time></trkpt><trkpt lat="45.89137649212692" lon="12.108821426899903"><ele>133.0</ele><time>2026-04-25T17:14:45.997Z</time></trkpt><trkpt lat="45.89146079014663" lon="12.108757850963148"><ele>133.0</ele><time>2026-04-25T17:14:48Z</time></trkpt><trkpt lat="45.89154572888755" lon="12.10872258592701"><ele>133.0</ele><time>2026-04-25T17:14:50Z</time></trkpt><trkpt lat="45.89161483889305" lon="12.10867844846146"><ele>133.0</ele><time>2026-04-25T17:14:52Z</time></trkpt><trkpt lat="45.891675949516575" lon="12.108644822877524"><ele>133.0</ele><time>2026-04-25T17:14:53Z</time></trkpt><trkpt lat="45.891751611504816" lon="12.108605574824058"><ele>133.0</ele><time>2026-04-25T17:14:55Z</time></trkpt><trkpt lat="45.89183360710027" lon="12.10857078301267"><ele>133.0</ele><time>2026-04-25T17:14:57Z</time></trkpt><trkpt lat="45.89190459754724" lon="12.108550287575872"><ele>133.0</ele><time>2026-04-25T17:14:59Z</time></trkpt><trkpt lat="45.89196716834774" lon="12.108534751491822"><ele>133.0</ele><time>2026-04-25T17:15:01Z</time></trkpt><trkpt lat="45.89203815690247" lon="12.108521757511328"><ele>133.0</ele><time>2026-04-25T17:15:03Z</time></trkpt><trkpt lat="45.892113779965385" lon="12.108508418015093"><ele>132.83333333333334</ele><time>2026-04-25T17:15:05Z</time></trkpt><trkpt lat="45.89219452647461" lon="12.108499277817671"><ele>132.66666666666669</ele><time>2026-04-25T17:15:07Z</time></trkpt><trkpt lat="45.89227717512901" lon="12.10848976194837"><ele>132.5</ele><time>2026-04-25T17:15:09Z</time></trkpt><trkpt lat="45.892364557635815" lon="12.108471716309307"><ele>132.33333333333334</ele><time>2026-04-25T17:15:11Z</time></trkpt><trkpt lat="45.89244997823003" lon="12.1084300522464"><ele>132.16666666666666</ele><time>2026-04-25T17:15:13Z</time></trkpt><trkpt lat="45.89250696348852" lon="12.108376071244269"><ele>132.0</ele><time>2026-04-25T17:15:15Z</time></trkpt><trkpt lat="45.89257970524353" lon="12.108325728489255"><ele>132.16666666666666</ele><time>2026-04-25T17:15:17Z</time></trkpt><trkpt lat="45.8926587552313" lon="12.108274406740833"><ele>132.33333333333334</ele><time>2026-04-25T17:15:19Z</time></trkpt><trkpt lat="45.89273536930634" lon="12.108226834929237"><ele>132.5</ele><time>2026-04-25T17:15:21Z</time></trkpt><trkpt lat="45.89281056089895" lon="12.108181345520759"><ele>132.66666666666669</ele><time>2026-04-25T17:15:23Z</time></trkpt><trkpt lat="45.892887090648244" lon="12.10812984365239"><ele>132.83333333333334</ele><time>2026-04-25T17:15:25Z</time></trkpt><trkpt lat="45.89292952262012" lon="12.10802521665049"><ele>133.0</ele><time>2026-04-25T17:15:27Z</time></trkpt><trkpt lat="45.892926299733816" lon="12.1079083897484"><ele>133.33333333333334</ele><time>2026-04-25T17:15:28.999Z</time></trkpt><trkpt lat="45.89292074475443" lon="12.107784683822548"><ele>133.66666666666669</ele><time>2026-04-25T17:15:30.999Z</time></trkpt><trkpt lat="45.892976875674584" lon="12.107708662038874"><ele>134.0</ele><time>2026-04-25T17:15:32.999Z</time></trkpt><trkpt lat="45.893058232773576" lon="12.107705004631319"><ele>134.33333333333334</ele><time>2026-04-25T17:15:34.999Z</time></trkpt><trkpt lat="45.89313903924016" lon="12.107663659911054"><ele>134.66666666666666</ele><time>2026-04-25T17:15:36.999Z</time></trkpt><trkpt lat="45.89322340175673" lon="12.107624555086577"><ele>135.0</ele><time>2026-04-25T17:15:38.999Z</time></trkpt><trkpt lat="45.89331142364426" lon="12.107588413307585"><ele>135.0</ele><time>2026-04-25T17:15:40.999Z</time></trkpt><trkpt lat="45.89339552387235" lon="12.107559855920385"><ele>135.0</ele><time>2026-04-25T17:15:42.999Z</time></trkpt><trkpt lat="45.89348328236464" lon="12.107533381564"><ele>135.0</ele><time>2026-04-25T17:15:44.999Z</time></trkpt><trkpt lat="45.89357177810857" lon="12.10749313129319"><ele>135.0</ele><time>2026-04-25T17:15:46.999Z</time></trkpt><trkpt lat="45.89364393768551" lon="12.107409634163341"><ele>135.0</ele><time>2026-04-25T17:15:48.999Z</time></trkpt><trkpt lat="45.893717853888646" lon="12.107371040200816"><ele>135.0</ele><time>2026-04-25T17:15:50.999Z</time></trkpt><trkpt lat="45.89380172807755" lon="12.107358967904908"><ele>136.0</ele><time>2026-04-25T17:15:52.999Z</time></trkpt><trkpt lat="45.89389095672795" lon="12.107382910349106"><ele>137.0</ele><time>2026-04-25T17:15:54.999Z</time></trkpt><trkpt lat="45.89398067026195" lon="12.10739202515541"><ele>138.0</ele><time>2026-04-25T17:15:56.999Z</time></trkpt><trkpt lat="45.89407197784899" lon="12.107393610967874"><ele>139.0</ele><time>2026-04-25T17:15:58.999Z</time></trkpt><trkpt lat="45.89415735445636" lon="12.107399259874368"><ele>140.0</ele><time>2026-04-25T17:16:00.999Z</time></trkpt><trkpt lat="45.89424459041911" lon="12.10740226654722"><ele>141.0</ele><time>2026-04-25T17:16:02.999Z</time></trkpt><trkpt lat="45.89433009498325" lon="12.107410172203858"><ele>140.66666666666666</ele><time>2026-04-25T17:16:04.999Z</time></trkpt><trkpt lat="45.8944150607164" lon="12.107420490746808"><ele>140.33333333333334</ele><time>2026-04-25T17:16:06.999Z</time></trkpt><trkpt lat="45.894501918048505" lon="12.107435521572553"><ele>140.0</ele><time>2026-04-25T17:16:08.999Z</time></trkpt><trkpt lat="45.894582693257796" lon="12.107447595629644"><ele>139.66666666666669</ele><time>2026-04-25T17:16:10.999Z</time></trkpt><trkpt lat="45.894670324768036" lon="12.107476658040458"><ele>139.33333333333334</ele><time>2026-04-25T17:16:12.998Z</time></trkpt><trkpt lat="45.89475434338768" lon="12.107502877669049"><ele>139.0</ele><time>2026-04-25T17:16:14.998Z</time></trkpt><trkpt lat="45.89483239692188" lon="12.10751467777074"><ele>139.0</ele><time>2026-04-25T17:16:16.998Z</time></trkpt><trkpt lat="45.894922006776476" lon="12.107519327621924"><ele>139.0</ele><time>2026-04-25T17:16:18.998Z</time></trkpt><trkpt lat="45.89500804891125" lon="12.107534060829702"><ele>139.0</ele><time>2026-04-25T17:16:20.998Z</time></trkpt><trkpt lat="45.89509798775779" lon="12.107547624943306"><ele>139.0</ele><time>2026-04-25T17:16:22.998Z</time></trkpt><trkpt lat="45.89518255412973" lon="12.107536365820163"><ele>139.0</ele><time>2026-04-25T17:16:24.998Z</time></trkpt><trkpt lat="45.8952476610065" lon="12.107459661272106"><ele>139.0</ele><time>2026-04-25T17:16:26.998Z</time></trkpt><trkpt lat="45.895275427673084" lon="12.107344252629085"><ele>138.83333333333334</ele><time>2026-04-25T17:16:28.998Z</time></trkpt><trkpt lat="45.8952565665183" lon="12.107229090894212"><ele>138.66666666666669</ele><time>2026-04-25T17:16:30.998Z</time></trkpt><trkpt lat="45.89522231530314" lon="12.107127754490337"><ele>138.5</ele><time>2026-04-25T17:16:32.998Z</time></trkpt><trkpt lat="45.89518046878192" lon="12.107001394638301"><ele>138.33333333333334</ele><time>2026-04-25T17:16:35.998Z</time></trkpt><trkpt lat="45.895133452895756" lon="12.106919155730834"><ele>138.16666666666666</ele><time>2026-04-25T17:16:38.998Z</time></trkpt><trkpt lat="45.89508338843512" lon="12.106839810984102"><ele>138.0</ele><time>2026-04-25T17:16:41.998Z</time></trkpt><trkpt lat="45.89506695497876" lon="12.106744797233043"><ele>138.0</ele><time>2026-04-25T17:16:43.998Z</time></trkpt><trkpt lat="45.89509112867818" lon="12.106616546979202"><ele>138.0</ele><time>2026-04-25T17:16:46.998Z</time></trkpt><trkpt lat="45.89517243601471" lon="12.106545261120095"><ele>138.0</ele><time>2026-04-25T17:16:48.998Z</time></trkpt><trkpt lat="45.895239060408855" lon="12.106474315712314"><ele>138.0</ele><time>2026-04-25T17:16:50.998Z</time></trkpt><trkpt lat="45.89529575893832" lon="12.106378904201721"><ele>138.0</ele><time>2026-04-25T17:16:53Z</time></trkpt><trkpt lat="45.89533799802673" lon="12.106263880124061"><ele>138.0</ele><time>2026-04-25T17:16:55Z</time></trkpt><trkpt lat="45.895393633755575" lon="12.106186663554203"><ele>138.16666666666666</ele><time>2026-04-25T17:16:57Z</time></trkpt><trkpt lat="45.89545089281014" lon="12.10609650044428"><ele>138.33333333333334</ele><time>2026-04-25T17:16:59Z</time></trkpt><trkpt lat="45.895509742015285" lon="12.106030382722542"><ele>138.5</ele><time>2026-04-25T17:17:01Z</time></trkpt><trkpt lat="45.89558047696836" lon="12.105995049324322"><ele>138.66666666666669</ele><time>2026-04-25T17:17:03Z</time></trkpt><trkpt lat="45.895667004668425" lon="12.105936557877635"><ele>138.83333333333334</ele><time>2026-04-25T17:17:05Z</time></trkpt><trkpt lat="45.895756231860695" lon="12.105898558821869"><ele>139.0</ele><time>2026-04-25T17:17:07Z</time></trkpt><trkpt lat="45.89583874425522" lon="12.105832650806796"><ele>139.0</ele><time>2026-04-25T17:17:09Z</time></trkpt><trkpt lat="45.895923355082026" lon="12.105765368939686"><ele>139.0</ele><time>2026-04-25T17:17:11Z</time></trkpt><trkpt lat="45.896011485505596" lon="12.105715196927074"><ele>139.0</ele><time>2026-04-25T17:17:13Z</time></trkpt><trkpt lat="45.89610473005804" lon="12.105700588485238"><ele>139.0</ele><time>2026-04-25T17:17:15Z</time></trkpt><trkpt lat="45.896202220962245" lon="12.105688709786875"><ele>139.0</ele><time>2026-04-25T17:17:17Z</time></trkpt><trkpt lat="45.89630660992949" lon="12.105678675315112"><ele>139.0</ele><time>2026-04-25T17:17:19Z</time></trkpt><trkpt lat="45.89640715276092" lon="12.105662315672875"><ele>139.0</ele><time>2026-04-25T17:17:21Z</time></trkpt><trkpt lat="45.896506961177586" lon="12.105644720857368"><ele>139.0</ele><time>2026-04-25T17:17:23Z</time></trkpt><trkpt lat="45.89660798514477" lon="12.105618763467985"><ele>139.0</ele><time>2026-04-25T17:17:25Z</time></trkpt><trkpt lat="45.89670443089742" lon="12.105597500020455"><ele>139.0</ele><time>2026-04-25T17:17:27Z</time></trkpt><trkpt lat="45.896802882783184" lon="12.105578708707723"><ele>140.0</ele><time>2026-04-25T17:17:29Z</time></trkpt><trkpt lat="45.8969053429761" lon="12.105564007925649"><ele>141.0</ele><time>2026-04-25T17:17:31Z</time></trkpt><trkpt lat="45.896994341618644" lon="12.105482775228163"><ele>142.0</ele><time>2026-04-25T17:17:33Z</time></trkpt><trkpt lat="45.89700626089631" lon="12.105388549640448"><ele>143.0</ele><time>2026-04-25T17:17:34Z</time></trkpt><trkpt lat="45.89702989476506" lon="12.10525040787553"><ele>144.0</ele><time>2026-04-25T17:17:36Z</time></trkpt><trkpt lat="45.89702992109189" lon="12.105111320728131"><ele>144.0</ele><time>2026-04-25T17:17:38Z</time></trkpt><trkpt lat="45.897042811097705" lon="12.104968530247705"><ele>144.0</ele><time>2026-04-25T17:17:40Z</time></trkpt><trkpt lat="45.89710796455871" lon="12.104858545123195"><ele>144.0</ele><time>2026-04-25T17:17:42Z</time></trkpt><trkpt lat="45.89720184958089" lon="12.104804019115862"><ele>144.0</ele><time>2026-04-25T17:17:43.999Z</time></trkpt><trkpt lat="45.897297321604746" lon="12.104765195422102"><ele>144.0</ele><time>2026-04-25T17:17:45.999Z</time></trkpt><trkpt lat="45.89738664148316" lon="12.1047230156211"><ele>144.0</ele><time>2026-04-25T17:17:47.999Z</time></trkpt><trkpt lat="45.89747071004649" lon="12.104684822986973"><ele>144.0</ele><time>2026-04-25T17:17:49.999Z</time></trkpt><trkpt lat="45.89755833637209" lon="12.10464680295151"><ele>144.0</ele><time>2026-04-25T17:17:51.999Z</time></trkpt><trkpt lat="45.89764182986853" lon="12.104624253084767"><ele>144.0</ele><time>2026-04-25T17:17:53.999Z</time></trkpt><trkpt lat="45.89772995577137" lon="12.10459944458894"><ele>144.0</ele><time>2026-04-25T17:17:55.999Z</time></trkpt><trkpt lat="45.8978140711643" lon="12.104583897260927"><ele>144.0</ele><time>2026-04-25T17:17:57.999Z</time></trkpt><trkpt lat="45.89789226273964" lon="12.104564519289271"><ele>144.71428571428572</ele><time>2026-04-25T17:17:59.999Z</time></trkpt><trkpt lat="45.8979598798098" lon="12.104546266108974"><ele>145.42857142857144</ele><time>2026-04-25T17:18:01.999Z</time></trkpt><trkpt lat="45.89804636306711" lon="12.10451249771428"><ele>146.14285714285714</ele><time>2026-04-25T17:18:04.999Z</time></trkpt><trkpt lat="45.89811346773164" lon="12.10449827408281"><ele>146.85714285714286</ele><time>2026-04-25T17:18:06.999Z</time></trkpt><trkpt lat="45.898183588045775" lon="12.104484108410455"><ele>147.57142857142856</ele><time>2026-04-25T17:18:08.999Z</time></trkpt><trkpt lat="45.89825231294403" lon="12.104481858471352"><ele>148.28571428571428</ele><time>2026-04-25T17:18:10.999Z</time></trkpt><trkpt lat="45.898317478459234" lon="12.104484844158577"><ele>149.0</ele><time>2026-04-25T17:18:12.999Z</time></trkpt><trkpt lat="45.89840797474679" lon="12.104481268088662"><ele>149.5</ele><time>2026-04-25T17:18:15.998Z</time></trkpt><trkpt lat="45.898501834462735" lon="12.10448156487854"><ele>150.0</ele><time>2026-04-25T17:18:18.998Z</time></trkpt><trkpt lat="45.89859374847406" lon="12.104474413515328"><ele>150.5</ele><time>2026-04-25T17:18:21.998Z</time></trkpt><trkpt lat="45.898655584902684" lon="12.104456570536312"><ele>151.0</ele><time>2026-04-25T17:18:23.998Z</time></trkpt><trkpt lat="45.898740282037096" lon="12.104438938789958"><ele>151.5</ele><time>2026-04-25T17:18:26.997Z</time></trkpt><trkpt lat="45.898807211040584" lon="12.104416362269822"><ele>152.0</ele><time>2026-04-25T17:18:29.997Z</time></trkpt><trkpt lat="45.89887471239723" lon="12.104399075226576"><ele>152.0</ele><time>2026-04-25T17:18:33.997Z</time></trkpt><trkpt lat="45.898953510933254" lon="12.104390373874343"><ele>152.0</ele><time>2026-04-25T17:18:36.997Z</time></trkpt><trkpt lat="45.89902731856088" lon="12.104367900613575"><ele>152.0</ele><time>2026-04-25T17:18:39.997Z</time></trkpt><trkpt lat="45.89909784979339" lon="12.104349730123513"><ele>152.0</ele><time>2026-04-25T17:18:42.997Z</time></trkpt><trkpt lat="45.89917915502731" lon="12.104326745278964"><ele>152.0</ele><time>2026-04-25T17:18:45.997Z</time></trkpt><trkpt lat="45.899240829471246" lon="12.104295909682833"><ele>152.0</ele><time>2026-04-25T17:18:47.997Z</time></trkpt><trkpt lat="45.8993050025706" lon="12.104292869014158"><ele>152.0</ele><time>2026-04-25T17:18:49.997Z</time></trkpt><trkpt lat="45.899368482411795" lon="12.104284169106878"><ele>152.14285714285714</ele><time>2026-04-25T17:18:51.997Z</time></trkpt><trkpt lat="45.89943700916398" lon="12.104276653280266"><ele>152.2857142857143</ele><time>2026-04-25T17:18:53.997Z</time></trkpt><trkpt lat="45.89950179005946" lon="12.104273695040863"><ele>152.42857142857144</ele><time>2026-04-25T17:18:55.997Z</time></trkpt><trkpt lat="45.89956472734518" lon="12.104261558550268"><ele>152.57142857142856</ele><time>2026-04-25T17:18:57.997Z</time></trkpt><trkpt lat="45.89965528599615" lon="12.104244730962032"><ele>152.71428571428572</ele><time>2026-04-25T17:19:01Z</time></trkpt><trkpt lat="45.899740276923346" lon="12.104220443389526"><ele>152.85714285714286</ele><time>2026-04-25T17:19:04Z</time></trkpt><trkpt lat="45.899809202212296" lon="12.104196246325415"><ele>153.0</ele><time>2026-04-25T17:19:20.999Z</time></trkpt><trkpt lat="45.8999257962122" lon="12.104187681991224"><ele>153.0</ele><time>2026-04-25T17:19:25.999Z</time></trkpt><trkpt lat="45.900004435205375" lon="12.104169367127625"><ele>153.0</ele><time>2026-04-25T17:19:28.999Z</time></trkpt><trkpt lat="45.89999919181088" lon="12.10404137696043"><ele>153.0</ele><time>2026-04-25T17:19:36.999Z</time></trkpt><trkpt lat="45.90003259940293" lon="12.103924856275896"><ele>153.0</ele><time>2026-04-25T17:19:39.999Z</time></trkpt><trkpt lat="45.90006885704961" lon="12.10381459407903"><ele>153.0</ele><time>2026-04-25T17:19:42.999Z</time></trkpt><trkpt lat="45.900110282495525" lon="12.103705628230028"><ele>153.0</ele><time>2026-04-25T17:19:45.999Z</time></trkpt><trkpt lat="45.900169624820236" lon="12.10360472492468"><ele>153.83333333333334</ele><time>2026-04-25T17:19:48.999Z</time></trkpt><trkpt lat="45.900244476987616" lon="12.10352849010802"><ele>154.66666666666666</ele><time>2026-04-25T17:19:51.999Z</time></trkpt><trkpt lat="45.90032895229284" lon="12.103466924042923"><ele>155.5</ele><time>2026-04-25T17:19:54.999Z</time></trkpt><trkpt lat="45.9003867427557" lon="12.10342419531275"><ele>156.33333333333331</ele><time>2026-04-25T17:19:56.999Z</time></trkpt><trkpt lat="45.900446491108525" lon="12.10338294952534"><ele>157.16666666666666</ele><time>2026-04-25T17:19:58.999Z</time></trkpt><trkpt lat="45.900507458479304" lon="12.103343753101417"><ele>158.0</ele><time>2026-04-25T17:20:00.999Z</time></trkpt><trkpt lat="45.90056657864146" lon="12.103298393691547"><ele>158.00000000000003</ele><time>2026-04-25T17:20:02.998Z</time></trkpt><trkpt lat="45.90062349718826" lon="12.10325194182308"><ele>158.0</ele><time>2026-04-25T17:20:04.998Z</time></trkpt><trkpt lat="45.90068538128681" lon="12.103217487937867"><ele>158.0</ele><time>2026-04-25T17:20:06.998Z</time></trkpt><trkpt lat="45.90074344271217" lon="12.103173917574852"><ele>158.0</ele><time>2026-04-25T17:20:08.998Z</time></trkpt><trkpt lat="45.900802681415925" lon="12.103137893455292"><ele>158.0</ele><time>2026-04-25T17:20:10.998Z</time></trkpt><trkpt lat="45.900887053475536" lon="12.103073887246149"><ele>158.00000000000003</ele><time>2026-04-25T17:20:13.998Z</time></trkpt><trkpt lat="45.90094613098687" lon="12.103041284403098"><ele>158.0</ele><time>2026-04-25T17:20:15.998Z</time></trkpt><trkpt lat="45.90103387467578" lon="12.102990978647211"><ele>158.85714285714286</ele><time>2026-04-25T17:20:18.998Z</time></trkpt><trkpt lat="45.901095706387316" lon="12.102950523687234"><ele>159.71428571428572</ele><time>2026-04-25T17:20:20.998Z</time></trkpt><trkpt lat="45.90115760284595" lon="12.102910089560943"><ele>160.57142857142856</ele><time>2026-04-25T17:20:22.998Z</time></trkpt><trkpt lat="45.901217262235285" lon="12.102866003897557"><ele>161.42857142857144</ele><time>2026-04-25T17:20:24.998Z</time></trkpt><trkpt lat="45.901279417489704" lon="12.10282383492738"><ele>162.28571428571428</ele><time>2026-04-25T17:20:26.998Z</time></trkpt><trkpt lat="45.901336463120025" lon="12.10277794949891"><ele>163.14285714285714</ele><time>2026-04-25T17:20:28.998Z</time></trkpt><trkpt lat="45.90138373359615" lon="12.102716703412229"><ele>164.0</ele><time>2026-04-25T17:20:30.998Z</time></trkpt><trkpt lat="45.90137897865173" lon="12.102600938373342"><ele>164.0</ele><time>2026-04-25T17:20:32.998Z</time></trkpt><trkpt lat="45.90129958608708" lon="12.102529241935386"><ele>164.0</ele><time>2026-04-25T17:20:34.998Z</time></trkpt><trkpt lat="45.90120471812885" lon="12.10247054646131"><ele>164.0</ele><time>2026-04-25T17:20:36.998Z</time></trkpt><trkpt lat="45.90111453343922" lon="12.102405592752815"><ele>164.0</ele><time>2026-04-25T17:20:38.998Z</time></trkpt><trkpt lat="45.901026200912575" lon="12.102344634320692"><ele>164.0</ele><time>2026-04-25T17:20:40.998Z</time></trkpt><trkpt lat="45.90094464133707" lon="12.10228697506433"><ele>163.66666666666666</ele><time>2026-04-25T17:20:42.998Z</time></trkpt><trkpt lat="45.90086751858739" lon="12.10222276398479"><ele>163.33333333333331</ele><time>2026-04-25T17:20:44.998Z</time></trkpt><trkpt lat="45.9007900966423" lon="12.102166158416688"><ele>163.0</ele><time>2026-04-25T17:20:46.997Z</time></trkpt><trkpt lat="45.90070797655415" lon="12.102142301095913"><ele>162.66666666666666</ele><time>2026-04-25T17:20:48.997Z</time></trkpt><trkpt lat="45.90061837203745" lon="12.102119835366647"><ele>162.33333333333334</ele><time>2026-04-25T17:20:50.997Z</time></trkpt><trkpt lat="45.90052297227474" lon="12.102090668032742"><ele>162.0</ele><time>2026-04-25T17:20:52.997Z</time></trkpt><trkpt lat="45.900429824778904" lon="12.102025707962017"><ele>162.0</ele><time>2026-04-25T17:20:54.997Z</time></trkpt><trkpt lat="45.90034489230223" lon="12.101932480537249"><ele>162.0</ele><time>2026-04-25T17:20:56.997Z</time></trkpt><trkpt lat="45.90026145541958" lon="12.101828485214641"><ele>162.0</ele><time>2026-04-25T17:20:58.997Z</time></trkpt><trkpt lat="45.90015625211999" lon="12.101787954122203"><ele>162.0</ele><time>2026-04-25T17:21:00.997Z</time></trkpt><trkpt lat="45.900063451177886" lon="12.101697985974434"><ele>162.0</ele><time>2026-04-25T17:21:02.997Z</time></trkpt><trkpt lat="45.8999950158344" lon="12.101560194425723"><ele>161.16666666666666</ele><time>2026-04-25T17:21:05Z</time></trkpt><trkpt lat="45.899976471479114" lon="12.101472471688789"><ele>160.33333333333334</ele><time>2026-04-25T17:21:06Z</time></trkpt><trkpt lat="45.89994402522498" lon="12.101297780135129"><ele>159.5</ele><time>2026-04-25T17:21:08Z</time></trkpt><trkpt lat="45.899923442739684" lon="12.101207861992279"><ele>158.66666666666669</ele><time>2026-04-25T17:21:09Z</time></trkpt><trkpt lat="45.89991821561167" lon="12.101110018827693"><ele>157.83333333333334</ele><time>2026-04-25T17:21:10Z</time></trkpt><trkpt lat="45.89987879667321" lon="12.101026954299705"><ele>157.0</ele><time>2026-04-25T17:21:11Z</time></trkpt><trkpt lat="45.89985319183422" lon="12.100940769202445"><ele>156.99999999999997</ele><time>2026-04-25T17:21:12Z</time></trkpt><trkpt lat="45.89982287332615" lon="12.100858025345708"><ele>157.0</ele><time>2026-04-25T17:21:13Z</time></trkpt><trkpt lat="45.89979216636393" lon="12.100773096088291"><ele>157.0</ele><time>2026-04-25T17:21:14Z</time></trkpt><trkpt lat="45.89975911221171" lon="12.100689653322679"><ele>157.0</ele><time>2026-04-25T17:21:15Z</time></trkpt><trkpt lat="45.89972908454049" lon="12.10060592717525"><ele>157.0</ele><time>2026-04-25T17:21:16Z</time></trkpt><trkpt lat="45.89969933318102" lon="12.10052216812212"><ele>156.99999999999997</ele><time>2026-04-25T17:21:17Z</time></trkpt><trkpt lat="45.899671372315794" lon="12.10044062805316"><ele>157.0</ele><time>2026-04-25T17:21:18Z</time></trkpt><trkpt lat="45.899623020781696" lon="12.100285190450343"><ele>157.6</ele><time>2026-04-25T17:21:20Z</time></trkpt><trkpt lat="45.899579787314586" lon="12.100131718231653"><ele>158.2</ele><time>2026-04-25T17:21:22Z</time></trkpt><trkpt lat="45.899553477927114" lon="12.099978000116655"><ele>158.8</ele><time>2026-04-25T17:21:24Z</time></trkpt><trkpt lat="45.899531915361926" lon="12.099837153535098"><ele>159.4</ele><time>2026-04-25T17:21:26Z</time></trkpt><trkpt lat="45.89951449327321" lon="12.099704702943347"><ele>160.0</ele><time>2026-04-25T17:21:28Z</time></trkpt><trkpt lat="45.89949971922975" lon="12.099579404603674"><ele>160.33333333333334</ele><time>2026-04-25T17:21:30Z</time></trkpt><trkpt lat="45.899487432430945" lon="12.09946083778734"><ele>160.66666666666669</ele><time>2026-04-25T17:21:32Z</time></trkpt><trkpt lat="45.899473262891995" lon="12.099348575526607"><ele>161.0</ele><time>2026-04-25T17:21:34Z</time></trkpt><trkpt lat="45.899454332621836" lon="12.099237949198184"><ele>161.33333333333334</ele><time>2026-04-25T17:21:36Z</time></trkpt><trkpt lat="45.8994323875158" lon="12.099131429693374"><ele>161.66666666666666</ele><time>2026-04-25T17:21:37.999Z</time></trkpt><trkpt lat="45.899407020297936" lon="12.099026103732513"><ele>162.0</ele><time>2026-04-25T17:21:39.999Z</time></trkpt><trkpt lat="45.89938730959061" lon="12.098926763640817"><ele>161.66666666666666</ele><time>2026-04-25T17:21:41.999Z</time></trkpt><trkpt lat="45.89930688223286" lon="12.098868540338833"><ele>161.33333333333334</ele><time>2026-04-25T17:21:43.999Z</time></trkpt><trkpt lat="45.89924381054389" lon="12.098788592414927"><ele>161.0</ele><time>2026-04-25T17:21:45.999Z</time></trkpt><trkpt lat="45.89917714503794" lon="12.098714255255274"><ele>160.66666666666669</ele><time>2026-04-25T17:21:47.999Z</time></trkpt><trkpt lat="45.89911340292364" lon="12.098632786858317"><ele>160.33333333333334</ele><time>2026-04-25T17:21:49.999Z</time></trkpt><trkpt lat="45.89904884969058" lon="12.09853170418812"><ele>160.0</ele><time>2026-04-25T17:21:51.999Z</time></trkpt><trkpt lat="45.89899755753141" lon="12.098407413450389"><ele>160.0</ele><time>2026-04-25T17:21:53.999Z</time></trkpt><trkpt lat="45.898939749239844" lon="12.09827711550866"><ele>160.0</ele><time>2026-04-25T17:21:55.999Z</time></trkpt><trkpt lat="45.8988739710334" lon="12.098139452565338"><ele>160.0</ele><time>2026-04-25T17:21:57.999Z</time></trkpt><trkpt lat="45.89879346593025" lon="12.097999476920423"><ele>160.0</ele><time>2026-04-25T17:21:59.999Z</time></trkpt><trkpt lat="45.89875004222911" lon="12.097932393508067"><ele>160.0</ele><time>2026-04-25T17:22:00.999Z</time></trkpt><trkpt lat="45.89870462130272" lon="12.097865108213716"><ele>160.14285714285714</ele><time>2026-04-25T17:22:01.999Z</time></trkpt><trkpt lat="45.89865896193824" lon="12.097799422485059"><ele>160.28571428571428</ele><time>2026-04-25T17:22:02.999Z</time></trkpt><trkpt lat="45.898613847316774" lon="12.097734717701396"><ele>160.42857142857144</ele><time>2026-04-25T17:22:03.999Z</time></trkpt><trkpt lat="45.89856922404678" lon="12.097669026645384"><ele>160.57142857142856</ele><time>2026-04-25T17:22:04.999Z</time></trkpt><trkpt lat="45.898551944019395" lon="12.09757152688696"><ele>160.71428571428572</ele><time>2026-04-25T17:22:05.999Z</time></trkpt><trkpt lat="45.89851530210988" lon="12.097496735946747"><ele>160.85714285714286</ele><time>2026-04-25T17:22:06.999Z</time></trkpt><trkpt lat="45.89844526953376" lon="12.097359327641149"><ele>161.0</ele><time>2026-04-25T17:22:08.999Z</time></trkpt><trkpt lat="45.89839285412092" lon="12.097220038949855"><ele>161.16666666666666</ele><time>2026-04-25T17:22:10.999Z</time></trkpt><trkpt lat="45.89835829850864" lon="12.097083187032304"><ele>161.33333333333331</ele><time>2026-04-25T17:22:12.999Z</time></trkpt><trkpt lat="45.898309513562296" lon="12.09697275157379"><ele>161.5</ele><time>2026-04-25T17:22:14.999Z</time></trkpt><trkpt lat="45.89825732339619" lon="12.096875193810286"><ele>161.66666666666666</ele><time>2026-04-25T17:22:16.999Z</time></trkpt><trkpt lat="45.898210745523116" lon="12.096788513052163"><ele>161.83333333333334</ele><time>2026-04-25T17:22:18.999Z</time></trkpt><trkpt lat="45.898169323715145" lon="12.096717771146226"><ele>162.0</ele><time>2026-04-25T17:22:20.998Z</time></trkpt><trkpt lat="45.89821276764485" lon="12.096637989693155"><ele>162.85714285714286</ele><time>2026-04-25T17:22:25.998Z</time></trkpt><trkpt lat="45.89825687518217" lon="12.096531852513255"><ele>163.71428571428572</ele><time>2026-04-25T17:22:28.998Z</time></trkpt><trkpt lat="45.89828144708443" lon="12.096434243784024"><ele>164.57142857142856</ele><time>2026-04-25T17:22:31.998Z</time></trkpt><trkpt lat="45.89829225055708" lon="12.096328771299957"><ele>165.42857142857144</ele><time>2026-04-25T17:22:34.998Z</time></trkpt><trkpt lat="45.89832104849094" lon="12.096238743166253"><ele>166.28571428571428</ele><time>2026-04-25T17:22:37.998Z</time></trkpt><trkpt lat="45.898350677780996" lon="12.09615782568671"><ele>167.14285714285714</ele><time>2026-04-25T17:22:40.998Z</time></trkpt><trkpt lat="45.8983586594046" lon="12.096057048050724"><ele>168.0</ele><time>2026-04-25T17:22:44.998Z</time></trkpt><trkpt lat="45.898393474370245" lon="12.095978311417264"><ele>168.0</ele><time>2026-04-25T17:22:49.998Z</time></trkpt><trkpt lat="45.8984130865391" lon="12.095870413372289"><ele>168.0</ele><time>2026-04-25T17:22:54.998Z</time></trkpt><trkpt lat="45.8984647545737" lon="12.095800202839866"><ele>168.0</ele><time>2026-04-25T17:22:58.998Z</time></trkpt><trkpt lat="45.89851394385874" lon="12.095741206688029"><ele>168.0</ele><time>2026-04-25T17:23:02.998Z</time></trkpt><trkpt lat="45.89856842945138" lon="12.095682925694963"><ele>168.0</ele><time>2026-04-25T17:23:06.997Z</time></trkpt><trkpt lat="45.89862510488258" lon="12.095637137756837"><ele>168.0</ele><time>2026-04-25T17:23:11Z</time></trkpt><trkpt lat="45.898695372403274" lon="12.095588041069115"><ele>168.0</ele><time>2026-04-25T17:23:16Z</time></trkpt><trkpt lat="45.89876889796554" lon="12.095554113570557"><ele>171.71428571428572</ele><time>2026-04-25T17:23:21Z</time></trkpt><trkpt lat="45.898845598857314" lon="12.095520739784778"><ele>175.42857142857144</ele><time>2026-04-25T17:23:26Z</time></trkpt><trkpt lat="45.89891350565869" lon="12.095492325704619"><ele>179.14285714285714</ele><time>2026-04-25T17:23:31Z</time></trkpt><trkpt lat="45.898977422276104" lon="12.09546789230116"><ele>182.85714285714286</ele><time>2026-04-25T17:23:36Z</time></trkpt><trkpt lat="45.89904975712332" lon="12.095438502807037"><ele>186.57142857142858</ele><time>2026-04-25T17:23:42Z</time></trkpt><trkpt lat="45.899109737191864" lon="12.095410254029"><ele>190.28571428571428</ele><time>2026-04-25T17:23:47Z</time></trkpt><trkpt lat="45.899172880544356" lon="12.095381588360087"><ele>194.0</ele><time>2026-04-25T17:23:51.999Z</time></trkpt><trkpt lat="45.89924754179442" lon="12.095372949641199"><ele>194.57142857142856</ele><time>2026-04-25T17:23:57.999Z</time></trkpt><trkpt lat="45.89931898008978" lon="12.095379838691892"><ele>195.14285714285717</ele><time>2026-04-25T17:24:02.999Z</time></trkpt><trkpt lat="45.899391565855474" lon="12.095396092502897"><ele>195.71428571428572</ele><time>2026-04-25T17:24:08.999Z</time></trkpt><trkpt lat="45.89945535790474" lon="12.0953751020347"><ele>196.28571428571428</ele><time>2026-04-25T17:24:13.999Z</time></trkpt><trkpt lat="45.89947099260593" lon="12.095284844264317"><ele>196.85714285714283</ele><time>2026-04-25T17:24:19.999Z</time></trkpt><trkpt lat="45.89940820588224" lon="12.09525124351492"><ele>197.42857142857144</ele><time>2026-04-25T17:24:24.999Z</time></trkpt><trkpt lat="45.89933997762569" lon="12.095227449464623"><ele>198.0</ele><time>2026-04-25T17:24:30.999Z</time></trkpt><trkpt lat="45.8992818460887" lon="12.095188076798003"><ele>197.42857142857144</ele><time>2026-04-25T17:24:36.998Z</time></trkpt><trkpt lat="45.89922155782075" lon="12.095145943349552"><ele>196.85714285714283</ele><time>2026-04-25T17:24:42.998Z</time></trkpt><trkpt lat="45.89915961230567" lon="12.095098140286558"><ele>196.28571428571428</ele><time>2026-04-25T17:24:48.998Z</time></trkpt><trkpt lat="45.89910250042516" lon="12.095035616721436"><ele>195.71428571428572</ele><time>2026-04-25T17:24:54.998Z</time></trkpt><trkpt lat="45.89904143892351" lon="12.094972709223208"><ele>195.14285714285717</ele><time>2026-04-25T17:25:00.998Z</time></trkpt><trkpt lat="45.898983260452376" lon="12.094905868414553"><ele>194.57142857142856</ele><time>2026-04-25T17:25:06.998Z</time></trkpt><trkpt lat="45.898931838283424" lon="12.094845985127701"><ele>194.0</ele><time>2026-04-25T17:25:12.998Z</time></trkpt><trkpt lat="45.898881072441824" lon="12.094775929316496"><ele>197.14285714285714</ele><time>2026-04-25T17:25:19Z</time></trkpt><trkpt lat="45.89883871123824" lon="12.094686944394981"><ele>200.2857142857143</ele><time>2026-04-25T17:25:25Z</time></trkpt><trkpt lat="45.898793748382666" lon="12.094611440197262"><ele>203.42857142857144</ele><time>2026-04-25T17:25:31Z</time></trkpt><trkpt lat="45.898750422202376" lon="12.094536146800346"><ele>206.57142857142856</ele><time>2026-04-25T17:25:37Z</time></trkpt><trkpt lat="45.89871826439405" lon="12.094445953238871"><ele>209.71428571428572</ele><time>2026-04-25T17:25:43Z</time></trkpt><trkpt lat="45.898690170576025" lon="12.094356094240046"><ele>212.85714285714286</ele><time>2026-04-25T17:25:49Z</time></trkpt><trkpt lat="45.8986468063652" lon="12.094274396951826"><ele>216.0</ele><time>2026-04-25T17:25:55Z</time></trkpt><trkpt lat="45.89860732754135" lon="12.094192056000248"><ele>216.0</ele><time>2026-04-25T17:26:01Z</time></trkpt><trkpt lat="45.89857909596879" lon="12.094108676755727"><ele>216.0</ele><time>2026-04-25T17:26:06.999Z</time></trkpt><trkpt lat="45.89854275451079" lon="12.09402791606734"><ele>216.0</ele><time>2026-04-25T17:26:12.998Z</time></trkpt><trkpt lat="45.89850570229742" lon="12.093948251968275"><ele>216.0</ele><time>2026-04-25T17:26:18.998Z</time></trkpt><trkpt lat="45.898450497270105" lon="12.09389562185948"><ele>216.0</ele><time>2026-04-25T17:26:24.998Z</time></trkpt><trkpt lat="45.89841448669136" lon="12.09380658734743"><ele>216.0</ele><time>2026-04-25T17:26:30.998Z</time></trkpt><trkpt lat="45.89837806524828" lon="12.093722585494797"><ele>216.0</ele><time>2026-04-25T17:26:36.998Z</time></trkpt><trkpt lat="45.898343191034854" lon="12.093633307186984"><ele>215.83333333333334</ele><time>2026-04-25T17:26:42.998Z</time></trkpt><trkpt lat="45.898306740117036" lon="12.093558829509547"><ele>215.66666666666669</ele><time>2026-04-25T17:26:47.998Z</time></trkpt><trkpt lat="45.89830701399916" lon="12.09345875271453"><ele>215.5</ele><time>2026-04-25T17:26:52.997Z</time></trkpt><trkpt lat="45.89828661587749" lon="12.093352607941092"><ele>215.33333333333334</ele><time>2026-04-25T17:26:56.997Z</time></trkpt><trkpt lat="45.89826629770784" lon="12.0932415887172"><ele>215.16666666666669</ele><time>2026-04-25T17:26:59.997Z</time></trkpt><trkpt lat="45.898235821069534" lon="12.093141981664745"><ele>215.0</ele><time>2026-04-25T17:27:01.997Z</time></trkpt><trkpt lat="45.89819931815081" lon="12.093032714870994"><ele>215.0</ele><time>2026-04-25T17:27:03.997Z</time></trkpt><trkpt lat="45.89816069369908" lon="12.092910669475584"><ele>215.0</ele><time>2026-04-25T17:27:05.997Z</time></trkpt><trkpt lat="45.898125647593744" lon="12.092787082060799"><ele>215.0</ele><time>2026-04-25T17:27:07.997Z</time></trkpt><trkpt lat="45.89808557596006" lon="12.092660287429526"><ele>215.0</ele><time>2026-04-25T17:27:09.997Z</time></trkpt><trkpt lat="45.89811912291714" lon="12.09249067595564"><ele>215.0</ele><time>2026-04-25T17:27:11.997Z</time></trkpt><trkpt lat="45.89816587395405" lon="12.09238656772039"><ele>212.83333333333334</ele><time>2026-04-25T17:27:12.997Z</time></trkpt><trkpt lat="45.898235339720934" lon="12.092300577740387"><ele>210.66666666666669</ele><time>2026-04-25T17:27:13.997Z</time></trkpt><trkpt lat="45.89827572702922" lon="12.092206017311447"><ele>208.5</ele><time>2026-04-25T17:27:14.997Z</time></trkpt><trkpt lat="45.898312207487535" lon="12.092117543927847"><ele>206.33333333333331</ele><time>2026-04-25T17:27:15.997Z</time></trkpt><trkpt lat="45.89834877802212" lon="12.092028852404718"><ele>204.16666666666666</ele><time>2026-04-25T17:27:16.997Z</time></trkpt><trkpt lat="45.89838439186593" lon="12.091930110238104"><ele>202.0</ele><time>2026-04-25T17:27:17.997Z</time></trkpt><trkpt lat="45.89841161916989" lon="12.091811201441788"><ele>201.99999999999997</ele><time>2026-04-25T17:27:18.997Z</time></trkpt><trkpt lat="45.898415288999075" lon="12.091673017571338"><ele>202.0</ele><time>2026-04-25T17:27:20Z</time></trkpt><trkpt lat="45.89840693200745" lon="12.09154700536288"><ele>202.0</ele><time>2026-04-25T17:27:21Z</time></trkpt><trkpt lat="45.898405843751064" lon="12.091425254163562"><ele>202.0</ele><time>2026-04-25T17:27:22Z</time></trkpt><trkpt lat="45.898409616786566" lon="12.091303221531659"><ele>201.99999999999997</ele><time>2026-04-25T17:27:23Z</time></trkpt><trkpt lat="45.89841368661474" lon="12.091173229803925"><ele>202.0</ele><time>2026-04-25T17:27:24Z</time></trkpt><trkpt lat="45.89840822051326" lon="12.091020082434568"><ele>201.0</ele><time>2026-04-25T17:27:25Z</time></trkpt><trkpt lat="45.89837713373347" lon="12.090858523375339"><ele>200.0</ele><time>2026-04-25T17:27:26Z</time></trkpt><trkpt lat="45.898332138929774" lon="12.090708030658257"><ele>199.0</ele><time>2026-04-25T17:27:27Z</time></trkpt><trkpt lat="45.898263862234465" lon="12.090578017634751"><ele>198.0</ele><time>2026-04-25T17:27:28Z</time></trkpt><trkpt lat="45.898189053514216" lon="12.090464939349273"><ele>200.0</ele><time>2026-04-25T17:27:29Z</time></trkpt><trkpt lat="45.89812540224652" lon="12.090370139030894"><ele>202.0</ele><time>2026-04-25T17:27:30Z</time></trkpt><trkpt lat="45.898060847262286" lon="12.090287809919726"><ele>204.0</ele><time>2026-04-25T17:27:31Z</time></trkpt><trkpt lat="45.89799995561107" lon="12.090203751839818"><ele>206.0</ele><time>2026-04-25T17:27:32Z</time></trkpt><trkpt lat="45.89793789988403" lon="12.090116756757396"><ele>208.0</ele><time>2026-04-25T17:27:33Z</time></trkpt><trkpt lat="45.89787974087928" lon="12.09003081032692"><ele>210.0</ele><time>2026-04-25T17:27:34Z</time></trkpt><trkpt lat="45.89782697653235" lon="12.089948485713476"><ele>209.66666666666666</ele><time>2026-04-25T17:27:35Z</time></trkpt><trkpt lat="45.89778044596" lon="12.089868413825954"><ele>209.33333333333331</ele><time>2026-04-25T17:27:36Z</time></trkpt><trkpt lat="45.89774486052526" lon="12.089791501813416"><ele>209.0</ele><time>2026-04-25T17:27:37Z</time></trkpt><trkpt lat="45.89773817685884" lon="12.08964913965051"><ele>208.66666666666666</ele><time>2026-04-25T17:27:39Z</time></trkpt><trkpt lat="45.897752805098115" lon="12.089560092581412"><ele>208.33333333333331</ele><time>2026-04-25T17:27:40Z</time></trkpt><trkpt lat="45.8978037181858" lon="12.089407231742348"><ele>208.0</ele><time>2026-04-25T17:27:41.999Z</time></trkpt><trkpt lat="45.897863059663585" lon="12.089281218707173"><ele>208.0</ele><time>2026-04-25T17:27:43.999Z</time></trkpt><trkpt lat="45.89787770271379" lon="12.089182034146898"><ele>208.0</ele><time>2026-04-25T17:27:44.999Z</time></trkpt><trkpt lat="45.89786675389832" lon="12.08907492797636"><ele>208.0</ele><time>2026-04-25T17:27:45.999Z</time></trkpt><trkpt lat="45.897854371049725" lon="12.08897790064477"><ele>208.0</ele><time>2026-04-25T17:27:46.999Z</time></trkpt><trkpt lat="45.897845286538846" lon="12.088882601666844"><ele>208.0</ele><time>2026-04-25T17:27:47.999Z</time></trkpt><trkpt lat="45.89784106699369" lon="12.088779035129432"><ele>208.0</ele><time>2026-04-25T17:27:48.999Z</time></trkpt><trkpt lat="45.89784014381316" lon="12.088671998025498"><ele>208.0</ele><time>2026-04-25T17:27:49.999Z</time></trkpt><trkpt lat="45.89784446564767" lon="12.088566343720059"><ele>206.57142857142856</ele><time>2026-04-25T17:27:50.999Z</time></trkpt><trkpt lat="45.897855936631025" lon="12.088468819891691"><ele>205.14285714285717</ele><time>2026-04-25T17:27:51.999Z</time></trkpt><trkpt lat="45.89786032974107" lon="12.088369399556301"><ele>203.71428571428572</ele><time>2026-04-25T17:27:52.999Z</time></trkpt><trkpt lat="45.897854195911165" lon="12.088276775126035"><ele>202.28571428571428</ele><time>2026-04-25T17:27:53.999Z</time></trkpt><trkpt lat="45.89781766435757" lon="12.08818806636316"><ele>200.85714285714283</ele><time>2026-04-25T17:27:54.999Z</time></trkpt><trkpt lat="45.89774592153131" lon="12.088124100263155"><ele>199.42857142857144</ele><time>2026-04-25T17:27:55.999Z</time></trkpt><trkpt lat="45.897666465969856" lon="12.088089526135139"><ele>198.0</ele><time>2026-04-25T17:27:56.999Z</time></trkpt><trkpt lat="45.89760852639843" lon="12.088044652960324"><ele>193.33333333333334</ele><time>2026-04-25T17:27:57.999Z</time></trkpt><trkpt lat="45.897553415619825" lon="12.087997106027863"><ele>188.66666666666666</ele><time>2026-04-25T17:27:58.999Z</time></trkpt><trkpt lat="45.89747433652233" lon="12.087880221828042"><ele>184.0</ele><time>2026-04-25T17:28:00.999Z</time></trkpt><trkpt lat="45.89740145830423" lon="12.087776246568112"><ele>179.33333333333331</ele><time>2026-04-25T17:28:02.999Z</time></trkpt><trkpt lat="45.89734801182688" lon="12.08770371354613"><ele>174.66666666666666</ele><time>2026-04-25T17:28:04.999Z</time></trkpt><trkpt lat="45.89729285672761" lon="12.087633545250151"><ele>170.0</ele><time>2026-04-25T17:28:07.999Z</time></trkpt><trkpt lat="45.897324590008616" lon="12.087553071441844"><ele>170.0</ele><time>2026-04-25T17:28:09.999Z</time></trkpt><trkpt lat="45.897367994899554" lon="12.087435002216152"><ele>170.0</ele><time>2026-04-25T17:28:12.999Z</time></trkpt><trkpt lat="45.89741099171588" lon="12.087359726008376"><ele>170.0</ele><time>2026-04-25T17:28:14.999Z</time></trkpt><trkpt lat="45.89745131226147" lon="12.08728114471752"><ele>170.0</ele><time>2026-04-25T17:28:16.999Z</time></trkpt><trkpt lat="45.89749309117443" lon="12.087195235288673"><ele>170.0</ele><time>2026-04-25T17:28:18.999Z</time></trkpt><trkpt lat="45.897534597754834" lon="12.087104158921456"><ele>170.0</ele><time>2026-04-25T17:28:20.999Z</time></trkpt><trkpt lat="45.89756826501542" lon="12.08700944958169"><ele>170.83333333333331</ele><time>2026-04-25T17:28:22.999Z</time></trkpt><trkpt lat="45.897606198510324" lon="12.08691624131813"><ele>171.66666666666666</ele><time>2026-04-25T17:28:24.998Z</time></trkpt><trkpt lat="45.89764267957874" lon="12.086810991900338"><ele>172.5</ele><time>2026-04-25T17:28:26.998Z</time></trkpt><trkpt lat="45.897670043032775" lon="12.086693582774219"><ele>173.33333333333334</ele><time>2026-04-25T17:28:28.998Z</time></trkpt><trkpt lat="45.89769871418187" lon="12.086570675722744"><ele>174.16666666666669</ele><time>2026-04-25T17:28:30.998Z</time></trkpt><trkpt lat="45.89772229187197" lon="12.086434590758282"><ele>175.0</ele><time>2026-04-25T17:28:32.998Z</time></trkpt><trkpt lat="45.89773534083632" lon="12.086288519963528"><ele>175.0</ele><time>2026-04-25T17:28:34.998Z</time></trkpt><trkpt lat="45.89774432865848" lon="12.086146044688187"><ele>175.0</ele><time>2026-04-25T17:28:36.998Z</time></trkpt><trkpt lat="45.89774657188869" lon="12.086008681771046"><ele>175.0</ele><time>2026-04-25T17:28:38.998Z</time></trkpt><trkpt lat="45.89775244336217" lon="12.085882871634178"><ele>175.0</ele><time>2026-04-25T17:28:40.998Z</time></trkpt><trkpt lat="45.89775877584322" lon="12.085753688686163"><ele>175.0</ele><time>2026-04-25T17:28:42.998Z</time></trkpt><trkpt lat="45.897760321205936" lon="12.085637759140198"><ele>174.0</ele><time>2026-04-25T17:28:44.998Z</time></trkpt><trkpt lat="45.89775497851443" lon="12.085547214217225"><ele>173.0</ele><time>2026-04-25T17:28:59.998Z</time></trkpt><trkpt lat="45.89761316697382" lon="12.085456819279916"><ele>172.0</ele><time>2026-04-25T17:29:00.998Z</time></trkpt><trkpt lat="45.897506338042014" lon="12.085410402933682"><ele>171.0</ele><time>2026-04-25T17:29:02.998Z</time></trkpt><trkpt lat="45.897413274595486" lon="12.085328435912805"><ele>170.0</ele><time>2026-04-25T17:29:04.998Z</time></trkpt><trkpt lat="45.897299936698474" lon="12.085280878823117"><ele>169.33333333333331</ele><time>2026-04-25T17:29:06.998Z</time></trkpt><trkpt lat="45.89720083482713" lon="12.08521463760372"><ele>168.66666666666666</ele><time>2026-04-25T17:29:08.997Z</time></trkpt><trkpt lat="45.89713497108824" lon="12.085170894586213"><ele>168.0</ele><time>2026-04-25T17:29:10.997Z</time></trkpt><trkpt lat="45.89708564325524" lon="12.085111865779597"><ele>167.33333333333334</ele><time>2026-04-25T17:29:18.997Z</time></trkpt><trkpt lat="45.897033452175634" lon="12.08504564105825"><ele>166.66666666666669</ele><time>2026-04-25T17:29:21.997Z</time></trkpt><trkpt lat="45.89695840327254" lon="12.085041808586539"><ele>166.0</ele><time>2026-04-25T17:29:23.997Z</time></trkpt><trkpt lat="45.89688347790061" lon="12.085041271133454"><ele>166.0</ele><time>2026-04-25T17:29:26Z</time></trkpt><trkpt lat="45.896803712253764" lon="12.085045650767828"><ele>166.0</ele><time>2026-04-25T17:29:28Z</time></trkpt><trkpt lat="45.89671994160724" lon="12.085061118053309"><ele>166.0</ele><time>2026-04-25T17:29:30Z</time></trkpt><trkpt lat="45.896633970873914" lon="12.085069416543869"><ele>166.0</ele><time>2026-04-25T17:29:32Z</time></trkpt><trkpt lat="45.89654584965194" lon="12.08507732459142"><ele>166.0</ele><time>2026-04-25T17:29:34Z</time></trkpt><trkpt lat="45.89645075511818" lon="12.085087238665349"><ele>166.0</ele><time>2026-04-25T17:29:36Z</time></trkpt><trkpt lat="45.89635190935519" lon="12.085093859794934"><ele>165.60000000000002</ele><time>2026-04-25T17:29:38Z</time></trkpt><trkpt lat="45.89625093072858" lon="12.085103463937028"><ele>165.2</ele><time>2026-04-25T17:29:40Z</time></trkpt><trkpt lat="45.89614667116049" lon="12.08510820031418"><ele>164.8</ele><time>2026-04-25T17:29:42Z</time></trkpt><trkpt lat="45.896040083178846" lon="12.085119946127147"><ele>164.39999999999998</ele><time>2026-04-25T17:29:44Z</time></trkpt><trkpt lat="45.89592924630143" lon="12.08512996186905"><ele>164.0</ele><time>2026-04-25T17:29:46Z</time></trkpt><trkpt lat="45.895816738829296" lon="12.085140304354052"><ele>163.75</ele><time>2026-04-25T17:29:48Z</time></trkpt><trkpt lat="45.89570071448017" lon="12.08514563973878"><ele>163.5</ele><time>2026-04-25T17:29:50Z</time></trkpt><trkpt lat="45.89558477003455" lon="12.085160501789279"><ele>163.25</ele><time>2026-04-25T17:29:52Z</time></trkpt><trkpt lat="45.895468868799746" lon="12.08516819438903"><ele>163.0</ele><time>2026-04-25T17:29:54Z</time></trkpt><trkpt lat="45.89534995596974" lon="12.085181325019198"><ele>163.0</ele><time>2026-04-25T17:29:56Z</time></trkpt><trkpt lat="45.89523072835396" lon="12.085191179230739"><ele>163.0</ele><time>2026-04-25T17:29:57.999Z</time></trkpt><trkpt lat="45.895108166134776" lon="12.085219990002697"><ele>163.0</ele><time>2026-04-25T17:29:59.999Z</time></trkpt><trkpt lat="45.89504695403852" lon="12.085245580705859"><ele>163.0</ele><time>2026-04-25T17:30:00.999Z</time></trkpt><trkpt lat="45.89498384266264" lon="12.085274142947066"><ele>163.0</ele><time>2026-04-25T17:30:01.999Z</time></trkpt><trkpt lat="45.89492048215422" lon="12.085308863593502"><ele>163.0</ele><time>2026-04-25T17:30:02.999Z</time></trkpt><trkpt lat="45.89485686452354" lon="12.085345274601934"><ele>162.4</ele><time>2026-04-25T17:30:03.999Z</time></trkpt><trkpt lat="45.89474346735726" lon="12.085404463820296"><ele>161.8</ele><time>2026-04-25T17:30:05.999Z</time></trkpt><trkpt lat="45.894635508207514" lon="12.085465477202527"><ele>161.2</ele><time>2026-04-25T17:30:07.999Z</time></trkpt><trkpt lat="45.89453988433395" lon="12.085516837372243"><ele>160.6</ele><time>2026-04-25T17:30:09.999Z</time></trkpt><trkpt lat="45.89444238283461" lon="12.0855649765164"><ele>160.0</ele><time>2026-04-25T17:30:11.999Z</time></trkpt><trkpt lat="45.894362201982304" lon="12.085588683105252"><ele>160.0</ele><time>2026-04-25T17:30:13.999Z</time></trkpt><trkpt lat="45.89429301122842" lon="12.085648176014905"><ele>160.0</ele><time>2026-04-25T17:30:16.999Z</time></trkpt><trkpt lat="45.894253542797635" lon="12.085729717616614"><ele>160.0</ele><time>2026-04-25T17:30:18.999Z</time></trkpt><trkpt lat="45.89420893286596" lon="12.085810749373003"><ele>160.0</ele><time>2026-04-25T17:30:20.999Z</time></trkpt><trkpt lat="45.894127831196464" lon="12.085881093037468"><ele>160.0</ele><time>2026-04-25T17:30:22.999Z</time></trkpt><trkpt lat="45.8940325368483" lon="12.085955744310946"><ele>160.0</ele><time>2026-04-25T17:30:24.999Z</time></trkpt><trkpt lat="45.89393109901491" lon="12.086035775544607"><ele>159.5</ele><time>2026-04-25T17:30:26.999Z</time></trkpt><trkpt lat="45.89382746903519" lon="12.086133970686365"><ele>159.0</ele><time>2026-04-25T17:30:28.999Z</time></trkpt><trkpt lat="45.89377273717638" lon="12.086183828166078"><ele>158.5</ele><time>2026-04-25T17:30:29.999Z</time></trkpt><trkpt lat="45.89371866838138" lon="12.086231745624593"><ele>158.0</ele><time>2026-04-25T17:30:30.999Z</time></trkpt><trkpt lat="45.89365350340531" lon="12.086264235804473"><ele>157.5</ele><time>2026-04-25T17:30:31.999Z</time></trkpt><trkpt lat="45.893597009445514" lon="12.086327842205772"><ele>157.0</ele><time>2026-04-25T17:30:32.999Z</time></trkpt><trkpt lat="45.89354190213374" lon="12.086385484470005"><ele>156.99999999999997</ele><time>2026-04-25T17:30:33.999Z</time></trkpt><trkpt lat="45.89348369888168" lon="12.086442380582625"><ele>157.0</ele><time>2026-04-25T17:30:34.999Z</time></trkpt><trkpt lat="45.893421716572725" lon="12.086497370094184"><ele>157.0</ele><time>2026-04-25T17:30:35.999Z</time></trkpt><trkpt lat="45.89335957473843" lon="12.086546108199403"><ele>157.0</ele><time>2026-04-25T17:30:36.999Z</time></trkpt><trkpt lat="45.89330128537679" lon="12.08660613841309"><ele>157.0</ele><time>2026-04-25T17:30:37.999Z</time></trkpt><trkpt lat="45.8932388520902" lon="12.086663218348017"><ele>156.99999999999997</ele><time>2026-04-25T17:30:38.999Z</time></trkpt><trkpt lat="45.89317754988489" lon="12.086719058499877"><ele>157.0</ele><time>2026-04-25T17:30:39.998Z</time></trkpt><trkpt lat="45.89311888615988" lon="12.086777437880107"><ele>156.57142857142856</ele><time>2026-04-25T17:30:40.998Z</time></trkpt><trkpt lat="45.89306052551674" lon="12.086835043015792"><ele>156.14285714285714</ele><time>2026-04-25T17:30:41.998Z</time></trkpt><trkpt lat="45.89300095773279" lon="12.086889063330723"><ele>155.71428571428572</ele><time>2026-04-25T17:30:42.998Z</time></trkpt><trkpt lat="45.89293992863075" lon="12.086946467156746"><ele>155.28571428571428</ele><time>2026-04-25T17:30:43.998Z</time></trkpt><trkpt lat="45.89288194403043" lon="12.087003628885872"><ele>154.85714285714286</ele><time>2026-04-25T17:30:44.998Z</time></trkpt><trkpt lat="45.8928258793677" lon="12.087063353819469"><ele>154.42857142857142</ele><time>2026-04-25T17:30:45.998Z</time></trkpt><trkpt lat="45.892769861519454" lon="12.08712402652124"><ele>154.0</ele><time>2026-04-25T17:30:46.998Z</time></trkpt><trkpt lat="45.89271137493949" lon="12.087185237406214"><ele>154.0</ele><time>2026-04-25T17:30:47.998Z</time></trkpt><trkpt lat="45.89265151144504" lon="12.087240806527449"><ele>154.0</ele><time>2026-04-25T17:30:48.998Z</time></trkpt><trkpt lat="45.89259378606474" lon="12.087296475030087"><ele>154.0</ele><time>2026-04-25T17:30:49.998Z</time></trkpt><trkpt lat="45.89253663828135" lon="12.0873572772693"><ele>154.0</ele><time>2026-04-25T17:30:50.998Z</time></trkpt><trkpt lat="45.89247828576323" lon="12.087421796313002"><ele>154.0</ele><time>2026-04-25T17:30:51.998Z</time></trkpt><trkpt lat="45.89241948786596" lon="12.087484640794315"><ele>154.0</ele><time>2026-04-25T17:30:52.998Z</time></trkpt><trkpt lat="45.89236292855398" lon="12.087547547657351"><ele>154.0</ele><time>2026-04-25T17:30:53.998Z</time></trkpt><trkpt lat="45.892304989155456" lon="12.087610858071635"><ele>153.57142857142858</ele><time>2026-04-25T17:30:54.998Z</time></trkpt><trkpt lat="45.892244907316595" lon="12.087665059881502"><ele>153.14285714285714</ele><time>2026-04-25T17:30:55.998Z</time></trkpt><trkpt lat="45.89218652378682" lon="12.0877197588556"><ele>152.71428571428572</ele><time>2026-04-25T17:30:56.998Z</time></trkpt><trkpt lat="45.892126291592035" lon="12.087774593578894"><ele>152.28571428571428</ele><time>2026-04-25T17:30:57.998Z</time></trkpt><trkpt lat="45.89206751670781" lon="12.087825732391583"><ele>151.85714285714286</ele><time>2026-04-25T17:30:58.998Z</time></trkpt><trkpt lat="45.89200889936393" lon="12.087878838482595"><ele>151.42857142857144</ele><time>2026-04-25T17:30:59.998Z</time></trkpt><trkpt lat="45.891947051597064" lon="12.087934343788307"><ele>151.0</ele><time>2026-04-25T17:31:00.998Z</time></trkpt><trkpt lat="45.89188844128308" lon="12.087985391202304"><ele>151.00000000000003</ele><time>2026-04-25T17:31:01.998Z</time></trkpt><trkpt lat="45.89182604867825" lon="12.088037952157894"><ele>151.0</ele><time>2026-04-25T17:31:02.998Z</time></trkpt><trkpt lat="45.89176372193039" lon="12.08809284938103"><ele>151.0</ele><time>2026-04-25T17:31:03.998Z</time></trkpt><trkpt lat="45.891706945305216" lon="12.08814423677747"><ele>151.0</ele><time>2026-04-25T17:31:04.998Z</time></trkpt><trkpt lat="45.89164700224727" lon="12.088194132128494"><ele>151.0</ele><time>2026-04-25T17:31:05.998Z</time></trkpt><trkpt lat="45.89158821235193" lon="12.088241077476184"><ele>151.00000000000003</ele><time>2026-04-25T17:31:06.998Z</time></trkpt><trkpt lat="45.891530728567" lon="12.08829193576294"><ele>151.0</ele><time>2026-04-25T17:31:07.998Z</time></trkpt><trkpt lat="45.891474119111855" lon="12.088343084669734"><ele>150.85714285714286</ele><time>2026-04-25T17:31:08.998Z</time></trkpt><trkpt lat="45.89141594515494" lon="12.088389511081743"><ele>150.71428571428572</ele><time>2026-04-25T17:31:09.998Z</time></trkpt><trkpt lat="45.89135817644089" lon="12.088438524453695"><ele>150.57142857142856</ele><time>2026-04-25T17:31:10.998Z</time></trkpt><trkpt lat="45.891300822825045" lon="12.088486616935388"><ele>150.42857142857144</ele><time>2026-04-25T17:31:11.998Z</time></trkpt><trkpt lat="45.89124558986304" lon="12.08853394395308"><ele>150.28571428571428</ele><time>2026-04-25T17:31:12.998Z</time></trkpt><trkpt lat="45.89118967996567" lon="12.088582047597251"><ele>150.14285714285714</ele><time>2026-04-25T17:31:13.998Z</time></trkpt><trkpt lat="45.89113448783306" lon="12.088628170328846"><ele>150.0</ele><time>2026-04-25T17:31:14.998Z</time></trkpt><trkpt lat="45.891028761535495" lon="12.088728764308216"><ele>150.0</ele><time>2026-04-25T17:31:16.998Z</time></trkpt><trkpt lat="45.89097205020363" lon="12.08888331688081"><ele>150.0</ele><time>2026-04-25T17:31:18.998Z</time></trkpt><trkpt lat="45.89095671554251" lon="12.089047371375722"><ele>150.0</ele><time>2026-04-25T17:31:20.998Z</time></trkpt><trkpt lat="45.89093920683969" lon="12.089185267788418"><ele>150.0</ele><time>2026-04-25T17:31:22.998Z</time></trkpt><trkpt lat="45.89087216016653" lon="12.089277867433806"><ele>150.0</ele><time>2026-04-25T17:31:24.997Z</time></trkpt><trkpt lat="45.89076717782017" lon="12.089284493345994"><ele>149.2</ele><time>2026-04-25T17:31:26.997Z</time></trkpt><trkpt lat="45.89065742520014" lon="12.089277262760914"><ele>148.4</ele><time>2026-04-25T17:31:28.997Z</time></trkpt><trkpt lat="45.890537499223086" lon="12.089276758016958"><ele>147.6</ele><time>2026-04-25T17:31:31Z</time></trkpt><trkpt lat="45.890474107085915" lon="12.089275103880963"><ele>146.8</ele><time>2026-04-25T17:31:32Z</time></trkpt><trkpt lat="45.890347476947596" lon="12.089266278400713"><ele>146.0</ele><time>2026-04-25T17:31:34Z</time></trkpt><trkpt lat="45.89028377360505" lon="12.08926009794074"><ele>146.0</ele><time>2026-04-25T17:31:35Z</time></trkpt><trkpt lat="45.89022089461487" lon="12.089254619178456"><ele>146.0</ele><time>2026-04-25T17:31:36Z</time></trkpt><trkpt lat="45.89009480249478" lon="12.089251459904878"><ele>146.0</ele><time>2026-04-25T17:31:38Z</time></trkpt><trkpt lat="45.89002739736317" lon="12.089244234555167"><ele>146.0</ele><time>2026-04-25T17:31:39Z</time></trkpt><trkpt lat="45.88996388692079" lon="12.089237724269678"><ele>146.0</ele><time>2026-04-25T17:31:40Z</time></trkpt><trkpt lat="45.889899106522435" lon="12.089228543577843"><ele>146.0</ele><time>2026-04-25T17:31:41Z</time></trkpt><trkpt lat="45.88983696479959" lon="12.08921012692178"><ele>146.0</ele><time>2026-04-25T17:31:42Z</time></trkpt><trkpt lat="45.88971469095364" lon="12.089185595781105"><ele>145.75</ele><time>2026-04-25T17:31:44Z</time></trkpt><trkpt lat="45.88960096907456" lon="12.089126739342165"><ele>145.5</ele><time>2026-04-25T17:31:46Z</time></trkpt><trkpt lat="45.88947998071701" lon="12.089103880670436"><ele>145.25</ele><time>2026-04-25T17:31:48Z</time></trkpt><trkpt lat="45.889359080816234" lon="12.089094994326922"><ele>145.0</ele><time>2026-04-25T17:31:50Z</time></trkpt><trkpt lat="45.88923610905615" lon="12.08909096432732"><ele>145.4</ele><time>2026-04-25T17:31:52Z</time></trkpt><trkpt lat="45.88911315948614" lon="12.08911396475497"><ele>145.8</ele><time>2026-04-25T17:31:54Z</time></trkpt><trkpt lat="45.88905112931573" lon="12.089091545697565"><ele>146.2</ele><time>2026-04-25T17:31:55Z</time></trkpt><trkpt lat="45.88892864004202" lon="12.089120487025363"><ele>146.6</ele><time>2026-04-25T17:31:57Z</time></trkpt><trkpt lat="45.888808402263024" lon="12.089127415227539"><ele>147.0</ele><time>2026-04-25T17:31:59Z</time></trkpt><trkpt lat="45.888685839932364" lon="12.089146165657287"><ele>147.0</ele><time>2026-04-25T17:32:01Z</time></trkpt><trkpt lat="45.888567906812526" lon="12.089179544574872"><ele>147.0</ele><time>2026-04-25T17:32:03Z</time></trkpt><trkpt lat="45.888454445903484" lon="12.089230944687579"><ele>147.0</ele><time>2026-04-25T17:32:05Z</time></trkpt><trkpt lat="45.88834411632159" lon="12.089311362030607"><ele>147.0</ele><time>2026-04-25T17:32:07Z</time></trkpt><trkpt lat="45.88828760899129" lon="12.08935356266895"><ele>147.0</ele><time>2026-04-25T17:32:08Z</time></trkpt><trkpt lat="45.88822963134816" lon="12.089396745507756"><ele>147.14285714285714</ele><time>2026-04-25T17:32:09Z</time></trkpt><trkpt lat="45.8881718221508" lon="12.089441427035291"><ele>147.28571428571428</ele><time>2026-04-25T17:32:10Z</time></trkpt><trkpt lat="45.88811355543743" lon="12.089484464797403"><ele>147.42857142857144</ele><time>2026-04-25T17:32:11Z</time></trkpt><trkpt lat="45.88805355089165" lon="12.089528756290589"><ele>147.57142857142856</ele><time>2026-04-25T17:32:12Z</time></trkpt><trkpt lat="45.8879954718534" lon="12.089573287578217"><ele>147.71428571428572</ele><time>2026-04-25T17:32:13Z</time></trkpt><trkpt lat="45.88793714905221" lon="12.089618704770306"><ele>147.85714285714286</ele><time>2026-04-25T17:32:14Z</time></trkpt><trkpt lat="45.88787949164331" lon="12.089662641278462"><ele>148.0</ele><time>2026-04-25T17:32:15Z</time></trkpt><trkpt lat="45.88781978894052" lon="12.089699609180053"><ele>148.0</ele><time>2026-04-25T17:32:16Z</time></trkpt><trkpt lat="45.8877605887645" lon="12.089737127112622"><ele>148.0</ele><time>2026-04-25T17:32:16.999Z</time></trkpt><trkpt lat="45.887645835666845" lon="12.089808972438458"><ele>148.0</ele><time>2026-04-25T17:32:18.999Z</time></trkpt><trkpt lat="45.88753695644759" lon="12.089876587175025"><ele>148.0</ele><time>2026-04-25T17:32:20.999Z</time></trkpt><trkpt lat="45.887427594672204" lon="12.089933759849597"><ele>148.0</ele><time>2026-04-25T17:32:22.999Z</time></trkpt><trkpt lat="45.887316855764624" lon="12.089991325655546"><ele>146.75</ele><time>2026-04-25T17:32:24.999Z</time></trkpt><trkpt lat="45.887201240220264" lon="12.090018522686062"><ele>145.5</ele><time>2026-04-25T17:32:26.999Z</time></trkpt><trkpt lat="45.88710751607937" lon="12.090053753494601"><ele>144.25</ele><time>2026-04-25T17:32:28.999Z</time></trkpt><trkpt lat="45.88709850466089" lon="12.090269411760254"><ele>143.0</ele><time>2026-04-25T17:32:29.999Z</time></trkpt><trkpt lat="45.887040532687834" lon="12.090422146154715"><ele>143.0</ele><time>2026-04-25T17:32:31.999Z</time></trkpt><trkpt lat="45.88698012641923" lon="12.09057129418645"><ele>143.0</ele><time>2026-04-25T17:32:33.999Z</time></trkpt><trkpt lat="45.88698814481403" lon="12.090666729853636"><ele>143.0</ele><time>2026-04-25T17:32:34.999Z</time></trkpt><trkpt lat="45.886991285933064" lon="12.090844985381947"><ele>143.0</ele><time>2026-04-25T17:32:36.999Z</time></trkpt><trkpt lat="45.88701084009241" lon="12.09101536999524"><ele>143.0</ele><time>2026-04-25T17:32:38.999Z</time></trkpt><trkpt lat="45.88702596953656" lon="12.0911900253333"><ele>142.8</ele><time>2026-04-25T17:32:40.999Z</time></trkpt><trkpt lat="45.887008322817564" lon="12.091364353992965"><ele>142.60000000000002</ele><time>2026-04-25T17:32:42.999Z</time></trkpt><trkpt lat="45.886919200982106" lon="12.091488005172446"><ele>142.39999999999998</ele><time>2026-04-25T17:32:44.999Z</time></trkpt><trkpt lat="45.886873036384515" lon="12.091555994119053"><ele>142.2</ele><time>2026-04-25T17:32:45.999Z</time></trkpt><trkpt lat="45.88681721260379" lon="12.091602526897095"><ele>142.0</ele><time>2026-04-25T17:32:46.999Z</time></trkpt><trkpt lat="45.8867226369756" lon="12.091711637594923"><ele>142.0</ele><time>2026-04-25T17:32:48.999Z</time></trkpt><trkpt lat="45.88669254383179" lon="12.091794342296796"><ele>142.0</ele><time>2026-04-25T17:32:49.999Z</time></trkpt><trkpt lat="45.88672121303953" lon="12.091908970594096"><ele>142.0</ele><time>2026-04-25T17:32:50.999Z</time></trkpt><trkpt lat="45.88673899714264" lon="12.092003440889238"><ele>142.0</ele><time>2026-04-25T17:32:51.999Z</time></trkpt><trkpt lat="45.886764114649885" lon="12.09208741372703"><ele>142.0</ele><time>2026-04-25T17:32:52.999Z</time></trkpt><trkpt lat="45.88678262608133" lon="12.092177385632775"><ele>142.0</ele><time>2026-04-25T17:32:53.999Z</time></trkpt><trkpt lat="45.88679804061451" lon="12.092269149016966"><ele>142.0</ele><time>2026-04-25T17:32:54.999Z</time></trkpt><trkpt lat="45.886793740103364" lon="12.092367676598494"><ele>142.14285714285714</ele><time>2026-04-25T17:32:55.999Z</time></trkpt><trkpt lat="45.886771827898386" lon="12.09245875307892"><ele>142.28571428571428</ele><time>2026-04-25T17:32:56.999Z</time></trkpt><trkpt lat="45.88671517608162" lon="12.092527884698002"><ele>142.42857142857142</ele><time>2026-04-25T17:32:57.999Z</time></trkpt><trkpt lat="45.88669400263152" lon="12.092620136490645"><ele>142.57142857142856</ele><time>2026-04-25T17:32:58.999Z</time></trkpt><trkpt lat="45.8866619317731" lon="12.092703061170486"><ele>142.71428571428572</ele><time>2026-04-25T17:32:59.999Z</time></trkpt><trkpt lat="45.88664200247989" lon="12.092790768154162"><ele>142.85714285714283</ele><time>2026-04-25T17:33:00.998Z</time></trkpt><trkpt lat="45.88662966628317" lon="12.092886837118785"><ele>143.0</ele><time>2026-04-25T17:33:01.998Z</time></trkpt><trkpt lat="45.886625711320924" lon="12.09298505062608"><ele>142.33333333333331</ele><time>2026-04-25T17:33:02.998Z</time></trkpt><trkpt lat="45.886629327144746" lon="12.093083866468726"><ele>141.66666666666666</ele><time>2026-04-25T17:33:03.998Z</time></trkpt><trkpt lat="45.88663718652149" lon="12.09317622570949"><ele>141.0</ele><time>2026-04-25T17:33:04.998Z</time></trkpt><trkpt lat="45.88663560561122" lon="12.093269425065515"><ele>140.33333333333334</ele><time>2026-04-25T17:33:05.998Z</time></trkpt><trkpt lat="45.886602594903714" lon="12.093443609785892"><ele>139.66666666666669</ele><time>2026-04-25T17:33:07.998Z</time></trkpt><trkpt lat="45.88656093921541" lon="12.093516363694981"><ele>139.0</ele><time>2026-04-25T17:33:08.998Z</time></trkpt><trkpt lat="45.8864963716814" lon="12.09355115945528"><ele>139.0</ele><time>2026-04-25T17:33:09.998Z</time></trkpt><trkpt lat="45.88644999148384" lon="12.093621168764972"><ele>139.0</ele><time>2026-04-25T17:33:10.998Z</time></trkpt><trkpt lat="45.88639279963805" lon="12.093670325754536"><ele>139.0</ele><time>2026-04-25T17:33:11.998Z</time></trkpt><trkpt lat="45.88633465244546" lon="12.093721996977408"><ele>139.0</ele><time>2026-04-25T17:33:12.998Z</time></trkpt><trkpt lat="45.88628042257689" lon="12.093773782038808"><ele>139.0</ele><time>2026-04-25T17:33:13.998Z</time></trkpt><trkpt lat="45.88622422848144" lon="12.09382064921816"><ele>139.0</ele><time>2026-04-25T17:33:14.998Z</time></trkpt><trkpt lat="45.88616850018911" lon="12.093863864712096"><ele>139.0</ele><time>2026-04-25T17:33:15.998Z</time></trkpt><trkpt lat="45.88606352482321" lon="12.09396223873483"><ele>139.0</ele><time>2026-04-25T17:33:17.998Z</time></trkpt><trkpt lat="45.88595327706444" lon="12.094028810963747"><ele>139.0</ele><time>2026-04-25T17:33:19.998Z</time></trkpt><trkpt lat="45.88593503098055" lon="12.094153784198573"><ele>139.0</ele><time>2026-04-25T17:33:20.998Z</time></trkpt><trkpt lat="45.88589953566168" lon="12.09423158059947"><ele>139.0</ele><time>2026-04-25T17:33:21.998Z</time></trkpt><trkpt lat="45.8858592806186" lon="12.094304791705047"><ele>139.0</ele><time>2026-04-25T17:33:22.998Z</time></trkpt><trkpt lat="45.885817337242685" lon="12.094374004044129"><ele>139.0</ele><time>2026-04-25T17:33:23.998Z</time></trkpt><trkpt lat="45.88577381760674" lon="12.094441191181609"><ele>139.0</ele><time>2026-04-25T17:33:24.998Z</time></trkpt><trkpt lat="45.885690530208" lon="12.09457611185231"><ele>139.0</ele><time>2026-04-25T17:33:26.998Z</time></trkpt><trkpt lat="45.885651717642844" lon="12.094650017249243"><ele>139.0</ele><time>2026-04-25T17:33:27.998Z</time></trkpt><trkpt lat="45.88558118206121" lon="12.094793247520801"><ele>139.0</ele><time>2026-04-25T17:33:29.998Z</time></trkpt><trkpt lat="45.88552460523174" lon="12.094946227539166"><ele>139.0</ele><time>2026-04-25T17:33:31.998Z</time></trkpt><trkpt lat="45.88548327910623" lon="12.09501703649306"><ele>138.5</ele><time>2026-04-25T17:33:32.998Z</time></trkpt><trkpt lat="45.885433888826185" lon="12.095075125112553"><ele>138.0</ele><time>2026-04-25T17:33:33.998Z</time></trkpt><trkpt lat="45.8853078399885" lon="12.095135036820768"><ele>137.5</ele><time>2026-04-25T17:33:36Z</time></trkpt><trkpt lat="45.8852597263298" lon="12.095194308494722"><ele>137.0</ele><time>2026-04-25T17:33:37Z</time></trkpt><trkpt lat="45.88519890567134" lon="12.095239418639116"><ele>136.5</ele><time>2026-04-25T17:33:38Z</time></trkpt><trkpt lat="45.885136233185904" lon="12.095281240815014"><ele>136.0</ele><time>2026-04-25T17:33:39Z</time></trkpt><trkpt lat="45.88507540774723" lon="12.09532216402445"><ele>135.99999999999997</ele><time>2026-04-25T17:33:40Z</time></trkpt><trkpt lat="45.885013647993844" lon="12.095363519018537"><ele>136.0</ele><time>2026-04-25T17:33:41Z</time></trkpt><trkpt lat="45.884950704804474" lon="12.095401564234157"><ele>136.0</ele><time>2026-04-25T17:33:42Z</time></trkpt><trkpt lat="45.88488752300919" lon="12.095445498902544"><ele>136.0</ele><time>2026-04-25T17:33:43Z</time></trkpt><trkpt lat="45.884826273291104" lon="12.095489045750464"><ele>136.0</ele><time>2026-04-25T17:33:44Z</time></trkpt><trkpt lat="45.8847600062108" lon="12.095532509298488"><ele>135.99999999999997</ele><time>2026-04-25T17:33:45Z</time></trkpt><trkpt lat="45.88469424562523" lon="12.095579124536087"><ele>136.0</ele><time>2026-04-25T17:33:46Z</time></trkpt><trkpt lat="45.88462139384343" lon="12.095600993967642"><ele>135.99999999999997</ele><time>2026-04-25T17:33:47Z</time></trkpt><trkpt lat="45.88455373075187" lon="12.09564347646241"><ele>136.0</ele><time>2026-04-25T17:33:48Z</time></trkpt><trkpt lat="45.88448662383859" lon="12.095683337312341"><ele>136.0</ele><time>2026-04-25T17:33:49Z</time></trkpt><trkpt lat="45.88441942463978" lon="12.095721826018297"><ele>136.0</ele><time>2026-04-25T17:33:50Z</time></trkpt><trkpt lat="45.88435160551461" lon="12.095760313137246"><ele>136.0</ele><time>2026-04-25T17:33:51Z</time></trkpt><trkpt lat="45.88428201871152" lon="12.095798528273418"><ele>135.99999999999997</ele><time>2026-04-25T17:33:52Z</time></trkpt><trkpt lat="45.884212703996866" lon="12.0958320482909"><ele>136.0</ele><time>2026-04-25T17:33:53Z</time></trkpt><trkpt lat="45.88414295503624" lon="12.09585738441009"><ele>135.7142857142857</ele><time>2026-04-25T17:33:54Z</time></trkpt><trkpt lat="45.88407240503157" lon="12.095875601360502"><ele>135.42857142857142</ele><time>2026-04-25T17:33:55Z</time></trkpt><trkpt lat="45.884000226332006" lon="12.095888000707411"><ele>135.14285714285714</ele><time>2026-04-25T17:33:56Z</time></trkpt><trkpt lat="45.88392708392763" lon="12.095896750658742"><ele>134.85714285714283</ele><time>2026-04-25T17:33:57Z</time></trkpt><trkpt lat="45.88385394273501" lon="12.095903013230282"><ele>134.57142857142856</ele><time>2026-04-25T17:33:58Z</time></trkpt><trkpt lat="45.88378197323573" lon="12.095909175447705"><ele>134.28571428571428</ele><time>2026-04-25T17:33:59Z</time></trkpt><trkpt lat="45.883712350027224" lon="12.095936577268382"><ele>134.0</ele><time>2026-04-25T17:34:00Z</time></trkpt><trkpt lat="45.88364242547004" lon="12.095944732817552"><ele>134.0</ele><time>2026-04-25T17:34:01Z</time></trkpt><trkpt lat="45.88357329864973" lon="12.095952006385222"><ele>134.0</ele><time>2026-04-25T17:34:02Z</time></trkpt><trkpt lat="45.88350506835761" lon="12.09596052260915"><ele>134.0</ele><time>2026-04-25T17:34:03Z</time></trkpt><trkpt lat="45.88343718416476" lon="12.09597484470029"><ele>134.0</ele><time>2026-04-25T17:34:04Z</time></trkpt><trkpt lat="45.88337101947645" lon="12.095986341111715"><ele>134.0</ele><time>2026-04-25T17:34:05Z</time></trkpt><trkpt lat="45.88330008527349" lon="12.095972871027802"><ele>134.0</ele><time>2026-04-25T17:34:06Z</time></trkpt><trkpt lat="45.88323118538133" lon="12.095979703453786"><ele>134.0</ele><time>2026-04-25T17:34:07Z</time></trkpt><trkpt lat="45.88316335232271" lon="12.095985236426495"><ele>133.83333333333331</ele><time>2026-04-25T17:34:08Z</time></trkpt><trkpt lat="45.883097555470414" lon="12.095990603310797"><ele>133.66666666666666</ele><time>2026-04-25T17:34:09Z</time></trkpt><trkpt lat="45.88302678664966" lon="12.095996375747292"><ele>133.5</ele><time>2026-04-25T17:34:10Z</time></trkpt><trkpt lat="45.88296016170504" lon="12.096001810174606"><ele>133.33333333333334</ele><time>2026-04-25T17:34:10.999Z</time></trkpt><trkpt lat="45.88289459818203" lon="12.096006904613269"><ele>133.16666666666669</ele><time>2026-04-25T17:34:11.999Z</time></trkpt><trkpt lat="45.882829407802525" lon="12.096009850453536"><ele>133.0</ele><time>2026-04-25T17:34:12.999Z</time></trkpt><trkpt lat="45.882705461355314" lon="12.09602990850823"><ele>133.0</ele><time>2026-04-25T17:34:14.999Z</time></trkpt><trkpt lat="45.88264733263977" lon="12.095987774464014"><ele>133.0</ele><time>2026-04-25T17:34:15.999Z</time></trkpt><trkpt lat="45.882563179843906" lon="12.095888115144318"><ele>133.0</ele><time>2026-04-25T17:34:17.999Z</time></trkpt><trkpt lat="45.88250014890503" lon="12.095742566242489"><ele>133.0</ele><time>2026-04-25T17:34:19.999Z</time></trkpt><trkpt lat="45.882447453956885" lon="12.095692386936125"><ele>133.0</ele><time>2026-04-25T17:34:20.999Z</time></trkpt><trkpt lat="45.8823650099274" lon="12.095689748858232"><ele>133.0</ele><time>2026-04-25T17:34:21.999Z</time></trkpt><trkpt lat="45.882301703855" lon="12.095781453086543"><ele>133.5</ele><time>2026-04-25T17:34:22.999Z</time></trkpt><trkpt lat="45.88224867889222" lon="12.095830450363252"><ele>134.0</ele><time>2026-04-25T17:34:23.999Z</time></trkpt><trkpt lat="45.88218553409883" lon="12.095859188093618"><ele>134.5</ele><time>2026-04-25T17:34:24.999Z</time></trkpt><trkpt lat="45.88208242235177" lon="12.095961275562427"><ele>135.0</ele><time>2026-04-25T17:34:26.999Z</time></trkpt><trkpt lat="45.882026323661954" lon="12.09601378373937"><ele>135.5</ele><time>2026-04-25T17:34:27.999Z</time></trkpt><trkpt lat="45.88197019349492" lon="12.096058273428795"><ele>136.0</ele><time>2026-04-25T17:34:28.999Z</time></trkpt><trkpt lat="45.88191387644254" lon="12.096104995027021"><ele>136.0</ele><time>2026-04-25T17:34:29.998Z</time></trkpt><trkpt lat="45.881804276430174" lon="12.09619851013148"><ele>136.0</ele><time>2026-04-25T17:34:31.998Z</time></trkpt><trkpt lat="45.881747957902085" lon="12.09626019210626"><ele>136.0</ele><time>2026-04-25T17:34:32.998Z</time></trkpt><trkpt lat="45.88167179066654" lon="12.096384952347494"><ele>136.0</ele><time>2026-04-25T17:34:34.998Z</time></trkpt><trkpt lat="45.881627807533945" lon="12.096450140497714"><ele>136.0</ele><time>2026-04-25T17:34:35.998Z</time></trkpt><trkpt lat="45.88157540770038" lon="12.09662135586183"><ele>135.2</ele><time>2026-04-25T17:34:37.998Z</time></trkpt><trkpt lat="45.881527705838955" lon="12.096780530200785"><ele>134.39999999999998</ele><time>2026-04-25T17:34:39.998Z</time></trkpt><trkpt lat="45.88141860168752" lon="12.096870086590464"><ele>133.6</ele><time>2026-04-25T17:34:41.998Z</time></trkpt><trkpt lat="45.88137024302873" lon="12.096937415207929"><ele>132.79999999999998</ele><time>2026-04-25T17:34:42.998Z</time></trkpt><trkpt lat="45.881274158485084" lon="12.097043208520885"><ele>132.0</ele><time>2026-04-25T17:34:44.998Z</time></trkpt><trkpt lat="45.881197026659" lon="12.097182653145245"><ele>132.0</ele><time>2026-04-25T17:34:46.998Z</time></trkpt><trkpt lat="45.88118498393581" lon="12.097357717218602"><ele>132.0</ele><time>2026-04-25T17:34:48.998Z</time></trkpt><trkpt lat="45.88120880332874" lon="12.097451122967913"><ele>132.0</ele><time>2026-04-25T17:34:49.998Z</time></trkpt><trkpt lat="45.88123424444833" lon="12.097626425277731"><ele>132.0</ele><time>2026-04-25T17:34:51.998Z</time></trkpt><trkpt lat="45.88123073168081" lon="12.09779599064269"><ele>132.0</ele><time>2026-04-25T17:34:53.998Z</time></trkpt><trkpt lat="45.881201564842165" lon="12.097960824823216"><ele>132.14285714285714</ele><time>2026-04-25T17:34:55.998Z</time></trkpt><trkpt lat="45.88118249027758" lon="12.098048996323614"><ele>132.28571428571428</ele><time>2026-04-25T17:34:56.998Z</time></trkpt><trkpt lat="45.881162562089884" lon="12.098137851932789"><ele>132.42857142857144</ele><time>2026-04-25T17:34:57.998Z</time></trkpt><trkpt lat="45.88114118855368" lon="12.098225414332303"><ele>132.57142857142856</ele><time>2026-04-25T17:34:58.998Z</time></trkpt><trkpt lat="45.88111550133811" lon="12.098311678832701"><ele>132.71428571428572</ele><time>2026-04-25T17:34:59.998Z</time></trkpt><trkpt lat="45.881087218775484" lon="12.09840448330915"><ele>132.85714285714286</ele><time>2026-04-25T17:35:00.998Z</time></trkpt><trkpt lat="45.88105758938922" lon="12.09849032552381"><ele>133.0</ele><time>2026-04-25T17:35:01.998Z</time></trkpt><trkpt lat="45.88102753788963" lon="12.09857859951797"><ele>132.66666666666669</ele><time>2026-04-25T17:35:02.998Z</time></trkpt><trkpt lat="45.88099646537283" lon="12.09866792222753"><ele>132.33333333333334</ele><time>2026-04-25T17:35:03.998Z</time></trkpt><trkpt lat="45.88096509917444" lon="12.09875467348493"><ele>132.0</ele><time>2026-04-25T17:35:04.998Z</time></trkpt><trkpt lat="45.880933466815236" lon="12.098842160568754"><ele>131.66666666666666</ele><time>2026-04-25T17:35:05.998Z</time></trkpt><trkpt lat="45.8809034078179" lon="12.098925296231892"><ele>131.33333333333331</ele><time>2026-04-25T17:35:06.998Z</time></trkpt><trkpt lat="45.88084387381048" lon="12.09908995243106"><ele>131.0</ele><time>2026-04-25T17:35:08.998Z</time></trkpt><trkpt lat="45.88078739413153" lon="12.099247656879488"><ele>131.0</ele><time>2026-04-25T17:35:10.998Z</time></trkpt><trkpt lat="45.88075727366525" lon="12.099333697323317"><ele>131.0</ele><time>2026-04-25T17:35:11.998Z</time></trkpt><trkpt lat="45.880711827456054" lon="12.09950687486954"><ele>131.0</ele><time>2026-04-25T17:35:13.997Z</time></trkpt><trkpt lat="45.88067285188772" lon="12.099668444002008"><ele>131.0</ele><time>2026-04-25T17:35:15.997Z</time></trkpt><trkpt lat="45.880588484034945" lon="12.09979208265338"><ele>131.0</ele><time>2026-04-25T17:35:17.997Z</time></trkpt><trkpt lat="45.880504128565605" lon="12.099922423888865"><ele>131.0</ele><time>2026-04-25T17:35:19.997Z</time></trkpt><trkpt lat="45.880435913363314" lon="12.1000695386723"><ele>131.0</ele><time>2026-04-25T17:35:21.997Z</time></trkpt><trkpt lat="45.88041815757145" lon="12.10015783728842"><ele>131.0</ele><time>2026-04-25T17:35:22.997Z</time></trkpt><trkpt lat="45.8803868182253" lon="12.100237541337554"><ele>131.0</ele><time>2026-04-25T17:35:23.997Z</time></trkpt><trkpt lat="45.88033167788109" lon="12.100400101403125"><ele>131.0</ele><time>2026-04-25T17:35:25.997Z</time></trkpt><trkpt lat="45.88029523565186" lon="12.100479412954705"><ele>131.0</ele><time>2026-04-25T17:35:26.997Z</time></trkpt><trkpt lat="45.88025832156666" lon="12.100553777775687"><ele>131.0</ele><time>2026-04-25T17:35:27.997Z</time></trkpt><trkpt lat="45.88019433977755" lon="12.10070889829019"><ele>131.0</ele><time>2026-04-25T17:35:29.997Z</time></trkpt><trkpt lat="45.88016276829398" lon="12.100789345237839"><ele>131.0</ele><time>2026-04-25T17:35:30.997Z</time></trkpt><trkpt lat="45.880129960662416" lon="12.10086960080366"><ele>131.0</ele><time>2026-04-25T17:35:31.997Z</time></trkpt><trkpt lat="45.88007978756191" lon="12.101030964648722"><ele>131.0</ele><time>2026-04-25T17:35:33.997Z</time></trkpt><trkpt lat="45.880063164670624" lon="12.101201205051911"><ele>130.4</ele><time>2026-04-25T17:35:35.997Z</time></trkpt><trkpt lat="45.880071410544" lon="12.101291123555194"><ele>129.8</ele><time>2026-04-25T17:35:36.997Z</time></trkpt><trkpt lat="45.88010025953474" lon="12.101464807414796"><ele>129.20000000000002</ele><time>2026-04-25T17:35:38.997Z</time></trkpt><trkpt lat="45.88014216460966" lon="12.101630490449557"><ele>128.6</ele><time>2026-04-25T17:35:40.997Z</time></trkpt><trkpt lat="45.880172723989645" lon="12.101794546869069"><ele>128.0</ele><time>2026-04-25T17:35:43Z</time></trkpt><trkpt lat="45.88020711249567" lon="12.101965051035021"><ele>128.0</ele><time>2026-04-25T17:35:45Z</time></trkpt><trkpt lat="45.88019275602196" lon="12.10205436787189"><ele>128.0</ele><time>2026-04-25T17:35:46Z</time></trkpt><trkpt lat="45.88016348741187" lon="12.102205056042912"><ele>128.0</ele><time>2026-04-25T17:35:48Z</time></trkpt><trkpt lat="45.880103286105204" lon="12.102363145098337"><ele>128.0</ele><time>2026-04-25T17:35:50Z</time></trkpt><trkpt lat="45.88003271361695" lon="12.102519680513705"><ele>128.0</ele><time>2026-04-25T17:35:52Z</time></trkpt><trkpt lat="45.8800007521797" lon="12.102599811400658"><ele>127.99999999999999</ele><time>2026-04-25T17:35:53Z</time></trkpt><trkpt lat="45.87997073526315" lon="12.102690888671784"><ele>128.0</ele><time>2026-04-25T17:35:54Z</time></trkpt><trkpt lat="45.87990476272798" lon="12.102843905097746"><ele>128.0</ele><time>2026-04-25T17:35:56Z</time></trkpt><trkpt lat="45.879861499580784" lon="12.102910529565037"><ele>128.0</ele><time>2026-04-25T17:35:57Z</time></trkpt><trkpt lat="45.87981771942503" lon="12.102983496435836"><ele>127.99999999999999</ele><time>2026-04-25T17:35:58Z</time></trkpt><trkpt lat="45.879774375002896" lon="12.103060317619846"><ele>128.0</ele><time>2026-04-25T17:35:59Z</time></trkpt><trkpt lat="45.87973490460568" lon="12.103145180529102"><ele>128.0</ele><time>2026-04-25T17:36:00Z</time></trkpt><trkpt lat="45.879702975476604" lon="12.10323298047307"><ele>127.99999999999999</ele><time>2026-04-25T17:36:01Z</time></trkpt><trkpt lat="45.87967587711374" lon="12.103320459915519"><ele>128.0</ele><time>2026-04-25T17:36:02Z</time></trkpt><trkpt lat="45.879653498751495" lon="12.103412334424464"><ele>128.0</ele><time>2026-04-25T17:36:03Z</time></trkpt><trkpt lat="45.87965083804288" lon="12.103512198499326"><ele>127.99999999999999</ele><time>2026-04-25T17:36:03.999Z</time></trkpt><trkpt lat="45.879633745367244" lon="12.10360093900372"><ele>128.0</ele><time>2026-04-25T17:36:04.999Z</time></trkpt><trkpt lat="45.87962343992403" lon="12.103693995470913"><ele>128.0</ele><time>2026-04-25T17:36:05.999Z</time></trkpt><trkpt lat="45.87958784941123" lon="12.103777894420281"><ele>127.83333333333333</ele><time>2026-04-25T17:36:06.999Z</time></trkpt><trkpt lat="45.87957581102152" lon="12.103868757237427"><ele>127.66666666666666</ele><time>2026-04-25T17:36:07.999Z</time></trkpt><trkpt lat="45.87954169587285" lon="12.103948716979554"><ele>127.5</ele><time>2026-04-25T17:36:08.999Z</time></trkpt><trkpt lat="45.879509018911115" lon="12.104032834179291"><ele>127.33333333333334</ele><time>2026-04-25T17:36:09.999Z</time></trkpt><trkpt lat="45.87946835146074" lon="12.10411136367092"><ele>127.16666666666667</ele><time>2026-04-25T17:36:10.999Z</time></trkpt><trkpt lat="45.87939194490136" lon="12.10425666130868"><ele>127.0</ele><time>2026-04-25T17:36:12.999Z</time></trkpt><trkpt lat="45.879341870782476" lon="12.104415336942777"><ele>126.83333333333334</ele><time>2026-04-25T17:36:14.999Z</time></trkpt><trkpt lat="45.87931024844513" lon="12.104493576266108"><ele>126.66666666666667</ele><time>2026-04-25T17:36:15.999Z</time></trkpt><trkpt lat="45.879260686632016" lon="12.104663896452038"><ele>126.5</ele><time>2026-04-25T17:36:17.999Z</time></trkpt><trkpt lat="45.8792293530264" lon="12.104751391982294"><ele>126.33333333333334</ele><time>2026-04-25T17:36:18.999Z</time></trkpt><trkpt lat="45.87923559156767" lon="12.104850666950446"><ele>126.16666666666667</ele><time>2026-04-25T17:36:19.999Z</time></trkpt><trkpt lat="45.8792301619155" lon="12.104943524621008"><ele>126.0</ele><time>2026-04-25T17:36:20.999Z</time></trkpt><trkpt lat="45.879196819151154" lon="12.105029457927811"><ele>125.75</ele><time>2026-04-25T17:36:21.999Z</time></trkpt><trkpt lat="45.879152719962164" lon="12.10518861052212"><ele>125.5</ele><time>2026-04-25T17:36:23.999Z</time></trkpt><trkpt lat="45.8791097116185" lon="12.105331389930063"><ele>125.25</ele><time>2026-04-25T17:36:25.999Z</time></trkpt><trkpt lat="45.879077280203504" lon="12.105492414306639"><ele>125.0</ele><time>2026-04-25T17:36:27.999Z</time></trkpt><trkpt lat="45.87902913931383" lon="12.105641736982767"><ele>124.8</ele><time>2026-04-25T17:36:29.999Z</time></trkpt><trkpt lat="45.87899245030384" lon="12.105797301663033"><ele>124.6</ele><time>2026-04-25T17:36:31.999Z</time></trkpt><trkpt lat="45.87895933150679" lon="12.105935639886019"><ele>124.4</ele><time>2026-04-25T17:36:33.999Z</time></trkpt><trkpt lat="45.8789282368421" lon="12.106090627356949"><ele>124.2</ele><time>2026-04-25T17:36:35.999Z</time></trkpt><trkpt lat="45.878907373203035" lon="12.106242947209912"><ele>124.0</ele><time>2026-04-25T17:36:37.999Z</time></trkpt><trkpt lat="45.878883705540666" lon="12.106396790791406"><ele>124.0</ele><time>2026-04-25T17:36:39.999Z</time></trkpt><trkpt lat="45.878853899534825" lon="12.106477002727328"><ele>124.0</ele><time>2026-04-25T17:36:40.999Z</time></trkpt><trkpt lat="45.87878777225441" lon="12.106629910992035"><ele>124.0</ele><time>2026-04-25T17:36:42.999Z</time></trkpt><trkpt lat="45.87869681565297" lon="12.106753780249113"><ele>124.0</ele><time>2026-04-25T17:36:44.999Z</time></trkpt><trkpt lat="45.87862613569228" lon="12.106889909676376"><ele>124.0</ele><time>2026-04-25T17:36:46.998Z</time></trkpt><trkpt lat="45.878547365180395" lon="12.10701694613283"><ele>124.0</ele><time>2026-04-25T17:36:48.998Z</time></trkpt><trkpt lat="45.87848272785483" lon="12.107158577686167"><ele>124.0</ele><time>2026-04-25T17:36:50.998Z</time></trkpt><trkpt lat="45.87841836066046" lon="12.107308918930826"><ele>124.0</ele><time>2026-04-25T17:36:52.998Z</time></trkpt><trkpt lat="45.878369271959244" lon="12.107460358774725"><ele>124.0</ele><time>2026-04-25T17:36:54.998Z</time></trkpt><trkpt lat="45.87831577986325" lon="12.10759421220852"><ele>124.0</ele><time>2026-04-25T17:36:56.998Z</time></trkpt><trkpt lat="45.87823405136886" lon="12.107722765651328"><ele>124.0</ele><time>2026-04-25T17:36:58.998Z</time></trkpt><trkpt lat="45.87817577945262" lon="12.107862377903757"><ele>124.0</ele><time>2026-04-25T17:37:00.998Z</time></trkpt><trkpt lat="45.878104795562564" lon="12.107994657601312"><ele>124.0</ele><time>2026-04-25T17:37:02.998Z</time></trkpt><trkpt lat="45.878022638768314" lon="12.108095316914998"><ele>124.0</ele><time>2026-04-25T17:37:04.998Z</time></trkpt><trkpt lat="45.87796424966215" lon="12.10823101687879"><ele>124.0</ele><time>2026-04-25T17:37:06.998Z</time></trkpt><trkpt lat="45.877905403828265" lon="12.108348553207254"><ele>124.0</ele><time>2026-04-25T17:37:08.998Z</time></trkpt><trkpt lat="45.87785801742522" lon="12.108472473023875"><ele>124.0</ele><time>2026-04-25T17:37:10.998Z</time></trkpt><trkpt lat="45.87782092954429" lon="12.108616197175843"><ele>124.0</ele><time>2026-04-25T17:37:12.998Z</time></trkpt><trkpt lat="45.877780924669224" lon="12.108767550834507"><ele>123.80000000000001</ele><time>2026-04-25T17:37:14.998Z</time></trkpt><trkpt lat="45.87775335981428" lon="12.108896019002575"><ele>123.60000000000001</ele><time>2026-04-25T17:37:16.998Z</time></trkpt><trkpt lat="45.87771982642876" lon="12.109039367389435"><ele>123.4</ele><time>2026-04-25T17:37:18.998Z</time></trkpt><trkpt lat="45.87769557489517" lon="12.109174116175394"><ele>123.2</ele><time>2026-04-25T17:37:20.998Z</time></trkpt><trkpt lat="45.87764715406686" lon="12.109306647349083"><ele>123.0</ele><time>2026-04-25T17:37:22.998Z</time></trkpt><trkpt lat="45.87761212666526" lon="12.109445698231054"><ele>123.2</ele><time>2026-04-25T17:37:24.998Z</time></trkpt><trkpt lat="45.87757593369004" lon="12.109594806619981"><ele>123.4</ele><time>2026-04-25T17:37:26.998Z</time></trkpt><trkpt lat="45.87755550326674" lon="12.109750873044502"><ele>123.60000000000001</ele><time>2026-04-25T17:37:28.998Z</time></trkpt><trkpt lat="45.87753689523851" lon="12.109887032733246"><ele>123.80000000000001</ele><time>2026-04-25T17:37:30.997Z</time></trkpt><trkpt lat="45.87752047302968" lon="12.110051412945802"><ele>124.0</ele><time>2026-04-25T17:37:32.997Z</time></trkpt><trkpt lat="45.8774890159006" lon="12.110200716035722"><ele>123.6</ele><time>2026-04-25T17:37:34.997Z</time></trkpt><trkpt lat="45.87740376314862" lon="12.110294417747944"><ele>123.2</ele><time>2026-04-25T17:37:36.997Z</time></trkpt><trkpt lat="45.8773009362527" lon="12.110352369070519"><ele>122.79999999999998</ele><time>2026-04-25T17:37:38.997Z</time></trkpt><trkpt lat="45.877197288469475" lon="12.110417249293631"><ele>122.39999999999999</ele><time>2026-04-25T17:37:40.997Z</time></trkpt><trkpt lat="45.87713523055676" lon="12.110440606072249"><ele>122.0</ele><time>2026-04-25T17:37:41.997Z</time></trkpt><trkpt lat="45.877037065283204" lon="12.110496463221397"><ele>122.0</ele><time>2026-04-25T17:37:43.997Z</time></trkpt><trkpt lat="45.876953103436975" lon="12.11059741172364"><ele>121.99999999999999</ele><time>2026-04-25T17:37:45.997Z</time></trkpt><trkpt lat="45.87688403862303" lon="12.110724061876356"><ele>121.99999999999999</ele><time>2026-04-25T17:37:48Z</time></trkpt><trkpt lat="45.876829972246775" lon="12.110876854460011"><ele>122.0</ele><time>2026-04-25T17:37:50Z</time></trkpt><trkpt lat="45.87680750799632" lon="12.110962011760606"><ele>122.0</ele><time>2026-04-25T17:37:51Z</time></trkpt><trkpt lat="45.876800788121365" lon="12.111131275031068"><ele>122.0</ele><time>2026-04-25T17:37:53Z</time></trkpt><trkpt lat="45.876804601710504" lon="12.111224214063755"><ele>121.99999999999999</ele><time>2026-04-25T17:37:54Z</time></trkpt><trkpt lat="45.87680970320678" lon="12.111389239958594"><ele>121.99999999999999</ele><time>2026-04-25T17:37:56Z</time></trkpt><trkpt lat="45.876802103906705" lon="12.111549526817795"><ele>122.0</ele><time>2026-04-25T17:37:58Z</time></trkpt><trkpt lat="45.8768006391211" lon="12.111704881489642"><ele>122.0</ele><time>2026-04-25T17:38:00Z</time></trkpt><trkpt lat="45.876804798564" lon="12.111875270765182"><ele>122.0</ele><time>2026-04-25T17:38:02Z</time></trkpt><trkpt lat="45.87679681631552" lon="12.112034789470016"><ele>122.0</ele><time>2026-04-25T17:38:04Z</time></trkpt><trkpt lat="45.876761626561766" lon="12.112187629427224"><ele>122.0</ele><time>2026-04-25T17:38:06Z</time></trkpt><trkpt lat="45.87667081719799" lon="12.112290779718965"><ele>122.0</ele><time>2026-04-25T17:38:08Z</time></trkpt><trkpt lat="45.87657253786018" lon="12.1123693541323"><ele>121.5</ele><time>2026-04-25T17:38:10Z</time></trkpt><trkpt lat="45.87646401215407" lon="12.112441256039329"><ele>121.0</ele><time>2026-04-25T17:38:12Z</time></trkpt><trkpt lat="45.87637442327005" lon="12.11253460036397"><ele>120.5</ele><time>2026-04-25T17:38:14Z</time></trkpt><trkpt lat="45.876293963872065" lon="12.112638365640025"><ele>120.0</ele><time>2026-04-25T17:38:16Z</time></trkpt><trkpt lat="45.87625080511065" lon="12.112788262855293"><ele>120.0</ele><time>2026-04-25T17:38:18Z</time></trkpt><trkpt lat="45.876262050335725" lon="12.11292225549108"><ele>120.0</ele><time>2026-04-25T17:38:20Z</time></trkpt><trkpt lat="45.87626823301908" lon="12.113015209509358"><ele>120.0</ele><time>2026-04-25T17:38:21Z</time></trkpt><trkpt lat="45.87627281656659" lon="12.113118868400559"><ele>120.0</ele><time>2026-04-25T17:38:22Z</time></trkpt><trkpt lat="45.87626533068314" lon="12.113247312232199"><ele>120.0</ele><time>2026-04-25T17:38:23.999Z</time></trkpt><trkpt lat="45.876262574571086" lon="12.113384235764"><ele>120.0</ele><time>2026-04-25T17:38:25.999Z</time></trkpt><trkpt lat="45.87625758403067" lon="12.113533955682842"><ele>120.0</ele><time>2026-04-25T17:38:27.999Z</time></trkpt><trkpt lat="45.876264626433866" lon="12.113682484475973"><ele>120.0</ele><time>2026-04-25T17:38:29.999Z</time></trkpt><trkpt lat="45.87626119484609" lon="12.113827983122656"><ele>120.0</ele><time>2026-04-25T17:38:31.999Z</time></trkpt><trkpt lat="45.87622184577315" lon="12.113953554533426"><ele>120.0</ele><time>2026-04-25T17:38:33.999Z</time></trkpt><trkpt lat="45.876110918852085" lon="12.11395601032568"><ele>120.0</ele><time>2026-04-25T17:38:35.999Z</time></trkpt><trkpt lat="45.876023881380384" lon="12.114024419754797"><ele>119.2</ele><time>2026-04-25T17:38:37.999Z</time></trkpt><trkpt lat="45.87592731725461" lon="12.114095819597019"><ele>118.4</ele><time>2026-04-25T17:38:39.999Z</time></trkpt><trkpt lat="45.87583977806524" lon="12.11418292349132"><ele>117.6</ele><time>2026-04-25T17:38:41.999Z</time></trkpt><trkpt lat="45.87578049405253" lon="12.114328188834332"><ele>116.8</ele><time>2026-04-25T17:38:43.999Z</time></trkpt><trkpt lat="45.87579546609365" lon="12.11442759212799"><ele>116.0</ele><time>2026-04-25T17:38:44.999Z</time></trkpt><trkpt lat="45.87577392502762" lon="12.114584874022476"><ele>116.0</ele><time>2026-04-25T17:38:46.999Z</time></trkpt><trkpt lat="45.87574674381485" lon="12.11474070705285"><ele>116.0</ele><time>2026-04-25T17:38:48.999Z</time></trkpt><trkpt lat="45.875694570049106" lon="12.11488034871762"><ele>116.0</ele><time>2026-04-25T17:38:50.999Z</time></trkpt><trkpt lat="45.875654526664015" lon="12.115028368548451"><ele>116.0</ele><time>2026-04-25T17:38:52.999Z</time></trkpt><trkpt lat="45.87560084786508" lon="12.115170308529766"><ele>116.0</ele><time>2026-04-25T17:38:54.999Z</time></trkpt><trkpt lat="45.87554490174041" lon="12.115308611553823"><ele>116.0</ele><time>2026-04-25T17:38:56.999Z</time></trkpt><trkpt lat="45.87548274111547" lon="12.115459773180504"><ele>116.0</ele><time>2026-04-25T17:38:58.999Z</time></trkpt><trkpt lat="45.875421333976924" lon="12.115600926701964"><ele>116.0</ele><time>2026-04-25T17:39:00.999Z</time></trkpt><trkpt lat="45.875355042496714" lon="12.115739578589409"><ele>116.0</ele><time>2026-04-25T17:39:02.999Z</time></trkpt><trkpt lat="45.87532463697676" lon="12.115823486100448"><ele>116.0</ele><time>2026-04-25T17:39:03.999Z</time></trkpt><trkpt lat="45.87526073987848" lon="12.11596569786106"><ele>116.4</ele><time>2026-04-25T17:39:05.999Z</time></trkpt><trkpt lat="45.87517618144422" lon="12.116086241982774"><ele>116.8</ele><time>2026-04-25T17:39:07.998Z</time></trkpt><trkpt lat="45.87509979737055" lon="12.116223570319464"><ele>117.20000000000002</ele><time>2026-04-25T17:39:09.998Z</time></trkpt><trkpt lat="45.87506010537592" lon="12.116294487192961"><ele>117.60000000000001</ele><time>2026-04-25T17:39:10.998Z</time></trkpt><trkpt lat="45.874993219499494" lon="12.116441642166922"><ele>118.0</ele><time>2026-04-25T17:39:12.998Z</time></trkpt><trkpt lat="45.87491300139428" lon="12.116564853053394"><ele>118.25</ele><time>2026-04-25T17:39:14.998Z</time></trkpt><trkpt lat="45.87483235224942" lon="12.116694837084054"><ele>118.5</ele><time>2026-04-25T17:39:16.998Z</time></trkpt><trkpt lat="45.874754407724836" lon="12.11681801047652"><ele>118.75</ele><time>2026-04-25T17:39:18.998Z</time></trkpt><trkpt lat="45.874672098724375" lon="12.116946830436762"><ele>119.0</ele><time>2026-04-25T17:39:20.998Z</time></trkpt><trkpt lat="45.874585350426955" lon="12.117072459202381"><ele>119.0</ele><time>2026-04-25T17:39:22.998Z</time></trkpt><trkpt lat="45.87450163864871" lon="12.11720375359418"><ele>119.0</ele><time>2026-04-25T17:39:24.998Z</time></trkpt><trkpt lat="45.87441885178191" lon="12.117328360943603"><ele>119.0</ele><time>2026-04-25T17:39:26.998Z</time></trkpt><trkpt lat="45.87437214071713" lon="12.117389912164601"><ele>119.0</ele><time>2026-04-25T17:39:27.998Z</time></trkpt><trkpt lat="45.87427194815851" lon="12.117494886602213"><ele>119.0</ele><time>2026-04-25T17:39:29.998Z</time></trkpt><trkpt lat="45.87418208751593" lon="12.11761683441704"><ele>118.4</ele><time>2026-04-25T17:39:31.998Z</time></trkpt><trkpt lat="45.87408716696804" lon="12.117733602598037"><ele>117.80000000000001</ele><time>2026-04-25T17:39:33.998Z</time></trkpt><trkpt lat="45.87398616176302" lon="12.11783381812064"><ele>117.19999999999999</ele><time>2026-04-25T17:39:35.998Z</time></trkpt><trkpt lat="45.87393234682949" lon="12.117889862447374"><ele>116.6</ele><time>2026-04-25T17:39:36.998Z</time></trkpt><trkpt lat="45.873839334751715" lon="12.11800544019931"><ele>116.0</ele><time>2026-04-25T17:39:38.998Z</time></trkpt><trkpt lat="45.873798233571684" lon="12.118081616787046"><ele>116.00000000000001</ele><time>2026-04-25T17:39:39.998Z</time></trkpt><trkpt lat="45.873764091877185" lon="12.118161888590075"><ele>116.0</ele><time>2026-04-25T17:39:40.998Z</time></trkpt><trkpt lat="45.87374116061881" lon="12.11825794455226"><ele>116.00000000000001</ele><time>2026-04-25T17:39:41.998Z</time></trkpt><trkpt lat="45.87372334407636" lon="12.11835012656252"><ele>116.00000000000001</ele><time>2026-04-25T17:39:42.998Z</time></trkpt><trkpt lat="45.87373210005674" lon="12.11845363502702"><ele>116.0</ele><time>2026-04-25T17:39:43.998Z</time></trkpt><trkpt lat="45.873709686295655" lon="12.118541621948184"><ele>116.00000000000001</ele><time>2026-04-25T17:39:44.998Z</time></trkpt><trkpt lat="45.87369585753558" lon="12.118630929877932"><ele>116.00000000000001</ele><time>2026-04-25T17:39:45.998Z</time></trkpt><trkpt lat="45.8736732770629" lon="12.118717952760363"><ele>115.8</ele><time>2026-04-25T17:39:46.998Z</time></trkpt><trkpt lat="45.87364895869633" lon="12.11880526382063"><ele>115.6</ele><time>2026-04-25T17:39:47.998Z</time></trkpt><trkpt lat="45.87362243936218" lon="12.118890292202599"><ele>115.4</ele><time>2026-04-25T17:39:48.998Z</time></trkpt><trkpt lat="45.873565278472825" lon="12.119042814081116"><ele>115.2</ele><time>2026-04-25T17:39:50.998Z</time></trkpt><trkpt lat="45.87349727323538" lon="12.119180900329814"><ele>115.0</ele><time>2026-04-25T17:39:52.997Z</time></trkpt><trkpt lat="45.873418375913495" lon="12.119319794651544"><ele>116.25</ele><time>2026-04-25T17:39:55Z</time></trkpt><trkpt lat="45.87333046915719" lon="12.119449129922886"><ele>117.5</ele><time>2026-04-25T17:39:57Z</time></trkpt><trkpt lat="45.873274824875985" lon="12.11957572668501"><ele>118.75</ele><time>2026-04-25T17:39:59Z</time></trkpt><trkpt lat="45.87323076157434" lon="12.119715052036756"><ele>120.0</ele><time>2026-04-25T17:40:01Z</time></trkpt><trkpt lat="45.87321941933393" lon="12.119888253181028"><ele>119.66666666666667</ele><time>2026-04-25T17:40:03Z</time></trkpt><trkpt lat="45.873212150991016" lon="12.11997842668602"><ele>119.33333333333334</ele><time>2026-04-25T17:40:04Z</time></trkpt><trkpt lat="45.873221825743514" lon="12.120157046757683"><ele>119.0</ele><time>2026-04-25T17:40:06Z</time></trkpt><trkpt lat="45.87323592721406" lon="12.120245442503153"><ele>118.66666666666667</ele><time>2026-04-25T17:40:07Z</time></trkpt><trkpt lat="45.873248871169736" lon="12.120336947835037"><ele>118.33333333333334</ele><time>2026-04-25T17:40:08Z</time></trkpt><trkpt lat="45.87326888508628" lon="12.120514213365094"><ele>118.0</ele><time>2026-04-25T17:40:10Z</time></trkpt><trkpt lat="45.873276176142916" lon="12.120605968506133"><ele>118.2</ele><time>2026-04-25T17:40:11Z</time></trkpt><trkpt lat="45.87328636496862" lon="12.120784199703538"><ele>118.4</ele><time>2026-04-25T17:40:13Z</time></trkpt><trkpt lat="45.87327118395498" lon="12.120873106633784"><ele>118.60000000000001</ele><time>2026-04-25T17:40:14Z</time></trkpt><trkpt lat="45.87326501320742" lon="12.121052118725915"><ele>118.80000000000001</ele><time>2026-04-25T17:40:16Z</time></trkpt><trkpt lat="45.87327546604602" lon="12.121143968624366"><ele>119.0</ele><time>2026-04-25T17:40:17Z</time></trkpt><trkpt lat="45.873283063195075" lon="12.12132513655536"><ele>119.0</ele><time>2026-04-25T17:40:19Z</time></trkpt><trkpt lat="45.87328557692854" lon="12.121418400719582"><ele>119.0</ele><time>2026-04-25T17:40:20Z</time></trkpt><trkpt lat="45.873284302108125" lon="12.12151272832388"><ele>119.0</ele><time>2026-04-25T17:40:21Z</time></trkpt><trkpt lat="45.873293999642065" lon="12.12160383962305"><ele>119.0</ele><time>2026-04-25T17:40:22Z</time></trkpt><trkpt lat="45.873297331102684" lon="12.121700336317721"><ele>119.0</ele><time>2026-04-25T17:40:23Z</time></trkpt><trkpt lat="45.87330267722789" lon="12.121791845715181"><ele>119.0</ele><time>2026-04-25T17:40:24Z</time></trkpt><trkpt lat="45.87331016017283" lon="12.121887459091809"><ele>119.0</ele><time>2026-04-25T17:40:25Z</time></trkpt><trkpt lat="45.87331171292333" lon="12.121978814562286"><ele>119.16666666666666</ele><time>2026-04-25T17:40:26Z</time></trkpt><trkpt lat="45.873304448753245" lon="12.122156703638876"><ele>119.33333333333333</ele><time>2026-04-25T17:40:28Z</time></trkpt><trkpt lat="45.873305252790864" lon="12.122254868297837"><ele>119.5</ele><time>2026-04-25T17:40:29Z</time></trkpt><trkpt lat="45.873303505425646" lon="12.122350297698768"><ele>119.66666666666666</ele><time>2026-04-25T17:40:30Z</time></trkpt><trkpt lat="45.87328937197703" lon="12.122442903276164"><ele>119.83333333333333</ele><time>2026-04-25T17:40:31Z</time></trkpt><trkpt lat="45.87324654442547" lon="12.122525993571857"><ele>120.0</ele><time>2026-04-25T17:40:32Z</time></trkpt><trkpt lat="45.87324055783136" lon="12.122620837387439"><ele>120.14285714285714</ele><time>2026-04-25T17:40:33Z</time></trkpt><trkpt lat="45.87322746604744" lon="12.122718694394202"><ele>120.28571428571428</ele><time>2026-04-25T17:40:34Z</time></trkpt><trkpt lat="45.87322015882538" lon="12.122815113856477"><ele>120.42857142857142</ele><time>2026-04-25T17:40:35Z</time></trkpt><trkpt lat="45.873214739360115" lon="12.122906427891241"><ele>120.57142857142857</ele><time>2026-04-25T17:40:36Z</time></trkpt><trkpt lat="45.87321202821198" lon="12.123006799270987"><ele>120.7142857142857</ele><time>2026-04-25T17:40:37Z</time></trkpt><trkpt lat="45.87321453556913" lon="12.123102104976873"><ele>120.85714285714285</ele><time>2026-04-25T17:40:38Z</time></trkpt><trkpt lat="45.87322052422823" lon="12.123200224141055"><ele>121.0</ele><time>2026-04-25T17:40:39Z</time></trkpt><trkpt lat="45.8732276213915" lon="12.123299144584514"><ele>120.57142857142857</ele><time>2026-04-25T17:40:40Z</time></trkpt><trkpt lat="45.87323318634435" lon="12.123396676009444"><ele>120.14285714285714</ele><time>2026-04-25T17:40:41Z</time></trkpt><trkpt lat="45.873238678877186" lon="12.123494399390628"><ele>119.71428571428571</ele><time>2026-04-25T17:40:42Z</time></trkpt><trkpt lat="45.87323757344751" lon="12.123592337291457"><ele>119.28571428571428</ele><time>2026-04-25T17:40:42.999Z</time></trkpt><trkpt lat="45.87323868364132" lon="12.123689725522135"><ele>118.85714285714286</ele><time>2026-04-25T17:40:43.999Z</time></trkpt><trkpt lat="45.87323921398387" lon="12.123787682043245"><ele>118.42857142857142</ele><time>2026-04-25T17:40:44.999Z</time></trkpt><trkpt lat="45.873243931697765" lon="12.123881345768027"><ele>118.0</ele><time>2026-04-25T17:40:45.999Z</time></trkpt><trkpt lat="45.873248122313846" lon="12.123979780316269"><ele>117.71428571428571</ele><time>2026-04-25T17:40:46.999Z</time></trkpt><trkpt lat="45.87325515832722" lon="12.124074540061287"><ele>117.42857142857144</ele><time>2026-04-25T17:40:47.999Z</time></trkpt><trkpt lat="45.873267810033695" lon="12.124169081802453"><ele>117.14285714285715</ele><time>2026-04-25T17:40:48.999Z</time></trkpt><trkpt lat="45.87328595427108" lon="12.12426249312225"><ele>116.85714285714286</ele><time>2026-04-25T17:40:49.999Z</time></trkpt><trkpt lat="45.873300227514186" lon="12.124357684805245"><ele>116.57142857142858</ele><time>2026-04-25T17:40:50.999Z</time></trkpt><trkpt lat="45.87331717898566" lon="12.12445106468943"><ele>116.2857142857143</ele><time>2026-04-25T17:40:51.999Z</time></trkpt><trkpt lat="45.8733343278639" lon="12.124543212511744"><ele>116.00000000000001</ele><time>2026-04-25T17:40:52.999Z</time></trkpt><trkpt lat="45.87334678718192" lon="12.124639692793062"><ele>115.99999999999999</ele><time>2026-04-25T17:40:53.999Z</time></trkpt><trkpt lat="45.87336279379693" lon="12.124734530333921"><ele>116.0</ele><time>2026-04-25T17:40:54.999Z</time></trkpt><trkpt lat="45.87336045687846" lon="12.124922061508178"><ele>116.0</ele><time>2026-04-25T17:40:56.999Z</time></trkpt><trkpt lat="45.87338048287785" lon="12.125018859602555"><ele>116.0</ele><time>2026-04-25T17:40:57.999Z</time></trkpt><trkpt lat="45.873379224685856" lon="12.125116799333906"><ele>115.99999999999999</ele><time>2026-04-25T17:40:58.999Z</time></trkpt><trkpt lat="45.87338399646677" lon="12.125211475169792"><ele>116.0</ele><time>2026-04-25T17:40:59.999Z</time></trkpt><trkpt lat="45.87337939179464" lon="12.125303878383336"><ele>116.0</ele><time>2026-04-25T17:41:00.999Z</time></trkpt><trkpt lat="45.873376255765656" lon="12.125396229833571"><ele>116.0</ele><time>2026-04-25T17:41:01.999Z</time></trkpt><trkpt lat="45.87338044714718" lon="12.125564287190905"><ele>116.0</ele><time>2026-04-25T17:41:03.999Z</time></trkpt><trkpt lat="45.873365903056005" lon="12.12572806920988"><ele>116.0</ele><time>2026-04-25T17:41:05.999Z</time></trkpt><trkpt lat="45.87336416233859" lon="12.125882052123105"><ele>116.0</ele><time>2026-04-25T17:41:07.999Z</time></trkpt><trkpt lat="45.87334420986993" lon="12.126020028200301"><ele>115.25</ele><time>2026-04-25T17:41:09.999Z</time></trkpt><trkpt lat="45.873239854371526" lon="12.126038565493664"><ele>114.5</ele><time>2026-04-25T17:41:11.999Z</time></trkpt><trkpt lat="45.87312588988861" lon="12.12606657519784"><ele>113.75</ele><time>2026-04-25T17:41:13.999Z</time></trkpt><trkpt lat="45.87301266872955" lon="12.126071292274043"><ele>113.0</ele><time>2026-04-25T17:41:15.999Z</time></trkpt><trkpt lat="45.872886216382255" lon="12.12607645478889"><ele>112.99999999999999</ele><time>2026-04-25T17:41:17.999Z</time></trkpt><trkpt lat="45.87282304335541" lon="12.126079853169879"><ele>113.0</ele><time>2026-04-25T17:41:18.999Z</time></trkpt><trkpt lat="45.87275863503754" lon="12.126081985495702"><ele>113.0</ele><time>2026-04-25T17:41:19.999Z</time></trkpt><trkpt lat="45.87263701260801" lon="12.126066669604642"><ele>113.0</ele><time>2026-04-25T17:41:21.999Z</time></trkpt><trkpt lat="45.8725169449092" lon="12.126064497788354"><ele>112.99999999999999</ele><time>2026-04-25T17:41:23.999Z</time></trkpt><trkpt lat="45.87245350690346" lon="12.126068673258727"><ele>113.0</ele><time>2026-04-25T17:41:24.999Z</time></trkpt><trkpt lat="45.87233402279181" lon="12.126118828084355"><ele>113.14285714285714</ele><time>2026-04-25T17:41:26.998Z</time></trkpt><trkpt lat="45.87229092963873" lon="12.126186750909282"><ele>113.28571428571428</ele><time>2026-04-25T17:41:27.998Z</time></trkpt><trkpt lat="45.87223893464213" lon="12.126254767637409"><ele>113.42857142857142</ele><time>2026-04-25T17:41:28.998Z</time></trkpt><trkpt lat="45.87219519142849" lon="12.126328465043441"><ele>113.57142857142857</ele><time>2026-04-25T17:41:29.998Z</time></trkpt><trkpt lat="45.872154190846906" lon="12.126401695145683"><ele>113.7142857142857</ele><time>2026-04-25T17:41:30.998Z</time></trkpt><trkpt lat="45.87211540395165" lon="12.126476717327948"><ele>113.85714285714285</ele><time>2026-04-25T17:41:31.998Z</time></trkpt><trkpt lat="45.87207368559734" lon="12.126548163481873"><ele>114.0</ele><time>2026-04-25T17:41:32.998Z</time></trkpt><trkpt lat="45.87203504092531" lon="12.126620555422079"><ele>114.0</ele><time>2026-04-25T17:41:33.998Z</time></trkpt><trkpt lat="45.87196121168418" lon="12.126762377339388"><ele>114.0</ele><time>2026-04-25T17:41:35.998Z</time></trkpt><trkpt lat="45.871916379746374" lon="12.126840118875691"><ele>114.0</ele><time>2026-04-25T17:41:36.998Z</time></trkpt><trkpt lat="45.87187980510431" lon="12.126917803399477"><ele>114.0</ele><time>2026-04-25T17:41:37.998Z</time></trkpt><trkpt lat="45.87184243685221" lon="12.127001499065377"><ele>114.0</ele><time>2026-04-25T17:41:38.998Z</time></trkpt><trkpt lat="45.87180493319071" lon="12.127082286798847"><ele>114.0</ele><time>2026-04-25T17:41:39.998Z</time></trkpt><trkpt lat="45.871775673364745" lon="12.127168445885385"><ele>114.0</ele><time>2026-04-25T17:41:40.998Z</time></trkpt><trkpt lat="45.87174436751111" lon="12.127251282014846"><ele>113.99999999999999</ele><time>2026-04-25T17:41:41.998Z</time></trkpt><trkpt lat="45.871720067128535" lon="12.127337154818"><ele>114.0</ele><time>2026-04-25T17:41:42.998Z</time></trkpt><trkpt lat="45.87169472960746" lon="12.12742416036534"><ele>114.0</ele><time>2026-04-25T17:41:43.998Z</time></trkpt><trkpt lat="45.87167010864031" lon="12.12750927770833"><ele>113.99999999999999</ele><time>2026-04-25T17:41:44.998Z</time></trkpt><trkpt lat="45.871644701425744" lon="12.127592798547163"><ele>114.0</ele><time>2026-04-25T17:41:45.998Z</time></trkpt><trkpt lat="45.87162052892637" lon="12.12767711444908"><ele>114.0</ele><time>2026-04-25T17:41:46.998Z</time></trkpt><trkpt lat="45.871597758893884" lon="12.12776252870604"><ele>114.0</ele><time>2026-04-25T17:41:47.998Z</time></trkpt><trkpt lat="45.87155940919847" lon="12.127924614293546"><ele>114.0</ele><time>2026-04-25T17:41:49.998Z</time></trkpt><trkpt lat="45.871539848319415" lon="12.128082762064937"><ele>114.0</ele><time>2026-04-25T17:41:51.998Z</time></trkpt><trkpt lat="45.87154450431437" lon="12.128244643094089"><ele>114.0</ele><time>2026-04-25T17:41:53.998Z</time></trkpt><trkpt lat="45.87154759942769" lon="12.128396643082406"><ele>113.83333333333333</ele><time>2026-04-25T17:41:55.998Z</time></trkpt><trkpt lat="45.871546596607416" lon="12.128539618353292"><ele>113.66666666666666</ele><time>2026-04-25T17:41:57.998Z</time></trkpt><trkpt lat="45.87154814681544" lon="12.128675069871306"><ele>113.5</ele><time>2026-04-25T17:42:00.001Z</time></trkpt><trkpt lat="45.87154961977044" lon="12.128802424011479"><ele>113.33333333333333</ele><time>2026-04-25T17:42:02.001Z</time></trkpt><trkpt lat="45.87154797939255" lon="12.128921424946627"><ele>113.16666666666666</ele><time>2026-04-25T17:42:04.001Z</time></trkpt><trkpt lat="45.871544779722306" lon="12.129032295808697"><ele>113.0</ele><time>2026-04-25T17:42:06.001Z</time></trkpt><trkpt lat="45.87154309339492" lon="12.129138870426553"><ele>113.0</ele><time>2026-04-25T17:42:08Z</time></trkpt><trkpt lat="45.87153512858542" lon="12.12924273903884"><ele>113.0</ele><time>2026-04-25T17:42:10Z</time></trkpt><trkpt lat="45.871525411906404" lon="12.129343505790974"><ele>113.0</ele><time>2026-04-25T17:42:12Z</time></trkpt><trkpt lat="45.87151104616982" lon="12.129438943325358"><ele>113.0</ele><time>2026-04-25T17:42:14Z</time></trkpt><trkpt lat="45.87147308275241" lon="12.129523878592572"><ele>113.0</ele><time>2026-04-25T17:42:16Z</time></trkpt><trkpt lat="45.87144665786615" lon="12.129607102622085"><ele>113.0</ele><time>2026-04-25T17:42:17.999Z</time></trkpt><trkpt lat="45.87143135168991" lon="12.12969901329743"><ele>113.0</ele><time>2026-04-25T17:42:19.999Z</time></trkpt><trkpt lat="45.87139949405947" lon="12.129778745402087"><ele>112.99999999999999</ele><time>2026-04-25T17:42:21.999Z</time></trkpt><trkpt lat="45.87137235065657" lon="12.129860915767852"><ele>113.0</ele><time>2026-04-25T17:42:23.999Z</time></trkpt><trkpt lat="45.871334132562005" lon="12.12993508882129"><ele>113.0</ele><time>2026-04-25T17:42:26.999Z</time></trkpt><trkpt lat="45.871306458863785" lon="12.130020449405933"><ele>113.0</ele><time>2026-04-25T17:45:58.997Z</time></trkpt><trkpt lat="45.87128311697604" lon="12.130119800942182"><ele>112.99999999999999</ele><time>2026-04-25T17:46:03.997Z</time></trkpt><trkpt lat="45.87124460962645" lon="12.130201920818408"><ele>113.0</ele><time>2026-04-25T17:46:09.997Z</time></trkpt><trkpt lat="45.87146624397071" lon="12.130438103775345"><ele>113.33333333333333</ele><time>2026-04-25T17:46:16Z</time></trkpt><trkpt lat="45.87153014027678" lon="12.130509371423198"><ele>113.66666666666666</ele><time>2026-04-25T17:46:18Z</time></trkpt><trkpt lat="45.87158801002466" lon="12.13058592037352"><ele>114.0</ele><time>2026-04-25T17:46:20Z</time></trkpt><trkpt lat="45.87165186397719" lon="12.130658551502991"><ele>114.33333333333334</ele><time>2026-04-25T17:46:22Z</time></trkpt><trkpt lat="45.871715828404284" lon="12.130728125688089"><ele>114.66666666666667</ele><time>2026-04-25T17:46:24Z</time></trkpt><trkpt lat="45.871778886205256" lon="12.130804779344395"><ele>115.0</ele><time>2026-04-25T17:46:26Z</time></trkpt><trkpt lat="45.87183835685869" lon="12.13088907904442"><ele>115.0</ele><time>2026-04-25T17:46:28Z</time></trkpt><trkpt lat="45.871901926176406" lon="12.130975175441462"><ele>115.0</ele><time>2026-04-25T17:46:30Z</time></trkpt><trkpt lat="45.87196535650546" lon="12.131065992314019"><ele>115.0</ele><time>2026-04-25T17:46:32Z</time></trkpt><trkpt lat="45.8720314390629" lon="12.131159095204726"><ele>115.0</ele><time>2026-04-25T17:46:34Z</time></trkpt><trkpt lat="45.872100445922015" lon="12.131247775067788"><ele>115.0</ele><time>2026-04-25T17:46:36Z</time></trkpt><trkpt lat="45.87216392409516" lon="12.131334955409086"><ele>115.00000000000001</ele><time>2026-04-25T17:46:38Z</time></trkpt><trkpt lat="45.87222264451204" lon="12.131422903115574"><ele>115.0</ele><time>2026-04-25T17:46:40Z</time></trkpt><trkpt lat="45.87227837834072" lon="12.131508144107384"><ele>115.0</ele><time>2026-04-25T17:46:42Z</time></trkpt><trkpt lat="45.8722766764388" lon="12.131624501540985"><ele>115.0</ele><time>2026-04-25T17:46:44Z</time></trkpt><trkpt lat="45.872215937063835" lon="12.131722006526285"><ele>115.00000000000001</ele><time>2026-04-25T17:46:46Z</time></trkpt><trkpt lat="45.87215262798518" lon="12.131811193963623"><ele>115.0</ele><time>2026-04-25T17:46:48Z</time></trkpt><trkpt lat="45.872093941427956" lon="12.131910745663077"><ele>115.2</ele><time>2026-04-25T17:46:49.999Z</time></trkpt><trkpt lat="45.872037197923376" lon="12.13201695715968"><ele>115.4</ele><time>2026-04-25T17:46:51.999Z</time></trkpt><trkpt lat="45.871977218224785" lon="12.132130295514155"><ele>115.6</ele><time>2026-04-25T17:46:53.999Z</time></trkpt><trkpt lat="45.8719235385826" lon="12.132235234087824"><ele>115.8</ele><time>2026-04-25T17:46:55.999Z</time></trkpt><trkpt lat="45.871873276864825" lon="12.13235031434403"><ele>116.0</ele><time>2026-04-25T17:46:57.999Z</time></trkpt><trkpt lat="45.871814725476945" lon="12.132461740496103"><ele>115.8</ele><time>2026-04-25T17:46:59.999Z</time></trkpt><trkpt lat="45.87175337616486" lon="12.13257075298526"><ele>115.6</ele><time>2026-04-25T17:47:01.999Z</time></trkpt><trkpt lat="45.871695520428865" lon="12.132685788151539"><ele>115.4</ele><time>2026-04-25T17:47:03.999Z</time></trkpt><trkpt lat="45.87163981223204" lon="12.13279849274301"><ele>115.2</ele><time>2026-04-25T17:47:05.999Z</time></trkpt><trkpt lat="45.871579730794366" lon="12.132911851790123"><ele>115.0</ele><time>2026-04-25T17:47:07.999Z</time></trkpt><trkpt lat="45.87151992721555" lon="12.133022120871331"><ele>115.0</ele><time>2026-04-25T17:47:09.999Z</time></trkpt><trkpt lat="45.87146415038961" lon="12.133135374460048"><ele>115.0</ele><time>2026-04-25T17:47:11.999Z</time></trkpt><trkpt lat="45.87140723138672" lon="12.13324495359636"><ele>115.0</ele><time>2026-04-25T17:47:13.999Z</time></trkpt><trkpt lat="45.87135313147563" lon="12.133356457377666"><ele>115.0</ele><time>2026-04-25T17:47:15.999Z</time></trkpt><trkpt lat="45.871299197270766" lon="12.133463605836702"><ele>115.0</ele><time>2026-04-25T17:47:17.999Z</time></trkpt><trkpt lat="45.87123956402861" lon="12.133559481936166"><ele>115.0</ele><time>2026-04-25T17:47:19.999Z</time></trkpt><trkpt lat="45.87117588158571" lon="12.133650656787571"><ele>115.0</ele><time>2026-04-25T17:47:21.999Z</time></trkpt><trkpt lat="45.87109374950656" lon="12.133719031855781"><ele>115.0</ele><time>2026-04-25T17:47:23.999Z</time></trkpt><trkpt lat="45.87098868545899" lon="12.133748806873383"><ele>115.0</ele><time>2026-04-25T17:47:25.999Z</time></trkpt><trkpt lat="45.87087607019828" lon="12.133735523081274"><ele>115.0</ele><time>2026-04-25T17:47:27.999Z</time></trkpt><trkpt lat="45.87076277309755" lon="12.13372669535958"><ele>114.8</ele><time>2026-04-25T17:47:29.999Z</time></trkpt><trkpt lat="45.87065015603936" lon="12.13371713670652"><ele>114.6</ele><time>2026-04-25T17:47:31.999Z</time></trkpt><trkpt lat="45.87054041049227" lon="12.133731895161922"><ele>114.4</ele><time>2026-04-25T17:47:33.998Z</time></trkpt><trkpt lat="45.87043025140909" lon="12.133733719558249"><ele>114.2</ele><time>2026-04-25T17:47:35.998Z</time></trkpt><trkpt lat="45.870320241319014" lon="12.13374415096315"><ele>114.0</ele><time>2026-04-25T17:47:37.998Z</time></trkpt><trkpt lat="45.87021445478699" lon="12.133778509419205"><ele>113.6</ele><time>2026-04-25T17:47:39.998Z</time></trkpt><trkpt lat="45.87010693315615" lon="12.133861671498051"><ele>113.2</ele><time>2026-04-25T17:47:41.998Z</time></trkpt><trkpt lat="45.87000446071818" lon="12.133961460422656"><ele>112.79999999999998</ele><time>2026-04-25T17:47:43.998Z</time></trkpt><trkpt lat="45.86992190373934" lon="12.134096116942018"><ele>112.39999999999999</ele><time>2026-04-25T17:47:45.998Z</time></trkpt><trkpt lat="45.86988024003413" lon="12.134168215263394"><ele>112.0</ele><time>2026-04-25T17:47:46.998Z</time></trkpt><trkpt lat="45.869839544613264" lon="12.134238815804999"><ele>112.0</ele><time>2026-04-25T17:47:47.998Z</time></trkpt><trkpt lat="45.86979407414047" lon="12.134313156566353"><ele>112.0</ele><time>2026-04-25T17:47:48.998Z</time></trkpt><trkpt lat="45.86975129870909" lon="12.134386876686"><ele>112.0</ele><time>2026-04-25T17:47:49.998Z</time></trkpt><trkpt lat="45.86971115525609" lon="12.134465148155536"><ele>112.0</ele><time>2026-04-25T17:47:50.998Z</time></trkpt><trkpt lat="45.869667922891495" lon="12.134543355489255"><ele>112.0</ele><time>2026-04-25T17:47:51.998Z</time></trkpt><trkpt lat="45.86962159028352" lon="12.134619515414292"><ele>112.0</ele><time>2026-04-25T17:47:52.998Z</time></trkpt><trkpt lat="45.86957426271085" lon="12.134694606434365"><ele>112.0</ele><time>2026-04-25T17:47:53.998Z</time></trkpt><trkpt lat="45.869528637156606" lon="12.134774506283838"><ele>112.0</ele><time>2026-04-25T17:47:54.998Z</time></trkpt><trkpt lat="45.8694836900209" lon="12.134852477186845"><ele>112.0</ele><time>2026-04-25T17:47:55.998Z</time></trkpt><trkpt lat="45.869438007097834" lon="12.13493121879376"><ele>112.0</ele><time>2026-04-25T17:47:56.998Z</time></trkpt><trkpt lat="45.8693935610667" lon="12.135007523810083"><ele>112.0</ele><time>2026-04-25T17:47:57.998Z</time></trkpt><trkpt lat="45.8693479706387" lon="12.135082260803866"><ele>112.0</ele><time>2026-04-25T17:47:58.998Z</time></trkpt><trkpt lat="45.869304268611955" lon="12.135160214804033"><ele>112.0</ele><time>2026-04-25T17:47:59.998Z</time></trkpt><trkpt lat="45.86926132089147" lon="12.135237097533299"><ele>112.0</ele><time>2026-04-25T17:48:00.998Z</time></trkpt><trkpt lat="45.86921853745977" lon="12.135313337244748"><ele>112.0</ele><time>2026-04-25T17:48:01.998Z</time></trkpt><trkpt lat="45.86917506755323" lon="12.135387731326656"><ele>112.0</ele><time>2026-04-25T17:48:02.998Z</time></trkpt><trkpt lat="45.86913144222841" lon="12.135462517270796"><ele>112.0</ele><time>2026-04-25T17:48:03.998Z</time></trkpt><trkpt lat="45.869086749407174" lon="12.135536193012626"><ele>112.0</ele><time>2026-04-25T17:48:04.998Z</time></trkpt><trkpt lat="45.86904183848306" lon="12.135609004131666"><ele>112.0</ele><time>2026-04-25T17:48:05.998Z</time></trkpt><trkpt lat="45.86899795715264" lon="12.13568202155968"><ele>112.0</ele><time>2026-04-25T17:48:06.998Z</time></trkpt><trkpt lat="45.86895354163646" lon="12.135754844917605"><ele>112.0</ele><time>2026-04-25T17:48:07.998Z</time></trkpt><trkpt lat="45.8689091783161" lon="12.13583015632518"><ele>112.0</ele><time>2026-04-25T17:48:08.998Z</time></trkpt><trkpt lat="45.86886472091765" lon="12.135903613167025"><ele>112.0</ele><time>2026-04-25T17:48:09.998Z</time></trkpt><trkpt lat="45.868819200394356" lon="12.135974791866833"><ele>112.0</ele><time>2026-04-25T17:48:10.998Z</time></trkpt><trkpt lat="45.868772886942054" lon="12.136044198597842"><ele>112.0</ele><time>2026-04-25T17:48:11.998Z</time></trkpt><trkpt lat="45.86872637051738" lon="12.13611303085874"><ele>112.0</ele><time>2026-04-25T17:48:12.998Z</time></trkpt><trkpt lat="45.8686790983355" lon="12.136181589727721"><ele>112.0</ele><time>2026-04-25T17:48:13.998Z</time></trkpt><trkpt lat="45.86863410544227" lon="12.136249175526697"><ele>112.0</ele><time>2026-04-25T17:48:14.998Z</time></trkpt><trkpt lat="45.868588655976694" lon="12.13631959546421"><ele>112.00000000000001</ele><time>2026-04-25T17:48:15.998Z</time></trkpt><trkpt lat="45.86854339322065" lon="12.13638707344298"><ele>112.0</ele><time>2026-04-25T17:48:16.997Z</time></trkpt><trkpt lat="45.868498269869036" lon="12.136454754889124"><ele>112.0</ele><time>2026-04-25T17:48:18Z</time></trkpt><trkpt lat="45.86845493792393" lon="12.136521489771512"><ele>112.0</ele><time>2026-04-25T17:48:19Z</time></trkpt><trkpt lat="45.86841200940249" lon="12.13658832413185"><ele>112.00000000000001</ele><time>2026-04-25T17:48:20Z</time></trkpt><trkpt lat="45.86832803871959" lon="12.13671907201748"><ele>112.0</ele><time>2026-04-25T17:48:22Z</time></trkpt><trkpt lat="45.86824467982254" lon="12.136843204416495"><ele>111.75</ele><time>2026-04-25T17:48:24Z</time></trkpt><trkpt lat="45.86816329216843" lon="12.136969945279022"><ele>111.5</ele><time>2026-04-25T17:48:26Z</time></trkpt><trkpt lat="45.86807920830648" lon="12.137092166166967"><ele>111.25</ele><time>2026-04-25T17:48:28Z</time></trkpt><trkpt lat="45.86799212980854" lon="12.137213088421532"><ele>111.0</ele><time>2026-04-25T17:48:30Z</time></trkpt><trkpt lat="45.8679068497511" lon="12.13733801659676"><ele>111.5</ele><time>2026-04-25T17:48:32Z</time></trkpt><trkpt lat="45.86781814878772" lon="12.137457784203974"><ele>112.0</ele><time>2026-04-25T17:48:34Z</time></trkpt><trkpt lat="45.86773600110337" lon="12.137582424916088"><ele>112.5</ele><time>2026-04-25T17:48:36Z</time></trkpt><trkpt lat="45.86765184551337" lon="12.137703577599499"><ele>113.0</ele><time>2026-04-25T17:48:38Z</time></trkpt><trkpt lat="45.86756376409988" lon="12.13782631840895"><ele>112.99999999999999</ele><time>2026-04-25T17:48:40Z</time></trkpt><trkpt lat="45.86747663154425" lon="12.13795596870757"><ele>113.0</ele><time>2026-04-25T17:48:42Z</time></trkpt><trkpt lat="45.86743158677307" lon="12.138022446134311"><ele>113.0</ele><time>2026-04-25T17:48:43Z</time></trkpt><trkpt lat="45.86738810000041" lon="12.138091048396165"><ele>113.0</ele><time>2026-04-25T17:48:44Z</time></trkpt><trkpt lat="45.867341160535496" lon="12.13815868594704"><ele>112.99999999999999</ele><time>2026-04-25T17:48:45Z</time></trkpt><trkpt lat="45.8672963956742" lon="12.13822724408119"><ele>113.0</ele><time>2026-04-25T17:48:46Z</time></trkpt><trkpt lat="45.86725092876686" lon="12.138297719267237"><ele>113.14285714285714</ele><time>2026-04-25T17:48:47Z</time></trkpt><trkpt lat="45.86720585728487" lon="12.138367022651192"><ele>113.28571428571428</ele><time>2026-04-25T17:48:48Z</time></trkpt><trkpt lat="45.86715919686238" lon="12.138433789296489"><ele>113.42857142857142</ele><time>2026-04-25T17:48:49Z</time></trkpt><trkpt lat="45.86711203164534" lon="12.138499767898306"><ele>113.57142857142857</ele><time>2026-04-25T17:48:50Z</time></trkpt><trkpt lat="45.867058247517505" lon="12.138559743691502"><ele>113.7142857142857</ele><time>2026-04-25T17:48:51Z</time></trkpt><trkpt lat="45.86700507436317" lon="12.138622275872947"><ele>113.85714285714285</ele><time>2026-04-25T17:48:52Z</time></trkpt><trkpt lat="45.86695229643062" lon="12.138679315542278"><ele>114.0</ele><time>2026-04-25T17:48:53Z</time></trkpt><trkpt lat="45.86689642083192" lon="12.138730839658141"><ele>114.0</ele><time>2026-04-25T17:48:54Z</time></trkpt><trkpt lat="45.86683818912673" lon="12.138782598357514"><ele>113.99999999999999</ele><time>2026-04-25T17:48:55Z</time></trkpt><trkpt lat="45.866776583301245" lon="12.138831982300221"><ele>114.0</ele><time>2026-04-25T17:48:56Z</time></trkpt><trkpt lat="45.86671532360411" lon="12.138880758105627"><ele>114.0</ele><time>2026-04-25T17:48:57Z</time></trkpt><trkpt lat="45.866654664602066" lon="12.138924351351967"><ele>113.99999999999999</ele><time>2026-04-25T17:48:58Z</time></trkpt><trkpt lat="45.8665940635811" lon="12.138969229880571"><ele>114.0</ele><time>2026-04-25T17:48:59Z</time></trkpt><trkpt lat="45.8665363141862" lon="12.139018374791744"><ele>114.0</ele><time>2026-04-25T17:49:00Z</time></trkpt><trkpt lat="45.86648095607959" lon="12.139061712064775"><ele>113.0</ele><time>2026-04-25T17:49:01Z</time></trkpt><trkpt lat="45.86642561979565" lon="12.139110767064656"><ele>112.0</ele><time>2026-04-25T17:49:02Z</time></trkpt><trkpt lat="45.86632434058468" lon="12.139202830875627"><ele>111.0</ele><time>2026-04-25T17:49:04Z</time></trkpt><trkpt lat="45.86623402299563" lon="12.13929998792788"><ele>110.0</ele><time>2026-04-25T17:49:06Z</time></trkpt><trkpt lat="45.86615386338422" lon="12.139398423428682"><ele>109.0</ele><time>2026-04-25T17:49:07.999Z</time></trkpt><trkpt lat="45.86608129938739" lon="12.139492951522909"><ele>109.0</ele><time>2026-04-25T17:49:09.999Z</time></trkpt><trkpt lat="45.86601334052837" lon="12.139569718315407"><ele>109.0</ele><time>2026-04-25T17:49:11.999Z</time></trkpt><trkpt lat="45.865882363862596" lon="12.139493097247918"><ele>109.0</ele><time>2026-04-25T17:49:14.999Z</time></trkpt><trkpt lat="45.86579008058946" lon="12.139398270378681"><ele>109.0</ele><time>2026-04-25T17:49:16.999Z</time></trkpt><trkpt lat="45.865697505879176" lon="12.139288034247171"><ele>109.0</ele><time>2026-04-25T17:49:18.999Z</time></trkpt><trkpt lat="45.865591397587416" lon="12.139207181531736"><ele>109.0</ele><time>2026-04-25T17:49:20.999Z</time></trkpt><trkpt lat="45.86553752826598" lon="12.139159681980768"><ele>109.0</ele><time>2026-04-25T17:49:21.999Z</time></trkpt><trkpt lat="45.865452225221176" lon="12.139077070544712"><ele>109.0</ele><time>2026-04-25T17:49:23.999Z</time></trkpt><trkpt lat="45.865380234932005" lon="12.138984754349663"><ele>109.0</ele><time>2026-04-25T17:49:25.999Z</time></trkpt><trkpt lat="45.86531556868856" lon="12.138929943462825"><ele>109.0</ele><time>2026-04-25T17:49:27.999Z</time></trkpt><trkpt lat="45.86516867939968" lon="12.139135306893749"><ele>109.0</ele><time>2026-04-25T17:49:28.999Z</time></trkpt><trkpt lat="45.865059678988686" lon="12.139151086788685"><ele>109.0</ele><time>2026-04-25T17:49:30.999Z</time></trkpt><trkpt lat="45.8649505359062" lon="12.139133580108695"><ele>109.0</ele><time>2026-04-25T17:49:32.999Z</time></trkpt><trkpt lat="45.86483544999622" lon="12.139102666472818"><ele>108.6</ele><time>2026-04-25T17:49:34.999Z</time></trkpt><trkpt lat="45.86472500224955" lon="12.1390891135047"><ele>108.2</ele><time>2026-04-25T17:49:36.999Z</time></trkpt><trkpt lat="45.86462724649147" lon="12.139123797067128"><ele>107.79999999999998</ele><time>2026-04-25T17:49:38.999Z</time></trkpt><trkpt lat="45.86453566335438" lon="12.139206300725366"><ele>107.39999999999999</ele><time>2026-04-25T17:49:40.999Z</time></trkpt><trkpt lat="45.864483883706924" lon="12.139262253537787"><ele>107.0</ele><time>2026-04-25T17:49:41.999Z</time></trkpt><trkpt lat="45.86439856698924" lon="12.139349181366093"><ele>107.0</ele><time>2026-04-25T17:49:43.999Z</time></trkpt><trkpt lat="45.864303568200526" lon="12.139432610822173"><ele>106.99999999999999</ele><time>2026-04-25T17:49:45.999Z</time></trkpt><trkpt lat="45.8642181047307" lon="12.139537867749208"><ele>106.99999999999999</ele><time>2026-04-25T17:49:47.999Z</time></trkpt><trkpt lat="45.864131896355" lon="12.13963130523463"><ele>107.0</ele><time>2026-04-25T17:49:49.999Z</time></trkpt><trkpt lat="45.864044278184785" lon="12.139717990973432"><ele>107.0</ele><time>2026-04-25T17:49:51.998Z</time></trkpt><trkpt lat="45.86396010707346" lon="12.13978849711728"><ele>107.0</ele><time>2026-04-25T17:49:53.998Z</time></trkpt><trkpt lat="45.86389713833241" lon="12.139878120364513"><ele>106.99999999999999</ele><time>2026-04-25T17:49:55.998Z</time></trkpt><trkpt lat="45.863823441428934" lon="12.139937469792557"><ele>106.99999999999999</ele><time>2026-04-25T17:49:57.998Z</time></trkpt><trkpt lat="45.86373263240981" lon="12.139995144027955"><ele>107.0</ele><time>2026-04-25T17:49:59.998Z</time></trkpt><trkpt lat="45.86366337955405" lon="12.140070052166905"><ele>107.0</ele><time>2026-04-25T17:50:01.998Z</time></trkpt><trkpt lat="45.863568897351904" lon="12.14008906351339"><ele>106.99999999999999</ele><time>2026-04-25T17:50:02.998Z</time></trkpt><trkpt lat="45.863494734190795" lon="12.140017157452709"><ele>107.0</ele><time>2026-04-25T17:50:04.997Z</time></trkpt><trkpt lat="45.86342981259821" lon="12.13992699455558"><ele>107.0</ele><time>2026-04-25T17:50:06.997Z</time></trkpt><trkpt lat="45.86341221419485" lon="12.139809168401309"><ele>107.0</ele><time>2026-04-25T17:50:08.997Z</time></trkpt><trkpt lat="45.86337874324305" lon="12.13972237739213"><ele>106.99999999999999</ele><time>2026-04-25T17:50:10.997Z</time></trkpt><trkpt lat="45.863318522785264" lon="12.139674148070956"><ele>107.0</ele><time>2026-04-25T17:50:12.997Z</time></trkpt><trkpt lat="45.86322956945674" lon="12.139736688605193"><ele>106.8</ele><time>2026-04-25T17:50:14.997Z</time></trkpt><trkpt lat="45.8631630096217" lon="12.139845224073463"><ele>106.6</ele><time>2026-04-25T17:50:16.997Z</time></trkpt><trkpt lat="45.86312015620238" lon="12.139986048554547"><ele>106.39999999999999</ele><time>2026-04-25T17:50:18.997Z</time></trkpt><trkpt lat="45.8631237406164" lon="12.140140752944045"><ele>106.19999999999999</ele><time>2026-04-25T17:50:20.997Z</time></trkpt><trkpt lat="45.86312637380014" lon="12.140296409145252"><ele>106.0</ele><time>2026-04-25T17:50:22.997Z</time></trkpt><trkpt lat="45.863066925008376" lon="12.140434329948198"><ele>105.5</ele><time>2026-04-25T17:50:25Z</time></trkpt><trkpt lat="45.86297229297986" lon="12.14052687532831"><ele>105.0</ele><time>2026-04-25T17:50:27Z</time></trkpt><trkpt lat="45.86286817357563" lon="12.140602268909134"><ele>104.5</ele><time>2026-04-25T17:50:29Z</time></trkpt><trkpt lat="45.8627618626642" lon="12.140668323598677"><ele>104.0</ele><time>2026-04-25T17:50:31Z</time></trkpt><trkpt lat="45.86266436588479" lon="12.140734237031515"><ele>104.2</ele><time>2026-04-25T17:50:33Z</time></trkpt><trkpt lat="45.86256679678812" lon="12.140800177267058"><ele>104.4</ele><time>2026-04-25T17:50:35Z</time></trkpt><trkpt lat="45.86247534057012" lon="12.140853372431858"><ele>104.6</ele><time>2026-04-25T17:50:37Z</time></trkpt><trkpt lat="45.86238106417884" lon="12.140897973274665"><ele>104.8</ele><time>2026-04-25T17:50:39Z</time></trkpt><trkpt lat="45.86228596551487" lon="12.140917830512416"><ele>105.0</ele><time>2026-04-25T17:50:41Z</time></trkpt><trkpt lat="45.8621930561037" lon="12.140933134849128"><ele>105.0</ele><time>2026-04-25T17:50:42.999Z</time></trkpt><trkpt lat="45.86209800623695" lon="12.140934856359639"><ele>105.0</ele><time>2026-04-25T17:50:44.999Z</time></trkpt><trkpt lat="45.86199727976191" lon="12.1409240609136"><ele>105.0</ele><time>2026-04-25T17:50:46.999Z</time></trkpt><trkpt lat="45.86191147161034" lon="12.140901934465244"><ele>105.0</ele><time>2026-04-25T17:50:48.999Z</time></trkpt><trkpt lat="45.86182983657903" lon="12.140868374739743"><ele>105.0</ele><time>2026-04-25T17:50:50.999Z</time></trkpt><trkpt lat="45.86173552119328" lon="12.1408351338898"><ele>105.0</ele><time>2026-04-25T17:50:52.999Z</time></trkpt><trkpt lat="45.861642431020414" lon="12.140824655058788"><ele>105.0</ele><time>2026-04-25T17:50:54.999Z</time></trkpt><trkpt lat="45.86155407194074" lon="12.140833153413757"><ele>105.0</ele><time>2026-04-25T17:50:56.999Z</time></trkpt><trkpt lat="45.86147215745604" lon="12.140856262762384"><ele>105.0</ele><time>2026-04-25T17:50:58.999Z</time></trkpt><trkpt lat="45.861491413505455" lon="12.141061868445773"><ele>105.0</ele><time>2026-04-25T17:51:04.999Z</time></trkpt><trkpt lat="45.86149614400707" lon="12.141163034718375"><ele>105.0</ele><time>2026-04-25T17:51:08.999Z</time></trkpt><trkpt lat="45.8615190899228" lon="12.141262556613531"><ele>105.0</ele><time>2026-04-25T17:51:13.999Z</time></trkpt><trkpt lat="45.86153015626129" lon="12.141351913199934"><ele>105.0</ele><time>2026-04-25T17:51:16.999Z</time></trkpt><trkpt lat="45.861513476333045" lon="12.141445450447396"><ele>105.0</ele><time>2026-04-25T17:51:19.999Z</time></trkpt><trkpt lat="45.86150256974625" lon="12.141543755660553"><ele>105.0</ele><time>2026-04-25T17:51:22.999Z</time></trkpt><trkpt lat="45.861501218965316" lon="12.141693476794185"><ele>105.0</ele><time>2026-04-25T17:51:26.998Z</time></trkpt><trkpt lat="45.861532337696744" lon="12.141797299020375"><ele>105.0</ele><time>2026-04-25T17:51:28.998Z</time></trkpt><trkpt lat="45.86155852989237" lon="12.141897233443682"><ele>105.0</ele><time>2026-04-25T17:51:30.998Z</time></trkpt><trkpt lat="45.86157148936682" lon="12.141994191487795"><ele>105.0</ele><time>2026-04-25T17:51:32.998Z</time></trkpt><trkpt lat="45.86157106848925" lon="12.142130053092151"><ele>105.0</ele><time>2026-04-25T17:51:35.998Z</time></trkpt><trkpt lat="45.861553684577665" lon="12.142241567201905"><ele>105.0</ele><time>2026-04-25T17:51:37.998Z</time></trkpt><trkpt lat="45.86152534985427" lon="12.142340011277279"><ele>105.0</ele><time>2026-04-25T17:51:39.998Z</time></trkpt><trkpt lat="45.861487856008765" lon="12.142431404389256"><ele>104.83333333333333</ele><time>2026-04-25T17:51:41.998Z</time></trkpt><trkpt lat="45.86145066174272" lon="12.142533545977075"><ele>104.66666666666666</ele><time>2026-04-25T17:51:43.998Z</time></trkpt><trkpt lat="45.86141119793896" lon="12.14264289943997"><ele>104.5</ele><time>2026-04-25T17:51:45.998Z</time></trkpt><trkpt lat="45.86137546413144" lon="12.142755848108564"><ele>104.33333333333333</ele><time>2026-04-25T17:51:47.998Z</time></trkpt><trkpt lat="45.86132884990314" lon="12.142869635868067"><ele>104.16666666666666</ele><time>2026-04-25T17:51:49.998Z</time></trkpt><trkpt lat="45.86128333923997" lon="12.142996904691996"><ele>104.0</ele><time>2026-04-25T17:51:51.998Z</time></trkpt><trkpt lat="45.8612443598952" lon="12.143125551888708"><ele>103.6</ele><time>2026-04-25T17:51:53.998Z</time></trkpt><trkpt lat="45.861223739932974" lon="12.143257984251823"><ele>103.2</ele><time>2026-04-25T17:51:55.998Z</time></trkpt><trkpt lat="45.861215181666054" lon="12.143396169147502"><ele>102.8</ele><time>2026-04-25T17:51:57.998Z</time></trkpt><trkpt lat="45.86123055018279" lon="12.143534062760995"><ele>102.39999999999999</ele><time>2026-04-25T17:51:59.998Z</time></trkpt><trkpt lat="45.861245561899196" lon="12.143660189433435"><ele>102.0</ele><time>2026-04-25T17:52:01.998Z</time></trkpt><trkpt lat="45.86127273944773" lon="12.143792043693376"><ele>102.0</ele><time>2026-04-25T17:52:03.998Z</time></trkpt><trkpt lat="45.861307590945096" lon="12.1439220167845"><ele>102.0</ele><time>2026-04-25T17:52:05.998Z</time></trkpt><trkpt lat="45.86136119523225" lon="12.14403906852794"><ele>102.0</ele><time>2026-04-25T17:52:07.997Z</time></trkpt><trkpt lat="45.861416675959674" lon="12.14414942074868"><ele>102.0</ele><time>2026-04-25T17:52:09.997Z</time></trkpt><trkpt lat="45.86139759898621" lon="12.144267548144771"><ele>102.0</ele><time>2026-04-25T17:52:10.997Z</time></trkpt><trkpt lat="45.861460723850605" lon="12.144368854539215"><ele>102.0</ele><time>2026-04-25T17:52:12.997Z</time></trkpt><trkpt lat="45.86153022309463" lon="12.14448039180129"><ele>102.0</ele><time>2026-04-25T17:52:14.997Z</time></trkpt><trkpt lat="45.86159688756549" lon="12.144587379940507"><ele>102.0</ele><time>2026-04-25T17:52:16.997Z</time></trkpt><trkpt lat="45.86166638673434" lon="12.144693928325681"><ele>102.0</ele><time>2026-04-25T17:52:18.997Z</time></trkpt><trkpt lat="45.86173909331689" lon="12.144795050591389"><ele>102.0</ele><time>2026-04-25T17:52:20.997Z</time></trkpt><trkpt lat="45.86181086753496" lon="12.144889151038601"><ele>102.33333333333333</ele><time>2026-04-25T17:52:22.997Z</time></trkpt><trkpt lat="45.861880653888406" lon="12.144980497404692"><ele>102.66666666666666</ele><time>2026-04-25T17:52:24.997Z</time></trkpt><trkpt lat="45.8619472784173" lon="12.145070343129625"><ele>103.0</ele><time>2026-04-25T17:52:26.997Z</time></trkpt><trkpt lat="45.86201391792769" lon="12.145160975548492"><ele>103.33333333333333</ele><time>2026-04-25T17:52:29Z</time></trkpt><trkpt lat="45.86207119956352" lon="12.145238880845188"><ele>103.66666666666666</ele><time>2026-04-25T17:52:31Z</time></trkpt><trkpt lat="45.862136600494175" lon="12.14532782873004"><ele>104.0</ele><time>2026-04-25T17:52:33Z</time></trkpt><trkpt lat="45.862195150623116" lon="12.145407383619474"><ele>103.99999999999999</ele><time>2026-04-25T17:52:35Z</time></trkpt><trkpt lat="45.862250104221204" lon="12.145481994781145"><ele>104.0</ele><time>2026-04-25T17:52:37Z</time></trkpt><trkpt lat="45.86231295658751" lon="12.145542467288859"><ele>104.0</ele><time>2026-04-25T17:52:39Z</time></trkpt><trkpt lat="45.86238120477564" lon="12.145590435417756"><ele>104.0</ele><time>2026-04-25T17:52:42Z</time></trkpt><trkpt lat="45.86242483941334" lon="12.145661348134043"><ele>103.99999999999999</ele><time>2026-04-25T17:52:47Z</time></trkpt><trkpt lat="45.86235423933223" lon="12.145849677897472"><ele>104.0</ele><time>2026-04-25T17:52:50Z</time></trkpt><trkpt lat="45.862315041250255" lon="12.145953700099938"><ele>104.66666666666666</ele><time>2026-04-25T17:52:53Z</time></trkpt><trkpt lat="45.8622709547986" lon="12.146045506864493"><ele>105.33333333333333</ele><time>2026-04-25T17:52:56Z</time></trkpt><trkpt lat="45.86221247624139" lon="12.146136614727062"><ele>106.0</ele><time>2026-04-25T17:52:58.999Z</time></trkpt><trkpt lat="45.862153670296195" lon="12.146207132413915"><ele>106.66666666666666</ele><time>2026-04-25T17:53:01.999Z</time></trkpt><trkpt lat="45.86208614046118" lon="12.146275109195633"><ele>107.33333333333333</ele><time>2026-04-25T17:53:05.999Z</time></trkpt><trkpt lat="45.86203273187937" lon="12.146352129233632"><ele>108.0</ele><time>2026-04-25T17:53:09.999Z</time></trkpt><trkpt lat="45.86198663290768" lon="12.146420022779429"><ele>108.0</ele><time>2026-04-25T17:53:12.999Z</time></trkpt><trkpt lat="45.86193027261017" lon="12.146488496853888"><ele>108.0</ele><time>2026-04-25T17:53:16.999Z</time></trkpt><trkpt lat="45.86187137551462" lon="12.146566158483713"><ele>108.0</ele><time>2026-04-25T17:53:20.999Z</time></trkpt><trkpt lat="45.86185677549551" lon="12.14665438394635"><ele>108.0</ele><time>2026-04-25T17:53:23.999Z</time></trkpt><trkpt lat="45.86187238837205" lon="12.146759060923197"><ele>108.0</ele><time>2026-04-25T17:53:26.999Z</time></trkpt><trkpt lat="45.861796679062344" lon="12.146843733341978"><ele>108.0</ele><time>2026-04-25T17:53:27.999Z</time></trkpt><trkpt lat="45.86183252072122" lon="12.146960186469183"><ele>108.66666666666667</ele><time>2026-04-25T17:53:30.999Z</time></trkpt><trkpt lat="45.861859254102065" lon="12.14704704636767"><ele>109.33333333333334</ele><time>2026-04-25T17:53:32.999Z</time></trkpt><trkpt lat="45.86188683115546" lon="12.147137017027774"><ele>110.0</ele><time>2026-04-25T17:53:34.999Z</time></trkpt><trkpt lat="45.861924472030985" lon="12.147256278222436"><ele>110.66666666666667</ele><time>2026-04-25T17:53:37.999Z</time></trkpt><trkpt lat="45.8619635310994" lon="12.147371749537976"><ele>111.33333333333334</ele><time>2026-04-25T17:53:40.999Z</time></trkpt><trkpt lat="45.86197538353387" lon="12.147496668135245"><ele>112.0</ele><time>2026-04-25T17:53:43.998Z</time></trkpt><trkpt lat="45.86197170823585" lon="12.147622091144983"><ele>112.19999999999999</ele><time>2026-04-25T17:53:45.998Z</time></trkpt><trkpt lat="45.86195026432756" lon="12.147736939223792"><ele>112.39999999999999</ele><time>2026-04-25T17:53:47.998Z</time></trkpt><trkpt lat="45.86184891495142" lon="12.147751124585174"><ele>112.60000000000001</ele><time>2026-04-25T17:53:49.998Z</time></trkpt><trkpt lat="45.86176157739831" lon="12.147799747403106"><ele>112.80000000000001</ele><time>2026-04-25T17:53:51.998Z</time></trkpt><trkpt lat="45.86167331218004" lon="12.147848886745214"><ele>113.0</ele><time>2026-04-25T17:53:53.998Z</time></trkpt><trkpt lat="45.86158767975169" lon="12.147896560364808"><ele>113.0</ele><time>2026-04-25T17:53:55.998Z</time></trkpt><trkpt lat="45.861498798044686" lon="12.147946042930798"><ele>113.00000000000001</ele><time>2026-04-25T17:53:57.998Z</time></trkpt><trkpt lat="45.86140927358958" lon="12.147999609794253"><ele>113.00000000000001</ele><time>2026-04-25T17:53:59.998Z</time></trkpt><trkpt lat="45.86132456388321" lon="12.14805497052167"><ele>113.0</ele><time>2026-04-25T17:54:01.998Z</time></trkpt><trkpt lat="45.86123370111582" lon="12.14811312666313"><ele>113.0</ele><time>2026-04-25T17:54:03.998Z</time></trkpt><trkpt lat="45.86114467478161" lon="12.148168763841506"><ele>113.0</ele><time>2026-04-25T17:54:05.998Z</time></trkpt><trkpt lat="45.86105770049134" lon="12.148223118591"><ele>113.00000000000001</ele><time>2026-04-25T17:54:07.998Z</time></trkpt><trkpt lat="45.86097417164446" lon="12.148275319787087"><ele>113.00000000000001</ele><time>2026-04-25T17:54:09.998Z</time></trkpt><trkpt lat="45.86089309860014" lon="12.148325985987185"><ele>113.0</ele><time>2026-04-25T17:54:11.998Z</time></trkpt><trkpt lat="45.86080501644356" lon="12.148381032496223"><ele>113.0</ele><time>2026-04-25T17:54:13.998Z</time></trkpt><trkpt lat="45.86073988864338" lon="12.148484296475972"><ele>113.28571428571429</ele><time>2026-04-25T17:54:15.998Z</time></trkpt><trkpt lat="45.86067443528586" lon="12.14851755092362"><ele>113.57142857142856</ele><time>2026-04-25T17:54:17.998Z</time></trkpt><trkpt lat="45.860617223591056" lon="12.148557158360491"><ele>113.85714285714285</ele><time>2026-04-25T17:54:19.998Z</time></trkpt><trkpt lat="45.86056199812124" lon="12.14860660552743"><ele>114.14285714285714</ele><time>2026-04-25T17:54:21.998Z</time></trkpt><trkpt lat="45.860549390592965" lon="12.148704342148283"><ele>114.42857142857142</ele><time>2026-04-25T17:54:23.998Z</time></trkpt><trkpt lat="45.8605597719196" lon="12.148796905601682"><ele>114.7142857142857</ele><time>2026-04-25T17:54:26.997Z</time></trkpt><trkpt lat="45.86057846888118" lon="12.148888835526158"><ele>114.99999999999999</ele><time>2026-04-25T17:54:29.997Z</time></trkpt><trkpt lat="45.86058098530237" lon="12.14900904525143"><ele>115.00000000000001</ele><time>2026-04-25T17:54:32.997Z</time></trkpt><trkpt lat="45.86058167726235" lon="12.149101535975953"><ele>115.0</ele><time>2026-04-25T17:54:35Z</time></trkpt><trkpt lat="45.86056910470444" lon="12.149237512060608"><ele>115.0</ele><time>2026-04-25T17:54:38Z</time></trkpt><trkpt lat="45.86055640643372" lon="12.149329642971407"><ele>115.0</ele><time>2026-04-25T17:54:40Z</time></trkpt><trkpt lat="45.86053524220512" lon="12.149437821301213"><ele>115.00000000000001</ele><time>2026-04-25T17:54:42Z</time></trkpt><trkpt lat="45.86051099091077" lon="12.149583016730311"><ele>115.0</ele><time>2026-04-25T17:54:44Z</time></trkpt><trkpt lat="45.860490734530444" lon="12.149721300076024"><ele>115.0</ele><time>2026-04-25T17:54:46Z</time></trkpt><trkpt lat="45.860465781814554" lon="12.149858863153542"><ele>115.0</ele><time>2026-04-25T17:54:48Z</time></trkpt><trkpt lat="45.860439387016946" lon="12.150001533672427"><ele>115.0</ele><time>2026-04-25T17:54:50Z</time></trkpt><trkpt lat="45.86041251434079" lon="12.150141577427712"><ele>115.0</ele><time>2026-04-25T17:54:52Z</time></trkpt><trkpt lat="45.86038386199971" lon="12.150280375144213"><ele>115.0</ele><time>2026-04-25T17:54:54Z</time></trkpt><trkpt lat="45.86035910152985" lon="12.150407001738483"><ele>114.66666666666667</ele><time>2026-04-25T17:54:56Z</time></trkpt><trkpt lat="45.86033653954126" lon="12.15052391123714"><ele>114.33333333333334</ele><time>2026-04-25T17:54:58Z</time></trkpt><trkpt lat="45.86031272894395" lon="12.150633630962929"><ele>114.0</ele><time>2026-04-25T17:55:00Z</time></trkpt><trkpt lat="45.86029070545064" lon="12.15074644068531"><ele>113.66666666666666</ele><time>2026-04-25T17:55:02Z</time></trkpt><trkpt lat="45.860264353988285" lon="12.150865221923901"><ele>113.33333333333333</ele><time>2026-04-25T17:55:04Z</time></trkpt><trkpt lat="45.860244225571314" lon="12.150983763427156"><ele>113.0</ele><time>2026-04-25T17:55:06Z</time></trkpt><trkpt lat="45.86021595387175" lon="12.15110458394932"><ele>112.80000000000001</ele><time>2026-04-25T17:55:08Z</time></trkpt><trkpt lat="45.860190451607515" lon="12.151233052706074"><ele>112.60000000000001</ele><time>2026-04-25T17:55:10Z</time></trkpt><trkpt lat="45.86016393458778" lon="12.151376778865913"><ele>112.39999999999999</ele><time>2026-04-25T17:55:12Z</time></trkpt><trkpt lat="45.86013400211188" lon="12.151501607701569"><ele>112.19999999999999</ele><time>2026-04-25T17:55:14Z</time></trkpt><trkpt lat="45.8601057811236" lon="12.151632528243232"><ele>112.0</ele><time>2026-04-25T17:55:15.999Z</time></trkpt><trkpt lat="45.86007700309698" lon="12.151757422237873"><ele>112.6</ele><time>2026-04-25T17:55:17.999Z</time></trkpt><trkpt lat="45.860032224997255" lon="12.151892820008207"><ele>113.19999999999999</ele><time>2026-04-25T17:55:19.999Z</time></trkpt><trkpt lat="45.86000377705213" lon="12.152035447452912"><ele>113.8</ele><time>2026-04-25T17:55:21.999Z</time></trkpt><trkpt lat="45.85997953061366" lon="12.15219048108974"><ele>114.4</ele><time>2026-04-25T17:55:23.999Z</time></trkpt><trkpt lat="45.85994906842583" lon="12.15234750714455"><ele>115.0</ele><time>2026-04-25T17:55:25.999Z</time></trkpt><trkpt lat="45.859914166415194" lon="12.15250757619096"><ele>115.0</ele><time>2026-04-25T17:55:27.999Z</time></trkpt><trkpt lat="45.859880520690005" lon="12.152664727080882"><ele>115.0</ele><time>2026-04-25T17:55:29.999Z</time></trkpt><trkpt lat="45.8598495346535" lon="12.15281805183233"><ele>115.0</ele><time>2026-04-25T17:55:31.999Z</time></trkpt><trkpt lat="45.859819540626255" lon="12.152962695930004"><ele>115.0</ele><time>2026-04-25T17:55:33.999Z</time></trkpt><trkpt lat="45.8597893341238" lon="12.153107868075331"><ele>115.0</ele><time>2026-04-25T17:55:35.999Z</time></trkpt><trkpt lat="45.859760439238656" lon="12.153250453937687"><ele>115.0</ele><time>2026-04-25T17:55:37.999Z</time></trkpt><trkpt lat="45.85973574201308" lon="12.153377321526937"><ele>115.0</ele><time>2026-04-25T17:55:39.999Z</time></trkpt><trkpt lat="45.85970548191785" lon="12.153514831138025"><ele>115.0</ele><time>2026-04-25T17:55:41.999Z</time></trkpt><trkpt lat="45.85967853061831" lon="12.153651487202536"><ele>115.0</ele><time>2026-04-25T17:55:43.999Z</time></trkpt><trkpt lat="45.85964449226571" lon="12.153799183524809"><ele>115.0</ele><time>2026-04-25T17:55:45.999Z</time></trkpt><trkpt lat="45.859614127405194" lon="12.153943006540684"><ele>115.0</ele><time>2026-04-25T17:55:47.999Z</time></trkpt><trkpt lat="45.859585253017705" lon="12.154087373459815"><ele>115.0</ele><time>2026-04-25T17:55:49.999Z</time></trkpt><trkpt lat="45.85955301768747" lon="12.15423300735799"><ele>115.0</ele><time>2026-04-25T17:55:51.999Z</time></trkpt><trkpt lat="45.8595225444873" lon="12.154364942803031"><ele>115.0</ele><time>2026-04-25T17:55:53.999Z</time></trkpt><trkpt lat="45.85949715183859" lon="12.154499938707772"><ele>115.0</ele><time>2026-04-25T17:55:55.999Z</time></trkpt><trkpt lat="45.85946804468723" lon="12.154640076094918"><ele>115.0</ele><time>2026-04-25T17:55:57.999Z</time></trkpt><trkpt lat="45.85943418710387" lon="12.154800614147709"><ele>115.0</ele><time>2026-04-25T17:55:59.998Z</time></trkpt><trkpt lat="45.859401869912936" lon="12.154954649708579"><ele>115.0</ele><time>2026-04-25T17:56:01.998Z</time></trkpt><trkpt lat="45.859373334046275" lon="12.155101743313782"><ele>115.0</ele><time>2026-04-25T17:56:03.998Z</time></trkpt><trkpt lat="45.85934250688092" lon="12.155251230678347"><ele>115.0</ele><time>2026-04-25T17:56:05.998Z</time></trkpt><trkpt lat="45.85931201533955" lon="12.155402575927216"><ele>115.0</ele><time>2026-04-25T17:56:07.998Z</time></trkpt><trkpt lat="45.859294667880235" lon="12.155494924024879"><ele>115.0</ele><time>2026-04-25T17:56:08.998Z</time></trkpt><trkpt lat="45.85926402634622" lon="12.155636442396233"><ele>115.0</ele><time>2026-04-25T17:56:10.998Z</time></trkpt><trkpt lat="45.85923390642207" lon="12.155783953594053"><ele>115.0</ele><time>2026-04-25T17:56:12.998Z</time></trkpt><trkpt lat="45.85920338857054" lon="12.155929219380758"><ele>115.0</ele><time>2026-04-25T17:56:14.998Z</time></trkpt><trkpt lat="45.85917446003587" lon="12.156064989365671"><ele>115.0</ele><time>2026-04-25T17:56:16.998Z</time></trkpt><trkpt lat="45.85914278285361" lon="12.156197413510126"><ele>115.0</ele><time>2026-04-25T17:56:18.998Z</time></trkpt><trkpt lat="45.859097509600055" lon="12.156324295751043"><ele>115.0</ele><time>2026-04-25T17:56:20.998Z</time></trkpt><trkpt lat="45.859067633219446" lon="12.156451831065551"><ele>115.0</ele><time>2026-04-25T17:56:22.998Z</time></trkpt><trkpt lat="45.8590405473131" lon="12.156597915315471"><ele>115.0</ele><time>2026-04-25T17:56:24.998Z</time></trkpt><trkpt lat="45.859022500895165" lon="12.15672979754142"><ele>115.0</ele><time>2026-04-25T17:56:26.998Z</time></trkpt><trkpt lat="45.85902468575586" lon="12.15686373659945"><ele>115.0</ele><time>2026-04-25T17:56:28.998Z</time></trkpt><trkpt lat="45.85901634305462" lon="12.156998786150988"><ele>115.0</ele><time>2026-04-25T17:56:30.998Z</time></trkpt><trkpt lat="45.85901639372138" lon="12.157137472135359"><ele>115.0</ele><time>2026-04-25T17:56:32.998Z</time></trkpt><trkpt lat="45.859014420612745" lon="12.157257656267687"><ele>115.0</ele><time>2026-04-25T17:56:34.998Z</time></trkpt><trkpt lat="45.859018434889826" lon="12.157388819768856"><ele>115.0</ele><time>2026-04-25T17:56:36.998Z</time></trkpt><trkpt lat="45.85902764106643" lon="12.157521196990412"><ele>115.0</ele><time>2026-04-25T17:56:38.998Z</time></trkpt><trkpt lat="45.85904551964913" lon="12.157654331609734"><ele>115.0</ele><time>2026-04-25T17:56:41Z</time></trkpt><trkpt lat="45.859068548929734" lon="12.157794487642947"><ele>115.0</ele><time>2026-04-25T17:56:43Z</time></trkpt><trkpt lat="45.8591010574607" lon="12.15793606560702"><ele>115.0</ele><time>2026-04-25T17:56:45Z</time></trkpt><trkpt lat="45.859115024807295" lon="12.158094464094608"><ele>114.75</ele><time>2026-04-25T17:56:47Z</time></trkpt><trkpt lat="45.859150430850924" lon="12.158251013519422"><ele>114.5</ele><time>2026-04-25T17:56:49Z</time></trkpt><trkpt lat="45.8591801911023" lon="12.15841814122781"><ele>114.25</ele><time>2026-04-25T17:56:51Z</time></trkpt><trkpt lat="45.85920043301006" lon="12.158582330904064"><ele>114.0</ele><time>2026-04-25T17:56:53Z</time></trkpt><trkpt lat="45.859243972491214" lon="12.158732941231941"><ele>114.0</ele><time>2026-04-25T17:56:55Z</time></trkpt><trkpt lat="45.85927891286846" lon="12.158885864843535"><ele>114.0</ele><time>2026-04-25T17:56:57Z</time></trkpt><trkpt lat="45.85931483302398" lon="12.159042562053454"><ele>114.0</ele><time>2026-04-25T17:56:59Z</time></trkpt><trkpt lat="45.85935392852845" lon="12.15919813175099"><ele>114.0</ele><time>2026-04-25T17:57:01Z</time></trkpt><trkpt lat="45.85939650704076" lon="12.15934974817904"><ele>114.0</ele><time>2026-04-25T17:57:03Z</time></trkpt><trkpt lat="45.85942378580955" lon="12.15950182896386"><ele>114.0</ele><time>2026-04-25T17:57:05Z</time></trkpt><trkpt lat="45.85947873161047" lon="12.159637251644615"><ele>114.0</ele><time>2026-04-25T17:57:07Z</time></trkpt><trkpt lat="45.85951274967347" lon="12.159784257216886"><ele>114.0</ele><time>2026-04-25T17:57:09Z</time></trkpt><trkpt lat="45.859539660796216" lon="12.159907104649713"><ele>114.0</ele><time>2026-04-25T17:57:11Z</time></trkpt><trkpt lat="45.85954481236412" lon="12.160016121739497"><ele>113.80000000000001</ele><time>2026-04-25T17:57:13Z</time></trkpt><trkpt lat="45.85944047812254" lon="12.160100042637612"><ele>113.60000000000001</ele><time>2026-04-25T17:57:16Z</time></trkpt><trkpt lat="45.85936357845832" lon="12.160179786513439"><ele>113.4</ele><time>2026-04-25T17:57:18Z</time></trkpt><trkpt lat="45.85927848148424" lon="12.160233737925607"><ele>113.2</ele><time>2026-04-25T17:57:20Z</time></trkpt><trkpt lat="45.85919490008568" lon="12.160295064030707"><ele>113.0</ele><time>2026-04-25T17:57:22Z</time></trkpt><trkpt lat="45.85910322191627" lon="12.160359561329242"><ele>112.80000000000001</ele><time>2026-04-25T17:57:24Z</time></trkpt><trkpt lat="45.85901060235975" lon="12.16042533534071"><ele>112.60000000000001</ele><time>2026-04-25T17:57:26Z</time></trkpt><trkpt lat="45.85891366053238" lon="12.16049799411841"><ele>112.39999999999999</ele><time>2026-04-25T17:57:28Z</time></trkpt><trkpt lat="45.85881893550585" lon="12.16055813395885"><ele>112.19999999999999</ele><time>2026-04-25T17:57:30Z</time></trkpt><trkpt lat="45.8587310702603" lon="12.160636979893205"><ele>112.0</ele><time>2026-04-25T17:57:32Z</time></trkpt><trkpt lat="45.85865766434042" lon="12.160748533339424"><ele>111.8</ele><time>2026-04-25T17:57:33.999Z</time></trkpt><trkpt lat="45.858613715403465" lon="12.160881372933863"><ele>111.6</ele><time>2026-04-25T17:57:35.999Z</time></trkpt><trkpt lat="45.858599704350425" lon="12.161022958789728"><ele>111.39999999999999</ele><time>2026-04-25T17:57:37.999Z</time></trkpt><trkpt lat="45.85861791590724" lon="12.161176136306393"><ele>111.19999999999999</ele><time>2026-04-25T17:57:39.999Z</time></trkpt><trkpt lat="45.85864149884434" lon="12.161333724948546"><ele>111.0</ele><time>2026-04-25T17:57:41.999Z</time></trkpt><trkpt lat="45.858675305610525" lon="12.161490218775157"><ele>111.5</ele><time>2026-04-25T17:57:43.999Z</time></trkpt><trkpt lat="45.8587121242459" lon="12.161646842609496"><ele>112.0</ele><time>2026-04-25T17:57:45.999Z</time></trkpt><trkpt lat="45.85874376942648" lon="12.161811110984498"><ele>112.5</ele><time>2026-04-25T17:57:47.999Z</time></trkpt><trkpt lat="45.8587774152537" lon="12.161973098165818"><ele>113.0</ele><time>2026-04-25T17:57:49.999Z</time></trkpt><trkpt lat="45.858809518975775" lon="12.162132477256396"><ele>113.0</ele><time>2026-04-25T17:57:51.999Z</time></trkpt><trkpt lat="45.858844482926386" lon="12.1622900497198"><ele>113.0</ele><time>2026-04-25T17:57:53.999Z</time></trkpt><trkpt lat="45.85886331479404" lon="12.162459598099616"><ele>113.0</ele><time>2026-04-25T17:57:55.999Z</time></trkpt><trkpt lat="45.85889862802817" lon="12.162625203449322"><ele>113.0</ele><time>2026-04-25T17:57:57.999Z</time></trkpt><trkpt lat="45.85893278974034" lon="12.162786822597482"><ele>113.0</ele><time>2026-04-25T17:57:59.998Z</time></trkpt><trkpt lat="45.85896850038562" lon="12.162955769797133"><ele>113.0</ele><time>2026-04-25T17:58:01.998Z</time></trkpt><trkpt lat="45.859003966756134" lon="12.163123561338285"><ele>113.0</ele><time>2026-04-25T17:58:03.998Z</time></trkpt><trkpt lat="45.85903941789996" lon="12.163291928398843"><ele>113.0</ele><time>2026-04-25T17:58:05.998Z</time></trkpt><trkpt lat="45.85907219841758" lon="12.163450247728132"><ele>112.60000000000001</ele><time>2026-04-25T17:58:07.998Z</time></trkpt><trkpt lat="45.85910414497162" lon="12.163604539284503"><ele>112.20000000000002</ele><time>2026-04-25T17:58:09.998Z</time></trkpt><trkpt lat="45.859139617852655" lon="12.163756374959343"><ele>111.8</ele><time>2026-04-25T17:58:11.998Z</time></trkpt><trkpt lat="45.859183133918116" lon="12.16389292717784"><ele>111.4</ele><time>2026-04-25T17:58:13.998Z</time></trkpt><trkpt lat="45.85923044040542" lon="12.164022410784197"><ele>111.0</ele><time>2026-04-25T17:58:15.998Z</time></trkpt><trkpt lat="45.85928850505486" lon="12.16413528671302"><ele>110.83333333333333</ele><time>2026-04-25T17:58:17.997Z</time></trkpt><trkpt lat="45.85932179763128" lon="12.164250557360232"><ele>110.66666666666666</ele><time>2026-04-25T17:58:19.997Z</time></trkpt><trkpt lat="45.85932729578035" lon="12.164350344538189"><ele>110.5</ele><time>2026-04-25T17:58:21.997Z</time></trkpt><trkpt lat="45.85935106349798" lon="12.164459965950003"><ele>110.33333333333333</ele><time>2026-04-25T17:58:24.997Z</time></trkpt><trkpt lat="45.859282458469" lon="12.164499961645651"><ele>110.16666666666666</ele><time>2026-04-25T17:58:27.997Z</time></trkpt><trkpt lat="45.8592193563949" lon="12.16452263312461"><ele>110.0</ele><time>2026-04-25T17:58:55Z</time></trkpt><trkpt lat="45.859123450768486" lon="12.164501775927754"><ele>109.83333333333333</ele><time>2026-04-25T17:58:58Z</time></trkpt><trkpt lat="45.859046549859286" lon="12.164485126790801"><ele>109.66666666666666</ele><time>2026-04-25T17:59:00Z</time></trkpt><trkpt lat="45.85896561030633" lon="12.164445793701262"><ele>109.5</ele><time>2026-04-25T17:59:02Z</time></trkpt><trkpt lat="45.85888069547714" lon="12.164407209584477"><ele>109.33333333333334</ele><time>2026-04-25T17:59:04Z</time></trkpt><trkpt lat="45.85880467038914" lon="12.16433817456867"><ele>109.16666666666667</ele><time>2026-04-25T17:59:05.999Z</time></trkpt><trkpt lat="45.85873245565919" lon="12.164264979792206"><ele>109.0</ele><time>2026-04-25T17:59:07.999Z</time></trkpt><trkpt lat="45.858666473944744" lon="12.16420227787385"><ele>109.00000000000001</ele><time>2026-04-25T17:59:09.999Z</time></trkpt><trkpt lat="45.85874633208509" lon="12.164258883156599"><ele>109.0</ele><time>2026-04-25T18:03:01Z</time></trkpt><trkpt lat="45.85881370111433" lon="12.16432225371526"><ele>109.0</ele><time>2026-04-25T18:03:04Z</time></trkpt><trkpt lat="45.85886470746917" lon="12.164396004277348"><ele>109.0</ele><time>2026-04-25T18:03:07Z</time></trkpt><trkpt lat="45.858928086908655" lon="12.164450484029924"><ele>109.00000000000001</ele><time>2026-04-25T18:03:16Z</time></trkpt><trkpt lat="45.85900009148193" lon="12.164487535201207"><ele>109.0</ele><time>2026-04-25T18:03:19Z</time></trkpt><trkpt lat="45.85906685368956" lon="12.164508267635108"><ele>109.00000000000001</ele><time>2026-04-25T18:03:21Z</time></trkpt><trkpt lat="45.85915723566275" lon="12.164518540681202"><ele>109.0</ele><time>2026-04-25T18:03:23Z</time></trkpt><trkpt lat="45.859221336583744" lon="12.164521381141558"><ele>109.0</ele><time>2026-04-25T18:03:25Z</time></trkpt><trkpt lat="45.85931072049124" lon="12.164511253964047"><ele>109.0</ele><time>2026-04-25T18:03:28Z</time></trkpt><trkpt lat="45.859401848541005" lon="12.164532054386056"><ele>109.00000000000001</ele><time>2026-04-25T18:03:31Z</time></trkpt><trkpt lat="45.85949690683431" lon="12.164552838930312"><ele>109.0</ele><time>2026-04-25T18:03:34Z</time></trkpt><trkpt lat="45.85956104589398" lon="12.16455878469065"><ele>109.14285714285714</ele><time>2026-04-25T18:03:36Z</time></trkpt><trkpt lat="45.85963189407033" lon="12.164561824551148"><ele>109.28571428571429</ele><time>2026-04-25T18:03:37.999Z</time></trkpt><trkpt lat="45.85970181957644" lon="12.164552999543972"><ele>109.42857142857142</ele><time>2026-04-25T18:03:39.999Z</time></trkpt><trkpt lat="45.85977543142927" lon="12.164543360886846"><ele>109.57142857142857</ele><time>2026-04-25T18:03:41.999Z</time></trkpt><trkpt lat="45.85985007874026" lon="12.16453302679985"><ele>109.71428571428571</ele><time>2026-04-25T18:03:43.999Z</time></trkpt><trkpt lat="45.85992508806911" lon="12.164521362239023"><ele>109.85714285714285</ele><time>2026-04-25T18:03:45.999Z</time></trkpt><trkpt lat="45.86000639539327" lon="12.164526746737597"><ele>110.0</ele><time>2026-04-25T18:03:47.999Z</time></trkpt><trkpt lat="45.86009638636909" lon="12.164546735987438"><ele>110.0</ele><time>2026-04-25T18:03:49.999Z</time></trkpt><trkpt lat="45.86019994178152" lon="12.1645720531354"><ele>110.0</ele><time>2026-04-25T18:03:51.999Z</time></trkpt><trkpt lat="45.86029796847363" lon="12.164593775049287"><ele>110.0</ele><time>2026-04-25T18:03:53.999Z</time></trkpt><trkpt lat="45.86037896545287" lon="12.164646800526127"><ele>110.0</ele><time>2026-04-25T18:03:55.999Z</time></trkpt><trkpt lat="45.860420934418386" lon="12.164744308489277"><ele>110.0</ele><time>2026-04-25T18:03:57.999Z</time></trkpt><trkpt lat="45.860430842207776" lon="12.164885650384914"><ele>109.0</ele><time>2026-04-25T18:03:59.999Z</time></trkpt><trkpt lat="45.86043730839411" lon="12.165043241860502"><ele>108.0</ele><time>2026-04-25T18:04:01.999Z</time></trkpt><trkpt lat="45.86044353583937" lon="12.165202560925879"><ele>107.0</ele><time>2026-04-25T18:04:03.999Z</time></trkpt><trkpt lat="45.86045589239143" lon="12.165364836245939"><ele>106.0</ele><time>2026-04-25T18:04:05.999Z</time></trkpt><trkpt lat="45.86046699630125" lon="12.165541612054712"><ele>106.0</ele><time>2026-04-25T18:04:07.999Z</time></trkpt><trkpt lat="45.86047430701866" lon="12.165631409694011"><ele>106.0</ele><time>2026-04-25T18:04:08.999Z</time></trkpt><trkpt lat="45.86048438283311" lon="12.165723969495005"><ele>106.0</ele><time>2026-04-25T18:04:09.999Z</time></trkpt><trkpt lat="45.86049644202285" lon="12.165815223042076"><ele>106.0</ele><time>2026-04-25T18:04:10.999Z</time></trkpt><trkpt lat="45.86050882557156" lon="12.165904624865703"><ele>106.0</ele><time>2026-04-25T18:04:11.999Z</time></trkpt><trkpt lat="45.86052419191474" lon="12.165996848098946"><ele>106.0</ele><time>2026-04-25T18:04:12.999Z</time></trkpt><trkpt lat="45.860551655505816" lon="12.166174510606922"><ele>106.0</ele><time>2026-04-25T18:04:14.999Z</time></trkpt><trkpt lat="45.860571800706815" lon="12.166344454594022"><ele>106.5</ele><time>2026-04-25T18:04:16.999Z</time></trkpt><trkpt lat="45.86059596264585" lon="12.166510045139928"><ele>107.0</ele><time>2026-04-25T18:04:18.999Z</time></trkpt><trkpt lat="45.86062149085809" lon="12.166674488148391"><ele>107.5</ele><time>2026-04-25T18:04:20.999Z</time></trkpt><trkpt lat="45.86064701339852" lon="12.166828719138724"><ele>108.0</ele><time>2026-04-25T18:04:22.998Z</time></trkpt><trkpt lat="45.860665924200525" lon="12.166986810856336"><ele>108.0</ele><time>2026-04-25T18:04:24.998Z</time></trkpt><trkpt lat="45.860683299102476" lon="12.167138776594445"><ele>108.00000000000001</ele><time>2026-04-25T18:04:26.998Z</time></trkpt><trkpt lat="45.86069581182622" lon="12.16728660536491"><ele>108.00000000000001</ele><time>2026-04-25T18:04:28.998Z</time></trkpt><trkpt lat="45.860704367538254" lon="12.167434858498321"><ele>108.0</ele><time>2026-04-25T18:04:30.998Z</time></trkpt><trkpt lat="45.86072024005514" lon="12.16757584171025"><ele>108.0</ele><time>2026-04-25T18:04:32.998Z</time></trkpt><trkpt lat="45.860731530900054" lon="12.167721049102738"><ele>108.0</ele><time>2026-04-25T18:04:34.998Z</time></trkpt><trkpt lat="45.86074808553715" lon="12.167865576622305"><ele>108.00000000000001</ele><time>2026-04-25T18:04:36.998Z</time></trkpt><trkpt lat="45.86075121538132" lon="12.168017344802086"><ele>108.00000000000001</ele><time>2026-04-25T18:04:38.998Z</time></trkpt><trkpt lat="45.8607500378466" lon="12.168172973583685"><ele>108.0</ele><time>2026-04-25T18:04:40.998Z</time></trkpt><trkpt lat="45.86074373246224" lon="12.168333351284964"><ele>108.0</ele><time>2026-04-25T18:04:42.998Z</time></trkpt><trkpt lat="45.86072549244011" lon="12.168493808477225"><ele>108.2</ele><time>2026-04-25T18:04:44.998Z</time></trkpt><trkpt lat="45.860691497251764" lon="12.168648590543297"><ele>108.4</ele><time>2026-04-25T18:04:46.998Z</time></trkpt><trkpt lat="45.86065151395345" lon="12.168796871275285"><ele>108.60000000000001</ele><time>2026-04-25T18:04:48.998Z</time></trkpt><trkpt lat="45.86060625328955" lon="12.16894425331715"><ele>108.80000000000001</ele><time>2026-04-25T18:04:50.998Z</time></trkpt><trkpt lat="45.86055177664119" lon="12.169085933574053"><ele>109.0</ele><time>2026-04-25T18:04:52.998Z</time></trkpt><trkpt lat="45.86049722782204" lon="12.169232393243473"><ele>109.75</ele><time>2026-04-25T18:04:54.998Z</time></trkpt><trkpt lat="45.86044125749414" lon="12.169378343975582"><ele>110.5</ele><time>2026-04-25T18:04:56.998Z</time></trkpt><trkpt lat="45.86038443496839" lon="12.169530109642322"><ele>111.25</ele><time>2026-04-25T18:04:58.998Z</time></trkpt><trkpt lat="45.86031791058611" lon="12.1696800565438"><ele>112.0</ele><time>2026-04-25T18:05:00.998Z</time></trkpt><trkpt lat="45.86028230619925" lon="12.16984975704632"><ele>111.85714285714286</ele><time>2026-04-25T18:05:03Z</time></trkpt><trkpt lat="45.86027014123686" lon="12.169940024717892"><ele>111.71428571428572</ele><time>2026-04-25T18:05:04Z</time></trkpt><trkpt lat="45.8602772847079" lon="12.170032978020977"><ele>111.57142857142857</ele><time>2026-04-25T18:05:05Z</time></trkpt><trkpt lat="45.860255800545076" lon="12.170120481860833"><ele>111.42857142857143</ele><time>2026-04-25T18:05:06Z</time></trkpt><trkpt lat="45.860271635324246" lon="12.170215569132713"><ele>111.28571428571429</ele><time>2026-04-25T18:05:07Z</time></trkpt><trkpt lat="45.8602709863936" lon="12.170307840740067"><ele>111.14285714285714</ele><time>2026-04-25T18:05:08Z</time></trkpt><trkpt lat="45.86027506491572" lon="12.170398116272276"><ele>111.0</ele><time>2026-04-25T18:05:09Z</time></trkpt><trkpt lat="45.86028551933022" lon="12.170489498429728"><ele>111.0</ele><time>2026-04-25T18:05:10Z</time></trkpt><trkpt lat="45.8602973864589" lon="12.170578852842164"><ele>111.0</ele><time>2026-04-25T18:05:11Z</time></trkpt><trkpt lat="45.86031164038912" lon="12.170667891096437"><ele>111.0</ele><time>2026-04-25T18:05:12Z</time></trkpt><trkpt lat="45.860326995457186" lon="12.170755933762392"><ele>111.0</ele><time>2026-04-25T18:05:13Z</time></trkpt><trkpt lat="45.86035697384337" lon="12.170930970830026"><ele>111.0</ele><time>2026-04-25T18:05:15Z</time></trkpt><trkpt lat="45.86038771754882" lon="12.171101062053575"><ele>111.0</ele><time>2026-04-25T18:05:17Z</time></trkpt><trkpt lat="45.86041855217624" lon="12.171271001467609"><ele>111.0</ele><time>2026-04-25T18:05:19Z</time></trkpt><trkpt lat="45.860452187283464" lon="12.17144130233312"><ele>111.0</ele><time>2026-04-25T18:05:21Z</time></trkpt><trkpt lat="45.8604863877591" lon="12.171611491331024"><ele>111.0</ele><time>2026-04-25T18:05:23Z</time></trkpt><trkpt lat="45.860515394457565" lon="12.171786135513898"><ele>111.0</ele><time>2026-04-25T18:05:25Z</time></trkpt><trkpt lat="45.86054362260137" lon="12.171957154958841"><ele>111.0</ele><time>2026-04-25T18:05:27Z</time></trkpt><trkpt lat="45.86057396220234" lon="12.172127831018157"><ele>111.0</ele><time>2026-04-25T18:05:29Z</time></trkpt><trkpt lat="45.86060907755596" lon="12.172295669807244"><ele>111.0</ele><time>2026-04-25T18:05:31Z</time></trkpt><trkpt lat="45.860635276157964" lon="12.1724632720049"><ele>111.0</ele><time>2026-04-25T18:05:33Z</time></trkpt><trkpt lat="45.86066450764845" lon="12.172630317270917"><ele>110.75</ele><time>2026-04-25T18:05:35Z</time></trkpt><trkpt lat="45.860696953266604" lon="12.172795978899984"><ele>110.5</ele><time>2026-04-25T18:05:37Z</time></trkpt><trkpt lat="45.86073069557868" lon="12.172960176444755"><ele>110.25</ele><time>2026-04-25T18:05:39Z</time></trkpt><trkpt lat="45.86077681782244" lon="12.17311407971057"><ele>110.0</ele><time>2026-04-25T18:05:41Z</time></trkpt><trkpt lat="45.86082767345999" lon="12.173266329285472"><ele>110.5</ele><time>2026-04-25T18:05:43Z</time></trkpt><trkpt lat="45.86088929643189" lon="12.173411529198033"><ele>111.0</ele><time>2026-04-25T18:05:45Z</time></trkpt><trkpt lat="45.86095461078489" lon="12.173551049884376"><ele>111.5</ele><time>2026-04-25T18:05:47Z</time></trkpt><trkpt lat="45.86102606961067" lon="12.173684631733682"><ele>112.0</ele><time>2026-04-25T18:05:49Z</time></trkpt><trkpt lat="45.8610957620783" lon="12.173817801391236"><ele>112.25</ele><time>2026-04-25T18:05:51Z</time></trkpt><trkpt lat="45.861171206105126" lon="12.173947469565038"><ele>112.5</ele><time>2026-04-25T18:05:52.999Z</time></trkpt><trkpt lat="45.86123548903869" lon="12.17408538799625"><ele>112.75</ele><time>2026-04-25T18:05:54.999Z</time></trkpt><trkpt lat="45.86129850502987" lon="12.17422292804297"><ele>113.0</ele><time>2026-04-25T18:05:56.998Z</time></trkpt><trkpt lat="45.861360346934035" lon="12.17436303550148"><ele>113.0</ele><time>2026-04-25T18:05:58.998Z</time></trkpt><trkpt lat="45.8614091929415" lon="12.174508668220628"><ele>113.0</ele><time>2026-04-25T18:06:00.998Z</time></trkpt><trkpt lat="45.861448762028566" lon="12.1746614037997"><ele>113.0</ele><time>2026-04-25T18:06:02.998Z</time></trkpt><trkpt lat="45.861488325196056" lon="12.174818900601876"><ele>113.0</ele><time>2026-04-25T18:06:04.998Z</time></trkpt><trkpt lat="45.86153569789254" lon="12.174980549352675"><ele>112.99999999999999</ele><time>2026-04-25T18:06:06.998Z</time></trkpt><trkpt lat="45.86157042192592" lon="12.1751550846216"><ele>113.0</ele><time>2026-04-25T18:06:08.998Z</time></trkpt><trkpt lat="45.86159566756102" lon="12.175240267933669"><ele>113.0</ele><time>2026-04-25T18:06:09.998Z</time></trkpt><trkpt lat="45.86162306278972" lon="12.175325052813822"><ele>113.0</ele><time>2026-04-25T18:06:10.998Z</time></trkpt><trkpt lat="45.86166804767129" lon="12.17539705859105"><ele>112.99999999999999</ele><time>2026-04-25T18:06:11.998Z</time></trkpt><trkpt lat="45.86168498133387" lon="12.17549140486385"><ele>113.0</ele><time>2026-04-25T18:06:12.998Z</time></trkpt><trkpt lat="45.861722989196295" lon="12.175573952725921"><ele>113.0</ele><time>2026-04-25T18:06:13.998Z</time></trkpt><trkpt lat="45.861762396021774" lon="12.175658450964852"><ele>113.0</ele><time>2026-04-25T18:06:14.998Z</time></trkpt><trkpt lat="45.8618042219667" lon="12.17574274283011"><ele>113.0</ele><time>2026-04-25T18:06:15.998Z</time></trkpt><trkpt lat="45.86184801547505" lon="12.175825547368342"><ele>113.0</ele><time>2026-04-25T18:06:16.998Z</time></trkpt><trkpt lat="45.86190222736641" lon="12.17589334830283"><ele>113.0</ele><time>2026-04-25T18:06:17.998Z</time></trkpt><trkpt lat="45.861950285486664" lon="12.175971542709988"><ele>113.0</ele><time>2026-04-25T18:06:18.998Z</time></trkpt><trkpt lat="45.86199930243177" lon="12.176043479672256"><ele>113.0</ele><time>2026-04-25T18:06:19.998Z</time></trkpt><trkpt lat="45.86205136511951" lon="12.176115838514292"><ele>112.66666666666666</ele><time>2026-04-25T18:06:20.998Z</time></trkpt><trkpt lat="45.8621077064314" lon="12.17618355968382"><ele>112.33333333333333</ele><time>2026-04-25T18:06:21.998Z</time></trkpt><trkpt lat="45.86216687104256" lon="12.176248238530796"><ele>112.0</ele><time>2026-04-25T18:06:22.998Z</time></trkpt><trkpt lat="45.862213577222995" lon="12.176335465604234"><ele>111.66666666666666</ele><time>2026-04-25T18:06:23.998Z</time></trkpt><trkpt lat="45.86227922141197" lon="12.17638880631998"><ele>111.33333333333333</ele><time>2026-04-25T18:06:24.998Z</time></trkpt><trkpt lat="45.862335627183" lon="12.176460584143479"><ele>111.0</ele><time>2026-04-25T18:06:25.998Z</time></trkpt><trkpt lat="45.862391436869764" lon="12.17653244777575"><ele>110.16666666666667</ele><time>2026-04-25T18:06:26.998Z</time></trkpt><trkpt lat="45.86244972782719" lon="12.176603156068786"><ele>109.33333333333334</ele><time>2026-04-25T18:06:27.998Z</time></trkpt><trkpt lat="45.86250896448554" lon="12.176672341944276"><ele>108.5</ele><time>2026-04-25T18:06:28.998Z</time></trkpt><trkpt lat="45.862568088751885" lon="12.176739949463977"><ele>107.66666666666667</ele><time>2026-04-25T18:06:29.998Z</time></trkpt><trkpt lat="45.86262649596309" lon="12.176807835392207"><ele>106.83333333333334</ele><time>2026-04-25T18:06:30.998Z</time></trkpt><trkpt lat="45.862684949727104" lon="12.176875988830945"><ele>106.0</ele><time>2026-04-25T18:06:31.998Z</time></trkpt><trkpt lat="45.86274289905588" lon="12.176944541489094"><ele>106.00000000000001</ele><time>2026-04-25T18:06:32.998Z</time></trkpt><trkpt lat="45.862800567286705" lon="12.177012944385572"><ele>106.0</ele><time>2026-04-25T18:06:33.998Z</time></trkpt><trkpt lat="45.86285951383967" lon="12.177084216455153"><ele>106.0</ele><time>2026-04-25T18:06:34.998Z</time></trkpt><trkpt lat="45.86291821592323" lon="12.177155552680379"><ele>106.0</ele><time>2026-04-25T18:06:35.998Z</time></trkpt><trkpt lat="45.86297842383328" lon="12.177226602263787"><ele>106.00000000000001</ele><time>2026-04-25T18:06:36.998Z</time></trkpt><trkpt lat="45.86303609666788" lon="12.177294045150157"><ele>106.0</ele><time>2026-04-25T18:06:37.998Z</time></trkpt><trkpt lat="45.863094874163174" lon="12.177362230161679"><ele>105.33333333333334</ele><time>2026-04-25T18:06:38.998Z</time></trkpt><trkpt lat="45.86315243581257" lon="12.177431148778652"><ele>104.66666666666667</ele><time>2026-04-25T18:06:39.998Z</time></trkpt><trkpt lat="45.8632110644529" lon="12.177498409286887"><ele>104.0</ele><time>2026-04-25T18:06:40.998Z</time></trkpt><trkpt lat="45.863269888748306" lon="12.177568236364984"><ele>103.33333333333334</ele><time>2026-04-25T18:06:41.997Z</time></trkpt><trkpt lat="45.86332847300832" lon="12.177637455221205"><ele>102.66666666666667</ele><time>2026-04-25T18:06:42.997Z</time></trkpt><trkpt lat="45.86338711422744" lon="12.177706755392066"><ele>102.0</ele><time>2026-04-25T18:06:43.997Z</time></trkpt><trkpt lat="45.86344701341938" lon="12.177776071391794"><ele>102.16666666666667</ele><time>2026-04-25T18:06:44.997Z</time></trkpt><trkpt lat="45.863505865619224" lon="12.177843281004398"><ele>102.33333333333334</ele><time>2026-04-25T18:06:45.997Z</time></trkpt><trkpt lat="45.86356364208116" lon="12.177912180813893"><ele>102.5</ele><time>2026-04-25T18:06:46.997Z</time></trkpt><trkpt lat="45.86361896619697" lon="12.177983223134744"><ele>102.66666666666667</ele><time>2026-04-25T18:06:47.997Z</time></trkpt><trkpt lat="45.86367576060242" lon="12.17805384335551"><ele>102.83333333333334</ele><time>2026-04-25T18:06:48.997Z</time></trkpt><trkpt lat="45.86373800976707" lon="12.178121092607613"><ele>103.0</ele><time>2026-04-25T18:06:49.997Z</time></trkpt><trkpt lat="45.863797427809494" lon="12.178186780038601"><ele>103.00000000000001</ele><time>2026-04-25T18:06:50.997Z</time></trkpt><trkpt lat="45.86385769636052" lon="12.17825239481081"><ele>103.0</ele><time>2026-04-25T18:06:51.997Z</time></trkpt><trkpt lat="45.863918598110274" lon="12.178320009029463"><ele>103.0</ele><time>2026-04-25T18:06:52.997Z</time></trkpt><trkpt lat="45.86397876228125" lon="12.178386972129786"><ele>103.0</ele><time>2026-04-25T18:06:53.997Z</time></trkpt><trkpt lat="45.86403745381795" lon="12.178455613320384"><ele>103.00000000000001</ele><time>2026-04-25T18:06:54.997Z</time></trkpt><trkpt lat="45.86409578902863" lon="12.178525209725812"><ele>103.0</ele><time>2026-04-25T18:06:55.997Z</time></trkpt><trkpt lat="45.864153803077905" lon="12.17859879564639"><ele>103.00000000000001</ele><time>2026-04-25T18:06:56.997Z</time></trkpt><trkpt lat="45.86421223662318" lon="12.17867189248607"><ele>103.0</ele><time>2026-04-25T18:06:57.997Z</time></trkpt><trkpt lat="45.86426975712202" lon="12.178742701928435"><ele>103.0</ele><time>2026-04-25T18:06:58.997Z</time></trkpt><trkpt lat="45.86432709476283" lon="12.178813913906302"><ele>103.0</ele><time>2026-04-25T18:06:59.997Z</time></trkpt><trkpt lat="45.864381201181814" lon="12.178890052017637"><ele>103.00000000000001</ele><time>2026-04-25T18:07:00.997Z</time></trkpt><trkpt lat="45.8644319427261" lon="12.178972026332636"><ele>103.0</ele><time>2026-04-25T18:07:01.997Z</time></trkpt><trkpt lat="45.86448265551449" lon="12.179055113401402"><ele>103.83333333333334</ele><time>2026-04-25T18:07:02.997Z</time></trkpt><trkpt lat="45.86453104763766" lon="12.179143472296198"><ele>104.66666666666667</ele><time>2026-04-25T18:07:03.997Z</time></trkpt><trkpt lat="45.86457168558464" lon="12.17923538381858"><ele>105.5</ele><time>2026-04-25T18:07:04.997Z</time></trkpt><trkpt lat="45.86460893103133" lon="12.179332844431434"><ele>106.33333333333334</ele><time>2026-04-25T18:07:05.997Z</time></trkpt><trkpt lat="45.86464223371441" lon="12.179431147583598"><ele>107.16666666666667</ele><time>2026-04-25T18:07:06.997Z</time></trkpt><trkpt lat="45.864670919876644" lon="12.179535652185805"><ele>108.0</ele><time>2026-04-25T18:07:08Z</time></trkpt><trkpt lat="45.86469628220626" lon="12.179643396080342"><ele>108.0</ele><time>2026-04-25T18:07:09Z</time></trkpt><trkpt lat="45.86471849575902" lon="12.17975199090984"><ele>108.0</ele><time>2026-04-25T18:07:10Z</time></trkpt><trkpt lat="45.86473926210106" lon="12.179860205156567"><ele>108.0</ele><time>2026-04-25T18:07:11Z</time></trkpt><trkpt lat="45.864756251641026" lon="12.179969148506439"><ele>108.0</ele><time>2026-04-25T18:07:12Z</time></trkpt><trkpt lat="45.864765955582776" lon="12.180077300133132"><ele>108.0</ele><time>2026-04-25T18:07:13Z</time></trkpt><trkpt lat="45.864758784117384" lon="12.180184981754355"><ele>108.0</ele><time>2026-04-25T18:07:14Z</time></trkpt><trkpt lat="45.86473204206958" lon="12.18028935979315"><ele>107.0</ele><time>2026-04-25T18:07:15Z</time></trkpt><trkpt lat="45.86467913700347" lon="12.180370786128885"><ele>106.0</ele><time>2026-04-25T18:07:16Z</time></trkpt><trkpt lat="45.86462049739098" lon="12.180447890477627"><ele>105.0</ele><time>2026-04-25T18:07:17Z</time></trkpt><trkpt lat="45.86456244105651" lon="12.180523040093904"><ele>104.0</ele><time>2026-04-25T18:07:18Z</time></trkpt><trkpt lat="45.86450215060949" lon="12.180595850436339"><ele>103.0</ele><time>2026-04-25T18:07:19Z</time></trkpt><trkpt lat="45.864444167788974" lon="12.18067088661186"><ele>102.0</ele><time>2026-04-25T18:07:20Z</time></trkpt><trkpt lat="45.86438727256059" lon="12.18075094173524"><ele>101.33333333333333</ele><time>2026-04-25T18:07:21Z</time></trkpt><trkpt lat="45.86433267107883" lon="12.180824143261567"><ele>100.66666666666666</ele><time>2026-04-25T18:07:22Z</time></trkpt><trkpt lat="45.86427922019925" lon="12.180897475677796"><ele>100.0</ele><time>2026-04-25T18:07:23Z</time></trkpt><trkpt lat="45.864224076080866" lon="12.180970838681752"><ele>99.33333333333333</ele><time>2026-04-25T18:07:24Z</time></trkpt><trkpt lat="45.86417016137705" lon="12.181046039244595"><ele>98.66666666666666</ele><time>2026-04-25T18:07:25Z</time></trkpt><trkpt lat="45.86411507064025" lon="12.181121514360234"><ele>98.0</ele><time>2026-04-25T18:07:26Z</time></trkpt><trkpt lat="45.864060140740825" lon="12.181195276844303"><ele>97.85714285714286</ele><time>2026-04-25T18:07:27Z</time></trkpt><trkpt lat="45.86400204903529" lon="12.18126683928612"><ele>97.71428571428572</ele><time>2026-04-25T18:07:28Z</time></trkpt><trkpt lat="45.863946790061966" lon="12.181341470052068"><ele>97.57142857142857</ele><time>2026-04-25T18:07:29Z</time></trkpt><trkpt lat="45.86389021763465" lon="12.181414541584083"><ele>97.42857142857143</ele><time>2026-04-25T18:07:30Z</time></trkpt><trkpt lat="45.86383661095353" lon="12.181486303535989"><ele>97.28571428571429</ele><time>2026-04-25T18:07:31Z</time></trkpt><trkpt lat="45.86378023329632" lon="12.181559095487486"><ele>97.14285714285714</ele><time>2026-04-25T18:07:32Z</time></trkpt><trkpt lat="45.863728834700524" lon="12.181631186607543"><ele>97.0</ele><time>2026-04-25T18:07:33Z</time></trkpt><trkpt lat="45.86367621695595" lon="12.181703639665722"><ele>97.0</ele><time>2026-04-25T18:07:34Z</time></trkpt><trkpt lat="45.86362335964775" lon="12.181772506360195"><ele>97.0</ele><time>2026-04-25T18:07:34.999Z</time></trkpt><trkpt lat="45.86357154406089" lon="12.18184203448356"><ele>97.0</ele><time>2026-04-25T18:07:35.999Z</time></trkpt><trkpt lat="45.86351840596824" lon="12.181911410269207"><ele>97.0</ele><time>2026-04-25T18:07:36.999Z</time></trkpt><trkpt lat="45.863466728393064" lon="12.181979282160391"><ele>97.0</ele><time>2026-04-25T18:07:37.999Z</time></trkpt><trkpt lat="45.86341511803006" lon="12.182047960283365"><ele>97.0</ele><time>2026-04-25T18:07:38.999Z</time></trkpt><trkpt lat="45.86336560173902" lon="12.182117783110487"><ele>97.0</ele><time>2026-04-25T18:07:39.999Z</time></trkpt><trkpt lat="45.86331629271072" lon="12.182185605417324"><ele>96.71428571428571</ele><time>2026-04-25T18:07:40.999Z</time></trkpt><trkpt lat="45.86326437221657" lon="12.182252512510166"><ele>96.42857142857143</ele><time>2026-04-25T18:07:41.999Z</time></trkpt><trkpt lat="45.86321478003601" lon="12.182320048997994"><ele>96.14285714285714</ele><time>2026-04-25T18:07:42.999Z</time></trkpt><trkpt lat="45.86316620993029" lon="12.182388053828072"><ele>95.85714285714286</ele><time>2026-04-25T18:07:43.999Z</time></trkpt><trkpt lat="45.86311677371541" lon="12.182456474041011"><ele>95.57142857142858</ele><time>2026-04-25T18:07:44.999Z</time></trkpt><trkpt lat="45.86306462050175" lon="12.182520158268611"><ele>95.28571428571429</ele><time>2026-04-25T18:07:45.999Z</time></trkpt><trkpt lat="45.86301284384885" lon="12.182584368092996"><ele>95.0</ele><time>2026-04-25T18:07:46.999Z</time></trkpt><trkpt lat="45.862961860543365" lon="12.182651517224823"><ele>95.0</ele><time>2026-04-25T18:07:47.999Z</time></trkpt><trkpt lat="45.86291342533781" lon="12.182716237833773"><ele>95.0</ele><time>2026-04-25T18:07:48.999Z</time></trkpt><trkpt lat="45.86286689876969" lon="12.182778370979433"><ele>95.0</ele><time>2026-04-25T18:07:49.999Z</time></trkpt><trkpt lat="45.86277876755261" lon="12.182898694811806"><ele>95.0</ele><time>2026-04-25T18:07:51.999Z</time></trkpt><trkpt lat="45.862692977606464" lon="12.18301738467226"><ele>95.0</ele><time>2026-04-25T18:07:53.999Z</time></trkpt><trkpt lat="45.86260599433296" lon="12.183127023734661"><ele>96.2</ele><time>2026-04-25T18:07:55.999Z</time></trkpt><trkpt lat="45.862522900181624" lon="12.18323445867942"><ele>97.4</ele><time>2026-04-25T18:07:57.999Z</time></trkpt><trkpt lat="45.862443770651105" lon="12.18334666448041"><ele>98.6</ele><time>2026-04-25T18:07:59.999Z</time></trkpt><trkpt lat="45.862365672540705" lon="12.183455320356233"><ele>99.8</ele><time>2026-04-25T18:08:01.999Z</time></trkpt><trkpt lat="45.862288545529644" lon="12.183559308964785"><ele>101.0</ele><time>2026-04-25T18:08:03.999Z</time></trkpt><trkpt lat="45.862212832627705" lon="12.183659669668604"><ele>101.0</ele><time>2026-04-25T18:08:05.999Z</time></trkpt><trkpt lat="45.86213806007279" lon="12.183755615705985"><ele>101.0</ele><time>2026-04-25T18:08:07.999Z</time></trkpt><trkpt lat="45.86206209291152" lon="12.183848653867749"><ele>101.0</ele><time>2026-04-25T18:08:09.999Z</time></trkpt><trkpt lat="45.86198945648981" lon="12.183944895006109"><ele>101.0</ele><time>2026-04-25T18:08:11.999Z</time></trkpt><trkpt lat="45.86191855048817" lon="12.184041553975621"><ele>101.0</ele><time>2026-04-25T18:08:13.999Z</time></trkpt><trkpt lat="45.861850122278646" lon="12.184135983572782"><ele>102.6</ele><time>2026-04-25T18:08:15.999Z</time></trkpt><trkpt lat="45.86178056268501" lon="12.18422872160691"><ele>104.19999999999999</ele><time>2026-04-25T18:08:17.999Z</time></trkpt><trkpt lat="45.86170933495529" lon="12.184323262130178"><ele>105.80000000000001</ele><time>2026-04-25T18:08:19.999Z</time></trkpt><trkpt lat="45.86163909940232" lon="12.18441194579729"><ele>107.4</ele><time>2026-04-25T18:08:21.999Z</time></trkpt><trkpt lat="45.86156994744133" lon="12.184497428584402"><ele>109.0</ele><time>2026-04-25T18:08:23.998Z</time></trkpt><trkpt lat="45.861499303970525" lon="12.184582950347783"><ele>109.00000000000001</ele><time>2026-04-25T18:08:25.998Z</time></trkpt><trkpt lat="45.86142630322769" lon="12.184662020205936"><ele>109.0</ele><time>2026-04-25T18:08:27.998Z</time></trkpt><trkpt lat="45.86134902390486" lon="12.184730695704001"><ele>109.0</ele><time>2026-04-25T18:08:29.998Z</time></trkpt><trkpt lat="45.86127193067164" lon="12.184795853706605"><ele>109.0</ele><time>2026-04-25T18:08:31.998Z</time></trkpt><trkpt lat="45.86119612654735" lon="12.184855267785306"><ele>109.00000000000001</ele><time>2026-04-25T18:08:33.998Z</time></trkpt><trkpt lat="45.86111679851518" lon="12.184910104060918"><ele>109.0</ele><time>2026-04-25T18:08:35.998Z</time></trkpt><trkpt lat="45.86103833434607" lon="12.184966580804272"><ele>109.83333333333334</ele><time>2026-04-25T18:08:37.998Z</time></trkpt><trkpt lat="45.860959156040735" lon="12.185021931165764"><ele>110.66666666666667</ele><time>2026-04-25T18:08:39.998Z</time></trkpt><trkpt lat="45.86088163083525" lon="12.185079938309073"><ele>111.5</ele><time>2026-04-25T18:08:41.998Z</time></trkpt><trkpt lat="45.860800778529764" lon="12.185137041139988"><ele>112.33333333333334</ele><time>2026-04-25T18:08:43.998Z</time></trkpt><trkpt lat="45.86071970640845" lon="12.185195163508455"><ele>113.16666666666667</ele><time>2026-04-25T18:08:45.998Z</time></trkpt><trkpt lat="45.86063834352351" lon="12.185254943940114"><ele>114.0</ele><time>2026-04-25T18:08:47.998Z</time></trkpt><trkpt lat="45.860554506069754" lon="12.185316243742571"><ele>114.0</ele><time>2026-04-25T18:08:49.998Z</time></trkpt><trkpt lat="45.86046918591156" lon="12.185374553918509"><ele>114.0</ele><time>2026-04-25T18:08:51.998Z</time></trkpt><trkpt lat="45.86038389182281" lon="12.18543550401302"><ele>114.0</ele><time>2026-04-25T18:08:53.998Z</time></trkpt><trkpt lat="45.86029949382375" lon="12.185496147280045"><ele>114.0</ele><time>2026-04-25T18:08:55.998Z</time></trkpt><trkpt lat="45.86021712779101" lon="12.185555025712224"><ele>114.0</ele><time>2026-04-25T18:08:57.998Z</time></trkpt><trkpt lat="45.8601328409417" lon="12.185613297775115"><ele>114.2</ele><time>2026-04-25T18:08:59.998Z</time></trkpt><trkpt lat="45.860049630560596" lon="12.185672760707948"><ele>114.4</ele><time>2026-04-25T18:09:01.998Z</time></trkpt><trkpt lat="45.85996628349146" lon="12.185731081503617"><ele>114.6</ele><time>2026-04-25T18:09:03.998Z</time></trkpt><trkpt lat="45.8598816174552" lon="12.18579159216653"><ele>114.8</ele><time>2026-04-25T18:09:05.998Z</time></trkpt><trkpt lat="45.85979702631736" lon="12.18585073332042"><ele>115.0</ele><time>2026-04-25T18:09:07.997Z</time></trkpt><trkpt lat="45.8597117711612" lon="12.185906327756511"><ele>115.0</ele><time>2026-04-25T18:09:09.997Z</time></trkpt><trkpt lat="45.859627107465705" lon="12.185967022422306"><ele>115.0</ele><time>2026-04-25T18:09:11.997Z</time></trkpt><trkpt lat="45.85954492619044" lon="12.186027232369588"><ele>115.0</ele><time>2026-04-25T18:09:14Z</time></trkpt><trkpt lat="45.8594587477295" lon="12.186086129464508"><ele>115.0</ele><time>2026-04-25T18:09:16Z</time></trkpt><trkpt lat="45.85937432156322" lon="12.186146793628994"><ele>115.0</ele><time>2026-04-25T18:09:18Z</time></trkpt><trkpt lat="45.859290541832195" lon="12.186206488408176"><ele>114.8</ele><time>2026-04-25T18:09:20Z</time></trkpt><trkpt lat="45.859203316163416" lon="12.186267284225833"><ele>114.6</ele><time>2026-04-25T18:09:22Z</time></trkpt><trkpt lat="45.859115122811794" lon="12.186325068783514"><ele>114.4</ele><time>2026-04-25T18:09:24Z</time></trkpt><trkpt lat="45.85902951560064" lon="12.186387158520198"><ele>114.2</ele><time>2026-04-25T18:09:26Z</time></trkpt><trkpt lat="45.858942521645005" lon="12.186446999475471"><ele>114.0</ele><time>2026-04-25T18:09:28Z</time></trkpt><trkpt lat="45.85885278219365" lon="12.186512973925684"><ele>114.0</ele><time>2026-04-25T18:09:30Z</time></trkpt><trkpt lat="45.85875669491915" lon="12.186578413898374"><ele>114.0</ele><time>2026-04-25T18:09:32Z</time></trkpt><trkpt lat="45.85865551036087" lon="12.186646070672593"><ele>114.0</ele><time>2026-04-25T18:09:34Z</time></trkpt><trkpt lat="45.858553400023595" lon="12.186718363616288"><ele>114.0</ele><time>2026-04-25T18:09:36Z</time></trkpt><trkpt lat="45.85844878566006" lon="12.186793772477209"><ele>114.0</ele><time>2026-04-25T18:09:38Z</time></trkpt><trkpt lat="45.8583439591149" lon="12.18686711642565"><ele>114.2</ele><time>2026-04-25T18:09:40Z</time></trkpt><trkpt lat="45.85823580414907" lon="12.186942289303278"><ele>114.4</ele><time>2026-04-25T18:09:42Z</time></trkpt><trkpt lat="45.85812445826095" lon="12.187021624783005"><ele>114.6</ele><time>2026-04-25T18:09:44Z</time></trkpt><trkpt lat="45.85801706268802" lon="12.187091464716408"><ele>114.8</ele><time>2026-04-25T18:09:46Z</time></trkpt><trkpt lat="45.85795853979336" lon="12.187133068556442"><ele>115.0</ele><time>2026-04-25T18:09:47Z</time></trkpt><trkpt lat="45.85784963152364" lon="12.187213658924946"><ele>115.00000000000001</ele><time>2026-04-25T18:09:49Z</time></trkpt><trkpt lat="45.85773555870957" lon="12.187289967297126"><ele>115.0</ele><time>2026-04-25T18:09:51Z</time></trkpt><trkpt lat="45.85767826087787" lon="12.187332257295663"><ele>115.0</ele><time>2026-04-25T18:09:51.999Z</time></trkpt><trkpt lat="45.85761905679435" lon="12.18737546275819"><ele>115.0</ele><time>2026-04-25T18:09:52.999Z</time></trkpt><trkpt lat="45.857559752755726" lon="12.187417470830578"><ele>115.00000000000001</ele><time>2026-04-25T18:09:53.999Z</time></trkpt><trkpt lat="45.85749921093778" lon="12.187460338476349"><ele>115.0</ele><time>2026-04-25T18:09:54.999Z</time></trkpt><trkpt lat="45.85743969160961" lon="12.18750262018266"><ele>114.7142857142857</ele><time>2026-04-25T18:09:55.999Z</time></trkpt><trkpt lat="45.857379463658795" lon="12.187546187125985"><ele>114.42857142857142</ele><time>2026-04-25T18:09:56.999Z</time></trkpt><trkpt lat="45.85731822859321" lon="12.187590402220234"><ele>114.14285714285714</ele><time>2026-04-25T18:09:57.999Z</time></trkpt><trkpt lat="45.85725768850816" lon="12.187634285959508"><ele>113.85714285714285</ele><time>2026-04-25T18:09:58.999Z</time></trkpt><trkpt lat="45.85719573351132" lon="12.18767816038527"><ele>113.57142857142856</ele><time>2026-04-25T18:09:59.999Z</time></trkpt><trkpt lat="45.85713377311211" lon="12.187722876872476"><ele>113.28571428571429</ele><time>2026-04-25T18:10:00.999Z</time></trkpt><trkpt lat="45.857070577703226" lon="12.187766335091643"><ele>113.0</ele><time>2026-04-25T18:10:01.999Z</time></trkpt><trkpt lat="45.8570076716548" lon="12.187809880497104"><ele>113.0</ele><time>2026-04-25T18:10:02.999Z</time></trkpt><trkpt lat="45.85694535932484" lon="12.18785581444626"><ele>113.0</ele><time>2026-04-25T18:10:03.999Z</time></trkpt><trkpt lat="45.856882567843904" lon="12.187901108648246"><ele>113.0</ele><time>2026-04-25T18:10:04.999Z</time></trkpt><trkpt lat="45.85682042679593" lon="12.187943778571814"><ele>113.0</ele><time>2026-04-25T18:10:05.999Z</time></trkpt><trkpt lat="45.85676049710155" lon="12.187989172515332"><ele>113.0</ele><time>2026-04-25T18:10:06.999Z</time></trkpt><trkpt lat="45.856700415286646" lon="12.188032756444663"><ele>113.0</ele><time>2026-04-25T18:10:07.999Z</time></trkpt><trkpt lat="45.85663789708645" lon="12.1880762606851"><ele>113.0</ele><time>2026-04-25T18:10:08.999Z</time></trkpt><trkpt lat="45.85657603936919" lon="12.188117736850689"><ele>112.85714285714286</ele><time>2026-04-25T18:10:09.999Z</time></trkpt><trkpt lat="45.85651254200639" lon="12.188161463434746"><ele>112.71428571428571</ele><time>2026-04-25T18:10:10.999Z</time></trkpt><trkpt lat="45.85644946289472" lon="12.188205981959237"><ele>112.57142857142857</ele><time>2026-04-25T18:10:11.999Z</time></trkpt><trkpt lat="45.85638567206914" lon="12.188249257556922"><ele>112.42857142857143</ele><time>2026-04-25T18:10:12.999Z</time></trkpt><trkpt lat="45.856323847718166" lon="12.188293033089224"><ele>112.28571428571428</ele><time>2026-04-25T18:10:13.999Z</time></trkpt><trkpt lat="45.856260298447545" lon="12.188337799777763"><ele>112.14285714285714</ele><time>2026-04-25T18:10:14.999Z</time></trkpt><trkpt lat="45.85619965865224" lon="12.188384609738424"><ele>112.0</ele><time>2026-04-25T18:10:15.999Z</time></trkpt><trkpt lat="45.85613767422448" lon="12.188427896158645"><ele>112.28571428571428</ele><time>2026-04-25T18:10:16.999Z</time></trkpt><trkpt lat="45.85607442185984" lon="12.188469937518319"><ele>112.57142857142857</ele><time>2026-04-25T18:10:17.999Z</time></trkpt><trkpt lat="45.85601146450873" lon="12.188515114613963"><ele>112.85714285714286</ele><time>2026-04-25T18:10:18.999Z</time></trkpt><trkpt lat="45.85594912546542" lon="12.188557478496538"><ele>113.14285714285714</ele><time>2026-04-25T18:10:19.999Z</time></trkpt><trkpt lat="45.85588586817412" lon="12.188601356618907"><ele>113.42857142857142</ele><time>2026-04-25T18:10:20.999Z</time></trkpt><trkpt lat="45.85582297912873" lon="12.18864919770536"><ele>113.71428571428571</ele><time>2026-04-25T18:10:21.999Z</time></trkpt><trkpt lat="45.85575948006975" lon="12.188694424947412"><ele>114.0</ele><time>2026-04-25T18:10:22.999Z</time></trkpt><trkpt lat="45.85569313190345" lon="12.188737774332898"><ele>114.0</ele><time>2026-04-25T18:10:23.999Z</time></trkpt><trkpt lat="45.85562941477535" lon="12.18878325444094"><ele>113.99999999999999</ele><time>2026-04-25T18:10:24.999Z</time></trkpt><trkpt lat="45.85556422617493" lon="12.188828665886826"><ele>114.0</ele><time>2026-04-25T18:10:25.999Z</time></trkpt><trkpt lat="45.855500266298016" lon="12.188874136760566"><ele>114.0</ele><time>2026-04-25T18:10:26.999Z</time></trkpt><trkpt lat="45.85543539717263" lon="12.188919227683215"><ele>113.99999999999999</ele><time>2026-04-25T18:10:27.999Z</time></trkpt><trkpt lat="45.85537157262374" lon="12.188966905345875"><ele>114.0</ele><time>2026-04-25T18:10:28.999Z</time></trkpt><trkpt lat="45.85530700063879" lon="12.189015787612325"><ele>114.0</ele><time>2026-04-25T18:10:29.999Z</time></trkpt><trkpt lat="45.85524303421788" lon="12.18905962308391"><ele>114.0</ele><time>2026-04-25T18:10:30.999Z</time></trkpt><trkpt lat="45.855178438541024" lon="12.189103175811786"><ele>113.99999999999999</ele><time>2026-04-25T18:10:31.999Z</time></trkpt><trkpt lat="45.85511403470428" lon="12.189147730693081"><ele>114.0</ele><time>2026-04-25T18:10:32.999Z</time></trkpt><trkpt lat="45.85504948409126" lon="12.189192887521667"><ele>114.0</ele><time>2026-04-25T18:10:33.999Z</time></trkpt><trkpt lat="45.854984650144694" lon="12.189238675126532"><ele>113.99999999999999</ele><time>2026-04-25T18:10:34.998Z</time></trkpt><trkpt lat="45.854919647749014" lon="12.189285315117882"><ele>114.0</ele><time>2026-04-25T18:10:35.998Z</time></trkpt><trkpt lat="45.85485507165022" lon="12.18933166911074"><ele>114.0</ele><time>2026-04-25T18:10:36.998Z</time></trkpt><trkpt lat="45.85478971312378" lon="12.189377333730414"><ele>113.71428571428571</ele><time>2026-04-25T18:10:37.998Z</time></trkpt><trkpt lat="45.854724194589366" lon="12.18942266716049"><ele>113.42857142857142</ele><time>2026-04-25T18:10:38.998Z</time></trkpt><trkpt lat="45.8546585866794" lon="12.189466281647997"><ele>113.14285714285714</ele><time>2026-04-25T18:10:39.998Z</time></trkpt><trkpt lat="45.854591985575034" lon="12.189513640377223"><ele>112.85714285714286</ele><time>2026-04-25T18:10:40.998Z</time></trkpt><trkpt lat="45.85452557469732" lon="12.189563073451739"><ele>112.57142857142857</ele><time>2026-04-25T18:10:41.998Z</time></trkpt><trkpt lat="45.85446070453743" lon="12.189609058183963"><ele>112.28571428571428</ele><time>2026-04-25T18:10:42.998Z</time></trkpt><trkpt lat="45.85439650501878" lon="12.189657564928286"><ele>112.0</ele><time>2026-04-25T18:10:43.998Z</time></trkpt><trkpt lat="45.85433287776615" lon="12.189703501980922"><ele>111.85714285714286</ele><time>2026-04-25T18:10:44.998Z</time></trkpt><trkpt lat="45.854268630127" lon="12.189749260914558"><ele>111.71428571428572</ele><time>2026-04-25T18:10:45.998Z</time></trkpt><trkpt lat="45.85420344013981" lon="12.18979560723814"><ele>111.57142857142857</ele><time>2026-04-25T18:10:46.998Z</time></trkpt><trkpt lat="45.854138024684225" lon="12.189843867198183"><ele>111.42857142857143</ele><time>2026-04-25T18:10:47.998Z</time></trkpt><trkpt lat="45.85407339403468" lon="12.189891006528471"><ele>111.28571428571429</ele><time>2026-04-25T18:10:48.998Z</time></trkpt><trkpt lat="45.85400803392877" lon="12.189939246946821"><ele>111.14285714285714</ele><time>2026-04-25T18:10:49.998Z</time></trkpt><trkpt lat="45.853942581515916" lon="12.189985401556651"><ele>111.0</ele><time>2026-04-25T18:10:50.998Z</time></trkpt><trkpt lat="45.853876342219" lon="12.190030797704507"><ele>111.0</ele><time>2026-04-25T18:10:51.998Z</time></trkpt><trkpt lat="45.85380898527545" lon="12.190076768302163"><ele>111.0</ele><time>2026-04-25T18:10:52.998Z</time></trkpt><trkpt lat="45.85374242364191" lon="12.190125198531673"><ele>111.0</ele><time>2026-04-25T18:10:53.998Z</time></trkpt><trkpt lat="45.853675445768324" lon="12.19017282639999"><ele>111.0</ele><time>2026-04-25T18:10:54.998Z</time></trkpt><trkpt lat="45.85360931980706" lon="12.190223336162672"><ele>111.0</ele><time>2026-04-25T18:10:55.998Z</time></trkpt><trkpt lat="45.85354176246173" lon="12.190270330137697"><ele>111.0</ele><time>2026-04-25T18:10:56.998Z</time></trkpt><trkpt lat="45.8534748083479" lon="12.190318572105372"><ele>111.0</ele><time>2026-04-25T18:10:57.998Z</time></trkpt><trkpt lat="45.85340867881984" lon="12.19036728615032"><ele>111.14285714285714</ele><time>2026-04-25T18:10:58.998Z</time></trkpt><trkpt lat="45.853343500785186" lon="12.190412877710145"><ele>111.28571428571429</ele><time>2026-04-25T18:10:59.998Z</time></trkpt><trkpt lat="45.85327805831602" lon="12.190459525162366"><ele>111.42857142857143</ele><time>2026-04-25T18:11:00.998Z</time></trkpt><trkpt lat="45.85321432661895" lon="12.19050348871665"><ele>111.57142857142857</ele><time>2026-04-25T18:11:01.998Z</time></trkpt><trkpt lat="45.85314827764577" lon="12.190550006508762"><ele>111.71428571428572</ele><time>2026-04-25T18:11:02.998Z</time></trkpt><trkpt lat="45.85308164605741" lon="12.190598612820953"><ele>111.85714285714286</ele><time>2026-04-25T18:11:03.998Z</time></trkpt><trkpt lat="45.85301666262009" lon="12.190645552542344"><ele>112.0</ele><time>2026-04-25T18:11:04.998Z</time></trkpt><trkpt lat="45.85295063468415" lon="12.190693875797624"><ele>112.0</ele><time>2026-04-25T18:11:05.998Z</time></trkpt><trkpt lat="45.85288636774179" lon="12.190738976451595"><ele>112.0</ele><time>2026-04-25T18:11:06.998Z</time></trkpt><trkpt lat="45.852819546533404" lon="12.19078415520617"><ele>112.0</ele><time>2026-04-25T18:11:07.998Z</time></trkpt><trkpt lat="45.85275383211378" lon="12.19083135984641"><ele>112.0</ele><time>2026-04-25T18:11:08.998Z</time></trkpt><trkpt lat="45.852687098026095" lon="12.190879034903691"><ele>112.0</ele><time>2026-04-25T18:11:09.998Z</time></trkpt><trkpt lat="45.8526197745494" lon="12.190926785238537"><ele>112.0</ele><time>2026-04-25T18:11:10.998Z</time></trkpt><trkpt lat="45.85255170447805" lon="12.190973996435641"><ele>112.0</ele><time>2026-04-25T18:11:11.998Z</time></trkpt><trkpt lat="45.852484399229105" lon="12.191023219652038"><ele>111.50000000000001</ele><time>2026-04-25T18:11:12.998Z</time></trkpt><trkpt lat="45.852416537269036" lon="12.191069096731736"><ele>111.0</ele><time>2026-04-25T18:11:13.998Z</time></trkpt><trkpt lat="45.85234884156293" lon="12.191116003890885"><ele>110.5</ele><time>2026-04-25T18:11:14.998Z</time></trkpt><trkpt lat="45.852280081336794" lon="12.191163835261934"><ele>110.0</ele><time>2026-04-25T18:11:15.998Z</time></trkpt><trkpt lat="45.85221222965552" lon="12.1912114834697"><ele>109.50000000000001</ele><time>2026-04-25T18:11:16.998Z</time></trkpt><trkpt lat="45.85214618596078" lon="12.191258267721897"><ele>109.0</ele><time>2026-04-25T18:11:17.998Z</time></trkpt><trkpt lat="45.85207941038334" lon="12.191307660045794"><ele>109.00000000000001</ele><time>2026-04-25T18:11:18.997Z</time></trkpt><trkpt lat="45.85201290283476" lon="12.191356407999809"><ele>109.0</ele><time>2026-04-25T18:11:20Z</time></trkpt><trkpt lat="45.85194526545902" lon="12.191403870915753"><ele>109.0</ele><time>2026-04-25T18:11:21Z</time></trkpt><trkpt lat="45.85187726116506" lon="12.191449108840072"><ele>109.0</ele><time>2026-04-25T18:11:22Z</time></trkpt><trkpt lat="45.8518093979044" lon="12.191499039355277"><ele>109.00000000000001</ele><time>2026-04-25T18:11:23Z</time></trkpt><trkpt lat="45.851739308904236" lon="12.191548030301284"><ele>109.0</ele><time>2026-04-25T18:11:24Z</time></trkpt><trkpt lat="45.85167402526412" lon="12.191598448936935"><ele>109.42857142857143</ele><time>2026-04-25T18:11:25Z</time></trkpt><trkpt lat="45.851610382390284" lon="12.191644478271337"><ele>109.85714285714286</ele><time>2026-04-25T18:11:26Z</time></trkpt><trkpt lat="45.85154412084663" lon="12.191699315933416"><ele>110.28571428571428</ele><time>2026-04-25T18:11:27Z</time></trkpt><trkpt lat="45.85147978734386" lon="12.191753594547949"><ele>110.71428571428572</ele><time>2026-04-25T18:11:28Z</time></trkpt><trkpt lat="45.85141696120861" lon="12.191813038378957"><ele>111.14285714285714</ele><time>2026-04-25T18:11:29Z</time></trkpt><trkpt lat="45.85135203930398" lon="12.191869420429938"><ele>111.57142857142857</ele><time>2026-04-25T18:11:30Z</time></trkpt><trkpt lat="45.85129197729352" lon="12.19193197281573"><ele>112.0</ele><time>2026-04-25T18:11:31Z</time></trkpt><trkpt lat="45.85123359907719" lon="12.192002859165044"><ele>112.00000000000001</ele><time>2026-04-25T18:11:32Z</time></trkpt><trkpt lat="45.85117918060697" lon="12.192079870527293"><ele>112.0</ele><time>2026-04-25T18:11:33Z</time></trkpt><trkpt lat="45.85112490826141" lon="12.192160914375917"><ele>112.0</ele><time>2026-04-25T18:11:34Z</time></trkpt><trkpt lat="45.85107456425041" lon="12.192245869437357"><ele>112.0</ele><time>2026-04-25T18:11:35Z</time></trkpt><trkpt lat="45.85102525848842" lon="12.192337068897382"><ele>112.00000000000001</ele><time>2026-04-25T18:11:36Z</time></trkpt><trkpt lat="45.85097608147149" lon="12.192432344961992"><ele>112.0</ele><time>2026-04-25T18:11:37Z</time></trkpt><trkpt lat="45.850927193293096" lon="12.192523191335011"><ele>111.00000000000001</ele><time>2026-04-25T18:11:38Z</time></trkpt><trkpt lat="45.850883250347366" lon="12.19262158891011"><ele>110.0</ele><time>2026-04-25T18:11:39Z</time></trkpt><trkpt lat="45.85083840391713" lon="12.19271878886026"><ele>109.0</ele><time>2026-04-25T18:11:40Z</time></trkpt><trkpt lat="45.85079274330337" lon="12.192815210518482"><ele>108.0</ele><time>2026-04-25T18:11:41Z</time></trkpt><trkpt lat="45.85074619359784" lon="12.192912464067836"><ele>107.00000000000001</ele><time>2026-04-25T18:11:42Z</time></trkpt><trkpt lat="45.85070182612883" lon="12.19301296592049"><ele>106.0</ele><time>2026-04-25T18:11:43Z</time></trkpt><trkpt lat="45.85065888012522" lon="12.193115770879439"><ele>106.66666666666667</ele><time>2026-04-25T18:11:44Z</time></trkpt><trkpt lat="45.85061161618862" lon="12.193213203750043"><ele>107.33333333333334</ele><time>2026-04-25T18:11:45Z</time></trkpt><trkpt lat="45.85056514751344" lon="12.193314259306106"><ele>108.0</ele><time>2026-04-25T18:11:46Z</time></trkpt><trkpt lat="45.85051835891361" lon="12.193416822400454"><ele>108.66666666666666</ele><time>2026-04-25T18:11:47Z</time></trkpt><trkpt lat="45.85047045169466" lon="12.193517882739725"><ele>109.33333333333333</ele><time>2026-04-25T18:11:48Z</time></trkpt><trkpt lat="45.85042325303398" lon="12.193618102067434"><ele>110.0</ele><time>2026-04-25T18:11:49Z</time></trkpt><trkpt lat="45.85037095228585" lon="12.193721632051084"><ele>109.99999999999999</ele><time>2026-04-25T18:11:50Z</time></trkpt><trkpt lat="45.85032292343842" lon="12.193827453065776"><ele>110.0</ele><time>2026-04-25T18:11:51Z</time></trkpt><trkpt lat="45.85026723462281" lon="12.193921854750984"><ele>110.0</ele><time>2026-04-25T18:11:52Z</time></trkpt><trkpt lat="45.85020530540333" lon="12.194007118225194"><ele>110.0</ele><time>2026-04-25T18:11:53Z</time></trkpt><trkpt lat="45.85013765459166" lon="12.19408890349163"><ele>109.99999999999999</ele><time>2026-04-25T18:11:54Z</time></trkpt><trkpt lat="45.850070364602985" lon="12.194169225241763"><ele>110.0</ele><time>2026-04-25T18:11:55Z</time></trkpt><trkpt lat="45.850003314728575" lon="12.194242376740654"><ele>108.16666666666666</ele><time>2026-04-25T18:11:56Z</time></trkpt><trkpt lat="45.84993026490259" lon="12.194302140203453"><ele>106.33333333333333</ele><time>2026-04-25T18:11:57Z</time></trkpt><trkpt lat="45.849852919198185" lon="12.19435305614009"><ele>104.5</ele><time>2026-04-25T18:11:58Z</time></trkpt><trkpt lat="45.84978095948952" lon="12.194400225010797"><ele>102.66666666666666</ele><time>2026-04-25T18:11:59Z</time></trkpt><trkpt lat="45.84970811003911" lon="12.194445164775768"><ele>100.83333333333333</ele><time>2026-04-25T18:12:00Z</time></trkpt><trkpt lat="45.84963538997882" lon="12.19448676836344"><ele>99.0</ele><time>2026-04-25T18:12:01Z</time></trkpt><trkpt lat="45.84956411370061" lon="12.194530165338245"><ele>99.0</ele><time>2026-04-25T18:12:02Z</time></trkpt><trkpt lat="45.84949349604963" lon="12.194570841957944"><ele>99.0</ele><time>2026-04-25T18:12:03Z</time></trkpt><trkpt lat="45.849421273291476" lon="12.19461142401931"><ele>99.0</ele><time>2026-04-25T18:12:04Z</time></trkpt><trkpt lat="45.84935118827254" lon="12.19464923970489"><ele>99.0</ele><time>2026-04-25T18:12:05Z</time></trkpt><trkpt lat="45.84928268148637" lon="12.194689235906775"><ele>99.0</ele><time>2026-04-25T18:12:06Z</time></trkpt><trkpt lat="45.84921482783779" lon="12.194726320750641"><ele>99.0</ele><time>2026-04-25T18:12:07Z</time></trkpt><trkpt lat="45.849147149170946" lon="12.194761950082874"><ele>99.0</ele><time>2026-04-25T18:12:07.999Z</time></trkpt><trkpt lat="45.849081588757606" lon="12.194801214324684"><ele>98.57142857142857</ele><time>2026-04-25T18:12:08.999Z</time></trkpt><trkpt lat="45.84901754004978" lon="12.194836845964238"><ele>98.14285714285714</ele><time>2026-04-25T18:12:09.999Z</time></trkpt><trkpt lat="45.848953579901334" lon="12.194874806180502"><ele>97.71428571428571</ele><time>2026-04-25T18:12:10.999Z</time></trkpt><trkpt lat="45.84888986226861" lon="12.194909314268273"><ele>97.28571428571428</ele><time>2026-04-25T18:12:11.999Z</time></trkpt><trkpt lat="45.84882818653737" lon="12.194945052605807"><ele>96.85714285714286</ele><time>2026-04-25T18:12:12.999Z</time></trkpt><trkpt lat="45.84876805378336" lon="12.194982165326739"><ele>96.42857142857142</ele><time>2026-04-25T18:12:13.999Z</time></trkpt><trkpt lat="45.84870957428245" lon="12.195021635567144"><ele>96.0</ele><time>2026-04-25T18:12:14.999Z</time></trkpt><trkpt lat="45.84865144672528" lon="12.19506063735061"><ele>96.57142857142857</ele><time>2026-04-25T18:12:15.999Z</time></trkpt><trkpt lat="45.84859405220699" lon="12.195102858881164"><ele>97.14285714285714</ele><time>2026-04-25T18:12:16.999Z</time></trkpt><trkpt lat="45.848538139480446" lon="12.195149020505673"><ele>97.71428571428572</ele><time>2026-04-25T18:12:17.999Z</time></trkpt><trkpt lat="45.84843219967932" lon="12.19525003794108"><ele>98.28571428571428</ele><time>2026-04-25T18:12:19.999Z</time></trkpt><trkpt lat="45.84838212078268" lon="12.195305929553706"><ele>98.85714285714286</ele><time>2026-04-25T18:12:20.999Z</time></trkpt><trkpt lat="45.84833112641226" lon="12.19536628331553"><ele>99.42857142857143</ele><time>2026-04-25T18:12:21.999Z</time></trkpt><trkpt lat="45.84828231068863" lon="12.195424776837157"><ele>100.0</ele><time>2026-04-25T18:12:22.999Z</time></trkpt><trkpt lat="45.84823686847451" lon="12.195487830709121"><ele>100.00000000000001</ele><time>2026-04-25T18:12:23.999Z</time></trkpt><trkpt lat="45.84815539339959" lon="12.19562693910685"><ele>100.0</ele><time>2026-04-25T18:12:25.999Z</time></trkpt><trkpt lat="45.848117575874504" lon="12.195701123218429"><ele>100.0</ele><time>2026-04-25T18:12:26.999Z</time></trkpt><trkpt lat="45.84808135914382" lon="12.195778229303677"><ele>100.0</ele><time>2026-04-25T18:12:27.999Z</time></trkpt><trkpt lat="45.84804804433336" lon="12.195859598692833"><ele>100.00000000000001</ele><time>2026-04-25T18:12:28.999Z</time></trkpt><trkpt lat="45.8480184858536" lon="12.195941633806044"><ele>100.0</ele><time>2026-04-25T18:12:29.999Z</time></trkpt><trkpt lat="45.847992208684076" lon="12.196029543994307"><ele>100.42857142857143</ele><time>2026-04-25T18:12:30.999Z</time></trkpt><trkpt lat="45.84796310833878" lon="12.196114011066774"><ele>100.85714285714286</ele><time>2026-04-25T18:12:31.999Z</time></trkpt><trkpt lat="45.8479393651149" lon="12.196200662840072"><ele>101.28571428571428</ele><time>2026-04-25T18:12:32.999Z</time></trkpt><trkpt lat="45.84792033055937" lon="12.196292228019866"><ele>101.71428571428572</ele><time>2026-04-25T18:12:33.999Z</time></trkpt><trkpt lat="45.847900319408424" lon="12.196383117072815"><ele>102.14285714285714</ele><time>2026-04-25T18:12:34.999Z</time></trkpt><trkpt lat="45.847880993112796" lon="12.196476131087827"><ele>102.57142857142857</ele><time>2026-04-25T18:12:35.999Z</time></trkpt><trkpt lat="45.8478606616504" lon="12.196572208707508"><ele>103.0</ele><time>2026-04-25T18:12:36.999Z</time></trkpt><trkpt lat="45.84784179933642" lon="12.196663647910965"><ele>103.42857142857142</ele><time>2026-04-25T18:12:37.999Z</time></trkpt><trkpt lat="45.84782381011828" lon="12.196758227592232"><ele>103.85714285714286</ele><time>2026-04-25T18:12:38.999Z</time></trkpt><trkpt lat="45.847802590155126" lon="12.19685150602982"><ele>104.28571428571428</ele><time>2026-04-25T18:12:39.999Z</time></trkpt><trkpt lat="45.84778637135017" lon="12.19694390780567"><ele>104.71428571428571</ele><time>2026-04-25T18:12:40.999Z</time></trkpt><trkpt lat="45.84776976855083" lon="12.197037915581024"><ele>105.14285714285714</ele><time>2026-04-25T18:12:41.999Z</time></trkpt><trkpt lat="45.84774920524427" lon="12.197130055652542"><ele>105.57142857142857</ele><time>2026-04-25T18:12:42.999Z</time></trkpt><trkpt lat="45.84773303384815" lon="12.197226294559924"><ele>106.0</ele><time>2026-04-25T18:12:43.999Z</time></trkpt><trkpt lat="45.847715314999604" lon="12.197319945158986"><ele>105.71428571428572</ele><time>2026-04-25T18:12:44.999Z</time></trkpt><trkpt lat="45.84769684942284" lon="12.19741138193824"><ele>105.42857142857142</ele><time>2026-04-25T18:12:45.999Z</time></trkpt><trkpt lat="45.84767857900959" lon="12.197507014449773"><ele>105.14285714285714</ele><time>2026-04-25T18:12:46.999Z</time></trkpt><trkpt lat="45.84766204875445" lon="12.19760166113082"><ele>104.85714285714286</ele><time>2026-04-25T18:12:47.999Z</time></trkpt><trkpt lat="45.84764644810336" lon="12.197693295920432"><ele>104.57142857142858</ele><time>2026-04-25T18:12:48.999Z</time></trkpt><trkpt lat="45.84762867280599" lon="12.197787938780014"><ele>104.28571428571428</ele><time>2026-04-25T18:12:49.999Z</time></trkpt><trkpt lat="45.847609171509795" lon="12.197881602658832"><ele>104.0</ele><time>2026-04-25T18:12:50.998Z</time></trkpt><trkpt lat="45.8475918961719" lon="12.197975254809977"><ele>104.0</ele><time>2026-04-25T18:12:51.998Z</time></trkpt><trkpt lat="45.84757495145749" lon="12.198066102548053"><ele>104.0</ele><time>2026-04-25T18:12:52.998Z</time></trkpt><trkpt lat="45.84755747977819" lon="12.198163459691763"><ele>104.0</ele><time>2026-04-25T18:12:53.998Z</time></trkpt><trkpt lat="45.8475438532205" lon="12.198256077919421"><ele>104.0</ele><time>2026-04-25T18:12:54.998Z</time></trkpt><trkpt lat="45.84752550235614" lon="12.198348031572788"><ele>104.0</ele><time>2026-04-25T18:12:55.998Z</time></trkpt><trkpt lat="45.847506659963734" lon="12.198439586874713"><ele>104.0</ele><time>2026-04-25T18:12:56.998Z</time></trkpt><trkpt lat="45.847491028356124" lon="12.198532849869522"><ele>104.0</ele><time>2026-04-25T18:12:57.998Z</time></trkpt><trkpt lat="45.84747441968616" lon="12.19862308292974"><ele>104.57142857142857</ele><time>2026-04-25T18:12:58.998Z</time></trkpt><trkpt lat="45.8474566919257" lon="12.198713687344275"><ele>105.14285714285715</ele><time>2026-04-25T18:12:59.998Z</time></trkpt><trkpt lat="45.84743493127319" lon="12.198808305923933"><ele>105.71428571428572</ele><time>2026-04-25T18:13:00.998Z</time></trkpt><trkpt lat="45.84741302982032" lon="12.198902353392532"><ele>106.28571428571428</ele><time>2026-04-25T18:13:01.998Z</time></trkpt><trkpt lat="45.84738979705302" lon="12.198997952608137"><ele>106.85714285714286</ele><time>2026-04-25T18:13:02.998Z</time></trkpt><trkpt lat="45.84735877051885" lon="12.199091355231303"><ele>107.42857142857143</ele><time>2026-04-25T18:13:03.998Z</time></trkpt><trkpt lat="45.847326848807484" lon="12.199184100258954"><ele>108.0</ele><time>2026-04-25T18:13:04.998Z</time></trkpt><trkpt lat="45.84729000238119" lon="12.199271690916417"><ele>108.0</ele><time>2026-04-25T18:13:05.998Z</time></trkpt><trkpt lat="45.84724929776242" lon="12.199359912398732"><ele>108.0</ele><time>2026-04-25T18:13:06.998Z</time></trkpt><trkpt lat="45.84720221793249" lon="12.1994427106453"><ele>108.0</ele><time>2026-04-25T18:13:07.998Z</time></trkpt><trkpt lat="45.8471503405032" lon="12.199523211477551"><ele>108.0</ele><time>2026-04-25T18:13:08.998Z</time></trkpt><trkpt lat="45.847093048063876" lon="12.199601842511472"><ele>108.0</ele><time>2026-04-25T18:13:09.998Z</time></trkpt><trkpt lat="45.84703414812283" lon="12.19967493174446"><ele>108.0</ele><time>2026-04-25T18:13:10.998Z</time></trkpt><trkpt lat="45.846971949071374" lon="12.199746130306456"><ele>108.0</ele><time>2026-04-25T18:13:11.998Z</time></trkpt><trkpt lat="45.84691129632332" lon="12.199812582865594"><ele>108.0</ele><time>2026-04-25T18:13:12.998Z</time></trkpt><trkpt lat="45.84685033604638" lon="12.199880510173584"><ele>108.0</ele><time>2026-04-25T18:13:13.998Z</time></trkpt><trkpt lat="45.84678730131643" lon="12.199949731128559"><ele>108.0</ele><time>2026-04-25T18:13:14.998Z</time></trkpt><trkpt lat="45.84672340546147" lon="12.200022910887188"><ele>108.0</ele><time>2026-04-25T18:13:15.998Z</time></trkpt><trkpt lat="45.846661383518644" lon="12.200094239067889"><ele>108.0</ele><time>2026-04-25T18:13:16.998Z</time></trkpt><trkpt lat="45.8466002667698" lon="12.200165747034621"><ele>107.5</ele><time>2026-04-25T18:13:17.998Z</time></trkpt><trkpt lat="45.84653607505895" lon="12.200238988245076"><ele>107.0</ele><time>2026-04-25T18:13:18.998Z</time></trkpt><trkpt lat="45.8464728756702" lon="12.20030981532121"><ele>106.5</ele><time>2026-04-25T18:13:19.998Z</time></trkpt><trkpt lat="45.84640896599016" lon="12.200384472014017"><ele>106.0</ele><time>2026-04-25T18:13:20.998Z</time></trkpt><trkpt lat="45.846342756528514" lon="12.20045671093156"><ele>105.5</ele><time>2026-04-25T18:13:21.998Z</time></trkpt><trkpt lat="45.846276904373745" lon="12.200530458877433"><ele>105.0</ele><time>2026-04-25T18:13:22.998Z</time></trkpt><trkpt lat="45.846209619144766" lon="12.200606161600644"><ele>104.83333333333333</ele><time>2026-04-25T18:13:23.998Z</time></trkpt><trkpt lat="45.84614337124522" lon="12.200679155121122"><ele>104.66666666666666</ele><time>2026-04-25T18:13:24.998Z</time></trkpt><trkpt lat="45.84607386609435" lon="12.20075593628909"><ele>104.5</ele><time>2026-04-25T18:13:26.001Z</time></trkpt><trkpt lat="45.84600716478017" lon="12.200836101383091"><ele>104.33333333333333</ele><time>2026-04-25T18:13:27.001Z</time></trkpt><trkpt lat="45.84593756934442" lon="12.200912170649653"><ele>104.16666666666666</ele><time>2026-04-25T18:13:28.001Z</time></trkpt><trkpt lat="45.84586868898647" lon="12.200988845432457"><ele>104.0</ele><time>2026-04-25T18:13:29.001Z</time></trkpt><trkpt lat="45.84580072900747" lon="12.201066279378688"><ele>103.83333333333333</ele><time>2026-04-25T18:13:30.001Z</time></trkpt><trkpt lat="45.84573293975126" lon="12.201144326411777"><ele>103.66666666666666</ele><time>2026-04-25T18:13:31.001Z</time></trkpt><trkpt lat="45.84566470984809" lon="12.201221517666964"><ele>103.5</ele><time>2026-04-25T18:13:32Z</time></trkpt><trkpt lat="45.84559623551538" lon="12.201298788931664"><ele>103.33333333333334</ele><time>2026-04-25T18:13:33Z</time></trkpt><trkpt lat="45.845528094225905" lon="12.201375386965752"><ele>103.16666666666667</ele><time>2026-04-25T18:13:34Z</time></trkpt><trkpt lat="45.84546116551903" lon="12.201450344702142"><ele>103.0</ele><time>2026-04-25T18:13:35Z</time></trkpt><trkpt lat="45.84539288941859" lon="12.201528924658263"><ele>103.00000000000001</ele><time>2026-04-25T18:13:36Z</time></trkpt><trkpt lat="45.8453281179365" lon="12.201606975323344"><ele>103.0</ele><time>2026-04-25T18:13:37Z</time></trkpt><trkpt lat="45.84526267721902" lon="12.201683052909255"><ele>103.0</ele><time>2026-04-25T18:13:38Z</time></trkpt><trkpt lat="45.845195018652646" lon="12.201756895373295"><ele>103.0</ele><time>2026-04-25T18:13:39Z</time></trkpt><trkpt lat="45.84512914876212" lon="12.201831283941383"><ele>103.00000000000001</ele><time>2026-04-25T18:13:40Z</time></trkpt><trkpt lat="45.84506351932668" lon="12.20190875519463"><ele>103.0</ele><time>2026-04-25T18:13:41Z</time></trkpt><trkpt lat="45.84499887351661" lon="12.201980389059992"><ele>102.83333333333334</ele><time>2026-04-25T18:13:42Z</time></trkpt><trkpt lat="45.84493258160785" lon="12.20205837895675"><ele>102.66666666666667</ele><time>2026-04-25T18:13:43Z</time></trkpt><trkpt lat="45.844868579436145" lon="12.2021310243419"><ele>102.5</ele><time>2026-04-25T18:13:44Z</time></trkpt><trkpt lat="45.844803387614746" lon="12.202204093573158"><ele>102.33333333333334</ele><time>2026-04-25T18:13:45Z</time></trkpt><trkpt lat="45.84473764285817" lon="12.202277833659979"><ele>102.16666666666667</ele><time>2026-04-25T18:13:46Z</time></trkpt><trkpt lat="45.844673244852025" lon="12.202350578506085"><ele>102.0</ele><time>2026-04-25T18:13:46.999Z</time></trkpt><trkpt lat="45.844609737933204" lon="12.202422291513434"><ele>102.16666666666667</ele><time>2026-04-25T18:13:47.999Z</time></trkpt><trkpt lat="45.844545978140445" lon="12.202495786871783"><ele>102.33333333333334</ele><time>2026-04-25T18:13:48.999Z</time></trkpt><trkpt lat="45.844480436528336" lon="12.20256670186334"><ele>102.5</ele><time>2026-04-25T18:13:49.999Z</time></trkpt><trkpt lat="45.84441620779961" lon="12.202638112136528"><ele>102.66666666666667</ele><time>2026-04-25T18:13:50.999Z</time></trkpt><trkpt lat="45.84434707614604" lon="12.202708540772475"><ele>102.83333333333334</ele><time>2026-04-25T18:13:51.999Z</time></trkpt><trkpt lat="45.84428116927277" lon="12.20278283602775"><ele>103.0</ele><time>2026-04-25T18:13:52.999Z</time></trkpt><trkpt lat="45.844218658123744" lon="12.20286061960964"><ele>103.00000000000001</ele><time>2026-04-25T18:13:53.999Z</time></trkpt><trkpt lat="45.84415600091822" lon="12.202936375919851"><ele>103.0</ele><time>2026-04-25T18:13:54.999Z</time></trkpt><trkpt lat="45.844090216234136" lon="12.203005873486823"><ele>103.0</ele><time>2026-04-25T18:13:55.999Z</time></trkpt><trkpt lat="45.844025052707856" lon="12.203077732746227"><ele>103.0</ele><time>2026-04-25T18:13:56.999Z</time></trkpt><trkpt lat="45.84396328344454" lon="12.20315269544803"><ele>103.00000000000001</ele><time>2026-04-25T18:13:57.999Z</time></trkpt><trkpt lat="45.84389802867946" lon="12.203225386741272"><ele>103.0</ele><time>2026-04-25T18:13:58.999Z</time></trkpt><trkpt lat="45.84383289796945" lon="12.203299936407205"><ele>102.83333333333334</ele><time>2026-04-25T18:13:59.999Z</time></trkpt><trkpt lat="45.84376938824699" lon="12.203372392228912"><ele>102.66666666666667</ele><time>2026-04-25T18:14:00.999Z</time></trkpt><trkpt lat="45.843705207191235" lon="12.203447647906955"><ele>102.5</ele><time>2026-04-25T18:14:01.999Z</time></trkpt><trkpt lat="45.84363973779473" lon="12.20352145117829"><ele>102.33333333333334</ele><time>2026-04-25T18:14:02.999Z</time></trkpt><trkpt lat="45.843573376791916" lon="12.203593541401412"><ele>102.16666666666667</ele><time>2026-04-25T18:14:03.999Z</time></trkpt><trkpt lat="45.843507924006474" lon="12.203664555162895"><ele>102.0</ele><time>2026-04-25T18:14:04.999Z</time></trkpt><trkpt lat="45.84344484733753" lon="12.203737988697958"><ele>102.33333333333333</ele><time>2026-04-25T18:14:05.999Z</time></trkpt><trkpt lat="45.843380828844225" lon="12.203813900650058"><ele>102.66666666666666</ele><time>2026-04-25T18:14:06.999Z</time></trkpt><trkpt lat="45.84331616985997" lon="12.203888042877427"><ele>103.0</ele><time>2026-04-25T18:14:07.999Z</time></trkpt><trkpt lat="45.843250847847074" lon="12.203961072919068"><ele>103.33333333333333</ele><time>2026-04-25T18:14:08.999Z</time></trkpt><trkpt lat="45.84318282344758" lon="12.204031799568945"><ele>103.66666666666666</ele><time>2026-04-25T18:14:09.999Z</time></trkpt><trkpt lat="45.84311328065056" lon="12.204102362072629"><ele>104.0</ele><time>2026-04-25T18:14:10.999Z</time></trkpt><trkpt lat="45.843042333156426" lon="12.204171217466447"><ele>103.99999999999999</ele><time>2026-04-25T18:14:11.999Z</time></trkpt><trkpt lat="45.84297196466953" lon="12.204238642982057"><ele>104.0</ele><time>2026-04-25T18:14:12.999Z</time></trkpt><trkpt lat="45.84289991792883" lon="12.204302345519894"><ele>104.0</ele><time>2026-04-25T18:14:13.999Z</time></trkpt><trkpt lat="45.84282525738359" lon="12.204366864211565"><ele>104.0</ele><time>2026-04-25T18:14:14.999Z</time></trkpt><trkpt lat="45.84274612408684" lon="12.204416687569536"><ele>103.99999999999999</ele><time>2026-04-25T18:14:15.999Z</time></trkpt><trkpt lat="45.842665373964564" lon="12.20446809493276"><ele>104.0</ele><time>2026-04-25T18:14:16.999Z</time></trkpt><trkpt lat="45.842582059609974" lon="12.204521425431608"><ele>103.80000000000001</ele><time>2026-04-25T18:14:17.999Z</time></trkpt><trkpt lat="45.842499270492624" lon="12.204569570955481"><ele>103.60000000000001</ele><time>2026-04-25T18:14:18.999Z</time></trkpt><trkpt lat="45.842413655660124" lon="12.204618161996057"><ele>103.4</ele><time>2026-04-25T18:14:19.999Z</time></trkpt><trkpt lat="45.84232862140926" lon="12.204671254054098"><ele>103.2</ele><time>2026-04-25T18:14:20.999Z</time></trkpt><trkpt lat="45.84224402679932" lon="12.20471941083008"><ele>103.0</ele><time>2026-04-25T18:14:21.999Z</time></trkpt><trkpt lat="45.842158271889296" lon="12.204767035425835"><ele>103.0</ele><time>2026-04-25T18:14:22.999Z</time></trkpt><trkpt lat="45.842074646368886" lon="12.204820774846635"><ele>103.0</ele><time>2026-04-25T18:14:23.999Z</time></trkpt><trkpt lat="45.84198889361009" lon="12.20487370856277"><ele>103.0</ele><time>2026-04-25T18:14:24.999Z</time></trkpt><trkpt lat="45.841902684927256" lon="12.204924593498708"><ele>103.0</ele><time>2026-04-25T18:14:25.999Z</time></trkpt><trkpt lat="45.84181710723207" lon="12.204972195232203"><ele>103.0</ele><time>2026-04-25T18:14:26.998Z</time></trkpt><trkpt lat="45.841728526204676" lon="12.20502344894547"><ele>102.0</ele><time>2026-04-25T18:14:27.998Z</time></trkpt><trkpt lat="45.84164211353793" lon="12.205077385243364"><ele>101.0</ele><time>2026-04-25T18:14:28.998Z</time></trkpt><trkpt lat="45.841554618324416" lon="12.205131100868977"><ele>100.0</ele><time>2026-04-25T18:14:29.998Z</time></trkpt><trkpt lat="45.8414655553337" lon="12.205179781923645"><ele>99.0</ele><time>2026-04-25T18:14:30.998Z</time></trkpt><trkpt lat="45.84137494939955" lon="12.205228443995756"><ele>98.0</ele><time>2026-04-25T18:14:31.998Z</time></trkpt><trkpt lat="45.841285037775506" lon="12.20527594208033"><ele>98.0</ele><time>2026-04-25T18:14:32.998Z</time></trkpt><trkpt lat="45.841193031581234" lon="12.205315975002216"><ele>98.0</ele><time>2026-04-25T18:14:33.998Z</time></trkpt><trkpt lat="45.84109530618383" lon="12.205342214088827"><ele>98.0</ele><time>2026-04-25T18:14:34.998Z</time></trkpt><trkpt lat="45.84099603880922" lon="12.205353559345127"><ele>98.0</ele><time>2026-04-25T18:14:35.998Z</time></trkpt><trkpt lat="45.84089666249267" lon="12.205351965152643"><ele>98.0</ele><time>2026-04-25T18:14:36.998Z</time></trkpt><trkpt lat="45.84079799783897" lon="12.20533986788174"><ele>98.0</ele><time>2026-04-25T18:14:37.998Z</time></trkpt><trkpt lat="45.84070287105593" lon="12.205304967517032"><ele>98.0</ele><time>2026-04-25T18:14:38.998Z</time></trkpt><trkpt lat="45.840607119662124" lon="12.205266725083526"><ele>98.0</ele><time>2026-04-25T18:14:39.998Z</time></trkpt><trkpt lat="45.840509894126775" lon="12.205234062203404"><ele>98.0</ele><time>2026-04-25T18:14:40.998Z</time></trkpt><trkpt lat="45.84041181114765" lon="12.205209469574589"><ele>98.0</ele><time>2026-04-25T18:14:41.998Z</time></trkpt><trkpt lat="45.84030992477843" lon="12.205191432168593"><ele>98.0</ele><time>2026-04-25T18:14:42.998Z</time></trkpt><trkpt lat="45.840207652998004" lon="12.205185928624392"><ele>98.0</ele><time>2026-04-25T18:14:43.998Z</time></trkpt><trkpt lat="45.84010826535807" lon="12.205194150259134"><ele>98.0</ele><time>2026-04-25T18:14:44.998Z</time></trkpt><trkpt lat="45.84001063865168" lon="12.205217724324136"><ele>98.0</ele><time>2026-04-25T18:14:45.998Z</time></trkpt><trkpt lat="45.8399110252638" lon="12.205267843187745"><ele>98.0</ele><time>2026-04-25T18:14:46.998Z</time></trkpt><trkpt lat="45.839820483319066" lon="12.205327164688045"><ele>98.2</ele><time>2026-04-25T18:14:47.998Z</time></trkpt><trkpt lat="45.83972875263286" lon="12.205385492453884"><ele>98.4</ele><time>2026-04-25T18:14:48.998Z</time></trkpt><trkpt lat="45.83963719669366" lon="12.205442186869604"><ele>98.60000000000001</ele><time>2026-04-25T18:14:49.998Z</time></trkpt><trkpt lat="45.83954452645814" lon="12.205498074546943"><ele>98.80000000000001</ele><time>2026-04-25T18:14:50.998Z</time></trkpt><trkpt lat="45.83945182513042" lon="12.205554856123893"><ele>99.0</ele><time>2026-04-25T18:14:51.998Z</time></trkpt><trkpt lat="45.83935928320975" lon="12.20561043974608"><ele>98.0</ele><time>2026-04-25T18:14:52.998Z</time></trkpt><trkpt lat="45.8392675721766" lon="12.205663197661789"><ele>97.0</ele><time>2026-04-25T18:14:53.998Z</time></trkpt><trkpt lat="45.839174230844506" lon="12.205714972949163"><ele>96.0</ele><time>2026-04-25T18:14:54.998Z</time></trkpt><trkpt lat="45.8390833352368" lon="12.205770849931746"><ele>95.0</ele><time>2026-04-25T18:14:55.998Z</time></trkpt><trkpt lat="45.838993315981035" lon="12.205825407914677"><ele>94.0</ele><time>2026-04-25T18:14:56.998Z</time></trkpt><trkpt lat="45.83890142547673" lon="12.205879667098571"><ele>94.0</ele><time>2026-04-25T18:14:57.998Z</time></trkpt><trkpt lat="45.838810997328544" lon="12.205933214453438"><ele>94.0</ele><time>2026-04-25T18:14:58.998Z</time></trkpt><trkpt lat="45.83871916176537" lon="12.205986280926682"><ele>94.0</ele><time>2026-04-25T18:14:59.998Z</time></trkpt><trkpt lat="45.838625182320634" lon="12.206038648686743"><ele>94.0</ele><time>2026-04-25T18:15:00.998Z</time></trkpt><trkpt lat="45.838532799038504" lon="12.20609059087941"><ele>94.0</ele><time>2026-04-25T18:15:01.998Z</time></trkpt><trkpt lat="45.83843946592165" lon="12.206146667189673"><ele>92.2</ele><time>2026-04-25T18:15:02.998Z</time></trkpt><trkpt lat="45.838349543687485" lon="12.206204128834427"><ele>90.4</ele><time>2026-04-25T18:15:03.998Z</time></trkpt><trkpt lat="45.838258431614676" lon="12.20625908998291"><ele>88.6</ele><time>2026-04-25T18:15:04.998Z</time></trkpt><trkpt lat="45.83816827045486" lon="12.206310286519233"><ele>86.8</ele><time>2026-04-25T18:15:05.998Z</time></trkpt><trkpt lat="45.83807413948912" lon="12.206364167850785"><ele>85.0</ele><time>2026-04-25T18:15:06.998Z</time></trkpt><trkpt lat="45.83798545123898" lon="12.206417912748446"><ele>85.0</ele><time>2026-04-25T18:15:07.998Z</time></trkpt><trkpt lat="45.83789472967936" lon="12.206472905437565"><ele>85.0</ele><time>2026-04-25T18:15:08.998Z</time></trkpt><trkpt lat="45.837805545110974" lon="12.206526958240964"><ele>85.0</ele><time>2026-04-25T18:15:09.998Z</time></trkpt><trkpt lat="45.83771526212578" lon="12.206577949747377"><ele>85.0</ele><time>2026-04-25T18:15:10.997Z</time></trkpt><trkpt lat="45.83762832484" lon="12.206630092906066"><ele>85.0</ele><time>2026-04-25T18:15:11.997Z</time></trkpt><trkpt lat="45.83754190510088" lon="12.206680577842722"><ele>84.6</ele><time>2026-04-25T18:15:12.997Z</time></trkpt><trkpt lat="45.83745385654501" lon="12.206734706132787"><ele>84.2</ele><time>2026-04-25T18:15:13.997Z</time></trkpt><trkpt lat="45.8373675665037" lon="12.2067835489692"><ele>83.80000000000001</ele><time>2026-04-25T18:15:14.997Z</time></trkpt><trkpt lat="45.83728035542577" lon="12.206832345621693"><ele>83.4</ele><time>2026-04-25T18:15:15.997Z</time></trkpt><trkpt lat="45.83719552260238" lon="12.206884045902441"><ele>83.0</ele><time>2026-04-25T18:15:16.997Z</time></trkpt><trkpt lat="45.83710959743037" lon="12.206932811079952"><ele>83.0</ele><time>2026-04-25T18:15:17.997Z</time></trkpt><trkpt lat="45.83702649615899" lon="12.206983970599625"><ele>83.0</ele><time>2026-04-25T18:15:18.997Z</time></trkpt><trkpt lat="45.83694218288499" lon="12.207035266952722"><ele>83.0</ele><time>2026-04-25T18:15:19.997Z</time></trkpt><trkpt lat="45.83686273345962" lon="12.20708946807451"><ele>83.0</ele><time>2026-04-25T18:15:20.997Z</time></trkpt><trkpt lat="45.83678416106226" lon="12.207141778314785"><ele>83.0</ele><time>2026-04-25T18:15:21.997Z</time></trkpt><trkpt lat="45.83670972996986" lon="12.207207371195373"><ele>83.0</ele><time>2026-04-25T18:15:22.997Z</time></trkpt><trkpt lat="45.836638185661414" lon="12.207276631519218"><ele>83.33333333333334</ele><time>2026-04-25T18:15:23.997Z</time></trkpt><trkpt lat="45.83657165366063" lon="12.207355134910802"><ele>83.66666666666667</ele><time>2026-04-25T18:15:24.997Z</time></trkpt><trkpt lat="45.83650955669051" lon="12.20743826742688"><ele>84.0</ele><time>2026-04-25T18:15:25.997Z</time></trkpt><trkpt lat="45.83644769675219" lon="12.20752243678315"><ele>84.33333333333333</ele><time>2026-04-25T18:15:26.997Z</time></trkpt><trkpt lat="45.83639193263634" lon="12.207610743810024"><ele>84.66666666666666</ele><time>2026-04-25T18:15:27.997Z</time></trkpt><trkpt lat="45.83633740224252" lon="12.20770344448815"><ele>85.0</ele><time>2026-04-25T18:15:28.997Z</time></trkpt><trkpt lat="45.83628221091732" lon="12.20779174834593"><ele>85.0</ele><time>2026-04-25T18:15:29.997Z</time></trkpt><trkpt lat="45.83622775476155" lon="12.207880538703439"><ele>85.0</ele><time>2026-04-25T18:15:30.997Z</time></trkpt><trkpt lat="45.8361760212579" lon="12.207970501543073"><ele>85.0</ele><time>2026-04-25T18:15:32Z</time></trkpt><trkpt lat="45.836123185145205" lon="12.208057435627198"><ele>85.0</ele><time>2026-04-25T18:15:33Z</time></trkpt><trkpt lat="45.83606977223653" lon="12.208143650657288"><ele>85.0</ele><time>2026-04-25T18:15:34Z</time></trkpt><trkpt lat="45.836016626405566" lon="12.208229688154436"><ele>85.0</ele><time>2026-04-25T18:15:35Z</time></trkpt><trkpt lat="45.83596707433683" lon="12.208318815609038"><ele>84.33333333333333</ele><time>2026-04-25T18:15:36Z</time></trkpt><trkpt lat="45.835918958121184" lon="12.20840517682045"><ele>83.66666666666666</ele><time>2026-04-25T18:15:37Z</time></trkpt><trkpt lat="45.83587134359953" lon="12.208495191828321"><ele>83.0</ele><time>2026-04-25T18:15:38Z</time></trkpt><trkpt lat="45.83582486255569" lon="12.208586636109295"><ele>82.33333333333333</ele><time>2026-04-25T18:15:39Z</time></trkpt><trkpt lat="45.83578086823744" lon="12.20867910883555"><ele>81.66666666666667</ele><time>2026-04-25T18:15:40Z</time></trkpt><trkpt lat="45.8357403246062" lon="12.208769134684669"><ele>81.0</ele><time>2026-04-25T18:15:41Z</time></trkpt><trkpt lat="45.83570200123652" lon="12.208863258920282"><ele>81.0</ele><time>2026-04-25T18:15:42Z</time></trkpt><trkpt lat="45.835668472189965" lon="12.208962210583122"><ele>81.0</ele><time>2026-04-25T18:15:43Z</time></trkpt><trkpt lat="45.83563281496278" lon="12.209061355463124"><ele>81.0</ele><time>2026-04-25T18:15:44Z</time></trkpt><trkpt lat="45.8356027791224" lon="12.209164215158506"><ele>81.0</ele><time>2026-04-25T18:15:45Z</time></trkpt><trkpt lat="45.835575001223816" lon="12.209266985949958"><ele>81.0</ele><time>2026-04-25T18:15:46Z</time></trkpt><trkpt lat="45.83554731883763" lon="12.209369816871149"><ele>81.0</ele><time>2026-04-25T18:15:47Z</time></trkpt><trkpt lat="45.83552180546042" lon="12.209471538473775"><ele>81.66666666666667</ele><time>2026-04-25T18:15:48Z</time></trkpt><trkpt lat="45.83549413694601" lon="12.209574036737456"><ele>82.33333333333333</ele><time>2026-04-25T18:15:49Z</time></trkpt><trkpt lat="45.83546669509493" lon="12.209674652200773"><ele>83.0</ele><time>2026-04-25T18:15:50Z</time></trkpt><trkpt lat="45.835436338349524" lon="12.209776313637954"><ele>83.66666666666666</ele><time>2026-04-25T18:15:51Z</time></trkpt><trkpt lat="45.83540552361273" lon="12.209875620617938"><ele>84.33333333333333</ele><time>2026-04-25T18:15:52Z</time></trkpt><trkpt lat="45.835372873280214" lon="12.209974615322649"><ele>85.0</ele><time>2026-04-25T18:15:53Z</time></trkpt><trkpt lat="45.835338583233245" lon="12.210071233845078"><ele>85.14285714285715</ele><time>2026-04-25T18:15:54Z</time></trkpt><trkpt lat="45.83530122140815" lon="12.210164288977595"><ele>85.28571428571428</ele><time>2026-04-25T18:15:55Z</time></trkpt><trkpt lat="45.83526439543916" lon="12.210255935280388"><ele>85.42857142857143</ele><time>2026-04-25T18:15:56Z</time></trkpt><trkpt lat="45.83522801883854" lon="12.210347002732803"><ele>85.57142857142858</ele><time>2026-04-25T18:15:57Z</time></trkpt><trkpt lat="45.83519473774247" lon="12.210441018533766"><ele>85.71428571428572</ele><time>2026-04-25T18:15:58Z</time></trkpt><trkpt lat="45.83515755486003" lon="12.210531422435363"><ele>85.85714285714286</ele><time>2026-04-25T18:15:59Z</time></trkpt><trkpt lat="45.835122552075504" lon="12.210624426360162"><ele>86.0</ele><time>2026-04-25T18:15:59.999Z</time></trkpt><trkpt lat="45.83508844492963" lon="12.21071143875641"><ele>85.42857142857143</ele><time>2026-04-25T18:16:00.999Z</time></trkpt><trkpt lat="45.83505283511554" lon="12.21080142361424"><ele>84.85714285714286</ele><time>2026-04-25T18:16:01.999Z</time></trkpt><trkpt lat="45.83501806253152" lon="12.210892237294974"><ele>84.28571428571428</ele><time>2026-04-25T18:16:02.999Z</time></trkpt><trkpt lat="45.834983109283314" lon="12.210983820973004"><ele>83.71428571428572</ele><time>2026-04-25T18:16:03.999Z</time></trkpt><trkpt lat="45.834951213979785" lon="12.211075830292053"><ele>83.14285714285714</ele><time>2026-04-25T18:16:04.999Z</time></trkpt><trkpt lat="45.834918655959534" lon="12.211167833919966"><ele>82.57142857142857</ele><time>2026-04-25T18:16:05.999Z</time></trkpt><trkpt lat="45.83489225357971" lon="12.211257822447784"><ele>82.0</ele><time>2026-04-25T18:16:06.999Z</time></trkpt><trkpt lat="45.83486579477218" lon="12.211351438157353"><ele>81.99999999999999</ele><time>2026-04-25T18:16:07.999Z</time></trkpt><trkpt lat="45.834842447455564" lon="12.211447866109962"><ele>82.0</ele><time>2026-04-25T18:16:08.999Z</time></trkpt><trkpt lat="45.83481627713432" lon="12.21154442181699"><ele>82.0</ele><time>2026-04-25T18:16:09.999Z</time></trkpt><trkpt lat="45.8347909451336" lon="12.211641243415407"><ele>82.0</ele><time>2026-04-25T18:16:10.999Z</time></trkpt><trkpt lat="45.83477125641889" lon="12.211740756753189"><ele>82.0</ele><time>2026-04-25T18:16:11.999Z</time></trkpt><trkpt lat="45.834747465434994" lon="12.21184156704607"><ele>81.99999999999999</ele><time>2026-04-25T18:16:12.999Z</time></trkpt><trkpt lat="45.83472571193014" lon="12.211943741256484"><ele>82.0</ele><time>2026-04-25T18:16:13.999Z</time></trkpt><trkpt lat="45.83470526977148" lon="12.212046173410826"><ele>81.99999999999999</ele><time>2026-04-25T18:16:14.999Z</time></trkpt><trkpt lat="45.83468887468068" lon="12.21214757332481"><ele>82.0</ele><time>2026-04-25T18:16:15.999Z</time></trkpt><trkpt lat="45.83467050390196" lon="12.21224429445572"><ele>82.0</ele><time>2026-04-25T18:16:16.999Z</time></trkpt><trkpt lat="45.834652054987835" lon="12.212339312898076"><ele>82.0</ele><time>2026-04-25T18:16:17.999Z</time></trkpt><trkpt lat="45.83463326156684" lon="12.2124396469297"><ele>82.0</ele><time>2026-04-25T18:16:18.999Z</time></trkpt><trkpt lat="45.83461366350871" lon="12.212543884828623"><ele>81.99999999999999</ele><time>2026-04-25T18:16:19.999Z</time></trkpt><trkpt lat="45.834596289367575" lon="12.212647657388674"><ele>82.0</ele><time>2026-04-25T18:16:20.999Z</time></trkpt><trkpt lat="45.83457812662662" lon="12.212753845398536"><ele>81.99999999999999</ele><time>2026-04-25T18:16:21.999Z</time></trkpt><trkpt lat="45.83456076195067" lon="12.212857373972065"><ele>82.0</ele><time>2026-04-25T18:16:22.999Z</time></trkpt><trkpt lat="45.834542277209984" lon="12.212961864647117"><ele>82.0</ele><time>2026-04-25T18:16:23.999Z</time></trkpt><trkpt lat="45.834529685362234" lon="12.213069429263495"><ele>82.0</ele><time>2026-04-25T18:16:24.999Z</time></trkpt><trkpt lat="45.8345173655338" lon="12.213175848969055"><ele>82.0</ele><time>2026-04-25T18:16:25.999Z</time></trkpt><trkpt lat="45.834505720966945" lon="12.213280731096457"><ele>81.99999999999999</ele><time>2026-04-25T18:16:26.999Z</time></trkpt><trkpt lat="45.83449512840576" lon="12.213382964886101"><ele>82.0</ele><time>2026-04-25T18:16:27.999Z</time></trkpt><trkpt lat="45.83448811439031" lon="12.213490894904202"><ele>81.83333333333333</ele><time>2026-04-25T18:16:28.999Z</time></trkpt><trkpt lat="45.834478993290375" lon="12.213599244399692"><ele>81.66666666666666</ele><time>2026-04-25T18:16:29.999Z</time></trkpt><trkpt lat="45.83447095083628" lon="12.213707808841814"><ele>81.5</ele><time>2026-04-25T18:16:30.999Z</time></trkpt><trkpt lat="45.83446361422847" lon="12.213811372254707"><ele>81.33333333333333</ele><time>2026-04-25T18:16:31.999Z</time></trkpt><trkpt lat="45.83445995768844" lon="12.213920573457715"><ele>81.16666666666667</ele><time>2026-04-25T18:16:32.999Z</time></trkpt><trkpt lat="45.83445599734635" lon="12.21402834282783"><ele>81.0</ele><time>2026-04-25T18:16:33.999Z</time></trkpt><trkpt lat="45.83445057692288" lon="12.214137078528557"><ele>81.0</ele><time>2026-04-25T18:16:34.999Z</time></trkpt><trkpt lat="45.834447952414905" lon="12.214246002306673"><ele>81.0</ele><time>2026-04-25T18:16:35.999Z</time></trkpt><trkpt lat="45.83444250042048" lon="12.214354826092618"><ele>81.0</ele><time>2026-04-25T18:16:36.999Z</time></trkpt><trkpt lat="45.834437140776586" lon="12.214464013525173"><ele>81.0</ele><time>2026-04-25T18:16:37.999Z</time></trkpt><trkpt lat="45.834431652037814" lon="12.214572055683561"><ele>81.0</ele><time>2026-04-25T18:16:38.999Z</time></trkpt><trkpt lat="45.83442818925424" lon="12.214682463335613"><ele>81.0</ele><time>2026-04-25T18:16:39.999Z</time></trkpt><trkpt lat="45.83442363013461" lon="12.21479501368314"><ele>80.83333333333333</ele><time>2026-04-25T18:16:40.999Z</time></trkpt><trkpt lat="45.83441748628402" lon="12.214906654404452"><ele>80.66666666666667</ele><time>2026-04-25T18:16:41.999Z</time></trkpt><trkpt lat="45.8344110135985" lon="12.215015929960304"><ele>80.5</ele><time>2026-04-25T18:16:42.998Z</time></trkpt><trkpt lat="45.83440741961006" lon="12.215125284913276"><ele>80.33333333333334</ele><time>2026-04-25T18:16:43.998Z</time></trkpt><trkpt lat="45.83440501675976" lon="12.215234451235595"><ele>80.16666666666667</ele><time>2026-04-25T18:16:44.998Z</time></trkpt><trkpt lat="45.8344012254221" lon="12.215345416466624"><ele>80.0</ele><time>2026-04-25T18:16:45.998Z</time></trkpt><trkpt lat="45.83439423501601" lon="12.21545519655415"><ele>80.0</ele><time>2026-04-25T18:16:46.998Z</time></trkpt><trkpt lat="45.83438981441489" lon="12.215567079613177"><ele>80.0</ele><time>2026-04-25T18:16:47.998Z</time></trkpt><trkpt lat="45.834385818541115" lon="12.215681272512136"><ele>80.0</ele><time>2026-04-25T18:16:48.998Z</time></trkpt><trkpt lat="45.83437873867613" lon="12.215794900687223"><ele>80.0</ele><time>2026-04-25T18:16:49.998Z</time></trkpt><trkpt lat="45.83436834048393" lon="12.21590997612904"><ele>80.0</ele><time>2026-04-25T18:16:50.998Z</time></trkpt><trkpt lat="45.83435765113709" lon="12.216023112362901"><ele>80.0</ele><time>2026-04-25T18:16:51.998Z</time></trkpt><trkpt lat="45.83435086419494" lon="12.21613767817313"><ele>79.83333333333334</ele><time>2026-04-25T18:16:52.998Z</time></trkpt><trkpt lat="45.83434228952961" lon="12.21625530198954"><ele>79.66666666666667</ele><time>2026-04-25T18:16:53.998Z</time></trkpt><trkpt lat="45.83433160981929" lon="12.216368520281222"><ele>79.5</ele><time>2026-04-25T18:16:54.998Z</time></trkpt><trkpt lat="45.834321175796255" lon="12.216482746134787"><ele>79.33333333333333</ele><time>2026-04-25T18:16:55.998Z</time></trkpt><trkpt lat="45.83431283051991" lon="12.216597737980711"><ele>79.16666666666666</ele><time>2026-04-25T18:16:56.998Z</time></trkpt><trkpt lat="45.83430279887103" lon="12.21671443465408"><ele>79.0</ele><time>2026-04-25T18:16:57.998Z</time></trkpt><trkpt lat="45.834292619890675" lon="12.216830394756043"><ele>79.0</ele><time>2026-04-25T18:16:58.998Z</time></trkpt><trkpt lat="45.834281599110795" lon="12.216948261900214"><ele>79.0</ele><time>2026-04-25T18:16:59.998Z</time></trkpt><trkpt lat="45.83427041490522" lon="12.217065006481974"><ele>79.0</ele><time>2026-04-25T18:17:00.998Z</time></trkpt><trkpt lat="45.83425870845182" lon="12.217180400950202"><ele>79.0</ele><time>2026-04-25T18:17:01.998Z</time></trkpt><trkpt lat="45.83424764303373" lon="12.217294436335084"><ele>79.0</ele><time>2026-04-25T18:17:02.998Z</time></trkpt><trkpt lat="45.83423645571846" lon="12.217414668109388"><ele>79.0</ele><time>2026-04-25T18:17:03.998Z</time></trkpt><trkpt lat="45.834227000349586" lon="12.217523526838667"><ele>79.0</ele><time>2026-04-25T18:17:04.998Z</time></trkpt><trkpt lat="45.834214232632334" lon="12.217639546165612"><ele>79.0</ele><time>2026-04-25T18:17:05.998Z</time></trkpt><trkpt lat="45.83420622108506" lon="12.217756802981643"><ele>79.0</ele><time>2026-04-25T18:17:06.998Z</time></trkpt><trkpt lat="45.834198204367695" lon="12.217873213361754"><ele>79.0</ele><time>2026-04-25T18:17:07.998Z</time></trkpt><trkpt lat="45.8341877680687" lon="12.217988455528463"><ele>79.0</ele><time>2026-04-25T18:17:08.998Z</time></trkpt><trkpt lat="45.83417511011724" lon="12.218104178799917"><ele>79.0</ele><time>2026-04-25T18:17:09.998Z</time></trkpt><trkpt lat="45.83416402807056" lon="12.218219026659503"><ele>78.83333333333333</ele><time>2026-04-25T18:17:10.998Z</time></trkpt><trkpt lat="45.83415208652924" lon="12.218334236592018"><ele>78.66666666666666</ele><time>2026-04-25T18:17:11.998Z</time></trkpt><trkpt lat="45.83414092059338" lon="12.218448338384508"><ele>78.5</ele><time>2026-04-25T18:17:12.998Z</time></trkpt><trkpt lat="45.83412987553144" lon="12.218562000797496"><ele>78.33333333333333</ele><time>2026-04-25T18:17:13.998Z</time></trkpt><trkpt lat="45.834121545217585" lon="12.218675657236671"><ele>78.16666666666667</ele><time>2026-04-25T18:17:14.998Z</time></trkpt><trkpt lat="45.83411223433621" lon="12.218790222072208"><ele>78.0</ele><time>2026-04-25T18:17:15.998Z</time></trkpt><trkpt lat="45.83410312034519" lon="12.218904022322237"><ele>78.16666666666667</ele><time>2026-04-25T18:17:16.998Z</time></trkpt><trkpt lat="45.83409361918421" lon="12.219016266383003"><ele>78.33333333333333</ele><time>2026-04-25T18:17:17.998Z</time></trkpt><trkpt lat="45.834081951631745" lon="12.219128362422625"><ele>78.5</ele><time>2026-04-25T18:17:18.998Z</time></trkpt><trkpt lat="45.8340685153405" lon="12.219241215692175"><ele>78.66666666666666</ele><time>2026-04-25T18:17:19.998Z</time></trkpt><trkpt lat="45.83406060865983" lon="12.219354374945322"><ele>78.83333333333333</ele><time>2026-04-25T18:17:20.998Z</time></trkpt><trkpt lat="45.83405155574978" lon="12.219465104939768"><ele>79.0</ele><time>2026-04-25T18:17:21.998Z</time></trkpt><trkpt lat="45.83404048747641" lon="12.219578090821942"><ele>79.0</ele><time>2026-04-25T18:17:22.998Z</time></trkpt><trkpt lat="45.83403070314755" lon="12.219690104261542"><ele>79.0</ele><time>2026-04-25T18:17:23.998Z</time></trkpt><trkpt lat="45.83401983789037" lon="12.219804853651691"><ele>79.0</ele><time>2026-04-25T18:17:24.998Z</time></trkpt><trkpt lat="45.834008787931154" lon="12.219915634287073"><ele>79.0</ele><time>2026-04-25T18:17:25.997Z</time></trkpt><trkpt lat="45.833995209459914" lon="12.220026607412594"><ele>79.0</ele><time>2026-04-25T18:17:26.997Z</time></trkpt><trkpt lat="45.83398055852618" lon="12.220138477604431"><ele>79.0</ele><time>2026-04-25T18:17:27.997Z</time></trkpt><trkpt lat="45.83396789828016" lon="12.220251588784077"><ele>79.16666666666666</ele><time>2026-04-25T18:17:28.997Z</time></trkpt><trkpt lat="45.83395132019147" lon="12.220364164062365"><ele>79.33333333333333</ele><time>2026-04-25T18:17:29.997Z</time></trkpt><trkpt lat="45.83393610411785" lon="12.220475498157327"><ele>79.5</ele><time>2026-04-25T18:17:30.997Z</time></trkpt><trkpt lat="45.8339230695199" lon="12.220588746318475"><ele>79.66666666666667</ele><time>2026-04-25T18:17:31.997Z</time></trkpt><trkpt lat="45.83391015397388" lon="12.220697048721313"><ele>79.83333333333334</ele><time>2026-04-25T18:17:32.997Z</time></trkpt><trkpt lat="45.83390003227054" lon="12.220809089948213"><ele>80.0</ele><time>2026-04-25T18:17:33.997Z</time></trkpt><trkpt lat="45.83389128161441" lon="12.220920863290283"><ele>80.0</ele><time>2026-04-25T18:17:34.997Z</time></trkpt><trkpt lat="45.83388523987983" lon="12.221031574306199"><ele>80.0</ele><time>2026-04-25T18:17:35.997Z</time></trkpt><trkpt lat="45.833879225220585" lon="12.221150658576345"><ele>80.0</ele><time>2026-04-25T18:17:36.997Z</time></trkpt><trkpt lat="45.83387421439666" lon="12.221265558992917"><ele>80.0</ele><time>2026-04-25T18:17:38Z</time></trkpt><trkpt lat="45.833873113368874" lon="12.221380258167521"><ele>80.0</ele><time>2026-04-25T18:17:39Z</time></trkpt><trkpt lat="45.83387215405707" lon="12.221500613610955"><ele>80.0</ele><time>2026-04-25T18:17:40Z</time></trkpt><trkpt lat="45.833869018998264" lon="12.221617681006709"><ele>79.66666666666667</ele><time>2026-04-25T18:17:41Z</time></trkpt><trkpt lat="45.833863517667446" lon="12.221733473493854"><ele>79.33333333333334</ele><time>2026-04-25T18:17:42Z</time></trkpt><trkpt lat="45.833854708751964" lon="12.221852510575589"><ele>79.0</ele><time>2026-04-25T18:17:43Z</time></trkpt><trkpt lat="45.83384142114418" lon="12.2219706321534"><ele>78.66666666666667</ele><time>2026-04-25T18:17:44Z</time></trkpt><trkpt lat="45.83382346711073" lon="12.222084956742313"><ele>78.33333333333333</ele><time>2026-04-25T18:17:45Z</time></trkpt><trkpt lat="45.833803500037305" lon="12.222201874411889"><ele>78.0</ele><time>2026-04-25T18:17:46Z</time></trkpt><trkpt lat="45.833782576950036" lon="12.22231583042587"><ele>78.0</ele><time>2026-04-25T18:17:47Z</time></trkpt><trkpt lat="45.833763661633085" lon="12.222425754467185"><ele>78.0</ele><time>2026-04-25T18:17:48Z</time></trkpt><trkpt lat="45.83374343230221" lon="12.222540417556072"><ele>78.0</ele><time>2026-04-25T18:17:49Z</time></trkpt><trkpt lat="45.83372263148796" lon="12.222651487954499"><ele>78.0</ele><time>2026-04-25T18:17:50Z</time></trkpt><trkpt lat="45.83370260104576" lon="12.222764706405485"><ele>78.0</ele><time>2026-04-25T18:17:51Z</time></trkpt><trkpt lat="45.83368120380938" lon="12.22287622569589"><ele>78.0</ele><time>2026-04-25T18:17:52Z</time></trkpt><trkpt lat="45.833663808279475" lon="12.222985660914972"><ele>78.0</ele><time>2026-04-25T18:17:53Z</time></trkpt><trkpt lat="45.833646515333946" lon="12.22309486057159"><ele>78.0</ele><time>2026-04-25T18:17:54Z</time></trkpt><trkpt lat="45.83362666600238" lon="12.223204794348076"><ele>78.0</ele><time>2026-04-25T18:17:55Z</time></trkpt><trkpt lat="45.83360822428587" lon="12.223314530873273"><ele>78.0</ele><time>2026-04-25T18:17:56Z</time></trkpt><trkpt lat="45.833590362047474" lon="12.22342305161877"><ele>78.0</ele><time>2026-04-25T18:17:57Z</time></trkpt><trkpt lat="45.83357206626057" lon="12.223531598732164"><ele>78.0</ele><time>2026-04-25T18:17:58Z</time></trkpt><trkpt lat="45.83355464512541" lon="12.223638096424299"><ele>78.0</ele><time>2026-04-25T18:17:59Z</time></trkpt><trkpt lat="45.833534311005195" lon="12.223745624782582"><ele>78.0</ele><time>2026-04-25T18:18:00Z</time></trkpt><trkpt lat="45.833513253259454" lon="12.22385289433092"><ele>78.0</ele><time>2026-04-25T18:18:01Z</time></trkpt><trkpt lat="45.83349343664383" lon="12.223962805084984"><ele>78.0</ele><time>2026-04-25T18:18:02Z</time></trkpt><trkpt lat="45.83346783957701" lon="12.224067091846328"><ele>78.0</ele><time>2026-04-25T18:18:03Z</time></trkpt><trkpt lat="45.83343585978063" lon="12.224168408468998"><ele>78.0</ele><time>2026-04-25T18:18:04Z</time></trkpt><trkpt lat="45.83340278516103" lon="12.224267443917253"><ele>77.66666666666667</ele><time>2026-04-25T18:18:05Z</time></trkpt><trkpt lat="45.83336762134019" lon="12.224360114476076"><ele>77.33333333333333</ele><time>2026-04-25T18:18:06Z</time></trkpt><trkpt lat="45.83332595314258" lon="12.22444596361412"><ele>77.0</ele><time>2026-04-25T18:18:07Z</time></trkpt><trkpt lat="45.83328206195788" lon="12.224521859091258"><ele>76.66666666666666</ele><time>2026-04-25T18:18:08Z</time></trkpt><trkpt lat="45.83319784776811" lon="12.224644410477145"><ele>76.33333333333333</ele><time>2026-04-25T18:18:10Z</time></trkpt><trkpt lat="45.83312469902203" lon="12.22473825072173"><ele>76.0</ele><time>2026-04-25T18:18:12Z</time></trkpt><trkpt lat="45.833063425762354" lon="12.224841233134295"><ele>76.0</ele><time>2026-04-25T18:18:14Z</time></trkpt><trkpt lat="45.833005746427084" lon="12.224905282079362"><ele>76.0</ele><time>2026-04-25T18:18:16Z</time></trkpt><trkpt lat="45.83315813095562" lon="12.225021843846145"><ele>76.0</ele><time>2026-04-25T18:18:17Z</time></trkpt><trkpt lat="45.833173142670525" lon="12.225156391524582"><ele>76.0</ele><time>2026-04-25T18:18:18.999Z</time></trkpt><trkpt lat="45.8332542120634" lon="12.225253559713831"><ele>76.0</ele><time>2026-04-25T18:18:20.999Z</time></trkpt><trkpt lat="45.833334636848654" lon="12.225339753940542"><ele>76.0</ele><time>2026-04-25T18:18:22.999Z</time></trkpt><trkpt lat="45.833417607720286" lon="12.225425367460483"><ele>76.0</ele><time>2026-04-25T18:18:24.999Z</time></trkpt><trkpt lat="45.83349734318036" lon="12.225518537148854"><ele>76.0</ele><time>2026-04-25T18:18:26.999Z</time></trkpt><trkpt lat="45.833579404778135" lon="12.225608533388247"><ele>76.0</ele><time>2026-04-25T18:18:28.999Z</time></trkpt><trkpt lat="45.833670818744274" lon="12.225701080727395"><ele>76.0</ele><time>2026-04-25T18:18:30.999Z</time></trkpt><trkpt lat="45.833762524342504" lon="12.225796438275085"><ele>76.25</ele><time>2026-04-25T18:18:32.999Z</time></trkpt><trkpt lat="45.83385793524152" lon="12.225885259569095"><ele>76.5</ele><time>2026-04-25T18:18:34.999Z</time></trkpt><trkpt lat="45.83395436674362" lon="12.225980824915812"><ele>76.75</ele><time>2026-04-25T18:18:36.999Z</time></trkpt><trkpt lat="45.8340545397084" lon="12.226078695579702"><ele>77.0</ele><time>2026-04-25T18:18:38.999Z</time></trkpt><trkpt lat="45.83415572311462" lon="12.226185235873023"><ele>77.0</ele><time>2026-04-25T18:18:40.999Z</time></trkpt><trkpt lat="45.83420728264497" lon="12.226237701325976"><ele>77.0</ele><time>2026-04-25T18:18:41.999Z</time></trkpt><trkpt lat="45.834257994676136" lon="12.226294199273834"><ele>77.0</ele><time>2026-04-25T18:18:42.999Z</time></trkpt><trkpt lat="45.8343075885863" lon="12.226353249311678"><ele>77.0</ele><time>2026-04-25T18:18:43.999Z</time></trkpt><trkpt lat="45.834354606349855" lon="12.226417810257987"><ele>77.0</ele><time>2026-04-25T18:18:44.999Z</time></trkpt><trkpt lat="45.83439790120142" lon="12.22648813809625"><ele>77.0</ele><time>2026-04-25T18:18:45.999Z</time></trkpt><trkpt lat="45.834437058802855" lon="12.226563162670242"><ele>77.0</ele><time>2026-04-25T18:18:46.999Z</time></trkpt><trkpt lat="45.83447066915996" lon="12.22664211621183"><ele>77.0</ele><time>2026-04-25T18:18:47.999Z</time></trkpt><trkpt lat="45.8345025811504" lon="12.2267225580695"><ele>77.0</ele><time>2026-04-25T18:18:48.999Z</time></trkpt><trkpt lat="45.83452762620916" lon="12.226805608135983"><ele>77.0</ele><time>2026-04-25T18:18:49.999Z</time></trkpt><trkpt lat="45.83454931356317" lon="12.226893116923069"><ele>77.0</ele><time>2026-04-25T18:18:50.999Z</time></trkpt><trkpt lat="45.83458932172114" lon="12.227066484758424"><ele>77.0</ele><time>2026-04-25T18:18:52.999Z</time></trkpt><trkpt lat="45.8346058290928" lon="12.227153987271798"><ele>77.0</ele><time>2026-04-25T18:18:53.999Z</time></trkpt><trkpt lat="45.83462006761291" lon="12.227244308981003"><ele>77.0</ele><time>2026-04-25T18:18:54.999Z</time></trkpt><trkpt lat="45.83463421046463" lon="12.227333220165164"><ele>77.28571428571429</ele><time>2026-04-25T18:18:55.999Z</time></trkpt><trkpt lat="45.83464718980915" lon="12.22742308081169"><ele>77.57142857142857</ele><time>2026-04-25T18:18:56.999Z</time></trkpt><trkpt lat="45.83466397134833" lon="12.227513086825171"><ele>77.85714285714286</ele><time>2026-04-25T18:18:57.999Z</time></trkpt><trkpt lat="45.834679910653854" lon="12.227603534695856"><ele>78.14285714285714</ele><time>2026-04-25T18:18:58.999Z</time></trkpt><trkpt lat="45.8346948811689" lon="12.227695533698085"><ele>78.42857142857143</ele><time>2026-04-25T18:18:59.999Z</time></trkpt><trkpt lat="45.834710807492606" lon="12.227784712643118"><ele>78.71428571428572</ele><time>2026-04-25T18:19:00.998Z</time></trkpt><trkpt lat="45.83472673951725" lon="12.227875946743302"><ele>79.0</ele><time>2026-04-25T18:19:01.998Z</time></trkpt><trkpt lat="45.834740594254775" lon="12.227967229127303"><ele>79.00000000000001</ele><time>2026-04-25T18:19:02.998Z</time></trkpt><trkpt lat="45.83475439880808" lon="12.228056272307608"><ele>79.0</ele><time>2026-04-25T18:19:03.998Z</time></trkpt><trkpt lat="45.834769269325434" lon="12.228149828190853"><ele>79.0</ele><time>2026-04-25T18:19:04.998Z</time></trkpt><trkpt lat="45.834783115610385" lon="12.228240226627271"><ele>79.0</ele><time>2026-04-25T18:19:05.998Z</time></trkpt><trkpt lat="45.83479741232535" lon="12.228334198968653"><ele>79.0</ele><time>2026-04-25T18:19:06.998Z</time></trkpt><trkpt lat="45.8348111231131" lon="12.228428106028126"><ele>79.00000000000001</ele><time>2026-04-25T18:19:07.998Z</time></trkpt><trkpt lat="45.83482703313279" lon="12.228521609632802"><ele>79.0</ele><time>2026-04-25T18:19:08.998Z</time></trkpt><trkpt lat="45.83484696006788" lon="12.22861689639401"><ele>79.00000000000001</ele><time>2026-04-25T18:19:09.998Z</time></trkpt><trkpt lat="45.834871132713694" lon="12.228706616667408"><ele>79.0</ele><time>2026-04-25T18:19:10.998Z</time></trkpt><trkpt lat="45.83489740077275" lon="12.228797911718985"><ele>79.0</ele><time>2026-04-25T18:19:11.998Z</time></trkpt><trkpt lat="45.834920595820165" lon="12.228892792271344"><ele>79.0</ele><time>2026-04-25T18:19:12.998Z</time></trkpt><trkpt lat="45.83495170588213" lon="12.228984842245152"><ele>79.0</ele><time>2026-04-25T18:19:13.998Z</time></trkpt><trkpt lat="45.834982843809726" lon="12.229076307558104"><ele>79.00000000000001</ele><time>2026-04-25T18:19:14.998Z</time></trkpt><trkpt lat="45.835017741834186" lon="12.229162614681323"><ele>79.0</ele><time>2026-04-25T18:19:15.998Z</time></trkpt><trkpt lat="45.83505227677569" lon="12.229249196385409"><ele>78.85714285714286</ele><time>2026-04-25T18:19:16.998Z</time></trkpt><trkpt lat="45.83508780120881" lon="12.229336469015188"><ele>78.71428571428572</ele><time>2026-04-25T18:19:17.998Z</time></trkpt><trkpt lat="45.83512482907168" lon="12.229421969721903"><ele>78.57142857142858</ele><time>2026-04-25T18:19:18.998Z</time></trkpt><trkpt lat="45.83516342307842" lon="12.229509209209024"><ele>78.42857142857143</ele><time>2026-04-25T18:19:19.998Z</time></trkpt><trkpt lat="45.83520117005017" lon="12.229595460355593"><ele>78.28571428571428</ele><time>2026-04-25T18:19:20.998Z</time></trkpt><trkpt lat="45.83523738028035" lon="12.229683712004794"><ele>78.14285714285715</ele><time>2026-04-25T18:19:21.998Z</time></trkpt><trkpt lat="45.835275189483696" lon="12.229772503263499"><ele>78.0</ele><time>2026-04-25T18:19:22.998Z</time></trkpt><trkpt lat="45.83531398830723" lon="12.229860598122466"><ele>78.28571428571429</ele><time>2026-04-25T18:19:23.998Z</time></trkpt><trkpt lat="45.83535272716491" lon="12.22994873275553"><ele>78.57142857142857</ele><time>2026-04-25T18:19:24.998Z</time></trkpt><trkpt lat="45.835390499390634" lon="12.2300380427816"><ele>78.85714285714286</ele><time>2026-04-25T18:19:25.998Z</time></trkpt><trkpt lat="45.83542982064682" lon="12.230125437940531"><ele>79.14285714285714</ele><time>2026-04-25T18:19:26.998Z</time></trkpt><trkpt lat="45.8354686430894" lon="12.230214118699603"><ele>79.42857142857143</ele><time>2026-04-25T18:19:27.998Z</time></trkpt><trkpt lat="45.83550713265723" lon="12.23030562500342"><ele>79.71428571428571</ele><time>2026-04-25T18:19:28.998Z</time></trkpt><trkpt lat="45.83554561812354" lon="12.230391757895825"><ele>80.0</ele><time>2026-04-25T18:19:29.998Z</time></trkpt><trkpt lat="45.83558341808245" lon="12.230479031647583"><ele>80.0</ele><time>2026-04-25T18:19:30.998Z</time></trkpt><trkpt lat="45.83562057486319" lon="12.230567317850012"><ele>80.0</ele><time>2026-04-25T18:19:31.998Z</time></trkpt><trkpt lat="45.83565966180685" lon="12.23065590954535"><ele>80.0</ele><time>2026-04-25T18:19:32.998Z</time></trkpt><trkpt lat="45.835698462913285" lon="12.230745325217256"><ele>80.0</ele><time>2026-04-25T18:19:33.998Z</time></trkpt><trkpt lat="45.83573842613564" lon="12.230835090214937"><ele>80.0</ele><time>2026-04-25T18:19:34.998Z</time></trkpt><trkpt lat="45.835777897910994" lon="12.230925529196979"><ele>80.0</ele><time>2026-04-25T18:19:35.998Z</time></trkpt><trkpt lat="45.83581652836165" lon="12.231015362116349"><ele>80.0</ele><time>2026-04-25T18:19:36.998Z</time></trkpt><trkpt lat="45.835855464612465" lon="12.231105532134825"><ele>79.85714285714286</ele><time>2026-04-25T18:19:37.998Z</time></trkpt><trkpt lat="45.835894335889805" lon="12.231195458161036"><ele>79.71428571428572</ele><time>2026-04-25T18:19:38.998Z</time></trkpt><trkpt lat="45.83593492409983" lon="12.231284518126843"><ele>79.57142857142858</ele><time>2026-04-25T18:19:39.998Z</time></trkpt><trkpt lat="45.8359742584201" lon="12.231374671359875"><ele>79.42857142857143</ele><time>2026-04-25T18:19:40.998Z</time></trkpt><trkpt lat="45.836010138459976" lon="12.231467963572387"><ele>79.28571428571429</ele><time>2026-04-25T18:19:41.998Z</time></trkpt><trkpt lat="45.83604615048946" lon="12.231562567751215"><ele>79.14285714285715</ele><time>2026-04-25T18:19:42.998Z</time></trkpt><trkpt lat="45.83608627233701" lon="12.231652712437613"><ele>79.0</ele><time>2026-04-25T18:19:44Z</time></trkpt><trkpt lat="45.83612850926727" lon="12.231740770139941"><ele>78.85714285714286</ele><time>2026-04-25T18:19:45Z</time></trkpt><trkpt lat="45.83616934487081" lon="12.231827403082718"><ele>78.71428571428572</ele><time>2026-04-25T18:19:46Z</time></trkpt><trkpt lat="45.836208284444915" lon="12.231916732023636"><ele>78.57142857142858</ele><time>2026-04-25T18:19:47Z</time></trkpt><trkpt lat="45.83624566519673" lon="12.232005701549877"><ele>78.42857142857143</ele><time>2026-04-25T18:19:48Z</time></trkpt><trkpt lat="45.83628512228887" lon="12.232095054081165"><ele>78.28571428571428</ele><time>2026-04-25T18:19:49Z</time></trkpt><trkpt lat="45.83632385875904" lon="12.232182749995157"><ele>78.14285714285715</ele><time>2026-04-25T18:19:50Z</time></trkpt><trkpt lat="45.836362870649836" lon="12.232272205994807"><ele>78.0</ele><time>2026-04-25T18:19:51Z</time></trkpt><trkpt lat="45.83640187919906" lon="12.232362257583246"><ele>78.28571428571429</ele><time>2026-04-25T18:19:52Z</time></trkpt><trkpt lat="45.83644084592624" lon="12.232452340226013"><ele>78.57142857142857</ele><time>2026-04-25T18:19:53Z</time></trkpt><trkpt lat="45.83648020728509" lon="12.232543193372834"><ele>78.85714285714286</ele><time>2026-04-25T18:19:54Z</time></trkpt><trkpt lat="45.8365209510651" lon="12.232633687952719"><ele>79.14285714285714</ele><time>2026-04-25T18:19:55Z</time></trkpt><trkpt lat="45.83655990715769" lon="12.232726340727838"><ele>79.42857142857143</ele><time>2026-04-25T18:19:56Z</time></trkpt><trkpt lat="45.83659929930586" lon="12.232819000133622"><ele>79.71428571428571</ele><time>2026-04-25T18:19:57Z</time></trkpt><trkpt lat="45.83663896624203" lon="12.232908227026027"><ele>80.0</ele><time>2026-04-25T18:19:58Z</time></trkpt><trkpt lat="45.83667960790322" lon="12.233000168757927"><ele>80.0</ele><time>2026-04-25T18:19:59Z</time></trkpt><trkpt lat="45.83671837249224" lon="12.233089634661763"><ele>80.0</ele><time>2026-04-25T18:20:00Z</time></trkpt><trkpt lat="45.836758591360145" lon="12.233178679954893"><ele>80.0</ele><time>2026-04-25T18:20:01Z</time></trkpt><trkpt lat="45.83679808563111" lon="12.233269681863586"><ele>80.0</ele><time>2026-04-25T18:20:02Z</time></trkpt><trkpt lat="45.836837522698296" lon="12.233360708043039"><ele>80.0</ele><time>2026-04-25T18:20:03Z</time></trkpt><trkpt lat="45.83687688727249" lon="12.233454198833055"><ele>80.0</ele><time>2026-04-25T18:20:04Z</time></trkpt><trkpt lat="45.83691667608183" lon="12.233545799151853"><ele>80.0</ele><time>2026-04-25T18:20:05Z</time></trkpt><trkpt lat="45.83695637690521" lon="12.233638070156896"><ele>79.5</ele><time>2026-04-25T18:20:06Z</time></trkpt><trkpt lat="45.836997184358374" lon="12.233733454650995"><ele>79.0</ele><time>2026-04-25T18:20:07Z</time></trkpt><trkpt lat="45.83703680896551" lon="12.233825375874126"><ele>78.5</ele><time>2026-04-25T18:20:08Z</time></trkpt><trkpt lat="45.83707655098486" lon="12.23391828061248"><ele>78.0</ele><time>2026-04-25T18:20:09Z</time></trkpt><trkpt lat="45.83711624764448" lon="12.234011017834765"><ele>77.5</ele><time>2026-04-25T18:20:10Z</time></trkpt><trkpt lat="45.83715644259727" lon="12.23410547509581"><ele>77.0</ele><time>2026-04-25T18:20:11Z</time></trkpt><trkpt lat="45.837195734222085" lon="12.23419892557536"><ele>76.83333333333334</ele><time>2026-04-25T18:20:12Z</time></trkpt><trkpt lat="45.8372350263614" lon="12.234292937541106"><ele>76.66666666666667</ele><time>2026-04-25T18:20:13Z</time></trkpt><trkpt lat="45.83727519353682" lon="12.234385198039833"><ele>76.5</ele><time>2026-04-25T18:20:14Z</time></trkpt><trkpt lat="45.837316498173806" lon="12.234479586075478"><ele>76.33333333333333</ele><time>2026-04-25T18:20:15Z</time></trkpt><trkpt lat="45.83735787272523" lon="12.23457295705515"><ele>76.16666666666666</ele><time>2026-04-25T18:20:16Z</time></trkpt><trkpt lat="45.83739841889617" lon="12.23466931425338"><ele>76.0</ele><time>2026-04-25T18:20:17Z</time></trkpt><trkpt lat="45.83743869587443" lon="12.234765852902544"><ele>75.83333333333333</ele><time>2026-04-25T18:20:18Z</time></trkpt><trkpt lat="45.83748011846445" lon="12.234861410576425"><ele>75.66666666666666</ele><time>2026-04-25T18:20:19Z</time></trkpt><trkpt lat="45.8375221837971" lon="12.234956244748451"><ele>75.5</ele><time>2026-04-25T18:20:20Z</time></trkpt><trkpt lat="45.83756589570679" lon="12.235051205152034"><ele>75.33333333333333</ele><time>2026-04-25T18:20:21Z</time></trkpt><trkpt lat="45.83760599747393" lon="12.235147727339903"><ele>75.16666666666667</ele><time>2026-04-25T18:20:22Z</time></trkpt><trkpt lat="45.83764553478983" lon="12.235241118151674"><ele>75.0</ele><time>2026-04-25T18:20:23Z</time></trkpt><trkpt lat="45.83768668030552" lon="12.235334796781608"><ele>75.0</ele><time>2026-04-25T18:20:24Z</time></trkpt><trkpt lat="45.8377283619229" lon="12.235428957361378"><ele>75.0</ele><time>2026-04-25T18:20:25Z</time></trkpt><trkpt lat="45.83777166284897" lon="12.235522254892436"><ele>75.0</ele><time>2026-04-25T18:20:26Z</time></trkpt><trkpt lat="45.83781154519979" lon="12.235618824740232"><ele>75.0</ele><time>2026-04-25T18:20:27Z</time></trkpt><trkpt lat="45.837851834258494" lon="12.235712347969637"><ele>75.0</ele><time>2026-04-25T18:20:28Z</time></trkpt><trkpt lat="45.8378947463116" lon="12.235807068019907"><ele>75.0</ele><time>2026-04-25T18:20:29Z</time></trkpt><trkpt lat="45.83794086650995" lon="12.235894329118086"><ele>75.0</ele><time>2026-04-25T18:20:30Z</time></trkpt><trkpt lat="45.837982251944744" lon="12.235987406331596"><ele>75.0</ele><time>2026-04-25T18:20:31Z</time></trkpt><trkpt lat="45.83802134057635" lon="12.23608035627286"><ele>75.0</ele><time>2026-04-25T18:20:32Z</time></trkpt><trkpt lat="45.83806020431221" lon="12.236174567404582"><ele>75.0</ele><time>2026-04-25T18:20:33Z</time></trkpt><trkpt lat="45.83809622494218" lon="12.236271167316753"><ele>75.0</ele><time>2026-04-25T18:20:33.999Z</time></trkpt><trkpt lat="45.83813121453006" lon="12.23636862317266"><ele>75.0</ele><time>2026-04-25T18:20:34.999Z</time></trkpt><trkpt lat="45.838167692165214" lon="12.236465792893963"><ele>74.5</ele><time>2026-04-25T18:20:35.999Z</time></trkpt><trkpt lat="45.83820413646315" lon="12.236565961063675"><ele>74.0</ele><time>2026-04-25T18:20:36.999Z</time></trkpt><trkpt lat="45.83824000995768" lon="12.236666258695493"><ele>73.5</ele><time>2026-04-25T18:20:37.999Z</time></trkpt><trkpt lat="45.83827586606878" lon="12.236767940092266"><ele>73.0</ele><time>2026-04-25T18:20:38.999Z</time></trkpt><trkpt lat="45.838314088944394" lon="12.23687317044462"><ele>72.5</ele><time>2026-04-25T18:20:39.999Z</time></trkpt><trkpt lat="45.83835196603576" lon="12.236980596098293"><ele>72.0</ele><time>2026-04-25T18:20:40.999Z</time></trkpt><trkpt lat="45.838388066576144" lon="12.237086504866332"><ele>72.0</ele><time>2026-04-25T18:20:41.999Z</time></trkpt><trkpt lat="45.83842265808349" lon="12.237196325910112"><ele>72.0</ele><time>2026-04-25T18:20:42.999Z</time></trkpt><trkpt lat="45.83845811303278" lon="12.23730465363034"><ele>72.0</ele><time>2026-04-25T18:20:43.999Z</time></trkpt><trkpt lat="45.83849282168527" lon="12.237412172010423"><ele>72.0</ele><time>2026-04-25T18:20:44.999Z</time></trkpt><trkpt lat="45.83852975062844" lon="12.237519463100845"><ele>72.0</ele><time>2026-04-25T18:20:45.999Z</time></trkpt><trkpt lat="45.838568366180084" lon="12.237627956726595"><ele>72.0</ele><time>2026-04-25T18:20:46.999Z</time></trkpt><trkpt lat="45.83860676592691" lon="12.237735774058745"><ele>72.16666666666667</ele><time>2026-04-25T18:20:47.999Z</time></trkpt><trkpt lat="45.83864668160348" lon="12.237843087323077"><ele>72.33333333333333</ele><time>2026-04-25T18:20:48.999Z</time></trkpt><trkpt lat="45.83868515145971" lon="12.237949597666448"><ele>72.5</ele><time>2026-04-25T18:20:49.999Z</time></trkpt><trkpt lat="45.83871974525157" lon="12.238059992003539"><ele>72.66666666666666</ele><time>2026-04-25T18:20:50.999Z</time></trkpt><trkpt lat="45.838758423789955" lon="12.238166757678227"><ele>72.83333333333333</ele><time>2026-04-25T18:20:51.999Z</time></trkpt><trkpt lat="45.83879682700225" lon="12.238274498837841"><ele>73.0</ele><time>2026-04-25T18:20:52.999Z</time></trkpt><trkpt lat="45.838836820480196" lon="12.238379241371385"><ele>73.16666666666666</ele><time>2026-04-25T18:20:53.999Z</time></trkpt><trkpt lat="45.838873687150596" lon="12.238486597084393"><ele>73.33333333333333</ele><time>2026-04-25T18:20:54.999Z</time></trkpt><trkpt lat="45.83891082115633" lon="12.238593952428003"><ele>73.5</ele><time>2026-04-25T18:20:55.999Z</time></trkpt><trkpt lat="45.83894756903061" lon="12.23869987152724"><ele>73.66666666666667</ele><time>2026-04-25T18:20:56.999Z</time></trkpt><trkpt lat="45.83898189879948" lon="12.238806853583304"><ele>73.83333333333334</ele><time>2026-04-25T18:20:57.999Z</time></trkpt><trkpt lat="45.83901862620422" lon="12.238910950494079"><ele>74.0</ele><time>2026-04-25T18:20:58.999Z</time></trkpt><trkpt lat="45.83905471670824" lon="12.239013764310016"><ele>74.0</ele><time>2026-04-25T18:20:59.999Z</time></trkpt><trkpt lat="45.8390910921808" lon="12.239115135534943"><ele>74.0</ele><time>2026-04-25T18:21:00.999Z</time></trkpt><trkpt lat="45.83912855153452" lon="12.239215939098237"><ele>74.0</ele><time>2026-04-25T18:21:01.999Z</time></trkpt><trkpt lat="45.839163577971554" lon="12.23931881655213"><ele>74.0</ele><time>2026-04-25T18:21:02.999Z</time></trkpt><trkpt lat="45.839202752009506" lon="12.239419838489583"><ele>74.0</ele><time>2026-04-25T18:21:03.999Z</time></trkpt><trkpt lat="45.83923838220432" lon="12.239523173851467"><ele>74.0</ele><time>2026-04-25T18:21:04.999Z</time></trkpt><trkpt lat="45.83927481722016" lon="12.239623721024781"><ele>74.0</ele><time>2026-04-25T18:21:05.999Z</time></trkpt><trkpt lat="45.83931036676094" lon="12.239725962935879"><ele>74.0</ele><time>2026-04-25T18:21:06.999Z</time></trkpt><trkpt lat="45.83934628160588" lon="12.239824864992517"><ele>74.0</ele><time>2026-04-25T18:21:07.999Z</time></trkpt><trkpt lat="45.83938335893308" lon="12.239925079710561"><ele>74.0</ele><time>2026-04-25T18:21:08.999Z</time></trkpt><trkpt lat="45.839416862243304" lon="12.240025470197915"><ele>74.0</ele><time>2026-04-25T18:21:09.999Z</time></trkpt><trkpt lat="45.83944995170374" lon="12.240125659338778"><ele>74.0</ele><time>2026-04-25T18:21:10.999Z</time></trkpt><trkpt lat="45.83948431275986" lon="12.240224354652565"><ele>74.0</ele><time>2026-04-25T18:21:11.999Z</time></trkpt><trkpt lat="45.83951732975984" lon="12.24032293165824"><ele>74.0</ele><time>2026-04-25T18:21:12.999Z</time></trkpt><trkpt lat="45.83955322203371" lon="12.240420107145976"><ele>74.0</ele><time>2026-04-25T18:21:13.999Z</time></trkpt><trkpt lat="45.83958739063964" lon="12.240517894996428"><ele>74.0</ele><time>2026-04-25T18:21:14.999Z</time></trkpt><trkpt lat="45.83961949386701" lon="12.240615168882364"><ele>74.0</ele><time>2026-04-25T18:21:15.999Z</time></trkpt><trkpt lat="45.83965135750626" lon="12.240713790831673"><ele>74.0</ele><time>2026-04-25T18:21:16.998Z</time></trkpt><trkpt lat="45.83968658752696" lon="12.240810055604666"><ele>74.16666666666667</ele><time>2026-04-25T18:21:17.998Z</time></trkpt><trkpt lat="45.83972310452794" lon="12.240908146852245"><ele>74.33333333333334</ele><time>2026-04-25T18:21:18.998Z</time></trkpt><trkpt lat="45.83975833370499" lon="12.241002946138575"><ele>74.5</ele><time>2026-04-25T18:21:19.998Z</time></trkpt><trkpt lat="45.839792716753614" lon="12.241100708165735"><ele>74.66666666666667</ele><time>2026-04-25T18:21:20.998Z</time></trkpt><trkpt lat="45.83982624879492" lon="12.24119829389981"><ele>74.83333333333333</ele><time>2026-04-25T18:21:21.998Z</time></trkpt><trkpt lat="45.839860937687504" lon="12.241293738221556"><ele>75.0</ele><time>2026-04-25T18:21:22.998Z</time></trkpt><trkpt lat="45.83989942672769" lon="12.24138681980196"><ele>74.99999999999999</ele><time>2026-04-25T18:21:23.998Z</time></trkpt><trkpt lat="45.83994020799363" lon="12.241476550322309"><ele>75.0</ele><time>2026-04-25T18:21:24.998Z</time></trkpt><trkpt lat="45.83998352217662" lon="12.241564239630284"><ele>75.0</ele><time>2026-04-25T18:21:25.998Z</time></trkpt><trkpt lat="45.84003280096743" lon="12.24164454509284"><ele>75.0</ele><time>2026-04-25T18:21:26.998Z</time></trkpt><trkpt lat="45.84008354302769" lon="12.241724885267462"><ele>75.0</ele><time>2026-04-25T18:21:27.998Z</time></trkpt><trkpt lat="45.84013558194072" lon="12.241800020554358"><ele>74.99999999999999</ele><time>2026-04-25T18:21:28.998Z</time></trkpt><trkpt lat="45.84018761497033" lon="12.241871195691168"><ele>75.0</ele><time>2026-04-25T18:21:29.998Z</time></trkpt><trkpt lat="45.84024147394547" lon="12.241942212386126"><ele>74.5</ele><time>2026-04-25T18:21:30.998Z</time></trkpt><trkpt lat="45.84029316148515" lon="12.242017438909249"><ele>74.0</ele><time>2026-04-25T18:21:31.998Z</time></trkpt><trkpt lat="45.84034619436091" lon="12.242092760850571"><ele>73.5</ele><time>2026-04-25T18:21:32.998Z</time></trkpt><trkpt lat="45.84039985540853" lon="12.24216843167426"><ele>73.0</ele><time>2026-04-25T18:21:33.998Z</time></trkpt><trkpt lat="45.8404541630917" lon="12.242242762584826"><ele>72.5</ele><time>2026-04-25T18:21:34.998Z</time></trkpt><trkpt lat="45.840509026171006" lon="12.242320106432615"><ele>72.0</ele><time>2026-04-25T18:21:35.998Z</time></trkpt><trkpt lat="45.84056282328573" lon="12.24239644904708"><ele>72.0</ele><time>2026-04-25T18:21:36.998Z</time></trkpt><trkpt lat="45.84061660067414" lon="12.242476805365873"><ele>72.0</ele><time>2026-04-25T18:21:37.998Z</time></trkpt><trkpt lat="45.84067139678846" lon="12.242554042162796"><ele>72.0</ele><time>2026-04-25T18:21:38.998Z</time></trkpt><trkpt lat="45.84072554606886" lon="12.242633598958534"><ele>72.0</ele><time>2026-04-25T18:21:39.998Z</time></trkpt><trkpt lat="45.84078159244215" lon="12.242710020953593"><ele>72.0</ele><time>2026-04-25T18:21:40.998Z</time></trkpt><trkpt lat="45.84083541380037" lon="12.242786649784835"><ele>72.0</ele><time>2026-04-25T18:21:41.998Z</time></trkpt><trkpt lat="45.84089197785881" lon="12.242859391810628"><ele>72.0</ele><time>2026-04-25T18:21:42.998Z</time></trkpt><trkpt lat="45.84094876754698" lon="12.242935268899155"><ele>72.0</ele><time>2026-04-25T18:21:43.998Z</time></trkpt><trkpt lat="45.84100945154227" lon="12.24300758811295"><ele>72.0</ele><time>2026-04-25T18:21:44.997Z</time></trkpt><trkpt lat="45.8410723694761" lon="12.243070215204247"><ele>72.0</ele><time>2026-04-25T18:21:45.997Z</time></trkpt><trkpt lat="45.84113486162758" lon="12.243130786405807"><ele>72.0</ele><time>2026-04-25T18:21:46.997Z</time></trkpt><trkpt lat="45.84120173685945" lon="12.243189234220223"><ele>72.0</ele><time>2026-04-25T18:21:47.997Z</time></trkpt><trkpt lat="45.84126974303952" lon="12.24324322197975"><ele>72.16666666666667</ele><time>2026-04-25T18:21:48.997Z</time></trkpt><trkpt lat="45.84134069242061" lon="12.243293579499127"><ele>72.33333333333333</ele><time>2026-04-25T18:21:50Z</time></trkpt><trkpt lat="45.84141387544337" lon="12.243335442049508"><ele>72.5</ele><time>2026-04-25T18:21:51Z</time></trkpt><trkpt lat="45.841488060277044" lon="12.243369176191695"><ele>72.66666666666666</ele><time>2026-04-25T18:21:52Z</time></trkpt><trkpt lat="45.841563773050765" lon="12.243400893614258"><ele>72.83333333333333</ele><time>2026-04-25T18:21:53Z</time></trkpt><trkpt lat="45.84164097729375" lon="12.24342743495283"><ele>73.0</ele><time>2026-04-25T18:21:54Z</time></trkpt><trkpt lat="45.84171923979113" lon="12.243447307368731"><ele>73.0</ele><time>2026-04-25T18:21:55Z</time></trkpt><trkpt lat="45.84179431943736" lon="12.243464678888644"><ele>73.0</ele><time>2026-04-25T18:21:56Z</time></trkpt><trkpt lat="45.841870959634186" lon="12.243482392013794"><ele>73.0</ele><time>2026-04-25T18:21:57Z</time></trkpt><trkpt lat="45.84194596017713" lon="12.24350390355221"><ele>73.0</ele><time>2026-04-25T18:21:58Z</time></trkpt><trkpt lat="45.84202012323185" lon="12.243528523038123"><ele>73.0</ele><time>2026-04-25T18:21:59Z</time></trkpt><trkpt lat="45.84209423282608" lon="12.243550921216913"><ele>73.0</ele><time>2026-04-25T18:22:00Z</time></trkpt><trkpt lat="45.84216774648568" lon="12.243572986200467"><ele>72.71428571428571</ele><time>2026-04-25T18:22:01Z</time></trkpt><trkpt lat="45.84224037617402" lon="12.243593770403965"><ele>72.42857142857143</ele><time>2026-04-25T18:22:02Z</time></trkpt><trkpt lat="45.84231442974614" lon="12.243611114846388"><ele>72.14285714285714</ele><time>2026-04-25T18:22:03Z</time></trkpt><trkpt lat="45.84238880697567" lon="12.243627900794973"><ele>71.85714285714286</ele><time>2026-04-25T18:22:04Z</time></trkpt><trkpt lat="45.84246025122485" lon="12.243653606787474"><ele>71.57142857142857</ele><time>2026-04-25T18:22:05Z</time></trkpt><trkpt lat="45.842532200228284" lon="12.243677364223096"><ele>71.28571428571428</ele><time>2026-04-25T18:22:06Z</time></trkpt><trkpt lat="45.84260626870948" lon="12.243692911174092"><ele>71.0</ele><time>2026-04-25T18:22:07Z</time></trkpt><trkpt lat="45.842678669929924" lon="12.243712028816516"><ele>70.83333333333334</ele><time>2026-04-25T18:22:07.999Z</time></trkpt><trkpt lat="45.842753929558754" lon="12.24373438698621"><ele>70.66666666666667</ele><time>2026-04-25T18:22:08.999Z</time></trkpt><trkpt lat="45.84282863924653" lon="12.243757596837616"><ele>70.5</ele><time>2026-04-25T18:22:09.999Z</time></trkpt><trkpt lat="45.842902463188096" lon="12.243777648276359"><ele>70.33333333333333</ele><time>2026-04-25T18:22:10.999Z</time></trkpt><trkpt lat="45.84297679124682" lon="12.243800572544268"><ele>70.16666666666666</ele><time>2026-04-25T18:22:11.999Z</time></trkpt><trkpt lat="45.84305078193622" lon="12.243821049539346"><ele>70.0</ele><time>2026-04-25T18:22:12.999Z</time></trkpt><trkpt lat="45.84312471211385" lon="12.243841599506903"><ele>70.0</ele><time>2026-04-25T18:22:13.999Z</time></trkpt><trkpt lat="45.843198657673064" lon="12.243859402159043"><ele>70.0</ele><time>2026-04-25T18:22:14.999Z</time></trkpt><trkpt lat="45.843271096661276" lon="12.243883774770044"><ele>70.0</ele><time>2026-04-25T18:22:15.999Z</time></trkpt><trkpt lat="45.84334475843596" lon="12.243904593619776"><ele>70.0</ele><time>2026-04-25T18:22:16.999Z</time></trkpt><trkpt lat="45.84341763795298" lon="12.243929932043148"><ele>70.0</ele><time>2026-04-25T18:22:17.999Z</time></trkpt><trkpt lat="45.8434917089653" lon="12.243950888295743"><ele>70.0</ele><time>2026-04-25T18:22:18.999Z</time></trkpt><trkpt lat="45.84356667708059" lon="12.243967630035995"><ele>70.33333333333333</ele><time>2026-04-25T18:22:19.999Z</time></trkpt><trkpt lat="45.84364110695553" lon="12.243986305053193"><ele>70.66666666666666</ele><time>2026-04-25T18:22:20.999Z</time></trkpt><trkpt lat="45.8437146064889" lon="12.244008653446418"><ele>71.0</ele><time>2026-04-25T18:22:21.999Z</time></trkpt><trkpt lat="45.84378765111468" lon="12.244032024732544"><ele>71.33333333333333</ele><time>2026-04-25T18:22:22.999Z</time></trkpt><trkpt lat="45.84386150668527" lon="12.244052559258996"><ele>71.66666666666667</ele><time>2026-04-25T18:22:23.999Z</time></trkpt><trkpt lat="45.84393518878677" lon="12.244073304876366"><ele>72.0</ele><time>2026-04-25T18:22:24.999Z</time></trkpt><trkpt lat="45.84400669016829" lon="12.244100451783792"><ele>72.00000000000001</ele><time>2026-04-25T18:22:25.999Z</time></trkpt><trkpt lat="45.844080085985965" lon="12.244122244825647"><ele>72.0</ele><time>2026-04-25T18:22:26.999Z</time></trkpt><trkpt lat="45.84415280979755" lon="12.24414129724531"><ele>72.0</ele><time>2026-04-25T18:22:27.999Z</time></trkpt><trkpt lat="45.84422432593662" lon="12.244158509195064"><ele>72.0</ele><time>2026-04-25T18:22:28.999Z</time></trkpt><trkpt lat="45.84429720398774" lon="12.244177742094951"><ele>72.0</ele><time>2026-04-25T18:22:29.999Z</time></trkpt><trkpt lat="45.84436865589286" lon="12.244197581396783"><ele>72.00000000000001</ele><time>2026-04-25T18:22:30.999Z</time></trkpt><trkpt lat="45.84443758390818" lon="12.244219398369088"><ele>72.0</ele><time>2026-04-25T18:22:31.999Z</time></trkpt><trkpt lat="45.844509827497085" lon="12.244240231762104"><ele>72.28571428571429</ele><time>2026-04-25T18:22:32.999Z</time></trkpt><trkpt lat="45.844580572867144" lon="12.244262054534717"><ele>72.57142857142857</ele><time>2026-04-25T18:22:33.999Z</time></trkpt><trkpt lat="45.84465183532523" lon="12.24428005307456"><ele>72.85714285714286</ele><time>2026-04-25T18:22:34.999Z</time></trkpt><trkpt lat="45.844716913727716" lon="12.244299049561793"><ele>73.14285714285714</ele><time>2026-04-25T18:22:35.999Z</time></trkpt><trkpt lat="45.84478258871114" lon="12.244319366400532"><ele>73.42857142857143</ele><time>2026-04-25T18:22:36.999Z</time></trkpt><trkpt lat="45.844845665602215" lon="12.244335349850761"><ele>73.71428571428572</ele><time>2026-04-25T18:22:37.999Z</time></trkpt><trkpt lat="45.84490827186922" lon="12.244353509518964"><ele>74.0</ele><time>2026-04-25T18:22:38.999Z</time></trkpt><trkpt lat="45.845026891784386" lon="12.244389447080689"><ele>74.5</ele><time>2026-04-25T18:22:40.999Z</time></trkpt><trkpt lat="45.84514030861607" lon="12.244420875446604"><ele>75.0</ele><time>2026-04-25T18:22:42.999Z</time></trkpt><trkpt lat="45.84525427084543" lon="12.244451431378929"><ele>75.5</ele><time>2026-04-25T18:22:44.999Z</time></trkpt><trkpt lat="45.84536732125791" lon="12.244494704871085"><ele>76.0</ele><time>2026-04-25T18:22:46.999Z</time></trkpt><trkpt lat="45.84547766361289" lon="12.244531622935435"><ele>76.0</ele><time>2026-04-25T18:22:48.998Z</time></trkpt><trkpt lat="45.84558825836847" lon="12.244557400450324"><ele>76.0</ele><time>2026-04-25T18:22:50.998Z</time></trkpt><trkpt lat="45.84569428902996" lon="12.244592611874676"><ele>76.0</ele><time>2026-04-25T18:22:52.998Z</time></trkpt><trkpt lat="45.84579780467731" lon="12.24461380610679"><ele>76.0</ele><time>2026-04-25T18:22:54.998Z</time></trkpt><trkpt lat="45.84588413526404" lon="12.244660851662745"><ele>76.0</ele><time>2026-04-25T18:22:56.998Z</time></trkpt><trkpt lat="45.84581711344436" lon="12.244794145055"><ele>76.0</ele><time>2026-04-25T18:22:59.998Z</time></trkpt><trkpt lat="45.84571066942442" lon="12.244856762198287"><ele>76.0</ele><time>2026-04-25T18:23:01.998Z</time></trkpt><trkpt lat="45.84560883862393" lon="12.24494808323755"><ele>76.0</ele><time>2026-04-25T18:23:03.998Z</time></trkpt><trkpt lat="45.84554539958967" lon="12.244966091810557"><ele>76.0</ele><time>2026-04-25T18:23:04.998Z</time></trkpt><trkpt lat="45.84548798875576" lon="12.245004273141458"><ele>76.0</ele><time>2026-04-25T18:23:05.998Z</time></trkpt><trkpt lat="45.84543786768243" lon="12.245062917159318"><ele>76.0</ele><time>2026-04-25T18:23:06.998Z</time></trkpt><trkpt lat="45.845376450100254" lon="12.245091597763375"><ele>76.0</ele><time>2026-04-25T18:23:07.998Z</time></trkpt><trkpt lat="45.84531973812595" lon="12.245133402484004"><ele>76.0</ele><time>2026-04-25T18:23:08.998Z</time></trkpt><trkpt lat="45.84526014344443" lon="12.245174705342533"><ele>76.0</ele><time>2026-04-25T18:23:09.998Z</time></trkpt><trkpt lat="45.84520210743958" lon="12.245219367992068"><ele>76.0</ele><time>2026-04-25T18:23:10.998Z</time></trkpt><trkpt lat="45.84514066602553" lon="12.245256946689912"><ele>76.0</ele><time>2026-04-25T18:23:11.998Z</time></trkpt><trkpt lat="45.84508197355679" lon="12.245292174340179"><ele>76.0</ele><time>2026-04-25T18:23:12.998Z</time></trkpt><trkpt lat="45.84502150755714" lon="12.245335406556462"><ele>76.0</ele><time>2026-04-25T18:23:13.998Z</time></trkpt><trkpt lat="45.844958904941514" lon="12.245371498214148"><ele>75.57142857142857</ele><time>2026-04-25T18:23:14.998Z</time></trkpt><trkpt lat="45.844897011868035" lon="12.24541291709132"><ele>75.14285714285715</ele><time>2026-04-25T18:23:15.998Z</time></trkpt><trkpt lat="45.84483490175073" lon="12.245456343255011"><ele>74.71428571428572</ele><time>2026-04-25T18:23:16.998Z</time></trkpt><trkpt lat="45.84477244411165" lon="12.24550313444618"><ele>74.28571428571428</ele><time>2026-04-25T18:23:17.998Z</time></trkpt><trkpt lat="45.84470879447389" lon="12.24554672085511"><ele>73.85714285714286</ele><time>2026-04-25T18:23:18.998Z</time></trkpt><trkpt lat="45.84464655098892" lon="12.245585224115903"><ele>73.42857142857143</ele><time>2026-04-25T18:23:19.998Z</time></trkpt><trkpt lat="45.8445839619283" lon="12.24562533334937"><ele>73.0</ele><time>2026-04-25T18:23:20.998Z</time></trkpt><trkpt lat="45.84452545154342" lon="12.245669510989035"><ele>72.85714285714286</ele><time>2026-04-25T18:23:21.998Z</time></trkpt><trkpt lat="45.84446425531741" lon="12.245712301654368"><ele>72.71428571428572</ele><time>2026-04-25T18:23:22.998Z</time></trkpt><trkpt lat="45.84440064955734" lon="12.245751681311814"><ele>72.57142857142858</ele><time>2026-04-25T18:23:23.998Z</time></trkpt><trkpt lat="45.8443322178242" lon="12.245779576447207"><ele>72.42857142857143</ele><time>2026-04-25T18:23:24.998Z</time></trkpt><trkpt lat="45.844278388425884" lon="12.245843382758316"><ele>72.28571428571429</ele><time>2026-04-25T18:23:25.998Z</time></trkpt><trkpt lat="45.84421652414198" lon="12.245883035575217"><ele>72.14285714285715</ele><time>2026-04-25T18:23:26.998Z</time></trkpt><trkpt lat="45.84415345819249" lon="12.245927360821726"><ele>72.0</ele><time>2026-04-25T18:23:27.998Z</time></trkpt><trkpt lat="45.84409209720411" lon="12.245972212753776"><ele>72.00000000000001</ele><time>2026-04-25T18:23:28.998Z</time></trkpt><trkpt lat="45.84402829999646" lon="12.24601524233094"><ele>72.0</ele><time>2026-04-25T18:23:29.998Z</time></trkpt><trkpt lat="45.84396595250422" lon="12.246058422233043"><ele>72.0</ele><time>2026-04-25T18:23:30.998Z</time></trkpt><trkpt lat="45.843902832015324" lon="12.246103043002945"><ele>72.0</ele><time>2026-04-25T18:23:31.997Z</time></trkpt><trkpt lat="45.84384206008384" lon="12.246145924032774"><ele>72.0</ele><time>2026-04-25T18:23:32.997Z</time></trkpt><trkpt lat="45.843781087551214" lon="12.246189378930822"><ele>72.00000000000001</ele><time>2026-04-25T18:23:33.997Z</time></trkpt><trkpt lat="45.84371803717049" lon="12.246233850054516"><ele>72.0</ele><time>2026-04-25T18:23:34.997Z</time></trkpt><trkpt lat="45.84365696760692" lon="12.246279209360434"><ele>72.00000000000001</ele><time>2026-04-25T18:23:35.997Z</time></trkpt><trkpt lat="45.8435969052488" lon="12.246322883745185"><ele>72.0</ele><time>2026-04-25T18:23:36.997Z</time></trkpt><trkpt lat="45.84353466033571" lon="12.246365957002467"><ele>72.0</ele><time>2026-04-25T18:23:37.997Z</time></trkpt><trkpt lat="45.84347406782672" lon="12.246408105727152"><ele>72.0</ele><time>2026-04-25T18:23:38.997Z</time></trkpt><trkpt lat="45.84341412361438" lon="12.246450524314389"><ele>72.0</ele><time>2026-04-25T18:23:39.997Z</time></trkpt><trkpt lat="45.843354231194176" lon="12.246495000734761"><ele>72.00000000000001</ele><time>2026-04-25T18:23:40.997Z</time></trkpt><trkpt lat="45.843295493292345" lon="12.246537886630465"><ele>72.0</ele><time>2026-04-25T18:23:41.997Z</time></trkpt><trkpt lat="45.843230088437494" lon="12.246564404451021"><ele>71.71428571428572</ele><time>2026-04-25T18:23:42.997Z</time></trkpt><trkpt lat="45.843172983098626" lon="12.246618891299711"><ele>71.42857142857143</ele><time>2026-04-25T18:23:43.997Z</time></trkpt><trkpt lat="45.843113997930026" lon="12.246664134457788"><ele>71.14285714285714</ele><time>2026-04-25T18:23:44.997Z</time></trkpt><trkpt lat="45.84305553689351" lon="12.246706629565836"><ele>70.85714285714286</ele><time>2026-04-25T18:23:45.997Z</time></trkpt><trkpt lat="45.842990278047914" lon="12.246732182412718"><ele>70.57142857142857</ele><time>2026-04-25T18:23:46.997Z</time></trkpt><trkpt lat="45.84293809340805" lon="12.246792261310997"><ele>70.28571428571429</ele><time>2026-04-25T18:23:47.997Z</time></trkpt><trkpt lat="45.84287964823022" lon="12.246831375397178"><ele>70.0</ele><time>2026-04-25T18:23:48.997Z</time></trkpt><trkpt lat="45.842818846015334" lon="12.246872770073903"><ele>70.0</ele><time>2026-04-25T18:23:49.997Z</time></trkpt><trkpt lat="45.84275799421744" lon="12.246914336706757"><ele>70.0</ele><time>2026-04-25T18:23:50.997Z</time></trkpt><trkpt lat="45.84269726735152" lon="12.246952947728566"><ele>70.0</ele><time>2026-04-25T18:23:51.997Z</time></trkpt><trkpt lat="45.842637210981984" lon="12.246995598596238"><ele>70.0</ele><time>2026-04-25T18:23:52.997Z</time></trkpt><trkpt lat="45.84257879570132" lon="12.247033271155326"><ele>70.0</ele><time>2026-04-25T18:23:53.997Z</time></trkpt><trkpt lat="45.842520246196095" lon="12.24707279739013"><ele>70.0</ele><time>2026-04-25T18:23:54.997Z</time></trkpt><trkpt lat="45.84246133403695" lon="12.24711054530467"><ele>70.0</ele><time>2026-04-25T18:23:56Z</time></trkpt><trkpt lat="45.84240163390313" lon="12.247147274417904"><ele>69.8</ele><time>2026-04-25T18:23:57Z</time></trkpt><trkpt lat="45.84234374431339" lon="12.247185068361057"><ele>69.6</ele><time>2026-04-25T18:23:58Z</time></trkpt><trkpt lat="45.84223291587225" lon="12.247266391390433"><ele>69.4</ele><time>2026-04-25T18:24:00Z</time></trkpt><trkpt lat="45.84212344542986" lon="12.247342168033507"><ele>69.2</ele><time>2026-04-25T18:24:02Z</time></trkpt><trkpt lat="45.84201566197963" lon="12.24741682902974"><ele>69.0</ele><time>2026-04-25T18:24:04Z</time></trkpt><trkpt lat="45.84189766042441" lon="12.247471929023884"><ele>68.75</ele><time>2026-04-25T18:24:06Z</time></trkpt><trkpt lat="45.84179642375457" lon="12.247566212835128"><ele>68.5</ele><time>2026-04-25T18:24:08Z</time></trkpt><trkpt lat="45.84168487995734" lon="12.247643989908685"><ele>68.25</ele><time>2026-04-25T18:24:10Z</time></trkpt><trkpt lat="45.84157434642304" lon="12.247723342822892"><ele>68.0</ele><time>2026-04-25T18:24:12Z</time></trkpt><trkpt lat="45.84146220040164" lon="12.247802573944853"><ele>68.0</ele><time>2026-04-25T18:24:14Z</time></trkpt><trkpt lat="45.84140438889635" lon="12.24784283598811"><ele>68.0</ele><time>2026-04-25T18:24:15Z</time></trkpt><trkpt lat="45.841291282074984" lon="12.247919594706037"><ele>68.0</ele><time>2026-04-25T18:24:17Z</time></trkpt><trkpt lat="45.84117447921002" lon="12.247971718647518"><ele>68.0</ele><time>2026-04-25T18:24:19Z</time></trkpt><trkpt lat="45.841063886249096" lon="12.248043637115128"><ele>68.0</ele><time>2026-04-25T18:24:21Z</time></trkpt><trkpt lat="45.84095143337606" lon="12.248116965436278"><ele>67.75</ele><time>2026-04-25T18:24:22.999Z</time></trkpt><trkpt lat="45.840838825331694" lon="12.248191737179194"><ele>67.5</ele><time>2026-04-25T18:24:24.999Z</time></trkpt><trkpt lat="45.84072495139117" lon="12.248268203754783"><ele>67.25</ele><time>2026-04-25T18:24:26.999Z</time></trkpt><trkpt lat="45.84061858748367" lon="12.248341048010516"><ele>67.0</ele><time>2026-04-25T18:24:28.999Z</time></trkpt><trkpt lat="45.84051884603484" lon="12.248421970531993"><ele>67.0</ele><time>2026-04-25T18:24:30.999Z</time></trkpt><trkpt lat="45.8404648409014" lon="12.248470037876258"><ele>67.0</ele><time>2026-04-25T18:24:31.999Z</time></trkpt><trkpt lat="45.840401411469365" lon="12.248490095067059"><ele>67.0</ele><time>2026-04-25T18:24:32.999Z</time></trkpt><trkpt lat="45.8403490505719" lon="12.248543856635674"><ele>67.0</ele><time>2026-04-25T18:24:33.999Z</time></trkpt><trkpt lat="45.840293196892844" lon="12.248587569048636"><ele>67.0</ele><time>2026-04-25T18:24:34.999Z</time></trkpt><trkpt lat="45.84023401846181" lon="12.248625364822583"><ele>67.0</ele><time>2026-04-25T18:24:35.999Z</time></trkpt><trkpt lat="45.840175339188086" lon="12.248665453840385"><ele>67.0</ele><time>2026-04-25T18:24:36.999Z</time></trkpt><trkpt lat="45.84011619378515" lon="12.248704700250864"><ele>67.0</ele><time>2026-04-25T18:24:37.999Z</time></trkpt><trkpt lat="45.84005443964832" lon="12.248747231373917"><ele>67.0</ele><time>2026-04-25T18:24:38.999Z</time></trkpt><trkpt lat="45.83999535403682" lon="12.248788146001017"><ele>67.0</ele><time>2026-04-25T18:24:39.999Z</time></trkpt><trkpt lat="45.83993769723492" lon="12.248828380976807"><ele>67.0</ele><time>2026-04-25T18:24:40.999Z</time></trkpt><trkpt lat="45.83987805305793" lon="12.248869905587085"><ele>67.0</ele><time>2026-04-25T18:24:41.999Z</time></trkpt><trkpt lat="45.83981756163979" lon="12.248909868254659"><ele>67.0</ele><time>2026-04-25T18:24:42.999Z</time></trkpt><trkpt lat="45.83970584655142" lon="12.248987131102627"><ele>67.0</ele><time>2026-04-25T18:24:44.999Z</time></trkpt><trkpt lat="45.83964885010233" lon="12.249025538672488"><ele>67.0</ele><time>2026-04-25T18:24:45.999Z</time></trkpt><trkpt lat="45.83959149738196" lon="12.2490666241524"><ele>67.0</ele><time>2026-04-25T18:24:46.999Z</time></trkpt><trkpt lat="45.83953206702431" lon="12.249107465711479"><ele>67.0</ele><time>2026-04-25T18:24:47.999Z</time></trkpt><trkpt lat="45.839473870655354" lon="12.249147628539852"><ele>67.0</ele><time>2026-04-25T18:24:48.999Z</time></trkpt><trkpt lat="45.83941603549654" lon="12.2491874919164"><ele>67.0</ele><time>2026-04-25T18:24:49.999Z</time></trkpt><trkpt lat="45.83935888300294" lon="12.249226845283047"><ele>67.0</ele><time>2026-04-25T18:24:50.999Z</time></trkpt><trkpt lat="45.83929602841898" lon="12.249250681380909"><ele>66.8</ele><time>2026-04-25T18:24:51.999Z</time></trkpt><trkpt lat="45.83924407129801" lon="12.249305995731646"><ele>66.6</ele><time>2026-04-25T18:24:52.999Z</time></trkpt><trkpt lat="45.839186316315136" lon="12.249345243254892"><ele>66.39999999999999</ele><time>2026-04-25T18:24:53.999Z</time></trkpt><trkpt lat="45.83907638937651" lon="12.249427165758686"><ele>66.2</ele><time>2026-04-25T18:24:55.999Z</time></trkpt><trkpt lat="45.83897279430971" lon="12.249496726301052"><ele>66.0</ele><time>2026-04-25T18:24:57.999Z</time></trkpt><trkpt lat="45.83886668400134" lon="12.249564811203145"><ele>66.0</ele><time>2026-04-25T18:24:59.999Z</time></trkpt><trkpt lat="45.83877713925278" lon="12.249636115170276"><ele>66.0</ele><time>2026-04-25T18:25:01.999Z</time></trkpt><trkpt lat="45.838682828137365" lon="12.249697678213883"><ele>66.0</ele><time>2026-04-25T18:25:03.999Z</time></trkpt><trkpt lat="45.83859132285194" lon="12.249766665077011"><ele>66.0</ele><time>2026-04-25T18:25:05.999Z</time></trkpt><trkpt lat="45.83849962111294" lon="12.249827793808619"><ele>66.0</ele><time>2026-04-25T18:25:07.998Z</time></trkpt><trkpt lat="45.8384196543841" lon="12.249874109534197"><ele>65.85714285714286</ele><time>2026-04-25T18:25:09.998Z</time></trkpt><trkpt lat="45.83836048809403" lon="12.249915139811648"><ele>65.71428571428572</ele><time>2026-04-25T18:25:13.998Z</time></trkpt><trkpt lat="45.83829616386802" lon="12.24994380569749"><ele>65.57142857142858</ele><time>2026-04-25T18:26:28Z</time></trkpt><trkpt lat="45.83822855348825" lon="12.249988679101996"><ele>65.42857142857143</ele><time>2026-04-25T18:27:01.999Z</time></trkpt><trkpt lat="45.838165961743144" lon="12.25003022154995"><ele>65.28571428571429</ele><time>2026-04-25T18:27:06.999Z</time></trkpt><trkpt lat="45.83810086579065" lon="12.250073426951326"><ele>65.14285714285715</ele><time>2026-04-25T18:27:11.999Z</time></trkpt><trkpt lat="45.83804642176295" lon="12.250133443463705"><ele>65.0</ele><time>2026-04-25T18:27:16.999Z</time></trkpt><trkpt lat="45.83797079065713" lon="12.250156233850529"><ele>65.0</ele><time>2026-04-25T18:27:21.998Z</time></trkpt><trkpt lat="45.83790459746534" lon="12.250198813617567"><ele>65.0</ele><time>2026-04-25T18:27:26.998Z</time></trkpt><trkpt lat="45.83784078000537" lon="12.250259940118628"><ele>65.0</ele><time>2026-04-25T18:27:31.998Z</time></trkpt><trkpt lat="45.837773601287665" lon="12.25028307922138"><ele>65.0</ele><time>2026-04-25T18:27:55.998Z</time></trkpt><trkpt lat="45.83772010351444" lon="12.250087871872678"><ele>65.0</ele><time>2026-04-25T18:27:57.998Z</time></trkpt><trkpt lat="45.83766131537266" lon="12.250001028611178"><ele>65.0</ele><time>2026-04-25T18:28:00.998Z</time></trkpt><trkpt lat="45.83761429077538" lon="12.24993353038013"><ele>65.0</ele><time>2026-04-25T18:28:03.997Z</time></trkpt><trkpt lat="45.83756431235115" lon="12.249861790471346"><ele>65.0</ele><time>2026-04-25T18:28:08Z</time></trkpt><trkpt lat="45.837463677653545" lon="12.249971851805535"><ele>65.0</ele><time>2026-04-25T18:28:12Z</time></trkpt><trkpt lat="45.83739337000793" lon="12.249959544828872"><ele>65.0</ele><time>2026-04-25T18:28:18Z</time></trkpt><trkpt lat="45.83738417174371" lon="12.24978865426138"><ele>65.0</ele><time>2026-04-25T18:28:26Z</time></trkpt><trkpt lat="45.8373630770925" lon="12.249686922508207"><ele>65.0</ele><time>2026-04-25T18:28:29Z</time></trkpt><trkpt lat="45.837340854696926" lon="12.249583614165905"><ele>65.0</ele><time>2026-04-25T18:28:32Z</time></trkpt><trkpt lat="45.83731622542162" lon="12.249475014019815"><ele>65.0</ele><time>2026-04-25T18:28:35Z</time></trkpt><trkpt lat="45.83729142194624" lon="12.249368244640507"><ele>65.0</ele><time>2026-04-25T18:28:39Z</time></trkpt><trkpt lat="45.83717619666183" lon="12.249329768620457"><ele>65.0</ele><time>2026-04-25T18:28:42Z</time></trkpt><trkpt lat="45.837107306404015" lon="12.249296115800778"><ele>65.0</ele><time>2026-04-25T18:28:45Z</time></trkpt><trkpt lat="45.83707692770097" lon="12.249209642599569"><ele>65.00000000000001</ele><time>2026-04-25T18:28:48Z</time></trkpt><trkpt lat="45.837054044991376" lon="12.249106275807907"><ele>65.0</ele><time>2026-04-25T18:28:50.999Z</time></trkpt><trkpt lat="45.83701883482245" lon="12.24901167330518"><ele>65.0</ele><time>2026-04-25T18:28:53.999Z</time></trkpt><trkpt lat="45.8369565911491" lon="12.249045666725491"><ele>65.0</ele><time>2026-04-25T18:28:56.999Z</time></trkpt><trkpt lat="45.83690523851002" lon="12.249117793031127"><ele>65.0</ele><time>2026-04-25T18:28:59.999Z</time></trkpt><trkpt lat="45.83684173274197" lon="12.249127850850057"><ele>65.00000000000001</ele><time>2026-04-25T18:29:03.999Z</time></trkpt><trkpt lat="45.836780566963334" lon="12.249055504380385"><ele>65.0</ele><time>2026-04-25T18:29:05.999Z</time></trkpt><trkpt lat="45.836872408194324" lon="12.24910020524925"><ele>65.00000000000001</ele><time>2026-04-25T18:30:59.999Z</time></trkpt><trkpt lat="45.83686145289978" lon="12.249002018133261"><ele>65.0</ele><time>2026-04-25T18:38:54Z</time></trkpt><trkpt lat="45.83683416837833" lon="12.248884002285578"><ele>65.0</ele><time>2026-04-25T18:58:04.999Z</time></trkpt><trkpt lat="45.836847779489524" lon="12.248994571071975"><ele>65.0</ele><time>2026-04-25T18:58:18.999Z</time></trkpt><trkpt lat="45.8369103942958" lon="12.249052406049653"><ele>65.0</ele><time>2026-04-25T18:58:23.999Z</time></trkpt><trkpt lat="45.836980400539325" lon="12.249062306719624"><ele>65.00000000000001</ele><time>2026-04-25T18:58:28.999Z</time></trkpt><trkpt lat="45.83704495049366" lon="12.249086809163654"><ele>65.0</ele><time>2026-04-25T18:58:34.999Z</time></trkpt><trkpt lat="45.83708261786384" lon="12.249170193829237"><ele>65.00000000000001</ele><time>2026-04-25T18:58:40.999Z</time></trkpt><trkpt lat="45.837109399354226" lon="12.249255956010717"><ele>65.0</ele><time>2026-04-25T18:58:45.999Z</time></trkpt><trkpt lat="45.83714966316678" lon="12.249337578996055"><ele>65.0</ele><time>2026-04-25T18:58:51.998Z</time></trkpt><trkpt lat="45.83720749617188" lon="12.249392850226398"><ele>65.0</ele><time>2026-04-25T18:58:57.998Z</time></trkpt><trkpt lat="45.83726563297344" lon="12.249351009098412"><ele>65.0</ele><time>2026-04-25T18:59:02.998Z</time></trkpt><trkpt lat="45.83732467645635" lon="12.249315283513265"><ele>65.00000000000001</ele><time>2026-04-25T18:59:08.998Z</time></trkpt><trkpt lat="45.83739095660386" lon="12.249305352354764"><ele>65.0</ele><time>2026-04-25T18:59:15.998Z</time></trkpt><trkpt lat="45.83745335305027" lon="12.24928934269634"><ele>65.00000000000001</ele><time>2026-04-25T18:59:23.998Z</time></trkpt><trkpt lat="45.83751180148907" lon="12.249226049787557"><ele>65.0</ele><time>2026-04-25T18:59:29.998Z</time></trkpt><trkpt lat="45.837564862027875" lon="12.249144332373982"><ele>65.0</ele><time>2026-04-25T18:59:35Z</time></trkpt><trkpt lat="45.83762514028706" lon="12.249090729638706"><ele>65.0</ele><time>2026-04-25T18:59:44Z</time></trkpt><trkpt lat="45.83769388799264" lon="12.249104850338712"><ele>65.0</ele><time>2026-04-25T18:59:53Z</time></trkpt><trkpt lat="45.83775569148924" lon="12.249145733461564"><ele>65.00000000000001</ele><time>2026-04-25T19:00:03Z</time></trkpt><trkpt lat="45.83781980714451" lon="12.249136556824473"><ele>65.0</ele><time>2026-04-25T19:00:10Z</time></trkpt><trkpt lat="45.83788162185389" lon="12.249082583493692"><ele>65.0</ele><time>2026-04-25T19:00:18Z</time></trkpt><trkpt lat="45.837954763712546" lon="12.249025863916293"><ele>65.0</ele><time>2026-04-25T19:02:14.999Z</time></trkpt><trkpt lat="45.83798759721456" lon="12.248937860468574"><ele>66.0</ele><time>2026-04-25T19:02:23.999Z</time></trkpt></trkseg></trk></gpx>